<?xml version="1.0" encoding="UTF-8" standalone="no" ?>
<gpx xmlns="http://www.topografix.com/GPX/1/1" xmlns:xsi="http://www.w3.org/2001/XMLSchema-instance" xsi:schemaLocation="http://www.topografix.com/GPX/1/1 http://www.topografix.com/GPX/1/1/gpx.xsd" version="1.1" creator="VisuGPX - https://www.visugpx.com">
  <metadata>
    <name>Vallée de l\'Aveyron - Vallée de Bonnan - plateau de milhars</name>
    <desc><![CDATA[Départ Laguépie - Le Riols- Milhars -vallée de bonnan- plateau et causse de milhars, retour par le plateau de Sommard.
]]></desc>
  </metadata>
  <trk>
    <name><![CDATA[Vtt]]></name>
    <desc><![CDATA[]]></desc>
    <trkseg>
      <trkpt lat="44.14315" lon="1.9747">
        <ele>154.2</ele>
        <time>2012-12-29T07:43:26.357Z</time>
      </trkpt>
      <trkpt lat="44.14315" lon="1.9747">
        <ele>211.5</ele>
        <time>2012-12-29T07:43:52.999Z</time>
      </trkpt>
      <trkpt lat="44.14309" lon="1.97469">
        <ele>211.5</ele>
        <time>2012-12-29T07:43:53.999Z</time>
      </trkpt>
      <trkpt lat="44.14311" lon="1.97471">
        <ele>210.4</ele>
        <time>2012-12-29T07:44:36.999Z</time>
      </trkpt>
      <trkpt lat="44.14313" lon="1.97473">
        <ele>210.4</ele>
        <time>2012-12-29T07:44:37.999Z</time>
      </trkpt>
      <trkpt lat="44.14316" lon="1.97476">
        <ele>210.2</ele>
        <time>2012-12-29T07:44:39.999Z</time>
      </trkpt>
      <trkpt lat="44.14317" lon="1.97478">
        <ele>210.1</ele>
        <time>2012-12-29T07:44:40.999Z</time>
      </trkpt>
      <trkpt lat="44.14321" lon="1.9748">
        <ele>209.7</ele>
        <time>2012-12-29T07:44:43.999Z</time>
      </trkpt>
      <trkpt lat="44.14322" lon="1.97481">
        <ele>209.6</ele>
        <time>2012-12-29T07:44:44.999Z</time>
      </trkpt>
      <trkpt lat="44.14323" lon="1.97475">
        <ele>207.6</ele>
        <time>2012-12-29T07:45:07.999Z</time>
      </trkpt>
      <trkpt lat="44.14323" lon="1.97474">
        <ele>207.5</ele>
        <time>2012-12-29T07:45:08.999Z</time>
      </trkpt>
      <trkpt lat="44.14324" lon="1.97468">
        <ele>207.2</ele>
        <time>2012-12-29T07:45:11.999Z</time>
      </trkpt>
      <trkpt lat="44.14323" lon="1.97466">
        <ele>207.1</ele>
        <time>2012-12-29T07:45:12.999Z</time>
      </trkpt>
      <trkpt lat="44.14321" lon="1.97462">
        <ele>207.1</ele>
        <time>2012-12-29T07:45:14.999Z</time>
      </trkpt>
      <trkpt lat="44.14318" lon="1.97458">
        <ele>207.1</ele>
        <time>2012-12-29T07:45:15.999Z</time>
      </trkpt>
      <trkpt lat="44.14316" lon="1.97455">
        <ele>207.1</ele>
        <time>2012-12-29T07:45:16.999Z</time>
      </trkpt>
      <trkpt lat="44.14314" lon="1.97452">
        <ele>207.2</ele>
        <time>2012-12-29T07:45:17.999Z</time>
      </trkpt>
      <trkpt lat="44.14312" lon="1.9745">
        <ele>207.2</ele>
        <time>2012-12-29T07:45:18.999Z</time>
      </trkpt>
      <trkpt lat="44.14311" lon="1.97448">
        <ele>207.2</ele>
        <time>2012-12-29T07:45:19.999Z</time>
      </trkpt>
      <trkpt lat="44.14309" lon="1.97446">
        <ele>207.3</ele>
        <time>2012-12-29T07:45:20.999Z</time>
      </trkpt>
      <trkpt lat="44.14308" lon="1.97443">
        <ele>207.2</ele>
        <time>2012-12-29T07:45:21.999Z</time>
      </trkpt>
      <trkpt lat="44.14306" lon="1.97441">
        <ele>207.2</ele>
        <time>2012-12-29T07:45:22.999Z</time>
      </trkpt>
      <trkpt lat="44.14305" lon="1.97438">
        <ele>207.1</ele>
        <time>2012-12-29T07:45:23.999Z</time>
      </trkpt>
      <trkpt lat="44.14303" lon="1.97435">
        <ele>207</ele>
        <time>2012-12-29T07:45:24.999Z</time>
      </trkpt>
      <trkpt lat="44.14302" lon="1.97433">
        <ele>206.9</ele>
        <time>2012-12-29T07:45:25.999Z</time>
      </trkpt>
      <trkpt lat="44.143" lon="1.9743">
        <ele>206.9</ele>
        <time>2012-12-29T07:45:26.999Z</time>
      </trkpt>
      <trkpt lat="44.14299" lon="1.97428">
        <ele>206.8</ele>
        <time>2012-12-29T07:45:27.999Z</time>
      </trkpt>
      <trkpt lat="44.14297" lon="1.97425">
        <ele>206.8</ele>
        <time>2012-12-29T07:45:28.999Z</time>
      </trkpt>
      <trkpt lat="44.14295" lon="1.97422">
        <ele>206.9</ele>
        <time>2012-12-29T07:45:29.999Z</time>
      </trkpt>
      <trkpt lat="44.14293" lon="1.9742">
        <ele>206.9</ele>
        <time>2012-12-29T07:45:30.999Z</time>
      </trkpt>
      <trkpt lat="44.14291" lon="1.97417">
        <ele>207</ele>
        <time>2012-12-29T07:45:31.999Z</time>
      </trkpt>
      <trkpt lat="44.14289" lon="1.97414">
        <ele>207.2</ele>
        <time>2012-12-29T07:45:32.999Z</time>
      </trkpt>
      <trkpt lat="44.14287" lon="1.97412">
        <ele>207.3</ele>
        <time>2012-12-29T07:45:33.999Z</time>
      </trkpt>
      <trkpt lat="44.14285" lon="1.9741">
        <ele>207.4</ele>
        <time>2012-12-29T07:45:34.999Z</time>
      </trkpt>
      <trkpt lat="44.14283" lon="1.97406">
        <ele>207.5</ele>
        <time>2012-12-29T07:45:35.999Z</time>
      </trkpt>
      <trkpt lat="44.14281" lon="1.97403">
        <ele>207.5</ele>
        <time>2012-12-29T07:45:36.999Z</time>
      </trkpt>
      <trkpt lat="44.14279" lon="1.974">
        <ele>207.6</ele>
        <time>2012-12-29T07:45:37.999Z</time>
      </trkpt>
      <trkpt lat="44.14277" lon="1.97398">
        <ele>207.6</ele>
        <time>2012-12-29T07:45:38.999Z</time>
      </trkpt>
      <trkpt lat="44.14276" lon="1.97395">
        <ele>207.5</ele>
        <time>2012-12-29T07:45:39.999Z</time>
      </trkpt>
      <trkpt lat="44.14274" lon="1.97391">
        <ele>207.3</ele>
        <time>2012-12-29T07:45:40.999Z</time>
      </trkpt>
      <trkpt lat="44.14272" lon="1.97388">
        <ele>207.1</ele>
        <time>2012-12-29T07:45:41.999Z</time>
      </trkpt>
      <trkpt lat="44.1427" lon="1.97385">
        <ele>206.9</ele>
        <time>2012-12-29T07:45:42.999Z</time>
      </trkpt>
      <trkpt lat="44.14268" lon="1.97382">
        <ele>206.7</ele>
        <time>2012-12-29T07:45:43.999Z</time>
      </trkpt>
      <trkpt lat="44.14267" lon="1.97378">
        <ele>206.4</ele>
        <time>2012-12-29T07:45:44.999Z</time>
      </trkpt>
      <trkpt lat="44.14265" lon="1.97375">
        <ele>206.3</ele>
        <time>2012-12-29T07:45:45.999Z</time>
      </trkpt>
      <trkpt lat="44.14263" lon="1.97372">
        <ele>206.1</ele>
        <time>2012-12-29T07:45:46.999Z</time>
      </trkpt>
      <trkpt lat="44.14262" lon="1.97368">
        <ele>205.9</ele>
        <time>2012-12-29T07:45:47.999Z</time>
      </trkpt>
      <trkpt lat="44.14261" lon="1.97364">
        <ele>205.7</ele>
        <time>2012-12-29T07:45:48.999Z</time>
      </trkpt>
      <trkpt lat="44.14259" lon="1.9736">
        <ele>205.5</ele>
        <time>2012-12-29T07:45:49.999Z</time>
      </trkpt>
      <trkpt lat="44.14258" lon="1.97356">
        <ele>205.4</ele>
        <time>2012-12-29T07:45:50.999Z</time>
      </trkpt>
      <trkpt lat="44.14257" lon="1.97353">
        <ele>205.3</ele>
        <time>2012-12-29T07:45:51.999Z</time>
      </trkpt>
      <trkpt lat="44.14256" lon="1.97349">
        <ele>205.2</ele>
        <time>2012-12-29T07:45:52.999Z</time>
      </trkpt>
      <trkpt lat="44.14255" lon="1.97346">
        <ele>205.1</ele>
        <time>2012-12-29T07:45:53.999Z</time>
      </trkpt>
      <trkpt lat="44.14254" lon="1.97342">
        <ele>205</ele>
        <time>2012-12-29T07:45:54.999Z</time>
      </trkpt>
      <trkpt lat="44.14253" lon="1.97339">
        <ele>205</ele>
        <time>2012-12-29T07:45:55.999Z</time>
      </trkpt>
      <trkpt lat="44.14251" lon="1.97335">
        <ele>204.9</ele>
        <time>2012-12-29T07:45:57.999Z</time>
      </trkpt>
      <trkpt lat="44.14249" lon="1.97333">
        <ele>204.8</ele>
        <time>2012-12-29T07:45:58.999Z</time>
      </trkpt>
      <trkpt lat="44.14245" lon="1.97334">
        <ele>204.7</ele>
        <time>2012-12-29T07:46:01.999Z</time>
      </trkpt>
      <trkpt lat="44.14244" lon="1.97336">
        <ele>204.6</ele>
        <time>2012-12-29T07:46:02.999Z</time>
      </trkpt>
      <trkpt lat="44.14241" lon="1.97339">
        <ele>203</ele>
        <time>2012-12-29T07:47:07.999Z</time>
      </trkpt>
      <trkpt lat="44.1424" lon="1.9734">
        <ele>203</ele>
        <time>2012-12-29T07:47:08.999Z</time>
      </trkpt>
      <trkpt lat="44.14237" lon="1.97337">
        <ele>202.6</ele>
        <time>2012-12-29T07:47:36.999Z</time>
      </trkpt>
      <trkpt lat="44.14255" lon="1.9734">
        <ele>191.5</ele>
        <time>2012-12-29T07:51:02.999Z</time>
      </trkpt>
      <trkpt lat="44.14251" lon="1.97338">
        <ele>191.6</ele>
        <time>2012-12-29T07:51:06.999Z</time>
      </trkpt>
      <trkpt lat="44.14249" lon="1.9734">
        <ele>191.6</ele>
        <time>2012-12-29T07:51:07.999Z</time>
      </trkpt>
      <trkpt lat="44.14245" lon="1.97343">
        <ele>191.7</ele>
        <time>2012-12-29T07:51:09.999Z</time>
      </trkpt>
      <trkpt lat="44.14244" lon="1.97343">
        <ele>191.8</ele>
        <time>2012-12-29T07:51:10.999Z</time>
      </trkpt>
      <trkpt lat="44.14241" lon="1.97346">
        <ele>201.4</ele>
        <time>2012-12-29T07:55:36.999Z</time>
      </trkpt>
      <trkpt lat="44.14241" lon="1.97347">
        <ele>201.4</ele>
        <time>2012-12-29T07:55:37.999Z</time>
      </trkpt>
      <trkpt lat="44.1424" lon="1.97352">
        <ele>205.2</ele>
        <time>2012-12-29T07:56:37.999Z</time>
      </trkpt>
      <trkpt lat="44.14239" lon="1.97353">
        <ele>205.2</ele>
        <time>2012-12-29T07:56:38.999Z</time>
      </trkpt>
      <trkpt lat="44.14239" lon="1.97347">
        <ele>205.8</ele>
        <time>2012-12-29T07:56:54.999Z</time>
      </trkpt>
      <trkpt lat="44.14239" lon="1.97346">
        <ele>205.8</ele>
        <time>2012-12-29T07:56:55.999Z</time>
      </trkpt>
      <trkpt lat="44.14237" lon="1.97341">
        <ele>206.7</ele>
        <time>2012-12-29T07:57:22.999Z</time>
      </trkpt>
      <trkpt lat="44.14237" lon="1.97341">
        <ele>206.7</ele>
        <time>2012-12-29T07:57:23.999Z</time>
      </trkpt>
      <trkpt lat="44.1424" lon="1.9734">
        <ele>205.9</ele>
        <time>2012-12-29T07:57:59.999Z</time>
      </trkpt>
      <trkpt lat="44.14242" lon="1.97339">
        <ele>205.9</ele>
        <time>2012-12-29T07:58:00.999Z</time>
      </trkpt>
      <trkpt lat="44.14245" lon="1.97336">
        <ele>205.8</ele>
        <time>2012-12-29T07:58:02.999Z</time>
      </trkpt>
      <trkpt lat="44.14248" lon="1.97334">
        <ele>205.8</ele>
        <time>2012-12-29T07:58:03.999Z</time>
      </trkpt>
      <trkpt lat="44.1425" lon="1.97332">
        <ele>205.8</ele>
        <time>2012-12-29T07:58:04.999Z</time>
      </trkpt>
      <trkpt lat="44.14253" lon="1.9733">
        <ele>205.8</ele>
        <time>2012-12-29T07:58:05.999Z</time>
      </trkpt>
      <trkpt lat="44.14254" lon="1.97328">
        <ele>205.9</ele>
        <time>2012-12-29T07:58:06.999Z</time>
      </trkpt>
      <trkpt lat="44.14255" lon="1.97324">
        <ele>205.9</ele>
        <time>2012-12-29T07:58:07.999Z</time>
      </trkpt>
      <trkpt lat="44.14254" lon="1.9732">
        <ele>206</ele>
        <time>2012-12-29T07:58:08.999Z</time>
      </trkpt>
      <trkpt lat="44.14253" lon="1.97317">
        <ele>206</ele>
        <time>2012-12-29T07:58:09.999Z</time>
      </trkpt>
      <trkpt lat="44.14252" lon="1.97314">
        <ele>206.1</ele>
        <time>2012-12-29T07:58:10.999Z</time>
      </trkpt>
      <trkpt lat="44.14251" lon="1.9731">
        <ele>206.1</ele>
        <time>2012-12-29T07:58:11.999Z</time>
      </trkpt>
      <trkpt lat="44.1425" lon="1.97306">
        <ele>206.2</ele>
        <time>2012-12-29T07:58:12.999Z</time>
      </trkpt>
      <trkpt lat="44.14249" lon="1.97303">
        <ele>206.2</ele>
        <time>2012-12-29T07:58:13.999Z</time>
      </trkpt>
      <trkpt lat="44.14248" lon="1.97299">
        <ele>206.3</ele>
        <time>2012-12-29T07:58:14.999Z</time>
      </trkpt>
      <trkpt lat="44.14247" lon="1.97296">
        <ele>206.2</ele>
        <time>2012-12-29T07:58:15.999Z</time>
      </trkpt>
      <trkpt lat="44.14246" lon="1.97292">
        <ele>206.2</ele>
        <time>2012-12-29T07:58:16.999Z</time>
      </trkpt>
      <trkpt lat="44.14245" lon="1.97288">
        <ele>206.2</ele>
        <time>2012-12-29T07:58:17.999Z</time>
      </trkpt>
      <trkpt lat="44.14244" lon="1.97285">
        <ele>206.1</ele>
        <time>2012-12-29T07:58:18.999Z</time>
      </trkpt>
      <trkpt lat="44.14243" lon="1.97281">
        <ele>206.1</ele>
        <time>2012-12-29T07:58:19.999Z</time>
      </trkpt>
      <trkpt lat="44.14242" lon="1.97277">
        <ele>206</ele>
        <time>2012-12-29T07:58:20.999Z</time>
      </trkpt>
      <trkpt lat="44.14241" lon="1.97272">
        <ele>205.9</ele>
        <time>2012-12-29T07:58:21.999Z</time>
      </trkpt>
      <trkpt lat="44.1424" lon="1.97267">
        <ele>204.9</ele>
        <time>2012-12-29T07:58:22.999Z</time>
      </trkpt>
      <trkpt lat="44.14238" lon="1.97262">
        <ele>203.9</ele>
        <time>2012-12-29T07:58:23.999Z</time>
      </trkpt>
      <trkpt lat="44.14237" lon="1.97255">
        <ele>203.2</ele>
        <time>2012-12-29T07:58:24.999Z</time>
      </trkpt>
      <trkpt lat="44.14234" lon="1.9725">
        <ele>202.8</ele>
        <time>2012-12-29T07:58:25.999Z</time>
      </trkpt>
      <trkpt lat="44.14232" lon="1.97245">
        <ele>202.7</ele>
        <time>2012-12-29T07:58:26.999Z</time>
      </trkpt>
      <trkpt lat="44.1423" lon="1.97239">
        <ele>202.3</ele>
        <time>2012-12-29T07:58:27.999Z</time>
      </trkpt>
      <trkpt lat="44.14229" lon="1.97235">
        <ele>202.3</ele>
        <time>2012-12-29T07:58:28.999Z</time>
      </trkpt>
      <trkpt lat="44.14228" lon="1.9723">
        <ele>202.3</ele>
        <time>2012-12-29T07:58:29.999Z</time>
      </trkpt>
      <trkpt lat="44.14228" lon="1.97226">
        <ele>202.2</ele>
        <time>2012-12-29T07:58:30.999Z</time>
      </trkpt>
      <trkpt lat="44.14227" lon="1.97222">
        <ele>202.1</ele>
        <time>2012-12-29T07:58:31.999Z</time>
      </trkpt>
      <trkpt lat="44.14226" lon="1.97218">
        <ele>202.1</ele>
        <time>2012-12-29T07:58:32.999Z</time>
      </trkpt>
      <trkpt lat="44.14225" lon="1.97215">
        <ele>202</ele>
        <time>2012-12-29T07:58:33.999Z</time>
      </trkpt>
      <trkpt lat="44.14225" lon="1.97211">
        <ele>202</ele>
        <time>2012-12-29T07:58:34.999Z</time>
      </trkpt>
      <trkpt lat="44.14225" lon="1.97208">
        <ele>201.9</ele>
        <time>2012-12-29T07:58:35.999Z</time>
      </trkpt>
      <trkpt lat="44.14225" lon="1.97204">
        <ele>201.9</ele>
        <time>2012-12-29T07:58:36.999Z</time>
      </trkpt>
      <trkpt lat="44.14225" lon="1.972">
        <ele>202</ele>
        <time>2012-12-29T07:58:37.999Z</time>
      </trkpt>
      <trkpt lat="44.14226" lon="1.97197">
        <ele>202</ele>
        <time>2012-12-29T07:58:38.999Z</time>
      </trkpt>
      <trkpt lat="44.14226" lon="1.97194">
        <ele>202</ele>
        <time>2012-12-29T07:58:39.999Z</time>
      </trkpt>
      <trkpt lat="44.14226" lon="1.97189">
        <ele>202.1</ele>
        <time>2012-12-29T07:58:40.999Z</time>
      </trkpt>
      <trkpt lat="44.14227" lon="1.97184">
        <ele>202.1</ele>
        <time>2012-12-29T07:58:41.999Z</time>
      </trkpt>
      <trkpt lat="44.14228" lon="1.97179">
        <ele>202.1</ele>
        <time>2012-12-29T07:58:42.999Z</time>
      </trkpt>
      <trkpt lat="44.14228" lon="1.97173">
        <ele>202.1</ele>
        <time>2012-12-29T07:58:43.999Z</time>
      </trkpt>
      <trkpt lat="44.14229" lon="1.9717">
        <ele>202</ele>
        <time>2012-12-29T07:58:44.999Z</time>
      </trkpt>
      <trkpt lat="44.1423" lon="1.97165">
        <ele>201.9</ele>
        <time>2012-12-29T07:58:45.999Z</time>
      </trkpt>
      <trkpt lat="44.14232" lon="1.9716">
        <ele>200.7</ele>
        <time>2012-12-29T07:58:46.999Z</time>
      </trkpt>
      <trkpt lat="44.14233" lon="1.97153">
        <ele>198.8</ele>
        <time>2012-12-29T07:58:47.999Z</time>
      </trkpt>
      <trkpt lat="44.14235" lon="1.97145">
        <ele>198.2</ele>
        <time>2012-12-29T07:58:48.999Z</time>
      </trkpt>
      <trkpt lat="44.14237" lon="1.97137">
        <ele>197.9</ele>
        <time>2012-12-29T07:58:49.999Z</time>
      </trkpt>
      <trkpt lat="44.14237" lon="1.97128">
        <ele>198.4</ele>
        <time>2012-12-29T07:58:50.999Z</time>
      </trkpt>
      <trkpt lat="44.14237" lon="1.97119">
        <ele>199.1</ele>
        <time>2012-12-29T07:58:51.999Z</time>
      </trkpt>
      <trkpt lat="44.14235" lon="1.97111">
        <ele>198.5</ele>
        <time>2012-12-29T07:58:52.999Z</time>
      </trkpt>
      <trkpt lat="44.14234" lon="1.97105">
        <ele>198.4</ele>
        <time>2012-12-29T07:58:53.999Z</time>
      </trkpt>
      <trkpt lat="44.14233" lon="1.97098">
        <ele>198.2</ele>
        <time>2012-12-29T07:58:54.999Z</time>
      </trkpt>
      <trkpt lat="44.14232" lon="1.97093">
        <ele>198.2</ele>
        <time>2012-12-29T07:58:55.999Z</time>
      </trkpt>
      <trkpt lat="44.14231" lon="1.97087">
        <ele>198.2</ele>
        <time>2012-12-29T07:58:56.999Z</time>
      </trkpt>
      <trkpt lat="44.1423" lon="1.9708">
        <ele>198</ele>
        <time>2012-12-29T07:58:57.999Z</time>
      </trkpt>
      <trkpt lat="44.14228" lon="1.97074">
        <ele>198.1</ele>
        <time>2012-12-29T07:58:58.999Z</time>
      </trkpt>
      <trkpt lat="44.14228" lon="1.97069">
        <ele>198</ele>
        <time>2012-12-29T07:58:59.999Z</time>
      </trkpt>
      <trkpt lat="44.14228" lon="1.97065">
        <ele>198</ele>
        <time>2012-12-29T07:59:00.999Z</time>
      </trkpt>
      <trkpt lat="44.14229" lon="1.97061">
        <ele>198</ele>
        <time>2012-12-29T07:59:01.999Z</time>
      </trkpt>
      <trkpt lat="44.14231" lon="1.97056">
        <ele>197.9</ele>
        <time>2012-12-29T07:59:02.999Z</time>
      </trkpt>
      <trkpt lat="44.14232" lon="1.97051">
        <ele>197.9</ele>
        <time>2012-12-29T07:59:03.999Z</time>
      </trkpt>
      <trkpt lat="44.14233" lon="1.97046">
        <ele>197.9</ele>
        <time>2012-12-29T07:59:04.999Z</time>
      </trkpt>
      <trkpt lat="44.14234" lon="1.97041">
        <ele>197.8</ele>
        <time>2012-12-29T07:59:05.999Z</time>
      </trkpt>
      <trkpt lat="44.14236" lon="1.97035">
        <ele>197.8</ele>
        <time>2012-12-29T07:59:06.999Z</time>
      </trkpt>
      <trkpt lat="44.14238" lon="1.97029">
        <ele>197.8</ele>
        <time>2012-12-29T07:59:07.999Z</time>
      </trkpt>
      <trkpt lat="44.1424" lon="1.97024">
        <ele>197.8</ele>
        <time>2012-12-29T07:59:08.999Z</time>
      </trkpt>
      <trkpt lat="44.14241" lon="1.97019">
        <ele>197.6</ele>
        <time>2012-12-29T07:59:09.999Z</time>
      </trkpt>
      <trkpt lat="44.14242" lon="1.97013">
        <ele>196.9</ele>
        <time>2012-12-29T07:59:10.999Z</time>
      </trkpt>
      <trkpt lat="44.14244" lon="1.97007">
        <ele>196.5</ele>
        <time>2012-12-29T07:59:11.999Z</time>
      </trkpt>
      <trkpt lat="44.14245" lon="1.97001">
        <ele>196</ele>
        <time>2012-12-29T07:59:12.999Z</time>
      </trkpt>
      <trkpt lat="44.14247" lon="1.96995">
        <ele>195.7</ele>
        <time>2012-12-29T07:59:13.999Z</time>
      </trkpt>
      <trkpt lat="44.1425" lon="1.96988">
        <ele>195.5</ele>
        <time>2012-12-29T07:59:14.999Z</time>
      </trkpt>
      <trkpt lat="44.14252" lon="1.96982">
        <ele>195.3</ele>
        <time>2012-12-29T07:59:15.999Z</time>
      </trkpt>
      <trkpt lat="44.14254" lon="1.96977">
        <ele>194.7</ele>
        <time>2012-12-29T07:59:16.999Z</time>
      </trkpt>
      <trkpt lat="44.14257" lon="1.96971">
        <ele>194.6</ele>
        <time>2012-12-29T07:59:17.999Z</time>
      </trkpt>
      <trkpt lat="44.1426" lon="1.96966">
        <ele>194.3</ele>
        <time>2012-12-29T07:59:18.999Z</time>
      </trkpt>
      <trkpt lat="44.14263" lon="1.9696">
        <ele>194.4</ele>
        <time>2012-12-29T07:59:19.999Z</time>
      </trkpt>
      <trkpt lat="44.14265" lon="1.96955">
        <ele>194.7</ele>
        <time>2012-12-29T07:59:20.999Z</time>
      </trkpt>
      <trkpt lat="44.14267" lon="1.9695">
        <ele>195.5</ele>
        <time>2012-12-29T07:59:21.999Z</time>
      </trkpt>
      <trkpt lat="44.14269" lon="1.96946">
        <ele>195.3</ele>
        <time>2012-12-29T07:59:22.999Z</time>
      </trkpt>
      <trkpt lat="44.14271" lon="1.96941">
        <ele>195.3</ele>
        <time>2012-12-29T07:59:23.999Z</time>
      </trkpt>
      <trkpt lat="44.14272" lon="1.96937">
        <ele>195</ele>
        <time>2012-12-29T07:59:24.999Z</time>
      </trkpt>
      <trkpt lat="44.14274" lon="1.96932">
        <ele>194.3</ele>
        <time>2012-12-29T07:59:25.999Z</time>
      </trkpt>
      <trkpt lat="44.14276" lon="1.96927">
        <ele>194.3</ele>
        <time>2012-12-29T07:59:26.999Z</time>
      </trkpt>
      <trkpt lat="44.14278" lon="1.96923">
        <ele>194.1</ele>
        <time>2012-12-29T07:59:27.999Z</time>
      </trkpt>
      <trkpt lat="44.14281" lon="1.96919">
        <ele>193.8</ele>
        <time>2012-12-29T07:59:28.999Z</time>
      </trkpt>
      <trkpt lat="44.14283" lon="1.96915">
        <ele>194.1</ele>
        <time>2012-12-29T07:59:29.999Z</time>
      </trkpt>
      <trkpt lat="44.14285" lon="1.9691">
        <ele>193.8</ele>
        <time>2012-12-29T07:59:30.999Z</time>
      </trkpt>
      <trkpt lat="44.14287" lon="1.96906">
        <ele>193.5</ele>
        <time>2012-12-29T07:59:31.999Z</time>
      </trkpt>
      <trkpt lat="44.14289" lon="1.96901">
        <ele>193.7</ele>
        <time>2012-12-29T07:59:32.999Z</time>
      </trkpt>
      <trkpt lat="44.14291" lon="1.96895">
        <ele>194.1</ele>
        <time>2012-12-29T07:59:33.999Z</time>
      </trkpt>
      <trkpt lat="44.14293" lon="1.9689">
        <ele>194</ele>
        <time>2012-12-29T07:59:34.999Z</time>
      </trkpt>
      <trkpt lat="44.14295" lon="1.96885">
        <ele>193.9</ele>
        <time>2012-12-29T07:59:35.999Z</time>
      </trkpt>
      <trkpt lat="44.14297" lon="1.9688">
        <ele>194</ele>
        <time>2012-12-29T07:59:36.999Z</time>
      </trkpt>
      <trkpt lat="44.143" lon="1.96876">
        <ele>194.2</ele>
        <time>2012-12-29T07:59:37.999Z</time>
      </trkpt>
      <trkpt lat="44.14303" lon="1.96871">
        <ele>194</ele>
        <time>2012-12-29T07:59:38.999Z</time>
      </trkpt>
      <trkpt lat="44.14306" lon="1.96866">
        <ele>194.3</ele>
        <time>2012-12-29T07:59:39.999Z</time>
      </trkpt>
      <trkpt lat="44.14308" lon="1.96861">
        <ele>194.3</ele>
        <time>2012-12-29T07:59:40.999Z</time>
      </trkpt>
      <trkpt lat="44.14311" lon="1.96857">
        <ele>194.3</ele>
        <time>2012-12-29T07:59:41.999Z</time>
      </trkpt>
      <trkpt lat="44.14314" lon="1.96853">
        <ele>194.8</ele>
        <time>2012-12-29T07:59:42.999Z</time>
      </trkpt>
      <trkpt lat="44.14316" lon="1.96848">
        <ele>195</ele>
        <time>2012-12-29T07:59:43.999Z</time>
      </trkpt>
      <trkpt lat="44.14319" lon="1.96844">
        <ele>194.9</ele>
        <time>2012-12-29T07:59:44.999Z</time>
      </trkpt>
      <trkpt lat="44.14321" lon="1.96838">
        <ele>194.7</ele>
        <time>2012-12-29T07:59:45.999Z</time>
      </trkpt>
      <trkpt lat="44.14324" lon="1.96833">
        <ele>194.9</ele>
        <time>2012-12-29T07:59:46.999Z</time>
      </trkpt>
      <trkpt lat="44.14326" lon="1.96828">
        <ele>195.6</ele>
        <time>2012-12-29T07:59:47.999Z</time>
      </trkpt>
      <trkpt lat="44.14329" lon="1.96822">
        <ele>196.7</ele>
        <time>2012-12-29T07:59:48.999Z</time>
      </trkpt>
      <trkpt lat="44.14332" lon="1.96817">
        <ele>197.7</ele>
        <time>2012-12-29T07:59:49.999Z</time>
      </trkpt>
      <trkpt lat="44.14334" lon="1.96812">
        <ele>199.1</ele>
        <time>2012-12-29T07:59:50.999Z</time>
      </trkpt>
      <trkpt lat="44.14336" lon="1.96808">
        <ele>199.3</ele>
        <time>2012-12-29T07:59:51.999Z</time>
      </trkpt>
      <trkpt lat="44.14338" lon="1.96803">
        <ele>199.5</ele>
        <time>2012-12-29T07:59:52.999Z</time>
      </trkpt>
      <trkpt lat="44.1434" lon="1.96797">
        <ele>199.6</ele>
        <time>2012-12-29T07:59:53.999Z</time>
      </trkpt>
      <trkpt lat="44.14341" lon="1.96792">
        <ele>199.5</ele>
        <time>2012-12-29T07:59:54.999Z</time>
      </trkpt>
      <trkpt lat="44.14343" lon="1.96787">
        <ele>199.5</ele>
        <time>2012-12-29T07:59:55.999Z</time>
      </trkpt>
      <trkpt lat="44.14344" lon="1.96782">
        <ele>199.4</ele>
        <time>2012-12-29T07:59:56.999Z</time>
      </trkpt>
      <trkpt lat="44.14345" lon="1.96777">
        <ele>199.4</ele>
        <time>2012-12-29T07:59:57.999Z</time>
      </trkpt>
      <trkpt lat="44.14346" lon="1.96772">
        <ele>199.4</ele>
        <time>2012-12-29T07:59:58.999Z</time>
      </trkpt>
      <trkpt lat="44.14347" lon="1.96767">
        <ele>199.3</ele>
        <time>2012-12-29T07:59:59.999Z</time>
      </trkpt>
      <trkpt lat="44.14347" lon="1.96762">
        <ele>199.2</ele>
        <time>2012-12-29T08:00:00.999Z</time>
      </trkpt>
      <trkpt lat="44.14348" lon="1.96757">
        <ele>199.2</ele>
        <time>2012-12-29T08:00:01.999Z</time>
      </trkpt>
      <trkpt lat="44.14349" lon="1.96752">
        <ele>199.3</ele>
        <time>2012-12-29T08:00:02.999Z</time>
      </trkpt>
      <trkpt lat="44.14351" lon="1.96747">
        <ele>199.3</ele>
        <time>2012-12-29T08:00:03.999Z</time>
      </trkpt>
      <trkpt lat="44.14352" lon="1.96741">
        <ele>199.3</ele>
        <time>2012-12-29T08:00:04.999Z</time>
      </trkpt>
      <trkpt lat="44.14353" lon="1.96736">
        <ele>199.3</ele>
        <time>2012-12-29T08:00:05.999Z</time>
      </trkpt>
      <trkpt lat="44.14355" lon="1.96732">
        <ele>199.4</ele>
        <time>2012-12-29T08:00:06.999Z</time>
      </trkpt>
      <trkpt lat="44.14356" lon="1.96726">
        <ele>199.4</ele>
        <time>2012-12-29T08:00:07.999Z</time>
      </trkpt>
      <trkpt lat="44.14358" lon="1.96721">
        <ele>199.4</ele>
        <time>2012-12-29T08:00:08.999Z</time>
      </trkpt>
      <trkpt lat="44.14359" lon="1.96716">
        <ele>199.4</ele>
        <time>2012-12-29T08:00:09.999Z</time>
      </trkpt>
      <trkpt lat="44.1436" lon="1.96712">
        <ele>199.3</ele>
        <time>2012-12-29T08:00:10.999Z</time>
      </trkpt>
      <trkpt lat="44.14361" lon="1.96708">
        <ele>199.3</ele>
        <time>2012-12-29T08:00:11.999Z</time>
      </trkpt>
      <trkpt lat="44.14361" lon="1.96703">
        <ele>199.3</ele>
        <time>2012-12-29T08:00:12.999Z</time>
      </trkpt>
      <trkpt lat="44.14362" lon="1.96699">
        <ele>199.3</ele>
        <time>2012-12-29T08:00:13.999Z</time>
      </trkpt>
      <trkpt lat="44.14364" lon="1.96693">
        <ele>199.3</ele>
        <time>2012-12-29T08:00:14.999Z</time>
      </trkpt>
      <trkpt lat="44.14364" lon="1.96689">
        <ele>199.4</ele>
        <time>2012-12-29T08:00:15.999Z</time>
      </trkpt>
      <trkpt lat="44.14364" lon="1.96685">
        <ele>199.3</ele>
        <time>2012-12-29T08:00:16.999Z</time>
      </trkpt>
      <trkpt lat="44.14365" lon="1.9668">
        <ele>199.4</ele>
        <time>2012-12-29T08:00:17.999Z</time>
      </trkpt>
      <trkpt lat="44.14366" lon="1.96675">
        <ele>199.4</ele>
        <time>2012-12-29T08:00:18.999Z</time>
      </trkpt>
      <trkpt lat="44.14368" lon="1.96671">
        <ele>199.4</ele>
        <time>2012-12-29T08:00:19.999Z</time>
      </trkpt>
      <trkpt lat="44.1437" lon="1.96666">
        <ele>199.5</ele>
        <time>2012-12-29T08:00:20.999Z</time>
      </trkpt>
      <trkpt lat="44.14373" lon="1.96662">
        <ele>199.5</ele>
        <time>2012-12-29T08:00:21.999Z</time>
      </trkpt>
      <trkpt lat="44.14374" lon="1.96659">
        <ele>199.5</ele>
        <time>2012-12-29T08:00:22.999Z</time>
      </trkpt>
      <trkpt lat="44.14376" lon="1.96656">
        <ele>199.5</ele>
        <time>2012-12-29T08:00:23.999Z</time>
      </trkpt>
      <trkpt lat="44.14378" lon="1.96652">
        <ele>199.5</ele>
        <time>2012-12-29T08:00:24.999Z</time>
      </trkpt>
      <trkpt lat="44.1438" lon="1.96649">
        <ele>199.5</ele>
        <time>2012-12-29T08:00:25.999Z</time>
      </trkpt>
      <trkpt lat="44.14383" lon="1.96645">
        <ele>199.5</ele>
        <time>2012-12-29T08:00:26.999Z</time>
      </trkpt>
      <trkpt lat="44.14386" lon="1.96641">
        <ele>199.5</ele>
        <time>2012-12-29T08:00:27.999Z</time>
      </trkpt>
      <trkpt lat="44.14389" lon="1.96636">
        <ele>200.1</ele>
        <time>2012-12-29T08:00:28.999Z</time>
      </trkpt>
      <trkpt lat="44.14392" lon="1.96632">
        <ele>199.7</ele>
        <time>2012-12-29T08:00:29.999Z</time>
      </trkpt>
      <trkpt lat="44.14395" lon="1.96627">
        <ele>198.9</ele>
        <time>2012-12-29T08:00:30.999Z</time>
      </trkpt>
      <trkpt lat="44.14397" lon="1.96622">
        <ele>198.3</ele>
        <time>2012-12-29T08:00:31.999Z</time>
      </trkpt>
      <trkpt lat="44.144" lon="1.96617">
        <ele>198.3</ele>
        <time>2012-12-29T08:00:32.999Z</time>
      </trkpt>
      <trkpt lat="44.14402" lon="1.96613">
        <ele>198.4</ele>
        <time>2012-12-29T08:00:33.999Z</time>
      </trkpt>
      <trkpt lat="44.14404" lon="1.96609">
        <ele>198.4</ele>
        <time>2012-12-29T08:00:34.999Z</time>
      </trkpt>
      <trkpt lat="44.14406" lon="1.96605">
        <ele>198.4</ele>
        <time>2012-12-29T08:00:35.999Z</time>
      </trkpt>
      <trkpt lat="44.14408" lon="1.966">
        <ele>198.4</ele>
        <time>2012-12-29T08:00:36.999Z</time>
      </trkpt>
      <trkpt lat="44.1441" lon="1.96595">
        <ele>198.4</ele>
        <time>2012-12-29T08:00:37.999Z</time>
      </trkpt>
      <trkpt lat="44.14412" lon="1.96591">
        <ele>198.4</ele>
        <time>2012-12-29T08:00:38.999Z</time>
      </trkpt>
      <trkpt lat="44.14414" lon="1.96586">
        <ele>198.3</ele>
        <time>2012-12-29T08:00:39.999Z</time>
      </trkpt>
      <trkpt lat="44.14416" lon="1.96582">
        <ele>198.2</ele>
        <time>2012-12-29T08:00:40.999Z</time>
      </trkpt>
      <trkpt lat="44.14418" lon="1.96577">
        <ele>198.2</ele>
        <time>2012-12-29T08:00:41.999Z</time>
      </trkpt>
      <trkpt lat="44.14422" lon="1.96573">
        <ele>198.2</ele>
        <time>2012-12-29T08:00:42.999Z</time>
      </trkpt>
      <trkpt lat="44.14425" lon="1.96567">
        <ele>197.9</ele>
        <time>2012-12-29T08:00:43.999Z</time>
      </trkpt>
      <trkpt lat="44.14428" lon="1.96563">
        <ele>197.8</ele>
        <time>2012-12-29T08:00:44.999Z</time>
      </trkpt>
      <trkpt lat="44.14431" lon="1.96559">
        <ele>197.8</ele>
        <time>2012-12-29T08:00:45.999Z</time>
      </trkpt>
      <trkpt lat="44.14432" lon="1.96552">
        <ele>197.9</ele>
        <time>2012-12-29T08:00:46.999Z</time>
      </trkpt>
      <trkpt lat="44.14433" lon="1.96546">
        <ele>198</ele>
        <time>2012-12-29T08:00:47.999Z</time>
      </trkpt>
      <trkpt lat="44.14436" lon="1.96541">
        <ele>198.3</ele>
        <time>2012-12-29T08:00:48.999Z</time>
      </trkpt>
      <trkpt lat="44.14439" lon="1.96536">
        <ele>197.4</ele>
        <time>2012-12-29T08:00:49.999Z</time>
      </trkpt>
      <trkpt lat="44.14442" lon="1.96531">
        <ele>196.9</ele>
        <time>2012-12-29T08:00:50.999Z</time>
      </trkpt>
      <trkpt lat="44.14444" lon="1.96527">
        <ele>196.5</ele>
        <time>2012-12-29T08:00:51.999Z</time>
      </trkpt>
      <trkpt lat="44.14447" lon="1.96522">
        <ele>196.2</ele>
        <time>2012-12-29T08:00:52.999Z</time>
      </trkpt>
      <trkpt lat="44.14449" lon="1.96518">
        <ele>196.2</ele>
        <time>2012-12-29T08:00:53.999Z</time>
      </trkpt>
      <trkpt lat="44.14452" lon="1.96514">
        <ele>195.9</ele>
        <time>2012-12-29T08:00:54.999Z</time>
      </trkpt>
      <trkpt lat="44.14455" lon="1.9651">
        <ele>195.8</ele>
        <time>2012-12-29T08:00:55.999Z</time>
      </trkpt>
      <trkpt lat="44.14458" lon="1.96506">
        <ele>195.7</ele>
        <time>2012-12-29T08:00:56.999Z</time>
      </trkpt>
      <trkpt lat="44.14461" lon="1.96501">
        <ele>195.7</ele>
        <time>2012-12-29T08:00:57.999Z</time>
      </trkpt>
      <trkpt lat="44.14463" lon="1.96497">
        <ele>195.7</ele>
        <time>2012-12-29T08:00:58.999Z</time>
      </trkpt>
      <trkpt lat="44.14467" lon="1.96493">
        <ele>195.6</ele>
        <time>2012-12-29T08:00:59.999Z</time>
      </trkpt>
      <trkpt lat="44.1447" lon="1.96489">
        <ele>195.4</ele>
        <time>2012-12-29T08:01:00.999Z</time>
      </trkpt>
      <trkpt lat="44.14474" lon="1.96485">
        <ele>195.9</ele>
        <time>2012-12-29T08:01:01.999Z</time>
      </trkpt>
      <trkpt lat="44.14476" lon="1.9648">
        <ele>196</ele>
        <time>2012-12-29T08:01:02.999Z</time>
      </trkpt>
      <trkpt lat="44.14479" lon="1.96477">
        <ele>196</ele>
        <time>2012-12-29T08:01:03.999Z</time>
      </trkpt>
      <trkpt lat="44.14482" lon="1.96473">
        <ele>196</ele>
        <time>2012-12-29T08:01:04.999Z</time>
      </trkpt>
      <trkpt lat="44.14484" lon="1.96468">
        <ele>196</ele>
        <time>2012-12-29T08:01:05.999Z</time>
      </trkpt>
      <trkpt lat="44.14486" lon="1.96463">
        <ele>195.8</ele>
        <time>2012-12-29T08:01:06.999Z</time>
      </trkpt>
      <trkpt lat="44.14489" lon="1.96458">
        <ele>195.8</ele>
        <time>2012-12-29T08:01:07.999Z</time>
      </trkpt>
      <trkpt lat="44.14491" lon="1.96454">
        <ele>195.8</ele>
        <time>2012-12-29T08:01:08.999Z</time>
      </trkpt>
      <trkpt lat="44.14494" lon="1.96449">
        <ele>195.8</ele>
        <time>2012-12-29T08:01:09.999Z</time>
      </trkpt>
      <trkpt lat="44.14497" lon="1.96445">
        <ele>196</ele>
        <time>2012-12-29T08:01:10.999Z</time>
      </trkpt>
      <trkpt lat="44.145" lon="1.96441">
        <ele>196</ele>
        <time>2012-12-29T08:01:11.999Z</time>
      </trkpt>
      <trkpt lat="44.14504" lon="1.96437">
        <ele>195.2</ele>
        <time>2012-12-29T08:01:12.999Z</time>
      </trkpt>
      <trkpt lat="44.14509" lon="1.96433">
        <ele>194.6</ele>
        <time>2012-12-29T08:01:13.999Z</time>
      </trkpt>
      <trkpt lat="44.14512" lon="1.96427">
        <ele>194.7</ele>
        <time>2012-12-29T08:01:14.999Z</time>
      </trkpt>
      <trkpt lat="44.14514" lon="1.96422">
        <ele>194.7</ele>
        <time>2012-12-29T08:01:15.999Z</time>
      </trkpt>
      <trkpt lat="44.14516" lon="1.96417">
        <ele>194.8</ele>
        <time>2012-12-29T08:01:16.999Z</time>
      </trkpt>
      <trkpt lat="44.14518" lon="1.96412">
        <ele>195.8</ele>
        <time>2012-12-29T08:01:17.999Z</time>
      </trkpt>
      <trkpt lat="44.1452" lon="1.96406">
        <ele>197</ele>
        <time>2012-12-29T08:01:18.999Z</time>
      </trkpt>
      <trkpt lat="44.14522" lon="1.964">
        <ele>197.4</ele>
        <time>2012-12-29T08:01:19.999Z</time>
      </trkpt>
      <trkpt lat="44.14523" lon="1.96394">
        <ele>198.1</ele>
        <time>2012-12-29T08:01:20.999Z</time>
      </trkpt>
      <trkpt lat="44.14524" lon="1.96389">
        <ele>198.2</ele>
        <time>2012-12-29T08:01:21.999Z</time>
      </trkpt>
      <trkpt lat="44.14525" lon="1.96384">
        <ele>198.2</ele>
        <time>2012-12-29T08:01:22.999Z</time>
      </trkpt>
      <trkpt lat="44.14526" lon="1.96378">
        <ele>198.2</ele>
        <time>2012-12-29T08:01:23.999Z</time>
      </trkpt>
      <trkpt lat="44.14527" lon="1.96373">
        <ele>198.2</ele>
        <time>2012-12-29T08:01:24.999Z</time>
      </trkpt>
      <trkpt lat="44.14528" lon="1.96366">
        <ele>198.2</ele>
        <time>2012-12-29T08:01:25.999Z</time>
      </trkpt>
      <trkpt lat="44.1453" lon="1.9636">
        <ele>198.1</ele>
        <time>2012-12-29T08:01:26.999Z</time>
      </trkpt>
      <trkpt lat="44.14531" lon="1.96353">
        <ele>198</ele>
        <time>2012-12-29T08:01:27.999Z</time>
      </trkpt>
      <trkpt lat="44.14532" lon="1.96346">
        <ele>197.9</ele>
        <time>2012-12-29T08:01:28.999Z</time>
      </trkpt>
      <trkpt lat="44.14533" lon="1.9634">
        <ele>196.9</ele>
        <time>2012-12-29T08:01:29.999Z</time>
      </trkpt>
      <trkpt lat="44.14534" lon="1.96335">
        <ele>196.8</ele>
        <time>2012-12-29T08:01:30.999Z</time>
      </trkpt>
      <trkpt lat="44.14535" lon="1.96329">
        <ele>196.8</ele>
        <time>2012-12-29T08:01:31.999Z</time>
      </trkpt>
      <trkpt lat="44.14535" lon="1.96324">
        <ele>196.7</ele>
        <time>2012-12-29T08:01:32.999Z</time>
      </trkpt>
      <trkpt lat="44.14537" lon="1.96318">
        <ele>196.2</ele>
        <time>2012-12-29T08:01:33.999Z</time>
      </trkpt>
      <trkpt lat="44.14538" lon="1.96313">
        <ele>196.2</ele>
        <time>2012-12-29T08:01:34.999Z</time>
      </trkpt>
      <trkpt lat="44.14539" lon="1.96307">
        <ele>196.1</ele>
        <time>2012-12-29T08:01:35.999Z</time>
      </trkpt>
      <trkpt lat="44.1454" lon="1.96302">
        <ele>196.1</ele>
        <time>2012-12-29T08:01:36.999Z</time>
      </trkpt>
      <trkpt lat="44.14541" lon="1.96296">
        <ele>196.1</ele>
        <time>2012-12-29T08:01:37.999Z</time>
      </trkpt>
      <trkpt lat="44.14542" lon="1.96289">
        <ele>195.9</ele>
        <time>2012-12-29T08:01:38.999Z</time>
      </trkpt>
      <trkpt lat="44.14544" lon="1.96284">
        <ele>195.9</ele>
        <time>2012-12-29T08:01:39.999Z</time>
      </trkpt>
      <trkpt lat="44.14546" lon="1.96279">
        <ele>195.8</ele>
        <time>2012-12-29T08:01:40.999Z</time>
      </trkpt>
      <trkpt lat="44.14548" lon="1.96273">
        <ele>195.8</ele>
        <time>2012-12-29T08:01:41.999Z</time>
      </trkpt>
      <trkpt lat="44.1455" lon="1.96268">
        <ele>195.8</ele>
        <time>2012-12-29T08:01:42.999Z</time>
      </trkpt>
      <trkpt lat="44.14551" lon="1.96263">
        <ele>195.8</ele>
        <time>2012-12-29T08:01:43.999Z</time>
      </trkpt>
      <trkpt lat="44.14553" lon="1.96259">
        <ele>195.7</ele>
        <time>2012-12-29T08:01:44.999Z</time>
      </trkpt>
      <trkpt lat="44.14554" lon="1.96254">
        <ele>195.8</ele>
        <time>2012-12-29T08:01:45.999Z</time>
      </trkpt>
      <trkpt lat="44.14555" lon="1.9625">
        <ele>195.8</ele>
        <time>2012-12-29T08:01:46.999Z</time>
      </trkpt>
      <trkpt lat="44.14557" lon="1.96247">
        <ele>195.9</ele>
        <time>2012-12-29T08:01:47.999Z</time>
      </trkpt>
      <trkpt lat="44.14557" lon="1.96244">
        <ele>195.9</ele>
        <time>2012-12-29T08:01:48.999Z</time>
      </trkpt>
      <trkpt lat="44.14559" lon="1.96241">
        <ele>195.8</ele>
        <time>2012-12-29T08:01:49.999Z</time>
      </trkpt>
      <trkpt lat="44.14559" lon="1.96237">
        <ele>195.8</ele>
        <time>2012-12-29T08:01:50.999Z</time>
      </trkpt>
      <trkpt lat="44.14561" lon="1.96232">
        <ele>195.8</ele>
        <time>2012-12-29T08:01:51.999Z</time>
      </trkpt>
      <trkpt lat="44.14562" lon="1.96228">
        <ele>195.8</ele>
        <time>2012-12-29T08:01:52.999Z</time>
      </trkpt>
      <trkpt lat="44.14563" lon="1.96223">
        <ele>195.8</ele>
        <time>2012-12-29T08:01:53.999Z</time>
      </trkpt>
      <trkpt lat="44.14566" lon="1.96217">
        <ele>195.9</ele>
        <time>2012-12-29T08:01:54.999Z</time>
      </trkpt>
      <trkpt lat="44.14569" lon="1.96212">
        <ele>195.9</ele>
        <time>2012-12-29T08:01:55.999Z</time>
      </trkpt>
      <trkpt lat="44.14572" lon="1.96206">
        <ele>196</ele>
        <time>2012-12-29T08:01:56.999Z</time>
      </trkpt>
      <trkpt lat="44.14574" lon="1.962">
        <ele>196</ele>
        <time>2012-12-29T08:01:57.999Z</time>
      </trkpt>
      <trkpt lat="44.14576" lon="1.96196">
        <ele>196</ele>
        <time>2012-12-29T08:01:58.999Z</time>
      </trkpt>
      <trkpt lat="44.14578" lon="1.96191">
        <ele>196</ele>
        <time>2012-12-29T08:01:59.999Z</time>
      </trkpt>
      <trkpt lat="44.1458" lon="1.96187">
        <ele>196.1</ele>
        <time>2012-12-29T08:02:00.999Z</time>
      </trkpt>
      <trkpt lat="44.14583" lon="1.96182">
        <ele>196.2</ele>
        <time>2012-12-29T08:02:01.999Z</time>
      </trkpt>
      <trkpt lat="44.14585" lon="1.96179">
        <ele>196.3</ele>
        <time>2012-12-29T08:02:02.999Z</time>
      </trkpt>
      <trkpt lat="44.14588" lon="1.96174">
        <ele>196.3</ele>
        <time>2012-12-29T08:02:03.999Z</time>
      </trkpt>
      <trkpt lat="44.14591" lon="1.96169">
        <ele>196.4</ele>
        <time>2012-12-29T08:02:04.999Z</time>
      </trkpt>
      <trkpt lat="44.14594" lon="1.96164">
        <ele>196.5</ele>
        <time>2012-12-29T08:02:05.999Z</time>
      </trkpt>
      <trkpt lat="44.14597" lon="1.9616">
        <ele>196.6</ele>
        <time>2012-12-29T08:02:06.999Z</time>
      </trkpt>
      <trkpt lat="44.146" lon="1.96155">
        <ele>197.3</ele>
        <time>2012-12-29T08:02:07.999Z</time>
      </trkpt>
      <trkpt lat="44.14602" lon="1.96151">
        <ele>197.4</ele>
        <time>2012-12-29T08:02:08.999Z</time>
      </trkpt>
      <trkpt lat="44.14605" lon="1.96147">
        <ele>197.4</ele>
        <time>2012-12-29T08:02:09.999Z</time>
      </trkpt>
      <trkpt lat="44.14608" lon="1.96144">
        <ele>197.4</ele>
        <time>2012-12-29T08:02:10.999Z</time>
      </trkpt>
      <trkpt lat="44.1461" lon="1.96139">
        <ele>197.5</ele>
        <time>2012-12-29T08:02:11.999Z</time>
      </trkpt>
      <trkpt lat="44.14613" lon="1.96135">
        <ele>197.5</ele>
        <time>2012-12-29T08:02:12.999Z</time>
      </trkpt>
      <trkpt lat="44.14616" lon="1.96131">
        <ele>197.6</ele>
        <time>2012-12-29T08:02:13.999Z</time>
      </trkpt>
      <trkpt lat="44.14619" lon="1.96127">
        <ele>197.5</ele>
        <time>2012-12-29T08:02:14.999Z</time>
      </trkpt>
      <trkpt lat="44.14621" lon="1.96123">
        <ele>197.5</ele>
        <time>2012-12-29T08:02:15.999Z</time>
      </trkpt>
      <trkpt lat="44.14623" lon="1.96117">
        <ele>197.6</ele>
        <time>2012-12-29T08:02:16.999Z</time>
      </trkpt>
      <trkpt lat="44.14626" lon="1.96113">
        <ele>197.7</ele>
        <time>2012-12-29T08:02:17.999Z</time>
      </trkpt>
      <trkpt lat="44.14628" lon="1.96108">
        <ele>197.6</ele>
        <time>2012-12-29T08:02:18.999Z</time>
      </trkpt>
      <trkpt lat="44.14631" lon="1.96105">
        <ele>197.5</ele>
        <time>2012-12-29T08:02:19.999Z</time>
      </trkpt>
      <trkpt lat="44.14634" lon="1.96101">
        <ele>197.5</ele>
        <time>2012-12-29T08:02:20.999Z</time>
      </trkpt>
      <trkpt lat="44.14637" lon="1.96098">
        <ele>198.1</ele>
        <time>2012-12-29T08:02:21.999Z</time>
      </trkpt>
      <trkpt lat="44.14639" lon="1.96094">
        <ele>198.4</ele>
        <time>2012-12-29T08:02:22.999Z</time>
      </trkpt>
      <trkpt lat="44.14642" lon="1.9609">
        <ele>198.1</ele>
        <time>2012-12-29T08:02:23.999Z</time>
      </trkpt>
      <trkpt lat="44.14644" lon="1.96086">
        <ele>198</ele>
        <time>2012-12-29T08:02:24.999Z</time>
      </trkpt>
      <trkpt lat="44.14646" lon="1.9608">
        <ele>198</ele>
        <time>2012-12-29T08:02:25.999Z</time>
      </trkpt>
      <trkpt lat="44.14648" lon="1.96075">
        <ele>197.9</ele>
        <time>2012-12-29T08:02:26.999Z</time>
      </trkpt>
      <trkpt lat="44.1465" lon="1.96071">
        <ele>197.9</ele>
        <time>2012-12-29T08:02:27.999Z</time>
      </trkpt>
      <trkpt lat="44.14652" lon="1.96066">
        <ele>197.8</ele>
        <time>2012-12-29T08:02:28.999Z</time>
      </trkpt>
      <trkpt lat="44.14655" lon="1.96062">
        <ele>197.8</ele>
        <time>2012-12-29T08:02:29.999Z</time>
      </trkpt>
      <trkpt lat="44.14657" lon="1.96056">
        <ele>197.8</ele>
        <time>2012-12-29T08:02:30.999Z</time>
      </trkpt>
      <trkpt lat="44.14659" lon="1.96051">
        <ele>197.9</ele>
        <time>2012-12-29T08:02:31.999Z</time>
      </trkpt>
      <trkpt lat="44.14661" lon="1.96046">
        <ele>197.9</ele>
        <time>2012-12-29T08:02:32.999Z</time>
      </trkpt>
      <trkpt lat="44.14663" lon="1.96042">
        <ele>197.9</ele>
        <time>2012-12-29T08:02:33.999Z</time>
      </trkpt>
      <trkpt lat="44.14665" lon="1.96038">
        <ele>197.9</ele>
        <time>2012-12-29T08:02:34.999Z</time>
      </trkpt>
      <trkpt lat="44.14668" lon="1.96034">
        <ele>198</ele>
        <time>2012-12-29T08:02:35.999Z</time>
      </trkpt>
      <trkpt lat="44.14672" lon="1.9603">
        <ele>198.2</ele>
        <time>2012-12-29T08:02:36.999Z</time>
      </trkpt>
      <trkpt lat="44.14676" lon="1.96027">
        <ele>198.2</ele>
        <time>2012-12-29T08:02:37.999Z</time>
      </trkpt>
      <trkpt lat="44.1468" lon="1.96022">
        <ele>197.4</ele>
        <time>2012-12-29T08:02:38.999Z</time>
      </trkpt>
      <trkpt lat="44.14683" lon="1.96018">
        <ele>196.8</ele>
        <time>2012-12-29T08:02:39.999Z</time>
      </trkpt>
      <trkpt lat="44.14686" lon="1.96013">
        <ele>196.3</ele>
        <time>2012-12-29T08:02:40.999Z</time>
      </trkpt>
      <trkpt lat="44.14689" lon="1.96008">
        <ele>195.9</ele>
        <time>2012-12-29T08:02:41.999Z</time>
      </trkpt>
      <trkpt lat="44.14691" lon="1.96003">
        <ele>195.1</ele>
        <time>2012-12-29T08:02:42.999Z</time>
      </trkpt>
      <trkpt lat="44.14693" lon="1.95999">
        <ele>194</ele>
        <time>2012-12-29T08:02:43.999Z</time>
      </trkpt>
      <trkpt lat="44.14694" lon="1.95995">
        <ele>193.9</ele>
        <time>2012-12-29T08:02:44.999Z</time>
      </trkpt>
      <trkpt lat="44.14696" lon="1.9599">
        <ele>193.8</ele>
        <time>2012-12-29T08:02:45.999Z</time>
      </trkpt>
      <trkpt lat="44.14697" lon="1.95985">
        <ele>193.7</ele>
        <time>2012-12-29T08:02:46.999Z</time>
      </trkpt>
      <trkpt lat="44.14699" lon="1.9598">
        <ele>193.7</ele>
        <time>2012-12-29T08:02:47.999Z</time>
      </trkpt>
      <trkpt lat="44.14699" lon="1.95976">
        <ele>193.7</ele>
        <time>2012-12-29T08:02:48.999Z</time>
      </trkpt>
      <trkpt lat="44.147" lon="1.95972">
        <ele>193.7</ele>
        <time>2012-12-29T08:02:49.999Z</time>
      </trkpt>
      <trkpt lat="44.14701" lon="1.95966">
        <ele>193.6</ele>
        <time>2012-12-29T08:02:50.999Z</time>
      </trkpt>
      <trkpt lat="44.14702" lon="1.9596">
        <ele>193.3</ele>
        <time>2012-12-29T08:02:51.999Z</time>
      </trkpt>
      <trkpt lat="44.14703" lon="1.95955">
        <ele>193.3</ele>
        <time>2012-12-29T08:02:52.999Z</time>
      </trkpt>
      <trkpt lat="44.14705" lon="1.95949">
        <ele>193.3</ele>
        <time>2012-12-29T08:02:53.999Z</time>
      </trkpt>
      <trkpt lat="44.14708" lon="1.95944">
        <ele>193.2</ele>
        <time>2012-12-29T08:02:54.999Z</time>
      </trkpt>
      <trkpt lat="44.1471" lon="1.95938">
        <ele>193.2</ele>
        <time>2012-12-29T08:02:55.999Z</time>
      </trkpt>
      <trkpt lat="44.14712" lon="1.95933">
        <ele>193.2</ele>
        <time>2012-12-29T08:02:56.999Z</time>
      </trkpt>
      <trkpt lat="44.14714" lon="1.95929">
        <ele>193.2</ele>
        <time>2012-12-29T08:02:57.999Z</time>
      </trkpt>
      <trkpt lat="44.14716" lon="1.95924">
        <ele>193.3</ele>
        <time>2012-12-29T08:02:58.999Z</time>
      </trkpt>
      <trkpt lat="44.14718" lon="1.95919">
        <ele>193.2</ele>
        <time>2012-12-29T08:02:59.999Z</time>
      </trkpt>
      <trkpt lat="44.14721" lon="1.95914">
        <ele>193.2</ele>
        <time>2012-12-29T08:03:00.999Z</time>
      </trkpt>
      <trkpt lat="44.14723" lon="1.95908">
        <ele>193.2</ele>
        <time>2012-12-29T08:03:01.999Z</time>
      </trkpt>
      <trkpt lat="44.14726" lon="1.95903">
        <ele>193.1</ele>
        <time>2012-12-29T08:03:02.999Z</time>
      </trkpt>
      <trkpt lat="44.14728" lon="1.95898">
        <ele>193</ele>
        <time>2012-12-29T08:03:03.999Z</time>
      </trkpt>
      <trkpt lat="44.14731" lon="1.95894">
        <ele>192.9</ele>
        <time>2012-12-29T08:03:04.999Z</time>
      </trkpt>
      <trkpt lat="44.14734" lon="1.9589">
        <ele>192.8</ele>
        <time>2012-12-29T08:03:05.999Z</time>
      </trkpt>
      <trkpt lat="44.14736" lon="1.95886">
        <ele>192.7</ele>
        <time>2012-12-29T08:03:06.999Z</time>
      </trkpt>
      <trkpt lat="44.14739" lon="1.95881">
        <ele>192.6</ele>
        <time>2012-12-29T08:03:07.999Z</time>
      </trkpt>
      <trkpt lat="44.14741" lon="1.95877">
        <ele>192.5</ele>
        <time>2012-12-29T08:03:08.999Z</time>
      </trkpt>
      <trkpt lat="44.14744" lon="1.95873">
        <ele>192.4</ele>
        <time>2012-12-29T08:03:09.999Z</time>
      </trkpt>
      <trkpt lat="44.14746" lon="1.95869">
        <ele>192.2</ele>
        <time>2012-12-29T08:03:10.999Z</time>
      </trkpt>
      <trkpt lat="44.14748" lon="1.95864">
        <ele>191.9</ele>
        <time>2012-12-29T08:03:11.999Z</time>
      </trkpt>
      <trkpt lat="44.14751" lon="1.9586">
        <ele>191.8</ele>
        <time>2012-12-29T08:03:12.999Z</time>
      </trkpt>
      <trkpt lat="44.14753" lon="1.95856">
        <ele>191.6</ele>
        <time>2012-12-29T08:03:13.999Z</time>
      </trkpt>
      <trkpt lat="44.14755" lon="1.95852">
        <ele>191.4</ele>
        <time>2012-12-29T08:03:14.999Z</time>
      </trkpt>
      <trkpt lat="44.14756" lon="1.95847">
        <ele>191.3</ele>
        <time>2012-12-29T08:03:15.999Z</time>
      </trkpt>
      <trkpt lat="44.14758" lon="1.95843">
        <ele>191.1</ele>
        <time>2012-12-29T08:03:16.999Z</time>
      </trkpt>
      <trkpt lat="44.14759" lon="1.95839">
        <ele>190.9</ele>
        <time>2012-12-29T08:03:17.999Z</time>
      </trkpt>
      <trkpt lat="44.1476" lon="1.95835">
        <ele>190.8</ele>
        <time>2012-12-29T08:03:18.999Z</time>
      </trkpt>
      <trkpt lat="44.14762" lon="1.95831">
        <ele>190.6</ele>
        <time>2012-12-29T08:03:19.999Z</time>
      </trkpt>
      <trkpt lat="44.14763" lon="1.95827">
        <ele>190.4</ele>
        <time>2012-12-29T08:03:20.999Z</time>
      </trkpt>
      <trkpt lat="44.14765" lon="1.95823">
        <ele>190.3</ele>
        <time>2012-12-29T08:03:21.999Z</time>
      </trkpt>
      <trkpt lat="44.14768" lon="1.95819">
        <ele>190.1</ele>
        <time>2012-12-29T08:03:22.999Z</time>
      </trkpt>
      <trkpt lat="44.14771" lon="1.95815">
        <ele>189.9</ele>
        <time>2012-12-29T08:03:23.999Z</time>
      </trkpt>
      <trkpt lat="44.14773" lon="1.95811">
        <ele>189.7</ele>
        <time>2012-12-29T08:03:24.999Z</time>
      </trkpt>
      <trkpt lat="44.14775" lon="1.95805">
        <ele>189.6</ele>
        <time>2012-12-29T08:03:25.999Z</time>
      </trkpt>
      <trkpt lat="44.14778" lon="1.958">
        <ele>189.4</ele>
        <time>2012-12-29T08:03:26.999Z</time>
      </trkpt>
      <trkpt lat="44.14781" lon="1.95796">
        <ele>187.9</ele>
        <time>2012-12-29T08:03:27.999Z</time>
      </trkpt>
      <trkpt lat="44.14785" lon="1.95792">
        <ele>186.4</ele>
        <time>2012-12-29T08:03:28.999Z</time>
      </trkpt>
      <trkpt lat="44.14789" lon="1.95786">
        <ele>184.8</ele>
        <time>2012-12-29T08:03:29.999Z</time>
      </trkpt>
      <trkpt lat="44.14793" lon="1.95781">
        <ele>183.7</ele>
        <time>2012-12-29T08:03:30.999Z</time>
      </trkpt>
      <trkpt lat="44.14797" lon="1.95776">
        <ele>183.6</ele>
        <time>2012-12-29T08:03:31.999Z</time>
      </trkpt>
      <trkpt lat="44.148" lon="1.95771">
        <ele>183.5</ele>
        <time>2012-12-29T08:03:32.999Z</time>
      </trkpt>
      <trkpt lat="44.14804" lon="1.95766">
        <ele>183.4</ele>
        <time>2012-12-29T08:03:33.999Z</time>
      </trkpt>
      <trkpt lat="44.14807" lon="1.95762">
        <ele>183.3</ele>
        <time>2012-12-29T08:03:34.999Z</time>
      </trkpt>
      <trkpt lat="44.1481" lon="1.95758">
        <ele>183.2</ele>
        <time>2012-12-29T08:03:35.999Z</time>
      </trkpt>
      <trkpt lat="44.14812" lon="1.95755">
        <ele>183.1</ele>
        <time>2012-12-29T08:03:36.999Z</time>
      </trkpt>
      <trkpt lat="44.14813" lon="1.95752">
        <ele>183</ele>
        <time>2012-12-29T08:03:37.999Z</time>
      </trkpt>
      <trkpt lat="44.14815" lon="1.95748">
        <ele>182.9</ele>
        <time>2012-12-29T08:03:38.999Z</time>
      </trkpt>
      <trkpt lat="44.14817" lon="1.95744">
        <ele>182.8</ele>
        <time>2012-12-29T08:03:39.999Z</time>
      </trkpt>
      <trkpt lat="44.14819" lon="1.9574">
        <ele>182.8</ele>
        <time>2012-12-29T08:03:40.999Z</time>
      </trkpt>
      <trkpt lat="44.14821" lon="1.95735">
        <ele>182.7</ele>
        <time>2012-12-29T08:03:41.999Z</time>
      </trkpt>
      <trkpt lat="44.14822" lon="1.95729">
        <ele>181.7</ele>
        <time>2012-12-29T08:03:42.999Z</time>
      </trkpt>
      <trkpt lat="44.14823" lon="1.95724">
        <ele>180.7</ele>
        <time>2012-12-29T08:03:43.999Z</time>
      </trkpt>
      <trkpt lat="44.14825" lon="1.95718">
        <ele>180.2</ele>
        <time>2012-12-29T08:03:44.999Z</time>
      </trkpt>
      <trkpt lat="44.14826" lon="1.95712">
        <ele>180.1</ele>
        <time>2012-12-29T08:03:45.999Z</time>
      </trkpt>
      <trkpt lat="44.14829" lon="1.95706">
        <ele>180</ele>
        <time>2012-12-29T08:03:46.999Z</time>
      </trkpt>
      <trkpt lat="44.14833" lon="1.95701">
        <ele>179.9</ele>
        <time>2012-12-29T08:03:47.999Z</time>
      </trkpt>
      <trkpt lat="44.14836" lon="1.95696">
        <ele>178.8</ele>
        <time>2012-12-29T08:03:48.999Z</time>
      </trkpt>
      <trkpt lat="44.14839" lon="1.95692">
        <ele>178.6</ele>
        <time>2012-12-29T08:03:49.999Z</time>
      </trkpt>
      <trkpt lat="44.14841" lon="1.95687">
        <ele>178.6</ele>
        <time>2012-12-29T08:03:50.999Z</time>
      </trkpt>
      <trkpt lat="44.14843" lon="1.95682">
        <ele>178.5</ele>
        <time>2012-12-29T08:03:51.999Z</time>
      </trkpt>
      <trkpt lat="44.14846" lon="1.95677">
        <ele>177.7</ele>
        <time>2012-12-29T08:03:52.999Z</time>
      </trkpt>
      <trkpt lat="44.1485" lon="1.95671">
        <ele>177.2</ele>
        <time>2012-12-29T08:03:53.999Z</time>
      </trkpt>
      <trkpt lat="44.14854" lon="1.95665">
        <ele>177</ele>
        <time>2012-12-29T08:03:54.999Z</time>
      </trkpt>
      <trkpt lat="44.14858" lon="1.95656">
        <ele>177.3</ele>
        <time>2012-12-29T08:03:55.999Z</time>
      </trkpt>
      <trkpt lat="44.14861" lon="1.95645">
        <ele>178.7</ele>
        <time>2012-12-29T08:03:56.999Z</time>
      </trkpt>
      <trkpt lat="44.14864" lon="1.95635">
        <ele>179.9</ele>
        <time>2012-12-29T08:03:57.999Z</time>
      </trkpt>
      <trkpt lat="44.14867" lon="1.95628">
        <ele>181.9</ele>
        <time>2012-12-29T08:03:58.999Z</time>
      </trkpt>
      <trkpt lat="44.14869" lon="1.95622">
        <ele>182</ele>
        <time>2012-12-29T08:03:59.999Z</time>
      </trkpt>
      <trkpt lat="44.14872" lon="1.95616">
        <ele>182.2</ele>
        <time>2012-12-29T08:04:00.999Z</time>
      </trkpt>
      <trkpt lat="44.14876" lon="1.95611">
        <ele>183.8</ele>
        <time>2012-12-29T08:04:01.999Z</time>
      </trkpt>
      <trkpt lat="44.14879" lon="1.95605">
        <ele>185.2</ele>
        <time>2012-12-29T08:04:02.999Z</time>
      </trkpt>
      <trkpt lat="44.14882" lon="1.95598">
        <ele>186.5</ele>
        <time>2012-12-29T08:04:03.999Z</time>
      </trkpt>
      <trkpt lat="44.14883" lon="1.95592">
        <ele>187.8</ele>
        <time>2012-12-29T08:04:04.999Z</time>
      </trkpt>
      <trkpt lat="44.14884" lon="1.95586">
        <ele>188.8</ele>
        <time>2012-12-29T08:04:05.999Z</time>
      </trkpt>
      <trkpt lat="44.14885" lon="1.95581">
        <ele>189.7</ele>
        <time>2012-12-29T08:04:06.999Z</time>
      </trkpt>
      <trkpt lat="44.14886" lon="1.95576">
        <ele>191.2</ele>
        <time>2012-12-29T08:04:07.999Z</time>
      </trkpt>
      <trkpt lat="44.14887" lon="1.9557">
        <ele>191.4</ele>
        <time>2012-12-29T08:04:08.999Z</time>
      </trkpt>
      <trkpt lat="44.14888" lon="1.95565">
        <ele>191.5</ele>
        <time>2012-12-29T08:04:09.999Z</time>
      </trkpt>
      <trkpt lat="44.14889" lon="1.9556">
        <ele>191.6</ele>
        <time>2012-12-29T08:04:10.999Z</time>
      </trkpt>
      <trkpt lat="44.14892" lon="1.95554">
        <ele>193.3</ele>
        <time>2012-12-29T08:04:11.999Z</time>
      </trkpt>
      <trkpt lat="44.14894" lon="1.95548">
        <ele>194.2</ele>
        <time>2012-12-29T08:04:12.999Z</time>
      </trkpt>
      <trkpt lat="44.14896" lon="1.95542">
        <ele>195.1</ele>
        <time>2012-12-29T08:04:13.999Z</time>
      </trkpt>
      <trkpt lat="44.14898" lon="1.95536">
        <ele>195.8</ele>
        <time>2012-12-29T08:04:14.999Z</time>
      </trkpt>
      <trkpt lat="44.149" lon="1.95531">
        <ele>196.3</ele>
        <time>2012-12-29T08:04:15.999Z</time>
      </trkpt>
      <trkpt lat="44.14901" lon="1.95527">
        <ele>196.3</ele>
        <time>2012-12-29T08:04:16.999Z</time>
      </trkpt>
      <trkpt lat="44.14903" lon="1.95521">
        <ele>196.3</ele>
        <time>2012-12-29T08:04:17.999Z</time>
      </trkpt>
      <trkpt lat="44.14905" lon="1.95515">
        <ele>196.3</ele>
        <time>2012-12-29T08:04:18.999Z</time>
      </trkpt>
      <trkpt lat="44.14906" lon="1.95511">
        <ele>196.3</ele>
        <time>2012-12-29T08:04:19.999Z</time>
      </trkpt>
      <trkpt lat="44.14908" lon="1.95506">
        <ele>196.3</ele>
        <time>2012-12-29T08:04:20.999Z</time>
      </trkpt>
      <trkpt lat="44.1491" lon="1.95501">
        <ele>196.3</ele>
        <time>2012-12-29T08:04:21.999Z</time>
      </trkpt>
      <trkpt lat="44.14912" lon="1.95497">
        <ele>196.2</ele>
        <time>2012-12-29T08:04:22.999Z</time>
      </trkpt>
      <trkpt lat="44.14914" lon="1.95492">
        <ele>196.2</ele>
        <time>2012-12-29T08:04:23.999Z</time>
      </trkpt>
      <trkpt lat="44.14916" lon="1.95487">
        <ele>196.1</ele>
        <time>2012-12-29T08:04:24.999Z</time>
      </trkpt>
      <trkpt lat="44.14917" lon="1.95482">
        <ele>196</ele>
        <time>2012-12-29T08:04:25.999Z</time>
      </trkpt>
      <trkpt lat="44.14919" lon="1.95478">
        <ele>196</ele>
        <time>2012-12-29T08:04:26.999Z</time>
      </trkpt>
      <trkpt lat="44.14922" lon="1.95472">
        <ele>195.9</ele>
        <time>2012-12-29T08:04:27.999Z</time>
      </trkpt>
      <trkpt lat="44.14923" lon="1.95467">
        <ele>194.8</ele>
        <time>2012-12-29T08:04:28.999Z</time>
      </trkpt>
      <trkpt lat="44.14925" lon="1.95462">
        <ele>194.8</ele>
        <time>2012-12-29T08:04:29.999Z</time>
      </trkpt>
      <trkpt lat="44.14927" lon="1.95457">
        <ele>194.7</ele>
        <time>2012-12-29T08:04:30.999Z</time>
      </trkpt>
      <trkpt lat="44.14929" lon="1.95453">
        <ele>194.5</ele>
        <time>2012-12-29T08:04:31.999Z</time>
      </trkpt>
      <trkpt lat="44.14932" lon="1.95449">
        <ele>193</ele>
        <time>2012-12-29T08:04:32.999Z</time>
      </trkpt>
      <trkpt lat="44.14935" lon="1.95446">
        <ele>191.7</ele>
        <time>2012-12-29T08:04:33.999Z</time>
      </trkpt>
      <trkpt lat="44.14938" lon="1.95442">
        <ele>191.6</ele>
        <time>2012-12-29T08:04:34.999Z</time>
      </trkpt>
      <trkpt lat="44.14941" lon="1.95437">
        <ele>191.6</ele>
        <time>2012-12-29T08:04:35.999Z</time>
      </trkpt>
      <trkpt lat="44.14944" lon="1.95434">
        <ele>191.2</ele>
        <time>2012-12-29T08:04:36.999Z</time>
      </trkpt>
      <trkpt lat="44.14947" lon="1.95431">
        <ele>191.2</ele>
        <time>2012-12-29T08:04:37.999Z</time>
      </trkpt>
      <trkpt lat="44.14951" lon="1.95428">
        <ele>190.9</ele>
        <time>2012-12-29T08:04:38.999Z</time>
      </trkpt>
      <trkpt lat="44.14954" lon="1.95424">
        <ele>190.1</ele>
        <time>2012-12-29T08:04:39.999Z</time>
      </trkpt>
      <trkpt lat="44.14958" lon="1.95419">
        <ele>189.2</ele>
        <time>2012-12-29T08:04:40.999Z</time>
      </trkpt>
      <trkpt lat="44.14961" lon="1.95414">
        <ele>188.2</ele>
        <time>2012-12-29T08:04:41.999Z</time>
      </trkpt>
      <trkpt lat="44.14964" lon="1.95409">
        <ele>186.9</ele>
        <time>2012-12-29T08:04:42.999Z</time>
      </trkpt>
      <trkpt lat="44.14967" lon="1.95403">
        <ele>186.4</ele>
        <time>2012-12-29T08:04:43.999Z</time>
      </trkpt>
      <trkpt lat="44.14968" lon="1.95398">
        <ele>186.3</ele>
        <time>2012-12-29T08:04:44.999Z</time>
      </trkpt>
      <trkpt lat="44.14971" lon="1.95391">
        <ele>186</ele>
        <time>2012-12-29T08:04:45.999Z</time>
      </trkpt>
      <trkpt lat="44.14974" lon="1.95386">
        <ele>185.9</ele>
        <time>2012-12-29T08:04:46.999Z</time>
      </trkpt>
      <trkpt lat="44.14977" lon="1.9538">
        <ele>185.8</ele>
        <time>2012-12-29T08:04:47.999Z</time>
      </trkpt>
      <trkpt lat="44.1498" lon="1.95375">
        <ele>185.7</ele>
        <time>2012-12-29T08:04:48.999Z</time>
      </trkpt>
      <trkpt lat="44.14983" lon="1.9537">
        <ele>185.7</ele>
        <time>2012-12-29T08:04:49.999Z</time>
      </trkpt>
      <trkpt lat="44.14988" lon="1.95365">
        <ele>185.3</ele>
        <time>2012-12-29T08:04:50.999Z</time>
      </trkpt>
      <trkpt lat="44.14992" lon="1.95361">
        <ele>185</ele>
        <time>2012-12-29T08:04:51.999Z</time>
      </trkpt>
      <trkpt lat="44.14996" lon="1.95357">
        <ele>185.3</ele>
        <time>2012-12-29T08:04:52.999Z</time>
      </trkpt>
      <trkpt lat="44.15001" lon="1.95354">
        <ele>185.3</ele>
        <time>2012-12-29T08:04:53.999Z</time>
      </trkpt>
      <trkpt lat="44.15007" lon="1.9535">
        <ele>184.7</ele>
        <time>2012-12-29T08:04:54.999Z</time>
      </trkpt>
      <trkpt lat="44.15013" lon="1.95345">
        <ele>184.2</ele>
        <time>2012-12-29T08:04:55.999Z</time>
      </trkpt>
      <trkpt lat="44.15019" lon="1.95341">
        <ele>183</ele>
        <time>2012-12-29T08:04:56.999Z</time>
      </trkpt>
      <trkpt lat="44.15025" lon="1.95335">
        <ele>181.7</ele>
        <time>2012-12-29T08:04:57.999Z</time>
      </trkpt>
      <trkpt lat="44.15031" lon="1.9533">
        <ele>180.4</ele>
        <time>2012-12-29T08:04:58.999Z</time>
      </trkpt>
      <trkpt lat="44.15036" lon="1.95324">
        <ele>179.7</ele>
        <time>2012-12-29T08:04:59.999Z</time>
      </trkpt>
      <trkpt lat="44.1504" lon="1.95319">
        <ele>179</ele>
        <time>2012-12-29T08:05:00.999Z</time>
      </trkpt>
      <trkpt lat="44.15043" lon="1.95313">
        <ele>178.6</ele>
        <time>2012-12-29T08:05:01.999Z</time>
      </trkpt>
      <trkpt lat="44.15047" lon="1.95307">
        <ele>178.7</ele>
        <time>2012-12-29T08:05:02.999Z</time>
      </trkpt>
      <trkpt lat="44.15052" lon="1.953">
        <ele>179.3</ele>
        <time>2012-12-29T08:05:03.999Z</time>
      </trkpt>
      <trkpt lat="44.15056" lon="1.95292">
        <ele>179.5</ele>
        <time>2012-12-29T08:05:04.999Z</time>
      </trkpt>
      <trkpt lat="44.15058" lon="1.95283">
        <ele>179.6</ele>
        <time>2012-12-29T08:05:05.999Z</time>
      </trkpt>
      <trkpt lat="44.15059" lon="1.95276">
        <ele>179.8</ele>
        <time>2012-12-29T08:05:06.999Z</time>
      </trkpt>
      <trkpt lat="44.15059" lon="1.9527">
        <ele>179.9</ele>
        <time>2012-12-29T08:05:07.999Z</time>
      </trkpt>
      <trkpt lat="44.1506" lon="1.95265">
        <ele>180.1</ele>
        <time>2012-12-29T08:05:08.999Z</time>
      </trkpt>
      <trkpt lat="44.15059" lon="1.9526">
        <ele>180.3</ele>
        <time>2012-12-29T08:05:09.999Z</time>
      </trkpt>
      <trkpt lat="44.15059" lon="1.95255">
        <ele>180.4</ele>
        <time>2012-12-29T08:05:10.999Z</time>
      </trkpt>
      <trkpt lat="44.15058" lon="1.95249">
        <ele>180.6</ele>
        <time>2012-12-29T08:05:11.999Z</time>
      </trkpt>
      <trkpt lat="44.15058" lon="1.95245">
        <ele>180.7</ele>
        <time>2012-12-29T08:05:12.999Z</time>
      </trkpt>
      <trkpt lat="44.15057" lon="1.9524">
        <ele>180.9</ele>
        <time>2012-12-29T08:05:13.999Z</time>
      </trkpt>
      <trkpt lat="44.15056" lon="1.95234">
        <ele>181.1</ele>
        <time>2012-12-29T08:05:14.999Z</time>
      </trkpt>
      <trkpt lat="44.15055" lon="1.95228">
        <ele>181.3</ele>
        <time>2012-12-29T08:05:15.999Z</time>
      </trkpt>
      <trkpt lat="44.15054" lon="1.95223">
        <ele>181.5</ele>
        <time>2012-12-29T08:05:16.999Z</time>
      </trkpt>
      <trkpt lat="44.15052" lon="1.95217">
        <ele>181.7</ele>
        <time>2012-12-29T08:05:17.999Z</time>
      </trkpt>
      <trkpt lat="44.15051" lon="1.95211">
        <ele>182</ele>
        <time>2012-12-29T08:05:18.999Z</time>
      </trkpt>
      <trkpt lat="44.15051" lon="1.95205">
        <ele>182.2</ele>
        <time>2012-12-29T08:05:19.999Z</time>
      </trkpt>
      <trkpt lat="44.1505" lon="1.952">
        <ele>182.4</ele>
        <time>2012-12-29T08:05:20.999Z</time>
      </trkpt>
      <trkpt lat="44.15049" lon="1.95194">
        <ele>182.6</ele>
        <time>2012-12-29T08:05:21.999Z</time>
      </trkpt>
      <trkpt lat="44.15048" lon="1.95188">
        <ele>182.9</ele>
        <time>2012-12-29T08:05:22.999Z</time>
      </trkpt>
      <trkpt lat="44.15048" lon="1.95182">
        <ele>185.8</ele>
        <time>2012-12-29T08:05:23.999Z</time>
      </trkpt>
      <trkpt lat="44.15046" lon="1.95176">
        <ele>187.2</ele>
        <time>2012-12-29T08:05:24.999Z</time>
      </trkpt>
      <trkpt lat="44.15045" lon="1.95169">
        <ele>188.4</ele>
        <time>2012-12-29T08:05:25.999Z</time>
      </trkpt>
      <trkpt lat="44.15043" lon="1.95163">
        <ele>189.2</ele>
        <time>2012-12-29T08:05:26.999Z</time>
      </trkpt>
      <trkpt lat="44.15041" lon="1.95158">
        <ele>189.3</ele>
        <time>2012-12-29T08:05:27.999Z</time>
      </trkpt>
      <trkpt lat="44.15039" lon="1.95152">
        <ele>189.6</ele>
        <time>2012-12-29T08:05:28.999Z</time>
      </trkpt>
      <trkpt lat="44.15036" lon="1.95148">
        <ele>189.8</ele>
        <time>2012-12-29T08:05:29.999Z</time>
      </trkpt>
      <trkpt lat="44.15033" lon="1.95144">
        <ele>189.9</ele>
        <time>2012-12-29T08:05:30.999Z</time>
      </trkpt>
      <trkpt lat="44.15029" lon="1.9514">
        <ele>190.1</ele>
        <time>2012-12-29T08:05:31.999Z</time>
      </trkpt>
      <trkpt lat="44.15025" lon="1.95137">
        <ele>190.2</ele>
        <time>2012-12-29T08:05:32.999Z</time>
      </trkpt>
      <trkpt lat="44.15021" lon="1.95134">
        <ele>191.7</ele>
        <time>2012-12-29T08:05:33.999Z</time>
      </trkpt>
      <trkpt lat="44.15017" lon="1.9513">
        <ele>193.1</ele>
        <time>2012-12-29T08:05:34.999Z</time>
      </trkpt>
      <trkpt lat="44.15013" lon="1.95126">
        <ele>194.1</ele>
        <time>2012-12-29T08:05:35.999Z</time>
      </trkpt>
      <trkpt lat="44.15009" lon="1.95121">
        <ele>194.4</ele>
        <time>2012-12-29T08:05:36.999Z</time>
      </trkpt>
      <trkpt lat="44.15005" lon="1.95116">
        <ele>194.5</ele>
        <time>2012-12-29T08:05:37.999Z</time>
      </trkpt>
      <trkpt lat="44.15" lon="1.95111">
        <ele>194.6</ele>
        <time>2012-12-29T08:05:38.999Z</time>
      </trkpt>
      <trkpt lat="44.14996" lon="1.95107">
        <ele>194.8</ele>
        <time>2012-12-29T08:05:39.999Z</time>
      </trkpt>
      <trkpt lat="44.14993" lon="1.95103">
        <ele>196.7</ele>
        <time>2012-12-29T08:05:40.999Z</time>
      </trkpt>
      <trkpt lat="44.1499" lon="1.95099">
        <ele>196.8</ele>
        <time>2012-12-29T08:05:41.999Z</time>
      </trkpt>
      <trkpt lat="44.14987" lon="1.95096">
        <ele>196.9</ele>
        <time>2012-12-29T08:05:42.999Z</time>
      </trkpt>
      <trkpt lat="44.14984" lon="1.95092">
        <ele>197.1</ele>
        <time>2012-12-29T08:05:43.999Z</time>
      </trkpt>
      <trkpt lat="44.14981" lon="1.95089">
        <ele>198.2</ele>
        <time>2012-12-29T08:05:44.999Z</time>
      </trkpt>
      <trkpt lat="44.14978" lon="1.95084">
        <ele>198.7</ele>
        <time>2012-12-29T08:05:45.999Z</time>
      </trkpt>
      <trkpt lat="44.14974" lon="1.9508">
        <ele>198.5</ele>
        <time>2012-12-29T08:05:46.999Z</time>
      </trkpt>
      <trkpt lat="44.1497" lon="1.95074">
        <ele>197.5</ele>
        <time>2012-12-29T08:05:47.999Z</time>
      </trkpt>
      <trkpt lat="44.14966" lon="1.95069">
        <ele>196.8</ele>
        <time>2012-12-29T08:05:48.999Z</time>
      </trkpt>
      <trkpt lat="44.14961" lon="1.95063">
        <ele>196.5</ele>
        <time>2012-12-29T08:05:49.999Z</time>
      </trkpt>
      <trkpt lat="44.14956" lon="1.95057">
        <ele>196.3</ele>
        <time>2012-12-29T08:05:50.999Z</time>
      </trkpt>
      <trkpt lat="44.14953" lon="1.95053">
        <ele>196.3</ele>
        <time>2012-12-29T08:05:51.999Z</time>
      </trkpt>
      <trkpt lat="44.14949" lon="1.95048">
        <ele>196.1</ele>
        <time>2012-12-29T08:05:52.999Z</time>
      </trkpt>
      <trkpt lat="44.14946" lon="1.95043">
        <ele>195.7</ele>
        <time>2012-12-29T08:05:53.999Z</time>
      </trkpt>
      <trkpt lat="44.14943" lon="1.95039">
        <ele>195.6</ele>
        <time>2012-12-29T08:05:54.999Z</time>
      </trkpt>
      <trkpt lat="44.1494" lon="1.95036">
        <ele>195.5</ele>
        <time>2012-12-29T08:05:55.999Z</time>
      </trkpt>
      <trkpt lat="44.14937" lon="1.95033">
        <ele>195.5</ele>
        <time>2012-12-29T08:05:56.999Z</time>
      </trkpt>
      <trkpt lat="44.14933" lon="1.95029">
        <ele>194.5</ele>
        <time>2012-12-29T08:05:57.999Z</time>
      </trkpt>
      <trkpt lat="44.14929" lon="1.95025">
        <ele>193.5</ele>
        <time>2012-12-29T08:05:58.999Z</time>
      </trkpt>
      <trkpt lat="44.14926" lon="1.95021">
        <ele>193</ele>
        <time>2012-12-29T08:05:59.999Z</time>
      </trkpt>
      <trkpt lat="44.14921" lon="1.9502">
        <ele>191.9</ele>
        <time>2012-12-29T08:06:00.999Z</time>
      </trkpt>
      <trkpt lat="44.14917" lon="1.95017">
        <ele>191.2</ele>
        <time>2012-12-29T08:06:01.999Z</time>
      </trkpt>
      <trkpt lat="44.14913" lon="1.95014">
        <ele>190.5</ele>
        <time>2012-12-29T08:06:02.999Z</time>
      </trkpt>
      <trkpt lat="44.14908" lon="1.95012">
        <ele>189.6</ele>
        <time>2012-12-29T08:06:03.999Z</time>
      </trkpt>
      <trkpt lat="44.14904" lon="1.95009">
        <ele>188.9</ele>
        <time>2012-12-29T08:06:04.999Z</time>
      </trkpt>
      <trkpt lat="44.149" lon="1.95006">
        <ele>188.2</ele>
        <time>2012-12-29T08:06:05.999Z</time>
      </trkpt>
      <trkpt lat="44.14895" lon="1.95003">
        <ele>188</ele>
        <time>2012-12-29T08:06:06.999Z</time>
      </trkpt>
      <trkpt lat="44.14891" lon="1.95">
        <ele>187.8</ele>
        <time>2012-12-29T08:06:07.999Z</time>
      </trkpt>
      <trkpt lat="44.14886" lon="1.94997">
        <ele>188.1</ele>
        <time>2012-12-29T08:06:08.999Z</time>
      </trkpt>
      <trkpt lat="44.14881" lon="1.94994">
        <ele>188.2</ele>
        <time>2012-12-29T08:06:09.999Z</time>
      </trkpt>
      <trkpt lat="44.14877" lon="1.9499">
        <ele>188.3</ele>
        <time>2012-12-29T08:06:10.999Z</time>
      </trkpt>
      <trkpt lat="44.14872" lon="1.94988">
        <ele>188.6</ele>
        <time>2012-12-29T08:06:11.999Z</time>
      </trkpt>
      <trkpt lat="44.14868" lon="1.94985">
        <ele>189</ele>
        <time>2012-12-29T08:06:12.999Z</time>
      </trkpt>
      <trkpt lat="44.14863" lon="1.94982">
        <ele>189.7</ele>
        <time>2012-12-29T08:06:13.999Z</time>
      </trkpt>
      <trkpt lat="44.14858" lon="1.94979">
        <ele>190.1</ele>
        <time>2012-12-29T08:06:14.999Z</time>
      </trkpt>
      <trkpt lat="44.14853" lon="1.94975">
        <ele>190.7</ele>
        <time>2012-12-29T08:06:15.999Z</time>
      </trkpt>
      <trkpt lat="44.14849" lon="1.94972">
        <ele>191.9</ele>
        <time>2012-12-29T08:06:16.999Z</time>
      </trkpt>
      <trkpt lat="44.14845" lon="1.94969">
        <ele>192.7</ele>
        <time>2012-12-29T08:06:17.999Z</time>
      </trkpt>
      <trkpt lat="44.1484" lon="1.94966">
        <ele>193.6</ele>
        <time>2012-12-29T08:06:18.999Z</time>
      </trkpt>
      <trkpt lat="44.14836" lon="1.94962">
        <ele>193.7</ele>
        <time>2012-12-29T08:06:19.999Z</time>
      </trkpt>
      <trkpt lat="44.14832" lon="1.94959">
        <ele>193.9</ele>
        <time>2012-12-29T08:06:20.999Z</time>
      </trkpt>
      <trkpt lat="44.14828" lon="1.94956">
        <ele>193.6</ele>
        <time>2012-12-29T08:06:21.999Z</time>
      </trkpt>
      <trkpt lat="44.14824" lon="1.94953">
        <ele>193.5</ele>
        <time>2012-12-29T08:06:22.999Z</time>
      </trkpt>
      <trkpt lat="44.14821" lon="1.9495">
        <ele>192.9</ele>
        <time>2012-12-29T08:06:23.999Z</time>
      </trkpt>
      <trkpt lat="44.14818" lon="1.94948">
        <ele>192.2</ele>
        <time>2012-12-29T08:06:24.999Z</time>
      </trkpt>
      <trkpt lat="44.14814" lon="1.94946">
        <ele>192.3</ele>
        <time>2012-12-29T08:06:25.999Z</time>
      </trkpt>
      <trkpt lat="44.1481" lon="1.94943">
        <ele>191.9</ele>
        <time>2012-12-29T08:06:26.999Z</time>
      </trkpt>
      <trkpt lat="44.14806" lon="1.9494">
        <ele>191.8</ele>
        <time>2012-12-29T08:06:27.999Z</time>
      </trkpt>
      <trkpt lat="44.14803" lon="1.94937">
        <ele>191.2</ele>
        <time>2012-12-29T08:06:28.999Z</time>
      </trkpt>
      <trkpt lat="44.14799" lon="1.94935">
        <ele>190.4</ele>
        <time>2012-12-29T08:06:29.999Z</time>
      </trkpt>
      <trkpt lat="44.14795" lon="1.94932">
        <ele>189.5</ele>
        <time>2012-12-29T08:06:30.999Z</time>
      </trkpt>
      <trkpt lat="44.14791" lon="1.94929">
        <ele>189.1</ele>
        <time>2012-12-29T08:06:31.999Z</time>
      </trkpt>
      <trkpt lat="44.14787" lon="1.94926">
        <ele>188.5</ele>
        <time>2012-12-29T08:06:32.999Z</time>
      </trkpt>
      <trkpt lat="44.14784" lon="1.94922">
        <ele>188.3</ele>
        <time>2012-12-29T08:06:33.999Z</time>
      </trkpt>
      <trkpt lat="44.14781" lon="1.9492">
        <ele>188.2</ele>
        <time>2012-12-29T08:06:34.999Z</time>
      </trkpt>
      <trkpt lat="44.14777" lon="1.94917">
        <ele>188.2</ele>
        <time>2012-12-29T08:06:35.999Z</time>
      </trkpt>
      <trkpt lat="44.14775" lon="1.94914">
        <ele>188</ele>
        <time>2012-12-29T08:06:36.999Z</time>
      </trkpt>
      <trkpt lat="44.14772" lon="1.94911">
        <ele>188</ele>
        <time>2012-12-29T08:06:37.999Z</time>
      </trkpt>
      <trkpt lat="44.14767" lon="1.94907">
        <ele>188</ele>
        <time>2012-12-29T08:06:38.999Z</time>
      </trkpt>
      <trkpt lat="44.14762" lon="1.94903">
        <ele>187.8</ele>
        <time>2012-12-29T08:06:39.999Z</time>
      </trkpt>
      <trkpt lat="44.14759" lon="1.949">
        <ele>187.7</ele>
        <time>2012-12-29T08:06:40.999Z</time>
      </trkpt>
      <trkpt lat="44.14755" lon="1.94896">
        <ele>187.5</ele>
        <time>2012-12-29T08:06:41.999Z</time>
      </trkpt>
      <trkpt lat="44.14752" lon="1.94893">
        <ele>187.5</ele>
        <time>2012-12-29T08:06:42.999Z</time>
      </trkpt>
      <trkpt lat="44.14749" lon="1.9489">
        <ele>187.5</ele>
        <time>2012-12-29T08:06:43.999Z</time>
      </trkpt>
      <trkpt lat="44.14746" lon="1.94887">
        <ele>187.5</ele>
        <time>2012-12-29T08:06:44.999Z</time>
      </trkpt>
      <trkpt lat="44.14743" lon="1.94885">
        <ele>187.5</ele>
        <time>2012-12-29T08:06:45.999Z</time>
      </trkpt>
      <trkpt lat="44.14741" lon="1.94882">
        <ele>187.5</ele>
        <time>2012-12-29T08:06:46.999Z</time>
      </trkpt>
      <trkpt lat="44.14738" lon="1.94879">
        <ele>187.5</ele>
        <time>2012-12-29T08:06:47.999Z</time>
      </trkpt>
      <trkpt lat="44.14734" lon="1.94876">
        <ele>187.5</ele>
        <time>2012-12-29T08:06:48.999Z</time>
      </trkpt>
      <trkpt lat="44.14732" lon="1.94873">
        <ele>187.5</ele>
        <time>2012-12-29T08:06:49.999Z</time>
      </trkpt>
      <trkpt lat="44.14728" lon="1.94869">
        <ele>187.4</ele>
        <time>2012-12-29T08:06:50.999Z</time>
      </trkpt>
      <trkpt lat="44.14725" lon="1.94866">
        <ele>187.7</ele>
        <time>2012-12-29T08:06:51.999Z</time>
      </trkpt>
      <trkpt lat="44.14722" lon="1.94862">
        <ele>187.7</ele>
        <time>2012-12-29T08:06:52.999Z</time>
      </trkpt>
      <trkpt lat="44.14719" lon="1.94859">
        <ele>187.7</ele>
        <time>2012-12-29T08:06:53.999Z</time>
      </trkpt>
      <trkpt lat="44.14716" lon="1.94855">
        <ele>187.3</ele>
        <time>2012-12-29T08:06:54.999Z</time>
      </trkpt>
      <trkpt lat="44.14712" lon="1.94851">
        <ele>187.1</ele>
        <time>2012-12-29T08:06:55.999Z</time>
      </trkpt>
      <trkpt lat="44.14709" lon="1.94846">
        <ele>186.2</ele>
        <time>2012-12-29T08:06:56.999Z</time>
      </trkpt>
      <trkpt lat="44.14705" lon="1.94841">
        <ele>186.4</ele>
        <time>2012-12-29T08:06:57.999Z</time>
      </trkpt>
      <trkpt lat="44.14701" lon="1.94836">
        <ele>187.2</ele>
        <time>2012-12-29T08:06:58.999Z</time>
      </trkpt>
      <trkpt lat="44.14696" lon="1.9483">
        <ele>187.1</ele>
        <time>2012-12-29T08:06:59.999Z</time>
      </trkpt>
      <trkpt lat="44.14692" lon="1.94825">
        <ele>187.3</ele>
        <time>2012-12-29T08:07:00.999Z</time>
      </trkpt>
      <trkpt lat="44.14689" lon="1.9482">
        <ele>188.1</ele>
        <time>2012-12-29T08:07:01.999Z</time>
      </trkpt>
      <trkpt lat="44.14686" lon="1.94817">
        <ele>188.8</ele>
        <time>2012-12-29T08:07:02.999Z</time>
      </trkpt>
      <trkpt lat="44.14683" lon="1.94813">
        <ele>189.1</ele>
        <time>2012-12-29T08:07:03.999Z</time>
      </trkpt>
      <trkpt lat="44.14679" lon="1.94808">
        <ele>189.2</ele>
        <time>2012-12-29T08:07:04.999Z</time>
      </trkpt>
      <trkpt lat="44.14676" lon="1.94804">
        <ele>189.4</ele>
        <time>2012-12-29T08:07:05.999Z</time>
      </trkpt>
      <trkpt lat="44.14673" lon="1.948">
        <ele>189.6</ele>
        <time>2012-12-29T08:07:06.999Z</time>
      </trkpt>
      <trkpt lat="44.1467" lon="1.94796">
        <ele>190</ele>
        <time>2012-12-29T08:07:07.999Z</time>
      </trkpt>
      <trkpt lat="44.14667" lon="1.94792">
        <ele>190.5</ele>
        <time>2012-12-29T08:07:08.999Z</time>
      </trkpt>
      <trkpt lat="44.14664" lon="1.94789">
        <ele>190.4</ele>
        <time>2012-12-29T08:07:09.999Z</time>
      </trkpt>
      <trkpt lat="44.14661" lon="1.94785">
        <ele>190</ele>
        <time>2012-12-29T08:07:10.999Z</time>
      </trkpt>
      <trkpt lat="44.14658" lon="1.9478">
        <ele>189.9</ele>
        <time>2012-12-29T08:07:11.999Z</time>
      </trkpt>
      <trkpt lat="44.14654" lon="1.94776">
        <ele>190</ele>
        <time>2012-12-29T08:07:12.999Z</time>
      </trkpt>
      <trkpt lat="44.14651" lon="1.94771">
        <ele>189.6</ele>
        <time>2012-12-29T08:07:13.999Z</time>
      </trkpt>
      <trkpt lat="44.14648" lon="1.94766">
        <ele>189.1</ele>
        <time>2012-12-29T08:07:14.999Z</time>
      </trkpt>
      <trkpt lat="44.14646" lon="1.94761">
        <ele>188.6</ele>
        <time>2012-12-29T08:07:15.999Z</time>
      </trkpt>
      <trkpt lat="44.14644" lon="1.94756">
        <ele>188.1</ele>
        <time>2012-12-29T08:07:16.999Z</time>
      </trkpt>
      <trkpt lat="44.14642" lon="1.94751">
        <ele>188.3</ele>
        <time>2012-12-29T08:07:17.999Z</time>
      </trkpt>
      <trkpt lat="44.1464" lon="1.94745">
        <ele>188.9</ele>
        <time>2012-12-29T08:07:18.999Z</time>
      </trkpt>
      <trkpt lat="44.14638" lon="1.94739">
        <ele>189.2</ele>
        <time>2012-12-29T08:07:19.999Z</time>
      </trkpt>
      <trkpt lat="44.14636" lon="1.94732">
        <ele>189.8</ele>
        <time>2012-12-29T08:07:20.999Z</time>
      </trkpt>
      <trkpt lat="44.14634" lon="1.94725">
        <ele>190.3</ele>
        <time>2012-12-29T08:07:21.999Z</time>
      </trkpt>
      <trkpt lat="44.14632" lon="1.94719">
        <ele>191.1</ele>
        <time>2012-12-29T08:07:22.999Z</time>
      </trkpt>
      <trkpt lat="44.1463" lon="1.94712">
        <ele>191.6</ele>
        <time>2012-12-29T08:07:23.999Z</time>
      </trkpt>
      <trkpt lat="44.14629" lon="1.94705">
        <ele>192.1</ele>
        <time>2012-12-29T08:07:24.999Z</time>
      </trkpt>
      <trkpt lat="44.14627" lon="1.94699">
        <ele>192.2</ele>
        <time>2012-12-29T08:07:25.999Z</time>
      </trkpt>
      <trkpt lat="44.14625" lon="1.94693">
        <ele>192.2</ele>
        <time>2012-12-29T08:07:26.999Z</time>
      </trkpt>
      <trkpt lat="44.14624" lon="1.94687">
        <ele>192.5</ele>
        <time>2012-12-29T08:07:27.999Z</time>
      </trkpt>
      <trkpt lat="44.14622" lon="1.94681">
        <ele>192.8</ele>
        <time>2012-12-29T08:07:28.999Z</time>
      </trkpt>
      <trkpt lat="44.1462" lon="1.94674">
        <ele>193.3</ele>
        <time>2012-12-29T08:07:29.999Z</time>
      </trkpt>
      <trkpt lat="44.14619" lon="1.94667">
        <ele>193.6</ele>
        <time>2012-12-29T08:07:30.999Z</time>
      </trkpt>
      <trkpt lat="44.14617" lon="1.9466">
        <ele>193.6</ele>
        <time>2012-12-29T08:07:31.999Z</time>
      </trkpt>
      <trkpt lat="44.14615" lon="1.94653">
        <ele>193.8</ele>
        <time>2012-12-29T08:07:32.999Z</time>
      </trkpt>
      <trkpt lat="44.14614" lon="1.94646">
        <ele>194.1</ele>
        <time>2012-12-29T08:07:33.999Z</time>
      </trkpt>
      <trkpt lat="44.14612" lon="1.94639">
        <ele>194.1</ele>
        <time>2012-12-29T08:07:34.999Z</time>
      </trkpt>
      <trkpt lat="44.14611" lon="1.94634">
        <ele>194.3</ele>
        <time>2012-12-29T08:07:35.999Z</time>
      </trkpt>
      <trkpt lat="44.1461" lon="1.94628">
        <ele>194.4</ele>
        <time>2012-12-29T08:07:36.999Z</time>
      </trkpt>
      <trkpt lat="44.14609" lon="1.94623">
        <ele>194.5</ele>
        <time>2012-12-29T08:07:37.999Z</time>
      </trkpt>
      <trkpt lat="44.14608" lon="1.94617">
        <ele>194.9</ele>
        <time>2012-12-29T08:07:38.999Z</time>
      </trkpt>
      <trkpt lat="44.14608" lon="1.94611">
        <ele>195.2</ele>
        <time>2012-12-29T08:07:39.999Z</time>
      </trkpt>
      <trkpt lat="44.14607" lon="1.94606">
        <ele>195.2</ele>
        <time>2012-12-29T08:07:40.999Z</time>
      </trkpt>
      <trkpt lat="44.14607" lon="1.946">
        <ele>195.2</ele>
        <time>2012-12-29T08:07:41.999Z</time>
      </trkpt>
      <trkpt lat="44.14606" lon="1.94594">
        <ele>195.2</ele>
        <time>2012-12-29T08:07:42.999Z</time>
      </trkpt>
      <trkpt lat="44.14606" lon="1.94588">
        <ele>195.2</ele>
        <time>2012-12-29T08:07:43.999Z</time>
      </trkpt>
      <trkpt lat="44.14605" lon="1.94582">
        <ele>194.6</ele>
        <time>2012-12-29T08:07:44.999Z</time>
      </trkpt>
      <trkpt lat="44.14604" lon="1.94577">
        <ele>194.4</ele>
        <time>2012-12-29T08:07:45.999Z</time>
      </trkpt>
      <trkpt lat="44.14603" lon="1.9457">
        <ele>194.4</ele>
        <time>2012-12-29T08:07:46.999Z</time>
      </trkpt>
      <trkpt lat="44.14601" lon="1.94565">
        <ele>194.2</ele>
        <time>2012-12-29T08:07:47.999Z</time>
      </trkpt>
      <trkpt lat="44.146" lon="1.9456">
        <ele>193.9</ele>
        <time>2012-12-29T08:07:48.999Z</time>
      </trkpt>
      <trkpt lat="44.14598" lon="1.94554">
        <ele>193.9</ele>
        <time>2012-12-29T08:07:49.999Z</time>
      </trkpt>
      <trkpt lat="44.14596" lon="1.94548">
        <ele>193.9</ele>
        <time>2012-12-29T08:07:50.999Z</time>
      </trkpt>
      <trkpt lat="44.14593" lon="1.94543">
        <ele>194</ele>
        <time>2012-12-29T08:07:51.999Z</time>
      </trkpt>
      <trkpt lat="44.14591" lon="1.94538">
        <ele>194.6</ele>
        <time>2012-12-29T08:07:52.999Z</time>
      </trkpt>
      <trkpt lat="44.14589" lon="1.94533">
        <ele>195.1</ele>
        <time>2012-12-29T08:07:53.999Z</time>
      </trkpt>
      <trkpt lat="44.14587" lon="1.94527">
        <ele>195.5</ele>
        <time>2012-12-29T08:07:54.999Z</time>
      </trkpt>
      <trkpt lat="44.14584" lon="1.94522">
        <ele>195.3</ele>
        <time>2012-12-29T08:07:55.999Z</time>
      </trkpt>
      <trkpt lat="44.14581" lon="1.94517">
        <ele>195.8</ele>
        <time>2012-12-29T08:07:56.999Z</time>
      </trkpt>
      <trkpt lat="44.14579" lon="1.94513">
        <ele>196.1</ele>
        <time>2012-12-29T08:07:57.999Z</time>
      </trkpt>
      <trkpt lat="44.14576" lon="1.94507">
        <ele>196</ele>
        <time>2012-12-29T08:07:58.999Z</time>
      </trkpt>
      <trkpt lat="44.14573" lon="1.94502">
        <ele>195.6</ele>
        <time>2012-12-29T08:07:59.999Z</time>
      </trkpt>
      <trkpt lat="44.14571" lon="1.94497">
        <ele>195.3</ele>
        <time>2012-12-29T08:08:00.999Z</time>
      </trkpt>
      <trkpt lat="44.14569" lon="1.94493">
        <ele>195.4</ele>
        <time>2012-12-29T08:08:01.999Z</time>
      </trkpt>
      <trkpt lat="44.14567" lon="1.94487">
        <ele>196</ele>
        <time>2012-12-29T08:08:02.999Z</time>
      </trkpt>
      <trkpt lat="44.14565" lon="1.9448">
        <ele>196.5</ele>
        <time>2012-12-29T08:08:03.999Z</time>
      </trkpt>
      <trkpt lat="44.14564" lon="1.94473">
        <ele>196.2</ele>
        <time>2012-12-29T08:08:04.999Z</time>
      </trkpt>
      <trkpt lat="44.14564" lon="1.94467">
        <ele>196</ele>
        <time>2012-12-29T08:08:05.999Z</time>
      </trkpt>
      <trkpt lat="44.14565" lon="1.9446">
        <ele>195.3</ele>
        <time>2012-12-29T08:08:06.999Z</time>
      </trkpt>
      <trkpt lat="44.14565" lon="1.94454">
        <ele>194.5</ele>
        <time>2012-12-29T08:08:07.999Z</time>
      </trkpt>
      <trkpt lat="44.14566" lon="1.94448">
        <ele>194.1</ele>
        <time>2012-12-29T08:08:08.999Z</time>
      </trkpt>
      <trkpt lat="44.14567" lon="1.94442">
        <ele>193.6</ele>
        <time>2012-12-29T08:08:09.999Z</time>
      </trkpt>
      <trkpt lat="44.14568" lon="1.94436">
        <ele>193.1</ele>
        <time>2012-12-29T08:08:10.999Z</time>
      </trkpt>
      <trkpt lat="44.1457" lon="1.9443">
        <ele>192.6</ele>
        <time>2012-12-29T08:08:11.999Z</time>
      </trkpt>
      <trkpt lat="44.14571" lon="1.94424">
        <ele>192.7</ele>
        <time>2012-12-29T08:08:12.999Z</time>
      </trkpt>
      <trkpt lat="44.14572" lon="1.94418">
        <ele>192.3</ele>
        <time>2012-12-29T08:08:13.999Z</time>
      </trkpt>
      <trkpt lat="44.14573" lon="1.94412">
        <ele>192.1</ele>
        <time>2012-12-29T08:08:14.999Z</time>
      </trkpt>
      <trkpt lat="44.14575" lon="1.94407">
        <ele>191.9</ele>
        <time>2012-12-29T08:08:15.999Z</time>
      </trkpt>
      <trkpt lat="44.14577" lon="1.94402">
        <ele>191.9</ele>
        <time>2012-12-29T08:08:16.999Z</time>
      </trkpt>
      <trkpt lat="44.14579" lon="1.94397">
        <ele>191.5</ele>
        <time>2012-12-29T08:08:17.999Z</time>
      </trkpt>
      <trkpt lat="44.1458" lon="1.94392">
        <ele>191.2</ele>
        <time>2012-12-29T08:08:18.999Z</time>
      </trkpt>
      <trkpt lat="44.14583" lon="1.94386">
        <ele>190.8</ele>
        <time>2012-12-29T08:08:19.999Z</time>
      </trkpt>
      <trkpt lat="44.14587" lon="1.94382">
        <ele>190.3</ele>
        <time>2012-12-29T08:08:20.999Z</time>
      </trkpt>
      <trkpt lat="44.1459" lon="1.94378">
        <ele>189.9</ele>
        <time>2012-12-29T08:08:21.999Z</time>
      </trkpt>
      <trkpt lat="44.14594" lon="1.94374">
        <ele>189.9</ele>
        <time>2012-12-29T08:08:22.999Z</time>
      </trkpt>
      <trkpt lat="44.14597" lon="1.94372">
        <ele>189.9</ele>
        <time>2012-12-29T08:08:23.999Z</time>
      </trkpt>
      <trkpt lat="44.14601" lon="1.94368">
        <ele>189.8</ele>
        <time>2012-12-29T08:08:24.999Z</time>
      </trkpt>
      <trkpt lat="44.14605" lon="1.94365">
        <ele>189.8</ele>
        <time>2012-12-29T08:08:25.999Z</time>
      </trkpt>
      <trkpt lat="44.14608" lon="1.94361">
        <ele>189.9</ele>
        <time>2012-12-29T08:08:26.999Z</time>
      </trkpt>
      <trkpt lat="44.14611" lon="1.94357">
        <ele>189.4</ele>
        <time>2012-12-29T08:08:27.999Z</time>
      </trkpt>
      <trkpt lat="44.14614" lon="1.94353">
        <ele>188.9</ele>
        <time>2012-12-29T08:08:28.999Z</time>
      </trkpt>
      <trkpt lat="44.14616" lon="1.94348">
        <ele>188.7</ele>
        <time>2012-12-29T08:08:29.999Z</time>
      </trkpt>
      <trkpt lat="44.14619" lon="1.94343">
        <ele>188.8</ele>
        <time>2012-12-29T08:08:30.999Z</time>
      </trkpt>
      <trkpt lat="44.14621" lon="1.94338">
        <ele>188.9</ele>
        <time>2012-12-29T08:08:31.999Z</time>
      </trkpt>
      <trkpt lat="44.14622" lon="1.94332">
        <ele>188.9</ele>
        <time>2012-12-29T08:08:32.999Z</time>
      </trkpt>
      <trkpt lat="44.14623" lon="1.94326">
        <ele>189.1</ele>
        <time>2012-12-29T08:08:33.999Z</time>
      </trkpt>
      <trkpt lat="44.14624" lon="1.9432">
        <ele>189.3</ele>
        <time>2012-12-29T08:08:34.999Z</time>
      </trkpt>
      <trkpt lat="44.14625" lon="1.94314">
        <ele>189.2</ele>
        <time>2012-12-29T08:08:35.999Z</time>
      </trkpt>
      <trkpt lat="44.14626" lon="1.94308">
        <ele>189</ele>
        <time>2012-12-29T08:08:36.999Z</time>
      </trkpt>
      <trkpt lat="44.14627" lon="1.94301">
        <ele>188.3</ele>
        <time>2012-12-29T08:08:37.999Z</time>
      </trkpt>
      <trkpt lat="44.14628" lon="1.94295">
        <ele>187.8</ele>
        <time>2012-12-29T08:08:38.999Z</time>
      </trkpt>
      <trkpt lat="44.14629" lon="1.94289">
        <ele>187.6</ele>
        <time>2012-12-29T08:08:39.999Z</time>
      </trkpt>
      <trkpt lat="44.14629" lon="1.94282">
        <ele>188.1</ele>
        <time>2012-12-29T08:08:40.999Z</time>
      </trkpt>
      <trkpt lat="44.1463" lon="1.94276">
        <ele>188.3</ele>
        <time>2012-12-29T08:08:41.999Z</time>
      </trkpt>
      <trkpt lat="44.14631" lon="1.94269">
        <ele>188.6</ele>
        <time>2012-12-29T08:08:42.999Z</time>
      </trkpt>
      <trkpt lat="44.14632" lon="1.94263">
        <ele>188.8</ele>
        <time>2012-12-29T08:08:43.999Z</time>
      </trkpt>
      <trkpt lat="44.14633" lon="1.94256">
        <ele>188.3</ele>
        <time>2012-12-29T08:08:44.999Z</time>
      </trkpt>
      <trkpt lat="44.14634" lon="1.9425">
        <ele>187.8</ele>
        <time>2012-12-29T08:08:45.999Z</time>
      </trkpt>
      <trkpt lat="44.14636" lon="1.94243">
        <ele>187.7</ele>
        <time>2012-12-29T08:08:46.999Z</time>
      </trkpt>
      <trkpt lat="44.14638" lon="1.94236">
        <ele>187.6</ele>
        <time>2012-12-29T08:08:47.999Z</time>
      </trkpt>
      <trkpt lat="44.1464" lon="1.9423">
        <ele>187.8</ele>
        <time>2012-12-29T08:08:48.999Z</time>
      </trkpt>
      <trkpt lat="44.14642" lon="1.94224">
        <ele>187.4</ele>
        <time>2012-12-29T08:08:49.999Z</time>
      </trkpt>
      <trkpt lat="44.14644" lon="1.94217">
        <ele>187.1</ele>
        <time>2012-12-29T08:08:50.999Z</time>
      </trkpt>
      <trkpt lat="44.14647" lon="1.94211">
        <ele>186.7</ele>
        <time>2012-12-29T08:08:51.999Z</time>
      </trkpt>
      <trkpt lat="44.14649" lon="1.94206">
        <ele>186.1</ele>
        <time>2012-12-29T08:08:52.999Z</time>
      </trkpt>
      <trkpt lat="44.14651" lon="1.942">
        <ele>185.4</ele>
        <time>2012-12-29T08:08:53.999Z</time>
      </trkpt>
      <trkpt lat="44.14652" lon="1.94195">
        <ele>184.8</ele>
        <time>2012-12-29T08:08:54.999Z</time>
      </trkpt>
      <trkpt lat="44.14654" lon="1.9419">
        <ele>184.9</ele>
        <time>2012-12-29T08:08:55.999Z</time>
      </trkpt>
      <trkpt lat="44.14656" lon="1.94185">
        <ele>185.4</ele>
        <time>2012-12-29T08:08:56.999Z</time>
      </trkpt>
      <trkpt lat="44.14658" lon="1.9418">
        <ele>185.8</ele>
        <time>2012-12-29T08:08:57.999Z</time>
      </trkpt>
      <trkpt lat="44.1466" lon="1.94176">
        <ele>186.5</ele>
        <time>2012-12-29T08:08:58.999Z</time>
      </trkpt>
      <trkpt lat="44.14663" lon="1.94171">
        <ele>187.5</ele>
        <time>2012-12-29T08:08:59.999Z</time>
      </trkpt>
      <trkpt lat="44.14664" lon="1.94166">
        <ele>188.6</ele>
        <time>2012-12-29T08:09:00.999Z</time>
      </trkpt>
      <trkpt lat="44.14666" lon="1.94161">
        <ele>189.5</ele>
        <time>2012-12-29T08:09:01.999Z</time>
      </trkpt>
      <trkpt lat="44.14668" lon="1.94156">
        <ele>190</ele>
        <time>2012-12-29T08:09:02.999Z</time>
      </trkpt>
      <trkpt lat="44.14669" lon="1.94151">
        <ele>190.4</ele>
        <time>2012-12-29T08:09:03.999Z</time>
      </trkpt>
      <trkpt lat="44.14671" lon="1.94146">
        <ele>190.9</ele>
        <time>2012-12-29T08:09:04.999Z</time>
      </trkpt>
      <trkpt lat="44.14674" lon="1.94139">
        <ele>191.6</ele>
        <time>2012-12-29T08:09:05.999Z</time>
      </trkpt>
      <trkpt lat="44.14677" lon="1.94132">
        <ele>191.6</ele>
        <time>2012-12-29T08:09:06.999Z</time>
      </trkpt>
      <trkpt lat="44.1468" lon="1.94125">
        <ele>191.5</ele>
        <time>2012-12-29T08:09:07.999Z</time>
      </trkpt>
      <trkpt lat="44.14682" lon="1.94119">
        <ele>191.2</ele>
        <time>2012-12-29T08:09:08.999Z</time>
      </trkpt>
      <trkpt lat="44.14685" lon="1.94113">
        <ele>190.9</ele>
        <time>2012-12-29T08:09:09.999Z</time>
      </trkpt>
      <trkpt lat="44.14687" lon="1.94107">
        <ele>190.7</ele>
        <time>2012-12-29T08:09:10.999Z</time>
      </trkpt>
      <trkpt lat="44.14688" lon="1.94102">
        <ele>190.2</ele>
        <time>2012-12-29T08:09:11.999Z</time>
      </trkpt>
      <trkpt lat="44.1469" lon="1.94096">
        <ele>189.7</ele>
        <time>2012-12-29T08:09:12.999Z</time>
      </trkpt>
      <trkpt lat="44.14692" lon="1.94091">
        <ele>190.1</ele>
        <time>2012-12-29T08:09:13.999Z</time>
      </trkpt>
      <trkpt lat="44.14694" lon="1.94086">
        <ele>190.6</ele>
        <time>2012-12-29T08:09:14.999Z</time>
      </trkpt>
      <trkpt lat="44.14696" lon="1.9408">
        <ele>190.9</ele>
        <time>2012-12-29T08:09:15.999Z</time>
      </trkpt>
      <trkpt lat="44.14698" lon="1.94075">
        <ele>191.2</ele>
        <time>2012-12-29T08:09:16.999Z</time>
      </trkpt>
      <trkpt lat="44.14701" lon="1.94069">
        <ele>191</ele>
        <time>2012-12-29T08:09:17.999Z</time>
      </trkpt>
      <trkpt lat="44.14703" lon="1.94063">
        <ele>190.6</ele>
        <time>2012-12-29T08:09:18.999Z</time>
      </trkpt>
      <trkpt lat="44.14706" lon="1.94057">
        <ele>190.8</ele>
        <time>2012-12-29T08:09:19.999Z</time>
      </trkpt>
      <trkpt lat="44.14708" lon="1.94052">
        <ele>190.6</ele>
        <time>2012-12-29T08:09:20.999Z</time>
      </trkpt>
      <trkpt lat="44.1471" lon="1.94047">
        <ele>190.8</ele>
        <time>2012-12-29T08:09:21.999Z</time>
      </trkpt>
      <trkpt lat="44.14712" lon="1.94042">
        <ele>191</ele>
        <time>2012-12-29T08:09:22.999Z</time>
      </trkpt>
      <trkpt lat="44.14713" lon="1.94036">
        <ele>191</ele>
        <time>2012-12-29T08:09:23.999Z</time>
      </trkpt>
      <trkpt lat="44.14715" lon="1.9403">
        <ele>190.6</ele>
        <time>2012-12-29T08:09:24.999Z</time>
      </trkpt>
      <trkpt lat="44.14717" lon="1.94024">
        <ele>190.4</ele>
        <time>2012-12-29T08:09:25.999Z</time>
      </trkpt>
      <trkpt lat="44.14719" lon="1.94018">
        <ele>190.1</ele>
        <time>2012-12-29T08:09:26.999Z</time>
      </trkpt>
      <trkpt lat="44.14722" lon="1.94012">
        <ele>190.1</ele>
        <time>2012-12-29T08:09:27.999Z</time>
      </trkpt>
      <trkpt lat="44.14724" lon="1.94006">
        <ele>190.1</ele>
        <time>2012-12-29T08:09:28.999Z</time>
      </trkpt>
      <trkpt lat="44.14727" lon="1.93999">
        <ele>190.1</ele>
        <time>2012-12-29T08:09:29.999Z</time>
      </trkpt>
      <trkpt lat="44.14729" lon="1.93994">
        <ele>190.1</ele>
        <time>2012-12-29T08:09:30.999Z</time>
      </trkpt>
      <trkpt lat="44.14732" lon="1.93989">
        <ele>189.8</ele>
        <time>2012-12-29T08:09:31.999Z</time>
      </trkpt>
      <trkpt lat="44.14734" lon="1.93984">
        <ele>189.6</ele>
        <time>2012-12-29T08:09:32.999Z</time>
      </trkpt>
      <trkpt lat="44.14737" lon="1.93979">
        <ele>189.5</ele>
        <time>2012-12-29T08:09:33.999Z</time>
      </trkpt>
      <trkpt lat="44.1474" lon="1.93974">
        <ele>188.5</ele>
        <time>2012-12-29T08:09:34.999Z</time>
      </trkpt>
      <trkpt lat="44.14742" lon="1.93969">
        <ele>188.3</ele>
        <time>2012-12-29T08:09:35.999Z</time>
      </trkpt>
      <trkpt lat="44.14745" lon="1.93963">
        <ele>187.8</ele>
        <time>2012-12-29T08:09:36.999Z</time>
      </trkpt>
      <trkpt lat="44.14747" lon="1.93958">
        <ele>187.7</ele>
        <time>2012-12-29T08:09:37.999Z</time>
      </trkpt>
      <trkpt lat="44.1475" lon="1.93953">
        <ele>187.5</ele>
        <time>2012-12-29T08:09:38.999Z</time>
      </trkpt>
      <trkpt lat="44.14752" lon="1.93948">
        <ele>187.5</ele>
        <time>2012-12-29T08:09:39.999Z</time>
      </trkpt>
      <trkpt lat="44.14755" lon="1.93943">
        <ele>187.4</ele>
        <time>2012-12-29T08:09:40.999Z</time>
      </trkpt>
      <trkpt lat="44.14758" lon="1.93938">
        <ele>187.5</ele>
        <time>2012-12-29T08:09:41.999Z</time>
      </trkpt>
      <trkpt lat="44.14761" lon="1.93932">
        <ele>187.5</ele>
        <time>2012-12-29T08:09:42.999Z</time>
      </trkpt>
      <trkpt lat="44.14765" lon="1.93927">
        <ele>187.5</ele>
        <time>2012-12-29T08:09:43.999Z</time>
      </trkpt>
      <trkpt lat="44.14769" lon="1.93922">
        <ele>187.8</ele>
        <time>2012-12-29T08:09:44.999Z</time>
      </trkpt>
      <trkpt lat="44.14772" lon="1.93917">
        <ele>187.9</ele>
        <time>2012-12-29T08:09:45.999Z</time>
      </trkpt>
      <trkpt lat="44.14776" lon="1.93912">
        <ele>187.9</ele>
        <time>2012-12-29T08:09:46.999Z</time>
      </trkpt>
      <trkpt lat="44.1478" lon="1.93907">
        <ele>188.2</ele>
        <time>2012-12-29T08:09:47.999Z</time>
      </trkpt>
      <trkpt lat="44.14784" lon="1.93903">
        <ele>188.6</ele>
        <time>2012-12-29T08:09:48.999Z</time>
      </trkpt>
      <trkpt lat="44.14788" lon="1.93898">
        <ele>189.2</ele>
        <time>2012-12-29T08:09:49.999Z</time>
      </trkpt>
      <trkpt lat="44.14792" lon="1.93894">
        <ele>189.2</ele>
        <time>2012-12-29T08:09:50.999Z</time>
      </trkpt>
      <trkpt lat="44.14795" lon="1.9389">
        <ele>189.1</ele>
        <time>2012-12-29T08:09:51.999Z</time>
      </trkpt>
      <trkpt lat="44.14798" lon="1.93886">
        <ele>189</ele>
        <time>2012-12-29T08:09:52.999Z</time>
      </trkpt>
      <trkpt lat="44.14801" lon="1.93882">
        <ele>189.4</ele>
        <time>2012-12-29T08:09:53.999Z</time>
      </trkpt>
      <trkpt lat="44.14804" lon="1.93878">
        <ele>189.3</ele>
        <time>2012-12-29T08:09:54.999Z</time>
      </trkpt>
      <trkpt lat="44.14807" lon="1.93873">
        <ele>189.2</ele>
        <time>2012-12-29T08:09:55.999Z</time>
      </trkpt>
      <trkpt lat="44.1481" lon="1.93868">
        <ele>189.1</ele>
        <time>2012-12-29T08:09:56.999Z</time>
      </trkpt>
      <trkpt lat="44.14813" lon="1.93864">
        <ele>189.2</ele>
        <time>2012-12-29T08:09:57.999Z</time>
      </trkpt>
      <trkpt lat="44.14817" lon="1.9386">
        <ele>189.1</ele>
        <time>2012-12-29T08:09:58.999Z</time>
      </trkpt>
      <trkpt lat="44.14819" lon="1.93856">
        <ele>189</ele>
        <time>2012-12-29T08:09:59.999Z</time>
      </trkpt>
      <trkpt lat="44.14821" lon="1.93852">
        <ele>188.9</ele>
        <time>2012-12-29T08:10:00.999Z</time>
      </trkpt>
      <trkpt lat="44.14824" lon="1.93848">
        <ele>188.9</ele>
        <time>2012-12-29T08:10:01.999Z</time>
      </trkpt>
      <trkpt lat="44.14828" lon="1.93843">
        <ele>189.4</ele>
        <time>2012-12-29T08:10:02.999Z</time>
      </trkpt>
      <trkpt lat="44.14831" lon="1.93839">
        <ele>189.9</ele>
        <time>2012-12-29T08:10:03.999Z</time>
      </trkpt>
      <trkpt lat="44.14835" lon="1.93834">
        <ele>190</ele>
        <time>2012-12-29T08:10:04.999Z</time>
      </trkpt>
      <trkpt lat="44.14838" lon="1.9383">
        <ele>189.5</ele>
        <time>2012-12-29T08:10:05.999Z</time>
      </trkpt>
      <trkpt lat="44.14842" lon="1.93826">
        <ele>189.7</ele>
        <time>2012-12-29T08:10:06.999Z</time>
      </trkpt>
      <trkpt lat="44.14846" lon="1.9382">
        <ele>189.3</ele>
        <time>2012-12-29T08:10:07.999Z</time>
      </trkpt>
      <trkpt lat="44.1485" lon="1.93816">
        <ele>189.2</ele>
        <time>2012-12-29T08:10:08.999Z</time>
      </trkpt>
      <trkpt lat="44.14854" lon="1.93811">
        <ele>189.5</ele>
        <time>2012-12-29T08:10:09.999Z</time>
      </trkpt>
      <trkpt lat="44.14858" lon="1.93807">
        <ele>190.4</ele>
        <time>2012-12-29T08:10:10.999Z</time>
      </trkpt>
      <trkpt lat="44.14862" lon="1.93803">
        <ele>190.7</ele>
        <time>2012-12-29T08:10:11.999Z</time>
      </trkpt>
      <trkpt lat="44.14865" lon="1.93798">
        <ele>190.8</ele>
        <time>2012-12-29T08:10:12.999Z</time>
      </trkpt>
      <trkpt lat="44.14869" lon="1.93794">
        <ele>190.8</ele>
        <time>2012-12-29T08:10:13.999Z</time>
      </trkpt>
      <trkpt lat="44.14873" lon="1.9379">
        <ele>190.8</ele>
        <time>2012-12-29T08:10:14.999Z</time>
      </trkpt>
      <trkpt lat="44.14876" lon="1.93786">
        <ele>190.5</ele>
        <time>2012-12-29T08:10:15.999Z</time>
      </trkpt>
      <trkpt lat="44.14879" lon="1.93781">
        <ele>190.5</ele>
        <time>2012-12-29T08:10:16.999Z</time>
      </trkpt>
      <trkpt lat="44.14882" lon="1.93777">
        <ele>189.9</ele>
        <time>2012-12-29T08:10:17.999Z</time>
      </trkpt>
      <trkpt lat="44.14885" lon="1.93774">
        <ele>189.5</ele>
        <time>2012-12-29T08:10:18.999Z</time>
      </trkpt>
      <trkpt lat="44.14888" lon="1.9377">
        <ele>189.5</ele>
        <time>2012-12-29T08:10:19.999Z</time>
      </trkpt>
      <trkpt lat="44.14892" lon="1.93766">
        <ele>189.4</ele>
        <time>2012-12-29T08:10:20.999Z</time>
      </trkpt>
      <trkpt lat="44.14895" lon="1.93762">
        <ele>189.3</ele>
        <time>2012-12-29T08:10:21.999Z</time>
      </trkpt>
      <trkpt lat="44.14898" lon="1.93759">
        <ele>189.2</ele>
        <time>2012-12-29T08:10:22.999Z</time>
      </trkpt>
      <trkpt lat="44.14902" lon="1.93755">
        <ele>189.2</ele>
        <time>2012-12-29T08:10:23.999Z</time>
      </trkpt>
      <trkpt lat="44.14906" lon="1.93752">
        <ele>189.1</ele>
        <time>2012-12-29T08:10:24.999Z</time>
      </trkpt>
      <trkpt lat="44.14909" lon="1.93749">
        <ele>189.1</ele>
        <time>2012-12-29T08:10:25.999Z</time>
      </trkpt>
      <trkpt lat="44.14912" lon="1.93746">
        <ele>189</ele>
        <time>2012-12-29T08:10:26.999Z</time>
      </trkpt>
      <trkpt lat="44.14915" lon="1.93743">
        <ele>189</ele>
        <time>2012-12-29T08:10:27.999Z</time>
      </trkpt>
      <trkpt lat="44.14918" lon="1.93741">
        <ele>188.9</ele>
        <time>2012-12-29T08:10:28.999Z</time>
      </trkpt>
      <trkpt lat="44.14922" lon="1.9374">
        <ele>188.8</ele>
        <time>2012-12-29T08:10:29.999Z</time>
      </trkpt>
      <trkpt lat="44.14926" lon="1.93739">
        <ele>188.8</ele>
        <time>2012-12-29T08:10:30.999Z</time>
      </trkpt>
      <trkpt lat="44.14929" lon="1.93737">
        <ele>188.7</ele>
        <time>2012-12-29T08:10:31.999Z</time>
      </trkpt>
      <trkpt lat="44.14933" lon="1.93736">
        <ele>188.7</ele>
        <time>2012-12-29T08:10:32.999Z</time>
      </trkpt>
      <trkpt lat="44.14937" lon="1.93735">
        <ele>188.7</ele>
        <time>2012-12-29T08:10:33.999Z</time>
      </trkpt>
      <trkpt lat="44.14942" lon="1.93734">
        <ele>188.8</ele>
        <time>2012-12-29T08:10:34.999Z</time>
      </trkpt>
      <trkpt lat="44.14946" lon="1.93733">
        <ele>188.9</ele>
        <time>2012-12-29T08:10:35.999Z</time>
      </trkpt>
      <trkpt lat="44.14951" lon="1.93732">
        <ele>189</ele>
        <time>2012-12-29T08:10:36.999Z</time>
      </trkpt>
      <trkpt lat="44.14955" lon="1.93732">
        <ele>189</ele>
        <time>2012-12-29T08:10:37.999Z</time>
      </trkpt>
      <trkpt lat="44.1496" lon="1.93731">
        <ele>189.1</ele>
        <time>2012-12-29T08:10:38.999Z</time>
      </trkpt>
      <trkpt lat="44.14964" lon="1.9373">
        <ele>190.4</ele>
        <time>2012-12-29T08:10:40.000Z</time>
      </trkpt>
      <trkpt lat="44.14968" lon="1.93729">
        <ele>190.8</ele>
        <time>2012-12-29T08:10:41.000Z</time>
      </trkpt>
      <trkpt lat="44.14972" lon="1.93728">
        <ele>190.9</ele>
        <time>2012-12-29T08:10:42.000Z</time>
      </trkpt>
      <trkpt lat="44.14976" lon="1.93726">
        <ele>190.9</ele>
        <time>2012-12-29T08:10:43.000Z</time>
      </trkpt>
      <trkpt lat="44.14981" lon="1.93724">
        <ele>191</ele>
        <time>2012-12-29T08:10:44.000Z</time>
      </trkpt>
      <trkpt lat="44.14985" lon="1.93722">
        <ele>191</ele>
        <time>2012-12-29T08:10:45.000Z</time>
      </trkpt>
      <trkpt lat="44.14988" lon="1.9372">
        <ele>191</ele>
        <time>2012-12-29T08:10:46.000Z</time>
      </trkpt>
      <trkpt lat="44.14991" lon="1.93718">
        <ele>191.1</ele>
        <time>2012-12-29T08:10:47.000Z</time>
      </trkpt>
      <trkpt lat="44.14995" lon="1.93716">
        <ele>191.1</ele>
        <time>2012-12-29T08:10:48.000Z</time>
      </trkpt>
      <trkpt lat="44.14998" lon="1.93714">
        <ele>191</ele>
        <time>2012-12-29T08:10:49.000Z</time>
      </trkpt>
      <trkpt lat="44.15001" lon="1.93712">
        <ele>191</ele>
        <time>2012-12-29T08:10:50.000Z</time>
      </trkpt>
      <trkpt lat="44.15004" lon="1.9371">
        <ele>191</ele>
        <time>2012-12-29T08:10:51.000Z</time>
      </trkpt>
      <trkpt lat="44.15007" lon="1.93708">
        <ele>191</ele>
        <time>2012-12-29T08:10:52.000Z</time>
      </trkpt>
      <trkpt lat="44.1501" lon="1.93706">
        <ele>190.9</ele>
        <time>2012-12-29T08:10:53.000Z</time>
      </trkpt>
      <trkpt lat="44.15013" lon="1.93703">
        <ele>190.9</ele>
        <time>2012-12-29T08:10:54.000Z</time>
      </trkpt>
      <trkpt lat="44.15017" lon="1.93701">
        <ele>190.8</ele>
        <time>2012-12-29T08:10:55.000Z</time>
      </trkpt>
      <trkpt lat="44.15021" lon="1.93699">
        <ele>190.8</ele>
        <time>2012-12-29T08:10:56.000Z</time>
      </trkpt>
      <trkpt lat="44.15025" lon="1.93697">
        <ele>190.8</ele>
        <time>2012-12-29T08:10:57.000Z</time>
      </trkpt>
      <trkpt lat="44.15029" lon="1.93695">
        <ele>190.8</ele>
        <time>2012-12-29T08:10:58.000Z</time>
      </trkpt>
      <trkpt lat="44.15032" lon="1.93694">
        <ele>190.7</ele>
        <time>2012-12-29T08:10:59.000Z</time>
      </trkpt>
      <trkpt lat="44.15035" lon="1.93692">
        <ele>190.6</ele>
        <time>2012-12-29T08:11:00.000Z</time>
      </trkpt>
      <trkpt lat="44.15039" lon="1.93691">
        <ele>190.6</ele>
        <time>2012-12-29T08:11:01.000Z</time>
      </trkpt>
      <trkpt lat="44.15043" lon="1.9369">
        <ele>190.7</ele>
        <time>2012-12-29T08:11:02.000Z</time>
      </trkpt>
      <trkpt lat="44.15047" lon="1.9369">
        <ele>190.7</ele>
        <time>2012-12-29T08:11:03.000Z</time>
      </trkpt>
      <trkpt lat="44.15052" lon="1.93689">
        <ele>190.9</ele>
        <time>2012-12-29T08:11:04.000Z</time>
      </trkpt>
      <trkpt lat="44.15055" lon="1.93688">
        <ele>190.9</ele>
        <time>2012-12-29T08:11:05.000Z</time>
      </trkpt>
      <trkpt lat="44.15059" lon="1.93687">
        <ele>191.5</ele>
        <time>2012-12-29T08:11:06.000Z</time>
      </trkpt>
      <trkpt lat="44.15063" lon="1.93687">
        <ele>191.6</ele>
        <time>2012-12-29T08:11:07.000Z</time>
      </trkpt>
      <trkpt lat="44.15066" lon="1.93686">
        <ele>191.6</ele>
        <time>2012-12-29T08:11:08.000Z</time>
      </trkpt>
      <trkpt lat="44.1507" lon="1.93685">
        <ele>191.6</ele>
        <time>2012-12-29T08:11:09.000Z</time>
      </trkpt>
      <trkpt lat="44.15074" lon="1.93684">
        <ele>191.9</ele>
        <time>2012-12-29T08:11:10.000Z</time>
      </trkpt>
      <trkpt lat="44.15077" lon="1.93684">
        <ele>191.9</ele>
        <time>2012-12-29T08:11:11.000Z</time>
      </trkpt>
      <trkpt lat="44.15081" lon="1.93683">
        <ele>191.9</ele>
        <time>2012-12-29T08:11:12.000Z</time>
      </trkpt>
      <trkpt lat="44.15086" lon="1.93683">
        <ele>192.5</ele>
        <time>2012-12-29T08:11:13.000Z</time>
      </trkpt>
      <trkpt lat="44.1509" lon="1.93683">
        <ele>192.8</ele>
        <time>2012-12-29T08:11:14.000Z</time>
      </trkpt>
      <trkpt lat="44.15094" lon="1.93682">
        <ele>192.8</ele>
        <time>2012-12-29T08:11:15.000Z</time>
      </trkpt>
      <trkpt lat="44.15098" lon="1.93681">
        <ele>192.8</ele>
        <time>2012-12-29T08:11:16.000Z</time>
      </trkpt>
      <trkpt lat="44.15101" lon="1.93681">
        <ele>192.9</ele>
        <time>2012-12-29T08:11:17.000Z</time>
      </trkpt>
      <trkpt lat="44.15105" lon="1.9368">
        <ele>192.9</ele>
        <time>2012-12-29T08:11:18.000Z</time>
      </trkpt>
      <trkpt lat="44.15109" lon="1.93679">
        <ele>192.9</ele>
        <time>2012-12-29T08:11:19.000Z</time>
      </trkpt>
      <trkpt lat="44.15112" lon="1.93678">
        <ele>192.9</ele>
        <time>2012-12-29T08:11:20.000Z</time>
      </trkpt>
      <trkpt lat="44.15116" lon="1.93676">
        <ele>192.9</ele>
        <time>2012-12-29T08:11:21.000Z</time>
      </trkpt>
      <trkpt lat="44.15119" lon="1.93675">
        <ele>192.9</ele>
        <time>2012-12-29T08:11:22.000Z</time>
      </trkpt>
      <trkpt lat="44.15123" lon="1.93674">
        <ele>192.8</ele>
        <time>2012-12-29T08:11:23.000Z</time>
      </trkpt>
      <trkpt lat="44.15127" lon="1.93673">
        <ele>192.8</ele>
        <time>2012-12-29T08:11:24.000Z</time>
      </trkpt>
      <trkpt lat="44.1513" lon="1.93673">
        <ele>192.7</ele>
        <time>2012-12-29T08:11:25.000Z</time>
      </trkpt>
      <trkpt lat="44.15135" lon="1.93672">
        <ele>192.1</ele>
        <time>2012-12-29T08:11:26.000Z</time>
      </trkpt>
      <trkpt lat="44.15139" lon="1.93671">
        <ele>192</ele>
        <time>2012-12-29T08:11:27.000Z</time>
      </trkpt>
      <trkpt lat="44.15143" lon="1.9367">
        <ele>191.9</ele>
        <time>2012-12-29T08:11:28.000Z</time>
      </trkpt>
      <trkpt lat="44.15146" lon="1.93668">
        <ele>191.8</ele>
        <time>2012-12-29T08:11:29.000Z</time>
      </trkpt>
      <trkpt lat="44.1515" lon="1.93666">
        <ele>191.7</ele>
        <time>2012-12-29T08:11:30.000Z</time>
      </trkpt>
      <trkpt lat="44.15154" lon="1.93664">
        <ele>191.7</ele>
        <time>2012-12-29T08:11:31.000Z</time>
      </trkpt>
      <trkpt lat="44.15158" lon="1.93662">
        <ele>191.6</ele>
        <time>2012-12-29T08:11:32.000Z</time>
      </trkpt>
      <trkpt lat="44.15162" lon="1.9366">
        <ele>191.3</ele>
        <time>2012-12-29T08:11:33.000Z</time>
      </trkpt>
      <trkpt lat="44.15165" lon="1.93658">
        <ele>191</ele>
        <time>2012-12-29T08:11:34.000Z</time>
      </trkpt>
      <trkpt lat="44.15169" lon="1.93656">
        <ele>190.7</ele>
        <time>2012-12-29T08:11:35.000Z</time>
      </trkpt>
      <trkpt lat="44.15173" lon="1.93654">
        <ele>190.5</ele>
        <time>2012-12-29T08:11:36.000Z</time>
      </trkpt>
      <trkpt lat="44.15177" lon="1.93651">
        <ele>190.4</ele>
        <time>2012-12-29T08:11:37.000Z</time>
      </trkpt>
      <trkpt lat="44.15181" lon="1.93648">
        <ele>190.2</ele>
        <time>2012-12-29T08:11:38.000Z</time>
      </trkpt>
      <trkpt lat="44.15185" lon="1.93646">
        <ele>190.4</ele>
        <time>2012-12-29T08:11:39.000Z</time>
      </trkpt>
      <trkpt lat="44.1519" lon="1.93643">
        <ele>190.5</ele>
        <time>2012-12-29T08:11:40.000Z</time>
      </trkpt>
      <trkpt lat="44.15194" lon="1.9364">
        <ele>190.5</ele>
        <time>2012-12-29T08:11:41.000Z</time>
      </trkpt>
      <trkpt lat="44.15199" lon="1.93638">
        <ele>190.3</ele>
        <time>2012-12-29T08:11:42.000Z</time>
      </trkpt>
      <trkpt lat="44.15204" lon="1.93634">
        <ele>190.2</ele>
        <time>2012-12-29T08:11:43.000Z</time>
      </trkpt>
      <trkpt lat="44.15208" lon="1.93632">
        <ele>190.4</ele>
        <time>2012-12-29T08:11:44.000Z</time>
      </trkpt>
      <trkpt lat="44.15212" lon="1.93629">
        <ele>190.7</ele>
        <time>2012-12-29T08:11:45.000Z</time>
      </trkpt>
      <trkpt lat="44.15216" lon="1.93626">
        <ele>191.6</ele>
        <time>2012-12-29T08:11:46.000Z</time>
      </trkpt>
      <trkpt lat="44.1522" lon="1.93623">
        <ele>192.1</ele>
        <time>2012-12-29T08:11:47.000Z</time>
      </trkpt>
      <trkpt lat="44.15223" lon="1.9362">
        <ele>192.5</ele>
        <time>2012-12-29T08:11:48.000Z</time>
      </trkpt>
      <trkpt lat="44.15226" lon="1.93617">
        <ele>192.5</ele>
        <time>2012-12-29T08:11:49.000Z</time>
      </trkpt>
      <trkpt lat="44.1523" lon="1.93614">
        <ele>192.4</ele>
        <time>2012-12-29T08:11:50.000Z</time>
      </trkpt>
      <trkpt lat="44.15233" lon="1.93611">
        <ele>192.3</ele>
        <time>2012-12-29T08:11:51.000Z</time>
      </trkpt>
      <trkpt lat="44.15237" lon="1.93608">
        <ele>192.3</ele>
        <time>2012-12-29T08:11:52.000Z</time>
      </trkpt>
      <trkpt lat="44.1524" lon="1.93605">
        <ele>192.3</ele>
        <time>2012-12-29T08:11:53.000Z</time>
      </trkpt>
      <trkpt lat="44.15242" lon="1.93602">
        <ele>192.3</ele>
        <time>2012-12-29T08:11:54.000Z</time>
      </trkpt>
      <trkpt lat="44.15246" lon="1.93599">
        <ele>192.4</ele>
        <time>2012-12-29T08:11:55.000Z</time>
      </trkpt>
      <trkpt lat="44.15249" lon="1.93595">
        <ele>192.4</ele>
        <time>2012-12-29T08:11:56.000Z</time>
      </trkpt>
      <trkpt lat="44.15252" lon="1.93591">
        <ele>192.5</ele>
        <time>2012-12-29T08:11:57.000Z</time>
      </trkpt>
      <trkpt lat="44.15255" lon="1.93589">
        <ele>192.5</ele>
        <time>2012-12-29T08:11:58.000Z</time>
      </trkpt>
      <trkpt lat="44.15258" lon="1.93586">
        <ele>192.6</ele>
        <time>2012-12-29T08:11:59.000Z</time>
      </trkpt>
      <trkpt lat="44.15261" lon="1.93583">
        <ele>192.7</ele>
        <time>2012-12-29T08:12:00.000Z</time>
      </trkpt>
      <trkpt lat="44.15264" lon="1.93579">
        <ele>193.3</ele>
        <time>2012-12-29T08:12:01.000Z</time>
      </trkpt>
      <trkpt lat="44.15268" lon="1.93576">
        <ele>193.8</ele>
        <time>2012-12-29T08:12:02.000Z</time>
      </trkpt>
      <trkpt lat="44.15271" lon="1.93572">
        <ele>194.2</ele>
        <time>2012-12-29T08:12:03.000Z</time>
      </trkpt>
      <trkpt lat="44.15274" lon="1.93568">
        <ele>194</ele>
        <time>2012-12-29T08:12:04.000Z</time>
      </trkpt>
      <trkpt lat="44.15278" lon="1.93564">
        <ele>194</ele>
        <time>2012-12-29T08:12:05.000Z</time>
      </trkpt>
      <trkpt lat="44.15281" lon="1.9356">
        <ele>194.5</ele>
        <time>2012-12-29T08:12:06.000Z</time>
      </trkpt>
      <trkpt lat="44.15285" lon="1.93556">
        <ele>194.6</ele>
        <time>2012-12-29T08:12:07.000Z</time>
      </trkpt>
      <trkpt lat="44.15288" lon="1.93552">
        <ele>194.3</ele>
        <time>2012-12-29T08:12:08.000Z</time>
      </trkpt>
      <trkpt lat="44.15291" lon="1.93548">
        <ele>194</ele>
        <time>2012-12-29T08:12:09.000Z</time>
      </trkpt>
      <trkpt lat="44.15294" lon="1.93544">
        <ele>193.9</ele>
        <time>2012-12-29T08:12:10.000Z</time>
      </trkpt>
      <trkpt lat="44.15297" lon="1.9354">
        <ele>193.6</ele>
        <time>2012-12-29T08:12:11.000Z</time>
      </trkpt>
      <trkpt lat="44.15301" lon="1.93535">
        <ele>193.4</ele>
        <time>2012-12-29T08:12:12.000Z</time>
      </trkpt>
      <trkpt lat="44.15304" lon="1.9353">
        <ele>193</ele>
        <time>2012-12-29T08:12:13.000Z</time>
      </trkpt>
      <trkpt lat="44.15308" lon="1.93524">
        <ele>193.1</ele>
        <time>2012-12-29T08:12:14.000Z</time>
      </trkpt>
      <trkpt lat="44.15312" lon="1.93519">
        <ele>192.8</ele>
        <time>2012-12-29T08:12:15.000Z</time>
      </trkpt>
      <trkpt lat="44.15315" lon="1.93514">
        <ele>192.6</ele>
        <time>2012-12-29T08:12:16.000Z</time>
      </trkpt>
      <trkpt lat="44.15319" lon="1.93509">
        <ele>192</ele>
        <time>2012-12-29T08:12:17.000Z</time>
      </trkpt>
      <trkpt lat="44.15323" lon="1.93504">
        <ele>191.6</ele>
        <time>2012-12-29T08:12:18.000Z</time>
      </trkpt>
      <trkpt lat="44.15327" lon="1.935">
        <ele>191.8</ele>
        <time>2012-12-29T08:12:19.000Z</time>
      </trkpt>
      <trkpt lat="44.15332" lon="1.93495">
        <ele>192.1</ele>
        <time>2012-12-29T08:12:20.000Z</time>
      </trkpt>
      <trkpt lat="44.15336" lon="1.9349">
        <ele>192.3</ele>
        <time>2012-12-29T08:12:21.000Z</time>
      </trkpt>
      <trkpt lat="44.15339" lon="1.93484">
        <ele>192.8</ele>
        <time>2012-12-29T08:12:22.000Z</time>
      </trkpt>
      <trkpt lat="44.15343" lon="1.93478">
        <ele>193.6</ele>
        <time>2012-12-29T08:12:23.000Z</time>
      </trkpt>
      <trkpt lat="44.15347" lon="1.93471">
        <ele>193.9</ele>
        <time>2012-12-29T08:12:24.000Z</time>
      </trkpt>
      <trkpt lat="44.15351" lon="1.93465">
        <ele>193.7</ele>
        <time>2012-12-29T08:12:25.000Z</time>
      </trkpt>
      <trkpt lat="44.15354" lon="1.93459">
        <ele>193.5</ele>
        <time>2012-12-29T08:12:26.000Z</time>
      </trkpt>
      <trkpt lat="44.15357" lon="1.93454">
        <ele>193.5</ele>
        <time>2012-12-29T08:12:27.000Z</time>
      </trkpt>
      <trkpt lat="44.15361" lon="1.9345">
        <ele>192.8</ele>
        <time>2012-12-29T08:12:28.000Z</time>
      </trkpt>
      <trkpt lat="44.15363" lon="1.93446">
        <ele>192.1</ele>
        <time>2012-12-29T08:12:29.000Z</time>
      </trkpt>
      <trkpt lat="44.15366" lon="1.93441">
        <ele>191.3</ele>
        <time>2012-12-29T08:12:30.000Z</time>
      </trkpt>
      <trkpt lat="44.15369" lon="1.93436">
        <ele>190.9</ele>
        <time>2012-12-29T08:12:31.000Z</time>
      </trkpt>
      <trkpt lat="44.15372" lon="1.93431">
        <ele>190.2</ele>
        <time>2012-12-29T08:12:32.000Z</time>
      </trkpt>
      <trkpt lat="44.15376" lon="1.93426">
        <ele>190.5</ele>
        <time>2012-12-29T08:12:33.000Z</time>
      </trkpt>
      <trkpt lat="44.15378" lon="1.93422">
        <ele>190.7</ele>
        <time>2012-12-29T08:12:34.000Z</time>
      </trkpt>
      <trkpt lat="44.15381" lon="1.93417">
        <ele>190.6</ele>
        <time>2012-12-29T08:12:35.000Z</time>
      </trkpt>
      <trkpt lat="44.15384" lon="1.93413">
        <ele>190.5</ele>
        <time>2012-12-29T08:12:36.000Z</time>
      </trkpt>
      <trkpt lat="44.15386" lon="1.93409">
        <ele>189.8</ele>
        <time>2012-12-29T08:12:37.000Z</time>
      </trkpt>
      <trkpt lat="44.15389" lon="1.93404">
        <ele>189.9</ele>
        <time>2012-12-29T08:12:38.000Z</time>
      </trkpt>
      <trkpt lat="44.15392" lon="1.934">
        <ele>190.4</ele>
        <time>2012-12-29T08:12:39.000Z</time>
      </trkpt>
      <trkpt lat="44.15395" lon="1.93395">
        <ele>190.3</ele>
        <time>2012-12-29T08:12:40.000Z</time>
      </trkpt>
      <trkpt lat="44.15399" lon="1.9339">
        <ele>189.9</ele>
        <time>2012-12-29T08:12:41.000Z</time>
      </trkpt>
      <trkpt lat="44.15402" lon="1.93384">
        <ele>190.1</ele>
        <time>2012-12-29T08:12:42.000Z</time>
      </trkpt>
      <trkpt lat="44.15406" lon="1.93378">
        <ele>190.2</ele>
        <time>2012-12-29T08:12:43.000Z</time>
      </trkpt>
      <trkpt lat="44.1541" lon="1.93373">
        <ele>191.1</ele>
        <time>2012-12-29T08:12:44.000Z</time>
      </trkpt>
      <trkpt lat="44.15413" lon="1.93368">
        <ele>191.8</ele>
        <time>2012-12-29T08:12:45.000Z</time>
      </trkpt>
      <trkpt lat="44.15416" lon="1.93363">
        <ele>192.1</ele>
        <time>2012-12-29T08:12:46.000Z</time>
      </trkpt>
      <trkpt lat="44.15419" lon="1.93358">
        <ele>192.5</ele>
        <time>2012-12-29T08:12:47.000Z</time>
      </trkpt>
      <trkpt lat="44.15422" lon="1.93354">
        <ele>192.9</ele>
        <time>2012-12-29T08:12:48.000Z</time>
      </trkpt>
      <trkpt lat="44.15426" lon="1.93349">
        <ele>193</ele>
        <time>2012-12-29T08:12:49.000Z</time>
      </trkpt>
      <trkpt lat="44.15429" lon="1.93344">
        <ele>193.3</ele>
        <time>2012-12-29T08:12:50.000Z</time>
      </trkpt>
      <trkpt lat="44.15432" lon="1.93339">
        <ele>193.4</ele>
        <time>2012-12-29T08:12:51.000Z</time>
      </trkpt>
      <trkpt lat="44.15434" lon="1.93335">
        <ele>193.3</ele>
        <time>2012-12-29T08:12:52.000Z</time>
      </trkpt>
      <trkpt lat="44.15437" lon="1.9333">
        <ele>193.2</ele>
        <time>2012-12-29T08:12:53.000Z</time>
      </trkpt>
      <trkpt lat="44.15441" lon="1.93325">
        <ele>193.5</ele>
        <time>2012-12-29T08:12:54.000Z</time>
      </trkpt>
      <trkpt lat="44.15444" lon="1.93319">
        <ele>194</ele>
        <time>2012-12-29T08:12:55.000Z</time>
      </trkpt>
      <trkpt lat="44.15447" lon="1.93314">
        <ele>194.4</ele>
        <time>2012-12-29T08:12:56.000Z</time>
      </trkpt>
      <trkpt lat="44.15449" lon="1.9331">
        <ele>195</ele>
        <time>2012-12-29T08:12:57.000Z</time>
      </trkpt>
      <trkpt lat="44.15452" lon="1.93306">
        <ele>195.4</ele>
        <time>2012-12-29T08:12:58.000Z</time>
      </trkpt>
      <trkpt lat="44.15455" lon="1.93302">
        <ele>195.7</ele>
        <time>2012-12-29T08:12:59.000Z</time>
      </trkpt>
      <trkpt lat="44.15457" lon="1.93298">
        <ele>196</ele>
        <time>2012-12-29T08:13:00.000Z</time>
      </trkpt>
      <trkpt lat="44.1546" lon="1.93293">
        <ele>196.3</ele>
        <time>2012-12-29T08:13:01.000Z</time>
      </trkpt>
      <trkpt lat="44.15463" lon="1.93288">
        <ele>196.7</ele>
        <time>2012-12-29T08:13:02.000Z</time>
      </trkpt>
      <trkpt lat="44.15467" lon="1.93283">
        <ele>196.8</ele>
        <time>2012-12-29T08:13:03.000Z</time>
      </trkpt>
      <trkpt lat="44.15471" lon="1.93278">
        <ele>196.9</ele>
        <time>2012-12-29T08:13:04.000Z</time>
      </trkpt>
      <trkpt lat="44.15475" lon="1.93273">
        <ele>196.6</ele>
        <time>2012-12-29T08:13:05.000Z</time>
      </trkpt>
      <trkpt lat="44.15479" lon="1.93268">
        <ele>196.3</ele>
        <time>2012-12-29T08:13:06.000Z</time>
      </trkpt>
      <trkpt lat="44.15484" lon="1.93262">
        <ele>196.9</ele>
        <time>2012-12-29T08:13:07.000Z</time>
      </trkpt>
      <trkpt lat="44.15488" lon="1.93257">
        <ele>197.1</ele>
        <time>2012-12-29T08:13:08.000Z</time>
      </trkpt>
      <trkpt lat="44.15493" lon="1.93252">
        <ele>197.2</ele>
        <time>2012-12-29T08:13:09.000Z</time>
      </trkpt>
      <trkpt lat="44.15497" lon="1.93246">
        <ele>197</ele>
        <time>2012-12-29T08:13:10.000Z</time>
      </trkpt>
      <trkpt lat="44.15501" lon="1.9324">
        <ele>196.3</ele>
        <time>2012-12-29T08:13:11.000Z</time>
      </trkpt>
      <trkpt lat="44.15505" lon="1.93235">
        <ele>195.8</ele>
        <time>2012-12-29T08:13:12.000Z</time>
      </trkpt>
      <trkpt lat="44.15508" lon="1.93229">
        <ele>195.3</ele>
        <time>2012-12-29T08:13:13.000Z</time>
      </trkpt>
      <trkpt lat="44.15512" lon="1.93224">
        <ele>194.5</ele>
        <time>2012-12-29T08:13:14.000Z</time>
      </trkpt>
      <trkpt lat="44.15516" lon="1.93218">
        <ele>194.1</ele>
        <time>2012-12-29T08:13:15.000Z</time>
      </trkpt>
      <trkpt lat="44.15519" lon="1.93212">
        <ele>194</ele>
        <time>2012-12-29T08:13:16.000Z</time>
      </trkpt>
      <trkpt lat="44.15522" lon="1.93207">
        <ele>193.7</ele>
        <time>2012-12-29T08:13:17.000Z</time>
      </trkpt>
      <trkpt lat="44.15524" lon="1.93202">
        <ele>193.8</ele>
        <time>2012-12-29T08:13:18.000Z</time>
      </trkpt>
      <trkpt lat="44.15527" lon="1.93198">
        <ele>194.3</ele>
        <time>2012-12-29T08:13:19.000Z</time>
      </trkpt>
      <trkpt lat="44.15529" lon="1.93193">
        <ele>194.8</ele>
        <time>2012-12-29T08:13:20.000Z</time>
      </trkpt>
      <trkpt lat="44.15532" lon="1.93188">
        <ele>195.6</ele>
        <time>2012-12-29T08:13:21.000Z</time>
      </trkpt>
      <trkpt lat="44.15535" lon="1.93183">
        <ele>195.8</ele>
        <time>2012-12-29T08:13:22.000Z</time>
      </trkpt>
      <trkpt lat="44.15538" lon="1.93178">
        <ele>195.6</ele>
        <time>2012-12-29T08:13:23.000Z</time>
      </trkpt>
      <trkpt lat="44.15542" lon="1.93173">
        <ele>195.8</ele>
        <time>2012-12-29T08:13:24.000Z</time>
      </trkpt>
      <trkpt lat="44.15546" lon="1.93168">
        <ele>195.6</ele>
        <time>2012-12-29T08:13:25.000Z</time>
      </trkpt>
      <trkpt lat="44.15548" lon="1.93164">
        <ele>195.4</ele>
        <time>2012-12-29T08:13:26.000Z</time>
      </trkpt>
      <trkpt lat="44.15551" lon="1.9316">
        <ele>195.2</ele>
        <time>2012-12-29T08:13:27.000Z</time>
      </trkpt>
      <trkpt lat="44.15553" lon="1.93155">
        <ele>195</ele>
        <time>2012-12-29T08:13:28.000Z</time>
      </trkpt>
      <trkpt lat="44.15555" lon="1.9315">
        <ele>194.7</ele>
        <time>2012-12-29T08:13:29.000Z</time>
      </trkpt>
      <trkpt lat="44.15558" lon="1.93144">
        <ele>194.2</ele>
        <time>2012-12-29T08:13:30.000Z</time>
      </trkpt>
      <trkpt lat="44.15561" lon="1.93137">
        <ele>193.6</ele>
        <time>2012-12-29T08:13:31.000Z</time>
      </trkpt>
      <trkpt lat="44.15563" lon="1.93132">
        <ele>193.1</ele>
        <time>2012-12-29T08:13:32.000Z</time>
      </trkpt>
      <trkpt lat="44.15566" lon="1.93126">
        <ele>192.6</ele>
        <time>2012-12-29T08:13:33.000Z</time>
      </trkpt>
      <trkpt lat="44.15568" lon="1.9312">
        <ele>192.3</ele>
        <time>2012-12-29T08:13:34.000Z</time>
      </trkpt>
      <trkpt lat="44.15571" lon="1.93115">
        <ele>191.7</ele>
        <time>2012-12-29T08:13:35.000Z</time>
      </trkpt>
      <trkpt lat="44.15573" lon="1.93109">
        <ele>192.1</ele>
        <time>2012-12-29T08:13:36.000Z</time>
      </trkpt>
      <trkpt lat="44.15576" lon="1.93103">
        <ele>192.6</ele>
        <time>2012-12-29T08:13:37.000Z</time>
      </trkpt>
      <trkpt lat="44.15579" lon="1.93098">
        <ele>192.6</ele>
        <time>2012-12-29T08:13:38.000Z</time>
      </trkpt>
      <trkpt lat="44.15581" lon="1.93092">
        <ele>192.4</ele>
        <time>2012-12-29T08:13:39.000Z</time>
      </trkpt>
      <trkpt lat="44.15584" lon="1.93087">
        <ele>192.6</ele>
        <time>2012-12-29T08:13:40.000Z</time>
      </trkpt>
      <trkpt lat="44.15587" lon="1.93082">
        <ele>193.2</ele>
        <time>2012-12-29T08:13:41.000Z</time>
      </trkpt>
      <trkpt lat="44.15589" lon="1.93076">
        <ele>193.8</ele>
        <time>2012-12-29T08:13:42.000Z</time>
      </trkpt>
      <trkpt lat="44.1559" lon="1.93071">
        <ele>194.1</ele>
        <time>2012-12-29T08:13:43.000Z</time>
      </trkpt>
      <trkpt lat="44.15592" lon="1.93066">
        <ele>194.1</ele>
        <time>2012-12-29T08:13:44.000Z</time>
      </trkpt>
      <trkpt lat="44.15594" lon="1.93061">
        <ele>193.8</ele>
        <time>2012-12-29T08:13:45.000Z</time>
      </trkpt>
      <trkpt lat="44.15596" lon="1.93056">
        <ele>193.8</ele>
        <time>2012-12-29T08:13:46.000Z</time>
      </trkpt>
      <trkpt lat="44.15598" lon="1.93051">
        <ele>194.2</ele>
        <time>2012-12-29T08:13:47.000Z</time>
      </trkpt>
      <trkpt lat="44.156" lon="1.93046">
        <ele>195.1</ele>
        <time>2012-12-29T08:13:48.000Z</time>
      </trkpt>
      <trkpt lat="44.15602" lon="1.93041">
        <ele>195.1</ele>
        <time>2012-12-29T08:13:49.000Z</time>
      </trkpt>
      <trkpt lat="44.15604" lon="1.93036">
        <ele>195.2</ele>
        <time>2012-12-29T08:13:50.000Z</time>
      </trkpt>
      <trkpt lat="44.15606" lon="1.93031">
        <ele>195.3</ele>
        <time>2012-12-29T08:13:51.000Z</time>
      </trkpt>
      <trkpt lat="44.15608" lon="1.93025">
        <ele>195.4</ele>
        <time>2012-12-29T08:13:52.000Z</time>
      </trkpt>
      <trkpt lat="44.1561" lon="1.9302">
        <ele>195.4</ele>
        <time>2012-12-29T08:13:53.000Z</time>
      </trkpt>
      <trkpt lat="44.15612" lon="1.93015">
        <ele>195.5</ele>
        <time>2012-12-29T08:13:54.000Z</time>
      </trkpt>
      <trkpt lat="44.15614" lon="1.9301">
        <ele>195.6</ele>
        <time>2012-12-29T08:13:55.000Z</time>
      </trkpt>
      <trkpt lat="44.15616" lon="1.93005">
        <ele>195.7</ele>
        <time>2012-12-29T08:13:56.000Z</time>
      </trkpt>
      <trkpt lat="44.15617" lon="1.93001">
        <ele>195.8</ele>
        <time>2012-12-29T08:13:57.000Z</time>
      </trkpt>
      <trkpt lat="44.15619" lon="1.92996">
        <ele>195.8</ele>
        <time>2012-12-29T08:13:58.000Z</time>
      </trkpt>
      <trkpt lat="44.15621" lon="1.9299">
        <ele>195.9</ele>
        <time>2012-12-29T08:13:59.000Z</time>
      </trkpt>
      <trkpt lat="44.15623" lon="1.92986">
        <ele>195.9</ele>
        <time>2012-12-29T08:14:00.000Z</time>
      </trkpt>
      <trkpt lat="44.15625" lon="1.92981">
        <ele>195.8</ele>
        <time>2012-12-29T08:14:01.000Z</time>
      </trkpt>
      <trkpt lat="44.15626" lon="1.92976">
        <ele>195.3</ele>
        <time>2012-12-29T08:14:02.000Z</time>
      </trkpt>
      <trkpt lat="44.15628" lon="1.92971">
        <ele>194.6</ele>
        <time>2012-12-29T08:14:03.000Z</time>
      </trkpt>
      <trkpt lat="44.1563" lon="1.92967">
        <ele>194</ele>
        <time>2012-12-29T08:14:04.000Z</time>
      </trkpt>
      <trkpt lat="44.15633" lon="1.92961">
        <ele>193.9</ele>
        <time>2012-12-29T08:14:05.000Z</time>
      </trkpt>
      <trkpt lat="44.15635" lon="1.92956">
        <ele>194.1</ele>
        <time>2012-12-29T08:14:06.000Z</time>
      </trkpt>
      <trkpt lat="44.15637" lon="1.92951">
        <ele>194.3</ele>
        <time>2012-12-29T08:14:07.000Z</time>
      </trkpt>
      <trkpt lat="44.15639" lon="1.92946">
        <ele>194</ele>
        <time>2012-12-29T08:14:08.000Z</time>
      </trkpt>
      <trkpt lat="44.1564" lon="1.92941">
        <ele>194</ele>
        <time>2012-12-29T08:14:09.000Z</time>
      </trkpt>
      <trkpt lat="44.15642" lon="1.92935">
        <ele>194.3</ele>
        <time>2012-12-29T08:14:10.000Z</time>
      </trkpt>
      <trkpt lat="44.15644" lon="1.92929">
        <ele>194.7</ele>
        <time>2012-12-29T08:14:11.000Z</time>
      </trkpt>
      <trkpt lat="44.15646" lon="1.92924">
        <ele>194.7</ele>
        <time>2012-12-29T08:14:12.000Z</time>
      </trkpt>
      <trkpt lat="44.15647" lon="1.92918">
        <ele>194.8</ele>
        <time>2012-12-29T08:14:13.000Z</time>
      </trkpt>
      <trkpt lat="44.15649" lon="1.92912">
        <ele>194.8</ele>
        <time>2012-12-29T08:14:14.000Z</time>
      </trkpt>
      <trkpt lat="44.15651" lon="1.92907">
        <ele>194.8</ele>
        <time>2012-12-29T08:14:15.000Z</time>
      </trkpt>
      <trkpt lat="44.15653" lon="1.92902">
        <ele>194.8</ele>
        <time>2012-12-29T08:14:16.000Z</time>
      </trkpt>
      <trkpt lat="44.15654" lon="1.92896">
        <ele>194.8</ele>
        <time>2012-12-29T08:14:17.000Z</time>
      </trkpt>
      <trkpt lat="44.15655" lon="1.92892">
        <ele>194.7</ele>
        <time>2012-12-29T08:14:18.000Z</time>
      </trkpt>
      <trkpt lat="44.15657" lon="1.92887">
        <ele>194.7</ele>
        <time>2012-12-29T08:14:19.000Z</time>
      </trkpt>
      <trkpt lat="44.15658" lon="1.92883">
        <ele>194.7</ele>
        <time>2012-12-29T08:14:20.000Z</time>
      </trkpt>
      <trkpt lat="44.15659" lon="1.92878">
        <ele>194.7</ele>
        <time>2012-12-29T08:14:21.000Z</time>
      </trkpt>
      <trkpt lat="44.15661" lon="1.92873">
        <ele>194.7</ele>
        <time>2012-12-29T08:14:22.000Z</time>
      </trkpt>
      <trkpt lat="44.15662" lon="1.92869">
        <ele>194.7</ele>
        <time>2012-12-29T08:14:23.000Z</time>
      </trkpt>
      <trkpt lat="44.15663" lon="1.92865">
        <ele>194.7</ele>
        <time>2012-12-29T08:14:24.000Z</time>
      </trkpt>
      <trkpt lat="44.15665" lon="1.92861">
        <ele>194.7</ele>
        <time>2012-12-29T08:14:25.000Z</time>
      </trkpt>
      <trkpt lat="44.15666" lon="1.92857">
        <ele>194.7</ele>
        <time>2012-12-29T08:14:26.000Z</time>
      </trkpt>
      <trkpt lat="44.15667" lon="1.92853">
        <ele>194.6</ele>
        <time>2012-12-29T08:14:27.000Z</time>
      </trkpt>
      <trkpt lat="44.15668" lon="1.9285">
        <ele>194.6</ele>
        <time>2012-12-29T08:14:28.000Z</time>
      </trkpt>
      <trkpt lat="44.15669" lon="1.92846">
        <ele>194.6</ele>
        <time>2012-12-29T08:14:29.000Z</time>
      </trkpt>
      <trkpt lat="44.1567" lon="1.92841">
        <ele>194.7</ele>
        <time>2012-12-29T08:14:30.000Z</time>
      </trkpt>
      <trkpt lat="44.15669" lon="1.92837">
        <ele>194.8</ele>
        <time>2012-12-29T08:14:31.000Z</time>
      </trkpt>
      <trkpt lat="44.15668" lon="1.92833">
        <ele>194.9</ele>
        <time>2012-12-29T08:14:32.000Z</time>
      </trkpt>
      <trkpt lat="44.15666" lon="1.92828">
        <ele>195</ele>
        <time>2012-12-29T08:14:33.000Z</time>
      </trkpt>
      <trkpt lat="44.15664" lon="1.92824">
        <ele>195</ele>
        <time>2012-12-29T08:14:34.000Z</time>
      </trkpt>
      <trkpt lat="44.15661" lon="1.92821">
        <ele>195.1</ele>
        <time>2012-12-29T08:14:35.000Z</time>
      </trkpt>
      <trkpt lat="44.1566" lon="1.92817">
        <ele>195.1</ele>
        <time>2012-12-29T08:14:36.000Z</time>
      </trkpt>
      <trkpt lat="44.1566" lon="1.92813">
        <ele>195.2</ele>
        <time>2012-12-29T08:14:37.000Z</time>
      </trkpt>
      <trkpt lat="44.1566" lon="1.9281">
        <ele>195.2</ele>
        <time>2012-12-29T08:14:38.000Z</time>
      </trkpt>
      <trkpt lat="44.15661" lon="1.92806">
        <ele>195.3</ele>
        <time>2012-12-29T08:14:39.000Z</time>
      </trkpt>
      <trkpt lat="44.15662" lon="1.92801">
        <ele>195.3</ele>
        <time>2012-12-29T08:14:40.000Z</time>
      </trkpt>
      <trkpt lat="44.15662" lon="1.92796">
        <ele>195.4</ele>
        <time>2012-12-29T08:14:41.000Z</time>
      </trkpt>
      <trkpt lat="44.15663" lon="1.9279">
        <ele>195.5</ele>
        <time>2012-12-29T08:14:42.000Z</time>
      </trkpt>
      <trkpt lat="44.15663" lon="1.92784">
        <ele>195.6</ele>
        <time>2012-12-29T08:14:43.000Z</time>
      </trkpt>
      <trkpt lat="44.15663" lon="1.92778">
        <ele>195.7</ele>
        <time>2012-12-29T08:14:44.000Z</time>
      </trkpt>
      <trkpt lat="44.15663" lon="1.92772">
        <ele>195.8</ele>
        <time>2012-12-29T08:14:45.000Z</time>
      </trkpt>
      <trkpt lat="44.15662" lon="1.92768">
        <ele>195.8</ele>
        <time>2012-12-29T08:14:46.000Z</time>
      </trkpt>
      <trkpt lat="44.15662" lon="1.92763">
        <ele>195.8</ele>
        <time>2012-12-29T08:14:47.000Z</time>
      </trkpt>
      <trkpt lat="44.15661" lon="1.92759">
        <ele>195.8</ele>
        <time>2012-12-29T08:14:48.000Z</time>
      </trkpt>
      <trkpt lat="44.15661" lon="1.92754">
        <ele>195.8</ele>
        <time>2012-12-29T08:14:49.000Z</time>
      </trkpt>
      <trkpt lat="44.1566" lon="1.92749">
        <ele>195.8</ele>
        <time>2012-12-29T08:14:50.000Z</time>
      </trkpt>
      <trkpt lat="44.1566" lon="1.92745">
        <ele>195.9</ele>
        <time>2012-12-29T08:14:51.000Z</time>
      </trkpt>
      <trkpt lat="44.1566" lon="1.92739">
        <ele>195.9</ele>
        <time>2012-12-29T08:14:52.000Z</time>
      </trkpt>
      <trkpt lat="44.15659" lon="1.92733">
        <ele>195.9</ele>
        <time>2012-12-29T08:14:53.000Z</time>
      </trkpt>
      <trkpt lat="44.15659" lon="1.92729">
        <ele>195.9</ele>
        <time>2012-12-29T08:14:54.000Z</time>
      </trkpt>
      <trkpt lat="44.1566" lon="1.92724">
        <ele>196</ele>
        <time>2012-12-29T08:14:55.000Z</time>
      </trkpt>
      <trkpt lat="44.1566" lon="1.9272">
        <ele>196</ele>
        <time>2012-12-29T08:14:56.000Z</time>
      </trkpt>
      <trkpt lat="44.15661" lon="1.92716">
        <ele>196.1</ele>
        <time>2012-12-29T08:14:57.000Z</time>
      </trkpt>
      <trkpt lat="44.15661" lon="1.92711">
        <ele>196.1</ele>
        <time>2012-12-29T08:14:58.000Z</time>
      </trkpt>
      <trkpt lat="44.15662" lon="1.92706">
        <ele>196.2</ele>
        <time>2012-12-29T08:14:59.000Z</time>
      </trkpt>
      <trkpt lat="44.15663" lon="1.92702">
        <ele>196.4</ele>
        <time>2012-12-29T08:15:00.000Z</time>
      </trkpt>
      <trkpt lat="44.15664" lon="1.92697">
        <ele>196.6</ele>
        <time>2012-12-29T08:15:01.000Z</time>
      </trkpt>
      <trkpt lat="44.15665" lon="1.92692">
        <ele>196.7</ele>
        <time>2012-12-29T08:15:02.000Z</time>
      </trkpt>
      <trkpt lat="44.15666" lon="1.92688">
        <ele>196.9</ele>
        <time>2012-12-29T08:15:03.000Z</time>
      </trkpt>
      <trkpt lat="44.15668" lon="1.92683">
        <ele>197</ele>
        <time>2012-12-29T08:15:04.000Z</time>
      </trkpt>
      <trkpt lat="44.1567" lon="1.92678">
        <ele>197.2</ele>
        <time>2012-12-29T08:15:05.000Z</time>
      </trkpt>
      <trkpt lat="44.15672" lon="1.92673">
        <ele>197.4</ele>
        <time>2012-12-29T08:15:06.000Z</time>
      </trkpt>
      <trkpt lat="44.15673" lon="1.92669">
        <ele>197.6</ele>
        <time>2012-12-29T08:15:07.000Z</time>
      </trkpt>
      <trkpt lat="44.15674" lon="1.92664">
        <ele>197.7</ele>
        <time>2012-12-29T08:15:08.000Z</time>
      </trkpt>
      <trkpt lat="44.15676" lon="1.9266">
        <ele>197.9</ele>
        <time>2012-12-29T08:15:09.000Z</time>
      </trkpt>
      <trkpt lat="44.15677" lon="1.92656">
        <ele>198</ele>
        <time>2012-12-29T08:15:10.000Z</time>
      </trkpt>
      <trkpt lat="44.15678" lon="1.92652">
        <ele>198.1</ele>
        <time>2012-12-29T08:15:11.000Z</time>
      </trkpt>
      <trkpt lat="44.1568" lon="1.92648">
        <ele>198.3</ele>
        <time>2012-12-29T08:15:12.000Z</time>
      </trkpt>
      <trkpt lat="44.15681" lon="1.92643">
        <ele>198.4</ele>
        <time>2012-12-29T08:15:13.000Z</time>
      </trkpt>
      <trkpt lat="44.15682" lon="1.92639">
        <ele>198.6</ele>
        <time>2012-12-29T08:15:14.000Z</time>
      </trkpt>
      <trkpt lat="44.15682" lon="1.92634">
        <ele>198.8</ele>
        <time>2012-12-29T08:15:15.000Z</time>
      </trkpt>
      <trkpt lat="44.15682" lon="1.9263">
        <ele>198.9</ele>
        <time>2012-12-29T08:15:16.000Z</time>
      </trkpt>
      <trkpt lat="44.15683" lon="1.92625">
        <ele>199.1</ele>
        <time>2012-12-29T08:15:17.000Z</time>
      </trkpt>
      <trkpt lat="44.15684" lon="1.9262">
        <ele>199.2</ele>
        <time>2012-12-29T08:15:18.000Z</time>
      </trkpt>
      <trkpt lat="44.15684" lon="1.92615">
        <ele>199.4</ele>
        <time>2012-12-29T08:15:19.000Z</time>
      </trkpt>
      <trkpt lat="44.15685" lon="1.9261">
        <ele>199.6</ele>
        <time>2012-12-29T08:15:20.000Z</time>
      </trkpt>
      <trkpt lat="44.15685" lon="1.92605">
        <ele>199.7</ele>
        <time>2012-12-29T08:15:21.000Z</time>
      </trkpt>
      <trkpt lat="44.15685" lon="1.926">
        <ele>199.9</ele>
        <time>2012-12-29T08:15:22.000Z</time>
      </trkpt>
      <trkpt lat="44.15685" lon="1.92595">
        <ele>200</ele>
        <time>2012-12-29T08:15:23.000Z</time>
      </trkpt>
      <trkpt lat="44.15686" lon="1.9259">
        <ele>200.1</ele>
        <time>2012-12-29T08:15:24.000Z</time>
      </trkpt>
      <trkpt lat="44.15686" lon="1.92584">
        <ele>200.2</ele>
        <time>2012-12-29T08:15:25.000Z</time>
      </trkpt>
      <trkpt lat="44.15687" lon="1.92578">
        <ele>200.3</ele>
        <time>2012-12-29T08:15:26.000Z</time>
      </trkpt>
      <trkpt lat="44.15687" lon="1.92573">
        <ele>200.3</ele>
        <time>2012-12-29T08:15:27.000Z</time>
      </trkpt>
      <trkpt lat="44.15688" lon="1.92569">
        <ele>200.4</ele>
        <time>2012-12-29T08:15:28.000Z</time>
      </trkpt>
      <trkpt lat="44.15688" lon="1.92563">
        <ele>200.6</ele>
        <time>2012-12-29T08:15:29.000Z</time>
      </trkpt>
      <trkpt lat="44.15688" lon="1.92558">
        <ele>200.7</ele>
        <time>2012-12-29T08:15:30.000Z</time>
      </trkpt>
      <trkpt lat="44.15689" lon="1.92552">
        <ele>200.9</ele>
        <time>2012-12-29T08:15:31.000Z</time>
      </trkpt>
      <trkpt lat="44.15689" lon="1.92547">
        <ele>201</ele>
        <time>2012-12-29T08:15:32.000Z</time>
      </trkpt>
      <trkpt lat="44.1569" lon="1.92543">
        <ele>201.1</ele>
        <time>2012-12-29T08:15:33.000Z</time>
      </trkpt>
      <trkpt lat="44.15691" lon="1.92538">
        <ele>201.3</ele>
        <time>2012-12-29T08:15:34.000Z</time>
      </trkpt>
      <trkpt lat="44.15691" lon="1.92533">
        <ele>201.4</ele>
        <time>2012-12-29T08:15:35.000Z</time>
      </trkpt>
      <trkpt lat="44.15691" lon="1.92527">
        <ele>201.5</ele>
        <time>2012-12-29T08:15:36.000Z</time>
      </trkpt>
      <trkpt lat="44.15691" lon="1.92522">
        <ele>201.7</ele>
        <time>2012-12-29T08:15:37.000Z</time>
      </trkpt>
      <trkpt lat="44.15692" lon="1.92517">
        <ele>201.8</ele>
        <time>2012-12-29T08:15:38.000Z</time>
      </trkpt>
      <trkpt lat="44.15692" lon="1.92512">
        <ele>201.9</ele>
        <time>2012-12-29T08:15:39.000Z</time>
      </trkpt>
      <trkpt lat="44.15692" lon="1.92507">
        <ele>202</ele>
        <time>2012-12-29T08:15:40.000Z</time>
      </trkpt>
      <trkpt lat="44.15693" lon="1.92501">
        <ele>202.1</ele>
        <time>2012-12-29T08:15:41.000Z</time>
      </trkpt>
      <trkpt lat="44.15693" lon="1.92495">
        <ele>202.1</ele>
        <time>2012-12-29T08:15:42.000Z</time>
      </trkpt>
      <trkpt lat="44.15693" lon="1.9249">
        <ele>202.2</ele>
        <time>2012-12-29T08:15:43.000Z</time>
      </trkpt>
      <trkpt lat="44.15693" lon="1.92485">
        <ele>202.2</ele>
        <time>2012-12-29T08:15:44.000Z</time>
      </trkpt>
      <trkpt lat="44.15693" lon="1.9248">
        <ele>202.3</ele>
        <time>2012-12-29T08:15:45.000Z</time>
      </trkpt>
      <trkpt lat="44.15693" lon="1.92476">
        <ele>202.5</ele>
        <time>2012-12-29T08:15:46.000Z</time>
      </trkpt>
      <trkpt lat="44.15694" lon="1.92472">
        <ele>202.6</ele>
        <time>2012-12-29T08:15:47.000Z</time>
      </trkpt>
      <trkpt lat="44.15694" lon="1.92467">
        <ele>202.7</ele>
        <time>2012-12-29T08:15:48.000Z</time>
      </trkpt>
      <trkpt lat="44.15694" lon="1.92462">
        <ele>202.8</ele>
        <time>2012-12-29T08:15:49.000Z</time>
      </trkpt>
      <trkpt lat="44.15695" lon="1.92457">
        <ele>203</ele>
        <time>2012-12-29T08:15:50.000Z</time>
      </trkpt>
      <trkpt lat="44.15695" lon="1.92452">
        <ele>203.1</ele>
        <time>2012-12-29T08:15:51.000Z</time>
      </trkpt>
      <trkpt lat="44.15696" lon="1.92448">
        <ele>203.2</ele>
        <time>2012-12-29T08:15:52.000Z</time>
      </trkpt>
      <trkpt lat="44.15696" lon="1.92444">
        <ele>203.4</ele>
        <time>2012-12-29T08:15:53.000Z</time>
      </trkpt>
      <trkpt lat="44.15696" lon="1.92438">
        <ele>203.5</ele>
        <time>2012-12-29T08:15:54.000Z</time>
      </trkpt>
      <trkpt lat="44.15696" lon="1.92433">
        <ele>203.7</ele>
        <time>2012-12-29T08:15:55.000Z</time>
      </trkpt>
      <trkpt lat="44.15697" lon="1.92429">
        <ele>203.8</ele>
        <time>2012-12-29T08:15:56.000Z</time>
      </trkpt>
      <trkpt lat="44.15697" lon="1.92424">
        <ele>203.8</ele>
        <time>2012-12-29T08:15:57.000Z</time>
      </trkpt>
      <trkpt lat="44.15697" lon="1.9242">
        <ele>203.7</ele>
        <time>2012-12-29T08:15:58.000Z</time>
      </trkpt>
      <trkpt lat="44.15697" lon="1.92415">
        <ele>203.8</ele>
        <time>2012-12-29T08:15:59.000Z</time>
      </trkpt>
      <trkpt lat="44.15698" lon="1.9241">
        <ele>203.8</ele>
        <time>2012-12-29T08:16:00.000Z</time>
      </trkpt>
      <trkpt lat="44.15699" lon="1.92406">
        <ele>203.9</ele>
        <time>2012-12-29T08:16:01.000Z</time>
      </trkpt>
      <trkpt lat="44.15699" lon="1.92401">
        <ele>204</ele>
        <time>2012-12-29T08:16:02.000Z</time>
      </trkpt>
      <trkpt lat="44.157" lon="1.92395">
        <ele>204.1</ele>
        <time>2012-12-29T08:16:03.000Z</time>
      </trkpt>
      <trkpt lat="44.15701" lon="1.92391">
        <ele>204.2</ele>
        <time>2012-12-29T08:16:04.000Z</time>
      </trkpt>
      <trkpt lat="44.15702" lon="1.92386">
        <ele>204.3</ele>
        <time>2012-12-29T08:16:05.000Z</time>
      </trkpt>
      <trkpt lat="44.15702" lon="1.92382">
        <ele>204.4</ele>
        <time>2012-12-29T08:16:06.000Z</time>
      </trkpt>
      <trkpt lat="44.15704" lon="1.92377">
        <ele>204.5</ele>
        <time>2012-12-29T08:16:07.000Z</time>
      </trkpt>
      <trkpt lat="44.15705" lon="1.92372">
        <ele>204.5</ele>
        <time>2012-12-29T08:16:08.000Z</time>
      </trkpt>
      <trkpt lat="44.15706" lon="1.92367">
        <ele>204.5</ele>
        <time>2012-12-29T08:16:09.000Z</time>
      </trkpt>
      <trkpt lat="44.15707" lon="1.92362">
        <ele>204.6</ele>
        <time>2012-12-29T08:16:10.000Z</time>
      </trkpt>
      <trkpt lat="44.15709" lon="1.92357">
        <ele>204.6</ele>
        <time>2012-12-29T08:16:11.000Z</time>
      </trkpt>
      <trkpt lat="44.1571" lon="1.92352">
        <ele>204.7</ele>
        <time>2012-12-29T08:16:12.000Z</time>
      </trkpt>
      <trkpt lat="44.15711" lon="1.92348">
        <ele>204.8</ele>
        <time>2012-12-29T08:16:13.000Z</time>
      </trkpt>
      <trkpt lat="44.15713" lon="1.92344">
        <ele>204.9</ele>
        <time>2012-12-29T08:16:14.000Z</time>
      </trkpt>
      <trkpt lat="44.15714" lon="1.9234">
        <ele>205</ele>
        <time>2012-12-29T08:16:15.000Z</time>
      </trkpt>
      <trkpt lat="44.15715" lon="1.92335">
        <ele>205.1</ele>
        <time>2012-12-29T08:16:16.000Z</time>
      </trkpt>
      <trkpt lat="44.15717" lon="1.9233">
        <ele>205.1</ele>
        <time>2012-12-29T08:16:17.000Z</time>
      </trkpt>
      <trkpt lat="44.15719" lon="1.92326">
        <ele>205.2</ele>
        <time>2012-12-29T08:16:18.000Z</time>
      </trkpt>
      <trkpt lat="44.15721" lon="1.92321">
        <ele>205.3</ele>
        <time>2012-12-29T08:16:19.000Z</time>
      </trkpt>
      <trkpt lat="44.15722" lon="1.92316">
        <ele>205.4</ele>
        <time>2012-12-29T08:16:20.000Z</time>
      </trkpt>
      <trkpt lat="44.15724" lon="1.92311">
        <ele>205.5</ele>
        <time>2012-12-29T08:16:21.000Z</time>
      </trkpt>
      <trkpt lat="44.15726" lon="1.92306">
        <ele>205.6</ele>
        <time>2012-12-29T08:16:22.000Z</time>
      </trkpt>
      <trkpt lat="44.15728" lon="1.92302">
        <ele>205.7</ele>
        <time>2012-12-29T08:16:23.000Z</time>
      </trkpt>
      <trkpt lat="44.1573" lon="1.92298">
        <ele>205.8</ele>
        <time>2012-12-29T08:16:24.000Z</time>
      </trkpt>
      <trkpt lat="44.15732" lon="1.92294">
        <ele>206</ele>
        <time>2012-12-29T08:16:25.000Z</time>
      </trkpt>
      <trkpt lat="44.15734" lon="1.92289">
        <ele>206.2</ele>
        <time>2012-12-29T08:16:26.000Z</time>
      </trkpt>
      <trkpt lat="44.15735" lon="1.92285">
        <ele>206.3</ele>
        <time>2012-12-29T08:16:27.000Z</time>
      </trkpt>
      <trkpt lat="44.15737" lon="1.9228">
        <ele>206.5</ele>
        <time>2012-12-29T08:16:28.000Z</time>
      </trkpt>
      <trkpt lat="44.15739" lon="1.92275">
        <ele>206.7</ele>
        <time>2012-12-29T08:16:29.000Z</time>
      </trkpt>
      <trkpt lat="44.1574" lon="1.92271">
        <ele>206.8</ele>
        <time>2012-12-29T08:16:30.000Z</time>
      </trkpt>
      <trkpt lat="44.15742" lon="1.92266">
        <ele>207</ele>
        <time>2012-12-29T08:16:31.000Z</time>
      </trkpt>
      <trkpt lat="44.15743" lon="1.92261">
        <ele>207.1</ele>
        <time>2012-12-29T08:16:32.000Z</time>
      </trkpt>
      <trkpt lat="44.15745" lon="1.92256">
        <ele>208.3</ele>
        <time>2012-12-29T08:16:33.000Z</time>
      </trkpt>
      <trkpt lat="44.15747" lon="1.92251">
        <ele>208.8</ele>
        <time>2012-12-29T08:16:34.000Z</time>
      </trkpt>
      <trkpt lat="44.15749" lon="1.92246">
        <ele>208.8</ele>
        <time>2012-12-29T08:16:35.000Z</time>
      </trkpt>
      <trkpt lat="44.15751" lon="1.92241">
        <ele>208.8</ele>
        <time>2012-12-29T08:16:36.000Z</time>
      </trkpt>
      <trkpt lat="44.15753" lon="1.92236">
        <ele>208.8</ele>
        <time>2012-12-29T08:16:37.000Z</time>
      </trkpt>
      <trkpt lat="44.15755" lon="1.92231">
        <ele>209</ele>
        <time>2012-12-29T08:16:38.000Z</time>
      </trkpt>
      <trkpt lat="44.15757" lon="1.92226">
        <ele>209.1</ele>
        <time>2012-12-29T08:16:39.000Z</time>
      </trkpt>
      <trkpt lat="44.15759" lon="1.92221">
        <ele>209</ele>
        <time>2012-12-29T08:16:40.000Z</time>
      </trkpt>
      <trkpt lat="44.15761" lon="1.92216">
        <ele>208.8</ele>
        <time>2012-12-29T08:16:41.000Z</time>
      </trkpt>
      <trkpt lat="44.15764" lon="1.9221">
        <ele>208.8</ele>
        <time>2012-12-29T08:16:42.000Z</time>
      </trkpt>
      <trkpt lat="44.15766" lon="1.92205">
        <ele>208.6</ele>
        <time>2012-12-29T08:16:43.000Z</time>
      </trkpt>
      <trkpt lat="44.15769" lon="1.92199">
        <ele>208.4</ele>
        <time>2012-12-29T08:16:44.000Z</time>
      </trkpt>
      <trkpt lat="44.15771" lon="1.92194">
        <ele>208.1</ele>
        <time>2012-12-29T08:16:45.000Z</time>
      </trkpt>
      <trkpt lat="44.15773" lon="1.92189">
        <ele>207.7</ele>
        <time>2012-12-29T08:16:46.000Z</time>
      </trkpt>
      <trkpt lat="44.15776" lon="1.92183">
        <ele>207.3</ele>
        <time>2012-12-29T08:16:47.000Z</time>
      </trkpt>
      <trkpt lat="44.15778" lon="1.92177">
        <ele>207.1</ele>
        <time>2012-12-29T08:16:48.000Z</time>
      </trkpt>
      <trkpt lat="44.1578" lon="1.92172">
        <ele>207.1</ele>
        <time>2012-12-29T08:16:49.000Z</time>
      </trkpt>
      <trkpt lat="44.15782" lon="1.92167">
        <ele>207.3</ele>
        <time>2012-12-29T08:16:50.000Z</time>
      </trkpt>
      <trkpt lat="44.15785" lon="1.92161">
        <ele>207.4</ele>
        <time>2012-12-29T08:16:51.000Z</time>
      </trkpt>
      <trkpt lat="44.15787" lon="1.92153">
        <ele>207.1</ele>
        <time>2012-12-29T08:16:52.000Z</time>
      </trkpt>
      <trkpt lat="44.15789" lon="1.92148">
        <ele>206.4</ele>
        <time>2012-12-29T08:16:53.000Z</time>
      </trkpt>
      <trkpt lat="44.15791" lon="1.92141">
        <ele>206</ele>
        <time>2012-12-29T08:16:54.000Z</time>
      </trkpt>
      <trkpt lat="44.15793" lon="1.92135">
        <ele>205.6</ele>
        <time>2012-12-29T08:16:55.000Z</time>
      </trkpt>
      <trkpt lat="44.15795" lon="1.92128">
        <ele>205.5</ele>
        <time>2012-12-29T08:16:56.000Z</time>
      </trkpt>
      <trkpt lat="44.15797" lon="1.92121">
        <ele>205.2</ele>
        <time>2012-12-29T08:16:57.000Z</time>
      </trkpt>
      <trkpt lat="44.15799" lon="1.92114">
        <ele>205.5</ele>
        <time>2012-12-29T08:16:58.000Z</time>
      </trkpt>
      <trkpt lat="44.158" lon="1.92107">
        <ele>206.1</ele>
        <time>2012-12-29T08:16:59.000Z</time>
      </trkpt>
      <trkpt lat="44.158" lon="1.92101">
        <ele>206.7</ele>
        <time>2012-12-29T08:17:00.000Z</time>
      </trkpt>
      <trkpt lat="44.15801" lon="1.92094">
        <ele>207</ele>
        <time>2012-12-29T08:17:01.000Z</time>
      </trkpt>
      <trkpt lat="44.15802" lon="1.92088">
        <ele>207.2</ele>
        <time>2012-12-29T08:17:02.000Z</time>
      </trkpt>
      <trkpt lat="44.15803" lon="1.92082">
        <ele>207.5</ele>
        <time>2012-12-29T08:17:03.000Z</time>
      </trkpt>
      <trkpt lat="44.15803" lon="1.92076">
        <ele>207.7</ele>
        <time>2012-12-29T08:17:04.000Z</time>
      </trkpt>
      <trkpt lat="44.15804" lon="1.92071">
        <ele>207.9</ele>
        <time>2012-12-29T08:17:05.000Z</time>
      </trkpt>
      <trkpt lat="44.15804" lon="1.92065">
        <ele>208</ele>
        <time>2012-12-29T08:17:06.000Z</time>
      </trkpt>
      <trkpt lat="44.15804" lon="1.92058">
        <ele>208.3</ele>
        <time>2012-12-29T08:17:07.000Z</time>
      </trkpt>
      <trkpt lat="44.15804" lon="1.92053">
        <ele>208.6</ele>
        <time>2012-12-29T08:17:08.000Z</time>
      </trkpt>
      <trkpt lat="44.15804" lon="1.92048">
        <ele>209.2</ele>
        <time>2012-12-29T08:17:09.000Z</time>
      </trkpt>
      <trkpt lat="44.15804" lon="1.92043">
        <ele>209.9</ele>
        <time>2012-12-29T08:17:10.000Z</time>
      </trkpt>
      <trkpt lat="44.15804" lon="1.92036">
        <ele>210.3</ele>
        <time>2012-12-29T08:17:11.000Z</time>
      </trkpt>
      <trkpt lat="44.15803" lon="1.9203">
        <ele>210.3</ele>
        <time>2012-12-29T08:17:12.000Z</time>
      </trkpt>
      <trkpt lat="44.15803" lon="1.92023">
        <ele>210.3</ele>
        <time>2012-12-29T08:17:13.000Z</time>
      </trkpt>
      <trkpt lat="44.15803" lon="1.92016">
        <ele>210.6</ele>
        <time>2012-12-29T08:17:14.000Z</time>
      </trkpt>
      <trkpt lat="44.15803" lon="1.92009">
        <ele>210.6</ele>
        <time>2012-12-29T08:17:15.000Z</time>
      </trkpt>
      <trkpt lat="44.15803" lon="1.92003">
        <ele>210.6</ele>
        <time>2012-12-29T08:17:16.000Z</time>
      </trkpt>
      <trkpt lat="44.15803" lon="1.91997">
        <ele>211.1</ele>
        <time>2012-12-29T08:17:17.000Z</time>
      </trkpt>
      <trkpt lat="44.15803" lon="1.91991">
        <ele>211.3</ele>
        <time>2012-12-29T08:17:18.000Z</time>
      </trkpt>
      <trkpt lat="44.15803" lon="1.91985">
        <ele>211.3</ele>
        <time>2012-12-29T08:17:19.000Z</time>
      </trkpt>
      <trkpt lat="44.15803" lon="1.91979">
        <ele>211.5</ele>
        <time>2012-12-29T08:17:20.000Z</time>
      </trkpt>
      <trkpt lat="44.15803" lon="1.91973">
        <ele>211.7</ele>
        <time>2012-12-29T08:17:21.000Z</time>
      </trkpt>
      <trkpt lat="44.15803" lon="1.91967">
        <ele>211.7</ele>
        <time>2012-12-29T08:17:22.000Z</time>
      </trkpt>
      <trkpt lat="44.15803" lon="1.91962">
        <ele>211.7</ele>
        <time>2012-12-29T08:17:23.000Z</time>
      </trkpt>
      <trkpt lat="44.15803" lon="1.91956">
        <ele>211.5</ele>
        <time>2012-12-29T08:17:24.000Z</time>
      </trkpt>
      <trkpt lat="44.15803" lon="1.9195">
        <ele>211.4</ele>
        <time>2012-12-29T08:17:25.000Z</time>
      </trkpt>
      <trkpt lat="44.15803" lon="1.91944">
        <ele>211.1</ele>
        <time>2012-12-29T08:17:26.000Z</time>
      </trkpt>
      <trkpt lat="44.15802" lon="1.91937">
        <ele>211</ele>
        <time>2012-12-29T08:17:27.000Z</time>
      </trkpt>
      <trkpt lat="44.15802" lon="1.91931">
        <ele>210.9</ele>
        <time>2012-12-29T08:17:28.000Z</time>
      </trkpt>
      <trkpt lat="44.15801" lon="1.91925">
        <ele>210.9</ele>
        <time>2012-12-29T08:17:29.000Z</time>
      </trkpt>
      <trkpt lat="44.15801" lon="1.91919">
        <ele>211</ele>
        <time>2012-12-29T08:17:30.000Z</time>
      </trkpt>
      <trkpt lat="44.15801" lon="1.91913">
        <ele>211.5</ele>
        <time>2012-12-29T08:17:31.000Z</time>
      </trkpt>
      <trkpt lat="44.15801" lon="1.91907">
        <ele>212.1</ele>
        <time>2012-12-29T08:17:32.000Z</time>
      </trkpt>
      <trkpt lat="44.158" lon="1.91901">
        <ele>212.6</ele>
        <time>2012-12-29T08:17:33.000Z</time>
      </trkpt>
      <trkpt lat="44.158" lon="1.91895">
        <ele>212.7</ele>
        <time>2012-12-29T08:17:34.000Z</time>
      </trkpt>
      <trkpt lat="44.15799" lon="1.91889">
        <ele>212.6</ele>
        <time>2012-12-29T08:17:35.000Z</time>
      </trkpt>
      <trkpt lat="44.15798" lon="1.91883">
        <ele>212.5</ele>
        <time>2012-12-29T08:17:36.000Z</time>
      </trkpt>
      <trkpt lat="44.15798" lon="1.91876">
        <ele>212.3</ele>
        <time>2012-12-29T08:17:37.000Z</time>
      </trkpt>
      <trkpt lat="44.15797" lon="1.9187">
        <ele>212.2</ele>
        <time>2012-12-29T08:17:38.000Z</time>
      </trkpt>
      <trkpt lat="44.15795" lon="1.91864">
        <ele>212.3</ele>
        <time>2012-12-29T08:17:39.000Z</time>
      </trkpt>
      <trkpt lat="44.15794" lon="1.91859">
        <ele>212.7</ele>
        <time>2012-12-29T08:17:40.000Z</time>
      </trkpt>
      <trkpt lat="44.15793" lon="1.91853">
        <ele>212.7</ele>
        <time>2012-12-29T08:17:41.000Z</time>
      </trkpt>
      <trkpt lat="44.15791" lon="1.91848">
        <ele>212.6</ele>
        <time>2012-12-29T08:17:42.000Z</time>
      </trkpt>
      <trkpt lat="44.1579" lon="1.91843">
        <ele>212.7</ele>
        <time>2012-12-29T08:17:43.000Z</time>
      </trkpt>
      <trkpt lat="44.15789" lon="1.91837">
        <ele>212.9</ele>
        <time>2012-12-29T08:17:44.000Z</time>
      </trkpt>
      <trkpt lat="44.15787" lon="1.91832">
        <ele>212.9</ele>
        <time>2012-12-29T08:17:45.000Z</time>
      </trkpt>
      <trkpt lat="44.15786" lon="1.91826">
        <ele>212.8</ele>
        <time>2012-12-29T08:17:46.000Z</time>
      </trkpt>
      <trkpt lat="44.15785" lon="1.9182">
        <ele>212.5</ele>
        <time>2012-12-29T08:17:47.000Z</time>
      </trkpt>
      <trkpt lat="44.15784" lon="1.91814">
        <ele>212.3</ele>
        <time>2012-12-29T08:17:48.000Z</time>
      </trkpt>
      <trkpt lat="44.15782" lon="1.91808">
        <ele>211.9</ele>
        <time>2012-12-29T08:17:49.000Z</time>
      </trkpt>
      <trkpt lat="44.15781" lon="1.91802">
        <ele>211.6</ele>
        <time>2012-12-29T08:17:50.000Z</time>
      </trkpt>
      <trkpt lat="44.15779" lon="1.91796">
        <ele>211.3</ele>
        <time>2012-12-29T08:17:51.000Z</time>
      </trkpt>
      <trkpt lat="44.15778" lon="1.9179">
        <ele>211.2</ele>
        <time>2012-12-29T08:17:52.000Z</time>
      </trkpt>
      <trkpt lat="44.15777" lon="1.91785">
        <ele>211.2</ele>
        <time>2012-12-29T08:17:53.000Z</time>
      </trkpt>
      <trkpt lat="44.15776" lon="1.9178">
        <ele>211.2</ele>
        <time>2012-12-29T08:17:54.000Z</time>
      </trkpt>
      <trkpt lat="44.15775" lon="1.91774">
        <ele>211.3</ele>
        <time>2012-12-29T08:17:55.000Z</time>
      </trkpt>
      <trkpt lat="44.15773" lon="1.91768">
        <ele>211.4</ele>
        <time>2012-12-29T08:17:56.000Z</time>
      </trkpt>
      <trkpt lat="44.15772" lon="1.91762">
        <ele>211.4</ele>
        <time>2012-12-29T08:17:57.000Z</time>
      </trkpt>
      <trkpt lat="44.1577" lon="1.91756">
        <ele>211.2</ele>
        <time>2012-12-29T08:17:58.000Z</time>
      </trkpt>
      <trkpt lat="44.15768" lon="1.9175">
        <ele>210.9</ele>
        <time>2012-12-29T08:17:59.000Z</time>
      </trkpt>
      <trkpt lat="44.15767" lon="1.91744">
        <ele>210.9</ele>
        <time>2012-12-29T08:18:00.000Z</time>
      </trkpt>
      <trkpt lat="44.15766" lon="1.91738">
        <ele>211</ele>
        <time>2012-12-29T08:18:01.000Z</time>
      </trkpt>
      <trkpt lat="44.15764" lon="1.91733">
        <ele>211.2</ele>
        <time>2012-12-29T08:18:02.000Z</time>
      </trkpt>
      <trkpt lat="44.15763" lon="1.91727">
        <ele>211.3</ele>
        <time>2012-12-29T08:18:03.000Z</time>
      </trkpt>
      <trkpt lat="44.15762" lon="1.91721">
        <ele>211.3</ele>
        <time>2012-12-29T08:18:04.000Z</time>
      </trkpt>
      <trkpt lat="44.1576" lon="1.91714">
        <ele>211.3</ele>
        <time>2012-12-29T08:18:05.000Z</time>
      </trkpt>
      <trkpt lat="44.15759" lon="1.91709">
        <ele>211.4</ele>
        <time>2012-12-29T08:18:06.000Z</time>
      </trkpt>
      <trkpt lat="44.15757" lon="1.91703">
        <ele>211.5</ele>
        <time>2012-12-29T08:18:07.000Z</time>
      </trkpt>
      <trkpt lat="44.15755" lon="1.91697">
        <ele>211.7</ele>
        <time>2012-12-29T08:18:08.000Z</time>
      </trkpt>
      <trkpt lat="44.15754" lon="1.91691">
        <ele>211.7</ele>
        <time>2012-12-29T08:18:09.000Z</time>
      </trkpt>
      <trkpt lat="44.15753" lon="1.91686">
        <ele>211.7</ele>
        <time>2012-12-29T08:18:10.000Z</time>
      </trkpt>
      <trkpt lat="44.15752" lon="1.91681">
        <ele>211.7</ele>
        <time>2012-12-29T08:18:11.000Z</time>
      </trkpt>
      <trkpt lat="44.15751" lon="1.91676">
        <ele>211.7</ele>
        <time>2012-12-29T08:18:12.000Z</time>
      </trkpt>
      <trkpt lat="44.1575" lon="1.9167">
        <ele>211.7</ele>
        <time>2012-12-29T08:18:13.000Z</time>
      </trkpt>
      <trkpt lat="44.15749" lon="1.91665">
        <ele>211.8</ele>
        <time>2012-12-29T08:18:14.000Z</time>
      </trkpt>
      <trkpt lat="44.15748" lon="1.9166">
        <ele>211.5</ele>
        <time>2012-12-29T08:18:15.000Z</time>
      </trkpt>
      <trkpt lat="44.15747" lon="1.91655">
        <ele>211.1</ele>
        <time>2012-12-29T08:18:16.000Z</time>
      </trkpt>
      <trkpt lat="44.15746" lon="1.9165">
        <ele>210.9</ele>
        <time>2012-12-29T08:18:17.000Z</time>
      </trkpt>
      <trkpt lat="44.15745" lon="1.91645">
        <ele>210.6</ele>
        <time>2012-12-29T08:18:18.000Z</time>
      </trkpt>
      <trkpt lat="44.15744" lon="1.9164">
        <ele>210.3</ele>
        <time>2012-12-29T08:18:19.000Z</time>
      </trkpt>
      <trkpt lat="44.15743" lon="1.91635">
        <ele>210</ele>
        <time>2012-12-29T08:18:20.000Z</time>
      </trkpt>
      <trkpt lat="44.15742" lon="1.91629">
        <ele>209.6</ele>
        <time>2012-12-29T08:18:21.000Z</time>
      </trkpt>
      <trkpt lat="44.1574" lon="1.91622">
        <ele>209.4</ele>
        <time>2012-12-29T08:18:22.000Z</time>
      </trkpt>
      <trkpt lat="44.15739" lon="1.91617">
        <ele>209.1</ele>
        <time>2012-12-29T08:18:23.000Z</time>
      </trkpt>
      <trkpt lat="44.15738" lon="1.9161">
        <ele>208.7</ele>
        <time>2012-12-29T08:18:24.000Z</time>
      </trkpt>
      <trkpt lat="44.15737" lon="1.91604">
        <ele>208.8</ele>
        <time>2012-12-29T08:18:25.000Z</time>
      </trkpt>
      <trkpt lat="44.15736" lon="1.91598">
        <ele>209.3</ele>
        <time>2012-12-29T08:18:26.000Z</time>
      </trkpt>
      <trkpt lat="44.15734" lon="1.91593">
        <ele>209.7</ele>
        <time>2012-12-29T08:18:27.000Z</time>
      </trkpt>
      <trkpt lat="44.15732" lon="1.91588">
        <ele>209.9</ele>
        <time>2012-12-29T08:18:28.000Z</time>
      </trkpt>
      <trkpt lat="44.15729" lon="1.91583">
        <ele>210</ele>
        <time>2012-12-29T08:18:29.000Z</time>
      </trkpt>
      <trkpt lat="44.15726" lon="1.91578">
        <ele>210</ele>
        <time>2012-12-29T08:18:30.000Z</time>
      </trkpt>
      <trkpt lat="44.15723" lon="1.91573">
        <ele>210.1</ele>
        <time>2012-12-29T08:18:31.000Z</time>
      </trkpt>
      <trkpt lat="44.1572" lon="1.91568">
        <ele>210.4</ele>
        <time>2012-12-29T08:18:32.000Z</time>
      </trkpt>
      <trkpt lat="44.15717" lon="1.91563">
        <ele>210.6</ele>
        <time>2012-12-29T08:18:33.000Z</time>
      </trkpt>
      <trkpt lat="44.15714" lon="1.91559">
        <ele>210.9</ele>
        <time>2012-12-29T08:18:34.000Z</time>
      </trkpt>
      <trkpt lat="44.15712" lon="1.91556">
        <ele>211.3</ele>
        <time>2012-12-29T08:18:35.000Z</time>
      </trkpt>
      <trkpt lat="44.15709" lon="1.91552">
        <ele>211.4</ele>
        <time>2012-12-29T08:18:36.000Z</time>
      </trkpt>
      <trkpt lat="44.15706" lon="1.91548">
        <ele>211.5</ele>
        <time>2012-12-29T08:18:37.000Z</time>
      </trkpt>
      <trkpt lat="44.15703" lon="1.91544">
        <ele>211.7</ele>
        <time>2012-12-29T08:18:38.000Z</time>
      </trkpt>
      <trkpt lat="44.15699" lon="1.9154">
        <ele>211.9</ele>
        <time>2012-12-29T08:18:39.000Z</time>
      </trkpt>
      <trkpt lat="44.15696" lon="1.91536">
        <ele>212.1</ele>
        <time>2012-12-29T08:18:40.000Z</time>
      </trkpt>
      <trkpt lat="44.15693" lon="1.91531">
        <ele>212.2</ele>
        <time>2012-12-29T08:18:41.000Z</time>
      </trkpt>
      <trkpt lat="44.15689" lon="1.91527">
        <ele>212.1</ele>
        <time>2012-12-29T08:18:42.000Z</time>
      </trkpt>
      <trkpt lat="44.15686" lon="1.91521">
        <ele>211.9</ele>
        <time>2012-12-29T08:18:43.000Z</time>
      </trkpt>
      <trkpt lat="44.15682" lon="1.91517">
        <ele>211.7</ele>
        <time>2012-12-29T08:18:44.000Z</time>
      </trkpt>
      <trkpt lat="44.15679" lon="1.91512">
        <ele>211.7</ele>
        <time>2012-12-29T08:18:45.000Z</time>
      </trkpt>
      <trkpt lat="44.15676" lon="1.91508">
        <ele>211.6</ele>
        <time>2012-12-29T08:18:46.000Z</time>
      </trkpt>
      <trkpt lat="44.15672" lon="1.91504">
        <ele>212.2</ele>
        <time>2012-12-29T08:18:47.000Z</time>
      </trkpt>
      <trkpt lat="44.15669" lon="1.915">
        <ele>212.4</ele>
        <time>2012-12-29T08:18:48.000Z</time>
      </trkpt>
      <trkpt lat="44.15665" lon="1.91496">
        <ele>212.6</ele>
        <time>2012-12-29T08:18:49.000Z</time>
      </trkpt>
      <trkpt lat="44.15661" lon="1.91492">
        <ele>212.6</ele>
        <time>2012-12-29T08:18:50.000Z</time>
      </trkpt>
      <trkpt lat="44.15657" lon="1.91488">
        <ele>212.6</ele>
        <time>2012-12-29T08:18:51.000Z</time>
      </trkpt>
      <trkpt lat="44.15653" lon="1.91485">
        <ele>212.4</ele>
        <time>2012-12-29T08:18:52.000Z</time>
      </trkpt>
      <trkpt lat="44.1565" lon="1.91482">
        <ele>212.4</ele>
        <time>2012-12-29T08:18:53.000Z</time>
      </trkpt>
      <trkpt lat="44.15647" lon="1.9148">
        <ele>212.3</ele>
        <time>2012-12-29T08:18:54.000Z</time>
      </trkpt>
      <trkpt lat="44.15644" lon="1.91477">
        <ele>212.5</ele>
        <time>2012-12-29T08:18:55.000Z</time>
      </trkpt>
      <trkpt lat="44.1564" lon="1.91475">
        <ele>212.9</ele>
        <time>2012-12-29T08:18:56.000Z</time>
      </trkpt>
      <trkpt lat="44.15637" lon="1.91472">
        <ele>213.1</ele>
        <time>2012-12-29T08:18:57.000Z</time>
      </trkpt>
      <trkpt lat="44.15634" lon="1.91469">
        <ele>213.3</ele>
        <time>2012-12-29T08:18:58.000Z</time>
      </trkpt>
      <trkpt lat="44.1563" lon="1.91467">
        <ele>213.4</ele>
        <time>2012-12-29T08:18:59.000Z</time>
      </trkpt>
      <trkpt lat="44.15626" lon="1.91464">
        <ele>213.2</ele>
        <time>2012-12-29T08:19:00.000Z</time>
      </trkpt>
      <trkpt lat="44.15622" lon="1.91461">
        <ele>213.1</ele>
        <time>2012-12-29T08:19:01.000Z</time>
      </trkpt>
      <trkpt lat="44.15618" lon="1.91459">
        <ele>213.4</ele>
        <time>2012-12-29T08:19:02.000Z</time>
      </trkpt>
      <trkpt lat="44.15614" lon="1.91456">
        <ele>213</ele>
        <time>2012-12-29T08:19:03.000Z</time>
      </trkpt>
      <trkpt lat="44.1561" lon="1.91453">
        <ele>212.4</ele>
        <time>2012-12-29T08:19:04.000Z</time>
      </trkpt>
      <trkpt lat="44.15607" lon="1.91451">
        <ele>212.1</ele>
        <time>2012-12-29T08:19:05.000Z</time>
      </trkpt>
      <trkpt lat="44.15602" lon="1.91448">
        <ele>211.7</ele>
        <time>2012-12-29T08:19:06.000Z</time>
      </trkpt>
      <trkpt lat="44.15598" lon="1.91446">
        <ele>211</ele>
        <time>2012-12-29T08:19:07.000Z</time>
      </trkpt>
      <trkpt lat="44.15594" lon="1.91443">
        <ele>210.5</ele>
        <time>2012-12-29T08:19:08.000Z</time>
      </trkpt>
      <trkpt lat="44.15589" lon="1.91441">
        <ele>210.2</ele>
        <time>2012-12-29T08:19:09.000Z</time>
      </trkpt>
      <trkpt lat="44.15585" lon="1.91439">
        <ele>210.4</ele>
        <time>2012-12-29T08:19:10.000Z</time>
      </trkpt>
      <trkpt lat="44.15582" lon="1.91437">
        <ele>210.3</ele>
        <time>2012-12-29T08:19:11.000Z</time>
      </trkpt>
      <trkpt lat="44.15577" lon="1.91435">
        <ele>209.9</ele>
        <time>2012-12-29T08:19:12.000Z</time>
      </trkpt>
      <trkpt lat="44.15573" lon="1.91433">
        <ele>210.1</ele>
        <time>2012-12-29T08:19:13.000Z</time>
      </trkpt>
      <trkpt lat="44.1557" lon="1.91432">
        <ele>210.2</ele>
        <time>2012-12-29T08:19:14.000Z</time>
      </trkpt>
      <trkpt lat="44.15566" lon="1.9143">
        <ele>209.9</ele>
        <time>2012-12-29T08:19:15.000Z</time>
      </trkpt>
      <trkpt lat="44.15561" lon="1.91429">
        <ele>210.3</ele>
        <time>2012-12-29T08:19:16.000Z</time>
      </trkpt>
      <trkpt lat="44.15557" lon="1.91427">
        <ele>210.5</ele>
        <time>2012-12-29T08:19:17.000Z</time>
      </trkpt>
      <trkpt lat="44.15552" lon="1.91426">
        <ele>211</ele>
        <time>2012-12-29T08:19:18.000Z</time>
      </trkpt>
      <trkpt lat="44.15548" lon="1.91425">
        <ele>211.4</ele>
        <time>2012-12-29T08:19:19.000Z</time>
      </trkpt>
      <trkpt lat="44.15544" lon="1.91424">
        <ele>211.6</ele>
        <time>2012-12-29T08:19:20.000Z</time>
      </trkpt>
      <trkpt lat="44.1554" lon="1.91423">
        <ele>211.6</ele>
        <time>2012-12-29T08:19:21.000Z</time>
      </trkpt>
      <trkpt lat="44.15536" lon="1.91422">
        <ele>211.2</ele>
        <time>2012-12-29T08:19:22.000Z</time>
      </trkpt>
      <trkpt lat="44.15532" lon="1.91421">
        <ele>210.5</ele>
        <time>2012-12-29T08:19:23.000Z</time>
      </trkpt>
      <trkpt lat="44.15528" lon="1.91419">
        <ele>209.9</ele>
        <time>2012-12-29T08:19:24.000Z</time>
      </trkpt>
      <trkpt lat="44.15524" lon="1.91417">
        <ele>209.4</ele>
        <time>2012-12-29T08:19:25.000Z</time>
      </trkpt>
      <trkpt lat="44.1552" lon="1.91415">
        <ele>209</ele>
        <time>2012-12-29T08:19:26.000Z</time>
      </trkpt>
      <trkpt lat="44.15517" lon="1.91413">
        <ele>208.9</ele>
        <time>2012-12-29T08:19:27.000Z</time>
      </trkpt>
      <trkpt lat="44.15514" lon="1.91411">
        <ele>208.8</ele>
        <time>2012-12-29T08:19:28.000Z</time>
      </trkpt>
      <trkpt lat="44.1551" lon="1.91408">
        <ele>208.8</ele>
        <time>2012-12-29T08:19:29.000Z</time>
      </trkpt>
      <trkpt lat="44.15507" lon="1.91405">
        <ele>208.7</ele>
        <time>2012-12-29T08:19:30.000Z</time>
      </trkpt>
      <trkpt lat="44.15504" lon="1.91402">
        <ele>208.7</ele>
        <time>2012-12-29T08:19:31.000Z</time>
      </trkpt>
      <trkpt lat="44.155" lon="1.91397">
        <ele>208.4</ele>
        <time>2012-12-29T08:19:32.000Z</time>
      </trkpt>
      <trkpt lat="44.15497" lon="1.91392">
        <ele>208.4</ele>
        <time>2012-12-29T08:19:33.000Z</time>
      </trkpt>
      <trkpt lat="44.15493" lon="1.91386">
        <ele>208.4</ele>
        <time>2012-12-29T08:19:34.000Z</time>
      </trkpt>
      <trkpt lat="44.1549" lon="1.91381">
        <ele>208.6</ele>
        <time>2012-12-29T08:19:35.000Z</time>
      </trkpt>
      <trkpt lat="44.15487" lon="1.91376">
        <ele>208.8</ele>
        <time>2012-12-29T08:19:36.000Z</time>
      </trkpt>
      <trkpt lat="44.15484" lon="1.9137">
        <ele>209.2</ele>
        <time>2012-12-29T08:19:37.000Z</time>
      </trkpt>
      <trkpt lat="44.15481" lon="1.91365">
        <ele>209.3</ele>
        <time>2012-12-29T08:19:38.000Z</time>
      </trkpt>
      <trkpt lat="44.15478" lon="1.9136">
        <ele>209.6</ele>
        <time>2012-12-29T08:19:39.000Z</time>
      </trkpt>
      <trkpt lat="44.15475" lon="1.91355">
        <ele>210.1</ele>
        <time>2012-12-29T08:19:40.000Z</time>
      </trkpt>
      <trkpt lat="44.15472" lon="1.9135">
        <ele>210.8</ele>
        <time>2012-12-29T08:19:41.000Z</time>
      </trkpt>
      <trkpt lat="44.15469" lon="1.91346">
        <ele>211.6</ele>
        <time>2012-12-29T08:19:42.000Z</time>
      </trkpt>
      <trkpt lat="44.15466" lon="1.91342">
        <ele>212</ele>
        <time>2012-12-29T08:19:43.000Z</time>
      </trkpt>
      <trkpt lat="44.15463" lon="1.91338">
        <ele>212.2</ele>
        <time>2012-12-29T08:19:44.000Z</time>
      </trkpt>
      <trkpt lat="44.1546" lon="1.91335">
        <ele>212.3</ele>
        <time>2012-12-29T08:19:45.000Z</time>
      </trkpt>
      <trkpt lat="44.15457" lon="1.91332">
        <ele>211.9</ele>
        <time>2012-12-29T08:19:46.000Z</time>
      </trkpt>
      <trkpt lat="44.15453" lon="1.91331">
        <ele>211.5</ele>
        <time>2012-12-29T08:19:47.000Z</time>
      </trkpt>
      <trkpt lat="44.1545" lon="1.91329">
        <ele>211.4</ele>
        <time>2012-12-29T08:19:48.000Z</time>
      </trkpt>
      <trkpt lat="44.15446" lon="1.91329">
        <ele>210.3</ele>
        <time>2012-12-29T08:19:49.000Z</time>
      </trkpt>
      <trkpt lat="44.15442" lon="1.9133">
        <ele>209.8</ele>
        <time>2012-12-29T08:19:50.000Z</time>
      </trkpt>
      <trkpt lat="44.15439" lon="1.9133">
        <ele>209.8</ele>
        <time>2012-12-29T08:19:51.000Z</time>
      </trkpt>
      <trkpt lat="44.15435" lon="1.91331">
        <ele>209.4</ele>
        <time>2012-12-29T08:19:52.000Z</time>
      </trkpt>
      <trkpt lat="44.15431" lon="1.9133">
        <ele>209.5</ele>
        <time>2012-12-29T08:19:53.000Z</time>
      </trkpt>
      <trkpt lat="44.15425" lon="1.91329">
        <ele>209.7</ele>
        <time>2012-12-29T08:19:54.000Z</time>
      </trkpt>
      <trkpt lat="44.1542" lon="1.91328">
        <ele>209.7</ele>
        <time>2012-12-29T08:19:55.000Z</time>
      </trkpt>
      <trkpt lat="44.15416" lon="1.91326">
        <ele>209.4</ele>
        <time>2012-12-29T08:19:56.000Z</time>
      </trkpt>
      <trkpt lat="44.15412" lon="1.91324">
        <ele>209.1</ele>
        <time>2012-12-29T08:19:57.000Z</time>
      </trkpt>
      <trkpt lat="44.15408" lon="1.91322">
        <ele>208.9</ele>
        <time>2012-12-29T08:19:58.000Z</time>
      </trkpt>
      <trkpt lat="44.15404" lon="1.9132">
        <ele>208.8</ele>
        <time>2012-12-29T08:19:59.000Z</time>
      </trkpt>
      <trkpt lat="44.154" lon="1.91317">
        <ele>208.5</ele>
        <time>2012-12-29T08:20:00.000Z</time>
      </trkpt>
      <trkpt lat="44.15397" lon="1.91315">
        <ele>208.5</ele>
        <time>2012-12-29T08:20:01.000Z</time>
      </trkpt>
      <trkpt lat="44.15393" lon="1.91312">
        <ele>208.5</ele>
        <time>2012-12-29T08:20:02.000Z</time>
      </trkpt>
      <trkpt lat="44.1539" lon="1.91309">
        <ele>208.8</ele>
        <time>2012-12-29T08:20:03.000Z</time>
      </trkpt>
      <trkpt lat="44.15386" lon="1.91306">
        <ele>209.1</ele>
        <time>2012-12-29T08:20:04.000Z</time>
      </trkpt>
      <trkpt lat="44.15382" lon="1.91303">
        <ele>209.1</ele>
        <time>2012-12-29T08:20:05.000Z</time>
      </trkpt>
      <trkpt lat="44.15378" lon="1.91299">
        <ele>209.3</ele>
        <time>2012-12-29T08:20:06.000Z</time>
      </trkpt>
      <trkpt lat="44.15373" lon="1.91295">
        <ele>208.8</ele>
        <time>2012-12-29T08:20:07.000Z</time>
      </trkpt>
      <trkpt lat="44.15369" lon="1.91291">
        <ele>208.7</ele>
        <time>2012-12-29T08:20:08.000Z</time>
      </trkpt>
      <trkpt lat="44.15364" lon="1.91287">
        <ele>208.7</ele>
        <time>2012-12-29T08:20:09.000Z</time>
      </trkpt>
      <trkpt lat="44.1536" lon="1.91282">
        <ele>208.7</ele>
        <time>2012-12-29T08:20:10.000Z</time>
      </trkpt>
      <trkpt lat="44.15355" lon="1.91278">
        <ele>208.7</ele>
        <time>2012-12-29T08:20:11.000Z</time>
      </trkpt>
      <trkpt lat="44.15351" lon="1.91274">
        <ele>208.7</ele>
        <time>2012-12-29T08:20:12.000Z</time>
      </trkpt>
      <trkpt lat="44.15346" lon="1.9127">
        <ele>208.7</ele>
        <time>2012-12-29T08:20:13.000Z</time>
      </trkpt>
      <trkpt lat="44.15342" lon="1.91266">
        <ele>208.5</ele>
        <time>2012-12-29T08:20:14.000Z</time>
      </trkpt>
      <trkpt lat="44.15337" lon="1.91262">
        <ele>208.5</ele>
        <time>2012-12-29T08:20:15.000Z</time>
      </trkpt>
      <trkpt lat="44.15332" lon="1.91258">
        <ele>209</ele>
        <time>2012-12-29T08:20:16.000Z</time>
      </trkpt>
      <trkpt lat="44.15327" lon="1.91254">
        <ele>208.6</ele>
        <time>2012-12-29T08:20:17.000Z</time>
      </trkpt>
      <trkpt lat="44.15323" lon="1.9125">
        <ele>208</ele>
        <time>2012-12-29T08:20:18.000Z</time>
      </trkpt>
      <trkpt lat="44.15318" lon="1.91246">
        <ele>207.6</ele>
        <time>2012-12-29T08:20:19.000Z</time>
      </trkpt>
      <trkpt lat="44.15313" lon="1.91242">
        <ele>207.4</ele>
        <time>2012-12-29T08:20:20.000Z</time>
      </trkpt>
      <trkpt lat="44.15308" lon="1.91237">
        <ele>207</ele>
        <time>2012-12-29T08:20:21.000Z</time>
      </trkpt>
      <trkpt lat="44.15303" lon="1.91232">
        <ele>206.6</ele>
        <time>2012-12-29T08:20:22.000Z</time>
      </trkpt>
      <trkpt lat="44.15298" lon="1.91227">
        <ele>206</ele>
        <time>2012-12-29T08:20:23.000Z</time>
      </trkpt>
      <trkpt lat="44.15293" lon="1.91222">
        <ele>205.3</ele>
        <time>2012-12-29T08:20:24.000Z</time>
      </trkpt>
      <trkpt lat="44.15288" lon="1.91216">
        <ele>204.7</ele>
        <time>2012-12-29T08:20:25.000Z</time>
      </trkpt>
      <trkpt lat="44.15283" lon="1.91209">
        <ele>204.3</ele>
        <time>2012-12-29T08:20:26.000Z</time>
      </trkpt>
      <trkpt lat="44.15278" lon="1.91203">
        <ele>204.4</ele>
        <time>2012-12-29T08:20:27.000Z</time>
      </trkpt>
      <trkpt lat="44.15274" lon="1.91196">
        <ele>204.5</ele>
        <time>2012-12-29T08:20:28.000Z</time>
      </trkpt>
      <trkpt lat="44.1527" lon="1.9119">
        <ele>204.4</ele>
        <time>2012-12-29T08:20:29.000Z</time>
      </trkpt>
      <trkpt lat="44.15265" lon="1.91183">
        <ele>203.8</ele>
        <time>2012-12-29T08:20:30.000Z</time>
      </trkpt>
      <trkpt lat="44.15259" lon="1.91176">
        <ele>203.3</ele>
        <time>2012-12-29T08:20:31.000Z</time>
      </trkpt>
      <trkpt lat="44.15254" lon="1.91169">
        <ele>203.1</ele>
        <time>2012-12-29T08:20:32.000Z</time>
      </trkpt>
      <trkpt lat="44.1525" lon="1.91162">
        <ele>203.3</ele>
        <time>2012-12-29T08:20:33.000Z</time>
      </trkpt>
      <trkpt lat="44.15245" lon="1.91156">
        <ele>203.2</ele>
        <time>2012-12-29T08:20:34.000Z</time>
      </trkpt>
      <trkpt lat="44.15239" lon="1.91149">
        <ele>203</ele>
        <time>2012-12-29T08:20:35.000Z</time>
      </trkpt>
      <trkpt lat="44.15234" lon="1.91142">
        <ele>202.6</ele>
        <time>2012-12-29T08:20:36.000Z</time>
      </trkpt>
      <trkpt lat="44.15229" lon="1.91136">
        <ele>202</ele>
        <time>2012-12-29T08:20:37.000Z</time>
      </trkpt>
      <trkpt lat="44.15224" lon="1.91129">
        <ele>201.3</ele>
        <time>2012-12-29T08:20:38.000Z</time>
      </trkpt>
      <trkpt lat="44.1522" lon="1.91122">
        <ele>201.1</ele>
        <time>2012-12-29T08:20:39.000Z</time>
      </trkpt>
      <trkpt lat="44.15215" lon="1.91116">
        <ele>201.1</ele>
        <time>2012-12-29T08:20:40.000Z</time>
      </trkpt>
      <trkpt lat="44.1521" lon="1.91108">
        <ele>200.5</ele>
        <time>2012-12-29T08:20:41.000Z</time>
      </trkpt>
      <trkpt lat="44.15205" lon="1.91101">
        <ele>199.7</ele>
        <time>2012-12-29T08:20:42.000Z</time>
      </trkpt>
      <trkpt lat="44.152" lon="1.91095">
        <ele>198.9</ele>
        <time>2012-12-29T08:20:43.000Z</time>
      </trkpt>
      <trkpt lat="44.15195" lon="1.91088">
        <ele>198.2</ele>
        <time>2012-12-29T08:20:44.000Z</time>
      </trkpt>
      <trkpt lat="44.15189" lon="1.9108">
        <ele>197.8</ele>
        <time>2012-12-29T08:20:45.000Z</time>
      </trkpt>
      <trkpt lat="44.15184" lon="1.91073">
        <ele>197.7</ele>
        <time>2012-12-29T08:20:46.000Z</time>
      </trkpt>
      <trkpt lat="44.15179" lon="1.91067">
        <ele>197.5</ele>
        <time>2012-12-29T08:20:47.000Z</time>
      </trkpt>
      <trkpt lat="44.15174" lon="1.91062">
        <ele>197.4</ele>
        <time>2012-12-29T08:20:48.000Z</time>
      </trkpt>
      <trkpt lat="44.1517" lon="1.91057">
        <ele>197.8</ele>
        <time>2012-12-29T08:20:49.000Z</time>
      </trkpt>
      <trkpt lat="44.15164" lon="1.91056">
        <ele>197.9</ele>
        <time>2012-12-29T08:20:50.000Z</time>
      </trkpt>
      <trkpt lat="44.15159" lon="1.91058">
        <ele>198.1</ele>
        <time>2012-12-29T08:20:51.000Z</time>
      </trkpt>
      <trkpt lat="44.15153" lon="1.9106">
        <ele>197.8</ele>
        <time>2012-12-29T08:20:52.000Z</time>
      </trkpt>
      <trkpt lat="44.15148" lon="1.91064">
        <ele>197.6</ele>
        <time>2012-12-29T08:20:53.000Z</time>
      </trkpt>
      <trkpt lat="44.15144" lon="1.91068">
        <ele>197.7</ele>
        <time>2012-12-29T08:20:54.000Z</time>
      </trkpt>
      <trkpt lat="44.1514" lon="1.91073">
        <ele>197.3</ele>
        <time>2012-12-29T08:20:55.000Z</time>
      </trkpt>
      <trkpt lat="44.15137" lon="1.91076">
        <ele>197.2</ele>
        <time>2012-12-29T08:20:56.000Z</time>
      </trkpt>
      <trkpt lat="44.15133" lon="1.91078">
        <ele>197.1</ele>
        <time>2012-12-29T08:20:57.000Z</time>
      </trkpt>
      <trkpt lat="44.15129" lon="1.91077">
        <ele>197</ele>
        <time>2012-12-29T08:20:58.000Z</time>
      </trkpt>
      <trkpt lat="44.15127" lon="1.91075">
        <ele>196.9</ele>
        <time>2012-12-29T08:20:59.000Z</time>
      </trkpt>
      <trkpt lat="44.15125" lon="1.91071">
        <ele>195.9</ele>
        <time>2012-12-29T08:21:00.000Z</time>
      </trkpt>
      <trkpt lat="44.15125" lon="1.91066">
        <ele>195.1</ele>
        <time>2012-12-29T08:21:01.000Z</time>
      </trkpt>
      <trkpt lat="44.15123" lon="1.91061">
        <ele>194.1</ele>
        <time>2012-12-29T08:21:02.000Z</time>
      </trkpt>
      <trkpt lat="44.15121" lon="1.91056">
        <ele>193.1</ele>
        <time>2012-12-29T08:21:03.000Z</time>
      </trkpt>
      <trkpt lat="44.15118" lon="1.9105">
        <ele>192.6</ele>
        <time>2012-12-29T08:21:04.000Z</time>
      </trkpt>
      <trkpt lat="44.15115" lon="1.91045">
        <ele>192</ele>
        <time>2012-12-29T08:21:05.000Z</time>
      </trkpt>
      <trkpt lat="44.15112" lon="1.91038">
        <ele>191.9</ele>
        <time>2012-12-29T08:21:06.000Z</time>
      </trkpt>
      <trkpt lat="44.15108" lon="1.91031">
        <ele>192</ele>
        <time>2012-12-29T08:21:07.000Z</time>
      </trkpt>
      <trkpt lat="44.15105" lon="1.91023">
        <ele>192.2</ele>
        <time>2012-12-29T08:21:08.000Z</time>
      </trkpt>
      <trkpt lat="44.15102" lon="1.91014">
        <ele>192.2</ele>
        <time>2012-12-29T08:21:09.000Z</time>
      </trkpt>
      <trkpt lat="44.15099" lon="1.91005">
        <ele>192.2</ele>
        <time>2012-12-29T08:21:10.000Z</time>
      </trkpt>
      <trkpt lat="44.15095" lon="1.90996">
        <ele>192</ele>
        <time>2012-12-29T08:21:11.000Z</time>
      </trkpt>
      <trkpt lat="44.15092" lon="1.90988">
        <ele>191.6</ele>
        <time>2012-12-29T08:21:12.000Z</time>
      </trkpt>
      <trkpt lat="44.1509" lon="1.90981">
        <ele>191.5</ele>
        <time>2012-12-29T08:21:13.000Z</time>
      </trkpt>
      <trkpt lat="44.15087" lon="1.90975">
        <ele>191.7</ele>
        <time>2012-12-29T08:21:14.000Z</time>
      </trkpt>
      <trkpt lat="44.15085" lon="1.9097">
        <ele>191.8</ele>
        <time>2012-12-29T08:21:16.000Z</time>
      </trkpt>
      <trkpt lat="44.15084" lon="1.9097">
        <ele>191.8</ele>
        <time>2012-12-29T08:21:17.000Z</time>
      </trkpt>
      <trkpt lat="44.1508" lon="1.90972">
        <ele>191.9</ele>
        <time>2012-12-29T08:21:18.000Z</time>
      </trkpt>
      <trkpt lat="44.15077" lon="1.90975">
        <ele>192</ele>
        <time>2012-12-29T08:21:19.000Z</time>
      </trkpt>
      <trkpt lat="44.15074" lon="1.90978">
        <ele>192.7</ele>
        <time>2012-12-29T08:21:20.000Z</time>
      </trkpt>
      <trkpt lat="44.1507" lon="1.90982">
        <ele>193.3</ele>
        <time>2012-12-29T08:21:21.000Z</time>
      </trkpt>
      <trkpt lat="44.15068" lon="1.90987">
        <ele>194</ele>
        <time>2012-12-29T08:21:22.000Z</time>
      </trkpt>
      <trkpt lat="44.15065" lon="1.90992">
        <ele>194.2</ele>
        <time>2012-12-29T08:21:23.000Z</time>
      </trkpt>
      <trkpt lat="44.15062" lon="1.90997">
        <ele>194.1</ele>
        <time>2012-12-29T08:21:24.000Z</time>
      </trkpt>
      <trkpt lat="44.15059" lon="1.91002">
        <ele>194</ele>
        <time>2012-12-29T08:21:25.000Z</time>
      </trkpt>
      <trkpt lat="44.15056" lon="1.91006">
        <ele>193.3</ele>
        <time>2012-12-29T08:21:26.000Z</time>
      </trkpt>
      <trkpt lat="44.15052" lon="1.91011">
        <ele>192.6</ele>
        <time>2012-12-29T08:21:27.000Z</time>
      </trkpt>
      <trkpt lat="44.15049" lon="1.91016">
        <ele>192.2</ele>
        <time>2012-12-29T08:21:28.000Z</time>
      </trkpt>
      <trkpt lat="44.15046" lon="1.9102">
        <ele>191.4</ele>
        <time>2012-12-29T08:21:29.000Z</time>
      </trkpt>
      <trkpt lat="44.15042" lon="1.91024">
        <ele>191.2</ele>
        <time>2012-12-29T08:21:30.000Z</time>
      </trkpt>
      <trkpt lat="44.15038" lon="1.91028">
        <ele>191.3</ele>
        <time>2012-12-29T08:21:31.000Z</time>
      </trkpt>
      <trkpt lat="44.15034" lon="1.91033">
        <ele>191.3</ele>
        <time>2012-12-29T08:21:32.000Z</time>
      </trkpt>
      <trkpt lat="44.15031" lon="1.91037">
        <ele>191</ele>
        <time>2012-12-29T08:21:33.000Z</time>
      </trkpt>
      <trkpt lat="44.15026" lon="1.91042">
        <ele>190.4</ele>
        <time>2012-12-29T08:21:34.000Z</time>
      </trkpt>
      <trkpt lat="44.15023" lon="1.91046">
        <ele>190.4</ele>
        <time>2012-12-29T08:21:35.000Z</time>
      </trkpt>
      <trkpt lat="44.1502" lon="1.9105">
        <ele>190.3</ele>
        <time>2012-12-29T08:21:36.000Z</time>
      </trkpt>
      <trkpt lat="44.15016" lon="1.91053">
        <ele>189.6</ele>
        <time>2012-12-29T08:21:37.000Z</time>
      </trkpt>
      <trkpt lat="44.15013" lon="1.91057">
        <ele>189.6</ele>
        <time>2012-12-29T08:21:38.000Z</time>
      </trkpt>
      <trkpt lat="44.1501" lon="1.9106">
        <ele>189.5</ele>
        <time>2012-12-29T08:21:39.000Z</time>
      </trkpt>
      <trkpt lat="44.15006" lon="1.91064">
        <ele>189.4</ele>
        <time>2012-12-29T08:21:40.000Z</time>
      </trkpt>
      <trkpt lat="44.15002" lon="1.91067">
        <ele>189.4</ele>
        <time>2012-12-29T08:21:41.000Z</time>
      </trkpt>
      <trkpt lat="44.14998" lon="1.91071">
        <ele>189.4</ele>
        <time>2012-12-29T08:21:42.000Z</time>
      </trkpt>
      <trkpt lat="44.14994" lon="1.91075">
        <ele>189.4</ele>
        <time>2012-12-29T08:21:43.000Z</time>
      </trkpt>
      <trkpt lat="44.14989" lon="1.91079">
        <ele>189.3</ele>
        <time>2012-12-29T08:21:44.000Z</time>
      </trkpt>
      <trkpt lat="44.14985" lon="1.91084">
        <ele>189.1</ele>
        <time>2012-12-29T08:21:45.000Z</time>
      </trkpt>
      <trkpt lat="44.14981" lon="1.91089">
        <ele>188.6</ele>
        <time>2012-12-29T08:21:46.000Z</time>
      </trkpt>
      <trkpt lat="44.14977" lon="1.91094">
        <ele>188.2</ele>
        <time>2012-12-29T08:21:47.000Z</time>
      </trkpt>
      <trkpt lat="44.14973" lon="1.91099">
        <ele>188</ele>
        <time>2012-12-29T08:21:48.000Z</time>
      </trkpt>
      <trkpt lat="44.1497" lon="1.91104">
        <ele>187.8</ele>
        <time>2012-12-29T08:21:49.000Z</time>
      </trkpt>
      <trkpt lat="44.14966" lon="1.91109">
        <ele>187.6</ele>
        <time>2012-12-29T08:21:50.000Z</time>
      </trkpt>
      <trkpt lat="44.14963" lon="1.91115">
        <ele>187.1</ele>
        <time>2012-12-29T08:21:51.000Z</time>
      </trkpt>
      <trkpt lat="44.14959" lon="1.9112">
        <ele>186.6</ele>
        <time>2012-12-29T08:21:52.000Z</time>
      </trkpt>
      <trkpt lat="44.14956" lon="1.91124">
        <ele>186</ele>
        <time>2012-12-29T08:21:53.000Z</time>
      </trkpt>
      <trkpt lat="44.14953" lon="1.91129">
        <ele>185.9</ele>
        <time>2012-12-29T08:21:54.000Z</time>
      </trkpt>
      <trkpt lat="44.1495" lon="1.91134">
        <ele>186.4</ele>
        <time>2012-12-29T08:21:55.000Z</time>
      </trkpt>
      <trkpt lat="44.14947" lon="1.91139">
        <ele>186.9</ele>
        <time>2012-12-29T08:21:56.000Z</time>
      </trkpt>
      <trkpt lat="44.14943" lon="1.91144">
        <ele>186.8</ele>
        <time>2012-12-29T08:21:57.000Z</time>
      </trkpt>
      <trkpt lat="44.1494" lon="1.9115">
        <ele>186.3</ele>
        <time>2012-12-29T08:21:58.000Z</time>
      </trkpt>
      <trkpt lat="44.14936" lon="1.91155">
        <ele>186.2</ele>
        <time>2012-12-29T08:21:59.000Z</time>
      </trkpt>
      <trkpt lat="44.14933" lon="1.9116">
        <ele>186.3</ele>
        <time>2012-12-29T08:22:00.000Z</time>
      </trkpt>
      <trkpt lat="44.14929" lon="1.91166">
        <ele>186.4</ele>
        <time>2012-12-29T08:22:01.000Z</time>
      </trkpt>
      <trkpt lat="44.14925" lon="1.91171">
        <ele>186.5</ele>
        <time>2012-12-29T08:22:02.000Z</time>
      </trkpt>
      <trkpt lat="44.14921" lon="1.91177">
        <ele>186.5</ele>
        <time>2012-12-29T08:22:03.000Z</time>
      </trkpt>
      <trkpt lat="44.14917" lon="1.91182">
        <ele>187</ele>
        <time>2012-12-29T08:22:04.000Z</time>
      </trkpt>
      <trkpt lat="44.14913" lon="1.91187">
        <ele>187.7</ele>
        <time>2012-12-29T08:22:05.000Z</time>
      </trkpt>
      <trkpt lat="44.1491" lon="1.9119">
        <ele>187.9</ele>
        <time>2012-12-29T08:22:06.000Z</time>
      </trkpt>
      <trkpt lat="44.14906" lon="1.91195">
        <ele>187.7</ele>
        <time>2012-12-29T08:22:07.000Z</time>
      </trkpt>
      <trkpt lat="44.14902" lon="1.91199">
        <ele>187.8</ele>
        <time>2012-12-29T08:22:08.000Z</time>
      </trkpt>
      <trkpt lat="44.14899" lon="1.91203">
        <ele>187.9</ele>
        <time>2012-12-29T08:22:09.000Z</time>
      </trkpt>
      <trkpt lat="44.14896" lon="1.91206">
        <ele>188.4</ele>
        <time>2012-12-29T08:22:10.000Z</time>
      </trkpt>
      <trkpt lat="44.14893" lon="1.9121">
        <ele>189.3</ele>
        <time>2012-12-29T08:22:11.000Z</time>
      </trkpt>
      <trkpt lat="44.14889" lon="1.91214">
        <ele>189.9</ele>
        <time>2012-12-29T08:22:12.000Z</time>
      </trkpt>
      <trkpt lat="44.14885" lon="1.91218">
        <ele>190.5</ele>
        <time>2012-12-29T08:22:13.000Z</time>
      </trkpt>
      <trkpt lat="44.14881" lon="1.91223">
        <ele>190.1</ele>
        <time>2012-12-29T08:22:14.000Z</time>
      </trkpt>
      <trkpt lat="44.14877" lon="1.91227">
        <ele>189.5</ele>
        <time>2012-12-29T08:22:15.000Z</time>
      </trkpt>
      <trkpt lat="44.14873" lon="1.91231">
        <ele>189.2</ele>
        <time>2012-12-29T08:22:16.000Z</time>
      </trkpt>
      <trkpt lat="44.14869" lon="1.91235">
        <ele>188.8</ele>
        <time>2012-12-29T08:22:17.000Z</time>
      </trkpt>
      <trkpt lat="44.14865" lon="1.91238">
        <ele>188.7</ele>
        <time>2012-12-29T08:22:18.000Z</time>
      </trkpt>
      <trkpt lat="44.14862" lon="1.91242">
        <ele>188.5</ele>
        <time>2012-12-29T08:22:19.000Z</time>
      </trkpt>
      <trkpt lat="44.14858" lon="1.91245">
        <ele>188.2</ele>
        <time>2012-12-29T08:22:20.000Z</time>
      </trkpt>
      <trkpt lat="44.14854" lon="1.91249">
        <ele>188</ele>
        <time>2012-12-29T08:22:21.000Z</time>
      </trkpt>
      <trkpt lat="44.1485" lon="1.91252">
        <ele>188</ele>
        <time>2012-12-29T08:22:22.000Z</time>
      </trkpt>
      <trkpt lat="44.14846" lon="1.91256">
        <ele>188.2</ele>
        <time>2012-12-29T08:22:23.000Z</time>
      </trkpt>
      <trkpt lat="44.14841" lon="1.9126">
        <ele>188.2</ele>
        <time>2012-12-29T08:22:24.000Z</time>
      </trkpt>
      <trkpt lat="44.14837" lon="1.91264">
        <ele>188.6</ele>
        <time>2012-12-29T08:22:25.000Z</time>
      </trkpt>
      <trkpt lat="44.14833" lon="1.91267">
        <ele>189</ele>
        <time>2012-12-29T08:22:26.000Z</time>
      </trkpt>
      <trkpt lat="44.14829" lon="1.91271">
        <ele>189.5</ele>
        <time>2012-12-29T08:22:27.000Z</time>
      </trkpt>
      <trkpt lat="44.14825" lon="1.91274">
        <ele>189.3</ele>
        <time>2012-12-29T08:22:28.000Z</time>
      </trkpt>
      <trkpt lat="44.14821" lon="1.91278">
        <ele>189.4</ele>
        <time>2012-12-29T08:22:29.000Z</time>
      </trkpt>
      <trkpt lat="44.14816" lon="1.91281">
        <ele>189.7</ele>
        <time>2012-12-29T08:22:30.000Z</time>
      </trkpt>
      <trkpt lat="44.14812" lon="1.91285">
        <ele>189.7</ele>
        <time>2012-12-29T08:22:31.000Z</time>
      </trkpt>
      <trkpt lat="44.14808" lon="1.91288">
        <ele>189.7</ele>
        <time>2012-12-29T08:22:32.000Z</time>
      </trkpt>
      <trkpt lat="44.14803" lon="1.91291">
        <ele>189.4</ele>
        <time>2012-12-29T08:22:33.000Z</time>
      </trkpt>
      <trkpt lat="44.148" lon="1.91293">
        <ele>189.3</ele>
        <time>2012-12-29T08:22:34.000Z</time>
      </trkpt>
      <trkpt lat="44.14795" lon="1.91295">
        <ele>189.2</ele>
        <time>2012-12-29T08:22:35.000Z</time>
      </trkpt>
      <trkpt lat="44.14791" lon="1.91297">
        <ele>188.4</ele>
        <time>2012-12-29T08:22:36.000Z</time>
      </trkpt>
      <trkpt lat="44.14787" lon="1.913">
        <ele>187.8</ele>
        <time>2012-12-29T08:22:37.000Z</time>
      </trkpt>
      <trkpt lat="44.14782" lon="1.91302">
        <ele>187.3</ele>
        <time>2012-12-29T08:22:38.000Z</time>
      </trkpt>
      <trkpt lat="44.14778" lon="1.91304">
        <ele>187.2</ele>
        <time>2012-12-29T08:22:39.000Z</time>
      </trkpt>
      <trkpt lat="44.14774" lon="1.91306">
        <ele>187.6</ele>
        <time>2012-12-29T08:22:40.000Z</time>
      </trkpt>
      <trkpt lat="44.14769" lon="1.91308">
        <ele>187.7</ele>
        <time>2012-12-29T08:22:41.000Z</time>
      </trkpt>
      <trkpt lat="44.14765" lon="1.9131">
        <ele>188.1</ele>
        <time>2012-12-29T08:22:42.000Z</time>
      </trkpt>
      <trkpt lat="44.1476" lon="1.91312">
        <ele>188</ele>
        <time>2012-12-29T08:22:43.000Z</time>
      </trkpt>
      <trkpt lat="44.14756" lon="1.91314">
        <ele>188.4</ele>
        <time>2012-12-29T08:22:44.000Z</time>
      </trkpt>
      <trkpt lat="44.14751" lon="1.91315">
        <ele>188.7</ele>
        <time>2012-12-29T08:22:45.000Z</time>
      </trkpt>
      <trkpt lat="44.14747" lon="1.91316">
        <ele>188.7</ele>
        <time>2012-12-29T08:22:46.000Z</time>
      </trkpt>
      <trkpt lat="44.14742" lon="1.91317">
        <ele>188.6</ele>
        <time>2012-12-29T08:22:47.000Z</time>
      </trkpt>
      <trkpt lat="44.14737" lon="1.91319">
        <ele>188.3</ele>
        <time>2012-12-29T08:22:48.000Z</time>
      </trkpt>
      <trkpt lat="44.14732" lon="1.9132">
        <ele>188.2</ele>
        <time>2012-12-29T08:22:49.000Z</time>
      </trkpt>
      <trkpt lat="44.14727" lon="1.91323">
        <ele>187.8</ele>
        <time>2012-12-29T08:22:50.000Z</time>
      </trkpt>
      <trkpt lat="44.14722" lon="1.91326">
        <ele>187.8</ele>
        <time>2012-12-29T08:22:51.000Z</time>
      </trkpt>
      <trkpt lat="44.14717" lon="1.91329">
        <ele>187.9</ele>
        <time>2012-12-29T08:22:52.000Z</time>
      </trkpt>
      <trkpt lat="44.14713" lon="1.91331">
        <ele>188.3</ele>
        <time>2012-12-29T08:22:53.000Z</time>
      </trkpt>
      <trkpt lat="44.14709" lon="1.91334">
        <ele>188.4</ele>
        <time>2012-12-29T08:22:54.000Z</time>
      </trkpt>
      <trkpt lat="44.14705" lon="1.91337">
        <ele>188.6</ele>
        <time>2012-12-29T08:22:55.000Z</time>
      </trkpt>
      <trkpt lat="44.14701" lon="1.91341">
        <ele>188.9</ele>
        <time>2012-12-29T08:22:56.000Z</time>
      </trkpt>
      <trkpt lat="44.14697" lon="1.91344">
        <ele>189</ele>
        <time>2012-12-29T08:22:57.000Z</time>
      </trkpt>
      <trkpt lat="44.14693" lon="1.91348">
        <ele>188.9</ele>
        <time>2012-12-29T08:22:58.000Z</time>
      </trkpt>
      <trkpt lat="44.1469" lon="1.91351">
        <ele>188.8</ele>
        <time>2012-12-29T08:22:59.000Z</time>
      </trkpt>
      <trkpt lat="44.14686" lon="1.91355">
        <ele>188.5</ele>
        <time>2012-12-29T08:23:00.000Z</time>
      </trkpt>
      <trkpt lat="44.14682" lon="1.9136">
        <ele>188.4</ele>
        <time>2012-12-29T08:23:01.000Z</time>
      </trkpt>
      <trkpt lat="44.14677" lon="1.91366">
        <ele>188.1</ele>
        <time>2012-12-29T08:23:02.000Z</time>
      </trkpt>
      <trkpt lat="44.14673" lon="1.9137">
        <ele>187.8</ele>
        <time>2012-12-29T08:23:03.000Z</time>
      </trkpt>
      <trkpt lat="44.14669" lon="1.91375">
        <ele>187.5</ele>
        <time>2012-12-29T08:23:04.000Z</time>
      </trkpt>
      <trkpt lat="44.14665" lon="1.9138">
        <ele>187.2</ele>
        <time>2012-12-29T08:23:05.000Z</time>
      </trkpt>
      <trkpt lat="44.14661" lon="1.91384">
        <ele>186.8</ele>
        <time>2012-12-29T08:23:06.000Z</time>
      </trkpt>
      <trkpt lat="44.14657" lon="1.91388">
        <ele>186.8</ele>
        <time>2012-12-29T08:23:07.000Z</time>
      </trkpt>
      <trkpt lat="44.14653" lon="1.91392">
        <ele>187.3</ele>
        <time>2012-12-29T08:23:08.000Z</time>
      </trkpt>
      <trkpt lat="44.1465" lon="1.91395">
        <ele>187.7</ele>
        <time>2012-12-29T08:23:09.000Z</time>
      </trkpt>
      <trkpt lat="44.14646" lon="1.91399">
        <ele>188.5</ele>
        <time>2012-12-29T08:23:10.000Z</time>
      </trkpt>
      <trkpt lat="44.14641" lon="1.91403">
        <ele>188.7</ele>
        <time>2012-12-29T08:23:11.000Z</time>
      </trkpt>
      <trkpt lat="44.14637" lon="1.91407">
        <ele>188.5</ele>
        <time>2012-12-29T08:23:12.000Z</time>
      </trkpt>
      <trkpt lat="44.14633" lon="1.9141">
        <ele>188.2</ele>
        <time>2012-12-29T08:23:13.000Z</time>
      </trkpt>
      <trkpt lat="44.14629" lon="1.91414">
        <ele>187.6</ele>
        <time>2012-12-29T08:23:14.000Z</time>
      </trkpt>
      <trkpt lat="44.14626" lon="1.91418">
        <ele>186.7</ele>
        <time>2012-12-29T08:23:15.000Z</time>
      </trkpt>
      <trkpt lat="44.14622" lon="1.91422">
        <ele>185.5</ele>
        <time>2012-12-29T08:23:16.000Z</time>
      </trkpt>
      <trkpt lat="44.14618" lon="1.91426">
        <ele>185.2</ele>
        <time>2012-12-29T08:23:17.000Z</time>
      </trkpt>
      <trkpt lat="44.14614" lon="1.9143">
        <ele>185.4</ele>
        <time>2012-12-29T08:23:18.000Z</time>
      </trkpt>
      <trkpt lat="44.1461" lon="1.91433">
        <ele>185.8</ele>
        <time>2012-12-29T08:23:19.000Z</time>
      </trkpt>
      <trkpt lat="44.14606" lon="1.91437">
        <ele>186.5</ele>
        <time>2012-12-29T08:23:20.000Z</time>
      </trkpt>
      <trkpt lat="44.14603" lon="1.91441">
        <ele>186.8</ele>
        <time>2012-12-29T08:23:21.000Z</time>
      </trkpt>
      <trkpt lat="44.14599" lon="1.91445">
        <ele>187</ele>
        <time>2012-12-29T08:23:22.000Z</time>
      </trkpt>
      <trkpt lat="44.14595" lon="1.91448">
        <ele>187.1</ele>
        <time>2012-12-29T08:23:23.000Z</time>
      </trkpt>
      <trkpt lat="44.14591" lon="1.91451">
        <ele>187.4</ele>
        <time>2012-12-29T08:23:24.000Z</time>
      </trkpt>
      <trkpt lat="44.14587" lon="1.91455">
        <ele>187.9</ele>
        <time>2012-12-29T08:23:25.000Z</time>
      </trkpt>
      <trkpt lat="44.14583" lon="1.91458">
        <ele>188.3</ele>
        <time>2012-12-29T08:23:26.000Z</time>
      </trkpt>
      <trkpt lat="44.14579" lon="1.91461">
        <ele>188.7</ele>
        <time>2012-12-29T08:23:27.000Z</time>
      </trkpt>
      <trkpt lat="44.14575" lon="1.91465">
        <ele>188.8</ele>
        <time>2012-12-29T08:23:28.000Z</time>
      </trkpt>
      <trkpt lat="44.14571" lon="1.91469">
        <ele>188.4</ele>
        <time>2012-12-29T08:23:29.000Z</time>
      </trkpt>
      <trkpt lat="44.14566" lon="1.91472">
        <ele>188</ele>
        <time>2012-12-29T08:23:30.000Z</time>
      </trkpt>
      <trkpt lat="44.14562" lon="1.91475">
        <ele>187.4</ele>
        <time>2012-12-29T08:23:31.000Z</time>
      </trkpt>
      <trkpt lat="44.14557" lon="1.91478">
        <ele>186.8</ele>
        <time>2012-12-29T08:23:32.000Z</time>
      </trkpt>
      <trkpt lat="44.14553" lon="1.91481">
        <ele>186.3</ele>
        <time>2012-12-29T08:23:33.000Z</time>
      </trkpt>
      <trkpt lat="44.14548" lon="1.91485">
        <ele>185.6</ele>
        <time>2012-12-29T08:23:34.000Z</time>
      </trkpt>
      <trkpt lat="44.14543" lon="1.91488">
        <ele>185.4</ele>
        <time>2012-12-29T08:23:35.000Z</time>
      </trkpt>
      <trkpt lat="44.14539" lon="1.9149">
        <ele>185.8</ele>
        <time>2012-12-29T08:23:36.000Z</time>
      </trkpt>
      <trkpt lat="44.14535" lon="1.91494">
        <ele>186.4</ele>
        <time>2012-12-29T08:23:37.000Z</time>
      </trkpt>
      <trkpt lat="44.1453" lon="1.91497">
        <ele>187.2</ele>
        <time>2012-12-29T08:23:38.000Z</time>
      </trkpt>
      <trkpt lat="44.14526" lon="1.915">
        <ele>187.7</ele>
        <time>2012-12-29T08:23:39.000Z</time>
      </trkpt>
      <trkpt lat="44.14522" lon="1.91503">
        <ele>188.1</ele>
        <time>2012-12-29T08:23:40.000Z</time>
      </trkpt>
      <trkpt lat="44.14518" lon="1.91507">
        <ele>188.2</ele>
        <time>2012-12-29T08:23:41.000Z</time>
      </trkpt>
      <trkpt lat="44.14515" lon="1.91511">
        <ele>188.1</ele>
        <time>2012-12-29T08:23:42.000Z</time>
      </trkpt>
      <trkpt lat="44.14511" lon="1.91515">
        <ele>187.8</ele>
        <time>2012-12-29T08:23:43.000Z</time>
      </trkpt>
      <trkpt lat="44.14507" lon="1.91519">
        <ele>187.8</ele>
        <time>2012-12-29T08:23:44.000Z</time>
      </trkpt>
      <trkpt lat="44.14503" lon="1.91524">
        <ele>188.1</ele>
        <time>2012-12-29T08:23:45.000Z</time>
      </trkpt>
      <trkpt lat="44.14499" lon="1.91528">
        <ele>188.3</ele>
        <time>2012-12-29T08:23:46.000Z</time>
      </trkpt>
      <trkpt lat="44.14496" lon="1.91533">
        <ele>188.5</ele>
        <time>2012-12-29T08:23:47.000Z</time>
      </trkpt>
      <trkpt lat="44.14492" lon="1.91538">
        <ele>188.4</ele>
        <time>2012-12-29T08:23:48.000Z</time>
      </trkpt>
      <trkpt lat="44.14488" lon="1.91543">
        <ele>188.3</ele>
        <time>2012-12-29T08:23:49.000Z</time>
      </trkpt>
      <trkpt lat="44.14485" lon="1.91547">
        <ele>188.3</ele>
        <time>2012-12-29T08:23:50.000Z</time>
      </trkpt>
      <trkpt lat="44.14482" lon="1.91552">
        <ele>188.3</ele>
        <time>2012-12-29T08:23:51.000Z</time>
      </trkpt>
      <trkpt lat="44.14479" lon="1.91556">
        <ele>188.3</ele>
        <time>2012-12-29T08:23:52.000Z</time>
      </trkpt>
      <trkpt lat="44.14475" lon="1.91561">
        <ele>188.5</ele>
        <time>2012-12-29T08:23:53.000Z</time>
      </trkpt>
      <trkpt lat="44.14472" lon="1.91566">
        <ele>188.6</ele>
        <time>2012-12-29T08:23:54.000Z</time>
      </trkpt>
      <trkpt lat="44.14468" lon="1.91571">
        <ele>188.6</ele>
        <time>2012-12-29T08:23:55.000Z</time>
      </trkpt>
      <trkpt lat="44.14465" lon="1.91576">
        <ele>188.5</ele>
        <time>2012-12-29T08:23:56.000Z</time>
      </trkpt>
      <trkpt lat="44.14461" lon="1.91581">
        <ele>188</ele>
        <time>2012-12-29T08:23:57.000Z</time>
      </trkpt>
      <trkpt lat="44.14458" lon="1.91586">
        <ele>187.3</ele>
        <time>2012-12-29T08:23:58.000Z</time>
      </trkpt>
      <trkpt lat="44.14454" lon="1.9159">
        <ele>186.8</ele>
        <time>2012-12-29T08:23:59.000Z</time>
      </trkpt>
      <trkpt lat="44.1445" lon="1.91595">
        <ele>186.5</ele>
        <time>2012-12-29T08:24:00.000Z</time>
      </trkpt>
      <trkpt lat="44.14446" lon="1.916">
        <ele>186.6</ele>
        <time>2012-12-29T08:24:01.000Z</time>
      </trkpt>
      <trkpt lat="44.14443" lon="1.91604">
        <ele>186.9</ele>
        <time>2012-12-29T08:24:02.000Z</time>
      </trkpt>
      <trkpt lat="44.14439" lon="1.91609">
        <ele>186.9</ele>
        <time>2012-12-29T08:24:03.000Z</time>
      </trkpt>
      <trkpt lat="44.14436" lon="1.91613">
        <ele>186.9</ele>
        <time>2012-12-29T08:24:04.000Z</time>
      </trkpt>
      <trkpt lat="44.14432" lon="1.91617">
        <ele>186.7</ele>
        <time>2012-12-29T08:24:05.000Z</time>
      </trkpt>
      <trkpt lat="44.14429" lon="1.91621">
        <ele>186.7</ele>
        <time>2012-12-29T08:24:06.000Z</time>
      </trkpt>
      <trkpt lat="44.14425" lon="1.91626">
        <ele>186.7</ele>
        <time>2012-12-29T08:24:07.000Z</time>
      </trkpt>
      <trkpt lat="44.14422" lon="1.91631">
        <ele>186.7</ele>
        <time>2012-12-29T08:24:08.000Z</time>
      </trkpt>
      <trkpt lat="44.14418" lon="1.91636">
        <ele>187</ele>
        <time>2012-12-29T08:24:09.000Z</time>
      </trkpt>
      <trkpt lat="44.14415" lon="1.9164">
        <ele>187.3</ele>
        <time>2012-12-29T08:24:10.000Z</time>
      </trkpt>
      <trkpt lat="44.14412" lon="1.91644">
        <ele>187.5</ele>
        <time>2012-12-29T08:24:11.000Z</time>
      </trkpt>
      <trkpt lat="44.14408" lon="1.91649">
        <ele>187.5</ele>
        <time>2012-12-29T08:24:12.000Z</time>
      </trkpt>
      <trkpt lat="44.14405" lon="1.91654">
        <ele>187.5</ele>
        <time>2012-12-29T08:24:13.000Z</time>
      </trkpt>
      <trkpt lat="44.14402" lon="1.91659">
        <ele>187.6</ele>
        <time>2012-12-29T08:24:14.000Z</time>
      </trkpt>
      <trkpt lat="44.14399" lon="1.91664">
        <ele>187.9</ele>
        <time>2012-12-29T08:24:15.000Z</time>
      </trkpt>
      <trkpt lat="44.14396" lon="1.91669">
        <ele>188.2</ele>
        <time>2012-12-29T08:24:16.000Z</time>
      </trkpt>
      <trkpt lat="44.14393" lon="1.91674">
        <ele>188.5</ele>
        <time>2012-12-29T08:24:17.000Z</time>
      </trkpt>
      <trkpt lat="44.1439" lon="1.91679">
        <ele>188.6</ele>
        <time>2012-12-29T08:24:18.000Z</time>
      </trkpt>
      <trkpt lat="44.14388" lon="1.91684">
        <ele>188.6</ele>
        <time>2012-12-29T08:24:19.000Z</time>
      </trkpt>
      <trkpt lat="44.14385" lon="1.91688">
        <ele>188.5</ele>
        <time>2012-12-29T08:24:20.000Z</time>
      </trkpt>
      <trkpt lat="44.14383" lon="1.91693">
        <ele>188.3</ele>
        <time>2012-12-29T08:24:21.000Z</time>
      </trkpt>
      <trkpt lat="44.1438" lon="1.91698">
        <ele>188.3</ele>
        <time>2012-12-29T08:24:22.000Z</time>
      </trkpt>
      <trkpt lat="44.14378" lon="1.91704">
        <ele>187.5</ele>
        <time>2012-12-29T08:24:23.000Z</time>
      </trkpt>
      <trkpt lat="44.14375" lon="1.91709">
        <ele>186.6</ele>
        <time>2012-12-29T08:24:24.000Z</time>
      </trkpt>
      <trkpt lat="44.14372" lon="1.91715">
        <ele>186.2</ele>
        <time>2012-12-29T08:24:25.000Z</time>
      </trkpt>
      <trkpt lat="44.14369" lon="1.9172">
        <ele>185.9</ele>
        <time>2012-12-29T08:24:26.000Z</time>
      </trkpt>
      <trkpt lat="44.14366" lon="1.91726">
        <ele>185.7</ele>
        <time>2012-12-29T08:24:27.000Z</time>
      </trkpt>
      <trkpt lat="44.14363" lon="1.91732">
        <ele>185.6</ele>
        <time>2012-12-29T08:24:28.000Z</time>
      </trkpt>
      <trkpt lat="44.14359" lon="1.91739">
        <ele>185.1</ele>
        <time>2012-12-29T08:24:29.000Z</time>
      </trkpt>
      <trkpt lat="44.14357" lon="1.91744">
        <ele>185.2</ele>
        <time>2012-12-29T08:24:30.000Z</time>
      </trkpt>
      <trkpt lat="44.14354" lon="1.9175">
        <ele>185.8</ele>
        <time>2012-12-29T08:24:31.000Z</time>
      </trkpt>
      <trkpt lat="44.14352" lon="1.91756">
        <ele>186.2</ele>
        <time>2012-12-29T08:24:32.000Z</time>
      </trkpt>
      <trkpt lat="44.14349" lon="1.91761">
        <ele>186.6</ele>
        <time>2012-12-29T08:24:33.000Z</time>
      </trkpt>
      <trkpt lat="44.14347" lon="1.91767">
        <ele>186.9</ele>
        <time>2012-12-29T08:24:34.000Z</time>
      </trkpt>
      <trkpt lat="44.14344" lon="1.91772">
        <ele>187.2</ele>
        <time>2012-12-29T08:24:35.000Z</time>
      </trkpt>
      <trkpt lat="44.14342" lon="1.91777">
        <ele>187.1</ele>
        <time>2012-12-29T08:24:36.000Z</time>
      </trkpt>
      <trkpt lat="44.1434" lon="1.91782">
        <ele>186.8</ele>
        <time>2012-12-29T08:24:37.000Z</time>
      </trkpt>
      <trkpt lat="44.14338" lon="1.91788">
        <ele>185.7</ele>
        <time>2012-12-29T08:24:38.000Z</time>
      </trkpt>
      <trkpt lat="44.14336" lon="1.91793">
        <ele>185.3</ele>
        <time>2012-12-29T08:24:39.000Z</time>
      </trkpt>
      <trkpt lat="44.14335" lon="1.91798">
        <ele>184.8</ele>
        <time>2012-12-29T08:24:40.000Z</time>
      </trkpt>
      <trkpt lat="44.14333" lon="1.91804">
        <ele>184.2</ele>
        <time>2012-12-29T08:24:41.000Z</time>
      </trkpt>
      <trkpt lat="44.14331" lon="1.9181">
        <ele>183.9</ele>
        <time>2012-12-29T08:24:42.000Z</time>
      </trkpt>
      <trkpt lat="44.14329" lon="1.91816">
        <ele>184</ele>
        <time>2012-12-29T08:24:43.000Z</time>
      </trkpt>
      <trkpt lat="44.14328" lon="1.91821">
        <ele>183.9</ele>
        <time>2012-12-29T08:24:44.000Z</time>
      </trkpt>
      <trkpt lat="44.14326" lon="1.91827">
        <ele>184</ele>
        <time>2012-12-29T08:24:45.000Z</time>
      </trkpt>
      <trkpt lat="44.14324" lon="1.91834">
        <ele>184.7</ele>
        <time>2012-12-29T08:24:46.000Z</time>
      </trkpt>
      <trkpt lat="44.14322" lon="1.9184">
        <ele>185.5</ele>
        <time>2012-12-29T08:24:47.000Z</time>
      </trkpt>
      <trkpt lat="44.1432" lon="1.91847">
        <ele>186</ele>
        <time>2012-12-29T08:24:48.000Z</time>
      </trkpt>
      <trkpt lat="44.14317" lon="1.91853">
        <ele>186.3</ele>
        <time>2012-12-29T08:24:49.000Z</time>
      </trkpt>
      <trkpt lat="44.14315" lon="1.91859">
        <ele>186.6</ele>
        <time>2012-12-29T08:24:50.000Z</time>
      </trkpt>
      <trkpt lat="44.14313" lon="1.91865">
        <ele>187.3</ele>
        <time>2012-12-29T08:24:51.000Z</time>
      </trkpt>
      <trkpt lat="44.14311" lon="1.9187">
        <ele>187.8</ele>
        <time>2012-12-29T08:24:52.000Z</time>
      </trkpt>
      <trkpt lat="44.14309" lon="1.91874">
        <ele>188.6</ele>
        <time>2012-12-29T08:24:53.000Z</time>
      </trkpt>
      <trkpt lat="44.14307" lon="1.91879">
        <ele>189.1</ele>
        <time>2012-12-29T08:24:54.000Z</time>
      </trkpt>
      <trkpt lat="44.14305" lon="1.91884">
        <ele>189.3</ele>
        <time>2012-12-29T08:24:55.000Z</time>
      </trkpt>
      <trkpt lat="44.14302" lon="1.9189">
        <ele>189.5</ele>
        <time>2012-12-29T08:24:56.000Z</time>
      </trkpt>
      <trkpt lat="44.14299" lon="1.91896">
        <ele>190.1</ele>
        <time>2012-12-29T08:24:57.000Z</time>
      </trkpt>
      <trkpt lat="44.14296" lon="1.91901">
        <ele>190.6</ele>
        <time>2012-12-29T08:24:58.000Z</time>
      </trkpt>
      <trkpt lat="44.14294" lon="1.91905">
        <ele>190.7</ele>
        <time>2012-12-29T08:24:59.000Z</time>
      </trkpt>
      <trkpt lat="44.1429" lon="1.9191">
        <ele>190.7</ele>
        <time>2012-12-29T08:25:00.000Z</time>
      </trkpt>
      <trkpt lat="44.14286" lon="1.91915">
        <ele>190.6</ele>
        <time>2012-12-29T08:25:01.000Z</time>
      </trkpt>
      <trkpt lat="44.14282" lon="1.9192">
        <ele>190.2</ele>
        <time>2012-12-29T08:25:02.000Z</time>
      </trkpt>
      <trkpt lat="44.14278" lon="1.91925">
        <ele>189.9</ele>
        <time>2012-12-29T08:25:03.000Z</time>
      </trkpt>
      <trkpt lat="44.14274" lon="1.91929">
        <ele>189.9</ele>
        <time>2012-12-29T08:25:04.000Z</time>
      </trkpt>
      <trkpt lat="44.14271" lon="1.91933">
        <ele>189.8</ele>
        <time>2012-12-29T08:25:05.000Z</time>
      </trkpt>
      <trkpt lat="44.14267" lon="1.91936">
        <ele>190</ele>
        <time>2012-12-29T08:25:06.000Z</time>
      </trkpt>
      <trkpt lat="44.14263" lon="1.91941">
        <ele>190.3</ele>
        <time>2012-12-29T08:25:07.000Z</time>
      </trkpt>
      <trkpt lat="44.14259" lon="1.91945">
        <ele>190.4</ele>
        <time>2012-12-29T08:25:08.000Z</time>
      </trkpt>
      <trkpt lat="44.14255" lon="1.91949">
        <ele>190.5</ele>
        <time>2012-12-29T08:25:09.000Z</time>
      </trkpt>
      <trkpt lat="44.14251" lon="1.91952">
        <ele>190.4</ele>
        <time>2012-12-29T08:25:10.000Z</time>
      </trkpt>
      <trkpt lat="44.14247" lon="1.91956">
        <ele>190.5</ele>
        <time>2012-12-29T08:25:11.000Z</time>
      </trkpt>
      <trkpt lat="44.14243" lon="1.91959">
        <ele>190.5</ele>
        <time>2012-12-29T08:25:12.000Z</time>
      </trkpt>
      <trkpt lat="44.14239" lon="1.91962">
        <ele>190.5</ele>
        <time>2012-12-29T08:25:13.000Z</time>
      </trkpt>
      <trkpt lat="44.14235" lon="1.91966">
        <ele>190.1</ele>
        <time>2012-12-29T08:25:14.000Z</time>
      </trkpt>
      <trkpt lat="44.1423" lon="1.91969">
        <ele>190</ele>
        <time>2012-12-29T08:25:15.000Z</time>
      </trkpt>
      <trkpt lat="44.14226" lon="1.91973">
        <ele>190.1</ele>
        <time>2012-12-29T08:25:16.000Z</time>
      </trkpt>
      <trkpt lat="44.14222" lon="1.91975">
        <ele>190</ele>
        <time>2012-12-29T08:25:17.000Z</time>
      </trkpt>
      <trkpt lat="44.14217" lon="1.91977">
        <ele>190</ele>
        <time>2012-12-29T08:25:18.000Z</time>
      </trkpt>
      <trkpt lat="44.14213" lon="1.91979">
        <ele>190</ele>
        <time>2012-12-29T08:25:19.000Z</time>
      </trkpt>
      <trkpt lat="44.14209" lon="1.91981">
        <ele>190</ele>
        <time>2012-12-29T08:25:20.000Z</time>
      </trkpt>
      <trkpt lat="44.14206" lon="1.91982">
        <ele>189.9</ele>
        <time>2012-12-29T08:25:21.000Z</time>
      </trkpt>
      <trkpt lat="44.14201" lon="1.91984">
        <ele>189.3</ele>
        <time>2012-12-29T08:25:22.000Z</time>
      </trkpt>
      <trkpt lat="44.14196" lon="1.91986">
        <ele>188.8</ele>
        <time>2012-12-29T08:25:23.000Z</time>
      </trkpt>
      <trkpt lat="44.14191" lon="1.91987">
        <ele>188.5</ele>
        <time>2012-12-29T08:25:24.000Z</time>
      </trkpt>
      <trkpt lat="44.14186" lon="1.91989">
        <ele>188.6</ele>
        <time>2012-12-29T08:25:25.000Z</time>
      </trkpt>
      <trkpt lat="44.14181" lon="1.91991">
        <ele>188.3</ele>
        <time>2012-12-29T08:25:26.000Z</time>
      </trkpt>
      <trkpt lat="44.14177" lon="1.91992">
        <ele>188.1</ele>
        <time>2012-12-29T08:25:27.000Z</time>
      </trkpt>
      <trkpt lat="44.14172" lon="1.91993">
        <ele>187.9</ele>
        <time>2012-12-29T08:25:28.000Z</time>
      </trkpt>
      <trkpt lat="44.14167" lon="1.91994">
        <ele>187.5</ele>
        <time>2012-12-29T08:25:29.000Z</time>
      </trkpt>
      <trkpt lat="44.14163" lon="1.91995">
        <ele>187.4</ele>
        <time>2012-12-29T08:25:30.000Z</time>
      </trkpt>
      <trkpt lat="44.14158" lon="1.91996">
        <ele>187.6</ele>
        <time>2012-12-29T08:25:31.000Z</time>
      </trkpt>
      <trkpt lat="44.14153" lon="1.91996">
        <ele>187.5</ele>
        <time>2012-12-29T08:25:32.000Z</time>
      </trkpt>
      <trkpt lat="44.14148" lon="1.91997">
        <ele>187.4</ele>
        <time>2012-12-29T08:25:33.000Z</time>
      </trkpt>
      <trkpt lat="44.14144" lon="1.91996">
        <ele>187.5</ele>
        <time>2012-12-29T08:25:34.000Z</time>
      </trkpt>
      <trkpt lat="44.14139" lon="1.91996">
        <ele>188</ele>
        <time>2012-12-29T08:25:35.000Z</time>
      </trkpt>
      <trkpt lat="44.14134" lon="1.91996">
        <ele>188.4</ele>
        <time>2012-12-29T08:25:36.000Z</time>
      </trkpt>
      <trkpt lat="44.14128" lon="1.91995">
        <ele>188.3</ele>
        <time>2012-12-29T08:25:37.000Z</time>
      </trkpt>
      <trkpt lat="44.14122" lon="1.91995">
        <ele>188.6</ele>
        <time>2012-12-29T08:25:38.000Z</time>
      </trkpt>
      <trkpt lat="44.14116" lon="1.91994">
        <ele>188.6</ele>
        <time>2012-12-29T08:25:39.000Z</time>
      </trkpt>
      <trkpt lat="44.1411" lon="1.91994">
        <ele>188.5</ele>
        <time>2012-12-29T08:25:40.000Z</time>
      </trkpt>
      <trkpt lat="44.14104" lon="1.91993">
        <ele>188.2</ele>
        <time>2012-12-29T08:25:41.000Z</time>
      </trkpt>
      <trkpt lat="44.14098" lon="1.91991">
        <ele>188.2</ele>
        <time>2012-12-29T08:25:42.000Z</time>
      </trkpt>
      <trkpt lat="44.14093" lon="1.91987">
        <ele>188.2</ele>
        <time>2012-12-29T08:25:43.000Z</time>
      </trkpt>
      <trkpt lat="44.14088" lon="1.91983">
        <ele>188</ele>
        <time>2012-12-29T08:25:44.000Z</time>
      </trkpt>
      <trkpt lat="44.14083" lon="1.91978">
        <ele>187.9</ele>
        <time>2012-12-29T08:25:45.000Z</time>
      </trkpt>
      <trkpt lat="44.14079" lon="1.91974">
        <ele>187.9</ele>
        <time>2012-12-29T08:25:46.000Z</time>
      </trkpt>
      <trkpt lat="44.14076" lon="1.9197">
        <ele>187.9</ele>
        <time>2012-12-29T08:25:47.000Z</time>
      </trkpt>
      <trkpt lat="44.14072" lon="1.91967">
        <ele>187.1</ele>
        <time>2012-12-29T08:25:48.000Z</time>
      </trkpt>
      <trkpt lat="44.14069" lon="1.91964">
        <ele>186</ele>
        <time>2012-12-29T08:25:49.000Z</time>
      </trkpt>
      <trkpt lat="44.14065" lon="1.9196">
        <ele>185.3</ele>
        <time>2012-12-29T08:25:50.000Z</time>
      </trkpt>
      <trkpt lat="44.14061" lon="1.91957">
        <ele>185.1</ele>
        <time>2012-12-29T08:25:51.000Z</time>
      </trkpt>
      <trkpt lat="44.14057" lon="1.91953">
        <ele>184.6</ele>
        <time>2012-12-29T08:25:52.000Z</time>
      </trkpt>
      <trkpt lat="44.14052" lon="1.91949">
        <ele>184.3</ele>
        <time>2012-12-29T08:25:53.000Z</time>
      </trkpt>
      <trkpt lat="44.14048" lon="1.91945">
        <ele>183.9</ele>
        <time>2012-12-29T08:25:54.000Z</time>
      </trkpt>
      <trkpt lat="44.14044" lon="1.91941">
        <ele>183.6</ele>
        <time>2012-12-29T08:25:55.000Z</time>
      </trkpt>
      <trkpt lat="44.1404" lon="1.91938">
        <ele>183.4</ele>
        <time>2012-12-29T08:25:56.000Z</time>
      </trkpt>
      <trkpt lat="44.14036" lon="1.91934">
        <ele>183.3</ele>
        <time>2012-12-29T08:25:57.000Z</time>
      </trkpt>
      <trkpt lat="44.14033" lon="1.91931">
        <ele>183.1</ele>
        <time>2012-12-29T08:25:58.000Z</time>
      </trkpt>
      <trkpt lat="44.14029" lon="1.91927">
        <ele>183.1</ele>
        <time>2012-12-29T08:25:59.000Z</time>
      </trkpt>
      <trkpt lat="44.14026" lon="1.91924">
        <ele>183.1</ele>
        <time>2012-12-29T08:26:00.000Z</time>
      </trkpt>
      <trkpt lat="44.14023" lon="1.91921">
        <ele>183.1</ele>
        <time>2012-12-29T08:26:01.000Z</time>
      </trkpt>
      <trkpt lat="44.14019" lon="1.91917">
        <ele>182.3</ele>
        <time>2012-12-29T08:26:02.000Z</time>
      </trkpt>
      <trkpt lat="44.14015" lon="1.91912">
        <ele>182.3</ele>
        <time>2012-12-29T08:26:03.000Z</time>
      </trkpt>
      <trkpt lat="44.14012" lon="1.91908">
        <ele>182.3</ele>
        <time>2012-12-29T08:26:04.000Z</time>
      </trkpt>
      <trkpt lat="44.14008" lon="1.91904">
        <ele>182.3</ele>
        <time>2012-12-29T08:26:05.000Z</time>
      </trkpt>
      <trkpt lat="44.14004" lon="1.91901">
        <ele>182.2</ele>
        <time>2012-12-29T08:26:06.000Z</time>
      </trkpt>
      <trkpt lat="44.14" lon="1.91897">
        <ele>182.2</ele>
        <time>2012-12-29T08:26:07.000Z</time>
      </trkpt>
      <trkpt lat="44.13996" lon="1.91894">
        <ele>182.2</ele>
        <time>2012-12-29T08:26:08.000Z</time>
      </trkpt>
      <trkpt lat="44.13994" lon="1.91891">
        <ele>182.1</ele>
        <time>2012-12-29T08:26:09.000Z</time>
      </trkpt>
      <trkpt lat="44.13991" lon="1.91888">
        <ele>182</ele>
        <time>2012-12-29T08:26:10.000Z</time>
      </trkpt>
      <trkpt lat="44.13988" lon="1.91885">
        <ele>182</ele>
        <time>2012-12-29T08:26:11.000Z</time>
      </trkpt>
      <trkpt lat="44.13984" lon="1.91881">
        <ele>182</ele>
        <time>2012-12-29T08:26:12.000Z</time>
      </trkpt>
      <trkpt lat="44.13981" lon="1.91879">
        <ele>182</ele>
        <time>2012-12-29T08:26:13.000Z</time>
      </trkpt>
      <trkpt lat="44.13978" lon="1.91877">
        <ele>182.1</ele>
        <time>2012-12-29T08:26:14.000Z</time>
      </trkpt>
      <trkpt lat="44.13975" lon="1.91874">
        <ele>182.1</ele>
        <time>2012-12-29T08:26:15.000Z</time>
      </trkpt>
      <trkpt lat="44.13972" lon="1.91872">
        <ele>182.1</ele>
        <time>2012-12-29T08:26:16.000Z</time>
      </trkpt>
      <trkpt lat="44.13969" lon="1.91871">
        <ele>182.2</ele>
        <time>2012-12-29T08:26:17.000Z</time>
      </trkpt>
      <trkpt lat="44.13966" lon="1.91869">
        <ele>182.3</ele>
        <time>2012-12-29T08:26:18.000Z</time>
      </trkpt>
      <trkpt lat="44.13963" lon="1.91868">
        <ele>182.3</ele>
        <time>2012-12-29T08:26:19.000Z</time>
      </trkpt>
      <trkpt lat="44.1396" lon="1.91866">
        <ele>182.3</ele>
        <time>2012-12-29T08:26:20.000Z</time>
      </trkpt>
      <trkpt lat="44.13956" lon="1.91865">
        <ele>182.3</ele>
        <time>2012-12-29T08:26:21.000Z</time>
      </trkpt>
      <trkpt lat="44.13952" lon="1.91864">
        <ele>182.4</ele>
        <time>2012-12-29T08:26:22.000Z</time>
      </trkpt>
      <trkpt lat="44.13947" lon="1.91862">
        <ele>182.5</ele>
        <time>2012-12-29T08:26:23.000Z</time>
      </trkpt>
      <trkpt lat="44.13943" lon="1.91861">
        <ele>182.6</ele>
        <time>2012-12-29T08:26:24.000Z</time>
      </trkpt>
      <trkpt lat="44.13939" lon="1.9186">
        <ele>183.2</ele>
        <time>2012-12-29T08:26:25.000Z</time>
      </trkpt>
      <trkpt lat="44.13934" lon="1.91859">
        <ele>183</ele>
        <time>2012-12-29T08:26:26.000Z</time>
      </trkpt>
      <trkpt lat="44.1393" lon="1.91858">
        <ele>183</ele>
        <time>2012-12-29T08:26:27.000Z</time>
      </trkpt>
      <trkpt lat="44.13926" lon="1.91856">
        <ele>183.8</ele>
        <time>2012-12-29T08:26:28.000Z</time>
      </trkpt>
      <trkpt lat="44.13921" lon="1.91855">
        <ele>184.3</ele>
        <time>2012-12-29T08:26:29.000Z</time>
      </trkpt>
      <trkpt lat="44.13917" lon="1.91854">
        <ele>184.3</ele>
        <time>2012-12-29T08:26:30.000Z</time>
      </trkpt>
      <trkpt lat="44.13913" lon="1.91855">
        <ele>184.6</ele>
        <time>2012-12-29T08:26:31.000Z</time>
      </trkpt>
      <trkpt lat="44.13909" lon="1.91855">
        <ele>184.6</ele>
        <time>2012-12-29T08:26:32.000Z</time>
      </trkpt>
      <trkpt lat="44.13905" lon="1.91856">
        <ele>184.5</ele>
        <time>2012-12-29T08:26:33.000Z</time>
      </trkpt>
      <trkpt lat="44.13901" lon="1.91856">
        <ele>183.7</ele>
        <time>2012-12-29T08:26:34.000Z</time>
      </trkpt>
      <trkpt lat="44.13897" lon="1.91856">
        <ele>183.6</ele>
        <time>2012-12-29T08:26:35.000Z</time>
      </trkpt>
      <trkpt lat="44.13893" lon="1.91854">
        <ele>183.5</ele>
        <time>2012-12-29T08:26:36.000Z</time>
      </trkpt>
      <trkpt lat="44.13889" lon="1.91853">
        <ele>183.3</ele>
        <time>2012-12-29T08:26:37.000Z</time>
      </trkpt>
      <trkpt lat="44.13885" lon="1.91852">
        <ele>183.2</ele>
        <time>2012-12-29T08:26:38.000Z</time>
      </trkpt>
      <trkpt lat="44.1388" lon="1.91851">
        <ele>182.4</ele>
        <time>2012-12-29T08:26:39.000Z</time>
      </trkpt>
      <trkpt lat="44.13875" lon="1.91849">
        <ele>181.7</ele>
        <time>2012-12-29T08:26:40.000Z</time>
      </trkpt>
      <trkpt lat="44.1387" lon="1.91847">
        <ele>180.3</ele>
        <time>2012-12-29T08:26:41.000Z</time>
      </trkpt>
      <trkpt lat="44.13865" lon="1.91844">
        <ele>179.1</ele>
        <time>2012-12-29T08:26:42.000Z</time>
      </trkpt>
      <trkpt lat="44.1386" lon="1.91841">
        <ele>178</ele>
        <time>2012-12-29T08:26:43.000Z</time>
      </trkpt>
      <trkpt lat="44.13855" lon="1.91838">
        <ele>177.5</ele>
        <time>2012-12-29T08:26:44.000Z</time>
      </trkpt>
      <trkpt lat="44.13849" lon="1.91835">
        <ele>177.4</ele>
        <time>2012-12-29T08:26:45.000Z</time>
      </trkpt>
      <trkpt lat="44.13845" lon="1.91832">
        <ele>176.9</ele>
        <time>2012-12-29T08:26:46.000Z</time>
      </trkpt>
      <trkpt lat="44.1384" lon="1.91829">
        <ele>176.7</ele>
        <time>2012-12-29T08:26:47.000Z</time>
      </trkpt>
      <trkpt lat="44.13836" lon="1.91825">
        <ele>176.4</ele>
        <time>2012-12-29T08:26:48.000Z</time>
      </trkpt>
      <trkpt lat="44.13832" lon="1.91821">
        <ele>176.3</ele>
        <time>2012-12-29T08:26:49.000Z</time>
      </trkpt>
      <trkpt lat="44.13828" lon="1.91818">
        <ele>176.3</ele>
        <time>2012-12-29T08:26:50.000Z</time>
      </trkpt>
      <trkpt lat="44.13825" lon="1.91814">
        <ele>176.3</ele>
        <time>2012-12-29T08:26:51.000Z</time>
      </trkpt>
      <trkpt lat="44.13823" lon="1.91811">
        <ele>176.4</ele>
        <time>2012-12-29T08:26:52.000Z</time>
      </trkpt>
      <trkpt lat="44.13821" lon="1.91807">
        <ele>176.3</ele>
        <time>2012-12-29T08:26:53.000Z</time>
      </trkpt>
      <trkpt lat="44.13817" lon="1.91803">
        <ele>175.9</ele>
        <time>2012-12-29T08:26:54.000Z</time>
      </trkpt>
      <trkpt lat="44.13814" lon="1.918">
        <ele>175.8</ele>
        <time>2012-12-29T08:26:55.000Z</time>
      </trkpt>
      <trkpt lat="44.13811" lon="1.91797">
        <ele>175.8</ele>
        <time>2012-12-29T08:26:56.000Z</time>
      </trkpt>
      <trkpt lat="44.13808" lon="1.91794">
        <ele>175.7</ele>
        <time>2012-12-29T08:26:57.000Z</time>
      </trkpt>
      <trkpt lat="44.13805" lon="1.91791">
        <ele>175.6</ele>
        <time>2012-12-29T08:26:58.000Z</time>
      </trkpt>
      <trkpt lat="44.13803" lon="1.91788">
        <ele>175.4</ele>
        <time>2012-12-29T08:26:59.000Z</time>
      </trkpt>
      <trkpt lat="44.13802" lon="1.91786">
        <ele>175.3</ele>
        <time>2012-12-29T08:27:00.000Z</time>
      </trkpt>
      <trkpt lat="44.138" lon="1.91783">
        <ele>175.2</ele>
        <time>2012-12-29T08:27:01.000Z</time>
      </trkpt>
      <trkpt lat="44.13798" lon="1.91781">
        <ele>174.9</ele>
        <time>2012-12-29T08:27:02.000Z</time>
      </trkpt>
      <trkpt lat="44.13796" lon="1.91778">
        <ele>174.7</ele>
        <time>2012-12-29T08:27:03.000Z</time>
      </trkpt>
      <trkpt lat="44.13794" lon="1.91775">
        <ele>174.4</ele>
        <time>2012-12-29T08:27:04.000Z</time>
      </trkpt>
      <trkpt lat="44.13791" lon="1.91772">
        <ele>174.1</ele>
        <time>2012-12-29T08:27:05.000Z</time>
      </trkpt>
      <trkpt lat="44.13788" lon="1.91769">
        <ele>173.8</ele>
        <time>2012-12-29T08:27:06.000Z</time>
      </trkpt>
      <trkpt lat="44.13786" lon="1.91765">
        <ele>173.5</ele>
        <time>2012-12-29T08:27:07.000Z</time>
      </trkpt>
      <trkpt lat="44.13783" lon="1.91761">
        <ele>173.3</ele>
        <time>2012-12-29T08:27:08.000Z</time>
      </trkpt>
      <trkpt lat="44.1378" lon="1.91758">
        <ele>173</ele>
        <time>2012-12-29T08:27:09.000Z</time>
      </trkpt>
      <trkpt lat="44.13777" lon="1.91755">
        <ele>172.7</ele>
        <time>2012-12-29T08:27:10.000Z</time>
      </trkpt>
      <trkpt lat="44.13774" lon="1.91752">
        <ele>172.3</ele>
        <time>2012-12-29T08:27:11.000Z</time>
      </trkpt>
      <trkpt lat="44.13772" lon="1.91749">
        <ele>172</ele>
        <time>2012-12-29T08:27:12.000Z</time>
      </trkpt>
      <trkpt lat="44.13768" lon="1.91746">
        <ele>171.8</ele>
        <time>2012-12-29T08:27:13.000Z</time>
      </trkpt>
      <trkpt lat="44.13765" lon="1.91744">
        <ele>171.6</ele>
        <time>2012-12-29T08:27:14.000Z</time>
      </trkpt>
      <trkpt lat="44.13762" lon="1.91741">
        <ele>171.4</ele>
        <time>2012-12-29T08:27:15.000Z</time>
      </trkpt>
      <trkpt lat="44.13759" lon="1.91738">
        <ele>171.3</ele>
        <time>2012-12-29T08:27:16.000Z</time>
      </trkpt>
      <trkpt lat="44.13756" lon="1.91735">
        <ele>171.1</ele>
        <time>2012-12-29T08:27:17.000Z</time>
      </trkpt>
      <trkpt lat="44.13753" lon="1.91732">
        <ele>170.8</ele>
        <time>2012-12-29T08:27:18.000Z</time>
      </trkpt>
      <trkpt lat="44.13751" lon="1.9173">
        <ele>170.5</ele>
        <time>2012-12-29T08:27:19.000Z</time>
      </trkpt>
      <trkpt lat="44.13748" lon="1.91727">
        <ele>170.3</ele>
        <time>2012-12-29T08:27:20.000Z</time>
      </trkpt>
      <trkpt lat="44.13745" lon="1.91725">
        <ele>170.1</ele>
        <time>2012-12-29T08:27:21.000Z</time>
      </trkpt>
      <trkpt lat="44.13742" lon="1.91722">
        <ele>169.8</ele>
        <time>2012-12-29T08:27:22.000Z</time>
      </trkpt>
      <trkpt lat="44.1374" lon="1.91721">
        <ele>169.6</ele>
        <time>2012-12-29T08:27:23.000Z</time>
      </trkpt>
      <trkpt lat="44.13737" lon="1.91719">
        <ele>169.3</ele>
        <time>2012-12-29T08:27:24.000Z</time>
      </trkpt>
      <trkpt lat="44.13733" lon="1.91719">
        <ele>169.1</ele>
        <time>2012-12-29T08:27:25.000Z</time>
      </trkpt>
      <trkpt lat="44.13729" lon="1.91718">
        <ele>168.8</ele>
        <time>2012-12-29T08:27:26.000Z</time>
      </trkpt>
      <trkpt lat="44.13725" lon="1.91716">
        <ele>168.5</ele>
        <time>2012-12-29T08:27:27.000Z</time>
      </trkpt>
      <trkpt lat="44.13721" lon="1.91713">
        <ele>168.2</ele>
        <time>2012-12-29T08:27:28.000Z</time>
      </trkpt>
      <trkpt lat="44.13716" lon="1.91712">
        <ele>168</ele>
        <time>2012-12-29T08:27:29.000Z</time>
      </trkpt>
      <trkpt lat="44.13712" lon="1.9171">
        <ele>167.9</ele>
        <time>2012-12-29T08:27:30.000Z</time>
      </trkpt>
      <trkpt lat="44.13707" lon="1.91709">
        <ele>167.8</ele>
        <time>2012-12-29T08:27:31.000Z</time>
      </trkpt>
      <trkpt lat="44.13702" lon="1.91708">
        <ele>167.8</ele>
        <time>2012-12-29T08:27:32.000Z</time>
      </trkpt>
      <trkpt lat="44.13697" lon="1.91707">
        <ele>167.6</ele>
        <time>2012-12-29T08:27:33.000Z</time>
      </trkpt>
      <trkpt lat="44.13692" lon="1.91707">
        <ele>167.5</ele>
        <time>2012-12-29T08:27:34.000Z</time>
      </trkpt>
      <trkpt lat="44.13688" lon="1.91704">
        <ele>167.4</ele>
        <time>2012-12-29T08:27:35.000Z</time>
      </trkpt>
      <trkpt lat="44.13684" lon="1.91702">
        <ele>167.4</ele>
        <time>2012-12-29T08:27:36.000Z</time>
      </trkpt>
      <trkpt lat="44.1368" lon="1.917">
        <ele>167.4</ele>
        <time>2012-12-29T08:27:37.000Z</time>
      </trkpt>
      <trkpt lat="44.13675" lon="1.91699">
        <ele>167.4</ele>
        <time>2012-12-29T08:27:38.000Z</time>
      </trkpt>
      <trkpt lat="44.1367" lon="1.91696">
        <ele>167.4</ele>
        <time>2012-12-29T08:27:39.000Z</time>
      </trkpt>
      <trkpt lat="44.13666" lon="1.91694">
        <ele>167.3</ele>
        <time>2012-12-29T08:27:40.000Z</time>
      </trkpt>
      <trkpt lat="44.13662" lon="1.91692">
        <ele>167.3</ele>
        <time>2012-12-29T08:27:41.000Z</time>
      </trkpt>
      <trkpt lat="44.13658" lon="1.91691">
        <ele>167.2</ele>
        <time>2012-12-29T08:27:42.000Z</time>
      </trkpt>
      <trkpt lat="44.13654" lon="1.91689">
        <ele>167.2</ele>
        <time>2012-12-29T08:27:43.000Z</time>
      </trkpt>
      <trkpt lat="44.13651" lon="1.91687">
        <ele>167.1</ele>
        <time>2012-12-29T08:27:44.000Z</time>
      </trkpt>
      <trkpt lat="44.13647" lon="1.91685">
        <ele>167.1</ele>
        <time>2012-12-29T08:27:45.000Z</time>
      </trkpt>
      <trkpt lat="44.13643" lon="1.91682">
        <ele>167</ele>
        <time>2012-12-29T08:27:46.000Z</time>
      </trkpt>
      <trkpt lat="44.13639" lon="1.91679">
        <ele>166.9</ele>
        <time>2012-12-29T08:27:47.000Z</time>
      </trkpt>
      <trkpt lat="44.13635" lon="1.91675">
        <ele>166.8</ele>
        <time>2012-12-29T08:27:48.000Z</time>
      </trkpt>
      <trkpt lat="44.13632" lon="1.91672">
        <ele>166.7</ele>
        <time>2012-12-29T08:27:49.000Z</time>
      </trkpt>
      <trkpt lat="44.13629" lon="1.91669">
        <ele>166.6</ele>
        <time>2012-12-29T08:27:50.000Z</time>
      </trkpt>
      <trkpt lat="44.13625" lon="1.91665">
        <ele>165.5</ele>
        <time>2012-12-29T08:27:51.000Z</time>
      </trkpt>
      <trkpt lat="44.13622" lon="1.91662">
        <ele>165.4</ele>
        <time>2012-12-29T08:27:52.000Z</time>
      </trkpt>
      <trkpt lat="44.13618" lon="1.91659">
        <ele>165.3</ele>
        <time>2012-12-29T08:27:53.000Z</time>
      </trkpt>
      <trkpt lat="44.13615" lon="1.91657">
        <ele>164</ele>
        <time>2012-12-29T08:27:54.000Z</time>
      </trkpt>
      <trkpt lat="44.13611" lon="1.91654">
        <ele>163.3</ele>
        <time>2012-12-29T08:27:55.000Z</time>
      </trkpt>
      <trkpt lat="44.13607" lon="1.91652">
        <ele>163.3</ele>
        <time>2012-12-29T08:27:56.000Z</time>
      </trkpt>
      <trkpt lat="44.13604" lon="1.91649">
        <ele>162.5</ele>
        <time>2012-12-29T08:27:57.000Z</time>
      </trkpt>
      <trkpt lat="44.136" lon="1.91647">
        <ele>162.4</ele>
        <time>2012-12-29T08:27:58.000Z</time>
      </trkpt>
      <trkpt lat="44.13597" lon="1.91644">
        <ele>162.3</ele>
        <time>2012-12-29T08:27:59.000Z</time>
      </trkpt>
      <trkpt lat="44.13593" lon="1.91641">
        <ele>162.2</ele>
        <time>2012-12-29T08:28:00.000Z</time>
      </trkpt>
      <trkpt lat="44.13589" lon="1.91637">
        <ele>162.1</ele>
        <time>2012-12-29T08:28:01.000Z</time>
      </trkpt>
      <trkpt lat="44.13586" lon="1.91634">
        <ele>162</ele>
        <time>2012-12-29T08:28:02.000Z</time>
      </trkpt>
      <trkpt lat="44.13582" lon="1.9163">
        <ele>161.9</ele>
        <time>2012-12-29T08:28:03.000Z</time>
      </trkpt>
      <trkpt lat="44.13579" lon="1.91627">
        <ele>161.9</ele>
        <time>2012-12-29T08:28:04.000Z</time>
      </trkpt>
      <trkpt lat="44.13575" lon="1.91623">
        <ele>161.8</ele>
        <time>2012-12-29T08:28:05.000Z</time>
      </trkpt>
      <trkpt lat="44.13571" lon="1.91619">
        <ele>161</ele>
        <time>2012-12-29T08:28:06.000Z</time>
      </trkpt>
      <trkpt lat="44.13567" lon="1.91615">
        <ele>160.3</ele>
        <time>2012-12-29T08:28:07.000Z</time>
      </trkpt>
      <trkpt lat="44.13564" lon="1.91611">
        <ele>160.3</ele>
        <time>2012-12-29T08:28:08.000Z</time>
      </trkpt>
      <trkpt lat="44.13561" lon="1.91607">
        <ele>160.2</ele>
        <time>2012-12-29T08:28:09.000Z</time>
      </trkpt>
      <trkpt lat="44.13558" lon="1.91603">
        <ele>160.2</ele>
        <time>2012-12-29T08:28:10.000Z</time>
      </trkpt>
      <trkpt lat="44.13555" lon="1.91599">
        <ele>160.1</ele>
        <time>2012-12-29T08:28:11.000Z</time>
      </trkpt>
      <trkpt lat="44.13553" lon="1.91595">
        <ele>160</ele>
        <time>2012-12-29T08:28:12.000Z</time>
      </trkpt>
      <trkpt lat="44.13549" lon="1.9159">
        <ele>160</ele>
        <time>2012-12-29T08:28:13.000Z</time>
      </trkpt>
      <trkpt lat="44.13545" lon="1.91586">
        <ele>160</ele>
        <time>2012-12-29T08:28:14.000Z</time>
      </trkpt>
      <trkpt lat="44.13541" lon="1.91581">
        <ele>160</ele>
        <time>2012-12-29T08:28:15.000Z</time>
      </trkpt>
      <trkpt lat="44.13537" lon="1.91576">
        <ele>160.1</ele>
        <time>2012-12-29T08:28:16.000Z</time>
      </trkpt>
      <trkpt lat="44.13533" lon="1.91571">
        <ele>160.2</ele>
        <time>2012-12-29T08:28:17.000Z</time>
      </trkpt>
      <trkpt lat="44.13529" lon="1.91566">
        <ele>161.2</ele>
        <time>2012-12-29T08:28:18.000Z</time>
      </trkpt>
      <trkpt lat="44.13525" lon="1.91562">
        <ele>161.2</ele>
        <time>2012-12-29T08:28:19.000Z</time>
      </trkpt>
      <trkpt lat="44.13521" lon="1.91557">
        <ele>161.3</ele>
        <time>2012-12-29T08:28:20.000Z</time>
      </trkpt>
      <trkpt lat="44.13517" lon="1.91552">
        <ele>162.1</ele>
        <time>2012-12-29T08:28:21.000Z</time>
      </trkpt>
      <trkpt lat="44.13514" lon="1.91548">
        <ele>163.1</ele>
        <time>2012-12-29T08:28:22.000Z</time>
      </trkpt>
      <trkpt lat="44.1351" lon="1.91543">
        <ele>163.3</ele>
        <time>2012-12-29T08:28:23.000Z</time>
      </trkpt>
      <trkpt lat="44.13506" lon="1.91538">
        <ele>165.4</ele>
        <time>2012-12-29T08:28:24.000Z</time>
      </trkpt>
      <trkpt lat="44.13503" lon="1.91533">
        <ele>165.6</ele>
        <time>2012-12-29T08:28:25.000Z</time>
      </trkpt>
      <trkpt lat="44.135" lon="1.91527">
        <ele>165.9</ele>
        <time>2012-12-29T08:28:26.000Z</time>
      </trkpt>
      <trkpt lat="44.13497" lon="1.91522">
        <ele>166.1</ele>
        <time>2012-12-29T08:28:27.000Z</time>
      </trkpt>
      <trkpt lat="44.13495" lon="1.91517">
        <ele>166.3</ele>
        <time>2012-12-29T08:28:28.000Z</time>
      </trkpt>
      <trkpt lat="44.13494" lon="1.91512">
        <ele>166.5</ele>
        <time>2012-12-29T08:28:29.000Z</time>
      </trkpt>
      <trkpt lat="44.13492" lon="1.91507">
        <ele>166.8</ele>
        <time>2012-12-29T08:28:30.000Z</time>
      </trkpt>
      <trkpt lat="44.1349" lon="1.91502">
        <ele>167</ele>
        <time>2012-12-29T08:28:31.000Z</time>
      </trkpt>
      <trkpt lat="44.13487" lon="1.91495">
        <ele>167.3</ele>
        <time>2012-12-29T08:28:32.000Z</time>
      </trkpt>
      <trkpt lat="44.13485" lon="1.91489">
        <ele>167.5</ele>
        <time>2012-12-29T08:28:33.000Z</time>
      </trkpt>
      <trkpt lat="44.13482" lon="1.91483">
        <ele>167.8</ele>
        <time>2012-12-29T08:28:34.000Z</time>
      </trkpt>
      <trkpt lat="44.1348" lon="1.91477">
        <ele>167.9</ele>
        <time>2012-12-29T08:28:35.000Z</time>
      </trkpt>
      <trkpt lat="44.13477" lon="1.91471">
        <ele>168.2</ele>
        <time>2012-12-29T08:28:36.000Z</time>
      </trkpt>
      <trkpt lat="44.13474" lon="1.91467">
        <ele>168.3</ele>
        <time>2012-12-29T08:28:37.000Z</time>
      </trkpt>
      <trkpt lat="44.13471" lon="1.91462">
        <ele>168.4</ele>
        <time>2012-12-29T08:28:38.000Z</time>
      </trkpt>
      <trkpt lat="44.13467" lon="1.91457">
        <ele>168.6</ele>
        <time>2012-12-29T08:28:39.000Z</time>
      </trkpt>
      <trkpt lat="44.13464" lon="1.91453">
        <ele>168.8</ele>
        <time>2012-12-29T08:28:40.000Z</time>
      </trkpt>
      <trkpt lat="44.13461" lon="1.91449">
        <ele>168.9</ele>
        <time>2012-12-29T08:28:41.000Z</time>
      </trkpt>
      <trkpt lat="44.13458" lon="1.91446">
        <ele>169.2</ele>
        <time>2012-12-29T08:28:42.000Z</time>
      </trkpt>
      <trkpt lat="44.13455" lon="1.91441">
        <ele>169.4</ele>
        <time>2012-12-29T08:28:43.000Z</time>
      </trkpt>
      <trkpt lat="44.13453" lon="1.91438">
        <ele>169.7</ele>
        <time>2012-12-29T08:28:44.000Z</time>
      </trkpt>
      <trkpt lat="44.1345" lon="1.91434">
        <ele>170</ele>
        <time>2012-12-29T08:28:45.000Z</time>
      </trkpt>
      <trkpt lat="44.13446" lon="1.91429">
        <ele>170.4</ele>
        <time>2012-12-29T08:28:46.000Z</time>
      </trkpt>
      <trkpt lat="44.13443" lon="1.91424">
        <ele>174</ele>
        <time>2012-12-29T08:28:47.000Z</time>
      </trkpt>
      <trkpt lat="44.13439" lon="1.9142">
        <ele>176.8</ele>
        <time>2012-12-29T08:28:48.000Z</time>
      </trkpt>
      <trkpt lat="44.13436" lon="1.91416">
        <ele>179</ele>
        <time>2012-12-29T08:28:49.000Z</time>
      </trkpt>
      <trkpt lat="44.13432" lon="1.91412">
        <ele>180.5</ele>
        <time>2012-12-29T08:28:50.000Z</time>
      </trkpt>
      <trkpt lat="44.13428" lon="1.91408">
        <ele>181.3</ele>
        <time>2012-12-29T08:28:51.000Z</time>
      </trkpt>
      <trkpt lat="44.13425" lon="1.91405">
        <ele>181.6</ele>
        <time>2012-12-29T08:28:52.000Z</time>
      </trkpt>
      <trkpt lat="44.13421" lon="1.91401">
        <ele>182</ele>
        <time>2012-12-29T08:28:53.000Z</time>
      </trkpt>
      <trkpt lat="44.13417" lon="1.91398">
        <ele>181.1</ele>
        <time>2012-12-29T08:28:54.000Z</time>
      </trkpt>
      <trkpt lat="44.13413" lon="1.91396">
        <ele>180.7</ele>
        <time>2012-12-29T08:28:55.000Z</time>
      </trkpt>
      <trkpt lat="44.1341" lon="1.91395">
        <ele>180.2</ele>
        <time>2012-12-29T08:28:56.000Z</time>
      </trkpt>
      <trkpt lat="44.13405" lon="1.91393">
        <ele>180.3</ele>
        <time>2012-12-29T08:28:57.000Z</time>
      </trkpt>
      <trkpt lat="44.13401" lon="1.91391">
        <ele>180.9</ele>
        <time>2012-12-29T08:28:58.000Z</time>
      </trkpt>
      <trkpt lat="44.13396" lon="1.91388">
        <ele>181.9</ele>
        <time>2012-12-29T08:28:59.000Z</time>
      </trkpt>
      <trkpt lat="44.13392" lon="1.91385">
        <ele>182.2</ele>
        <time>2012-12-29T08:29:00.000Z</time>
      </trkpt>
      <trkpt lat="44.13386" lon="1.91382">
        <ele>182.9</ele>
        <time>2012-12-29T08:29:01.000Z</time>
      </trkpt>
      <trkpt lat="44.13382" lon="1.91378">
        <ele>183</ele>
        <time>2012-12-29T08:29:02.000Z</time>
      </trkpt>
      <trkpt lat="44.13377" lon="1.91376">
        <ele>182.9</ele>
        <time>2012-12-29T08:29:03.000Z</time>
      </trkpt>
      <trkpt lat="44.13372" lon="1.91374">
        <ele>183.3</ele>
        <time>2012-12-29T08:29:04.000Z</time>
      </trkpt>
      <trkpt lat="44.13367" lon="1.91373">
        <ele>183.3</ele>
        <time>2012-12-29T08:29:05.000Z</time>
      </trkpt>
      <trkpt lat="44.13362" lon="1.91371">
        <ele>183.2</ele>
        <time>2012-12-29T08:29:06.000Z</time>
      </trkpt>
      <trkpt lat="44.13358" lon="1.91369">
        <ele>183.3</ele>
        <time>2012-12-29T08:29:07.000Z</time>
      </trkpt>
      <trkpt lat="44.13354" lon="1.91368">
        <ele>183.3</ele>
        <time>2012-12-29T08:29:08.000Z</time>
      </trkpt>
      <trkpt lat="44.1335" lon="1.91367">
        <ele>183.8</ele>
        <time>2012-12-29T08:29:09.000Z</time>
      </trkpt>
      <trkpt lat="44.13347" lon="1.91367">
        <ele>184.4</ele>
        <time>2012-12-29T08:29:10.000Z</time>
      </trkpt>
      <trkpt lat="44.13343" lon="1.91366">
        <ele>184.4</ele>
        <time>2012-12-29T08:29:11.000Z</time>
      </trkpt>
      <trkpt lat="44.1334" lon="1.91365">
        <ele>184.4</ele>
        <time>2012-12-29T08:29:12.000Z</time>
      </trkpt>
      <trkpt lat="44.13337" lon="1.91363">
        <ele>184.4</ele>
        <time>2012-12-29T08:29:13.000Z</time>
      </trkpt>
      <trkpt lat="44.13334" lon="1.91361">
        <ele>184.4</ele>
        <time>2012-12-29T08:29:14.000Z</time>
      </trkpt>
      <trkpt lat="44.1333" lon="1.91359">
        <ele>184.5</ele>
        <time>2012-12-29T08:29:15.000Z</time>
      </trkpt>
      <trkpt lat="44.13327" lon="1.91356">
        <ele>184.5</ele>
        <time>2012-12-29T08:29:16.000Z</time>
      </trkpt>
      <trkpt lat="44.13324" lon="1.91354">
        <ele>184.6</ele>
        <time>2012-12-29T08:29:17.000Z</time>
      </trkpt>
      <trkpt lat="44.13321" lon="1.91351">
        <ele>184.7</ele>
        <time>2012-12-29T08:29:18.000Z</time>
      </trkpt>
      <trkpt lat="44.13316" lon="1.91348">
        <ele>184.8</ele>
        <time>2012-12-29T08:29:19.000Z</time>
      </trkpt>
      <trkpt lat="44.13312" lon="1.91345">
        <ele>184.8</ele>
        <time>2012-12-29T08:29:20.000Z</time>
      </trkpt>
      <trkpt lat="44.13306" lon="1.91341">
        <ele>184.8</ele>
        <time>2012-12-29T08:29:21.000Z</time>
      </trkpt>
      <trkpt lat="44.13301" lon="1.91338">
        <ele>184.8</ele>
        <time>2012-12-29T08:29:22.000Z</time>
      </trkpt>
      <trkpt lat="44.13297" lon="1.91335">
        <ele>184.8</ele>
        <time>2012-12-29T08:29:23.000Z</time>
      </trkpt>
      <trkpt lat="44.13293" lon="1.91332">
        <ele>184.8</ele>
        <time>2012-12-29T08:29:24.000Z</time>
      </trkpt>
      <trkpt lat="44.13289" lon="1.9133">
        <ele>184.8</ele>
        <time>2012-12-29T08:29:25.000Z</time>
      </trkpt>
      <trkpt lat="44.13287" lon="1.91327">
        <ele>184.7</ele>
        <time>2012-12-29T08:29:26.000Z</time>
      </trkpt>
      <trkpt lat="44.13284" lon="1.91324">
        <ele>184.6</ele>
        <time>2012-12-29T08:29:27.000Z</time>
      </trkpt>
      <trkpt lat="44.13281" lon="1.91322">
        <ele>184.6</ele>
        <time>2012-12-29T08:29:28.000Z</time>
      </trkpt>
      <trkpt lat="44.13277" lon="1.91319">
        <ele>184.7</ele>
        <time>2012-12-29T08:29:29.000Z</time>
      </trkpt>
      <trkpt lat="44.13274" lon="1.91315">
        <ele>184.8</ele>
        <time>2012-12-29T08:29:30.000Z</time>
      </trkpt>
      <trkpt lat="44.13271" lon="1.91311">
        <ele>184.8</ele>
        <time>2012-12-29T08:29:31.000Z</time>
      </trkpt>
      <trkpt lat="44.13268" lon="1.91307">
        <ele>184.3</ele>
        <time>2012-12-29T08:29:32.000Z</time>
      </trkpt>
      <trkpt lat="44.13265" lon="1.91302">
        <ele>183.2</ele>
        <time>2012-12-29T08:29:33.000Z</time>
      </trkpt>
      <trkpt lat="44.13262" lon="1.91296">
        <ele>181.8</ele>
        <time>2012-12-29T08:29:34.000Z</time>
      </trkpt>
      <trkpt lat="44.13258" lon="1.91291">
        <ele>180</ele>
        <time>2012-12-29T08:29:35.000Z</time>
      </trkpt>
      <trkpt lat="44.13255" lon="1.91284">
        <ele>178.8</ele>
        <time>2012-12-29T08:29:36.000Z</time>
      </trkpt>
      <trkpt lat="44.13252" lon="1.91277">
        <ele>178</ele>
        <time>2012-12-29T08:29:37.000Z</time>
      </trkpt>
      <trkpt lat="44.13248" lon="1.9127">
        <ele>177.1</ele>
        <time>2012-12-29T08:29:38.000Z</time>
      </trkpt>
      <trkpt lat="44.13244" lon="1.91262">
        <ele>176.4</ele>
        <time>2012-12-29T08:29:39.000Z</time>
      </trkpt>
      <trkpt lat="44.1324" lon="1.91255">
        <ele>175.9</ele>
        <time>2012-12-29T08:29:40.000Z</time>
      </trkpt>
      <trkpt lat="44.13235" lon="1.91249">
        <ele>175.5</ele>
        <time>2012-12-29T08:29:41.000Z</time>
      </trkpt>
      <trkpt lat="44.13231" lon="1.91244">
        <ele>175.3</ele>
        <time>2012-12-29T08:29:42.000Z</time>
      </trkpt>
      <trkpt lat="44.13228" lon="1.91238">
        <ele>176</ele>
        <time>2012-12-29T08:29:43.000Z</time>
      </trkpt>
      <trkpt lat="44.13225" lon="1.91232">
        <ele>176.5</ele>
        <time>2012-12-29T08:29:44.000Z</time>
      </trkpt>
      <trkpt lat="44.13221" lon="1.91227">
        <ele>176.5</ele>
        <time>2012-12-29T08:29:45.000Z</time>
      </trkpt>
      <trkpt lat="44.13218" lon="1.91223">
        <ele>176.9</ele>
        <time>2012-12-29T08:29:46.000Z</time>
      </trkpt>
      <trkpt lat="44.13214" lon="1.91219">
        <ele>177.4</ele>
        <time>2012-12-29T08:29:47.000Z</time>
      </trkpt>
      <trkpt lat="44.1321" lon="1.91215">
        <ele>178</ele>
        <time>2012-12-29T08:29:48.000Z</time>
      </trkpt>
      <trkpt lat="44.13206" lon="1.91211">
        <ele>178.3</ele>
        <time>2012-12-29T08:29:49.000Z</time>
      </trkpt>
      <trkpt lat="44.13203" lon="1.91207">
        <ele>178.3</ele>
        <time>2012-12-29T08:29:50.000Z</time>
      </trkpt>
      <trkpt lat="44.13199" lon="1.91204">
        <ele>178.7</ele>
        <time>2012-12-29T08:29:51.000Z</time>
      </trkpt>
      <trkpt lat="44.13196" lon="1.912">
        <ele>178.9</ele>
        <time>2012-12-29T08:29:52.000Z</time>
      </trkpt>
      <trkpt lat="44.13192" lon="1.91195">
        <ele>179.5</ele>
        <time>2012-12-29T08:29:53.000Z</time>
      </trkpt>
      <trkpt lat="44.13189" lon="1.91191">
        <ele>180.1</ele>
        <time>2012-12-29T08:29:54.000Z</time>
      </trkpt>
      <trkpt lat="44.13186" lon="1.91187">
        <ele>180.7</ele>
        <time>2012-12-29T08:29:55.000Z</time>
      </trkpt>
      <trkpt lat="44.13183" lon="1.91183">
        <ele>180.5</ele>
        <time>2012-12-29T08:29:56.000Z</time>
      </trkpt>
      <trkpt lat="44.1318" lon="1.91179">
        <ele>180.1</ele>
        <time>2012-12-29T08:29:57.000Z</time>
      </trkpt>
      <trkpt lat="44.13176" lon="1.91174">
        <ele>179.8</ele>
        <time>2012-12-29T08:29:58.000Z</time>
      </trkpt>
      <trkpt lat="44.13173" lon="1.91169">
        <ele>179.8</ele>
        <time>2012-12-29T08:29:59.000Z</time>
      </trkpt>
      <trkpt lat="44.13169" lon="1.91164">
        <ele>179.7</ele>
        <time>2012-12-29T08:30:00.000Z</time>
      </trkpt>
      <trkpt lat="44.13166" lon="1.91159">
        <ele>179.6</ele>
        <time>2012-12-29T08:30:01.000Z</time>
      </trkpt>
      <trkpt lat="44.13162" lon="1.91155">
        <ele>179.7</ele>
        <time>2012-12-29T08:30:02.000Z</time>
      </trkpt>
      <trkpt lat="44.13159" lon="1.9115">
        <ele>180.3</ele>
        <time>2012-12-29T08:30:03.000Z</time>
      </trkpt>
      <trkpt lat="44.13155" lon="1.91145">
        <ele>181</ele>
        <time>2012-12-29T08:30:04.000Z</time>
      </trkpt>
      <trkpt lat="44.13153" lon="1.91141">
        <ele>181</ele>
        <time>2012-12-29T08:30:05.000Z</time>
      </trkpt>
      <trkpt lat="44.13149" lon="1.91136">
        <ele>181.7</ele>
        <time>2012-12-29T08:30:06.000Z</time>
      </trkpt>
      <trkpt lat="44.13147" lon="1.91131">
        <ele>182.4</ele>
        <time>2012-12-29T08:30:07.000Z</time>
      </trkpt>
      <trkpt lat="44.13144" lon="1.91127">
        <ele>183.4</ele>
        <time>2012-12-29T08:30:08.000Z</time>
      </trkpt>
      <trkpt lat="44.13141" lon="1.91123">
        <ele>183.9</ele>
        <time>2012-12-29T08:30:09.000Z</time>
      </trkpt>
      <trkpt lat="44.13137" lon="1.91119">
        <ele>184.2</ele>
        <time>2012-12-29T08:30:10.000Z</time>
      </trkpt>
      <trkpt lat="44.13134" lon="1.91115">
        <ele>184.6</ele>
        <time>2012-12-29T08:30:11.000Z</time>
      </trkpt>
      <trkpt lat="44.13131" lon="1.9111">
        <ele>185.1</ele>
        <time>2012-12-29T08:30:12.000Z</time>
      </trkpt>
      <trkpt lat="44.13128" lon="1.91107">
        <ele>185.2</ele>
        <time>2012-12-29T08:30:13.000Z</time>
      </trkpt>
      <trkpt lat="44.13125" lon="1.91103">
        <ele>185.2</ele>
        <time>2012-12-29T08:30:14.000Z</time>
      </trkpt>
      <trkpt lat="44.13122" lon="1.91099">
        <ele>185.2</ele>
        <time>2012-12-29T08:30:15.000Z</time>
      </trkpt>
      <trkpt lat="44.13119" lon="1.91095">
        <ele>185.2</ele>
        <time>2012-12-29T08:30:16.000Z</time>
      </trkpt>
      <trkpt lat="44.13117" lon="1.91092">
        <ele>185.2</ele>
        <time>2012-12-29T08:30:17.000Z</time>
      </trkpt>
      <trkpt lat="44.13114" lon="1.91089">
        <ele>185.3</ele>
        <time>2012-12-29T08:30:18.000Z</time>
      </trkpt>
      <trkpt lat="44.13111" lon="1.91085">
        <ele>185.3</ele>
        <time>2012-12-29T08:30:19.000Z</time>
      </trkpt>
      <trkpt lat="44.13109" lon="1.91081">
        <ele>185.3</ele>
        <time>2012-12-29T08:30:20.000Z</time>
      </trkpt>
      <trkpt lat="44.13107" lon="1.91077">
        <ele>185.2</ele>
        <time>2012-12-29T08:30:21.000Z</time>
      </trkpt>
      <trkpt lat="44.13104" lon="1.91073">
        <ele>185.2</ele>
        <time>2012-12-29T08:30:22.000Z</time>
      </trkpt>
      <trkpt lat="44.13101" lon="1.91069">
        <ele>184.8</ele>
        <time>2012-12-29T08:30:23.000Z</time>
      </trkpt>
      <trkpt lat="44.13099" lon="1.91065">
        <ele>184.6</ele>
        <time>2012-12-29T08:30:24.000Z</time>
      </trkpt>
      <trkpt lat="44.13096" lon="1.9106">
        <ele>184.6</ele>
        <time>2012-12-29T08:30:25.000Z</time>
      </trkpt>
      <trkpt lat="44.13093" lon="1.91056">
        <ele>184.3</ele>
        <time>2012-12-29T08:30:26.000Z</time>
      </trkpt>
      <trkpt lat="44.1309" lon="1.91051">
        <ele>183.8</ele>
        <time>2012-12-29T08:30:27.000Z</time>
      </trkpt>
      <trkpt lat="44.13088" lon="1.91046">
        <ele>183.5</ele>
        <time>2012-12-29T08:30:28.000Z</time>
      </trkpt>
      <trkpt lat="44.13085" lon="1.91041">
        <ele>183.3</ele>
        <time>2012-12-29T08:30:29.000Z</time>
      </trkpt>
      <trkpt lat="44.13082" lon="1.91036">
        <ele>183.7</ele>
        <time>2012-12-29T08:30:30.000Z</time>
      </trkpt>
      <trkpt lat="44.1308" lon="1.91032">
        <ele>183.8</ele>
        <time>2012-12-29T08:30:31.000Z</time>
      </trkpt>
      <trkpt lat="44.13077" lon="1.91027">
        <ele>183.9</ele>
        <time>2012-12-29T08:30:32.000Z</time>
      </trkpt>
      <trkpt lat="44.13075" lon="1.91023">
        <ele>184.1</ele>
        <time>2012-12-29T08:30:33.000Z</time>
      </trkpt>
      <trkpt lat="44.13073" lon="1.91018">
        <ele>184.5</ele>
        <time>2012-12-29T08:30:34.000Z</time>
      </trkpt>
      <trkpt lat="44.1307" lon="1.91013">
        <ele>184.9</ele>
        <time>2012-12-29T08:30:35.000Z</time>
      </trkpt>
      <trkpt lat="44.13067" lon="1.91008">
        <ele>185.1</ele>
        <time>2012-12-29T08:30:36.000Z</time>
      </trkpt>
      <trkpt lat="44.13065" lon="1.91003">
        <ele>184.8</ele>
        <time>2012-12-29T08:30:37.000Z</time>
      </trkpt>
      <trkpt lat="44.13062" lon="1.90998">
        <ele>184.4</ele>
        <time>2012-12-29T08:30:38.000Z</time>
      </trkpt>
      <trkpt lat="44.13061" lon="1.90993">
        <ele>184.3</ele>
        <time>2012-12-29T08:30:39.000Z</time>
      </trkpt>
      <trkpt lat="44.13059" lon="1.90988">
        <ele>184.3</ele>
        <time>2012-12-29T08:30:40.000Z</time>
      </trkpt>
      <trkpt lat="44.13057" lon="1.90984">
        <ele>183.9</ele>
        <time>2012-12-29T08:30:41.000Z</time>
      </trkpt>
      <trkpt lat="44.13055" lon="1.90979">
        <ele>183.4</ele>
        <time>2012-12-29T08:30:42.000Z</time>
      </trkpt>
      <trkpt lat="44.13052" lon="1.90974">
        <ele>183.1</ele>
        <time>2012-12-29T08:30:43.000Z</time>
      </trkpt>
      <trkpt lat="44.13049" lon="1.90969">
        <ele>183.1</ele>
        <time>2012-12-29T08:30:44.000Z</time>
      </trkpt>
      <trkpt lat="44.13046" lon="1.90965">
        <ele>183.2</ele>
        <time>2012-12-29T08:30:45.000Z</time>
      </trkpt>
      <trkpt lat="44.13044" lon="1.9096">
        <ele>183.4</ele>
        <time>2012-12-29T08:30:46.000Z</time>
      </trkpt>
      <trkpt lat="44.13041" lon="1.90956">
        <ele>183.6</ele>
        <time>2012-12-29T08:30:47.000Z</time>
      </trkpt>
      <trkpt lat="44.13038" lon="1.90951">
        <ele>183.6</ele>
        <time>2012-12-29T08:30:48.000Z</time>
      </trkpt>
      <trkpt lat="44.13035" lon="1.90947">
        <ele>183.7</ele>
        <time>2012-12-29T08:30:49.000Z</time>
      </trkpt>
      <trkpt lat="44.13032" lon="1.90942">
        <ele>183.8</ele>
        <time>2012-12-29T08:30:50.000Z</time>
      </trkpt>
      <trkpt lat="44.13028" lon="1.90937">
        <ele>184.2</ele>
        <time>2012-12-29T08:30:51.000Z</time>
      </trkpt>
      <trkpt lat="44.13025" lon="1.90932">
        <ele>184.4</ele>
        <time>2012-12-29T08:30:52.000Z</time>
      </trkpt>
      <trkpt lat="44.13021" lon="1.90928">
        <ele>184.6</ele>
        <time>2012-12-29T08:30:53.000Z</time>
      </trkpt>
      <trkpt lat="44.13017" lon="1.90923">
        <ele>184.9</ele>
        <time>2012-12-29T08:30:54.000Z</time>
      </trkpt>
      <trkpt lat="44.13013" lon="1.90918">
        <ele>185.5</ele>
        <time>2012-12-29T08:30:55.000Z</time>
      </trkpt>
      <trkpt lat="44.1301" lon="1.90914">
        <ele>185.3</ele>
        <time>2012-12-29T08:30:56.000Z</time>
      </trkpt>
      <trkpt lat="44.13006" lon="1.90909">
        <ele>185</ele>
        <time>2012-12-29T08:30:57.000Z</time>
      </trkpt>
      <trkpt lat="44.13003" lon="1.90905">
        <ele>185.1</ele>
        <time>2012-12-29T08:30:58.000Z</time>
      </trkpt>
      <trkpt lat="44.13" lon="1.90902">
        <ele>185</ele>
        <time>2012-12-29T08:30:59.000Z</time>
      </trkpt>
      <trkpt lat="44.12998" lon="1.90899">
        <ele>185</ele>
        <time>2012-12-29T08:31:00.000Z</time>
      </trkpt>
      <trkpt lat="44.12996" lon="1.90896">
        <ele>184.9</ele>
        <time>2012-12-29T08:31:01.000Z</time>
      </trkpt>
      <trkpt lat="44.12994" lon="1.90893">
        <ele>185</ele>
        <time>2012-12-29T08:31:02.000Z</time>
      </trkpt>
      <trkpt lat="44.12992" lon="1.90891">
        <ele>184.9</ele>
        <time>2012-12-29T08:31:03.000Z</time>
      </trkpt>
      <trkpt lat="44.1299" lon="1.90887">
        <ele>184.9</ele>
        <time>2012-12-29T08:31:04.000Z</time>
      </trkpt>
      <trkpt lat="44.12988" lon="1.90884">
        <ele>185</ele>
        <time>2012-12-29T08:31:05.000Z</time>
      </trkpt>
      <trkpt lat="44.12985" lon="1.90882">
        <ele>185</ele>
        <time>2012-12-29T08:31:06.000Z</time>
      </trkpt>
      <trkpt lat="44.12983" lon="1.9088">
        <ele>184.9</ele>
        <time>2012-12-29T08:31:07.000Z</time>
      </trkpt>
      <trkpt lat="44.12979" lon="1.90877">
        <ele>184.9</ele>
        <time>2012-12-29T08:31:08.000Z</time>
      </trkpt>
      <trkpt lat="44.12976" lon="1.90875">
        <ele>184.9</ele>
        <time>2012-12-29T08:31:09.000Z</time>
      </trkpt>
      <trkpt lat="44.12972" lon="1.90873">
        <ele>184.9</ele>
        <time>2012-12-29T08:31:10.000Z</time>
      </trkpt>
      <trkpt lat="44.12969" lon="1.90871">
        <ele>184.9</ele>
        <time>2012-12-29T08:31:11.000Z</time>
      </trkpt>
      <trkpt lat="44.12967" lon="1.90868">
        <ele>184.8</ele>
        <time>2012-12-29T08:31:12.000Z</time>
      </trkpt>
      <trkpt lat="44.12964" lon="1.90866">
        <ele>184.7</ele>
        <time>2012-12-29T08:31:13.000Z</time>
      </trkpt>
      <trkpt lat="44.12961" lon="1.90864">
        <ele>184.7</ele>
        <time>2012-12-29T08:31:14.000Z</time>
      </trkpt>
      <trkpt lat="44.12957" lon="1.90861">
        <ele>184.6</ele>
        <time>2012-12-29T08:31:15.000Z</time>
      </trkpt>
      <trkpt lat="44.12954" lon="1.90859">
        <ele>184.6</ele>
        <time>2012-12-29T08:31:16.000Z</time>
      </trkpt>
      <trkpt lat="44.12951" lon="1.90856">
        <ele>184.5</ele>
        <time>2012-12-29T08:31:17.000Z</time>
      </trkpt>
      <trkpt lat="44.12949" lon="1.90854">
        <ele>184.3</ele>
        <time>2012-12-29T08:31:18.000Z</time>
      </trkpt>
      <trkpt lat="44.12946" lon="1.90851">
        <ele>184.2</ele>
        <time>2012-12-29T08:31:19.000Z</time>
      </trkpt>
      <trkpt lat="44.12944" lon="1.90847">
        <ele>184</ele>
        <time>2012-12-29T08:31:20.000Z</time>
      </trkpt>
      <trkpt lat="44.12942" lon="1.90843">
        <ele>183.8</ele>
        <time>2012-12-29T08:31:21.000Z</time>
      </trkpt>
      <trkpt lat="44.1294" lon="1.90839">
        <ele>183.5</ele>
        <time>2012-12-29T08:31:22.000Z</time>
      </trkpt>
      <trkpt lat="44.12938" lon="1.90835">
        <ele>183.3</ele>
        <time>2012-12-29T08:31:23.000Z</time>
      </trkpt>
      <trkpt lat="44.12936" lon="1.9083">
        <ele>183.1</ele>
        <time>2012-12-29T08:31:24.000Z</time>
      </trkpt>
      <trkpt lat="44.12935" lon="1.90826">
        <ele>182.8</ele>
        <time>2012-12-29T08:31:25.000Z</time>
      </trkpt>
      <trkpt lat="44.12933" lon="1.90822">
        <ele>182.5</ele>
        <time>2012-12-29T08:31:26.000Z</time>
      </trkpt>
      <trkpt lat="44.12932" lon="1.90818">
        <ele>182.1</ele>
        <time>2012-12-29T08:31:27.000Z</time>
      </trkpt>
      <trkpt lat="44.12931" lon="1.90812">
        <ele>181.3</ele>
        <time>2012-12-29T08:31:30.000Z</time>
      </trkpt>
      <trkpt lat="44.1293" lon="1.90811">
        <ele>181.1</ele>
        <time>2012-12-29T08:31:31.000Z</time>
      </trkpt>
      <trkpt lat="44.1293" lon="1.90806">
        <ele>180.7</ele>
        <time>2012-12-29T08:31:34.000Z</time>
      </trkpt>
      <trkpt lat="44.12929" lon="1.90805">
        <ele>180.5</ele>
        <time>2012-12-29T08:31:35.000Z</time>
      </trkpt>
      <trkpt lat="44.12927" lon="1.908">
        <ele>180.3</ele>
        <time>2012-12-29T08:31:37.000Z</time>
      </trkpt>
      <trkpt lat="44.12925" lon="1.90797">
        <ele>180.3</ele>
        <time>2012-12-29T08:31:38.000Z</time>
      </trkpt>
      <trkpt lat="44.12923" lon="1.90793">
        <ele>180.2</ele>
        <time>2012-12-29T08:31:39.000Z</time>
      </trkpt>
      <trkpt lat="44.12922" lon="1.90788">
        <ele>180.3</ele>
        <time>2012-12-29T08:31:40.000Z</time>
      </trkpt>
      <trkpt lat="44.1292" lon="1.90784">
        <ele>180.2</ele>
        <time>2012-12-29T08:31:41.000Z</time>
      </trkpt>
      <trkpt lat="44.12917" lon="1.90779">
        <ele>180.3</ele>
        <time>2012-12-29T08:31:42.000Z</time>
      </trkpt>
      <trkpt lat="44.12915" lon="1.90774">
        <ele>180.4</ele>
        <time>2012-12-29T08:31:43.000Z</time>
      </trkpt>
      <trkpt lat="44.12912" lon="1.90769">
        <ele>181.4</ele>
        <time>2012-12-29T08:31:44.000Z</time>
      </trkpt>
      <trkpt lat="44.12909" lon="1.90763">
        <ele>182.3</ele>
        <time>2012-12-29T08:31:45.000Z</time>
      </trkpt>
      <trkpt lat="44.12906" lon="1.90758">
        <ele>182.5</ele>
        <time>2012-12-29T08:31:46.000Z</time>
      </trkpt>
      <trkpt lat="44.12902" lon="1.90752">
        <ele>182.6</ele>
        <time>2012-12-29T08:31:47.000Z</time>
      </trkpt>
      <trkpt lat="44.129" lon="1.90747">
        <ele>181.9</ele>
        <time>2012-12-29T08:31:48.000Z</time>
      </trkpt>
      <trkpt lat="44.12897" lon="1.90741">
        <ele>181.9</ele>
        <time>2012-12-29T08:31:49.000Z</time>
      </trkpt>
      <trkpt lat="44.12894" lon="1.90735">
        <ele>182.7</ele>
        <time>2012-12-29T08:31:50.000Z</time>
      </trkpt>
      <trkpt lat="44.12892" lon="1.90729">
        <ele>183.8</ele>
        <time>2012-12-29T08:31:51.000Z</time>
      </trkpt>
      <trkpt lat="44.1289" lon="1.90724">
        <ele>183.9</ele>
        <time>2012-12-29T08:31:52.000Z</time>
      </trkpt>
      <trkpt lat="44.12888" lon="1.90718">
        <ele>183.9</ele>
        <time>2012-12-29T08:31:53.000Z</time>
      </trkpt>
      <trkpt lat="44.12885" lon="1.90713">
        <ele>183.9</ele>
        <time>2012-12-29T08:31:54.000Z</time>
      </trkpt>
      <trkpt lat="44.12883" lon="1.90708">
        <ele>183.9</ele>
        <time>2012-12-29T08:31:55.000Z</time>
      </trkpt>
      <trkpt lat="44.12881" lon="1.90702">
        <ele>183.9</ele>
        <time>2012-12-29T08:31:56.000Z</time>
      </trkpt>
      <trkpt lat="44.1288" lon="1.90697">
        <ele>184</ele>
        <time>2012-12-29T08:31:57.000Z</time>
      </trkpt>
      <trkpt lat="44.12879" lon="1.90692">
        <ele>184</ele>
        <time>2012-12-29T08:31:58.000Z</time>
      </trkpt>
      <trkpt lat="44.12877" lon="1.90687">
        <ele>184</ele>
        <time>2012-12-29T08:31:59.000Z</time>
      </trkpt>
      <trkpt lat="44.12876" lon="1.90683">
        <ele>184.1</ele>
        <time>2012-12-29T08:32:00.000Z</time>
      </trkpt>
      <trkpt lat="44.12875" lon="1.90679">
        <ele>184.1</ele>
        <time>2012-12-29T08:32:01.000Z</time>
      </trkpt>
      <trkpt lat="44.12873" lon="1.90675">
        <ele>184.1</ele>
        <time>2012-12-29T08:32:02.000Z</time>
      </trkpt>
      <trkpt lat="44.12872" lon="1.90671">
        <ele>184.2</ele>
        <time>2012-12-29T08:32:03.000Z</time>
      </trkpt>
      <trkpt lat="44.1287" lon="1.90667">
        <ele>184.2</ele>
        <time>2012-12-29T08:32:04.000Z</time>
      </trkpt>
      <trkpt lat="44.12869" lon="1.90664">
        <ele>184.2</ele>
        <time>2012-12-29T08:32:05.000Z</time>
      </trkpt>
      <trkpt lat="44.12867" lon="1.9066">
        <ele>184.3</ele>
        <time>2012-12-29T08:32:06.000Z</time>
      </trkpt>
      <trkpt lat="44.12866" lon="1.90656">
        <ele>184.3</ele>
        <time>2012-12-29T08:32:07.000Z</time>
      </trkpt>
      <trkpt lat="44.12866" lon="1.90653">
        <ele>184.3</ele>
        <time>2012-12-29T08:32:08.000Z</time>
      </trkpt>
      <trkpt lat="44.12865" lon="1.90648">
        <ele>184.3</ele>
        <time>2012-12-29T08:32:09.000Z</time>
      </trkpt>
      <trkpt lat="44.12863" lon="1.90643">
        <ele>184.3</ele>
        <time>2012-12-29T08:32:10.000Z</time>
      </trkpt>
      <trkpt lat="44.12862" lon="1.90638">
        <ele>184.2</ele>
        <time>2012-12-29T08:32:11.000Z</time>
      </trkpt>
      <trkpt lat="44.12861" lon="1.90633">
        <ele>184.2</ele>
        <time>2012-12-29T08:32:12.000Z</time>
      </trkpt>
      <trkpt lat="44.12861" lon="1.90629">
        <ele>184.2</ele>
        <time>2012-12-29T08:32:13.000Z</time>
      </trkpt>
      <trkpt lat="44.1286" lon="1.90625">
        <ele>184.2</ele>
        <time>2012-12-29T08:32:14.000Z</time>
      </trkpt>
      <trkpt lat="44.12859" lon="1.90622">
        <ele>184.2</ele>
        <time>2012-12-29T08:32:15.000Z</time>
      </trkpt>
      <trkpt lat="44.12858" lon="1.90617">
        <ele>184.2</ele>
        <time>2012-12-29T08:32:16.000Z</time>
      </trkpt>
      <trkpt lat="44.12857" lon="1.90613">
        <ele>184.2</ele>
        <time>2012-12-29T08:32:17.000Z</time>
      </trkpt>
      <trkpt lat="44.12856" lon="1.90609">
        <ele>184.2</ele>
        <time>2012-12-29T08:32:18.000Z</time>
      </trkpt>
      <trkpt lat="44.12856" lon="1.90604">
        <ele>184.3</ele>
        <time>2012-12-29T08:32:19.000Z</time>
      </trkpt>
      <trkpt lat="44.12856" lon="1.90599">
        <ele>184.4</ele>
        <time>2012-12-29T08:32:20.000Z</time>
      </trkpt>
      <trkpt lat="44.12856" lon="1.90593">
        <ele>184.4</ele>
        <time>2012-12-29T08:32:21.000Z</time>
      </trkpt>
      <trkpt lat="44.12855" lon="1.90587">
        <ele>185.2</ele>
        <time>2012-12-29T08:32:22.000Z</time>
      </trkpt>
      <trkpt lat="44.12856" lon="1.90579">
        <ele>186.1</ele>
        <time>2012-12-29T08:32:23.000Z</time>
      </trkpt>
      <trkpt lat="44.12856" lon="1.90572">
        <ele>186.3</ele>
        <time>2012-12-29T08:32:24.000Z</time>
      </trkpt>
      <trkpt lat="44.12856" lon="1.90565">
        <ele>186.4</ele>
        <time>2012-12-29T08:32:25.000Z</time>
      </trkpt>
      <trkpt lat="44.12856" lon="1.90558">
        <ele>186.6</ele>
        <time>2012-12-29T08:32:26.000Z</time>
      </trkpt>
      <trkpt lat="44.12856" lon="1.90551">
        <ele>187</ele>
        <time>2012-12-29T08:32:27.000Z</time>
      </trkpt>
      <trkpt lat="44.12856" lon="1.90543">
        <ele>187.6</ele>
        <time>2012-12-29T08:32:28.000Z</time>
      </trkpt>
      <trkpt lat="44.12856" lon="1.90537">
        <ele>188</ele>
        <time>2012-12-29T08:32:29.000Z</time>
      </trkpt>
      <trkpt lat="44.12855" lon="1.9053">
        <ele>187.9</ele>
        <time>2012-12-29T08:32:30.000Z</time>
      </trkpt>
      <trkpt lat="44.12855" lon="1.90522">
        <ele>187.5</ele>
        <time>2012-12-29T08:32:31.000Z</time>
      </trkpt>
      <trkpt lat="44.12855" lon="1.90515">
        <ele>187.5</ele>
        <time>2012-12-29T08:32:32.000Z</time>
      </trkpt>
      <trkpt lat="44.12856" lon="1.90509">
        <ele>187.4</ele>
        <time>2012-12-29T08:32:33.000Z</time>
      </trkpt>
      <trkpt lat="44.12857" lon="1.90503">
        <ele>187.4</ele>
        <time>2012-12-29T08:32:34.000Z</time>
      </trkpt>
      <trkpt lat="44.12858" lon="1.90497">
        <ele>187.4</ele>
        <time>2012-12-29T08:32:35.000Z</time>
      </trkpt>
      <trkpt lat="44.12858" lon="1.90491">
        <ele>187.4</ele>
        <time>2012-12-29T08:32:36.000Z</time>
      </trkpt>
      <trkpt lat="44.12859" lon="1.90486">
        <ele>187.4</ele>
        <time>2012-12-29T08:32:37.000Z</time>
      </trkpt>
      <trkpt lat="44.12861" lon="1.9048">
        <ele>187.5</ele>
        <time>2012-12-29T08:32:38.000Z</time>
      </trkpt>
      <trkpt lat="44.12862" lon="1.90475">
        <ele>188.1</ele>
        <time>2012-12-29T08:32:39.000Z</time>
      </trkpt>
      <trkpt lat="44.12864" lon="1.90469">
        <ele>188.2</ele>
        <time>2012-12-29T08:32:40.000Z</time>
      </trkpt>
      <trkpt lat="44.12866" lon="1.90463">
        <ele>188.2</ele>
        <time>2012-12-29T08:32:41.000Z</time>
      </trkpt>
      <trkpt lat="44.12868" lon="1.90456">
        <ele>188.3</ele>
        <time>2012-12-29T08:32:42.000Z</time>
      </trkpt>
      <trkpt lat="44.1287" lon="1.9045">
        <ele>187.6</ele>
        <time>2012-12-29T08:32:43.000Z</time>
      </trkpt>
      <trkpt lat="44.12872" lon="1.90443">
        <ele>187.4</ele>
        <time>2012-12-29T08:32:44.000Z</time>
      </trkpt>
      <trkpt lat="44.12874" lon="1.90436">
        <ele>187.1</ele>
        <time>2012-12-29T08:32:45.000Z</time>
      </trkpt>
      <trkpt lat="44.12874" lon="1.9043">
        <ele>186.3</ele>
        <time>2012-12-29T08:32:46.000Z</time>
      </trkpt>
      <trkpt lat="44.12875" lon="1.90424">
        <ele>185.8</ele>
        <time>2012-12-29T08:32:47.000Z</time>
      </trkpt>
      <trkpt lat="44.12876" lon="1.90418">
        <ele>185</ele>
        <time>2012-12-29T08:32:48.000Z</time>
      </trkpt>
      <trkpt lat="44.12877" lon="1.90413">
        <ele>184.4</ele>
        <time>2012-12-29T08:32:49.000Z</time>
      </trkpt>
      <trkpt lat="44.12878" lon="1.90407">
        <ele>184.1</ele>
        <time>2012-12-29T08:32:50.000Z</time>
      </trkpt>
      <trkpt lat="44.12879" lon="1.90402">
        <ele>183.7</ele>
        <time>2012-12-29T08:32:51.000Z</time>
      </trkpt>
      <trkpt lat="44.1288" lon="1.90396">
        <ele>183.6</ele>
        <time>2012-12-29T08:32:52.000Z</time>
      </trkpt>
      <trkpt lat="44.12881" lon="1.9039">
        <ele>183.3</ele>
        <time>2012-12-29T08:32:53.000Z</time>
      </trkpt>
      <trkpt lat="44.12882" lon="1.90384">
        <ele>183.2</ele>
        <time>2012-12-29T08:32:54.000Z</time>
      </trkpt>
      <trkpt lat="44.12883" lon="1.90378">
        <ele>183.4</ele>
        <time>2012-12-29T08:32:55.000Z</time>
      </trkpt>
      <trkpt lat="44.12883" lon="1.90373">
        <ele>183.3</ele>
        <time>2012-12-29T08:32:56.000Z</time>
      </trkpt>
      <trkpt lat="44.12883" lon="1.90368">
        <ele>183.3</ele>
        <time>2012-12-29T08:32:57.000Z</time>
      </trkpt>
      <trkpt lat="44.12883" lon="1.90363">
        <ele>183.3</ele>
        <time>2012-12-29T08:32:58.000Z</time>
      </trkpt>
      <trkpt lat="44.12884" lon="1.90357">
        <ele>183.2</ele>
        <time>2012-12-29T08:32:59.000Z</time>
      </trkpt>
      <trkpt lat="44.12885" lon="1.90351">
        <ele>183.2</ele>
        <time>2012-12-29T08:33:00.000Z</time>
      </trkpt>
      <trkpt lat="44.12887" lon="1.90345">
        <ele>183.2</ele>
        <time>2012-12-29T08:33:01.000Z</time>
      </trkpt>
      <trkpt lat="44.12889" lon="1.90339">
        <ele>183.1</ele>
        <time>2012-12-29T08:33:02.000Z</time>
      </trkpt>
      <trkpt lat="44.12891" lon="1.90334">
        <ele>183.1</ele>
        <time>2012-12-29T08:33:03.000Z</time>
      </trkpt>
      <trkpt lat="44.12892" lon="1.90329">
        <ele>183.1</ele>
        <time>2012-12-29T08:33:04.000Z</time>
      </trkpt>
      <trkpt lat="44.12894" lon="1.90323">
        <ele>183</ele>
        <time>2012-12-29T08:33:05.000Z</time>
      </trkpt>
      <trkpt lat="44.12896" lon="1.90318">
        <ele>182.8</ele>
        <time>2012-12-29T08:33:06.000Z</time>
      </trkpt>
      <trkpt lat="44.12898" lon="1.90312">
        <ele>182.6</ele>
        <time>2012-12-29T08:33:07.000Z</time>
      </trkpt>
      <trkpt lat="44.129" lon="1.90307">
        <ele>182.5</ele>
        <time>2012-12-29T08:33:08.000Z</time>
      </trkpt>
      <trkpt lat="44.12901" lon="1.903">
        <ele>182.5</ele>
        <time>2012-12-29T08:33:09.000Z</time>
      </trkpt>
      <trkpt lat="44.12902" lon="1.90294">
        <ele>182.5</ele>
        <time>2012-12-29T08:33:10.000Z</time>
      </trkpt>
      <trkpt lat="44.12904" lon="1.90288">
        <ele>182.5</ele>
        <time>2012-12-29T08:33:11.000Z</time>
      </trkpt>
      <trkpt lat="44.12906" lon="1.90282">
        <ele>182.4</ele>
        <time>2012-12-29T08:33:12.000Z</time>
      </trkpt>
      <trkpt lat="44.12907" lon="1.90277">
        <ele>182.4</ele>
        <time>2012-12-29T08:33:13.000Z</time>
      </trkpt>
      <trkpt lat="44.12909" lon="1.90271">
        <ele>182.5</ele>
        <time>2012-12-29T08:33:14.000Z</time>
      </trkpt>
      <trkpt lat="44.1291" lon="1.90266">
        <ele>182.5</ele>
        <time>2012-12-29T08:33:15.000Z</time>
      </trkpt>
      <trkpt lat="44.12912" lon="1.90261">
        <ele>182.7</ele>
        <time>2012-12-29T08:33:16.000Z</time>
      </trkpt>
      <trkpt lat="44.12913" lon="1.90255">
        <ele>182.7</ele>
        <time>2012-12-29T08:33:17.000Z</time>
      </trkpt>
      <trkpt lat="44.12915" lon="1.9025">
        <ele>182.8</ele>
        <time>2012-12-29T08:33:18.000Z</time>
      </trkpt>
      <trkpt lat="44.12916" lon="1.90245">
        <ele>182.8</ele>
        <time>2012-12-29T08:33:19.000Z</time>
      </trkpt>
      <trkpt lat="44.12918" lon="1.90241">
        <ele>182.8</ele>
        <time>2012-12-29T08:33:20.000Z</time>
      </trkpt>
      <trkpt lat="44.1292" lon="1.90235">
        <ele>182.8</ele>
        <time>2012-12-29T08:33:21.000Z</time>
      </trkpt>
      <trkpt lat="44.12922" lon="1.9023">
        <ele>182.8</ele>
        <time>2012-12-29T08:33:22.000Z</time>
      </trkpt>
      <trkpt lat="44.12924" lon="1.90225">
        <ele>182.8</ele>
        <time>2012-12-29T08:33:23.000Z</time>
      </trkpt>
      <trkpt lat="44.12926" lon="1.9022">
        <ele>182.9</ele>
        <time>2012-12-29T08:33:24.000Z</time>
      </trkpt>
      <trkpt lat="44.12927" lon="1.90216">
        <ele>182.9</ele>
        <time>2012-12-29T08:33:25.000Z</time>
      </trkpt>
      <trkpt lat="44.1293" lon="1.90211">
        <ele>182.9</ele>
        <time>2012-12-29T08:33:26.000Z</time>
      </trkpt>
      <trkpt lat="44.12932" lon="1.90206">
        <ele>182.9</ele>
        <time>2012-12-29T08:33:27.000Z</time>
      </trkpt>
      <trkpt lat="44.12934" lon="1.90201">
        <ele>182.9</ele>
        <time>2012-12-29T08:33:28.000Z</time>
      </trkpt>
      <trkpt lat="44.12936" lon="1.90196">
        <ele>182.9</ele>
        <time>2012-12-29T08:33:29.000Z</time>
      </trkpt>
      <trkpt lat="44.12938" lon="1.90192">
        <ele>182.8</ele>
        <time>2012-12-29T08:33:30.000Z</time>
      </trkpt>
      <trkpt lat="44.1294" lon="1.90188">
        <ele>182.8</ele>
        <time>2012-12-29T08:33:31.000Z</time>
      </trkpt>
      <trkpt lat="44.12942" lon="1.90185">
        <ele>182.8</ele>
        <time>2012-12-29T08:33:32.000Z</time>
      </trkpt>
      <trkpt lat="44.12944" lon="1.90181">
        <ele>182.7</ele>
        <time>2012-12-29T08:33:33.000Z</time>
      </trkpt>
      <trkpt lat="44.12946" lon="1.90177">
        <ele>182.7</ele>
        <time>2012-12-29T08:33:34.000Z</time>
      </trkpt>
      <trkpt lat="44.12949" lon="1.90173">
        <ele>182.6</ele>
        <time>2012-12-29T08:33:35.000Z</time>
      </trkpt>
      <trkpt lat="44.12951" lon="1.9017">
        <ele>182.6</ele>
        <time>2012-12-29T08:33:36.000Z</time>
      </trkpt>
      <trkpt lat="44.12954" lon="1.90166">
        <ele>182.5</ele>
        <time>2012-12-29T08:33:37.000Z</time>
      </trkpt>
      <trkpt lat="44.12957" lon="1.90161">
        <ele>182.5</ele>
        <time>2012-12-29T08:33:38.000Z</time>
      </trkpt>
      <trkpt lat="44.1296" lon="1.90157">
        <ele>182.5</ele>
        <time>2012-12-29T08:33:39.000Z</time>
      </trkpt>
      <trkpt lat="44.12963" lon="1.90153">
        <ele>182.5</ele>
        <time>2012-12-29T08:33:40.000Z</time>
      </trkpt>
      <trkpt lat="44.12966" lon="1.9015">
        <ele>182.5</ele>
        <time>2012-12-29T08:33:41.000Z</time>
      </trkpt>
      <trkpt lat="44.12969" lon="1.90147">
        <ele>182.5</ele>
        <time>2012-12-29T08:33:42.000Z</time>
      </trkpt>
      <trkpt lat="44.12971" lon="1.90144">
        <ele>182.5</ele>
        <time>2012-12-29T08:33:43.000Z</time>
      </trkpt>
      <trkpt lat="44.12974" lon="1.9014">
        <ele>182.5</ele>
        <time>2012-12-29T08:33:44.000Z</time>
      </trkpt>
      <trkpt lat="44.12978" lon="1.90136">
        <ele>182.5</ele>
        <time>2012-12-29T08:33:45.000Z</time>
      </trkpt>
      <trkpt lat="44.12981" lon="1.90132">
        <ele>182.5</ele>
        <time>2012-12-29T08:33:46.000Z</time>
      </trkpt>
      <trkpt lat="44.12984" lon="1.90129">
        <ele>182.6</ele>
        <time>2012-12-29T08:33:47.000Z</time>
      </trkpt>
      <trkpt lat="44.12987" lon="1.90125">
        <ele>182.6</ele>
        <time>2012-12-29T08:33:48.000Z</time>
      </trkpt>
      <trkpt lat="44.1299" lon="1.90121">
        <ele>182.7</ele>
        <time>2012-12-29T08:33:49.000Z</time>
      </trkpt>
      <trkpt lat="44.12994" lon="1.90116">
        <ele>182.7</ele>
        <time>2012-12-29T08:33:50.000Z</time>
      </trkpt>
      <trkpt lat="44.12997" lon="1.90113">
        <ele>182.8</ele>
        <time>2012-12-29T08:33:51.000Z</time>
      </trkpt>
      <trkpt lat="44.13" lon="1.9011">
        <ele>182.9</ele>
        <time>2012-12-29T08:33:52.000Z</time>
      </trkpt>
      <trkpt lat="44.13003" lon="1.90106">
        <ele>183</ele>
        <time>2012-12-29T08:33:53.000Z</time>
      </trkpt>
      <trkpt lat="44.13005" lon="1.90103">
        <ele>183.1</ele>
        <time>2012-12-29T08:33:54.000Z</time>
      </trkpt>
      <trkpt lat="44.13008" lon="1.90099">
        <ele>183.7</ele>
        <time>2012-12-29T08:33:55.000Z</time>
      </trkpt>
      <trkpt lat="44.13011" lon="1.90096">
        <ele>183.8</ele>
        <time>2012-12-29T08:33:56.000Z</time>
      </trkpt>
      <trkpt lat="44.13014" lon="1.90092">
        <ele>183.8</ele>
        <time>2012-12-29T08:33:57.000Z</time>
      </trkpt>
      <trkpt lat="44.13017" lon="1.90089">
        <ele>183.8</ele>
        <time>2012-12-29T08:33:58.000Z</time>
      </trkpt>
      <trkpt lat="44.1302" lon="1.90086">
        <ele>183.8</ele>
        <time>2012-12-29T08:33:59.000Z</time>
      </trkpt>
      <trkpt lat="44.13023" lon="1.90083">
        <ele>183.8</ele>
        <time>2012-12-29T08:34:00.000Z</time>
      </trkpt>
      <trkpt lat="44.13026" lon="1.9008">
        <ele>183.8</ele>
        <time>2012-12-29T08:34:01.000Z</time>
      </trkpt>
      <trkpt lat="44.13029" lon="1.90076">
        <ele>183.8</ele>
        <time>2012-12-29T08:34:02.000Z</time>
      </trkpt>
      <trkpt lat="44.13033" lon="1.90073">
        <ele>183.3</ele>
        <time>2012-12-29T08:34:03.000Z</time>
      </trkpt>
      <trkpt lat="44.13036" lon="1.90069">
        <ele>183.3</ele>
        <time>2012-12-29T08:34:04.000Z</time>
      </trkpt>
      <trkpt lat="44.1304" lon="1.90065">
        <ele>183.1</ele>
        <time>2012-12-29T08:34:05.000Z</time>
      </trkpt>
      <trkpt lat="44.13043" lon="1.90062">
        <ele>183.1</ele>
        <time>2012-12-29T08:34:06.000Z</time>
      </trkpt>
      <trkpt lat="44.13047" lon="1.90059">
        <ele>183</ele>
        <time>2012-12-29T08:34:07.000Z</time>
      </trkpt>
      <trkpt lat="44.1305" lon="1.90056">
        <ele>182.9</ele>
        <time>2012-12-29T08:34:08.000Z</time>
      </trkpt>
      <trkpt lat="44.13053" lon="1.90053">
        <ele>182.2</ele>
        <time>2012-12-29T08:34:09.000Z</time>
      </trkpt>
      <trkpt lat="44.13056" lon="1.9005">
        <ele>182.1</ele>
        <time>2012-12-29T08:34:10.000Z</time>
      </trkpt>
      <trkpt lat="44.13059" lon="1.90048">
        <ele>182</ele>
        <time>2012-12-29T08:34:11.000Z</time>
      </trkpt>
      <trkpt lat="44.13063" lon="1.90045">
        <ele>182</ele>
        <time>2012-12-29T08:34:12.000Z</time>
      </trkpt>
      <trkpt lat="44.13066" lon="1.90043">
        <ele>182</ele>
        <time>2012-12-29T08:34:13.000Z</time>
      </trkpt>
      <trkpt lat="44.13069" lon="1.90041">
        <ele>181.9</ele>
        <time>2012-12-29T08:34:14.000Z</time>
      </trkpt>
      <trkpt lat="44.13073" lon="1.90038">
        <ele>181.7</ele>
        <time>2012-12-29T08:34:15.000Z</time>
      </trkpt>
      <trkpt lat="44.13075" lon="1.90036">
        <ele>181.7</ele>
        <time>2012-12-29T08:34:16.000Z</time>
      </trkpt>
      <trkpt lat="44.13078" lon="1.90034">
        <ele>181.8</ele>
        <time>2012-12-29T08:34:17.000Z</time>
      </trkpt>
      <trkpt lat="44.13081" lon="1.90031">
        <ele>181.8</ele>
        <time>2012-12-29T08:34:18.000Z</time>
      </trkpt>
      <trkpt lat="44.13084" lon="1.90028">
        <ele>181.9</ele>
        <time>2012-12-29T08:34:19.000Z</time>
      </trkpt>
      <trkpt lat="44.13088" lon="1.90025">
        <ele>181.9</ele>
        <time>2012-12-29T08:34:20.000Z</time>
      </trkpt>
      <trkpt lat="44.13092" lon="1.90021">
        <ele>181.9</ele>
        <time>2012-12-29T08:34:21.000Z</time>
      </trkpt>
      <trkpt lat="44.13095" lon="1.90018">
        <ele>181.8</ele>
        <time>2012-12-29T08:34:22.000Z</time>
      </trkpt>
      <trkpt lat="44.13099" lon="1.90015">
        <ele>181.9</ele>
        <time>2012-12-29T08:34:23.000Z</time>
      </trkpt>
      <trkpt lat="44.13102" lon="1.90012">
        <ele>181.9</ele>
        <time>2012-12-29T08:34:24.000Z</time>
      </trkpt>
      <trkpt lat="44.13106" lon="1.90008">
        <ele>181.8</ele>
        <time>2012-12-29T08:34:25.000Z</time>
      </trkpt>
      <trkpt lat="44.13109" lon="1.90004">
        <ele>181.8</ele>
        <time>2012-12-29T08:34:26.000Z</time>
      </trkpt>
      <trkpt lat="44.13112" lon="1.90001">
        <ele>181.8</ele>
        <time>2012-12-29T08:34:27.000Z</time>
      </trkpt>
      <trkpt lat="44.13114" lon="1.89997">
        <ele>181.9</ele>
        <time>2012-12-29T08:34:28.000Z</time>
      </trkpt>
      <trkpt lat="44.13117" lon="1.89994">
        <ele>182</ele>
        <time>2012-12-29T08:34:29.000Z</time>
      </trkpt>
      <trkpt lat="44.13119" lon="1.89991">
        <ele>182</ele>
        <time>2012-12-29T08:34:30.000Z</time>
      </trkpt>
      <trkpt lat="44.13122" lon="1.89988">
        <ele>182</ele>
        <time>2012-12-29T08:34:31.000Z</time>
      </trkpt>
      <trkpt lat="44.13126" lon="1.89984">
        <ele>182</ele>
        <time>2012-12-29T08:34:32.000Z</time>
      </trkpt>
      <trkpt lat="44.13129" lon="1.89981">
        <ele>181.9</ele>
        <time>2012-12-29T08:34:33.000Z</time>
      </trkpt>
      <trkpt lat="44.13132" lon="1.89978">
        <ele>181.8</ele>
        <time>2012-12-29T08:34:34.000Z</time>
      </trkpt>
      <trkpt lat="44.13135" lon="1.89974">
        <ele>181.7</ele>
        <time>2012-12-29T08:34:35.000Z</time>
      </trkpt>
      <trkpt lat="44.13137" lon="1.8997">
        <ele>181.5</ele>
        <time>2012-12-29T08:34:36.000Z</time>
      </trkpt>
      <trkpt lat="44.1314" lon="1.89966">
        <ele>181.4</ele>
        <time>2012-12-29T08:34:37.000Z</time>
      </trkpt>
      <trkpt lat="44.13142" lon="1.89962">
        <ele>181.4</ele>
        <time>2012-12-29T08:34:38.000Z</time>
      </trkpt>
      <trkpt lat="44.13144" lon="1.89959">
        <ele>181.4</ele>
        <time>2012-12-29T08:34:39.000Z</time>
      </trkpt>
      <trkpt lat="44.13146" lon="1.89957">
        <ele>181.4</ele>
        <time>2012-12-29T08:34:40.000Z</time>
      </trkpt>
      <trkpt lat="44.13148" lon="1.89954">
        <ele>181.4</ele>
        <time>2012-12-29T08:34:41.000Z</time>
      </trkpt>
      <trkpt lat="44.13151" lon="1.8995">
        <ele>181.5</ele>
        <time>2012-12-29T08:34:42.000Z</time>
      </trkpt>
      <trkpt lat="44.13153" lon="1.89946">
        <ele>181.5</ele>
        <time>2012-12-29T08:34:43.000Z</time>
      </trkpt>
      <trkpt lat="44.13156" lon="1.89942">
        <ele>181.6</ele>
        <time>2012-12-29T08:34:44.000Z</time>
      </trkpt>
      <trkpt lat="44.13158" lon="1.89941">
        <ele>181.6</ele>
        <time>2012-12-29T08:34:45.000Z</time>
      </trkpt>
      <trkpt lat="44.1316" lon="1.89938">
        <ele>181.6</ele>
        <time>2012-12-29T08:34:46.000Z</time>
      </trkpt>
      <trkpt lat="44.13163" lon="1.89935">
        <ele>181.6</ele>
        <time>2012-12-29T08:34:47.000Z</time>
      </trkpt>
      <trkpt lat="44.13165" lon="1.89932">
        <ele>181.6</ele>
        <time>2012-12-29T08:34:48.000Z</time>
      </trkpt>
      <trkpt lat="44.13167" lon="1.89929">
        <ele>181.6</ele>
        <time>2012-12-29T08:34:49.000Z</time>
      </trkpt>
      <trkpt lat="44.13169" lon="1.89926">
        <ele>181.6</ele>
        <time>2012-12-29T08:34:50.000Z</time>
      </trkpt>
      <trkpt lat="44.13171" lon="1.89923">
        <ele>181.6</ele>
        <time>2012-12-29T08:34:51.000Z</time>
      </trkpt>
      <trkpt lat="44.13173" lon="1.89921">
        <ele>181.7</ele>
        <time>2012-12-29T08:34:52.000Z</time>
      </trkpt>
      <trkpt lat="44.13175" lon="1.89918">
        <ele>181.7</ele>
        <time>2012-12-29T08:34:53.000Z</time>
      </trkpt>
      <trkpt lat="44.13177" lon="1.89914">
        <ele>181.7</ele>
        <time>2012-12-29T08:34:54.000Z</time>
      </trkpt>
      <trkpt lat="44.1318" lon="1.89911">
        <ele>181.8</ele>
        <time>2012-12-29T08:34:55.000Z</time>
      </trkpt>
      <trkpt lat="44.13182" lon="1.89907">
        <ele>181.9</ele>
        <time>2012-12-29T08:34:56.000Z</time>
      </trkpt>
      <trkpt lat="44.13184" lon="1.89904">
        <ele>182</ele>
        <time>2012-12-29T08:34:57.000Z</time>
      </trkpt>
      <trkpt lat="44.13186" lon="1.89899">
        <ele>182.2</ele>
        <time>2012-12-29T08:34:58.000Z</time>
      </trkpt>
      <trkpt lat="44.13188" lon="1.89896">
        <ele>182.3</ele>
        <time>2012-12-29T08:34:59.000Z</time>
      </trkpt>
      <trkpt lat="44.1319" lon="1.89892">
        <ele>182.4</ele>
        <time>2012-12-29T08:35:00.000Z</time>
      </trkpt>
      <trkpt lat="44.13193" lon="1.89888">
        <ele>182.5</ele>
        <time>2012-12-29T08:35:01.000Z</time>
      </trkpt>
      <trkpt lat="44.13195" lon="1.89884">
        <ele>182.7</ele>
        <time>2012-12-29T08:35:02.000Z</time>
      </trkpt>
      <trkpt lat="44.13198" lon="1.89881">
        <ele>182.9</ele>
        <time>2012-12-29T08:35:03.000Z</time>
      </trkpt>
      <trkpt lat="44.13201" lon="1.89877">
        <ele>183</ele>
        <time>2012-12-29T08:35:04.000Z</time>
      </trkpt>
      <trkpt lat="44.13203" lon="1.89874">
        <ele>183.2</ele>
        <time>2012-12-29T08:35:05.000Z</time>
      </trkpt>
      <trkpt lat="44.13205" lon="1.89869">
        <ele>183.4</ele>
        <time>2012-12-29T08:35:06.000Z</time>
      </trkpt>
      <trkpt lat="44.13207" lon="1.89865">
        <ele>183.6</ele>
        <time>2012-12-29T08:35:07.000Z</time>
      </trkpt>
      <trkpt lat="44.1321" lon="1.89861">
        <ele>183.8</ele>
        <time>2012-12-29T08:35:08.000Z</time>
      </trkpt>
      <trkpt lat="44.13212" lon="1.89858">
        <ele>184</ele>
        <time>2012-12-29T08:35:09.000Z</time>
      </trkpt>
      <trkpt lat="44.13214" lon="1.89855">
        <ele>184.2</ele>
        <time>2012-12-29T08:35:10.000Z</time>
      </trkpt>
      <trkpt lat="44.13216" lon="1.89852">
        <ele>184.4</ele>
        <time>2012-12-29T08:35:11.000Z</time>
      </trkpt>
      <trkpt lat="44.13219" lon="1.89849">
        <ele>184.6</ele>
        <time>2012-12-29T08:35:12.000Z</time>
      </trkpt>
      <trkpt lat="44.13221" lon="1.89846">
        <ele>184.8</ele>
        <time>2012-12-29T08:35:13.000Z</time>
      </trkpt>
      <trkpt lat="44.13223" lon="1.89843">
        <ele>185.1</ele>
        <time>2012-12-29T08:35:14.000Z</time>
      </trkpt>
      <trkpt lat="44.13226" lon="1.8984">
        <ele>185.3</ele>
        <time>2012-12-29T08:35:15.000Z</time>
      </trkpt>
      <trkpt lat="44.13228" lon="1.89837">
        <ele>185.6</ele>
        <time>2012-12-29T08:35:16.000Z</time>
      </trkpt>
      <trkpt lat="44.13231" lon="1.89835">
        <ele>185.8</ele>
        <time>2012-12-29T08:35:17.000Z</time>
      </trkpt>
      <trkpt lat="44.13233" lon="1.89832">
        <ele>186</ele>
        <time>2012-12-29T08:35:18.000Z</time>
      </trkpt>
      <trkpt lat="44.13235" lon="1.8983">
        <ele>186.1</ele>
        <time>2012-12-29T08:35:19.000Z</time>
      </trkpt>
      <trkpt lat="44.13237" lon="1.89827">
        <ele>186.2</ele>
        <time>2012-12-29T08:35:20.000Z</time>
      </trkpt>
      <trkpt lat="44.1324" lon="1.89825">
        <ele>186.3</ele>
        <time>2012-12-29T08:35:21.000Z</time>
      </trkpt>
      <trkpt lat="44.13242" lon="1.89821">
        <ele>186.3</ele>
        <time>2012-12-29T08:35:22.000Z</time>
      </trkpt>
      <trkpt lat="44.13245" lon="1.89818">
        <ele>186.3</ele>
        <time>2012-12-29T08:35:23.000Z</time>
      </trkpt>
      <trkpt lat="44.13247" lon="1.89815">
        <ele>186.4</ele>
        <time>2012-12-29T08:35:24.000Z</time>
      </trkpt>
      <trkpt lat="44.1325" lon="1.89812">
        <ele>186.5</ele>
        <time>2012-12-29T08:35:25.000Z</time>
      </trkpt>
      <trkpt lat="44.13252" lon="1.89809">
        <ele>186.6</ele>
        <time>2012-12-29T08:35:26.000Z</time>
      </trkpt>
      <trkpt lat="44.13255" lon="1.89806">
        <ele>186.6</ele>
        <time>2012-12-29T08:35:27.000Z</time>
      </trkpt>
      <trkpt lat="44.13258" lon="1.89804">
        <ele>186.8</ele>
        <time>2012-12-29T08:35:28.000Z</time>
      </trkpt>
      <trkpt lat="44.13261" lon="1.89802">
        <ele>186.9</ele>
        <time>2012-12-29T08:35:29.000Z</time>
      </trkpt>
      <trkpt lat="44.13263" lon="1.89799">
        <ele>187.1</ele>
        <time>2012-12-29T08:35:30.000Z</time>
      </trkpt>
      <trkpt lat="44.13266" lon="1.89796">
        <ele>187.1</ele>
        <time>2012-12-29T08:35:31.000Z</time>
      </trkpt>
      <trkpt lat="44.13269" lon="1.89794">
        <ele>187.2</ele>
        <time>2012-12-29T08:35:32.000Z</time>
      </trkpt>
      <trkpt lat="44.13272" lon="1.89791">
        <ele>187.3</ele>
        <time>2012-12-29T08:35:33.000Z</time>
      </trkpt>
      <trkpt lat="44.13275" lon="1.89788">
        <ele>187.4</ele>
        <time>2012-12-29T08:35:34.000Z</time>
      </trkpt>
      <trkpt lat="44.13277" lon="1.89786">
        <ele>187.5</ele>
        <time>2012-12-29T08:35:35.000Z</time>
      </trkpt>
      <trkpt lat="44.1328" lon="1.89783">
        <ele>187.5</ele>
        <time>2012-12-29T08:35:36.000Z</time>
      </trkpt>
      <trkpt lat="44.13282" lon="1.8978">
        <ele>187.6</ele>
        <time>2012-12-29T08:35:37.000Z</time>
      </trkpt>
      <trkpt lat="44.13284" lon="1.89778">
        <ele>187.6</ele>
        <time>2012-12-29T08:35:38.000Z</time>
      </trkpt>
      <trkpt lat="44.13287" lon="1.89776">
        <ele>187.6</ele>
        <time>2012-12-29T08:35:39.000Z</time>
      </trkpt>
      <trkpt lat="44.1329" lon="1.89775">
        <ele>187.6</ele>
        <time>2012-12-29T08:35:40.000Z</time>
      </trkpt>
      <trkpt lat="44.13294" lon="1.89773">
        <ele>187.7</ele>
        <time>2012-12-29T08:35:41.000Z</time>
      </trkpt>
      <trkpt lat="44.13299" lon="1.89771">
        <ele>188.4</ele>
        <time>2012-12-29T08:35:42.000Z</time>
      </trkpt>
      <trkpt lat="44.13303" lon="1.89769">
        <ele>188.5</ele>
        <time>2012-12-29T08:35:43.000Z</time>
      </trkpt>
      <trkpt lat="44.13306" lon="1.89767">
        <ele>188.6</ele>
        <time>2012-12-29T08:35:44.000Z</time>
      </trkpt>
      <trkpt lat="44.1331" lon="1.89766">
        <ele>188.6</ele>
        <time>2012-12-29T08:35:45.000Z</time>
      </trkpt>
      <trkpt lat="44.13313" lon="1.89763">
        <ele>188.7</ele>
        <time>2012-12-29T08:35:46.000Z</time>
      </trkpt>
      <trkpt lat="44.13317" lon="1.89761">
        <ele>188.8</ele>
        <time>2012-12-29T08:35:47.000Z</time>
      </trkpt>
      <trkpt lat="44.13321" lon="1.89758">
        <ele>188.8</ele>
        <time>2012-12-29T08:35:48.000Z</time>
      </trkpt>
      <trkpt lat="44.13324" lon="1.89756">
        <ele>188.9</ele>
        <time>2012-12-29T08:35:49.000Z</time>
      </trkpt>
      <trkpt lat="44.13328" lon="1.89753">
        <ele>188.9</ele>
        <time>2012-12-29T08:35:50.000Z</time>
      </trkpt>
      <trkpt lat="44.13331" lon="1.89752">
        <ele>189</ele>
        <time>2012-12-29T08:35:51.000Z</time>
      </trkpt>
      <trkpt lat="44.13334" lon="1.8975">
        <ele>189.1</ele>
        <time>2012-12-29T08:35:52.000Z</time>
      </trkpt>
      <trkpt lat="44.13337" lon="1.89749">
        <ele>189.2</ele>
        <time>2012-12-29T08:35:53.000Z</time>
      </trkpt>
      <trkpt lat="44.13341" lon="1.89746">
        <ele>189.4</ele>
        <time>2012-12-29T08:35:54.000Z</time>
      </trkpt>
      <trkpt lat="44.13344" lon="1.89745">
        <ele>189.5</ele>
        <time>2012-12-29T08:35:55.000Z</time>
      </trkpt>
      <trkpt lat="44.13346" lon="1.89743">
        <ele>189.7</ele>
        <time>2012-12-29T08:35:56.000Z</time>
      </trkpt>
      <trkpt lat="44.1335" lon="1.89741">
        <ele>190.1</ele>
        <time>2012-12-29T08:35:58.000Z</time>
      </trkpt>
      <trkpt lat="44.13352" lon="1.8974">
        <ele>190.3</ele>
        <time>2012-12-29T08:35:59.000Z</time>
      </trkpt>
      <trkpt lat="44.13354" lon="1.89739">
        <ele>190.5</ele>
        <time>2012-12-29T08:36:00.000Z</time>
      </trkpt>
      <trkpt lat="44.13357" lon="1.89738">
        <ele>190.6</ele>
        <time>2012-12-29T08:36:01.000Z</time>
      </trkpt>
      <trkpt lat="44.13359" lon="1.89737">
        <ele>190.8</ele>
        <time>2012-12-29T08:36:02.000Z</time>
      </trkpt>
      <trkpt lat="44.13362" lon="1.89735">
        <ele>191</ele>
        <time>2012-12-29T08:36:03.000Z</time>
      </trkpt>
      <trkpt lat="44.13365" lon="1.89733">
        <ele>191.3</ele>
        <time>2012-12-29T08:36:04.000Z</time>
      </trkpt>
      <trkpt lat="44.13368" lon="1.89731">
        <ele>191.5</ele>
        <time>2012-12-29T08:36:05.000Z</time>
      </trkpt>
      <trkpt lat="44.13372" lon="1.8973">
        <ele>191.7</ele>
        <time>2012-12-29T08:36:06.000Z</time>
      </trkpt>
      <trkpt lat="44.13376" lon="1.89728">
        <ele>191.8</ele>
        <time>2012-12-29T08:36:07.000Z</time>
      </trkpt>
      <trkpt lat="44.13379" lon="1.89725">
        <ele>191.9</ele>
        <time>2012-12-29T08:36:08.000Z</time>
      </trkpt>
      <trkpt lat="44.13383" lon="1.89722">
        <ele>192</ele>
        <time>2012-12-29T08:36:09.000Z</time>
      </trkpt>
      <trkpt lat="44.13386" lon="1.89717">
        <ele>193.3</ele>
        <time>2012-12-29T08:36:10.000Z</time>
      </trkpt>
      <trkpt lat="44.1339" lon="1.89712">
        <ele>194.6</ele>
        <time>2012-12-29T08:36:11.000Z</time>
      </trkpt>
      <trkpt lat="44.13396" lon="1.89706">
        <ele>195.5</ele>
        <time>2012-12-29T08:36:12.000Z</time>
      </trkpt>
      <trkpt lat="44.13404" lon="1.89699">
        <ele>195.5</ele>
        <time>2012-12-29T08:36:13.000Z</time>
      </trkpt>
      <trkpt lat="44.13412" lon="1.89691">
        <ele>195.3</ele>
        <time>2012-12-29T08:36:14.000Z</time>
      </trkpt>
      <trkpt lat="44.13421" lon="1.89682">
        <ele>195.1</ele>
        <time>2012-12-29T08:36:15.000Z</time>
      </trkpt>
      <trkpt lat="44.13429" lon="1.89674">
        <ele>195.1</ele>
        <time>2012-12-29T08:36:16.000Z</time>
      </trkpt>
      <trkpt lat="44.13437" lon="1.89666">
        <ele>194.8</ele>
        <time>2012-12-29T08:36:17.000Z</time>
      </trkpt>
      <trkpt lat="44.13444" lon="1.89659">
        <ele>194.6</ele>
        <time>2012-12-29T08:36:18.000Z</time>
      </trkpt>
      <trkpt lat="44.13451" lon="1.89651">
        <ele>194</ele>
        <time>2012-12-29T08:36:19.000Z</time>
      </trkpt>
      <trkpt lat="44.13457" lon="1.89644">
        <ele>193.4</ele>
        <time>2012-12-29T08:36:20.000Z</time>
      </trkpt>
      <trkpt lat="44.13464" lon="1.89637">
        <ele>192.8</ele>
        <time>2012-12-29T08:36:21.000Z</time>
      </trkpt>
      <trkpt lat="44.1347" lon="1.8963">
        <ele>192.2</ele>
        <time>2012-12-29T08:36:22.000Z</time>
      </trkpt>
      <trkpt lat="44.13476" lon="1.89623">
        <ele>191.5</ele>
        <time>2012-12-29T08:36:23.000Z</time>
      </trkpt>
      <trkpt lat="44.13481" lon="1.89616">
        <ele>191.3</ele>
        <time>2012-12-29T08:36:24.000Z</time>
      </trkpt>
      <trkpt lat="44.13487" lon="1.89609">
        <ele>191.2</ele>
        <time>2012-12-29T08:36:25.000Z</time>
      </trkpt>
      <trkpt lat="44.13493" lon="1.89606">
        <ele>191</ele>
        <time>2012-12-29T08:36:26.000Z</time>
      </trkpt>
      <trkpt lat="44.13498" lon="1.89603">
        <ele>190.6</ele>
        <time>2012-12-29T08:36:27.000Z</time>
      </trkpt>
      <trkpt lat="44.13503" lon="1.89601">
        <ele>190.2</ele>
        <time>2012-12-29T08:36:28.000Z</time>
      </trkpt>
      <trkpt lat="44.13508" lon="1.89598">
        <ele>189.6</ele>
        <time>2012-12-29T08:36:29.000Z</time>
      </trkpt>
      <trkpt lat="44.13513" lon="1.89596">
        <ele>188.7</ele>
        <time>2012-12-29T08:36:30.000Z</time>
      </trkpt>
      <trkpt lat="44.13518" lon="1.89594">
        <ele>187.8</ele>
        <time>2012-12-29T08:36:31.000Z</time>
      </trkpt>
      <trkpt lat="44.13524" lon="1.89592">
        <ele>187</ele>
        <time>2012-12-29T08:36:32.000Z</time>
      </trkpt>
      <trkpt lat="44.1353" lon="1.89589">
        <ele>187</ele>
        <time>2012-12-29T08:36:33.000Z</time>
      </trkpt>
      <trkpt lat="44.13537" lon="1.89587">
        <ele>187.2</ele>
        <time>2012-12-29T08:36:34.000Z</time>
      </trkpt>
      <trkpt lat="44.13545" lon="1.89585">
        <ele>186.8</ele>
        <time>2012-12-29T08:36:35.000Z</time>
      </trkpt>
      <trkpt lat="44.13553" lon="1.89584">
        <ele>186.3</ele>
        <time>2012-12-29T08:36:36.000Z</time>
      </trkpt>
      <trkpt lat="44.13561" lon="1.89584">
        <ele>185.9</ele>
        <time>2012-12-29T08:36:37.000Z</time>
      </trkpt>
      <trkpt lat="44.1357" lon="1.89583">
        <ele>185.4</ele>
        <time>2012-12-29T08:36:38.000Z</time>
      </trkpt>
      <trkpt lat="44.13578" lon="1.89583">
        <ele>184.9</ele>
        <time>2012-12-29T08:36:39.000Z</time>
      </trkpt>
      <trkpt lat="44.13586" lon="1.89583">
        <ele>184.3</ele>
        <time>2012-12-29T08:36:40.000Z</time>
      </trkpt>
      <trkpt lat="44.13593" lon="1.89582">
        <ele>184.2</ele>
        <time>2012-12-29T08:36:41.000Z</time>
      </trkpt>
      <trkpt lat="44.13598" lon="1.8958">
        <ele>183.2</ele>
        <time>2012-12-29T08:36:42.000Z</time>
      </trkpt>
      <trkpt lat="44.13603" lon="1.89577">
        <ele>182</ele>
        <time>2012-12-29T08:36:43.000Z</time>
      </trkpt>
      <trkpt lat="44.13608" lon="1.89574">
        <ele>181.3</ele>
        <time>2012-12-29T08:36:44.000Z</time>
      </trkpt>
      <trkpt lat="44.13612" lon="1.89572">
        <ele>180.5</ele>
        <time>2012-12-29T08:36:45.000Z</time>
      </trkpt>
      <trkpt lat="44.13617" lon="1.8957">
        <ele>179.8</ele>
        <time>2012-12-29T08:36:46.000Z</time>
      </trkpt>
      <trkpt lat="44.13622" lon="1.89568">
        <ele>179.4</ele>
        <time>2012-12-29T08:36:47.000Z</time>
      </trkpt>
      <trkpt lat="44.13626" lon="1.89566">
        <ele>178.9</ele>
        <time>2012-12-29T08:36:48.000Z</time>
      </trkpt>
      <trkpt lat="44.1363" lon="1.89564">
        <ele>179</ele>
        <time>2012-12-29T08:36:49.000Z</time>
      </trkpt>
      <trkpt lat="44.13635" lon="1.89562">
        <ele>179.3</ele>
        <time>2012-12-29T08:36:50.000Z</time>
      </trkpt>
      <trkpt lat="44.13639" lon="1.89559">
        <ele>179.6</ele>
        <time>2012-12-29T08:36:51.000Z</time>
      </trkpt>
      <trkpt lat="44.13643" lon="1.89557">
        <ele>179.6</ele>
        <time>2012-12-29T08:36:52.000Z</time>
      </trkpt>
      <trkpt lat="44.13646" lon="1.89555">
        <ele>179.7</ele>
        <time>2012-12-29T08:36:53.000Z</time>
      </trkpt>
      <trkpt lat="44.1365" lon="1.89553">
        <ele>179.7</ele>
        <time>2012-12-29T08:36:54.000Z</time>
      </trkpt>
      <trkpt lat="44.13653" lon="1.89552">
        <ele>179.7</ele>
        <time>2012-12-29T08:36:55.000Z</time>
      </trkpt>
      <trkpt lat="44.13655" lon="1.8955">
        <ele>179.6</ele>
        <time>2012-12-29T08:36:56.000Z</time>
      </trkpt>
      <trkpt lat="44.13658" lon="1.89548">
        <ele>179.6</ele>
        <time>2012-12-29T08:36:57.000Z</time>
      </trkpt>
      <trkpt lat="44.13662" lon="1.89547">
        <ele>179.5</ele>
        <time>2012-12-29T08:36:58.000Z</time>
      </trkpt>
      <trkpt lat="44.13665" lon="1.89544">
        <ele>179.5</ele>
        <time>2012-12-29T08:36:59.000Z</time>
      </trkpt>
      <trkpt lat="44.13669" lon="1.89543">
        <ele>179.6</ele>
        <time>2012-12-29T08:37:00.000Z</time>
      </trkpt>
      <trkpt lat="44.13672" lon="1.89541">
        <ele>179.6</ele>
        <time>2012-12-29T08:37:01.000Z</time>
      </trkpt>
      <trkpt lat="44.13674" lon="1.89539">
        <ele>179.6</ele>
        <time>2012-12-29T08:37:02.000Z</time>
      </trkpt>
      <trkpt lat="44.13678" lon="1.89537">
        <ele>179.7</ele>
        <time>2012-12-29T08:37:03.000Z</time>
      </trkpt>
      <trkpt lat="44.1368" lon="1.89535">
        <ele>179.7</ele>
        <time>2012-12-29T08:37:04.000Z</time>
      </trkpt>
      <trkpt lat="44.13683" lon="1.89532">
        <ele>179.7</ele>
        <time>2012-12-29T08:37:05.000Z</time>
      </trkpt>
      <trkpt lat="44.13685" lon="1.8953">
        <ele>179.8</ele>
        <time>2012-12-29T08:37:06.000Z</time>
      </trkpt>
      <trkpt lat="44.13688" lon="1.89528">
        <ele>179.8</ele>
        <time>2012-12-29T08:37:07.000Z</time>
      </trkpt>
      <trkpt lat="44.1369" lon="1.89526">
        <ele>179.7</ele>
        <time>2012-12-29T08:37:08.000Z</time>
      </trkpt>
      <trkpt lat="44.13692" lon="1.89525">
        <ele>179.6</ele>
        <time>2012-12-29T08:37:09.000Z</time>
      </trkpt>
      <trkpt lat="44.13695" lon="1.89524">
        <ele>179.5</ele>
        <time>2012-12-29T08:37:10.000Z</time>
      </trkpt>
      <trkpt lat="44.13698" lon="1.89523">
        <ele>179.5</ele>
        <time>2012-12-29T08:37:11.000Z</time>
      </trkpt>
      <trkpt lat="44.13701" lon="1.89522">
        <ele>179.5</ele>
        <time>2012-12-29T08:37:12.000Z</time>
      </trkpt>
      <trkpt lat="44.13704" lon="1.89521">
        <ele>179.5</ele>
        <time>2012-12-29T08:37:13.000Z</time>
      </trkpt>
      <trkpt lat="44.13708" lon="1.8952">
        <ele>179.4</ele>
        <time>2012-12-29T08:37:14.000Z</time>
      </trkpt>
      <trkpt lat="44.13711" lon="1.89519">
        <ele>179.4</ele>
        <time>2012-12-29T08:37:15.000Z</time>
      </trkpt>
      <trkpt lat="44.13714" lon="1.89518">
        <ele>179.3</ele>
        <time>2012-12-29T08:37:16.000Z</time>
      </trkpt>
      <trkpt lat="44.13718" lon="1.89517">
        <ele>179.3</ele>
        <time>2012-12-29T08:37:17.000Z</time>
      </trkpt>
      <trkpt lat="44.13721" lon="1.89516">
        <ele>179.3</ele>
        <time>2012-12-29T08:37:18.000Z</time>
      </trkpt>
      <trkpt lat="44.13724" lon="1.89514">
        <ele>179.3</ele>
        <time>2012-12-29T08:37:19.000Z</time>
      </trkpt>
      <trkpt lat="44.13727" lon="1.89513">
        <ele>179.4</ele>
        <time>2012-12-29T08:37:20.000Z</time>
      </trkpt>
      <trkpt lat="44.1373" lon="1.89512">
        <ele>179.4</ele>
        <time>2012-12-29T08:37:21.000Z</time>
      </trkpt>
      <trkpt lat="44.13732" lon="1.89511">
        <ele>179.4</ele>
        <time>2012-12-29T08:37:22.000Z</time>
      </trkpt>
      <trkpt lat="44.13735" lon="1.8951">
        <ele>179.4</ele>
        <time>2012-12-29T08:37:23.000Z</time>
      </trkpt>
      <trkpt lat="44.13737" lon="1.89509">
        <ele>179.4</ele>
        <time>2012-12-29T08:37:24.000Z</time>
      </trkpt>
      <trkpt lat="44.13739" lon="1.89508">
        <ele>179.5</ele>
        <time>2012-12-29T08:37:25.000Z</time>
      </trkpt>
      <trkpt lat="44.13742" lon="1.89507">
        <ele>179.5</ele>
        <time>2012-12-29T08:37:26.000Z</time>
      </trkpt>
      <trkpt lat="44.13745" lon="1.89506">
        <ele>179.6</ele>
        <time>2012-12-29T08:37:27.000Z</time>
      </trkpt>
      <trkpt lat="44.13748" lon="1.89505">
        <ele>179.6</ele>
        <time>2012-12-29T08:37:28.000Z</time>
      </trkpt>
      <trkpt lat="44.13752" lon="1.89504">
        <ele>179.6</ele>
        <time>2012-12-29T08:37:29.000Z</time>
      </trkpt>
      <trkpt lat="44.13755" lon="1.89503">
        <ele>179.7</ele>
        <time>2012-12-29T08:37:30.000Z</time>
      </trkpt>
      <trkpt lat="44.13757" lon="1.89502">
        <ele>179.7</ele>
        <time>2012-12-29T08:37:31.000Z</time>
      </trkpt>
      <trkpt lat="44.1376" lon="1.89501">
        <ele>179.7</ele>
        <time>2012-12-29T08:37:32.000Z</time>
      </trkpt>
      <trkpt lat="44.13763" lon="1.895">
        <ele>179.8</ele>
        <time>2012-12-29T08:37:33.000Z</time>
      </trkpt>
      <trkpt lat="44.13766" lon="1.89499">
        <ele>179.8</ele>
        <time>2012-12-29T08:37:34.000Z</time>
      </trkpt>
      <trkpt lat="44.13769" lon="1.89498">
        <ele>179.9</ele>
        <time>2012-12-29T08:37:35.000Z</time>
      </trkpt>
      <trkpt lat="44.13772" lon="1.89498">
        <ele>180</ele>
        <time>2012-12-29T08:37:36.000Z</time>
      </trkpt>
      <trkpt lat="44.13775" lon="1.89497">
        <ele>179.9</ele>
        <time>2012-12-29T08:37:37.000Z</time>
      </trkpt>
      <trkpt lat="44.13778" lon="1.89497">
        <ele>179.9</ele>
        <time>2012-12-29T08:37:38.000Z</time>
      </trkpt>
      <trkpt lat="44.13781" lon="1.89496">
        <ele>179.9</ele>
        <time>2012-12-29T08:37:39.000Z</time>
      </trkpt>
      <trkpt lat="44.13783" lon="1.89496">
        <ele>179.8</ele>
        <time>2012-12-29T08:37:40.000Z</time>
      </trkpt>
      <trkpt lat="44.13786" lon="1.89495">
        <ele>179.7</ele>
        <time>2012-12-29T08:37:41.000Z</time>
      </trkpt>
      <trkpt lat="44.13789" lon="1.89495">
        <ele>179.7</ele>
        <time>2012-12-29T08:37:42.000Z</time>
      </trkpt>
      <trkpt lat="44.13791" lon="1.89494">
        <ele>179.6</ele>
        <time>2012-12-29T08:37:43.000Z</time>
      </trkpt>
      <trkpt lat="44.13794" lon="1.89494">
        <ele>179.5</ele>
        <time>2012-12-29T08:37:44.000Z</time>
      </trkpt>
      <trkpt lat="44.13796" lon="1.89493">
        <ele>179.5</ele>
        <time>2012-12-29T08:37:45.000Z</time>
      </trkpt>
      <trkpt lat="44.13799" lon="1.89492">
        <ele>179.4</ele>
        <time>2012-12-29T08:37:46.000Z</time>
      </trkpt>
      <trkpt lat="44.13802" lon="1.89491">
        <ele>179.4</ele>
        <time>2012-12-29T08:37:47.000Z</time>
      </trkpt>
      <trkpt lat="44.13806" lon="1.8949">
        <ele>179.3</ele>
        <time>2012-12-29T08:37:48.000Z</time>
      </trkpt>
      <trkpt lat="44.13809" lon="1.89489">
        <ele>179.3</ele>
        <time>2012-12-29T08:37:49.000Z</time>
      </trkpt>
      <trkpt lat="44.13813" lon="1.89488">
        <ele>179.3</ele>
        <time>2012-12-29T08:37:50.000Z</time>
      </trkpt>
      <trkpt lat="44.13818" lon="1.89487">
        <ele>179.3</ele>
        <time>2012-12-29T08:37:51.000Z</time>
      </trkpt>
      <trkpt lat="44.13822" lon="1.89487">
        <ele>179.3</ele>
        <time>2012-12-29T08:37:52.000Z</time>
      </trkpt>
      <trkpt lat="44.13825" lon="1.89486">
        <ele>179.2</ele>
        <time>2012-12-29T08:37:53.000Z</time>
      </trkpt>
      <trkpt lat="44.13828" lon="1.89485">
        <ele>179.1</ele>
        <time>2012-12-29T08:37:54.000Z</time>
      </trkpt>
      <trkpt lat="44.13831" lon="1.89484">
        <ele>179</ele>
        <time>2012-12-29T08:37:55.000Z</time>
      </trkpt>
      <trkpt lat="44.13834" lon="1.89484">
        <ele>178.9</ele>
        <time>2012-12-29T08:37:56.000Z</time>
      </trkpt>
      <trkpt lat="44.13837" lon="1.89483">
        <ele>178.8</ele>
        <time>2012-12-29T08:37:57.000Z</time>
      </trkpt>
      <trkpt lat="44.13841" lon="1.89483">
        <ele>178.7</ele>
        <time>2012-12-29T08:37:58.000Z</time>
      </trkpt>
      <trkpt lat="44.13844" lon="1.89482">
        <ele>178.6</ele>
        <time>2012-12-29T08:37:59.000Z</time>
      </trkpt>
      <trkpt lat="44.13848" lon="1.89481">
        <ele>178.5</ele>
        <time>2012-12-29T08:38:00.000Z</time>
      </trkpt>
      <trkpt lat="44.13851" lon="1.8948">
        <ele>178.3</ele>
        <time>2012-12-29T08:38:01.000Z</time>
      </trkpt>
      <trkpt lat="44.13855" lon="1.89479">
        <ele>178.2</ele>
        <time>2012-12-29T08:38:02.000Z</time>
      </trkpt>
      <trkpt lat="44.13858" lon="1.89478">
        <ele>178</ele>
        <time>2012-12-29T08:38:03.000Z</time>
      </trkpt>
      <trkpt lat="44.13862" lon="1.89477">
        <ele>177.9</ele>
        <time>2012-12-29T08:38:04.000Z</time>
      </trkpt>
      <trkpt lat="44.13865" lon="1.89476">
        <ele>177.7</ele>
        <time>2012-12-29T08:38:05.000Z</time>
      </trkpt>
      <trkpt lat="44.13869" lon="1.89475">
        <ele>177.5</ele>
        <time>2012-12-29T08:38:06.000Z</time>
      </trkpt>
      <trkpt lat="44.13872" lon="1.89474">
        <ele>177.4</ele>
        <time>2012-12-29T08:38:07.000Z</time>
      </trkpt>
      <trkpt lat="44.13876" lon="1.89473">
        <ele>177.3</ele>
        <time>2012-12-29T08:38:08.000Z</time>
      </trkpt>
      <trkpt lat="44.13879" lon="1.89473">
        <ele>177.3</ele>
        <time>2012-12-29T08:38:09.000Z</time>
      </trkpt>
      <trkpt lat="44.13882" lon="1.89472">
        <ele>177.2</ele>
        <time>2012-12-29T08:38:10.000Z</time>
      </trkpt>
      <trkpt lat="44.13885" lon="1.89471">
        <ele>177.2</ele>
        <time>2012-12-29T08:38:11.000Z</time>
      </trkpt>
      <trkpt lat="44.13888" lon="1.89471">
        <ele>177.1</ele>
        <time>2012-12-29T08:38:12.000Z</time>
      </trkpt>
      <trkpt lat="44.13891" lon="1.8947">
        <ele>177.1</ele>
        <time>2012-12-29T08:38:13.000Z</time>
      </trkpt>
      <trkpt lat="44.13894" lon="1.89468">
        <ele>177</ele>
        <time>2012-12-29T08:38:14.000Z</time>
      </trkpt>
      <trkpt lat="44.13898" lon="1.89467">
        <ele>177</ele>
        <time>2012-12-29T08:38:15.000Z</time>
      </trkpt>
      <trkpt lat="44.13902" lon="1.89466">
        <ele>176.9</ele>
        <time>2012-12-29T08:38:16.000Z</time>
      </trkpt>
      <trkpt lat="44.13905" lon="1.89465">
        <ele>176.9</ele>
        <time>2012-12-29T08:38:17.000Z</time>
      </trkpt>
      <trkpt lat="44.13909" lon="1.89463">
        <ele>176.8</ele>
        <time>2012-12-29T08:38:18.000Z</time>
      </trkpt>
      <trkpt lat="44.13912" lon="1.89463">
        <ele>176.8</ele>
        <time>2012-12-29T08:38:19.000Z</time>
      </trkpt>
      <trkpt lat="44.13916" lon="1.89461">
        <ele>176.8</ele>
        <time>2012-12-29T08:38:20.000Z</time>
      </trkpt>
      <trkpt lat="44.1392" lon="1.89461">
        <ele>176.8</ele>
        <time>2012-12-29T08:38:21.000Z</time>
      </trkpt>
      <trkpt lat="44.13923" lon="1.8946">
        <ele>176.8</ele>
        <time>2012-12-29T08:38:22.000Z</time>
      </trkpt>
      <trkpt lat="44.13926" lon="1.89459">
        <ele>176.9</ele>
        <time>2012-12-29T08:38:23.000Z</time>
      </trkpt>
      <trkpt lat="44.1393" lon="1.89458">
        <ele>176.9</ele>
        <time>2012-12-29T08:38:24.000Z</time>
      </trkpt>
      <trkpt lat="44.13933" lon="1.89457">
        <ele>176.9</ele>
        <time>2012-12-29T08:38:25.000Z</time>
      </trkpt>
      <trkpt lat="44.13937" lon="1.89456">
        <ele>176.9</ele>
        <time>2012-12-29T08:38:26.000Z</time>
      </trkpt>
      <trkpt lat="44.1394" lon="1.89455">
        <ele>176.9</ele>
        <time>2012-12-29T08:38:27.000Z</time>
      </trkpt>
      <trkpt lat="44.13943" lon="1.89454">
        <ele>176.8</ele>
        <time>2012-12-29T08:38:28.000Z</time>
      </trkpt>
      <trkpt lat="44.13947" lon="1.89453">
        <ele>176.8</ele>
        <time>2012-12-29T08:38:29.000Z</time>
      </trkpt>
      <trkpt lat="44.1395" lon="1.89452">
        <ele>176.7</ele>
        <time>2012-12-29T08:38:30.000Z</time>
      </trkpt>
      <trkpt lat="44.13954" lon="1.89451">
        <ele>176.6</ele>
        <time>2012-12-29T08:38:31.000Z</time>
      </trkpt>
      <trkpt lat="44.13958" lon="1.8945">
        <ele>176.6</ele>
        <time>2012-12-29T08:38:32.000Z</time>
      </trkpt>
      <trkpt lat="44.13963" lon="1.89449">
        <ele>176.6</ele>
        <time>2012-12-29T08:38:33.000Z</time>
      </trkpt>
      <trkpt lat="44.13967" lon="1.89448">
        <ele>176.7</ele>
        <time>2012-12-29T08:38:34.000Z</time>
      </trkpt>
      <trkpt lat="44.13971" lon="1.89448">
        <ele>176.8</ele>
        <time>2012-12-29T08:38:35.000Z</time>
      </trkpt>
      <trkpt lat="44.13975" lon="1.89447">
        <ele>176.8</ele>
        <time>2012-12-29T08:38:36.000Z</time>
      </trkpt>
      <trkpt lat="44.13978" lon="1.89446">
        <ele>176.8</ele>
        <time>2012-12-29T08:38:37.000Z</time>
      </trkpt>
      <trkpt lat="44.13981" lon="1.89444">
        <ele>176.8</ele>
        <time>2012-12-29T08:38:38.000Z</time>
      </trkpt>
      <trkpt lat="44.13983" lon="1.89442">
        <ele>176.8</ele>
        <time>2012-12-29T08:38:39.000Z</time>
      </trkpt>
      <trkpt lat="44.13985" lon="1.89438">
        <ele>176.9</ele>
        <time>2012-12-29T08:38:40.000Z</time>
      </trkpt>
      <trkpt lat="44.13986" lon="1.89435">
        <ele>176.9</ele>
        <time>2012-12-29T08:38:41.000Z</time>
      </trkpt>
      <trkpt lat="44.13986" lon="1.8943">
        <ele>177</ele>
        <time>2012-12-29T08:38:42.000Z</time>
      </trkpt>
      <trkpt lat="44.13986" lon="1.89425">
        <ele>177.1</ele>
        <time>2012-12-29T08:38:43.000Z</time>
      </trkpt>
      <trkpt lat="44.13985" lon="1.89419">
        <ele>177.2</ele>
        <time>2012-12-29T08:38:44.000Z</time>
      </trkpt>
      <trkpt lat="44.13984" lon="1.89414">
        <ele>177.3</ele>
        <time>2012-12-29T08:38:45.000Z</time>
      </trkpt>
      <trkpt lat="44.13982" lon="1.89409">
        <ele>177.4</ele>
        <time>2012-12-29T08:38:46.000Z</time>
      </trkpt>
      <trkpt lat="44.13979" lon="1.89404">
        <ele>177.5</ele>
        <time>2012-12-29T08:38:47.000Z</time>
      </trkpt>
      <trkpt lat="44.13977" lon="1.894">
        <ele>177.7</ele>
        <time>2012-12-29T08:38:48.000Z</time>
      </trkpt>
      <trkpt lat="44.13975" lon="1.89396">
        <ele>177.8</ele>
        <time>2012-12-29T08:38:49.000Z</time>
      </trkpt>
      <trkpt lat="44.13972" lon="1.89392">
        <ele>177.9</ele>
        <time>2012-12-29T08:38:50.000Z</time>
      </trkpt>
      <trkpt lat="44.13971" lon="1.89389">
        <ele>178</ele>
        <time>2012-12-29T08:38:51.000Z</time>
      </trkpt>
      <trkpt lat="44.13969" lon="1.89385">
        <ele>178.1</ele>
        <time>2012-12-29T08:38:52.000Z</time>
      </trkpt>
      <trkpt lat="44.13967" lon="1.89381">
        <ele>178.2</ele>
        <time>2012-12-29T08:38:53.000Z</time>
      </trkpt>
      <trkpt lat="44.13965" lon="1.89377">
        <ele>178.3</ele>
        <time>2012-12-29T08:38:54.000Z</time>
      </trkpt>
      <trkpt lat="44.13964" lon="1.89373">
        <ele>178.4</ele>
        <time>2012-12-29T08:38:55.000Z</time>
      </trkpt>
      <trkpt lat="44.13962" lon="1.89369">
        <ele>178.5</ele>
        <time>2012-12-29T08:38:56.000Z</time>
      </trkpt>
      <trkpt lat="44.13961" lon="1.89365">
        <ele>178.6</ele>
        <time>2012-12-29T08:38:57.000Z</time>
      </trkpt>
      <trkpt lat="44.13959" lon="1.89361">
        <ele>178.7</ele>
        <time>2012-12-29T08:38:58.000Z</time>
      </trkpt>
      <trkpt lat="44.13957" lon="1.89356">
        <ele>178.9</ele>
        <time>2012-12-29T08:38:59.000Z</time>
      </trkpt>
      <trkpt lat="44.13955" lon="1.89351">
        <ele>179</ele>
        <time>2012-12-29T08:39:00.000Z</time>
      </trkpt>
      <trkpt lat="44.13954" lon="1.89346">
        <ele>179.2</ele>
        <time>2012-12-29T08:39:01.000Z</time>
      </trkpt>
      <trkpt lat="44.13952" lon="1.89341">
        <ele>179.4</ele>
        <time>2012-12-29T08:39:02.000Z</time>
      </trkpt>
      <trkpt lat="44.1395" lon="1.89336">
        <ele>181.1</ele>
        <time>2012-12-29T08:39:03.000Z</time>
      </trkpt>
      <trkpt lat="44.13949" lon="1.89331">
        <ele>182.7</ele>
        <time>2012-12-29T08:39:04.000Z</time>
      </trkpt>
      <trkpt lat="44.13947" lon="1.89326">
        <ele>184</ele>
        <time>2012-12-29T08:39:05.000Z</time>
      </trkpt>
      <trkpt lat="44.13946" lon="1.89322">
        <ele>184.8</ele>
        <time>2012-12-29T08:39:06.000Z</time>
      </trkpt>
      <trkpt lat="44.13944" lon="1.89317">
        <ele>185</ele>
        <time>2012-12-29T08:39:07.000Z</time>
      </trkpt>
      <trkpt lat="44.13943" lon="1.89311">
        <ele>185.1</ele>
        <time>2012-12-29T08:39:08.000Z</time>
      </trkpt>
      <trkpt lat="44.13941" lon="1.89306">
        <ele>185.6</ele>
        <time>2012-12-29T08:39:09.000Z</time>
      </trkpt>
      <trkpt lat="44.1394" lon="1.89302">
        <ele>186.5</ele>
        <time>2012-12-29T08:39:10.000Z</time>
      </trkpt>
      <trkpt lat="44.13938" lon="1.89298">
        <ele>187.4</ele>
        <time>2012-12-29T08:39:11.000Z</time>
      </trkpt>
      <trkpt lat="44.13937" lon="1.89294">
        <ele>188.1</ele>
        <time>2012-12-29T08:39:12.000Z</time>
      </trkpt>
      <trkpt lat="44.13935" lon="1.89289">
        <ele>188.2</ele>
        <time>2012-12-29T08:39:13.000Z</time>
      </trkpt>
      <trkpt lat="44.13933" lon="1.89285">
        <ele>188.2</ele>
        <time>2012-12-29T08:39:14.000Z</time>
      </trkpt>
      <trkpt lat="44.13932" lon="1.8928">
        <ele>188.2</ele>
        <time>2012-12-29T08:39:15.000Z</time>
      </trkpt>
      <trkpt lat="44.1393" lon="1.89275">
        <ele>188.3</ele>
        <time>2012-12-29T08:39:16.000Z</time>
      </trkpt>
      <trkpt lat="44.13929" lon="1.8927">
        <ele>188.3</ele>
        <time>2012-12-29T08:39:17.000Z</time>
      </trkpt>
      <trkpt lat="44.13927" lon="1.89265">
        <ele>188.2</ele>
        <time>2012-12-29T08:39:18.000Z</time>
      </trkpt>
      <trkpt lat="44.13925" lon="1.8926">
        <ele>188.2</ele>
        <time>2012-12-29T08:39:19.000Z</time>
      </trkpt>
      <trkpt lat="44.13923" lon="1.89255">
        <ele>188.3</ele>
        <time>2012-12-29T08:39:20.000Z</time>
      </trkpt>
      <trkpt lat="44.13922" lon="1.8925">
        <ele>188.5</ele>
        <time>2012-12-29T08:39:21.000Z</time>
      </trkpt>
      <trkpt lat="44.1392" lon="1.89245">
        <ele>188.5</ele>
        <time>2012-12-29T08:39:22.000Z</time>
      </trkpt>
      <trkpt lat="44.13918" lon="1.89241">
        <ele>188.9</ele>
        <time>2012-12-29T08:39:23.000Z</time>
      </trkpt>
      <trkpt lat="44.13916" lon="1.89235">
        <ele>189</ele>
        <time>2012-12-29T08:39:24.000Z</time>
      </trkpt>
      <trkpt lat="44.13914" lon="1.8923">
        <ele>188.9</ele>
        <time>2012-12-29T08:39:25.000Z</time>
      </trkpt>
      <trkpt lat="44.13912" lon="1.89224">
        <ele>188.6</ele>
        <time>2012-12-29T08:39:26.000Z</time>
      </trkpt>
      <trkpt lat="44.1391" lon="1.89219">
        <ele>188.3</ele>
        <time>2012-12-29T08:39:27.000Z</time>
      </trkpt>
      <trkpt lat="44.13909" lon="1.89213">
        <ele>188.2</ele>
        <time>2012-12-29T08:39:28.000Z</time>
      </trkpt>
      <trkpt lat="44.13907" lon="1.89208">
        <ele>187.7</ele>
        <time>2012-12-29T08:39:29.000Z</time>
      </trkpt>
      <trkpt lat="44.13905" lon="1.89203">
        <ele>187.4</ele>
        <time>2012-12-29T08:39:30.000Z</time>
      </trkpt>
      <trkpt lat="44.13903" lon="1.89197">
        <ele>187.8</ele>
        <time>2012-12-29T08:39:31.000Z</time>
      </trkpt>
      <trkpt lat="44.13901" lon="1.89192">
        <ele>188.3</ele>
        <time>2012-12-29T08:39:32.000Z</time>
      </trkpt>
      <trkpt lat="44.13899" lon="1.89186">
        <ele>188.5</ele>
        <time>2012-12-29T08:39:33.000Z</time>
      </trkpt>
      <trkpt lat="44.13898" lon="1.89181">
        <ele>188.9</ele>
        <time>2012-12-29T08:39:34.000Z</time>
      </trkpt>
      <trkpt lat="44.13896" lon="1.89176">
        <ele>188.8</ele>
        <time>2012-12-29T08:39:35.000Z</time>
      </trkpt>
      <trkpt lat="44.13894" lon="1.8917">
        <ele>188.3</ele>
        <time>2012-12-29T08:39:36.000Z</time>
      </trkpt>
      <trkpt lat="44.13893" lon="1.89165">
        <ele>188.3</ele>
        <time>2012-12-29T08:39:37.000Z</time>
      </trkpt>
      <trkpt lat="44.13891" lon="1.8916">
        <ele>187.5</ele>
        <time>2012-12-29T08:39:38.000Z</time>
      </trkpt>
      <trkpt lat="44.1389" lon="1.89155">
        <ele>187</ele>
        <time>2012-12-29T08:39:39.000Z</time>
      </trkpt>
      <trkpt lat="44.13889" lon="1.8915">
        <ele>186.8</ele>
        <time>2012-12-29T08:39:40.000Z</time>
      </trkpt>
      <trkpt lat="44.13887" lon="1.89145">
        <ele>186.7</ele>
        <time>2012-12-29T08:39:41.000Z</time>
      </trkpt>
      <trkpt lat="44.13886" lon="1.8914">
        <ele>186.5</ele>
        <time>2012-12-29T08:39:42.000Z</time>
      </trkpt>
      <trkpt lat="44.13885" lon="1.89134">
        <ele>186.4</ele>
        <time>2012-12-29T08:39:43.000Z</time>
      </trkpt>
      <trkpt lat="44.13883" lon="1.89129">
        <ele>186.4</ele>
        <time>2012-12-29T08:39:44.000Z</time>
      </trkpt>
      <trkpt lat="44.13882" lon="1.89124">
        <ele>186.4</ele>
        <time>2012-12-29T08:39:45.000Z</time>
      </trkpt>
      <trkpt lat="44.1388" lon="1.89118">
        <ele>186.3</ele>
        <time>2012-12-29T08:39:46.000Z</time>
      </trkpt>
      <trkpt lat="44.13879" lon="1.89112">
        <ele>186.2</ele>
        <time>2012-12-29T08:39:47.000Z</time>
      </trkpt>
      <trkpt lat="44.13877" lon="1.89106">
        <ele>186.2</ele>
        <time>2012-12-29T08:39:48.000Z</time>
      </trkpt>
      <trkpt lat="44.13876" lon="1.89101">
        <ele>185.9</ele>
        <time>2012-12-29T08:39:49.000Z</time>
      </trkpt>
      <trkpt lat="44.13875" lon="1.89096">
        <ele>186</ele>
        <time>2012-12-29T08:39:50.000Z</time>
      </trkpt>
      <trkpt lat="44.13873" lon="1.89091">
        <ele>185.8</ele>
        <time>2012-12-29T08:39:51.000Z</time>
      </trkpt>
      <trkpt lat="44.13872" lon="1.89085">
        <ele>185.7</ele>
        <time>2012-12-29T08:39:52.000Z</time>
      </trkpt>
      <trkpt lat="44.1387" lon="1.8908">
        <ele>185.6</ele>
        <time>2012-12-29T08:39:53.000Z</time>
      </trkpt>
      <trkpt lat="44.13869" lon="1.89074">
        <ele>185.5</ele>
        <time>2012-12-29T08:39:54.000Z</time>
      </trkpt>
      <trkpt lat="44.13867" lon="1.89068">
        <ele>185.2</ele>
        <time>2012-12-29T08:39:55.000Z</time>
      </trkpt>
      <trkpt lat="44.13866" lon="1.89063">
        <ele>185.1</ele>
        <time>2012-12-29T08:39:55.999Z</time>
      </trkpt>
      <trkpt lat="44.13865" lon="1.89057">
        <ele>185.1</ele>
        <time>2012-12-29T08:39:56.999Z</time>
      </trkpt>
      <trkpt lat="44.13863" lon="1.89051">
        <ele>185.2</ele>
        <time>2012-12-29T08:39:57.999Z</time>
      </trkpt>
      <trkpt lat="44.13862" lon="1.89045">
        <ele>185.6</ele>
        <time>2012-12-29T08:39:58.999Z</time>
      </trkpt>
      <trkpt lat="44.13861" lon="1.89039">
        <ele>185.7</ele>
        <time>2012-12-29T08:39:59.999Z</time>
      </trkpt>
      <trkpt lat="44.1386" lon="1.89033">
        <ele>186</ele>
        <time>2012-12-29T08:40:00.999Z</time>
      </trkpt>
      <trkpt lat="44.13859" lon="1.89026">
        <ele>185.8</ele>
        <time>2012-12-29T08:40:01.999Z</time>
      </trkpt>
      <trkpt lat="44.13857" lon="1.8902">
        <ele>185.7</ele>
        <time>2012-12-29T08:40:02.999Z</time>
      </trkpt>
      <trkpt lat="44.13856" lon="1.89013">
        <ele>186.1</ele>
        <time>2012-12-29T08:40:03.999Z</time>
      </trkpt>
      <trkpt lat="44.13855" lon="1.89007">
        <ele>186.5</ele>
        <time>2012-12-29T08:40:04.999Z</time>
      </trkpt>
      <trkpt lat="44.13854" lon="1.89">
        <ele>186.5</ele>
        <time>2012-12-29T08:40:05.999Z</time>
      </trkpt>
      <trkpt lat="44.13853" lon="1.88993">
        <ele>186.1</ele>
        <time>2012-12-29T08:40:06.999Z</time>
      </trkpt>
      <trkpt lat="44.13852" lon="1.88986">
        <ele>185.6</ele>
        <time>2012-12-29T08:40:07.999Z</time>
      </trkpt>
      <trkpt lat="44.13851" lon="1.8898">
        <ele>184.6</ele>
        <time>2012-12-29T08:40:08.999Z</time>
      </trkpt>
      <trkpt lat="44.1385" lon="1.88974">
        <ele>183.6</ele>
        <time>2012-12-29T08:40:09.999Z</time>
      </trkpt>
      <trkpt lat="44.1385" lon="1.88967">
        <ele>183</ele>
        <time>2012-12-29T08:40:10.999Z</time>
      </trkpt>
      <trkpt lat="44.13849" lon="1.88961">
        <ele>182.8</ele>
        <time>2012-12-29T08:40:11.999Z</time>
      </trkpt>
      <trkpt lat="44.13848" lon="1.88955">
        <ele>183.2</ele>
        <time>2012-12-29T08:40:12.999Z</time>
      </trkpt>
      <trkpt lat="44.13847" lon="1.88948">
        <ele>183.7</ele>
        <time>2012-12-29T08:40:13.999Z</time>
      </trkpt>
      <trkpt lat="44.13846" lon="1.88942">
        <ele>184.2</ele>
        <time>2012-12-29T08:40:14.999Z</time>
      </trkpt>
      <trkpt lat="44.13845" lon="1.88936">
        <ele>184.8</ele>
        <time>2012-12-29T08:40:15.999Z</time>
      </trkpt>
      <trkpt lat="44.13845" lon="1.8893">
        <ele>185.2</ele>
        <time>2012-12-29T08:40:16.999Z</time>
      </trkpt>
      <trkpt lat="44.13844" lon="1.88924">
        <ele>185.6</ele>
        <time>2012-12-29T08:40:17.999Z</time>
      </trkpt>
      <trkpt lat="44.13843" lon="1.88918">
        <ele>185.8</ele>
        <time>2012-12-29T08:40:18.999Z</time>
      </trkpt>
      <trkpt lat="44.13842" lon="1.88913">
        <ele>185.9</ele>
        <time>2012-12-29T08:40:19.999Z</time>
      </trkpt>
      <trkpt lat="44.13841" lon="1.88907">
        <ele>186</ele>
        <time>2012-12-29T08:40:20.999Z</time>
      </trkpt>
      <trkpt lat="44.1384" lon="1.889">
        <ele>186</ele>
        <time>2012-12-29T08:40:21.999Z</time>
      </trkpt>
      <trkpt lat="44.13839" lon="1.88894">
        <ele>185.9</ele>
        <time>2012-12-29T08:40:22.999Z</time>
      </trkpt>
      <trkpt lat="44.13838" lon="1.88888">
        <ele>185.9</ele>
        <time>2012-12-29T08:40:23.999Z</time>
      </trkpt>
      <trkpt lat="44.13836" lon="1.88882">
        <ele>186</ele>
        <time>2012-12-29T08:40:24.999Z</time>
      </trkpt>
      <trkpt lat="44.13835" lon="1.88876">
        <ele>186.2</ele>
        <time>2012-12-29T08:40:25.999Z</time>
      </trkpt>
      <trkpt lat="44.13834" lon="1.8887">
        <ele>186.8</ele>
        <time>2012-12-29T08:40:26.999Z</time>
      </trkpt>
      <trkpt lat="44.13833" lon="1.88864">
        <ele>187.1</ele>
        <time>2012-12-29T08:40:27.999Z</time>
      </trkpt>
      <trkpt lat="44.13831" lon="1.88859">
        <ele>187.2</ele>
        <time>2012-12-29T08:40:28.999Z</time>
      </trkpt>
      <trkpt lat="44.1383" lon="1.88855">
        <ele>187.1</ele>
        <time>2012-12-29T08:40:29.999Z</time>
      </trkpt>
      <trkpt lat="44.13829" lon="1.88851">
        <ele>186.6</ele>
        <time>2012-12-29T08:40:30.999Z</time>
      </trkpt>
      <trkpt lat="44.13828" lon="1.88847">
        <ele>186.1</ele>
        <time>2012-12-29T08:40:31.999Z</time>
      </trkpt>
      <trkpt lat="44.13827" lon="1.88843">
        <ele>186.1</ele>
        <time>2012-12-29T08:40:32.999Z</time>
      </trkpt>
      <trkpt lat="44.13825" lon="1.88838">
        <ele>186.2</ele>
        <time>2012-12-29T08:40:33.999Z</time>
      </trkpt>
      <trkpt lat="44.13824" lon="1.88834">
        <ele>186.3</ele>
        <time>2012-12-29T08:40:34.999Z</time>
      </trkpt>
      <trkpt lat="44.13822" lon="1.88829">
        <ele>186</ele>
        <time>2012-12-29T08:40:35.999Z</time>
      </trkpt>
      <trkpt lat="44.1382" lon="1.88824">
        <ele>185.9</ele>
        <time>2012-12-29T08:40:36.999Z</time>
      </trkpt>
      <trkpt lat="44.13818" lon="1.88819">
        <ele>185.6</ele>
        <time>2012-12-29T08:40:37.999Z</time>
      </trkpt>
      <trkpt lat="44.13816" lon="1.88815">
        <ele>185.6</ele>
        <time>2012-12-29T08:40:38.999Z</time>
      </trkpt>
      <trkpt lat="44.13813" lon="1.8881">
        <ele>185.6</ele>
        <time>2012-12-29T08:40:39.999Z</time>
      </trkpt>
      <trkpt lat="44.1381" lon="1.88804">
        <ele>185.5</ele>
        <time>2012-12-29T08:40:40.999Z</time>
      </trkpt>
      <trkpt lat="44.13808" lon="1.888">
        <ele>185.5</ele>
        <time>2012-12-29T08:40:41.999Z</time>
      </trkpt>
      <trkpt lat="44.13805" lon="1.88795">
        <ele>185.5</ele>
        <time>2012-12-29T08:40:42.999Z</time>
      </trkpt>
      <trkpt lat="44.13802" lon="1.8879">
        <ele>185</ele>
        <time>2012-12-29T08:40:43.999Z</time>
      </trkpt>
      <trkpt lat="44.13799" lon="1.88786">
        <ele>184.4</ele>
        <time>2012-12-29T08:40:44.999Z</time>
      </trkpt>
      <trkpt lat="44.13796" lon="1.88781">
        <ele>183.7</ele>
        <time>2012-12-29T08:40:45.999Z</time>
      </trkpt>
      <trkpt lat="44.13793" lon="1.88776">
        <ele>183.6</ele>
        <time>2012-12-29T08:40:46.999Z</time>
      </trkpt>
      <trkpt lat="44.1379" lon="1.88772">
        <ele>183.7</ele>
        <time>2012-12-29T08:40:47.999Z</time>
      </trkpt>
      <trkpt lat="44.13788" lon="1.88767">
        <ele>183.9</ele>
        <time>2012-12-29T08:40:48.999Z</time>
      </trkpt>
      <trkpt lat="44.13785" lon="1.88762">
        <ele>183.9</ele>
        <time>2012-12-29T08:40:49.999Z</time>
      </trkpt>
      <trkpt lat="44.13782" lon="1.88758">
        <ele>184</ele>
        <time>2012-12-29T08:40:50.999Z</time>
      </trkpt>
      <trkpt lat="44.13779" lon="1.88754">
        <ele>184</ele>
        <time>2012-12-29T08:40:51.999Z</time>
      </trkpt>
      <trkpt lat="44.13776" lon="1.8875">
        <ele>184.1</ele>
        <time>2012-12-29T08:40:52.999Z</time>
      </trkpt>
      <trkpt lat="44.13774" lon="1.88746">
        <ele>184.1</ele>
        <time>2012-12-29T08:40:53.999Z</time>
      </trkpt>
      <trkpt lat="44.13771" lon="1.88743">
        <ele>184.2</ele>
        <time>2012-12-29T08:40:54.999Z</time>
      </trkpt>
      <trkpt lat="44.13768" lon="1.8874">
        <ele>184.2</ele>
        <time>2012-12-29T08:40:55.999Z</time>
      </trkpt>
      <trkpt lat="44.13765" lon="1.88737">
        <ele>184.3</ele>
        <time>2012-12-29T08:40:56.999Z</time>
      </trkpt>
      <trkpt lat="44.13762" lon="1.88733">
        <ele>184.2</ele>
        <time>2012-12-29T08:40:57.999Z</time>
      </trkpt>
      <trkpt lat="44.13759" lon="1.88731">
        <ele>184.2</ele>
        <time>2012-12-29T08:40:58.999Z</time>
      </trkpt>
      <trkpt lat="44.13756" lon="1.88728">
        <ele>184.1</ele>
        <time>2012-12-29T08:40:59.999Z</time>
      </trkpt>
      <trkpt lat="44.13753" lon="1.88725">
        <ele>184.1</ele>
        <time>2012-12-29T08:41:00.999Z</time>
      </trkpt>
      <trkpt lat="44.1375" lon="1.88722">
        <ele>184</ele>
        <time>2012-12-29T08:41:01.999Z</time>
      </trkpt>
      <trkpt lat="44.13748" lon="1.88719">
        <ele>183.9</ele>
        <time>2012-12-29T08:41:02.999Z</time>
      </trkpt>
      <trkpt lat="44.13745" lon="1.88716">
        <ele>183.8</ele>
        <time>2012-12-29T08:41:03.999Z</time>
      </trkpt>
      <trkpt lat="44.13743" lon="1.88713">
        <ele>183.8</ele>
        <time>2012-12-29T08:41:04.999Z</time>
      </trkpt>
      <trkpt lat="44.13741" lon="1.8871">
        <ele>183.8</ele>
        <time>2012-12-29T08:41:05.999Z</time>
      </trkpt>
      <trkpt lat="44.13738" lon="1.88708">
        <ele>183.9</ele>
        <time>2012-12-29T08:41:06.999Z</time>
      </trkpt>
      <trkpt lat="44.13736" lon="1.88705">
        <ele>183.9</ele>
        <time>2012-12-29T08:41:07.999Z</time>
      </trkpt>
      <trkpt lat="44.13733" lon="1.88702">
        <ele>183.9</ele>
        <time>2012-12-29T08:41:08.999Z</time>
      </trkpt>
      <trkpt lat="44.13731" lon="1.88699">
        <ele>183.9</ele>
        <time>2012-12-29T08:41:09.999Z</time>
      </trkpt>
      <trkpt lat="44.13728" lon="1.88696">
        <ele>183.9</ele>
        <time>2012-12-29T08:41:10.999Z</time>
      </trkpt>
      <trkpt lat="44.13726" lon="1.88693">
        <ele>183.9</ele>
        <time>2012-12-29T08:41:11.999Z</time>
      </trkpt>
      <trkpt lat="44.13723" lon="1.8869">
        <ele>183.9</ele>
        <time>2012-12-29T08:41:12.999Z</time>
      </trkpt>
      <trkpt lat="44.1372" lon="1.88686">
        <ele>183.9</ele>
        <time>2012-12-29T08:41:13.999Z</time>
      </trkpt>
      <trkpt lat="44.13717" lon="1.88683">
        <ele>184</ele>
        <time>2012-12-29T08:41:14.999Z</time>
      </trkpt>
      <trkpt lat="44.13714" lon="1.8868">
        <ele>184.1</ele>
        <time>2012-12-29T08:41:15.999Z</time>
      </trkpt>
      <trkpt lat="44.13711" lon="1.88677">
        <ele>184.2</ele>
        <time>2012-12-29T08:41:16.999Z</time>
      </trkpt>
      <trkpt lat="44.13709" lon="1.88675">
        <ele>184.3</ele>
        <time>2012-12-29T08:41:17.999Z</time>
      </trkpt>
      <trkpt lat="44.13706" lon="1.88673">
        <ele>184.4</ele>
        <time>2012-12-29T08:41:18.999Z</time>
      </trkpt>
      <trkpt lat="44.13703" lon="1.8867">
        <ele>184.5</ele>
        <time>2012-12-29T08:41:19.999Z</time>
      </trkpt>
      <trkpt lat="44.137" lon="1.88667">
        <ele>184.6</ele>
        <time>2012-12-29T08:41:20.999Z</time>
      </trkpt>
      <trkpt lat="44.13697" lon="1.88664">
        <ele>184.7</ele>
        <time>2012-12-29T08:41:21.999Z</time>
      </trkpt>
      <trkpt lat="44.13695" lon="1.88662">
        <ele>184.7</ele>
        <time>2012-12-29T08:41:22.999Z</time>
      </trkpt>
      <trkpt lat="44.13692" lon="1.88659">
        <ele>184.7</ele>
        <time>2012-12-29T08:41:23.999Z</time>
      </trkpt>
      <trkpt lat="44.13689" lon="1.88656">
        <ele>184.8</ele>
        <time>2012-12-29T08:41:24.999Z</time>
      </trkpt>
      <trkpt lat="44.13686" lon="1.88653">
        <ele>184.8</ele>
        <time>2012-12-29T08:41:25.999Z</time>
      </trkpt>
      <trkpt lat="44.13683" lon="1.88649">
        <ele>184.8</ele>
        <time>2012-12-29T08:41:26.999Z</time>
      </trkpt>
      <trkpt lat="44.13681" lon="1.88645">
        <ele>184.9</ele>
        <time>2012-12-29T08:41:27.999Z</time>
      </trkpt>
      <trkpt lat="44.13679" lon="1.88641">
        <ele>184.9</ele>
        <time>2012-12-29T08:41:28.999Z</time>
      </trkpt>
      <trkpt lat="44.13677" lon="1.88637">
        <ele>185</ele>
        <time>2012-12-29T08:41:29.999Z</time>
      </trkpt>
      <trkpt lat="44.13677" lon="1.88633">
        <ele>185.1</ele>
        <time>2012-12-29T08:41:30.999Z</time>
      </trkpt>
      <trkpt lat="44.13676" lon="1.88628">
        <ele>185.2</ele>
        <time>2012-12-29T08:41:31.999Z</time>
      </trkpt>
      <trkpt lat="44.13675" lon="1.88623">
        <ele>185.3</ele>
        <time>2012-12-29T08:41:32.999Z</time>
      </trkpt>
      <trkpt lat="44.13674" lon="1.88618">
        <ele>185.4</ele>
        <time>2012-12-29T08:41:33.999Z</time>
      </trkpt>
      <trkpt lat="44.13674" lon="1.88613">
        <ele>185.4</ele>
        <time>2012-12-29T08:41:34.999Z</time>
      </trkpt>
      <trkpt lat="44.13674" lon="1.88609">
        <ele>185.4</ele>
        <time>2012-12-29T08:41:35.999Z</time>
      </trkpt>
      <trkpt lat="44.13674" lon="1.88604">
        <ele>185.3</ele>
        <time>2012-12-29T08:41:36.999Z</time>
      </trkpt>
      <trkpt lat="44.13674" lon="1.88599">
        <ele>185.3</ele>
        <time>2012-12-29T08:41:37.999Z</time>
      </trkpt>
      <trkpt lat="44.13673" lon="1.88594">
        <ele>185.3</ele>
        <time>2012-12-29T08:41:38.999Z</time>
      </trkpt>
      <trkpt lat="44.13673" lon="1.88589">
        <ele>185.3</ele>
        <time>2012-12-29T08:41:39.999Z</time>
      </trkpt>
      <trkpt lat="44.13672" lon="1.88584">
        <ele>185.3</ele>
        <time>2012-12-29T08:41:40.999Z</time>
      </trkpt>
      <trkpt lat="44.13672" lon="1.8858">
        <ele>185.4</ele>
        <time>2012-12-29T08:41:41.999Z</time>
      </trkpt>
      <trkpt lat="44.13671" lon="1.88575">
        <ele>185.5</ele>
        <time>2012-12-29T08:41:42.999Z</time>
      </trkpt>
      <trkpt lat="44.1367" lon="1.88569">
        <ele>185.5</ele>
        <time>2012-12-29T08:41:43.999Z</time>
      </trkpt>
      <trkpt lat="44.13669" lon="1.88564">
        <ele>185.6</ele>
        <time>2012-12-29T08:41:44.999Z</time>
      </trkpt>
      <trkpt lat="44.13668" lon="1.88559">
        <ele>185.7</ele>
        <time>2012-12-29T08:41:45.999Z</time>
      </trkpt>
      <trkpt lat="44.13667" lon="1.88554">
        <ele>185.7</ele>
        <time>2012-12-29T08:41:46.999Z</time>
      </trkpt>
      <trkpt lat="44.13666" lon="1.88549">
        <ele>185.8</ele>
        <time>2012-12-29T08:41:47.999Z</time>
      </trkpt>
      <trkpt lat="44.13666" lon="1.88544">
        <ele>185.9</ele>
        <time>2012-12-29T08:41:48.999Z</time>
      </trkpt>
      <trkpt lat="44.13667" lon="1.88538">
        <ele>186</ele>
        <time>2012-12-29T08:41:49.999Z</time>
      </trkpt>
      <trkpt lat="44.13667" lon="1.88533">
        <ele>186.2</ele>
        <time>2012-12-29T08:41:50.999Z</time>
      </trkpt>
      <trkpt lat="44.13667" lon="1.88528">
        <ele>187</ele>
        <time>2012-12-29T08:41:51.999Z</time>
      </trkpt>
      <trkpt lat="44.13668" lon="1.88523">
        <ele>187.1</ele>
        <time>2012-12-29T08:41:52.999Z</time>
      </trkpt>
      <trkpt lat="44.13669" lon="1.88519">
        <ele>187.1</ele>
        <time>2012-12-29T08:41:53.999Z</time>
      </trkpt>
      <trkpt lat="44.1367" lon="1.88514">
        <ele>187</ele>
        <time>2012-12-29T08:41:54.999Z</time>
      </trkpt>
      <trkpt lat="44.13671" lon="1.88509">
        <ele>186.6</ele>
        <time>2012-12-29T08:41:55.999Z</time>
      </trkpt>
      <trkpt lat="44.13673" lon="1.88504">
        <ele>186.7</ele>
        <time>2012-12-29T08:41:56.999Z</time>
      </trkpt>
      <trkpt lat="44.13674" lon="1.88498">
        <ele>187</ele>
        <time>2012-12-29T08:41:57.999Z</time>
      </trkpt>
      <trkpt lat="44.13675" lon="1.88492">
        <ele>187.9</ele>
        <time>2012-12-29T08:41:58.999Z</time>
      </trkpt>
      <trkpt lat="44.13676" lon="1.88487">
        <ele>188</ele>
        <time>2012-12-29T08:41:59.999Z</time>
      </trkpt>
      <trkpt lat="44.13677" lon="1.88482">
        <ele>188.1</ele>
        <time>2012-12-29T08:42:00.999Z</time>
      </trkpt>
      <trkpt lat="44.13678" lon="1.88475">
        <ele>188</ele>
        <time>2012-12-29T08:42:01.999Z</time>
      </trkpt>
      <trkpt lat="44.13679" lon="1.88469">
        <ele>188</ele>
        <time>2012-12-29T08:42:02.999Z</time>
      </trkpt>
      <trkpt lat="44.13681" lon="1.88463">
        <ele>187.9</ele>
        <time>2012-12-29T08:42:03.999Z</time>
      </trkpt>
      <trkpt lat="44.13682" lon="1.88457">
        <ele>187.9</ele>
        <time>2012-12-29T08:42:04.999Z</time>
      </trkpt>
      <trkpt lat="44.13684" lon="1.88451">
        <ele>187.9</ele>
        <time>2012-12-29T08:42:05.999Z</time>
      </trkpt>
      <trkpt lat="44.13685" lon="1.88446">
        <ele>187.9</ele>
        <time>2012-12-29T08:42:06.999Z</time>
      </trkpt>
      <trkpt lat="44.13687" lon="1.88439">
        <ele>187.8</ele>
        <time>2012-12-29T08:42:07.999Z</time>
      </trkpt>
      <trkpt lat="44.13688" lon="1.88433">
        <ele>188.3</ele>
        <time>2012-12-29T08:42:08.999Z</time>
      </trkpt>
      <trkpt lat="44.1369" lon="1.88426">
        <ele>188.8</ele>
        <time>2012-12-29T08:42:09.999Z</time>
      </trkpt>
      <trkpt lat="44.13693" lon="1.8842">
        <ele>188.9</ele>
        <time>2012-12-29T08:42:10.999Z</time>
      </trkpt>
      <trkpt lat="44.13694" lon="1.88414">
        <ele>189.2</ele>
        <time>2012-12-29T08:42:11.999Z</time>
      </trkpt>
      <trkpt lat="44.13696" lon="1.88408">
        <ele>189.3</ele>
        <time>2012-12-29T08:42:12.999Z</time>
      </trkpt>
      <trkpt lat="44.13699" lon="1.88401">
        <ele>189.5</ele>
        <time>2012-12-29T08:42:13.999Z</time>
      </trkpt>
      <trkpt lat="44.137" lon="1.88396">
        <ele>189.8</ele>
        <time>2012-12-29T08:42:14.999Z</time>
      </trkpt>
      <trkpt lat="44.13703" lon="1.8839">
        <ele>189.7</ele>
        <time>2012-12-29T08:42:15.999Z</time>
      </trkpt>
      <trkpt lat="44.13705" lon="1.88384">
        <ele>189.5</ele>
        <time>2012-12-29T08:42:16.999Z</time>
      </trkpt>
      <trkpt lat="44.13707" lon="1.88379">
        <ele>189.5</ele>
        <time>2012-12-29T08:42:17.999Z</time>
      </trkpt>
      <trkpt lat="44.13708" lon="1.88374">
        <ele>189.4</ele>
        <time>2012-12-29T08:42:18.999Z</time>
      </trkpt>
      <trkpt lat="44.1371" lon="1.88369">
        <ele>189.1</ele>
        <time>2012-12-29T08:42:19.999Z</time>
      </trkpt>
      <trkpt lat="44.13711" lon="1.88363">
        <ele>188.9</ele>
        <time>2012-12-29T08:42:20.999Z</time>
      </trkpt>
      <trkpt lat="44.13713" lon="1.88357">
        <ele>188.9</ele>
        <time>2012-12-29T08:42:21.999Z</time>
      </trkpt>
      <trkpt lat="44.13714" lon="1.88351">
        <ele>188.7</ele>
        <time>2012-12-29T08:42:22.999Z</time>
      </trkpt>
      <trkpt lat="44.13716" lon="1.88346">
        <ele>189</ele>
        <time>2012-12-29T08:42:23.999Z</time>
      </trkpt>
      <trkpt lat="44.13718" lon="1.8834">
        <ele>189.4</ele>
        <time>2012-12-29T08:42:24.999Z</time>
      </trkpt>
      <trkpt lat="44.1372" lon="1.88334">
        <ele>189.6</ele>
        <time>2012-12-29T08:42:25.999Z</time>
      </trkpt>
      <trkpt lat="44.13722" lon="1.88328">
        <ele>190.3</ele>
        <time>2012-12-29T08:42:26.999Z</time>
      </trkpt>
      <trkpt lat="44.13723" lon="1.88322">
        <ele>190.8</ele>
        <time>2012-12-29T08:42:27.999Z</time>
      </trkpt>
      <trkpt lat="44.13725" lon="1.88316">
        <ele>191.4</ele>
        <time>2012-12-29T08:42:28.999Z</time>
      </trkpt>
      <trkpt lat="44.13726" lon="1.88309">
        <ele>191.7</ele>
        <time>2012-12-29T08:42:29.999Z</time>
      </trkpt>
      <trkpt lat="44.13726" lon="1.88303">
        <ele>191.7</ele>
        <time>2012-12-29T08:42:30.999Z</time>
      </trkpt>
      <trkpt lat="44.13727" lon="1.88298">
        <ele>191.8</ele>
        <time>2012-12-29T08:42:31.999Z</time>
      </trkpt>
      <trkpt lat="44.13727" lon="1.88293">
        <ele>191.7</ele>
        <time>2012-12-29T08:42:32.999Z</time>
      </trkpt>
      <trkpt lat="44.13726" lon="1.88288">
        <ele>190.7</ele>
        <time>2012-12-29T08:42:33.999Z</time>
      </trkpt>
      <trkpt lat="44.13726" lon="1.88282">
        <ele>190.1</ele>
        <time>2012-12-29T08:42:34.999Z</time>
      </trkpt>
      <trkpt lat="44.13726" lon="1.88276">
        <ele>190.1</ele>
        <time>2012-12-29T08:42:35.999Z</time>
      </trkpt>
      <trkpt lat="44.13726" lon="1.8827">
        <ele>190</ele>
        <time>2012-12-29T08:42:36.999Z</time>
      </trkpt>
      <trkpt lat="44.13725" lon="1.88264">
        <ele>189.1</ele>
        <time>2012-12-29T08:42:37.999Z</time>
      </trkpt>
      <trkpt lat="44.13725" lon="1.88259">
        <ele>188.2</ele>
        <time>2012-12-29T08:42:38.999Z</time>
      </trkpt>
      <trkpt lat="44.13724" lon="1.88253">
        <ele>188.1</ele>
        <time>2012-12-29T08:42:39.999Z</time>
      </trkpt>
      <trkpt lat="44.13723" lon="1.88247">
        <ele>188.1</ele>
        <time>2012-12-29T08:42:40.999Z</time>
      </trkpt>
      <trkpt lat="44.13723" lon="1.88241">
        <ele>188.1</ele>
        <time>2012-12-29T08:42:41.999Z</time>
      </trkpt>
      <trkpt lat="44.13722" lon="1.88236">
        <ele>188</ele>
        <time>2012-12-29T08:42:42.999Z</time>
      </trkpt>
      <trkpt lat="44.13721" lon="1.8823">
        <ele>188</ele>
        <time>2012-12-29T08:42:43.999Z</time>
      </trkpt>
      <trkpt lat="44.13721" lon="1.88224">
        <ele>188</ele>
        <time>2012-12-29T08:42:44.999Z</time>
      </trkpt>
      <trkpt lat="44.13721" lon="1.88218">
        <ele>187.9</ele>
        <time>2012-12-29T08:42:45.999Z</time>
      </trkpt>
      <trkpt lat="44.13721" lon="1.88212">
        <ele>187.8</ele>
        <time>2012-12-29T08:42:46.999Z</time>
      </trkpt>
      <trkpt lat="44.13721" lon="1.88207">
        <ele>187.6</ele>
        <time>2012-12-29T08:42:47.999Z</time>
      </trkpt>
      <trkpt lat="44.13721" lon="1.88203">
        <ele>187.4</ele>
        <time>2012-12-29T08:42:48.999Z</time>
      </trkpt>
      <trkpt lat="44.1372" lon="1.88197">
        <ele>187.3</ele>
        <time>2012-12-29T08:42:49.999Z</time>
      </trkpt>
      <trkpt lat="44.1372" lon="1.8819">
        <ele>187.2</ele>
        <time>2012-12-29T08:42:50.999Z</time>
      </trkpt>
      <trkpt lat="44.1372" lon="1.88185">
        <ele>187.1</ele>
        <time>2012-12-29T08:42:51.999Z</time>
      </trkpt>
      <trkpt lat="44.1372" lon="1.88178">
        <ele>187.1</ele>
        <time>2012-12-29T08:42:52.999Z</time>
      </trkpt>
      <trkpt lat="44.1372" lon="1.88171">
        <ele>187</ele>
        <time>2012-12-29T08:42:53.999Z</time>
      </trkpt>
      <trkpt lat="44.1372" lon="1.88165">
        <ele>186.9</ele>
        <time>2012-12-29T08:42:54.999Z</time>
      </trkpt>
      <trkpt lat="44.13719" lon="1.8816">
        <ele>186.7</ele>
        <time>2012-12-29T08:42:55.999Z</time>
      </trkpt>
      <trkpt lat="44.1372" lon="1.88155">
        <ele>186.5</ele>
        <time>2012-12-29T08:42:56.999Z</time>
      </trkpt>
      <trkpt lat="44.1372" lon="1.8815">
        <ele>186.3</ele>
        <time>2012-12-29T08:42:57.999Z</time>
      </trkpt>
      <trkpt lat="44.13719" lon="1.88145">
        <ele>186.2</ele>
        <time>2012-12-29T08:42:58.999Z</time>
      </trkpt>
      <trkpt lat="44.1372" lon="1.8814">
        <ele>186</ele>
        <time>2012-12-29T08:42:59.999Z</time>
      </trkpt>
      <trkpt lat="44.13721" lon="1.88135">
        <ele>186</ele>
        <time>2012-12-29T08:43:00.999Z</time>
      </trkpt>
      <trkpt lat="44.13721" lon="1.88131">
        <ele>185.9</ele>
        <time>2012-12-29T08:43:01.999Z</time>
      </trkpt>
      <trkpt lat="44.13722" lon="1.88128">
        <ele>185.8</ele>
        <time>2012-12-29T08:43:02.999Z</time>
      </trkpt>
      <trkpt lat="44.13722" lon="1.88124">
        <ele>185.7</ele>
        <time>2012-12-29T08:43:03.999Z</time>
      </trkpt>
      <trkpt lat="44.13724" lon="1.8812">
        <ele>185.6</ele>
        <time>2012-12-29T08:43:04.999Z</time>
      </trkpt>
      <trkpt lat="44.13726" lon="1.88116">
        <ele>185.5</ele>
        <time>2012-12-29T08:43:05.999Z</time>
      </trkpt>
      <trkpt lat="44.13726" lon="1.88112">
        <ele>185.4</ele>
        <time>2012-12-29T08:43:06.999Z</time>
      </trkpt>
      <trkpt lat="44.13728" lon="1.88109">
        <ele>185.3</ele>
        <time>2012-12-29T08:43:07.999Z</time>
      </trkpt>
      <trkpt lat="44.13729" lon="1.88105">
        <ele>185.2</ele>
        <time>2012-12-29T08:43:08.999Z</time>
      </trkpt>
      <trkpt lat="44.1373" lon="1.88102">
        <ele>185</ele>
        <time>2012-12-29T08:43:09.999Z</time>
      </trkpt>
      <trkpt lat="44.13731" lon="1.88098">
        <ele>184.8</ele>
        <time>2012-12-29T08:43:10.999Z</time>
      </trkpt>
      <trkpt lat="44.13733" lon="1.88094">
        <ele>184.7</ele>
        <time>2012-12-29T08:43:11.999Z</time>
      </trkpt>
      <trkpt lat="44.13734" lon="1.8809">
        <ele>184.5</ele>
        <time>2012-12-29T08:43:12.999Z</time>
      </trkpt>
      <trkpt lat="44.13736" lon="1.88085">
        <ele>184.4</ele>
        <time>2012-12-29T08:43:13.999Z</time>
      </trkpt>
      <trkpt lat="44.13737" lon="1.88081">
        <ele>184.3</ele>
        <time>2012-12-29T08:43:14.999Z</time>
      </trkpt>
      <trkpt lat="44.13738" lon="1.88077">
        <ele>184.1</ele>
        <time>2012-12-29T08:43:15.999Z</time>
      </trkpt>
      <trkpt lat="44.13739" lon="1.88074">
        <ele>183.8</ele>
        <time>2012-12-29T08:43:16.999Z</time>
      </trkpt>
      <trkpt lat="44.13739" lon="1.8807">
        <ele>183.6</ele>
        <time>2012-12-29T08:43:17.999Z</time>
      </trkpt>
      <trkpt lat="44.1374" lon="1.88065">
        <ele>183.3</ele>
        <time>2012-12-29T08:43:18.999Z</time>
      </trkpt>
      <trkpt lat="44.13741" lon="1.88062">
        <ele>183</ele>
        <time>2012-12-29T08:43:19.999Z</time>
      </trkpt>
      <trkpt lat="44.13744" lon="1.88057">
        <ele>182.7</ele>
        <time>2012-12-29T08:43:20.999Z</time>
      </trkpt>
      <trkpt lat="44.13747" lon="1.88052">
        <ele>182.5</ele>
        <time>2012-12-29T08:43:21.999Z</time>
      </trkpt>
      <trkpt lat="44.13749" lon="1.88047">
        <ele>182.3</ele>
        <time>2012-12-29T08:43:22.999Z</time>
      </trkpt>
      <trkpt lat="44.13752" lon="1.88042">
        <ele>182.1</ele>
        <time>2012-12-29T08:43:23.999Z</time>
      </trkpt>
      <trkpt lat="44.13753" lon="1.88037">
        <ele>181.9</ele>
        <time>2012-12-29T08:43:24.999Z</time>
      </trkpt>
      <trkpt lat="44.13755" lon="1.88031">
        <ele>181.7</ele>
        <time>2012-12-29T08:43:25.999Z</time>
      </trkpt>
      <trkpt lat="44.13756" lon="1.88025">
        <ele>181.5</ele>
        <time>2012-12-29T08:43:26.999Z</time>
      </trkpt>
      <trkpt lat="44.13757" lon="1.88018">
        <ele>181.4</ele>
        <time>2012-12-29T08:43:27.999Z</time>
      </trkpt>
      <trkpt lat="44.13759" lon="1.88011">
        <ele>181.2</ele>
        <time>2012-12-29T08:43:28.999Z</time>
      </trkpt>
      <trkpt lat="44.13761" lon="1.88005">
        <ele>181.1</ele>
        <time>2012-12-29T08:43:29.999Z</time>
      </trkpt>
      <trkpt lat="44.13762" lon="1.87998">
        <ele>181</ele>
        <time>2012-12-29T08:43:30.999Z</time>
      </trkpt>
      <trkpt lat="44.13763" lon="1.87992">
        <ele>180.8</ele>
        <time>2012-12-29T08:43:31.999Z</time>
      </trkpt>
      <trkpt lat="44.13765" lon="1.87985">
        <ele>180.6</ele>
        <time>2012-12-29T08:43:32.999Z</time>
      </trkpt>
      <trkpt lat="44.13766" lon="1.87978">
        <ele>180.5</ele>
        <time>2012-12-29T08:43:33.999Z</time>
      </trkpt>
      <trkpt lat="44.13767" lon="1.87971">
        <ele>180.4</ele>
        <time>2012-12-29T08:43:34.999Z</time>
      </trkpt>
      <trkpt lat="44.13768" lon="1.87965">
        <ele>180.4</ele>
        <time>2012-12-29T08:43:35.999Z</time>
      </trkpt>
      <trkpt lat="44.1377" lon="1.87958">
        <ele>180.3</ele>
        <time>2012-12-29T08:43:36.999Z</time>
      </trkpt>
      <trkpt lat="44.13771" lon="1.87953">
        <ele>180.3</ele>
        <time>2012-12-29T08:43:37.999Z</time>
      </trkpt>
      <trkpt lat="44.13772" lon="1.87948">
        <ele>180.3</ele>
        <time>2012-12-29T08:43:38.999Z</time>
      </trkpt>
      <trkpt lat="44.13773" lon="1.87943">
        <ele>180.4</ele>
        <time>2012-12-29T08:43:39.999Z</time>
      </trkpt>
      <trkpt lat="44.13774" lon="1.87937">
        <ele>180.4</ele>
        <time>2012-12-29T08:43:40.999Z</time>
      </trkpt>
      <trkpt lat="44.13776" lon="1.87932">
        <ele>180.4</ele>
        <time>2012-12-29T08:43:41.999Z</time>
      </trkpt>
      <trkpt lat="44.13778" lon="1.87926">
        <ele>179.9</ele>
        <time>2012-12-29T08:43:42.999Z</time>
      </trkpt>
      <trkpt lat="44.13779" lon="1.87919">
        <ele>179.8</ele>
        <time>2012-12-29T08:43:43.999Z</time>
      </trkpt>
      <trkpt lat="44.1378" lon="1.87913">
        <ele>179.3</ele>
        <time>2012-12-29T08:43:44.999Z</time>
      </trkpt>
      <trkpt lat="44.13781" lon="1.87906">
        <ele>179.3</ele>
        <time>2012-12-29T08:43:45.999Z</time>
      </trkpt>
      <trkpt lat="44.13782" lon="1.87899">
        <ele>179</ele>
        <time>2012-12-29T08:43:46.999Z</time>
      </trkpt>
      <trkpt lat="44.13783" lon="1.87893">
        <ele>179</ele>
        <time>2012-12-29T08:43:47.999Z</time>
      </trkpt>
      <trkpt lat="44.13784" lon="1.87887">
        <ele>179</ele>
        <time>2012-12-29T08:43:48.999Z</time>
      </trkpt>
      <trkpt lat="44.13786" lon="1.87882">
        <ele>179</ele>
        <time>2012-12-29T08:43:49.999Z</time>
      </trkpt>
      <trkpt lat="44.13788" lon="1.87878">
        <ele>178.9</ele>
        <time>2012-12-29T08:43:50.999Z</time>
      </trkpt>
      <trkpt lat="44.13789" lon="1.87874">
        <ele>178.9</ele>
        <time>2012-12-29T08:43:51.999Z</time>
      </trkpt>
      <trkpt lat="44.13791" lon="1.87871">
        <ele>178.9</ele>
        <time>2012-12-29T08:43:52.999Z</time>
      </trkpt>
      <trkpt lat="44.13792" lon="1.87866">
        <ele>179</ele>
        <time>2012-12-29T08:43:53.999Z</time>
      </trkpt>
      <trkpt lat="44.13793" lon="1.87861">
        <ele>179.1</ele>
        <time>2012-12-29T08:43:54.999Z</time>
      </trkpt>
      <trkpt lat="44.13793" lon="1.87856">
        <ele>179.2</ele>
        <time>2012-12-29T08:43:55.999Z</time>
      </trkpt>
      <trkpt lat="44.13794" lon="1.8785">
        <ele>179.3</ele>
        <time>2012-12-29T08:43:56.999Z</time>
      </trkpt>
      <trkpt lat="44.13794" lon="1.87845">
        <ele>179.5</ele>
        <time>2012-12-29T08:43:57.999Z</time>
      </trkpt>
      <trkpt lat="44.13795" lon="1.87841">
        <ele>179.7</ele>
        <time>2012-12-29T08:43:58.999Z</time>
      </trkpt>
      <trkpt lat="44.13795" lon="1.87835">
        <ele>179.9</ele>
        <time>2012-12-29T08:43:59.999Z</time>
      </trkpt>
      <trkpt lat="44.13795" lon="1.87829">
        <ele>180.2</ele>
        <time>2012-12-29T08:44:00.999Z</time>
      </trkpt>
      <trkpt lat="44.13797" lon="1.87823">
        <ele>180.5</ele>
        <time>2012-12-29T08:44:01.999Z</time>
      </trkpt>
      <trkpt lat="44.13798" lon="1.87817">
        <ele>183.2</ele>
        <time>2012-12-29T08:44:02.999Z</time>
      </trkpt>
      <trkpt lat="44.138" lon="1.87811">
        <ele>185.4</ele>
        <time>2012-12-29T08:44:03.999Z</time>
      </trkpt>
      <trkpt lat="44.138" lon="1.87805">
        <ele>185.5</ele>
        <time>2012-12-29T08:44:04.999Z</time>
      </trkpt>
      <trkpt lat="44.13801" lon="1.878">
        <ele>185.5</ele>
        <time>2012-12-29T08:44:05.999Z</time>
      </trkpt>
      <trkpt lat="44.13801" lon="1.87795">
        <ele>185.6</ele>
        <time>2012-12-29T08:44:06.999Z</time>
      </trkpt>
      <trkpt lat="44.13802" lon="1.87789">
        <ele>185.7</ele>
        <time>2012-12-29T08:44:07.999Z</time>
      </trkpt>
      <trkpt lat="44.13802" lon="1.87782">
        <ele>185.6</ele>
        <time>2012-12-29T08:44:08.999Z</time>
      </trkpt>
      <trkpt lat="44.13801" lon="1.87775">
        <ele>185.2</ele>
        <time>2012-12-29T08:44:09.999Z</time>
      </trkpt>
      <trkpt lat="44.13799" lon="1.87768">
        <ele>184.7</ele>
        <time>2012-12-29T08:44:10.999Z</time>
      </trkpt>
      <trkpt lat="44.13798" lon="1.87761">
        <ele>184.2</ele>
        <time>2012-12-29T08:44:11.999Z</time>
      </trkpt>
      <trkpt lat="44.13796" lon="1.87754">
        <ele>184.1</ele>
        <time>2012-12-29T08:44:12.999Z</time>
      </trkpt>
      <trkpt lat="44.13795" lon="1.87747">
        <ele>184</ele>
        <time>2012-12-29T08:44:13.999Z</time>
      </trkpt>
      <trkpt lat="44.13793" lon="1.87741">
        <ele>184.1</ele>
        <time>2012-12-29T08:44:14.999Z</time>
      </trkpt>
      <trkpt lat="44.13791" lon="1.87734">
        <ele>184</ele>
        <time>2012-12-29T08:44:15.999Z</time>
      </trkpt>
      <trkpt lat="44.13789" lon="1.87728">
        <ele>183.6</ele>
        <time>2012-12-29T08:44:16.999Z</time>
      </trkpt>
      <trkpt lat="44.13786" lon="1.87722">
        <ele>183.2</ele>
        <time>2012-12-29T08:44:17.999Z</time>
      </trkpt>
      <trkpt lat="44.13783" lon="1.87715">
        <ele>183.2</ele>
        <time>2012-12-29T08:44:18.999Z</time>
      </trkpt>
      <trkpt lat="44.13781" lon="1.87709">
        <ele>183.1</ele>
        <time>2012-12-29T08:44:19.999Z</time>
      </trkpt>
      <trkpt lat="44.13778" lon="1.87703">
        <ele>183.5</ele>
        <time>2012-12-29T08:44:20.999Z</time>
      </trkpt>
      <trkpt lat="44.13775" lon="1.87696">
        <ele>184</ele>
        <time>2012-12-29T08:44:21.999Z</time>
      </trkpt>
      <trkpt lat="44.13771" lon="1.8769">
        <ele>183.9</ele>
        <time>2012-12-29T08:44:22.999Z</time>
      </trkpt>
      <trkpt lat="44.13767" lon="1.87684">
        <ele>184.2</ele>
        <time>2012-12-29T08:44:23.999Z</time>
      </trkpt>
      <trkpt lat="44.13763" lon="1.87678">
        <ele>184.5</ele>
        <time>2012-12-29T08:44:24.999Z</time>
      </trkpt>
      <trkpt lat="44.13759" lon="1.87672">
        <ele>184.9</ele>
        <time>2012-12-29T08:44:25.999Z</time>
      </trkpt>
      <trkpt lat="44.13755" lon="1.87667">
        <ele>185.2</ele>
        <time>2012-12-29T08:44:26.999Z</time>
      </trkpt>
      <trkpt lat="44.1375" lon="1.87661">
        <ele>185.2</ele>
        <time>2012-12-29T08:44:27.999Z</time>
      </trkpt>
      <trkpt lat="44.13745" lon="1.87656">
        <ele>185.6</ele>
        <time>2012-12-29T08:44:28.999Z</time>
      </trkpt>
      <trkpt lat="44.1374" lon="1.87652">
        <ele>185.6</ele>
        <time>2012-12-29T08:44:29.999Z</time>
      </trkpt>
      <trkpt lat="44.13736" lon="1.87647">
        <ele>185.6</ele>
        <time>2012-12-29T08:44:30.999Z</time>
      </trkpt>
      <trkpt lat="44.13731" lon="1.87644">
        <ele>185.3</ele>
        <time>2012-12-29T08:44:31.999Z</time>
      </trkpt>
      <trkpt lat="44.13727" lon="1.8764">
        <ele>184.6</ele>
        <time>2012-12-29T08:44:32.999Z</time>
      </trkpt>
      <trkpt lat="44.13722" lon="1.87636">
        <ele>184.1</ele>
        <time>2012-12-29T08:44:33.999Z</time>
      </trkpt>
      <trkpt lat="44.13716" lon="1.87631">
        <ele>183.5</ele>
        <time>2012-12-29T08:44:34.999Z</time>
      </trkpt>
      <trkpt lat="44.13712" lon="1.87623">
        <ele>182.3</ele>
        <time>2012-12-29T08:44:35.999Z</time>
      </trkpt>
      <trkpt lat="44.13707" lon="1.87618">
        <ele>181</ele>
        <time>2012-12-29T08:44:36.999Z</time>
      </trkpt>
      <trkpt lat="44.13704" lon="1.87612">
        <ele>179.7</ele>
        <time>2012-12-29T08:44:37.999Z</time>
      </trkpt>
      <trkpt lat="44.137" lon="1.87606">
        <ele>178.8</ele>
        <time>2012-12-29T08:44:38.999Z</time>
      </trkpt>
      <trkpt lat="44.13696" lon="1.876">
        <ele>178</ele>
        <time>2012-12-29T08:44:39.999Z</time>
      </trkpt>
      <trkpt lat="44.13693" lon="1.87593">
        <ele>178</ele>
        <time>2012-12-29T08:44:40.999Z</time>
      </trkpt>
      <trkpt lat="44.13689" lon="1.87588">
        <ele>178.1</ele>
        <time>2012-12-29T08:44:41.999Z</time>
      </trkpt>
      <trkpt lat="44.13686" lon="1.87583">
        <ele>178.3</ele>
        <time>2012-12-29T08:44:42.999Z</time>
      </trkpt>
      <trkpt lat="44.13682" lon="1.87579">
        <ele>178.4</ele>
        <time>2012-12-29T08:44:43.999Z</time>
      </trkpt>
      <trkpt lat="44.13679" lon="1.87575">
        <ele>178.8</ele>
        <time>2012-12-29T08:44:44.999Z</time>
      </trkpt>
      <trkpt lat="44.13676" lon="1.8757">
        <ele>178.9</ele>
        <time>2012-12-29T08:44:45.999Z</time>
      </trkpt>
      <trkpt lat="44.13673" lon="1.87566">
        <ele>179.3</ele>
        <time>2012-12-29T08:44:46.999Z</time>
      </trkpt>
      <trkpt lat="44.1367" lon="1.87562">
        <ele>179.9</ele>
        <time>2012-12-29T08:44:47.999Z</time>
      </trkpt>
      <trkpt lat="44.13666" lon="1.87558">
        <ele>180.5</ele>
        <time>2012-12-29T08:44:48.999Z</time>
      </trkpt>
      <trkpt lat="44.13663" lon="1.87555">
        <ele>180.7</ele>
        <time>2012-12-29T08:44:49.999Z</time>
      </trkpt>
      <trkpt lat="44.1366" lon="1.87552">
        <ele>180.5</ele>
        <time>2012-12-29T08:44:50.999Z</time>
      </trkpt>
      <trkpt lat="44.13656" lon="1.87549">
        <ele>180.3</ele>
        <time>2012-12-29T08:44:51.999Z</time>
      </trkpt>
      <trkpt lat="44.13652" lon="1.87546">
        <ele>180</ele>
        <time>2012-12-29T08:44:52.999Z</time>
      </trkpt>
      <trkpt lat="44.13648" lon="1.87543">
        <ele>179.9</ele>
        <time>2012-12-29T08:44:53.999Z</time>
      </trkpt>
      <trkpt lat="44.13645" lon="1.87541">
        <ele>179.9</ele>
        <time>2012-12-29T08:44:54.999Z</time>
      </trkpt>
      <trkpt lat="44.13641" lon="1.87539">
        <ele>180.3</ele>
        <time>2012-12-29T08:44:55.999Z</time>
      </trkpt>
      <trkpt lat="44.13637" lon="1.87538">
        <ele>180.3</ele>
        <time>2012-12-29T08:44:56.999Z</time>
      </trkpt>
      <trkpt lat="44.13633" lon="1.87536">
        <ele>180.4</ele>
        <time>2012-12-29T08:44:57.999Z</time>
      </trkpt>
      <trkpt lat="44.13629" lon="1.87533">
        <ele>180.4</ele>
        <time>2012-12-29T08:44:58.999Z</time>
      </trkpt>
      <trkpt lat="44.13624" lon="1.87532">
        <ele>180.8</ele>
        <time>2012-12-29T08:44:59.999Z</time>
      </trkpt>
      <trkpt lat="44.13619" lon="1.87532">
        <ele>180.5</ele>
        <time>2012-12-29T08:45:00.999Z</time>
      </trkpt>
      <trkpt lat="44.13614" lon="1.8753">
        <ele>180.9</ele>
        <time>2012-12-29T08:45:01.999Z</time>
      </trkpt>
      <trkpt lat="44.13609" lon="1.87529">
        <ele>181.7</ele>
        <time>2012-12-29T08:45:02.999Z</time>
      </trkpt>
      <trkpt lat="44.13605" lon="1.87527">
        <ele>182.4</ele>
        <time>2012-12-29T08:45:03.999Z</time>
      </trkpt>
      <trkpt lat="44.136" lon="1.87525">
        <ele>182.5</ele>
        <time>2012-12-29T08:45:04.999Z</time>
      </trkpt>
      <trkpt lat="44.13596" lon="1.87524">
        <ele>182.5</ele>
        <time>2012-12-29T08:45:05.999Z</time>
      </trkpt>
      <trkpt lat="44.13592" lon="1.87523">
        <ele>182.6</ele>
        <time>2012-12-29T08:45:06.999Z</time>
      </trkpt>
      <trkpt lat="44.13589" lon="1.87522">
        <ele>182.6</ele>
        <time>2012-12-29T08:45:07.999Z</time>
      </trkpt>
      <trkpt lat="44.13585" lon="1.87521">
        <ele>182.7</ele>
        <time>2012-12-29T08:45:08.999Z</time>
      </trkpt>
      <trkpt lat="44.13583" lon="1.87521">
        <ele>182.7</ele>
        <time>2012-12-29T08:45:09.999Z</time>
      </trkpt>
      <trkpt lat="44.13579" lon="1.8752">
        <ele>182.7</ele>
        <time>2012-12-29T08:45:10.999Z</time>
      </trkpt>
      <trkpt lat="44.13576" lon="1.8752">
        <ele>182.8</ele>
        <time>2012-12-29T08:45:11.999Z</time>
      </trkpt>
      <trkpt lat="44.13572" lon="1.87519">
        <ele>182.9</ele>
        <time>2012-12-29T08:45:12.999Z</time>
      </trkpt>
      <trkpt lat="44.13569" lon="1.8752">
        <ele>183</ele>
        <time>2012-12-29T08:45:13.999Z</time>
      </trkpt>
      <trkpt lat="44.13565" lon="1.8752">
        <ele>183</ele>
        <time>2012-12-29T08:45:14.999Z</time>
      </trkpt>
      <trkpt lat="44.13562" lon="1.87519">
        <ele>183</ele>
        <time>2012-12-29T08:45:15.999Z</time>
      </trkpt>
      <trkpt lat="44.13559" lon="1.8752">
        <ele>183.1</ele>
        <time>2012-12-29T08:45:16.999Z</time>
      </trkpt>
      <trkpt lat="44.13555" lon="1.87521">
        <ele>183.1</ele>
        <time>2012-12-29T08:45:17.999Z</time>
      </trkpt>
      <trkpt lat="44.13551" lon="1.87521">
        <ele>183.1</ele>
        <time>2012-12-29T08:45:18.999Z</time>
      </trkpt>
      <trkpt lat="44.13547" lon="1.87523">
        <ele>183.2</ele>
        <time>2012-12-29T08:45:19.999Z</time>
      </trkpt>
      <trkpt lat="44.13542" lon="1.87524">
        <ele>183.2</ele>
        <time>2012-12-29T08:45:20.999Z</time>
      </trkpt>
      <trkpt lat="44.13538" lon="1.87525">
        <ele>183.9</ele>
        <time>2012-12-29T08:45:21.999Z</time>
      </trkpt>
      <trkpt lat="44.13534" lon="1.87526">
        <ele>184</ele>
        <time>2012-12-29T08:45:22.999Z</time>
      </trkpt>
      <trkpt lat="44.1353" lon="1.87527">
        <ele>184.3</ele>
        <time>2012-12-29T08:45:23.999Z</time>
      </trkpt>
      <trkpt lat="44.13527" lon="1.87528">
        <ele>184.5</ele>
        <time>2012-12-29T08:45:24.999Z</time>
      </trkpt>
      <trkpt lat="44.13523" lon="1.87529">
        <ele>184.6</ele>
        <time>2012-12-29T08:45:25.999Z</time>
      </trkpt>
      <trkpt lat="44.13519" lon="1.8753">
        <ele>184.8</ele>
        <time>2012-12-29T08:45:26.999Z</time>
      </trkpt>
      <trkpt lat="44.13516" lon="1.87532">
        <ele>185</ele>
        <time>2012-12-29T08:45:27.999Z</time>
      </trkpt>
      <trkpt lat="44.13513" lon="1.87534">
        <ele>184.7</ele>
        <time>2012-12-29T08:45:28.999Z</time>
      </trkpt>
      <trkpt lat="44.13509" lon="1.87536">
        <ele>185.2</ele>
        <time>2012-12-29T08:45:29.999Z</time>
      </trkpt>
      <trkpt lat="44.13505" lon="1.87539">
        <ele>186.2</ele>
        <time>2012-12-29T08:45:30.999Z</time>
      </trkpt>
      <trkpt lat="44.13501" lon="1.87542">
        <ele>186.6</ele>
        <time>2012-12-29T08:45:31.999Z</time>
      </trkpt>
      <trkpt lat="44.13496" lon="1.87545">
        <ele>186.6</ele>
        <time>2012-12-29T08:45:32.999Z</time>
      </trkpt>
      <trkpt lat="44.13492" lon="1.87547">
        <ele>186.6</ele>
        <time>2012-12-29T08:45:33.999Z</time>
      </trkpt>
      <trkpt lat="44.13488" lon="1.87551">
        <ele>186.3</ele>
        <time>2012-12-29T08:45:34.999Z</time>
      </trkpt>
      <trkpt lat="44.13483" lon="1.87554">
        <ele>185.7</ele>
        <time>2012-12-29T08:45:35.999Z</time>
      </trkpt>
      <trkpt lat="44.13479" lon="1.87557">
        <ele>185.3</ele>
        <time>2012-12-29T08:45:36.999Z</time>
      </trkpt>
      <trkpt lat="44.13475" lon="1.8756">
        <ele>185</ele>
        <time>2012-12-29T08:45:37.999Z</time>
      </trkpt>
      <trkpt lat="44.13472" lon="1.87563">
        <ele>184.8</ele>
        <time>2012-12-29T08:45:38.999Z</time>
      </trkpt>
      <trkpt lat="44.13468" lon="1.87566">
        <ele>184.4</ele>
        <time>2012-12-29T08:45:39.999Z</time>
      </trkpt>
      <trkpt lat="44.13464" lon="1.87569">
        <ele>183.9</ele>
        <time>2012-12-29T08:45:40.999Z</time>
      </trkpt>
      <trkpt lat="44.1346" lon="1.87572">
        <ele>183.4</ele>
        <time>2012-12-29T08:45:41.999Z</time>
      </trkpt>
      <trkpt lat="44.13457" lon="1.87575">
        <ele>182.8</ele>
        <time>2012-12-29T08:45:42.999Z</time>
      </trkpt>
      <trkpt lat="44.13453" lon="1.87578">
        <ele>182.3</ele>
        <time>2012-12-29T08:45:43.999Z</time>
      </trkpt>
      <trkpt lat="44.13449" lon="1.8758">
        <ele>182</ele>
        <time>2012-12-29T08:45:44.999Z</time>
      </trkpt>
      <trkpt lat="44.13446" lon="1.87581">
        <ele>182</ele>
        <time>2012-12-29T08:45:45.999Z</time>
      </trkpt>
      <trkpt lat="44.13444" lon="1.8758">
        <ele>181.9</ele>
        <time>2012-12-29T08:45:46.999Z</time>
      </trkpt>
      <trkpt lat="44.13441" lon="1.87576">
        <ele>181.5</ele>
        <time>2012-12-29T08:45:47.999Z</time>
      </trkpt>
      <trkpt lat="44.13442" lon="1.87572">
        <ele>181.3</ele>
        <time>2012-12-29T08:45:48.999Z</time>
      </trkpt>
      <trkpt lat="44.13444" lon="1.87566">
        <ele>181.8</ele>
        <time>2012-12-29T08:45:49.999Z</time>
      </trkpt>
      <trkpt lat="44.13447" lon="1.8756">
        <ele>182.1</ele>
        <time>2012-12-29T08:45:50.999Z</time>
      </trkpt>
      <trkpt lat="44.1345" lon="1.87553">
        <ele>182.5</ele>
        <time>2012-12-29T08:45:51.999Z</time>
      </trkpt>
      <trkpt lat="44.13453" lon="1.87546">
        <ele>182.9</ele>
        <time>2012-12-29T08:45:52.999Z</time>
      </trkpt>
      <trkpt lat="44.13456" lon="1.87539">
        <ele>183.1</ele>
        <time>2012-12-29T08:45:53.999Z</time>
      </trkpt>
      <trkpt lat="44.1346" lon="1.87532">
        <ele>183.1</ele>
        <time>2012-12-29T08:45:54.999Z</time>
      </trkpt>
      <trkpt lat="44.13463" lon="1.87526">
        <ele>183</ele>
        <time>2012-12-29T08:45:55.999Z</time>
      </trkpt>
      <trkpt lat="44.13466" lon="1.8752">
        <ele>183.2</ele>
        <time>2012-12-29T08:45:56.999Z</time>
      </trkpt>
      <trkpt lat="44.13469" lon="1.87514">
        <ele>183.1</ele>
        <time>2012-12-29T08:45:57.999Z</time>
      </trkpt>
      <trkpt lat="44.13472" lon="1.87508">
        <ele>182.9</ele>
        <time>2012-12-29T08:45:58.999Z</time>
      </trkpt>
      <trkpt lat="44.13475" lon="1.87503">
        <ele>182.5</ele>
        <time>2012-12-29T08:45:59.999Z</time>
      </trkpt>
      <trkpt lat="44.13478" lon="1.87498">
        <ele>182.4</ele>
        <time>2012-12-29T08:46:00.999Z</time>
      </trkpt>
      <trkpt lat="44.1348" lon="1.87493">
        <ele>182.3</ele>
        <time>2012-12-29T08:46:01.999Z</time>
      </trkpt>
      <trkpt lat="44.13482" lon="1.87488">
        <ele>182</ele>
        <time>2012-12-29T08:46:02.999Z</time>
      </trkpt>
      <trkpt lat="44.13485" lon="1.87482">
        <ele>181.3</ele>
        <time>2012-12-29T08:46:03.999Z</time>
      </trkpt>
      <trkpt lat="44.13487" lon="1.87477">
        <ele>180.3</ele>
        <time>2012-12-29T08:46:04.999Z</time>
      </trkpt>
      <trkpt lat="44.1349" lon="1.87472">
        <ele>179.4</ele>
        <time>2012-12-29T08:46:05.999Z</time>
      </trkpt>
      <trkpt lat="44.13492" lon="1.87467">
        <ele>178.1</ele>
        <time>2012-12-29T08:46:06.999Z</time>
      </trkpt>
      <trkpt lat="44.13495" lon="1.87462">
        <ele>178</ele>
        <time>2012-12-29T08:46:07.999Z</time>
      </trkpt>
      <trkpt lat="44.13498" lon="1.87457">
        <ele>178.3</ele>
        <time>2012-12-29T08:46:08.999Z</time>
      </trkpt>
      <trkpt lat="44.13501" lon="1.87452">
        <ele>178.7</ele>
        <time>2012-12-29T08:46:09.999Z</time>
      </trkpt>
      <trkpt lat="44.13504" lon="1.87446">
        <ele>179.3</ele>
        <time>2012-12-29T08:46:10.999Z</time>
      </trkpt>
      <trkpt lat="44.13507" lon="1.87441">
        <ele>180.1</ele>
        <time>2012-12-29T08:46:11.999Z</time>
      </trkpt>
      <trkpt lat="44.13509" lon="1.87436">
        <ele>180.8</ele>
        <time>2012-12-29T08:46:12.999Z</time>
      </trkpt>
      <trkpt lat="44.13512" lon="1.87431">
        <ele>181.4</ele>
        <time>2012-12-29T08:46:13.999Z</time>
      </trkpt>
      <trkpt lat="44.13515" lon="1.87426">
        <ele>181.2</ele>
        <time>2012-12-29T08:46:14.999Z</time>
      </trkpt>
      <trkpt lat="44.13518" lon="1.8742">
        <ele>181.2</ele>
        <time>2012-12-29T08:46:15.999Z</time>
      </trkpt>
      <trkpt lat="44.13521" lon="1.87415">
        <ele>181.1</ele>
        <time>2012-12-29T08:46:16.999Z</time>
      </trkpt>
      <trkpt lat="44.13524" lon="1.87411">
        <ele>180.8</ele>
        <time>2012-12-29T08:46:17.999Z</time>
      </trkpt>
      <trkpt lat="44.13526" lon="1.87406">
        <ele>181</ele>
        <time>2012-12-29T08:46:18.999Z</time>
      </trkpt>
      <trkpt lat="44.13528" lon="1.87402">
        <ele>181.2</ele>
        <time>2012-12-29T08:46:19.999Z</time>
      </trkpt>
      <trkpt lat="44.1353" lon="1.87397">
        <ele>181.4</ele>
        <time>2012-12-29T08:46:20.999Z</time>
      </trkpt>
      <trkpt lat="44.13533" lon="1.87393">
        <ele>181.9</ele>
        <time>2012-12-29T08:46:21.999Z</time>
      </trkpt>
      <trkpt lat="44.13536" lon="1.87388">
        <ele>181.7</ele>
        <time>2012-12-29T08:46:22.999Z</time>
      </trkpt>
      <trkpt lat="44.13539" lon="1.87383">
        <ele>181.7</ele>
        <time>2012-12-29T08:46:23.999Z</time>
      </trkpt>
      <trkpt lat="44.13542" lon="1.87379">
        <ele>182</ele>
        <time>2012-12-29T08:46:24.999Z</time>
      </trkpt>
      <trkpt lat="44.13544" lon="1.87374">
        <ele>182.4</ele>
        <time>2012-12-29T08:46:25.999Z</time>
      </trkpt>
      <trkpt lat="44.13547" lon="1.87369">
        <ele>182.4</ele>
        <time>2012-12-29T08:46:26.999Z</time>
      </trkpt>
      <trkpt lat="44.1355" lon="1.87364">
        <ele>182.6</ele>
        <time>2012-12-29T08:46:27.999Z</time>
      </trkpt>
      <trkpt lat="44.13553" lon="1.87359">
        <ele>183</ele>
        <time>2012-12-29T08:46:28.999Z</time>
      </trkpt>
      <trkpt lat="44.13555" lon="1.87354">
        <ele>183.3</ele>
        <time>2012-12-29T08:46:29.999Z</time>
      </trkpt>
      <trkpt lat="44.13558" lon="1.8735">
        <ele>183.9</ele>
        <time>2012-12-29T08:46:30.999Z</time>
      </trkpt>
      <trkpt lat="44.13561" lon="1.87346">
        <ele>184.4</ele>
        <time>2012-12-29T08:46:31.999Z</time>
      </trkpt>
      <trkpt lat="44.13563" lon="1.87342">
        <ele>184.5</ele>
        <time>2012-12-29T08:46:32.999Z</time>
      </trkpt>
      <trkpt lat="44.13566" lon="1.87337">
        <ele>184.6</ele>
        <time>2012-12-29T08:46:33.999Z</time>
      </trkpt>
      <trkpt lat="44.13568" lon="1.87332">
        <ele>184.6</ele>
        <time>2012-12-29T08:46:34.999Z</time>
      </trkpt>
      <trkpt lat="44.13571" lon="1.87328">
        <ele>184.5</ele>
        <time>2012-12-29T08:46:35.999Z</time>
      </trkpt>
      <trkpt lat="44.13573" lon="1.87324">
        <ele>184.5</ele>
        <time>2012-12-29T08:46:36.999Z</time>
      </trkpt>
      <trkpt lat="44.13575" lon="1.8732">
        <ele>184.5</ele>
        <time>2012-12-29T08:46:37.999Z</time>
      </trkpt>
      <trkpt lat="44.13578" lon="1.87315">
        <ele>184.4</ele>
        <time>2012-12-29T08:46:38.999Z</time>
      </trkpt>
      <trkpt lat="44.13579" lon="1.87311">
        <ele>184.4</ele>
        <time>2012-12-29T08:46:39.999Z</time>
      </trkpt>
      <trkpt lat="44.13581" lon="1.87307">
        <ele>184.8</ele>
        <time>2012-12-29T08:46:40.999Z</time>
      </trkpt>
      <trkpt lat="44.13583" lon="1.87303">
        <ele>185.1</ele>
        <time>2012-12-29T08:46:41.999Z</time>
      </trkpt>
      <trkpt lat="44.13584" lon="1.87299">
        <ele>185.3</ele>
        <time>2012-12-29T08:46:42.999Z</time>
      </trkpt>
      <trkpt lat="44.13587" lon="1.87295">
        <ele>185.4</ele>
        <time>2012-12-29T08:46:43.999Z</time>
      </trkpt>
      <trkpt lat="44.13589" lon="1.87291">
        <ele>185.6</ele>
        <time>2012-12-29T08:46:44.999Z</time>
      </trkpt>
      <trkpt lat="44.13591" lon="1.87286">
        <ele>185.8</ele>
        <time>2012-12-29T08:46:45.999Z</time>
      </trkpt>
      <trkpt lat="44.13594" lon="1.87282">
        <ele>185.7</ele>
        <time>2012-12-29T08:46:46.999Z</time>
      </trkpt>
      <trkpt lat="44.13597" lon="1.87278">
        <ele>185.6</ele>
        <time>2012-12-29T08:46:47.999Z</time>
      </trkpt>
      <trkpt lat="44.136" lon="1.87275">
        <ele>185.5</ele>
        <time>2012-12-29T08:46:48.999Z</time>
      </trkpt>
      <trkpt lat="44.13603" lon="1.87271">
        <ele>185.5</ele>
        <time>2012-12-29T08:46:49.999Z</time>
      </trkpt>
      <trkpt lat="44.13606" lon="1.87268">
        <ele>185.5</ele>
        <time>2012-12-29T08:46:50.999Z</time>
      </trkpt>
      <trkpt lat="44.13609" lon="1.87265">
        <ele>185.5</ele>
        <time>2012-12-29T08:46:51.999Z</time>
      </trkpt>
      <trkpt lat="44.13613" lon="1.87261">
        <ele>185.5</ele>
        <time>2012-12-29T08:46:52.999Z</time>
      </trkpt>
      <trkpt lat="44.13617" lon="1.87258">
        <ele>185.5</ele>
        <time>2012-12-29T08:46:53.999Z</time>
      </trkpt>
      <trkpt lat="44.13621" lon="1.87254">
        <ele>184.8</ele>
        <time>2012-12-29T08:46:54.999Z</time>
      </trkpt>
      <trkpt lat="44.13624" lon="1.87251">
        <ele>184.8</ele>
        <time>2012-12-29T08:46:55.999Z</time>
      </trkpt>
      <trkpt lat="44.13626" lon="1.87247">
        <ele>184.7</ele>
        <time>2012-12-29T08:46:56.999Z</time>
      </trkpt>
      <trkpt lat="44.13626" lon="1.87242">
        <ele>184.7</ele>
        <time>2012-12-29T08:46:57.999Z</time>
      </trkpt>
      <trkpt lat="44.13627" lon="1.87238">
        <ele>184.6</ele>
        <time>2012-12-29T08:46:58.999Z</time>
      </trkpt>
      <trkpt lat="44.13627" lon="1.87234">
        <ele>184.6</ele>
        <time>2012-12-29T08:46:59.999Z</time>
      </trkpt>
      <trkpt lat="44.13626" lon="1.87231">
        <ele>184.4</ele>
        <time>2012-12-29T08:47:00.999Z</time>
      </trkpt>
      <trkpt lat="44.13623" lon="1.87228">
        <ele>184.4</ele>
        <time>2012-12-29T08:47:01.999Z</time>
      </trkpt>
      <trkpt lat="44.1362" lon="1.87226">
        <ele>184.3</ele>
        <time>2012-12-29T08:47:02.999Z</time>
      </trkpt>
      <trkpt lat="44.13616" lon="1.87224">
        <ele>184.3</ele>
        <time>2012-12-29T08:47:03.999Z</time>
      </trkpt>
      <trkpt lat="44.13611" lon="1.87222">
        <ele>184.3</ele>
        <time>2012-12-29T08:47:04.999Z</time>
      </trkpt>
      <trkpt lat="44.13607" lon="1.8722">
        <ele>184.2</ele>
        <time>2012-12-29T08:47:05.999Z</time>
      </trkpt>
      <trkpt lat="44.13603" lon="1.87216">
        <ele>184.1</ele>
        <time>2012-12-29T08:47:06.999Z</time>
      </trkpt>
      <trkpt lat="44.13599" lon="1.87212">
        <ele>184</ele>
        <time>2012-12-29T08:47:07.999Z</time>
      </trkpt>
      <trkpt lat="44.13596" lon="1.87208">
        <ele>183.9</ele>
        <time>2012-12-29T08:47:08.999Z</time>
      </trkpt>
      <trkpt lat="44.13593" lon="1.87204">
        <ele>183.8</ele>
        <time>2012-12-29T08:47:09.999Z</time>
      </trkpt>
      <trkpt lat="44.13591" lon="1.872">
        <ele>183.7</ele>
        <time>2012-12-29T08:47:10.999Z</time>
      </trkpt>
      <trkpt lat="44.13588" lon="1.87196">
        <ele>183.6</ele>
        <time>2012-12-29T08:47:11.999Z</time>
      </trkpt>
      <trkpt lat="44.13586" lon="1.87192">
        <ele>183.5</ele>
        <time>2012-12-29T08:47:12.999Z</time>
      </trkpt>
      <trkpt lat="44.13584" lon="1.87189">
        <ele>183.5</ele>
        <time>2012-12-29T08:47:13.999Z</time>
      </trkpt>
      <trkpt lat="44.13581" lon="1.87185">
        <ele>183.5</ele>
        <time>2012-12-29T08:47:14.999Z</time>
      </trkpt>
      <trkpt lat="44.13578" lon="1.87182">
        <ele>183.5</ele>
        <time>2012-12-29T08:47:15.999Z</time>
      </trkpt>
      <trkpt lat="44.13575" lon="1.87178">
        <ele>183.4</ele>
        <time>2012-12-29T08:47:16.999Z</time>
      </trkpt>
      <trkpt lat="44.13572" lon="1.87174">
        <ele>183.4</ele>
        <time>2012-12-29T08:47:17.999Z</time>
      </trkpt>
      <trkpt lat="44.1357" lon="1.8717">
        <ele>183.3</ele>
        <time>2012-12-29T08:47:18.999Z</time>
      </trkpt>
      <trkpt lat="44.13567" lon="1.87166">
        <ele>183.2</ele>
        <time>2012-12-29T08:47:19.999Z</time>
      </trkpt>
      <trkpt lat="44.13565" lon="1.87163">
        <ele>183.2</ele>
        <time>2012-12-29T08:47:20.999Z</time>
      </trkpt>
      <trkpt lat="44.13563" lon="1.87159">
        <ele>183.1</ele>
        <time>2012-12-29T08:47:21.999Z</time>
      </trkpt>
      <trkpt lat="44.1356" lon="1.87156">
        <ele>183.1</ele>
        <time>2012-12-29T08:47:22.999Z</time>
      </trkpt>
      <trkpt lat="44.13557" lon="1.87154">
        <ele>183</ele>
        <time>2012-12-29T08:47:23.999Z</time>
      </trkpt>
      <trkpt lat="44.13555" lon="1.87151">
        <ele>183</ele>
        <time>2012-12-29T08:47:24.999Z</time>
      </trkpt>
      <trkpt lat="44.13553" lon="1.87149">
        <ele>183.1</ele>
        <time>2012-12-29T08:47:25.999Z</time>
      </trkpt>
      <trkpt lat="44.13551" lon="1.87146">
        <ele>183.1</ele>
        <time>2012-12-29T08:47:26.999Z</time>
      </trkpt>
      <trkpt lat="44.13549" lon="1.87143">
        <ele>183.2</ele>
        <time>2012-12-29T08:47:27.999Z</time>
      </trkpt>
      <trkpt lat="44.13547" lon="1.87139">
        <ele>183.3</ele>
        <time>2012-12-29T08:47:28.999Z</time>
      </trkpt>
      <trkpt lat="44.13543" lon="1.87135">
        <ele>183.3</ele>
        <time>2012-12-29T08:47:29.999Z</time>
      </trkpt>
      <trkpt lat="44.1354" lon="1.87132">
        <ele>183.3</ele>
        <time>2012-12-29T08:47:30.999Z</time>
      </trkpt>
      <trkpt lat="44.13538" lon="1.87128">
        <ele>183.3</ele>
        <time>2012-12-29T08:47:31.999Z</time>
      </trkpt>
      <trkpt lat="44.13535" lon="1.87125">
        <ele>183.4</ele>
        <time>2012-12-29T08:47:32.999Z</time>
      </trkpt>
      <trkpt lat="44.13533" lon="1.87122">
        <ele>183.4</ele>
        <time>2012-12-29T08:47:33.999Z</time>
      </trkpt>
      <trkpt lat="44.1353" lon="1.8712">
        <ele>183.4</ele>
        <time>2012-12-29T08:47:34.999Z</time>
      </trkpt>
      <trkpt lat="44.13527" lon="1.87118">
        <ele>183.4</ele>
        <time>2012-12-29T08:47:35.999Z</time>
      </trkpt>
      <trkpt lat="44.13525" lon="1.87116">
        <ele>183.5</ele>
        <time>2012-12-29T08:47:36.999Z</time>
      </trkpt>
      <trkpt lat="44.13522" lon="1.87114">
        <ele>183.5</ele>
        <time>2012-12-29T08:47:37.999Z</time>
      </trkpt>
      <trkpt lat="44.13519" lon="1.87112">
        <ele>183.5</ele>
        <time>2012-12-29T08:47:38.999Z</time>
      </trkpt>
      <trkpt lat="44.13516" lon="1.87109">
        <ele>183.5</ele>
        <time>2012-12-29T08:47:39.999Z</time>
      </trkpt>
      <trkpt lat="44.13513" lon="1.87107">
        <ele>183.6</ele>
        <time>2012-12-29T08:47:40.999Z</time>
      </trkpt>
      <trkpt lat="44.13509" lon="1.87105">
        <ele>183.6</ele>
        <time>2012-12-29T08:47:41.999Z</time>
      </trkpt>
      <trkpt lat="44.13506" lon="1.87103">
        <ele>183.7</ele>
        <time>2012-12-29T08:47:42.999Z</time>
      </trkpt>
      <trkpt lat="44.13503" lon="1.87101">
        <ele>183.8</ele>
        <time>2012-12-29T08:47:43.999Z</time>
      </trkpt>
      <trkpt lat="44.135" lon="1.87099">
        <ele>183.9</ele>
        <time>2012-12-29T08:47:44.999Z</time>
      </trkpt>
      <trkpt lat="44.13497" lon="1.87097">
        <ele>184</ele>
        <time>2012-12-29T08:47:45.999Z</time>
      </trkpt>
      <trkpt lat="44.13495" lon="1.87094">
        <ele>184.1</ele>
        <time>2012-12-29T08:47:46.999Z</time>
      </trkpt>
      <trkpt lat="44.13492" lon="1.87092">
        <ele>184.1</ele>
        <time>2012-12-29T08:47:47.999Z</time>
      </trkpt>
      <trkpt lat="44.1349" lon="1.87091">
        <ele>184.2</ele>
        <time>2012-12-29T08:47:48.999Z</time>
      </trkpt>
      <trkpt lat="44.13487" lon="1.87088">
        <ele>184.2</ele>
        <time>2012-12-29T08:47:49.999Z</time>
      </trkpt>
      <trkpt lat="44.13484" lon="1.87086">
        <ele>184.2</ele>
        <time>2012-12-29T08:47:50.999Z</time>
      </trkpt>
      <trkpt lat="44.13481" lon="1.87083">
        <ele>184.2</ele>
        <time>2012-12-29T08:47:51.999Z</time>
      </trkpt>
      <trkpt lat="44.13478" lon="1.87082">
        <ele>184.2</ele>
        <time>2012-12-29T08:47:52.999Z</time>
      </trkpt>
      <trkpt lat="44.13474" lon="1.8708">
        <ele>184.1</ele>
        <time>2012-12-29T08:47:53.999Z</time>
      </trkpt>
      <trkpt lat="44.13471" lon="1.87078">
        <ele>184.1</ele>
        <time>2012-12-29T08:47:54.999Z</time>
      </trkpt>
      <trkpt lat="44.13468" lon="1.87077">
        <ele>184</ele>
        <time>2012-12-29T08:47:55.999Z</time>
      </trkpt>
      <trkpt lat="44.13464" lon="1.87075">
        <ele>184</ele>
        <time>2012-12-29T08:47:56.999Z</time>
      </trkpt>
      <trkpt lat="44.13462" lon="1.87073">
        <ele>184</ele>
        <time>2012-12-29T08:47:57.999Z</time>
      </trkpt>
      <trkpt lat="44.13459" lon="1.87072">
        <ele>184</ele>
        <time>2012-12-29T08:47:58.999Z</time>
      </trkpt>
      <trkpt lat="44.13457" lon="1.87071">
        <ele>184.1</ele>
        <time>2012-12-29T08:47:59.999Z</time>
      </trkpt>
      <trkpt lat="44.13455" lon="1.87069">
        <ele>184.1</ele>
        <time>2012-12-29T08:48:00.999Z</time>
      </trkpt>
      <trkpt lat="44.13453" lon="1.87067">
        <ele>184.2</ele>
        <time>2012-12-29T08:48:01.999Z</time>
      </trkpt>
      <trkpt lat="44.13451" lon="1.87064">
        <ele>184.3</ele>
        <time>2012-12-29T08:48:02.999Z</time>
      </trkpt>
      <trkpt lat="44.13449" lon="1.87063">
        <ele>184.4</ele>
        <time>2012-12-29T08:48:03.999Z</time>
      </trkpt>
      <trkpt lat="44.13447" lon="1.87059">
        <ele>184.5</ele>
        <time>2012-12-29T08:48:04.999Z</time>
      </trkpt>
      <trkpt lat="44.13445" lon="1.87056">
        <ele>184.5</ele>
        <time>2012-12-29T08:48:05.999Z</time>
      </trkpt>
      <trkpt lat="44.13442" lon="1.87053">
        <ele>184.5</ele>
        <time>2012-12-29T08:48:06.999Z</time>
      </trkpt>
      <trkpt lat="44.1344" lon="1.87051">
        <ele>184.5</ele>
        <time>2012-12-29T08:48:07.999Z</time>
      </trkpt>
      <trkpt lat="44.13438" lon="1.87049">
        <ele>184.5</ele>
        <time>2012-12-29T08:48:08.999Z</time>
      </trkpt>
      <trkpt lat="44.13436" lon="1.87047">
        <ele>184.5</ele>
        <time>2012-12-29T08:48:09.999Z</time>
      </trkpt>
      <trkpt lat="44.13434" lon="1.87044">
        <ele>184.4</ele>
        <time>2012-12-29T08:48:10.999Z</time>
      </trkpt>
      <trkpt lat="44.13432" lon="1.87041">
        <ele>184.4</ele>
        <time>2012-12-29T08:48:11.999Z</time>
      </trkpt>
      <trkpt lat="44.1343" lon="1.87039">
        <ele>184.3</ele>
        <time>2012-12-29T08:48:12.999Z</time>
      </trkpt>
      <trkpt lat="44.13428" lon="1.87038">
        <ele>184.2</ele>
        <time>2012-12-29T08:48:13.999Z</time>
      </trkpt>
      <trkpt lat="44.13426" lon="1.87036">
        <ele>184</ele>
        <time>2012-12-29T08:48:14.999Z</time>
      </trkpt>
      <trkpt lat="44.13423" lon="1.87035">
        <ele>183.9</ele>
        <time>2012-12-29T08:48:15.999Z</time>
      </trkpt>
      <trkpt lat="44.13422" lon="1.87033">
        <ele>183.8</ele>
        <time>2012-12-29T08:48:16.999Z</time>
      </trkpt>
      <trkpt lat="44.1342" lon="1.87029">
        <ele>183.7</ele>
        <time>2012-12-29T08:48:17.999Z</time>
      </trkpt>
      <trkpt lat="44.13419" lon="1.87026">
        <ele>183.7</ele>
        <time>2012-12-29T08:48:18.999Z</time>
      </trkpt>
      <trkpt lat="44.13417" lon="1.87023">
        <ele>183.5</ele>
        <time>2012-12-29T08:48:19.999Z</time>
      </trkpt>
      <trkpt lat="44.13414" lon="1.87019">
        <ele>183.3</ele>
        <time>2012-12-29T08:48:21.999Z</time>
      </trkpt>
      <trkpt lat="44.13412" lon="1.87017">
        <ele>183.2</ele>
        <time>2012-12-29T08:48:22.999Z</time>
      </trkpt>
      <trkpt lat="44.13409" lon="1.87014">
        <ele>183.2</ele>
        <time>2012-12-29T08:48:24.999Z</time>
      </trkpt>
      <trkpt lat="44.13407" lon="1.87014">
        <ele>183.1</ele>
        <time>2012-12-29T08:48:25.999Z</time>
      </trkpt>
      <trkpt lat="44.13403" lon="1.87012">
        <ele>183.1</ele>
        <time>2012-12-29T08:48:27.999Z</time>
      </trkpt>
      <trkpt lat="44.134" lon="1.87011">
        <ele>183</ele>
        <time>2012-12-29T08:48:28.999Z</time>
      </trkpt>
      <trkpt lat="44.13397" lon="1.8701">
        <ele>183.1</ele>
        <time>2012-12-29T08:48:29.999Z</time>
      </trkpt>
      <trkpt lat="44.13395" lon="1.87009">
        <ele>183.2</ele>
        <time>2012-12-29T08:48:30.999Z</time>
      </trkpt>
      <trkpt lat="44.13393" lon="1.87006">
        <ele>183.2</ele>
        <time>2012-12-29T08:48:31.999Z</time>
      </trkpt>
      <trkpt lat="44.1339" lon="1.87004">
        <ele>183.2</ele>
        <time>2012-12-29T08:48:32.999Z</time>
      </trkpt>
      <trkpt lat="44.13387" lon="1.87001">
        <ele>183.2</ele>
        <time>2012-12-29T08:48:33.999Z</time>
      </trkpt>
      <trkpt lat="44.13384" lon="1.86999">
        <ele>183.4</ele>
        <time>2012-12-29T08:48:34.999Z</time>
      </trkpt>
      <trkpt lat="44.1338" lon="1.86997">
        <ele>183.5</ele>
        <time>2012-12-29T08:48:35.999Z</time>
      </trkpt>
      <trkpt lat="44.13377" lon="1.86995">
        <ele>183.6</ele>
        <time>2012-12-29T08:48:36.999Z</time>
      </trkpt>
      <trkpt lat="44.13374" lon="1.86994">
        <ele>183.7</ele>
        <time>2012-12-29T08:48:37.999Z</time>
      </trkpt>
      <trkpt lat="44.13372" lon="1.86993">
        <ele>183.8</ele>
        <time>2012-12-29T08:48:38.999Z</time>
      </trkpt>
      <trkpt lat="44.1337" lon="1.86992">
        <ele>183.9</ele>
        <time>2012-12-29T08:48:39.999Z</time>
      </trkpt>
      <trkpt lat="44.13367" lon="1.86991">
        <ele>184</ele>
        <time>2012-12-29T08:48:40.999Z</time>
      </trkpt>
      <trkpt lat="44.13364" lon="1.8699">
        <ele>184.1</ele>
        <time>2012-12-29T08:48:41.999Z</time>
      </trkpt>
      <trkpt lat="44.13361" lon="1.8699">
        <ele>184.2</ele>
        <time>2012-12-29T08:48:42.999Z</time>
      </trkpt>
      <trkpt lat="44.13359" lon="1.86989">
        <ele>184.3</ele>
        <time>2012-12-29T08:48:43.999Z</time>
      </trkpt>
      <trkpt lat="44.13356" lon="1.86988">
        <ele>184.3</ele>
        <time>2012-12-29T08:48:44.999Z</time>
      </trkpt>
      <trkpt lat="44.13352" lon="1.86988">
        <ele>184.3</ele>
        <time>2012-12-29T08:48:45.999Z</time>
      </trkpt>
      <trkpt lat="44.13349" lon="1.86987">
        <ele>184.3</ele>
        <time>2012-12-29T08:48:46.999Z</time>
      </trkpt>
      <trkpt lat="44.13345" lon="1.86985">
        <ele>184.3</ele>
        <time>2012-12-29T08:48:47.999Z</time>
      </trkpt>
      <trkpt lat="44.13342" lon="1.86984">
        <ele>184.3</ele>
        <time>2012-12-29T08:48:48.999Z</time>
      </trkpt>
      <trkpt lat="44.13339" lon="1.86983">
        <ele>184.3</ele>
        <time>2012-12-29T08:48:49.999Z</time>
      </trkpt>
      <trkpt lat="44.13334" lon="1.86982">
        <ele>184.3</ele>
        <time>2012-12-29T08:48:50.999Z</time>
      </trkpt>
      <trkpt lat="44.1333" lon="1.8698">
        <ele>184.4</ele>
        <time>2012-12-29T08:48:51.999Z</time>
      </trkpt>
      <trkpt lat="44.13328" lon="1.86979">
        <ele>184.4</ele>
        <time>2012-12-29T08:48:52.999Z</time>
      </trkpt>
      <trkpt lat="44.13325" lon="1.86979">
        <ele>184.5</ele>
        <time>2012-12-29T08:48:53.999Z</time>
      </trkpt>
      <trkpt lat="44.13322" lon="1.86978">
        <ele>184.6</ele>
        <time>2012-12-29T08:48:54.999Z</time>
      </trkpt>
      <trkpt lat="44.13319" lon="1.86978">
        <ele>184.6</ele>
        <time>2012-12-29T08:48:55.999Z</time>
      </trkpt>
      <trkpt lat="44.13315" lon="1.86978">
        <ele>184.6</ele>
        <time>2012-12-29T08:48:56.999Z</time>
      </trkpt>
      <trkpt lat="44.13311" lon="1.86977">
        <ele>184.7</ele>
        <time>2012-12-29T08:48:57.999Z</time>
      </trkpt>
      <trkpt lat="44.13307" lon="1.86977">
        <ele>184.8</ele>
        <time>2012-12-29T08:48:58.999Z</time>
      </trkpt>
      <trkpt lat="44.13304" lon="1.86977">
        <ele>184.9</ele>
        <time>2012-12-29T08:48:59.999Z</time>
      </trkpt>
      <trkpt lat="44.133" lon="1.86976">
        <ele>185</ele>
        <time>2012-12-29T08:49:00.999Z</time>
      </trkpt>
      <trkpt lat="44.13296" lon="1.86975">
        <ele>185</ele>
        <time>2012-12-29T08:49:01.999Z</time>
      </trkpt>
      <trkpt lat="44.13292" lon="1.86974">
        <ele>185.1</ele>
        <time>2012-12-29T08:49:02.999Z</time>
      </trkpt>
      <trkpt lat="44.13287" lon="1.86972">
        <ele>185.1</ele>
        <time>2012-12-29T08:49:03.999Z</time>
      </trkpt>
      <trkpt lat="44.13282" lon="1.86971">
        <ele>185</ele>
        <time>2012-12-29T08:49:04.999Z</time>
      </trkpt>
      <trkpt lat="44.13277" lon="1.86971">
        <ele>185</ele>
        <time>2012-12-29T08:49:05.999Z</time>
      </trkpt>
      <trkpt lat="44.13273" lon="1.86971">
        <ele>185</ele>
        <time>2012-12-29T08:49:06.999Z</time>
      </trkpt>
      <trkpt lat="44.13269" lon="1.8697">
        <ele>184.9</ele>
        <time>2012-12-29T08:49:07.999Z</time>
      </trkpt>
      <trkpt lat="44.13265" lon="1.8697">
        <ele>184.8</ele>
        <time>2012-12-29T08:49:08.999Z</time>
      </trkpt>
      <trkpt lat="44.13261" lon="1.86969">
        <ele>184.8</ele>
        <time>2012-12-29T08:49:09.999Z</time>
      </trkpt>
      <trkpt lat="44.13258" lon="1.86968">
        <ele>184.8</ele>
        <time>2012-12-29T08:49:10.999Z</time>
      </trkpt>
      <trkpt lat="44.13253" lon="1.86967">
        <ele>184.7</ele>
        <time>2012-12-29T08:49:11.999Z</time>
      </trkpt>
      <trkpt lat="44.13249" lon="1.86965">
        <ele>184.7</ele>
        <time>2012-12-29T08:49:12.999Z</time>
      </trkpt>
      <trkpt lat="44.13244" lon="1.86962">
        <ele>184.8</ele>
        <time>2012-12-29T08:49:13.999Z</time>
      </trkpt>
      <trkpt lat="44.13239" lon="1.8696">
        <ele>185</ele>
        <time>2012-12-29T08:49:14.999Z</time>
      </trkpt>
      <trkpt lat="44.13236" lon="1.86958">
        <ele>185.1</ele>
        <time>2012-12-29T08:49:15.999Z</time>
      </trkpt>
      <trkpt lat="44.13233" lon="1.86955">
        <ele>185.2</ele>
        <time>2012-12-29T08:49:16.999Z</time>
      </trkpt>
      <trkpt lat="44.1323" lon="1.86954">
        <ele>185.4</ele>
        <time>2012-12-29T08:49:17.999Z</time>
      </trkpt>
      <trkpt lat="44.13228" lon="1.86953">
        <ele>185.6</ele>
        <time>2012-12-29T08:49:18.999Z</time>
      </trkpt>
      <trkpt lat="44.13225" lon="1.86953">
        <ele>185.8</ele>
        <time>2012-12-29T08:49:19.999Z</time>
      </trkpt>
      <trkpt lat="44.13221" lon="1.86953">
        <ele>186.1</ele>
        <time>2012-12-29T08:49:20.999Z</time>
      </trkpt>
      <trkpt lat="44.13217" lon="1.86953">
        <ele>186.3</ele>
        <time>2012-12-29T08:49:21.999Z</time>
      </trkpt>
      <trkpt lat="44.13214" lon="1.86952">
        <ele>186.5</ele>
        <time>2012-12-29T08:49:22.999Z</time>
      </trkpt>
      <trkpt lat="44.1321" lon="1.86954">
        <ele>186.6</ele>
        <time>2012-12-29T08:49:23.999Z</time>
      </trkpt>
      <trkpt lat="44.13206" lon="1.86955">
        <ele>186.8</ele>
        <time>2012-12-29T08:49:24.999Z</time>
      </trkpt>
      <trkpt lat="44.13202" lon="1.86957">
        <ele>186.9</ele>
        <time>2012-12-29T08:49:25.999Z</time>
      </trkpt>
      <trkpt lat="44.13197" lon="1.86959">
        <ele>187.1</ele>
        <time>2012-12-29T08:49:26.999Z</time>
      </trkpt>
      <trkpt lat="44.13193" lon="1.86961">
        <ele>187.2</ele>
        <time>2012-12-29T08:49:27.999Z</time>
      </trkpt>
      <trkpt lat="44.13189" lon="1.86963">
        <ele>187.3</ele>
        <time>2012-12-29T08:49:28.999Z</time>
      </trkpt>
      <trkpt lat="44.13186" lon="1.86965">
        <ele>187.5</ele>
        <time>2012-12-29T08:49:29.999Z</time>
      </trkpt>
      <trkpt lat="44.13184" lon="1.86966">
        <ele>187.6</ele>
        <time>2012-12-29T08:49:30.999Z</time>
      </trkpt>
      <trkpt lat="44.13181" lon="1.86967">
        <ele>187.8</ele>
        <time>2012-12-29T08:49:31.999Z</time>
      </trkpt>
      <trkpt lat="44.13178" lon="1.86968">
        <ele>187.9</ele>
        <time>2012-12-29T08:49:32.999Z</time>
      </trkpt>
      <trkpt lat="44.13175" lon="1.86968">
        <ele>188.1</ele>
        <time>2012-12-29T08:49:33.999Z</time>
      </trkpt>
      <trkpt lat="44.13172" lon="1.86969">
        <ele>188.2</ele>
        <time>2012-12-29T08:49:34.999Z</time>
      </trkpt>
      <trkpt lat="44.13169" lon="1.8697">
        <ele>188.3</ele>
        <time>2012-12-29T08:49:35.999Z</time>
      </trkpt>
      <trkpt lat="44.13166" lon="1.86972">
        <ele>188.5</ele>
        <time>2012-12-29T08:49:36.999Z</time>
      </trkpt>
      <trkpt lat="44.13164" lon="1.86973">
        <ele>188.7</ele>
        <time>2012-12-29T08:49:37.999Z</time>
      </trkpt>
      <trkpt lat="44.13162" lon="1.86975">
        <ele>188.8</ele>
        <time>2012-12-29T08:49:38.999Z</time>
      </trkpt>
      <trkpt lat="44.13159" lon="1.86976">
        <ele>189</ele>
        <time>2012-12-29T08:49:39.999Z</time>
      </trkpt>
      <trkpt lat="44.13157" lon="1.86977">
        <ele>189.1</ele>
        <time>2012-12-29T08:49:40.999Z</time>
      </trkpt>
      <trkpt lat="44.13153" lon="1.86977">
        <ele>189.2</ele>
        <time>2012-12-29T08:49:41.999Z</time>
      </trkpt>
      <trkpt lat="44.13151" lon="1.86976">
        <ele>189.4</ele>
        <time>2012-12-29T08:49:42.999Z</time>
      </trkpt>
      <trkpt lat="44.13147" lon="1.86975">
        <ele>189.6</ele>
        <time>2012-12-29T08:49:44.999Z</time>
      </trkpt>
      <trkpt lat="44.13145" lon="1.86974">
        <ele>189.8</ele>
        <time>2012-12-29T08:49:45.999Z</time>
      </trkpt>
      <trkpt lat="44.13142" lon="1.86973">
        <ele>189.9</ele>
        <time>2012-12-29T08:49:47.999Z</time>
      </trkpt>
      <trkpt lat="44.13139" lon="1.86972">
        <ele>190</ele>
        <time>2012-12-29T08:49:48.999Z</time>
      </trkpt>
      <trkpt lat="44.13136" lon="1.86971">
        <ele>190</ele>
        <time>2012-12-29T08:49:49.999Z</time>
      </trkpt>
      <trkpt lat="44.13133" lon="1.8697">
        <ele>189.9</ele>
        <time>2012-12-29T08:49:50.999Z</time>
      </trkpt>
      <trkpt lat="44.1313" lon="1.86968">
        <ele>189.8</ele>
        <time>2012-12-29T08:49:51.999Z</time>
      </trkpt>
      <trkpt lat="44.13126" lon="1.86966">
        <ele>189.8</ele>
        <time>2012-12-29T08:49:52.999Z</time>
      </trkpt>
      <trkpt lat="44.13123" lon="1.86964">
        <ele>189.7</ele>
        <time>2012-12-29T08:49:53.999Z</time>
      </trkpt>
      <trkpt lat="44.13119" lon="1.86962">
        <ele>189.6</ele>
        <time>2012-12-29T08:49:54.999Z</time>
      </trkpt>
      <trkpt lat="44.13116" lon="1.86959">
        <ele>189.5</ele>
        <time>2012-12-29T08:49:55.999Z</time>
      </trkpt>
      <trkpt lat="44.13113" lon="1.86956">
        <ele>189.4</ele>
        <time>2012-12-29T08:49:56.999Z</time>
      </trkpt>
      <trkpt lat="44.13111" lon="1.86953">
        <ele>189.4</ele>
        <time>2012-12-29T08:49:57.999Z</time>
      </trkpt>
      <trkpt lat="44.13108" lon="1.86949">
        <ele>189.4</ele>
        <time>2012-12-29T08:49:58.999Z</time>
      </trkpt>
      <trkpt lat="44.13106" lon="1.86945">
        <ele>189.4</ele>
        <time>2012-12-29T08:49:59.999Z</time>
      </trkpt>
      <trkpt lat="44.13104" lon="1.8694">
        <ele>189.5</ele>
        <time>2012-12-29T08:50:00.999Z</time>
      </trkpt>
      <trkpt lat="44.13101" lon="1.86935">
        <ele>189.4</ele>
        <time>2012-12-29T08:50:01.999Z</time>
      </trkpt>
      <trkpt lat="44.13098" lon="1.86931">
        <ele>189.6</ele>
        <time>2012-12-29T08:50:02.999Z</time>
      </trkpt>
      <trkpt lat="44.13096" lon="1.86927">
        <ele>189.8</ele>
        <time>2012-12-29T08:50:03.999Z</time>
      </trkpt>
      <trkpt lat="44.13093" lon="1.86923">
        <ele>189.6</ele>
        <time>2012-12-29T08:50:04.999Z</time>
      </trkpt>
      <trkpt lat="44.13089" lon="1.86919">
        <ele>189</ele>
        <time>2012-12-29T08:50:05.999Z</time>
      </trkpt>
      <trkpt lat="44.13085" lon="1.86916">
        <ele>188.7</ele>
        <time>2012-12-29T08:50:06.999Z</time>
      </trkpt>
      <trkpt lat="44.13079" lon="1.86914">
        <ele>188.3</ele>
        <time>2012-12-29T08:50:07.999Z</time>
      </trkpt>
      <trkpt lat="44.13073" lon="1.86912">
        <ele>187.9</ele>
        <time>2012-12-29T08:50:08.999Z</time>
      </trkpt>
      <trkpt lat="44.13066" lon="1.8691">
        <ele>188.2</ele>
        <time>2012-12-29T08:50:09.999Z</time>
      </trkpt>
      <trkpt lat="44.13058" lon="1.86906">
        <ele>190.1</ele>
        <time>2012-12-29T08:50:10.999Z</time>
      </trkpt>
      <trkpt lat="44.13052" lon="1.86902">
        <ele>192.1</ele>
        <time>2012-12-29T08:50:11.999Z</time>
      </trkpt>
      <trkpt lat="44.13049" lon="1.86895">
        <ele>192.2</ele>
        <time>2012-12-29T08:50:12.999Z</time>
      </trkpt>
      <trkpt lat="44.13047" lon="1.86891">
        <ele>192.2</ele>
        <time>2012-12-29T08:50:13.999Z</time>
      </trkpt>
      <trkpt lat="44.13045" lon="1.86886">
        <ele>192.2</ele>
        <time>2012-12-29T08:50:14.999Z</time>
      </trkpt>
      <trkpt lat="44.13044" lon="1.8688">
        <ele>192.2</ele>
        <time>2012-12-29T08:50:15.999Z</time>
      </trkpt>
      <trkpt lat="44.13043" lon="1.86874">
        <ele>192.1</ele>
        <time>2012-12-29T08:50:16.999Z</time>
      </trkpt>
      <trkpt lat="44.13041" lon="1.86869">
        <ele>192</ele>
        <time>2012-12-29T08:50:17.999Z</time>
      </trkpt>
      <trkpt lat="44.1304" lon="1.86864">
        <ele>191.9</ele>
        <time>2012-12-29T08:50:18.999Z</time>
      </trkpt>
      <trkpt lat="44.13039" lon="1.8686">
        <ele>191.9</ele>
        <time>2012-12-29T08:50:19.999Z</time>
      </trkpt>
      <trkpt lat="44.13039" lon="1.86855">
        <ele>191.9</ele>
        <time>2012-12-29T08:50:20.999Z</time>
      </trkpt>
      <trkpt lat="44.13039" lon="1.8685">
        <ele>191.9</ele>
        <time>2012-12-29T08:50:21.999Z</time>
      </trkpt>
      <trkpt lat="44.13039" lon="1.86845">
        <ele>191.9</ele>
        <time>2012-12-29T08:50:22.999Z</time>
      </trkpt>
      <trkpt lat="44.13039" lon="1.86841">
        <ele>191.9</ele>
        <time>2012-12-29T08:50:23.999Z</time>
      </trkpt>
      <trkpt lat="44.13039" lon="1.86837">
        <ele>191.9</ele>
        <time>2012-12-29T08:50:24.999Z</time>
      </trkpt>
      <trkpt lat="44.13039" lon="1.86833">
        <ele>191.9</ele>
        <time>2012-12-29T08:50:25.999Z</time>
      </trkpt>
      <trkpt lat="44.13039" lon="1.86829">
        <ele>191.9</ele>
        <time>2012-12-29T08:50:26.999Z</time>
      </trkpt>
      <trkpt lat="44.13039" lon="1.86824">
        <ele>191.9</ele>
        <time>2012-12-29T08:50:27.999Z</time>
      </trkpt>
      <trkpt lat="44.13038" lon="1.8682">
        <ele>191.9</ele>
        <time>2012-12-29T08:50:28.999Z</time>
      </trkpt>
      <trkpt lat="44.13037" lon="1.86815">
        <ele>191.8</ele>
        <time>2012-12-29T08:50:29.999Z</time>
      </trkpt>
      <trkpt lat="44.13037" lon="1.86811">
        <ele>191.8</ele>
        <time>2012-12-29T08:50:30.999Z</time>
      </trkpt>
      <trkpt lat="44.13035" lon="1.86806">
        <ele>191.7</ele>
        <time>2012-12-29T08:50:31.999Z</time>
      </trkpt>
      <trkpt lat="44.13033" lon="1.86802">
        <ele>191.6</ele>
        <time>2012-12-29T08:50:32.999Z</time>
      </trkpt>
      <trkpt lat="44.1303" lon="1.86797">
        <ele>190.8</ele>
        <time>2012-12-29T08:50:33.999Z</time>
      </trkpt>
      <trkpt lat="44.13027" lon="1.86792">
        <ele>190.8</ele>
        <time>2012-12-29T08:50:34.999Z</time>
      </trkpt>
      <trkpt lat="44.13026" lon="1.86789">
        <ele>190.8</ele>
        <time>2012-12-29T08:50:35.999Z</time>
      </trkpt>
      <trkpt lat="44.13025" lon="1.86785">
        <ele>190.8</ele>
        <time>2012-12-29T08:50:36.999Z</time>
      </trkpt>
      <trkpt lat="44.13024" lon="1.8678">
        <ele>190.9</ele>
        <time>2012-12-29T08:50:37.999Z</time>
      </trkpt>
      <trkpt lat="44.13024" lon="1.86777">
        <ele>190.9</ele>
        <time>2012-12-29T08:50:38.999Z</time>
      </trkpt>
      <trkpt lat="44.13024" lon="1.86773">
        <ele>190.8</ele>
        <time>2012-12-29T08:50:39.999Z</time>
      </trkpt>
      <trkpt lat="44.13023" lon="1.86768">
        <ele>190.7</ele>
        <time>2012-12-29T08:50:40.999Z</time>
      </trkpt>
      <trkpt lat="44.13021" lon="1.86764">
        <ele>190.6</ele>
        <time>2012-12-29T08:50:41.999Z</time>
      </trkpt>
      <trkpt lat="44.13019" lon="1.86759">
        <ele>190.5</ele>
        <time>2012-12-29T08:50:42.999Z</time>
      </trkpt>
      <trkpt lat="44.13018" lon="1.86755">
        <ele>190.4</ele>
        <time>2012-12-29T08:50:43.999Z</time>
      </trkpt>
      <trkpt lat="44.13016" lon="1.8675">
        <ele>190.2</ele>
        <time>2012-12-29T08:50:44.999Z</time>
      </trkpt>
      <trkpt lat="44.13015" lon="1.86747">
        <ele>190</ele>
        <time>2012-12-29T08:50:45.999Z</time>
      </trkpt>
      <trkpt lat="44.13014" lon="1.86742">
        <ele>189.7</ele>
        <time>2012-12-29T08:50:46.999Z</time>
      </trkpt>
      <trkpt lat="44.13014" lon="1.86737">
        <ele>189.5</ele>
        <time>2012-12-29T08:50:47.999Z</time>
      </trkpt>
      <trkpt lat="44.13012" lon="1.86733">
        <ele>189.3</ele>
        <time>2012-12-29T08:50:48.999Z</time>
      </trkpt>
      <trkpt lat="44.1301" lon="1.86729">
        <ele>189.1</ele>
        <time>2012-12-29T08:50:49.999Z</time>
      </trkpt>
      <trkpt lat="44.13009" lon="1.86724">
        <ele>188.9</ele>
        <time>2012-12-29T08:50:50.999Z</time>
      </trkpt>
      <trkpt lat="44.13008" lon="1.86719">
        <ele>188.7</ele>
        <time>2012-12-29T08:50:51.999Z</time>
      </trkpt>
      <trkpt lat="44.13006" lon="1.86715">
        <ele>188.5</ele>
        <time>2012-12-29T08:50:52.999Z</time>
      </trkpt>
      <trkpt lat="44.13003" lon="1.8671">
        <ele>188.3</ele>
        <time>2012-12-29T08:50:53.999Z</time>
      </trkpt>
      <trkpt lat="44.13" lon="1.86706">
        <ele>188.2</ele>
        <time>2012-12-29T08:50:54.999Z</time>
      </trkpt>
      <trkpt lat="44.12996" lon="1.86702">
        <ele>188.1</ele>
        <time>2012-12-29T08:50:55.999Z</time>
      </trkpt>
      <trkpt lat="44.12993" lon="1.86699">
        <ele>188.1</ele>
        <time>2012-12-29T08:50:56.999Z</time>
      </trkpt>
      <trkpt lat="44.1299" lon="1.86695">
        <ele>188</ele>
        <time>2012-12-29T08:50:57.999Z</time>
      </trkpt>
      <trkpt lat="44.12987" lon="1.86691">
        <ele>187.9</ele>
        <time>2012-12-29T08:50:58.999Z</time>
      </trkpt>
      <trkpt lat="44.12985" lon="1.86687">
        <ele>187.8</ele>
        <time>2012-12-29T08:50:59.999Z</time>
      </trkpt>
      <trkpt lat="44.12982" lon="1.86682">
        <ele>187.7</ele>
        <time>2012-12-29T08:51:00.999Z</time>
      </trkpt>
      <trkpt lat="44.1298" lon="1.86676">
        <ele>187.5</ele>
        <time>2012-12-29T08:51:01.999Z</time>
      </trkpt>
      <trkpt lat="44.12978" lon="1.86672">
        <ele>187.3</ele>
        <time>2012-12-29T08:51:02.999Z</time>
      </trkpt>
      <trkpt lat="44.12975" lon="1.86668">
        <ele>187.2</ele>
        <time>2012-12-29T08:51:03.999Z</time>
      </trkpt>
      <trkpt lat="44.12973" lon="1.86664">
        <ele>187</ele>
        <time>2012-12-29T08:51:04.999Z</time>
      </trkpt>
      <trkpt lat="44.12971" lon="1.8666">
        <ele>186.9</ele>
        <time>2012-12-29T08:51:05.999Z</time>
      </trkpt>
      <trkpt lat="44.1297" lon="1.86657">
        <ele>186.8</ele>
        <time>2012-12-29T08:51:06.999Z</time>
      </trkpt>
      <trkpt lat="44.12969" lon="1.86653">
        <ele>186.7</ele>
        <time>2012-12-29T08:51:07.999Z</time>
      </trkpt>
      <trkpt lat="44.12968" lon="1.86649">
        <ele>186.5</ele>
        <time>2012-12-29T08:51:08.999Z</time>
      </trkpt>
      <trkpt lat="44.12968" lon="1.86645">
        <ele>186.4</ele>
        <time>2012-12-29T08:51:09.999Z</time>
      </trkpt>
      <trkpt lat="44.12966" lon="1.86641">
        <ele>186.3</ele>
        <time>2012-12-29T08:51:10.999Z</time>
      </trkpt>
      <trkpt lat="44.12963" lon="1.86637">
        <ele>186.2</ele>
        <time>2012-12-29T08:51:11.999Z</time>
      </trkpt>
      <trkpt lat="44.1296" lon="1.86633">
        <ele>186.2</ele>
        <time>2012-12-29T08:51:12.999Z</time>
      </trkpt>
      <trkpt lat="44.12957" lon="1.8663">
        <ele>186.1</ele>
        <time>2012-12-29T08:51:13.999Z</time>
      </trkpt>
      <trkpt lat="44.12954" lon="1.86626">
        <ele>186.1</ele>
        <time>2012-12-29T08:51:14.999Z</time>
      </trkpt>
      <trkpt lat="44.12951" lon="1.86622">
        <ele>186.1</ele>
        <time>2012-12-29T08:51:15.999Z</time>
      </trkpt>
      <trkpt lat="44.12949" lon="1.86619">
        <ele>186.1</ele>
        <time>2012-12-29T08:51:16.999Z</time>
      </trkpt>
      <trkpt lat="44.12947" lon="1.86615">
        <ele>186.1</ele>
        <time>2012-12-29T08:51:17.999Z</time>
      </trkpt>
      <trkpt lat="44.12945" lon="1.86611">
        <ele>186.1</ele>
        <time>2012-12-29T08:51:18.999Z</time>
      </trkpt>
      <trkpt lat="44.12942" lon="1.86607">
        <ele>186.1</ele>
        <time>2012-12-29T08:51:19.999Z</time>
      </trkpt>
      <trkpt lat="44.1294" lon="1.86602">
        <ele>186</ele>
        <time>2012-12-29T08:51:20.999Z</time>
      </trkpt>
      <trkpt lat="44.12938" lon="1.86598">
        <ele>186.1</ele>
        <time>2012-12-29T08:51:21.999Z</time>
      </trkpt>
      <trkpt lat="44.12935" lon="1.86594">
        <ele>186.1</ele>
        <time>2012-12-29T08:51:22.999Z</time>
      </trkpt>
      <trkpt lat="44.12933" lon="1.86591">
        <ele>186.2</ele>
        <time>2012-12-29T08:51:23.999Z</time>
      </trkpt>
      <trkpt lat="44.1293" lon="1.86588">
        <ele>186.3</ele>
        <time>2012-12-29T08:51:24.999Z</time>
      </trkpt>
      <trkpt lat="44.12927" lon="1.86584">
        <ele>186.3</ele>
        <time>2012-12-29T08:51:25.999Z</time>
      </trkpt>
      <trkpt lat="44.12924" lon="1.8658">
        <ele>186.3</ele>
        <time>2012-12-29T08:51:26.999Z</time>
      </trkpt>
      <trkpt lat="44.12922" lon="1.86575">
        <ele>186.3</ele>
        <time>2012-12-29T08:51:27.999Z</time>
      </trkpt>
      <trkpt lat="44.12919" lon="1.86571">
        <ele>186.3</ele>
        <time>2012-12-29T08:51:28.999Z</time>
      </trkpt>
      <trkpt lat="44.12916" lon="1.86567">
        <ele>186.3</ele>
        <time>2012-12-29T08:51:29.999Z</time>
      </trkpt>
      <trkpt lat="44.12913" lon="1.86563">
        <ele>186.4</ele>
        <time>2012-12-29T08:51:30.999Z</time>
      </trkpt>
      <trkpt lat="44.1291" lon="1.8656">
        <ele>186.6</ele>
        <time>2012-12-29T08:51:31.999Z</time>
      </trkpt>
      <trkpt lat="44.12908" lon="1.86556">
        <ele>186.7</ele>
        <time>2012-12-29T08:51:32.999Z</time>
      </trkpt>
      <trkpt lat="44.12905" lon="1.86553">
        <ele>186.8</ele>
        <time>2012-12-29T08:51:33.999Z</time>
      </trkpt>
      <trkpt lat="44.12902" lon="1.86549">
        <ele>186.9</ele>
        <time>2012-12-29T08:51:34.999Z</time>
      </trkpt>
      <trkpt lat="44.12899" lon="1.86545">
        <ele>187</ele>
        <time>2012-12-29T08:51:35.999Z</time>
      </trkpt>
      <trkpt lat="44.12896" lon="1.86541">
        <ele>187.2</ele>
        <time>2012-12-29T08:51:36.999Z</time>
      </trkpt>
      <trkpt lat="44.12893" lon="1.86538">
        <ele>187.3</ele>
        <time>2012-12-29T08:51:37.999Z</time>
      </trkpt>
      <trkpt lat="44.12891" lon="1.86535">
        <ele>187.4</ele>
        <time>2012-12-29T08:51:38.999Z</time>
      </trkpt>
      <trkpt lat="44.12889" lon="1.86532">
        <ele>187.5</ele>
        <time>2012-12-29T08:51:39.999Z</time>
      </trkpt>
      <trkpt lat="44.12887" lon="1.8653">
        <ele>187.6</ele>
        <time>2012-12-29T08:51:40.999Z</time>
      </trkpt>
      <trkpt lat="44.12885" lon="1.86527">
        <ele>187.6</ele>
        <time>2012-12-29T08:51:41.999Z</time>
      </trkpt>
      <trkpt lat="44.12883" lon="1.86525">
        <ele>187.7</ele>
        <time>2012-12-29T08:51:42.999Z</time>
      </trkpt>
      <trkpt lat="44.1288" lon="1.86522">
        <ele>187.8</ele>
        <time>2012-12-29T08:51:43.999Z</time>
      </trkpt>
      <trkpt lat="44.12877" lon="1.86519">
        <ele>187.8</ele>
        <time>2012-12-29T08:51:44.999Z</time>
      </trkpt>
      <trkpt lat="44.12874" lon="1.86516">
        <ele>187.9</ele>
        <time>2012-12-29T08:51:45.999Z</time>
      </trkpt>
      <trkpt lat="44.1287" lon="1.86512">
        <ele>188</ele>
        <time>2012-12-29T08:51:46.999Z</time>
      </trkpt>
      <trkpt lat="44.12867" lon="1.86508">
        <ele>188</ele>
        <time>2012-12-29T08:51:47.999Z</time>
      </trkpt>
      <trkpt lat="44.12864" lon="1.86505">
        <ele>188</ele>
        <time>2012-12-29T08:51:48.999Z</time>
      </trkpt>
      <trkpt lat="44.12861" lon="1.86501">
        <ele>188.2</ele>
        <time>2012-12-29T08:51:49.999Z</time>
      </trkpt>
      <trkpt lat="44.12858" lon="1.86497">
        <ele>188.3</ele>
        <time>2012-12-29T08:51:50.999Z</time>
      </trkpt>
      <trkpt lat="44.12856" lon="1.86493">
        <ele>188.5</ele>
        <time>2012-12-29T08:51:51.999Z</time>
      </trkpt>
      <trkpt lat="44.12853" lon="1.86489">
        <ele>188.7</ele>
        <time>2012-12-29T08:51:52.999Z</time>
      </trkpt>
      <trkpt lat="44.12851" lon="1.86483">
        <ele>188.9</ele>
        <time>2012-12-29T08:51:53.999Z</time>
      </trkpt>
      <trkpt lat="44.12849" lon="1.86477">
        <ele>189.1</ele>
        <time>2012-12-29T08:51:54.999Z</time>
      </trkpt>
      <trkpt lat="44.12846" lon="1.86469">
        <ele>189.3</ele>
        <time>2012-12-29T08:51:55.999Z</time>
      </trkpt>
      <trkpt lat="44.12846" lon="1.86462">
        <ele>189.5</ele>
        <time>2012-12-29T08:51:56.999Z</time>
      </trkpt>
      <trkpt lat="44.12849" lon="1.86453">
        <ele>189.7</ele>
        <time>2012-12-29T08:51:57.999Z</time>
      </trkpt>
      <trkpt lat="44.12851" lon="1.86448">
        <ele>189.8</ele>
        <time>2012-12-29T08:51:58.999Z</time>
      </trkpt>
      <trkpt lat="44.12854" lon="1.86444">
        <ele>190.1</ele>
        <time>2012-12-29T08:51:59.999Z</time>
      </trkpt>
      <trkpt lat="44.12855" lon="1.86441">
        <ele>190.2</ele>
        <time>2012-12-29T08:52:00.999Z</time>
      </trkpt>
      <trkpt lat="44.12857" lon="1.86438">
        <ele>190.4</ele>
        <time>2012-12-29T08:52:01.999Z</time>
      </trkpt>
      <trkpt lat="44.12859" lon="1.86435">
        <ele>190.5</ele>
        <time>2012-12-29T08:52:02.999Z</time>
      </trkpt>
      <trkpt lat="44.1286" lon="1.86432">
        <ele>190.7</ele>
        <time>2012-12-29T08:52:03.999Z</time>
      </trkpt>
      <trkpt lat="44.12861" lon="1.86428">
        <ele>190.8</ele>
        <time>2012-12-29T08:52:04.999Z</time>
      </trkpt>
      <trkpt lat="44.12863" lon="1.86425">
        <ele>190.8</ele>
        <time>2012-12-29T08:52:05.999Z</time>
      </trkpt>
      <trkpt lat="44.12864" lon="1.86421">
        <ele>190.9</ele>
        <time>2012-12-29T08:52:06.999Z</time>
      </trkpt>
      <trkpt lat="44.12866" lon="1.86416">
        <ele>191.1</ele>
        <time>2012-12-29T08:52:07.999Z</time>
      </trkpt>
      <trkpt lat="44.12867" lon="1.86411">
        <ele>191.3</ele>
        <time>2012-12-29T08:52:08.999Z</time>
      </trkpt>
      <trkpt lat="44.12868" lon="1.86406">
        <ele>191.5</ele>
        <time>2012-12-29T08:52:09.999Z</time>
      </trkpt>
      <trkpt lat="44.12868" lon="1.86402">
        <ele>191.6</ele>
        <time>2012-12-29T08:52:10.999Z</time>
      </trkpt>
      <trkpt lat="44.12867" lon="1.86398">
        <ele>191.7</ele>
        <time>2012-12-29T08:52:11.999Z</time>
      </trkpt>
      <trkpt lat="44.12866" lon="1.86395">
        <ele>191.8</ele>
        <time>2012-12-29T08:52:12.999Z</time>
      </trkpt>
      <trkpt lat="44.12864" lon="1.86392">
        <ele>191.9</ele>
        <time>2012-12-29T08:52:13.999Z</time>
      </trkpt>
      <trkpt lat="44.12862" lon="1.86389">
        <ele>192.2</ele>
        <time>2012-12-29T08:52:14.999Z</time>
      </trkpt>
      <trkpt lat="44.12859" lon="1.86386">
        <ele>192.4</ele>
        <time>2012-12-29T08:52:15.999Z</time>
      </trkpt>
      <trkpt lat="44.12857" lon="1.86383">
        <ele>192.6</ele>
        <time>2012-12-29T08:52:16.999Z</time>
      </trkpt>
      <trkpt lat="44.12855" lon="1.8638">
        <ele>192.8</ele>
        <time>2012-12-29T08:52:17.999Z</time>
      </trkpt>
      <trkpt lat="44.12853" lon="1.86376">
        <ele>193.1</ele>
        <time>2012-12-29T08:52:18.999Z</time>
      </trkpt>
      <trkpt lat="44.1285" lon="1.86372">
        <ele>193.5</ele>
        <time>2012-12-29T08:52:19.999Z</time>
      </trkpt>
      <trkpt lat="44.12848" lon="1.86369">
        <ele>193.8</ele>
        <time>2012-12-29T08:52:20.999Z</time>
      </trkpt>
      <trkpt lat="44.12845" lon="1.86366">
        <ele>194.2</ele>
        <time>2012-12-29T08:52:21.999Z</time>
      </trkpt>
      <trkpt lat="44.12843" lon="1.86362">
        <ele>194.6</ele>
        <time>2012-12-29T08:52:22.999Z</time>
      </trkpt>
      <trkpt lat="44.1284" lon="1.86359">
        <ele>195</ele>
        <time>2012-12-29T08:52:23.999Z</time>
      </trkpt>
      <trkpt lat="44.12838" lon="1.86355">
        <ele>195.4</ele>
        <time>2012-12-29T08:52:24.999Z</time>
      </trkpt>
      <trkpt lat="44.12836" lon="1.86352">
        <ele>195.8</ele>
        <time>2012-12-29T08:52:25.999Z</time>
      </trkpt>
      <trkpt lat="44.12833" lon="1.86349">
        <ele>196.1</ele>
        <time>2012-12-29T08:52:26.999Z</time>
      </trkpt>
      <trkpt lat="44.12831" lon="1.86345">
        <ele>196.5</ele>
        <time>2012-12-29T08:52:27.999Z</time>
      </trkpt>
      <trkpt lat="44.12829" lon="1.86342">
        <ele>196.8</ele>
        <time>2012-12-29T08:52:28.999Z</time>
      </trkpt>
      <trkpt lat="44.12827" lon="1.86339">
        <ele>197</ele>
        <time>2012-12-29T08:52:29.999Z</time>
      </trkpt>
      <trkpt lat="44.12825" lon="1.86335">
        <ele>197.4</ele>
        <time>2012-12-29T08:52:30.999Z</time>
      </trkpt>
      <trkpt lat="44.12823" lon="1.86331">
        <ele>197.7</ele>
        <time>2012-12-29T08:52:31.999Z</time>
      </trkpt>
      <trkpt lat="44.12821" lon="1.86327">
        <ele>197.9</ele>
        <time>2012-12-29T08:52:32.999Z</time>
      </trkpt>
      <trkpt lat="44.12819" lon="1.86323">
        <ele>198.1</ele>
        <time>2012-12-29T08:52:33.999Z</time>
      </trkpt>
      <trkpt lat="44.12817" lon="1.86319">
        <ele>198.2</ele>
        <time>2012-12-29T08:52:34.999Z</time>
      </trkpt>
      <trkpt lat="44.12815" lon="1.86316">
        <ele>198.4</ele>
        <time>2012-12-29T08:52:35.999Z</time>
      </trkpt>
      <trkpt lat="44.12813" lon="1.86311">
        <ele>198.5</ele>
        <time>2012-12-29T08:52:36.999Z</time>
      </trkpt>
      <trkpt lat="44.12811" lon="1.86308">
        <ele>198.7</ele>
        <time>2012-12-29T08:52:37.999Z</time>
      </trkpt>
      <trkpt lat="44.1281" lon="1.86303">
        <ele>198.9</ele>
        <time>2012-12-29T08:52:38.999Z</time>
      </trkpt>
      <trkpt lat="44.12808" lon="1.86299">
        <ele>199.2</ele>
        <time>2012-12-29T08:52:39.999Z</time>
      </trkpt>
      <trkpt lat="44.12806" lon="1.86295">
        <ele>199.5</ele>
        <time>2012-12-29T08:52:40.999Z</time>
      </trkpt>
      <trkpt lat="44.12804" lon="1.86291">
        <ele>199.8</ele>
        <time>2012-12-29T08:52:41.999Z</time>
      </trkpt>
      <trkpt lat="44.12802" lon="1.86287">
        <ele>200.1</ele>
        <time>2012-12-29T08:52:42.999Z</time>
      </trkpt>
      <trkpt lat="44.12801" lon="1.86284">
        <ele>200.2</ele>
        <time>2012-12-29T08:52:43.999Z</time>
      </trkpt>
      <trkpt lat="44.12799" lon="1.8628">
        <ele>200.4</ele>
        <time>2012-12-29T08:52:44.999Z</time>
      </trkpt>
      <trkpt lat="44.12798" lon="1.86276">
        <ele>200.5</ele>
        <time>2012-12-29T08:52:45.999Z</time>
      </trkpt>
      <trkpt lat="44.12797" lon="1.86274">
        <ele>200.5</ele>
        <time>2012-12-29T08:52:46.999Z</time>
      </trkpt>
      <trkpt lat="44.12796" lon="1.86271">
        <ele>200.7</ele>
        <time>2012-12-29T08:52:47.999Z</time>
      </trkpt>
      <trkpt lat="44.12795" lon="1.86267">
        <ele>200.8</ele>
        <time>2012-12-29T08:52:48.999Z</time>
      </trkpt>
      <trkpt lat="44.12794" lon="1.86262">
        <ele>200.9</ele>
        <time>2012-12-29T08:52:49.999Z</time>
      </trkpt>
      <trkpt lat="44.12794" lon="1.86256">
        <ele>201</ele>
        <time>2012-12-29T08:52:50.999Z</time>
      </trkpt>
      <trkpt lat="44.12793" lon="1.86251">
        <ele>201.1</ele>
        <time>2012-12-29T08:52:51.999Z</time>
      </trkpt>
      <trkpt lat="44.12792" lon="1.86244">
        <ele>201.1</ele>
        <time>2012-12-29T08:52:52.999Z</time>
      </trkpt>
      <trkpt lat="44.1279" lon="1.86238">
        <ele>201.1</ele>
        <time>2012-12-29T08:52:53.999Z</time>
      </trkpt>
      <trkpt lat="44.12789" lon="1.86232">
        <ele>201.1</ele>
        <time>2012-12-29T08:52:54.999Z</time>
      </trkpt>
      <trkpt lat="44.12786" lon="1.86226">
        <ele>201.2</ele>
        <time>2012-12-29T08:52:55.999Z</time>
      </trkpt>
      <trkpt lat="44.12784" lon="1.86222">
        <ele>201.3</ele>
        <time>2012-12-29T08:52:56.999Z</time>
      </trkpt>
      <trkpt lat="44.12782" lon="1.86217">
        <ele>201.4</ele>
        <time>2012-12-29T08:52:57.999Z</time>
      </trkpt>
      <trkpt lat="44.1278" lon="1.86211">
        <ele>201.5</ele>
        <time>2012-12-29T08:52:58.999Z</time>
      </trkpt>
      <trkpt lat="44.12778" lon="1.86207">
        <ele>201.6</ele>
        <time>2012-12-29T08:52:59.999Z</time>
      </trkpt>
      <trkpt lat="44.12776" lon="1.86201">
        <ele>201.5</ele>
        <time>2012-12-29T08:53:00.999Z</time>
      </trkpt>
      <trkpt lat="44.12775" lon="1.86197">
        <ele>201.5</ele>
        <time>2012-12-29T08:53:01.999Z</time>
      </trkpt>
      <trkpt lat="44.12773" lon="1.86194">
        <ele>201.5</ele>
        <time>2012-12-29T08:53:02.999Z</time>
      </trkpt>
      <trkpt lat="44.12772" lon="1.8619">
        <ele>201.4</ele>
        <time>2012-12-29T08:53:03.999Z</time>
      </trkpt>
      <trkpt lat="44.1277" lon="1.86186">
        <ele>201.4</ele>
        <time>2012-12-29T08:53:04.999Z</time>
      </trkpt>
      <trkpt lat="44.12768" lon="1.86182">
        <ele>201.4</ele>
        <time>2012-12-29T08:53:05.999Z</time>
      </trkpt>
      <trkpt lat="44.12766" lon="1.86177">
        <ele>201.3</ele>
        <time>2012-12-29T08:53:06.999Z</time>
      </trkpt>
      <trkpt lat="44.12764" lon="1.86174">
        <ele>201.3</ele>
        <time>2012-12-29T08:53:07.999Z</time>
      </trkpt>
      <trkpt lat="44.12762" lon="1.8617">
        <ele>201.4</ele>
        <time>2012-12-29T08:53:08.999Z</time>
      </trkpt>
      <trkpt lat="44.1276" lon="1.86167">
        <ele>201.4</ele>
        <time>2012-12-29T08:53:09.999Z</time>
      </trkpt>
      <trkpt lat="44.12759" lon="1.86164">
        <ele>201.4</ele>
        <time>2012-12-29T08:53:10.999Z</time>
      </trkpt>
      <trkpt lat="44.12757" lon="1.86161">
        <ele>201.3</ele>
        <time>2012-12-29T08:53:11.999Z</time>
      </trkpt>
      <trkpt lat="44.12755" lon="1.86158">
        <ele>201.3</ele>
        <time>2012-12-29T08:53:12.999Z</time>
      </trkpt>
      <trkpt lat="44.12753" lon="1.86155">
        <ele>201.3</ele>
        <time>2012-12-29T08:53:13.999Z</time>
      </trkpt>
      <trkpt lat="44.12752" lon="1.86151">
        <ele>201.3</ele>
        <time>2012-12-29T08:53:14.999Z</time>
      </trkpt>
      <trkpt lat="44.12751" lon="1.86148">
        <ele>201.3</ele>
        <time>2012-12-29T08:53:15.999Z</time>
      </trkpt>
      <trkpt lat="44.12749" lon="1.86144">
        <ele>201.2</ele>
        <time>2012-12-29T08:53:16.999Z</time>
      </trkpt>
      <trkpt lat="44.12748" lon="1.86141">
        <ele>201.1</ele>
        <time>2012-12-29T08:53:17.999Z</time>
      </trkpt>
      <trkpt lat="44.12746" lon="1.86137">
        <ele>201</ele>
        <time>2012-12-29T08:53:18.999Z</time>
      </trkpt>
      <trkpt lat="44.12744" lon="1.86133">
        <ele>200.9</ele>
        <time>2012-12-29T08:53:19.999Z</time>
      </trkpt>
      <trkpt lat="44.12743" lon="1.86129">
        <ele>200.9</ele>
        <time>2012-12-29T08:53:20.999Z</time>
      </trkpt>
      <trkpt lat="44.12741" lon="1.86126">
        <ele>200.7</ele>
        <time>2012-12-29T08:53:21.999Z</time>
      </trkpt>
      <trkpt lat="44.12739" lon="1.86124">
        <ele>200.7</ele>
        <time>2012-12-29T08:53:22.999Z</time>
      </trkpt>
      <trkpt lat="44.12737" lon="1.86121">
        <ele>200.6</ele>
        <time>2012-12-29T08:53:23.999Z</time>
      </trkpt>
      <trkpt lat="44.12736" lon="1.86118">
        <ele>200.5</ele>
        <time>2012-12-29T08:53:24.999Z</time>
      </trkpt>
      <trkpt lat="44.12734" lon="1.86115">
        <ele>200.4</ele>
        <time>2012-12-29T08:53:25.999Z</time>
      </trkpt>
      <trkpt lat="44.12732" lon="1.86112">
        <ele>200.2</ele>
        <time>2012-12-29T08:53:26.999Z</time>
      </trkpt>
      <trkpt lat="44.12729" lon="1.86109">
        <ele>200</ele>
        <time>2012-12-29T08:53:27.999Z</time>
      </trkpt>
      <trkpt lat="44.12726" lon="1.86105">
        <ele>199.9</ele>
        <time>2012-12-29T08:53:28.999Z</time>
      </trkpt>
      <trkpt lat="44.12724" lon="1.86102">
        <ele>199.8</ele>
        <time>2012-12-29T08:53:29.999Z</time>
      </trkpt>
      <trkpt lat="44.12722" lon="1.86097">
        <ele>199.7</ele>
        <time>2012-12-29T08:53:30.999Z</time>
      </trkpt>
      <trkpt lat="44.12719" lon="1.86092">
        <ele>199.5</ele>
        <time>2012-12-29T08:53:31.999Z</time>
      </trkpt>
      <trkpt lat="44.12718" lon="1.86089">
        <ele>199.3</ele>
        <time>2012-12-29T08:53:32.999Z</time>
      </trkpt>
      <trkpt lat="44.12716" lon="1.86085">
        <ele>199.2</ele>
        <time>2012-12-29T08:53:33.999Z</time>
      </trkpt>
      <trkpt lat="44.12714" lon="1.86082">
        <ele>199.1</ele>
        <time>2012-12-29T08:53:34.999Z</time>
      </trkpt>
      <trkpt lat="44.12712" lon="1.86078">
        <ele>199</ele>
        <time>2012-12-29T08:53:35.999Z</time>
      </trkpt>
      <trkpt lat="44.12711" lon="1.86075">
        <ele>198.9</ele>
        <time>2012-12-29T08:53:36.999Z</time>
      </trkpt>
      <trkpt lat="44.12709" lon="1.86072">
        <ele>198.8</ele>
        <time>2012-12-29T08:53:37.999Z</time>
      </trkpt>
      <trkpt lat="44.12708" lon="1.8607">
        <ele>198.6</ele>
        <time>2012-12-29T08:53:38.999Z</time>
      </trkpt>
      <trkpt lat="44.12705" lon="1.86067">
        <ele>198.7</ele>
        <time>2012-12-29T08:53:39.999Z</time>
      </trkpt>
      <trkpt lat="44.12704" lon="1.86066">
        <ele>198.8</ele>
        <time>2012-12-29T08:53:40.999Z</time>
      </trkpt>
      <trkpt lat="44.12702" lon="1.86062">
        <ele>198.9</ele>
        <time>2012-12-29T08:53:41.999Z</time>
      </trkpt>
      <trkpt lat="44.127" lon="1.86058">
        <ele>199.1</ele>
        <time>2012-12-29T08:53:42.999Z</time>
      </trkpt>
      <trkpt lat="44.12698" lon="1.86055">
        <ele>199.3</ele>
        <time>2012-12-29T08:53:43.999Z</time>
      </trkpt>
      <trkpt lat="44.12696" lon="1.86052">
        <ele>199.4</ele>
        <time>2012-12-29T08:53:44.999Z</time>
      </trkpt>
      <trkpt lat="44.12694" lon="1.86048">
        <ele>199.5</ele>
        <time>2012-12-29T08:53:45.999Z</time>
      </trkpt>
      <trkpt lat="44.12692" lon="1.86044">
        <ele>199.4</ele>
        <time>2012-12-29T08:53:46.999Z</time>
      </trkpt>
      <trkpt lat="44.12691" lon="1.8604">
        <ele>199.2</ele>
        <time>2012-12-29T08:53:47.999Z</time>
      </trkpt>
      <trkpt lat="44.12689" lon="1.86035">
        <ele>199.1</ele>
        <time>2012-12-29T08:53:48.999Z</time>
      </trkpt>
      <trkpt lat="44.12689" lon="1.8603">
        <ele>198.9</ele>
        <time>2012-12-29T08:53:49.999Z</time>
      </trkpt>
      <trkpt lat="44.12688" lon="1.86025">
        <ele>198.7</ele>
        <time>2012-12-29T08:53:50.999Z</time>
      </trkpt>
      <trkpt lat="44.12687" lon="1.86019">
        <ele>198.4</ele>
        <time>2012-12-29T08:53:51.999Z</time>
      </trkpt>
      <trkpt lat="44.12686" lon="1.86014">
        <ele>198.1</ele>
        <time>2012-12-29T08:53:52.999Z</time>
      </trkpt>
      <trkpt lat="44.12686" lon="1.86008">
        <ele>197.9</ele>
        <time>2012-12-29T08:53:53.999Z</time>
      </trkpt>
      <trkpt lat="44.12685" lon="1.86002">
        <ele>197.7</ele>
        <time>2012-12-29T08:53:54.999Z</time>
      </trkpt>
      <trkpt lat="44.12683" lon="1.85997">
        <ele>197.5</ele>
        <time>2012-12-29T08:53:55.999Z</time>
      </trkpt>
      <trkpt lat="44.12681" lon="1.85992">
        <ele>197.4</ele>
        <time>2012-12-29T08:53:56.999Z</time>
      </trkpt>
      <trkpt lat="44.12678" lon="1.85986">
        <ele>197.3</ele>
        <time>2012-12-29T08:53:57.999Z</time>
      </trkpt>
      <trkpt lat="44.12675" lon="1.85982">
        <ele>197.3</ele>
        <time>2012-12-29T08:53:58.999Z</time>
      </trkpt>
      <trkpt lat="44.12673" lon="1.85978">
        <ele>197.2</ele>
        <time>2012-12-29T08:53:59.999Z</time>
      </trkpt>
      <trkpt lat="44.12671" lon="1.85974">
        <ele>197.3</ele>
        <time>2012-12-29T08:54:00.999Z</time>
      </trkpt>
      <trkpt lat="44.12669" lon="1.8597">
        <ele>197.3</ele>
        <time>2012-12-29T08:54:01.999Z</time>
      </trkpt>
      <trkpt lat="44.12666" lon="1.85966">
        <ele>197.4</ele>
        <time>2012-12-29T08:54:02.999Z</time>
      </trkpt>
      <trkpt lat="44.12663" lon="1.85962">
        <ele>197.5</ele>
        <time>2012-12-29T08:54:03.999Z</time>
      </trkpt>
      <trkpt lat="44.1266" lon="1.85959">
        <ele>197.6</ele>
        <time>2012-12-29T08:54:04.999Z</time>
      </trkpt>
      <trkpt lat="44.12656" lon="1.85955">
        <ele>197.6</ele>
        <time>2012-12-29T08:54:05.999Z</time>
      </trkpt>
      <trkpt lat="44.12653" lon="1.85952">
        <ele>197.7</ele>
        <time>2012-12-29T08:54:06.999Z</time>
      </trkpt>
      <trkpt lat="44.1265" lon="1.85948">
        <ele>197.7</ele>
        <time>2012-12-29T08:54:07.999Z</time>
      </trkpt>
      <trkpt lat="44.12647" lon="1.85944">
        <ele>197.8</ele>
        <time>2012-12-29T08:54:08.999Z</time>
      </trkpt>
      <trkpt lat="44.12644" lon="1.85941">
        <ele>198</ele>
        <time>2012-12-29T08:54:09.999Z</time>
      </trkpt>
      <trkpt lat="44.12641" lon="1.85939">
        <ele>198.1</ele>
        <time>2012-12-29T08:54:10.999Z</time>
      </trkpt>
      <trkpt lat="44.12638" lon="1.85937">
        <ele>198.4</ele>
        <time>2012-12-29T08:54:11.999Z</time>
      </trkpt>
      <trkpt lat="44.12635" lon="1.85934">
        <ele>198.6</ele>
        <time>2012-12-29T08:54:12.999Z</time>
      </trkpt>
      <trkpt lat="44.12631" lon="1.85931">
        <ele>198.9</ele>
        <time>2012-12-29T08:54:13.999Z</time>
      </trkpt>
      <trkpt lat="44.12628" lon="1.85928">
        <ele>199.1</ele>
        <time>2012-12-29T08:54:14.999Z</time>
      </trkpt>
      <trkpt lat="44.12624" lon="1.85926">
        <ele>199.4</ele>
        <time>2012-12-29T08:54:15.999Z</time>
      </trkpt>
      <trkpt lat="44.12621" lon="1.85924">
        <ele>199.7</ele>
        <time>2012-12-29T08:54:16.999Z</time>
      </trkpt>
      <trkpt lat="44.12618" lon="1.85921">
        <ele>200</ele>
        <time>2012-12-29T08:54:17.999Z</time>
      </trkpt>
      <trkpt lat="44.12615" lon="1.85918">
        <ele>200.3</ele>
        <time>2012-12-29T08:54:18.999Z</time>
      </trkpt>
      <trkpt lat="44.12612" lon="1.85916">
        <ele>200.7</ele>
        <time>2012-12-29T08:54:19.999Z</time>
      </trkpt>
      <trkpt lat="44.12608" lon="1.85913">
        <ele>201</ele>
        <time>2012-12-29T08:54:20.999Z</time>
      </trkpt>
      <trkpt lat="44.12605" lon="1.8591">
        <ele>201.3</ele>
        <time>2012-12-29T08:54:21.999Z</time>
      </trkpt>
      <trkpt lat="44.12602" lon="1.85907">
        <ele>201.6</ele>
        <time>2012-12-29T08:54:22.999Z</time>
      </trkpt>
      <trkpt lat="44.12599" lon="1.85904">
        <ele>201.9</ele>
        <time>2012-12-29T08:54:23.999Z</time>
      </trkpt>
      <trkpt lat="44.12597" lon="1.85901">
        <ele>202.2</ele>
        <time>2012-12-29T08:54:24.999Z</time>
      </trkpt>
      <trkpt lat="44.12594" lon="1.85898">
        <ele>202.5</ele>
        <time>2012-12-29T08:54:25.999Z</time>
      </trkpt>
      <trkpt lat="44.12591" lon="1.85895">
        <ele>202.9</ele>
        <time>2012-12-29T08:54:26.999Z</time>
      </trkpt>
      <trkpt lat="44.12588" lon="1.85892">
        <ele>203.2</ele>
        <time>2012-12-29T08:54:27.999Z</time>
      </trkpt>
      <trkpt lat="44.12585" lon="1.85889">
        <ele>203.5</ele>
        <time>2012-12-29T08:54:28.999Z</time>
      </trkpt>
      <trkpt lat="44.12582" lon="1.85886">
        <ele>203.8</ele>
        <time>2012-12-29T08:54:29.999Z</time>
      </trkpt>
      <trkpt lat="44.1258" lon="1.85882">
        <ele>204.1</ele>
        <time>2012-12-29T08:54:30.999Z</time>
      </trkpt>
      <trkpt lat="44.12578" lon="1.85878">
        <ele>204.4</ele>
        <time>2012-12-29T08:54:31.999Z</time>
      </trkpt>
      <trkpt lat="44.12575" lon="1.85875">
        <ele>204.7</ele>
        <time>2012-12-29T08:54:32.999Z</time>
      </trkpt>
      <trkpt lat="44.12572" lon="1.85872">
        <ele>205</ele>
        <time>2012-12-29T08:54:33.999Z</time>
      </trkpt>
      <trkpt lat="44.12569" lon="1.85869">
        <ele>205.3</ele>
        <time>2012-12-29T08:54:34.999Z</time>
      </trkpt>
      <trkpt lat="44.12566" lon="1.85866">
        <ele>205.7</ele>
        <time>2012-12-29T08:54:35.999Z</time>
      </trkpt>
      <trkpt lat="44.12562" lon="1.85863">
        <ele>206</ele>
        <time>2012-12-29T08:54:36.999Z</time>
      </trkpt>
      <trkpt lat="44.12559" lon="1.8586">
        <ele>206.4</ele>
        <time>2012-12-29T08:54:37.999Z</time>
      </trkpt>
      <trkpt lat="44.12556" lon="1.85857">
        <ele>206.7</ele>
        <time>2012-12-29T08:54:38.999Z</time>
      </trkpt>
      <trkpt lat="44.12554" lon="1.85854">
        <ele>207</ele>
        <time>2012-12-29T08:54:39.999Z</time>
      </trkpt>
      <trkpt lat="44.12551" lon="1.85851">
        <ele>207.3</ele>
        <time>2012-12-29T08:54:40.999Z</time>
      </trkpt>
      <trkpt lat="44.12549" lon="1.85848">
        <ele>207.6</ele>
        <time>2012-12-29T08:54:41.999Z</time>
      </trkpt>
      <trkpt lat="44.12546" lon="1.85845">
        <ele>207.9</ele>
        <time>2012-12-29T08:54:42.999Z</time>
      </trkpt>
      <trkpt lat="44.12543" lon="1.85842">
        <ele>208.1</ele>
        <time>2012-12-29T08:54:43.999Z</time>
      </trkpt>
      <trkpt lat="44.1254" lon="1.85839">
        <ele>208.3</ele>
        <time>2012-12-29T08:54:44.999Z</time>
      </trkpt>
      <trkpt lat="44.12537" lon="1.85836">
        <ele>208.5</ele>
        <time>2012-12-29T08:54:45.999Z</time>
      </trkpt>
      <trkpt lat="44.12535" lon="1.85834">
        <ele>208.8</ele>
        <time>2012-12-29T08:54:46.999Z</time>
      </trkpt>
      <trkpt lat="44.12532" lon="1.85833">
        <ele>209</ele>
        <time>2012-12-29T08:54:47.999Z</time>
      </trkpt>
      <trkpt lat="44.12529" lon="1.8583">
        <ele>209.2</ele>
        <time>2012-12-29T08:54:48.999Z</time>
      </trkpt>
      <trkpt lat="44.12526" lon="1.85827">
        <ele>209.4</ele>
        <time>2012-12-29T08:54:49.999Z</time>
      </trkpt>
      <trkpt lat="44.12522" lon="1.85823">
        <ele>209.6</ele>
        <time>2012-12-29T08:54:50.999Z</time>
      </trkpt>
      <trkpt lat="44.12519" lon="1.85819">
        <ele>209.7</ele>
        <time>2012-12-29T08:54:51.999Z</time>
      </trkpt>
      <trkpt lat="44.12517" lon="1.85816">
        <ele>210</ele>
        <time>2012-12-29T08:54:52.999Z</time>
      </trkpt>
      <trkpt lat="44.12513" lon="1.85813">
        <ele>210.2</ele>
        <time>2012-12-29T08:54:53.999Z</time>
      </trkpt>
      <trkpt lat="44.1251" lon="1.8581">
        <ele>210.5</ele>
        <time>2012-12-29T08:54:54.999Z</time>
      </trkpt>
      <trkpt lat="44.12507" lon="1.85807">
        <ele>210.8</ele>
        <time>2012-12-29T08:54:55.999Z</time>
      </trkpt>
      <trkpt lat="44.12504" lon="1.85805">
        <ele>211</ele>
        <time>2012-12-29T08:54:56.999Z</time>
      </trkpt>
      <trkpt lat="44.12501" lon="1.85803">
        <ele>211.2</ele>
        <time>2012-12-29T08:54:57.999Z</time>
      </trkpt>
      <trkpt lat="44.12499" lon="1.858">
        <ele>211.4</ele>
        <time>2012-12-29T08:54:58.999Z</time>
      </trkpt>
      <trkpt lat="44.12496" lon="1.85797">
        <ele>211.6</ele>
        <time>2012-12-29T08:54:59.999Z</time>
      </trkpt>
      <trkpt lat="44.12494" lon="1.85795">
        <ele>211.8</ele>
        <time>2012-12-29T08:55:00.999Z</time>
      </trkpt>
      <trkpt lat="44.12491" lon="1.85792">
        <ele>212.1</ele>
        <time>2012-12-29T08:55:01.999Z</time>
      </trkpt>
      <trkpt lat="44.12489" lon="1.85789">
        <ele>212.3</ele>
        <time>2012-12-29T08:55:02.999Z</time>
      </trkpt>
      <trkpt lat="44.12486" lon="1.85786">
        <ele>212.5</ele>
        <time>2012-12-29T08:55:03.999Z</time>
      </trkpt>
      <trkpt lat="44.12484" lon="1.85784">
        <ele>212.6</ele>
        <time>2012-12-29T08:55:04.999Z</time>
      </trkpt>
      <trkpt lat="44.12482" lon="1.8578">
        <ele>212.9</ele>
        <time>2012-12-29T08:55:05.999Z</time>
      </trkpt>
      <trkpt lat="44.12479" lon="1.85777">
        <ele>213.1</ele>
        <time>2012-12-29T08:55:06.999Z</time>
      </trkpt>
      <trkpt lat="44.12477" lon="1.85773">
        <ele>213.2</ele>
        <time>2012-12-29T08:55:07.999Z</time>
      </trkpt>
      <trkpt lat="44.12475" lon="1.85769">
        <ele>213.4</ele>
        <time>2012-12-29T08:55:08.999Z</time>
      </trkpt>
      <trkpt lat="44.12473" lon="1.85766">
        <ele>213.5</ele>
        <time>2012-12-29T08:55:09.999Z</time>
      </trkpt>
      <trkpt lat="44.1247" lon="1.85763">
        <ele>213.8</ele>
        <time>2012-12-29T08:55:10.999Z</time>
      </trkpt>
      <trkpt lat="44.12468" lon="1.8576">
        <ele>214</ele>
        <time>2012-12-29T08:55:11.999Z</time>
      </trkpt>
      <trkpt lat="44.12465" lon="1.85757">
        <ele>214.2</ele>
        <time>2012-12-29T08:55:12.999Z</time>
      </trkpt>
      <trkpt lat="44.12462" lon="1.85755">
        <ele>214.4</ele>
        <time>2012-12-29T08:55:13.999Z</time>
      </trkpt>
      <trkpt lat="44.12459" lon="1.85751">
        <ele>214.7</ele>
        <time>2012-12-29T08:55:14.999Z</time>
      </trkpt>
      <trkpt lat="44.12457" lon="1.85748">
        <ele>214.9</ele>
        <time>2012-12-29T08:55:15.999Z</time>
      </trkpt>
      <trkpt lat="44.12454" lon="1.85745">
        <ele>215.1</ele>
        <time>2012-12-29T08:55:16.999Z</time>
      </trkpt>
      <trkpt lat="44.12452" lon="1.85742">
        <ele>215.2</ele>
        <time>2012-12-29T08:55:17.999Z</time>
      </trkpt>
      <trkpt lat="44.12449" lon="1.8574">
        <ele>215.4</ele>
        <time>2012-12-29T08:55:18.999Z</time>
      </trkpt>
      <trkpt lat="44.12447" lon="1.85738">
        <ele>215.7</ele>
        <time>2012-12-29T08:55:19.999Z</time>
      </trkpt>
      <trkpt lat="44.12445" lon="1.85735">
        <ele>215.8</ele>
        <time>2012-12-29T08:55:20.999Z</time>
      </trkpt>
      <trkpt lat="44.12443" lon="1.85733">
        <ele>215.8</ele>
        <time>2012-12-29T08:55:21.999Z</time>
      </trkpt>
      <trkpt lat="44.1244" lon="1.8573">
        <ele>215.9</ele>
        <time>2012-12-29T08:55:22.999Z</time>
      </trkpt>
      <trkpt lat="44.12438" lon="1.85727">
        <ele>216</ele>
        <time>2012-12-29T08:55:23.999Z</time>
      </trkpt>
      <trkpt lat="44.12436" lon="1.85724">
        <ele>216.1</ele>
        <time>2012-12-29T08:55:24.999Z</time>
      </trkpt>
      <trkpt lat="44.12433" lon="1.85721">
        <ele>216.1</ele>
        <time>2012-12-29T08:55:25.999Z</time>
      </trkpt>
      <trkpt lat="44.12431" lon="1.85718">
        <ele>216.1</ele>
        <time>2012-12-29T08:55:26.999Z</time>
      </trkpt>
      <trkpt lat="44.12429" lon="1.85715">
        <ele>216.1</ele>
        <time>2012-12-29T08:55:27.999Z</time>
      </trkpt>
      <trkpt lat="44.12427" lon="1.85712">
        <ele>216.1</ele>
        <time>2012-12-29T08:55:28.999Z</time>
      </trkpt>
      <trkpt lat="44.12424" lon="1.85709">
        <ele>216.1</ele>
        <time>2012-12-29T08:55:29.999Z</time>
      </trkpt>
      <trkpt lat="44.12422" lon="1.85706">
        <ele>216.1</ele>
        <time>2012-12-29T08:55:30.999Z</time>
      </trkpt>
      <trkpt lat="44.1242" lon="1.85701">
        <ele>216.1</ele>
        <time>2012-12-29T08:55:31.999Z</time>
      </trkpt>
      <trkpt lat="44.12418" lon="1.85697">
        <ele>216</ele>
        <time>2012-12-29T08:55:32.999Z</time>
      </trkpt>
      <trkpt lat="44.12416" lon="1.85692">
        <ele>216</ele>
        <time>2012-12-29T08:55:33.999Z</time>
      </trkpt>
      <trkpt lat="44.12415" lon="1.85688">
        <ele>215.9</ele>
        <time>2012-12-29T08:55:34.999Z</time>
      </trkpt>
      <trkpt lat="44.12413" lon="1.85685">
        <ele>215.9</ele>
        <time>2012-12-29T08:55:35.999Z</time>
      </trkpt>
      <trkpt lat="44.12412" lon="1.85682">
        <ele>215.9</ele>
        <time>2012-12-29T08:55:36.999Z</time>
      </trkpt>
      <trkpt lat="44.1241" lon="1.85679">
        <ele>215.8</ele>
        <time>2012-12-29T08:55:37.999Z</time>
      </trkpt>
      <trkpt lat="44.12407" lon="1.85675">
        <ele>215.8</ele>
        <time>2012-12-29T08:55:38.999Z</time>
      </trkpt>
      <trkpt lat="44.12405" lon="1.85672">
        <ele>215.8</ele>
        <time>2012-12-29T08:55:39.999Z</time>
      </trkpt>
      <trkpt lat="44.12403" lon="1.85668">
        <ele>215.8</ele>
        <time>2012-12-29T08:55:40.999Z</time>
      </trkpt>
      <trkpt lat="44.12399" lon="1.85665">
        <ele>215.9</ele>
        <time>2012-12-29T08:55:41.999Z</time>
      </trkpt>
      <trkpt lat="44.12396" lon="1.85662">
        <ele>216</ele>
        <time>2012-12-29T08:55:42.999Z</time>
      </trkpt>
      <trkpt lat="44.12394" lon="1.8566">
        <ele>216.1</ele>
        <time>2012-12-29T08:55:43.999Z</time>
      </trkpt>
      <trkpt lat="44.12392" lon="1.85657">
        <ele>216.2</ele>
        <time>2012-12-29T08:55:44.999Z</time>
      </trkpt>
      <trkpt lat="44.12391" lon="1.85654">
        <ele>216.4</ele>
        <time>2012-12-29T08:55:45.999Z</time>
      </trkpt>
      <trkpt lat="44.12388" lon="1.85649">
        <ele>216.7</ele>
        <time>2012-12-29T08:55:47.999Z</time>
      </trkpt>
      <trkpt lat="44.12386" lon="1.85647">
        <ele>216.9</ele>
        <time>2012-12-29T08:55:48.999Z</time>
      </trkpt>
      <trkpt lat="44.12385" lon="1.85644">
        <ele>216.9</ele>
        <time>2012-12-29T08:55:49.999Z</time>
      </trkpt>
      <trkpt lat="44.12383" lon="1.85641">
        <ele>216.9</ele>
        <time>2012-12-29T08:55:50.999Z</time>
      </trkpt>
      <trkpt lat="44.1238" lon="1.85638">
        <ele>216.9</ele>
        <time>2012-12-29T08:55:51.999Z</time>
      </trkpt>
      <trkpt lat="44.12378" lon="1.85635">
        <ele>216.8</ele>
        <time>2012-12-29T08:55:52.999Z</time>
      </trkpt>
      <trkpt lat="44.12375" lon="1.85631">
        <ele>216.7</ele>
        <time>2012-12-29T08:55:53.999Z</time>
      </trkpt>
      <trkpt lat="44.12373" lon="1.85628">
        <ele>216.5</ele>
        <time>2012-12-29T08:55:54.999Z</time>
      </trkpt>
      <trkpt lat="44.1237" lon="1.85624">
        <ele>216.4</ele>
        <time>2012-12-29T08:55:55.999Z</time>
      </trkpt>
      <trkpt lat="44.12368" lon="1.85621">
        <ele>216.3</ele>
        <time>2012-12-29T08:55:56.999Z</time>
      </trkpt>
      <trkpt lat="44.12367" lon="1.85618">
        <ele>216.3</ele>
        <time>2012-12-29T08:55:57.999Z</time>
      </trkpt>
      <trkpt lat="44.12365" lon="1.85615">
        <ele>216.1</ele>
        <time>2012-12-29T08:55:58.999Z</time>
      </trkpt>
      <trkpt lat="44.12363" lon="1.85611">
        <ele>216</ele>
        <time>2012-12-29T08:55:59.999Z</time>
      </trkpt>
      <trkpt lat="44.12359" lon="1.85607">
        <ele>215.9</ele>
        <time>2012-12-29T08:56:00.999Z</time>
      </trkpt>
      <trkpt lat="44.12356" lon="1.85602">
        <ele>216</ele>
        <time>2012-12-29T08:56:01.999Z</time>
      </trkpt>
      <trkpt lat="44.12353" lon="1.85597">
        <ele>216</ele>
        <time>2012-12-29T08:56:02.999Z</time>
      </trkpt>
      <trkpt lat="44.12351" lon="1.85592">
        <ele>216.1</ele>
        <time>2012-12-29T08:56:03.999Z</time>
      </trkpt>
      <trkpt lat="44.12348" lon="1.85587">
        <ele>216.3</ele>
        <time>2012-12-29T08:56:04.999Z</time>
      </trkpt>
      <trkpt lat="44.12346" lon="1.85582">
        <ele>216.5</ele>
        <time>2012-12-29T08:56:05.999Z</time>
      </trkpt>
      <trkpt lat="44.12344" lon="1.85577">
        <ele>216.6</ele>
        <time>2012-12-29T08:56:06.999Z</time>
      </trkpt>
      <trkpt lat="44.12342" lon="1.85572">
        <ele>216.8</ele>
        <time>2012-12-29T08:56:07.999Z</time>
      </trkpt>
      <trkpt lat="44.1234" lon="1.85566">
        <ele>216.9</ele>
        <time>2012-12-29T08:56:08.999Z</time>
      </trkpt>
      <trkpt lat="44.12338" lon="1.8556">
        <ele>218.1</ele>
        <time>2012-12-29T08:56:09.999Z</time>
      </trkpt>
      <trkpt lat="44.12335" lon="1.85555">
        <ele>218.2</ele>
        <time>2012-12-29T08:56:10.999Z</time>
      </trkpt>
      <trkpt lat="44.12333" lon="1.8555">
        <ele>218.3</ele>
        <time>2012-12-29T08:56:11.999Z</time>
      </trkpt>
      <trkpt lat="44.12329" lon="1.85544">
        <ele>218.4</ele>
        <time>2012-12-29T08:56:12.999Z</time>
      </trkpt>
      <trkpt lat="44.12327" lon="1.8554">
        <ele>218.5</ele>
        <time>2012-12-29T08:56:13.999Z</time>
      </trkpt>
      <trkpt lat="44.12324" lon="1.85537">
        <ele>218.6</ele>
        <time>2012-12-29T08:56:14.999Z</time>
      </trkpt>
      <trkpt lat="44.12322" lon="1.85534">
        <ele>218.6</ele>
        <time>2012-12-29T08:56:15.999Z</time>
      </trkpt>
      <trkpt lat="44.1232" lon="1.8553">
        <ele>218.7</ele>
        <time>2012-12-29T08:56:16.999Z</time>
      </trkpt>
      <trkpt lat="44.12318" lon="1.85528">
        <ele>218.7</ele>
        <time>2012-12-29T08:56:17.999Z</time>
      </trkpt>
      <trkpt lat="44.12317" lon="1.85525">
        <ele>218.7</ele>
        <time>2012-12-29T08:56:18.999Z</time>
      </trkpt>
      <trkpt lat="44.12315" lon="1.85521">
        <ele>218.8</ele>
        <time>2012-12-29T08:56:19.999Z</time>
      </trkpt>
      <trkpt lat="44.12313" lon="1.85516">
        <ele>218.9</ele>
        <time>2012-12-29T08:56:20.999Z</time>
      </trkpt>
      <trkpt lat="44.12311" lon="1.8551">
        <ele>219.1</ele>
        <time>2012-12-29T08:56:21.999Z</time>
      </trkpt>
      <trkpt lat="44.12308" lon="1.85506">
        <ele>219.2</ele>
        <time>2012-12-29T08:56:22.999Z</time>
      </trkpt>
      <trkpt lat="44.12306" lon="1.85502">
        <ele>219.4</ele>
        <time>2012-12-29T08:56:23.999Z</time>
      </trkpt>
      <trkpt lat="44.12304" lon="1.85498">
        <ele>219.4</ele>
        <time>2012-12-29T08:56:24.999Z</time>
      </trkpt>
      <trkpt lat="44.12302" lon="1.85494">
        <ele>219.6</ele>
        <time>2012-12-29T08:56:25.999Z</time>
      </trkpt>
      <trkpt lat="44.123" lon="1.85491">
        <ele>219.7</ele>
        <time>2012-12-29T08:56:26.999Z</time>
      </trkpt>
      <trkpt lat="44.12297" lon="1.85487">
        <ele>219.9</ele>
        <time>2012-12-29T08:56:27.999Z</time>
      </trkpt>
      <trkpt lat="44.12294" lon="1.85483">
        <ele>220.2</ele>
        <time>2012-12-29T08:56:28.999Z</time>
      </trkpt>
      <trkpt lat="44.12291" lon="1.8548">
        <ele>220.4</ele>
        <time>2012-12-29T08:56:29.999Z</time>
      </trkpt>
      <trkpt lat="44.12288" lon="1.85476">
        <ele>220.8</ele>
        <time>2012-12-29T08:56:30.999Z</time>
      </trkpt>
      <trkpt lat="44.12285" lon="1.85473">
        <ele>221</ele>
        <time>2012-12-29T08:56:31.999Z</time>
      </trkpt>
      <trkpt lat="44.12282" lon="1.85469">
        <ele>221.2</ele>
        <time>2012-12-29T08:56:32.999Z</time>
      </trkpt>
      <trkpt lat="44.1228" lon="1.85466">
        <ele>221.4</ele>
        <time>2012-12-29T08:56:33.999Z</time>
      </trkpt>
      <trkpt lat="44.12278" lon="1.85462">
        <ele>221.6</ele>
        <time>2012-12-29T08:56:34.999Z</time>
      </trkpt>
      <trkpt lat="44.12275" lon="1.85459">
        <ele>221.8</ele>
        <time>2012-12-29T08:56:35.999Z</time>
      </trkpt>
      <trkpt lat="44.12274" lon="1.85456">
        <ele>221.9</ele>
        <time>2012-12-29T08:56:36.999Z</time>
      </trkpt>
      <trkpt lat="44.12272" lon="1.85453">
        <ele>222.1</ele>
        <time>2012-12-29T08:56:37.999Z</time>
      </trkpt>
      <trkpt lat="44.12271" lon="1.8545">
        <ele>222.4</ele>
        <time>2012-12-29T08:56:38.999Z</time>
      </trkpt>
      <trkpt lat="44.12269" lon="1.85448">
        <ele>222.6</ele>
        <time>2012-12-29T08:56:39.999Z</time>
      </trkpt>
      <trkpt lat="44.12267" lon="1.85444">
        <ele>222.8</ele>
        <time>2012-12-29T08:56:40.999Z</time>
      </trkpt>
      <trkpt lat="44.12265" lon="1.85441">
        <ele>222.9</ele>
        <time>2012-12-29T08:56:41.999Z</time>
      </trkpt>
      <trkpt lat="44.12263" lon="1.85437">
        <ele>223.1</ele>
        <time>2012-12-29T08:56:42.999Z</time>
      </trkpt>
      <trkpt lat="44.12261" lon="1.85434">
        <ele>223.2</ele>
        <time>2012-12-29T08:56:43.999Z</time>
      </trkpt>
      <trkpt lat="44.1226" lon="1.8543">
        <ele>223.3</ele>
        <time>2012-12-29T08:56:44.999Z</time>
      </trkpt>
      <trkpt lat="44.12258" lon="1.85426">
        <ele>223.5</ele>
        <time>2012-12-29T08:56:45.999Z</time>
      </trkpt>
      <trkpt lat="44.12256" lon="1.85423">
        <ele>223.6</ele>
        <time>2012-12-29T08:56:46.999Z</time>
      </trkpt>
      <trkpt lat="44.12254" lon="1.85418">
        <ele>223.8</ele>
        <time>2012-12-29T08:56:47.999Z</time>
      </trkpt>
      <trkpt lat="44.12252" lon="1.85415">
        <ele>223.9</ele>
        <time>2012-12-29T08:56:48.999Z</time>
      </trkpt>
      <trkpt lat="44.1225" lon="1.85412">
        <ele>224.1</ele>
        <time>2012-12-29T08:56:49.999Z</time>
      </trkpt>
      <trkpt lat="44.12248" lon="1.85409">
        <ele>224.2</ele>
        <time>2012-12-29T08:56:50.999Z</time>
      </trkpt>
      <trkpt lat="44.12246" lon="1.85406">
        <ele>224.3</ele>
        <time>2012-12-29T08:56:51.999Z</time>
      </trkpt>
      <trkpt lat="44.12243" lon="1.85403">
        <ele>224.3</ele>
        <time>2012-12-29T08:56:52.999Z</time>
      </trkpt>
      <trkpt lat="44.12241" lon="1.854">
        <ele>224.2</ele>
        <time>2012-12-29T08:56:53.999Z</time>
      </trkpt>
      <trkpt lat="44.12239" lon="1.85396">
        <ele>224.1</ele>
        <time>2012-12-29T08:56:54.999Z</time>
      </trkpt>
      <trkpt lat="44.12236" lon="1.85392">
        <ele>224</ele>
        <time>2012-12-29T08:56:55.999Z</time>
      </trkpt>
      <trkpt lat="44.12233" lon="1.85388">
        <ele>224</ele>
        <time>2012-12-29T08:56:56.999Z</time>
      </trkpt>
      <trkpt lat="44.1223" lon="1.85385">
        <ele>223.8</ele>
        <time>2012-12-29T08:56:57.999Z</time>
      </trkpt>
      <trkpt lat="44.12227" lon="1.85382">
        <ele>223.7</ele>
        <time>2012-12-29T08:56:58.999Z</time>
      </trkpt>
      <trkpt lat="44.12224" lon="1.85378">
        <ele>223.6</ele>
        <time>2012-12-29T08:56:59.999Z</time>
      </trkpt>
      <trkpt lat="44.12221" lon="1.85375">
        <ele>223.6</ele>
        <time>2012-12-29T08:57:00.999Z</time>
      </trkpt>
      <trkpt lat="44.12217" lon="1.85372">
        <ele>223.6</ele>
        <time>2012-12-29T08:57:01.999Z</time>
      </trkpt>
      <trkpt lat="44.12214" lon="1.85369">
        <ele>223.6</ele>
        <time>2012-12-29T08:57:02.999Z</time>
      </trkpt>
      <trkpt lat="44.12211" lon="1.85365">
        <ele>223.6</ele>
        <time>2012-12-29T08:57:03.999Z</time>
      </trkpt>
      <trkpt lat="44.12208" lon="1.85363">
        <ele>223.6</ele>
        <time>2012-12-29T08:57:04.999Z</time>
      </trkpt>
      <trkpt lat="44.12205" lon="1.8536">
        <ele>223.6</ele>
        <time>2012-12-29T08:57:05.999Z</time>
      </trkpt>
      <trkpt lat="44.12202" lon="1.85358">
        <ele>223.8</ele>
        <time>2012-12-29T08:57:06.999Z</time>
      </trkpt>
      <trkpt lat="44.12199" lon="1.85355">
        <ele>223.9</ele>
        <time>2012-12-29T08:57:07.999Z</time>
      </trkpt>
      <trkpt lat="44.12197" lon="1.85352">
        <ele>224</ele>
        <time>2012-12-29T08:57:08.999Z</time>
      </trkpt>
      <trkpt lat="44.12194" lon="1.85349">
        <ele>224.1</ele>
        <time>2012-12-29T08:57:09.999Z</time>
      </trkpt>
      <trkpt lat="44.12191" lon="1.85346">
        <ele>224.2</ele>
        <time>2012-12-29T08:57:10.999Z</time>
      </trkpt>
      <trkpt lat="44.12188" lon="1.85343">
        <ele>224.3</ele>
        <time>2012-12-29T08:57:11.999Z</time>
      </trkpt>
      <trkpt lat="44.12185" lon="1.85339">
        <ele>224.2</ele>
        <time>2012-12-29T08:57:12.999Z</time>
      </trkpt>
      <trkpt lat="44.12183" lon="1.85335">
        <ele>224.2</ele>
        <time>2012-12-29T08:57:13.999Z</time>
      </trkpt>
      <trkpt lat="44.12181" lon="1.85331">
        <ele>224.3</ele>
        <time>2012-12-29T08:57:14.999Z</time>
      </trkpt>
      <trkpt lat="44.12179" lon="1.85327">
        <ele>224.3</ele>
        <time>2012-12-29T08:57:15.999Z</time>
      </trkpt>
      <trkpt lat="44.12176" lon="1.85324">
        <ele>224.3</ele>
        <time>2012-12-29T08:57:16.999Z</time>
      </trkpt>
      <trkpt lat="44.12174" lon="1.8532">
        <ele>224.3</ele>
        <time>2012-12-29T08:57:17.999Z</time>
      </trkpt>
      <trkpt lat="44.12171" lon="1.85315">
        <ele>224.3</ele>
        <time>2012-12-29T08:57:18.999Z</time>
      </trkpt>
      <trkpt lat="44.12168" lon="1.85311">
        <ele>224.3</ele>
        <time>2012-12-29T08:57:19.999Z</time>
      </trkpt>
      <trkpt lat="44.12166" lon="1.85307">
        <ele>224.4</ele>
        <time>2012-12-29T08:57:20.999Z</time>
      </trkpt>
      <trkpt lat="44.12163" lon="1.85302">
        <ele>224.4</ele>
        <time>2012-12-29T08:57:21.999Z</time>
      </trkpt>
      <trkpt lat="44.1216" lon="1.85297">
        <ele>224.4</ele>
        <time>2012-12-29T08:57:22.999Z</time>
      </trkpt>
      <trkpt lat="44.12158" lon="1.85292">
        <ele>224.5</ele>
        <time>2012-12-29T08:57:23.999Z</time>
      </trkpt>
      <trkpt lat="44.12155" lon="1.85287">
        <ele>224.6</ele>
        <time>2012-12-29T08:57:24.999Z</time>
      </trkpt>
      <trkpt lat="44.12153" lon="1.85282">
        <ele>224.8</ele>
        <time>2012-12-29T08:57:25.999Z</time>
      </trkpt>
      <trkpt lat="44.12151" lon="1.85276">
        <ele>224.9</ele>
        <time>2012-12-29T08:57:26.999Z</time>
      </trkpt>
      <trkpt lat="44.12148" lon="1.85272">
        <ele>225</ele>
        <time>2012-12-29T08:57:27.999Z</time>
      </trkpt>
      <trkpt lat="44.12146" lon="1.85267">
        <ele>225.1</ele>
        <time>2012-12-29T08:57:28.999Z</time>
      </trkpt>
      <trkpt lat="44.12144" lon="1.85262">
        <ele>225.2</ele>
        <time>2012-12-29T08:57:29.999Z</time>
      </trkpt>
      <trkpt lat="44.12142" lon="1.85257">
        <ele>225.3</ele>
        <time>2012-12-29T08:57:30.999Z</time>
      </trkpt>
      <trkpt lat="44.12141" lon="1.85253">
        <ele>225.3</ele>
        <time>2012-12-29T08:57:31.999Z</time>
      </trkpt>
      <trkpt lat="44.12139" lon="1.85248">
        <ele>225.5</ele>
        <time>2012-12-29T08:57:32.999Z</time>
      </trkpt>
      <trkpt lat="44.12137" lon="1.85244">
        <ele>225.6</ele>
        <time>2012-12-29T08:57:33.999Z</time>
      </trkpt>
      <trkpt lat="44.12135" lon="1.85239">
        <ele>225.7</ele>
        <time>2012-12-29T08:57:34.999Z</time>
      </trkpt>
      <trkpt lat="44.12133" lon="1.85233">
        <ele>225.9</ele>
        <time>2012-12-29T08:57:35.999Z</time>
      </trkpt>
      <trkpt lat="44.12132" lon="1.85228">
        <ele>226.1</ele>
        <time>2012-12-29T08:57:36.999Z</time>
      </trkpt>
      <trkpt lat="44.1213" lon="1.85223">
        <ele>226.3</ele>
        <time>2012-12-29T08:57:37.999Z</time>
      </trkpt>
      <trkpt lat="44.12128" lon="1.85218">
        <ele>226.5</ele>
        <time>2012-12-29T08:57:38.999Z</time>
      </trkpt>
      <trkpt lat="44.12127" lon="1.85213">
        <ele>226.7</ele>
        <time>2012-12-29T08:57:39.999Z</time>
      </trkpt>
      <trkpt lat="44.12125" lon="1.85209">
        <ele>226.9</ele>
        <time>2012-12-29T08:57:40.999Z</time>
      </trkpt>
      <trkpt lat="44.12123" lon="1.85205">
        <ele>227</ele>
        <time>2012-12-29T08:57:41.999Z</time>
      </trkpt>
      <trkpt lat="44.12122" lon="1.852">
        <ele>227.1</ele>
        <time>2012-12-29T08:57:42.999Z</time>
      </trkpt>
      <trkpt lat="44.12121" lon="1.85196">
        <ele>227.2</ele>
        <time>2012-12-29T08:57:43.999Z</time>
      </trkpt>
      <trkpt lat="44.1212" lon="1.85192">
        <ele>227.4</ele>
        <time>2012-12-29T08:57:44.999Z</time>
      </trkpt>
      <trkpt lat="44.12118" lon="1.85188">
        <ele>227.5</ele>
        <time>2012-12-29T08:57:45.999Z</time>
      </trkpt>
      <trkpt lat="44.12117" lon="1.85183">
        <ele>227.7</ele>
        <time>2012-12-29T08:57:46.999Z</time>
      </trkpt>
      <trkpt lat="44.12115" lon="1.85179">
        <ele>227.9</ele>
        <time>2012-12-29T08:57:47.999Z</time>
      </trkpt>
      <trkpt lat="44.12113" lon="1.85176">
        <ele>228.1</ele>
        <time>2012-12-29T08:57:48.999Z</time>
      </trkpt>
      <trkpt lat="44.12111" lon="1.85172">
        <ele>228.4</ele>
        <time>2012-12-29T08:57:49.999Z</time>
      </trkpt>
      <trkpt lat="44.12109" lon="1.85167">
        <ele>228.5</ele>
        <time>2012-12-29T08:57:50.999Z</time>
      </trkpt>
      <trkpt lat="44.12108" lon="1.85162">
        <ele>228.7</ele>
        <time>2012-12-29T08:57:51.999Z</time>
      </trkpt>
      <trkpt lat="44.12106" lon="1.85158">
        <ele>228.8</ele>
        <time>2012-12-29T08:57:52.999Z</time>
      </trkpt>
      <trkpt lat="44.12104" lon="1.85153">
        <ele>228.9</ele>
        <time>2012-12-29T08:57:53.999Z</time>
      </trkpt>
      <trkpt lat="44.12102" lon="1.85148">
        <ele>229.1</ele>
        <time>2012-12-29T08:57:54.999Z</time>
      </trkpt>
      <trkpt lat="44.12101" lon="1.85144">
        <ele>229.2</ele>
        <time>2012-12-29T08:57:55.999Z</time>
      </trkpt>
      <trkpt lat="44.12099" lon="1.8514">
        <ele>229.3</ele>
        <time>2012-12-29T08:57:56.999Z</time>
      </trkpt>
      <trkpt lat="44.12097" lon="1.85137">
        <ele>229.5</ele>
        <time>2012-12-29T08:57:57.999Z</time>
      </trkpt>
      <trkpt lat="44.12095" lon="1.85134">
        <ele>229.7</ele>
        <time>2012-12-29T08:57:58.999Z</time>
      </trkpt>
      <trkpt lat="44.12093" lon="1.85129">
        <ele>229.9</ele>
        <time>2012-12-29T08:57:59.999Z</time>
      </trkpt>
      <trkpt lat="44.12091" lon="1.85124">
        <ele>230</ele>
        <time>2012-12-29T08:58:00.999Z</time>
      </trkpt>
      <trkpt lat="44.12088" lon="1.85119">
        <ele>230.3</ele>
        <time>2012-12-29T08:58:01.999Z</time>
      </trkpt>
      <trkpt lat="44.12086" lon="1.85115">
        <ele>230.5</ele>
        <time>2012-12-29T08:58:02.999Z</time>
      </trkpt>
      <trkpt lat="44.12084" lon="1.85111">
        <ele>230.7</ele>
        <time>2012-12-29T08:58:03.999Z</time>
      </trkpt>
      <trkpt lat="44.12082" lon="1.85108">
        <ele>231</ele>
        <time>2012-12-29T08:58:04.999Z</time>
      </trkpt>
      <trkpt lat="44.12081" lon="1.85104">
        <ele>231.1</ele>
        <time>2012-12-29T08:58:05.999Z</time>
      </trkpt>
      <trkpt lat="44.12078" lon="1.851">
        <ele>231.3</ele>
        <time>2012-12-29T08:58:06.999Z</time>
      </trkpt>
      <trkpt lat="44.12076" lon="1.85095">
        <ele>231.5</ele>
        <time>2012-12-29T08:58:07.999Z</time>
      </trkpt>
      <trkpt lat="44.12073" lon="1.8509">
        <ele>231.7</ele>
        <time>2012-12-29T08:58:08.999Z</time>
      </trkpt>
      <trkpt lat="44.12072" lon="1.85086">
        <ele>231.9</ele>
        <time>2012-12-29T08:58:09.999Z</time>
      </trkpt>
      <trkpt lat="44.1207" lon="1.85081">
        <ele>232.2</ele>
        <time>2012-12-29T08:58:10.999Z</time>
      </trkpt>
      <trkpt lat="44.12069" lon="1.85076">
        <ele>232.4</ele>
        <time>2012-12-29T08:58:11.999Z</time>
      </trkpt>
      <trkpt lat="44.12067" lon="1.85072">
        <ele>232.6</ele>
        <time>2012-12-29T08:58:12.999Z</time>
      </trkpt>
      <trkpt lat="44.12066" lon="1.85069">
        <ele>232.8</ele>
        <time>2012-12-29T08:58:13.999Z</time>
      </trkpt>
      <trkpt lat="44.12064" lon="1.85065">
        <ele>233</ele>
        <time>2012-12-29T08:58:14.999Z</time>
      </trkpt>
      <trkpt lat="44.12063" lon="1.85061">
        <ele>233</ele>
        <time>2012-12-29T08:58:15.999Z</time>
      </trkpt>
      <trkpt lat="44.1206" lon="1.85059">
        <ele>233.1</ele>
        <time>2012-12-29T08:58:16.999Z</time>
      </trkpt>
      <trkpt lat="44.12058" lon="1.85055">
        <ele>233</ele>
        <time>2012-12-29T08:58:17.999Z</time>
      </trkpt>
      <trkpt lat="44.12056" lon="1.85051">
        <ele>233</ele>
        <time>2012-12-29T08:58:18.999Z</time>
      </trkpt>
      <trkpt lat="44.12054" lon="1.85047">
        <ele>233</ele>
        <time>2012-12-29T08:58:19.999Z</time>
      </trkpt>
      <trkpt lat="44.12053" lon="1.85043">
        <ele>232.9</ele>
        <time>2012-12-29T08:58:20.999Z</time>
      </trkpt>
      <trkpt lat="44.12052" lon="1.85041">
        <ele>232.8</ele>
        <time>2012-12-29T08:58:21.999Z</time>
      </trkpt>
      <trkpt lat="44.1205" lon="1.85037">
        <ele>232.7</ele>
        <time>2012-12-29T08:58:22.999Z</time>
      </trkpt>
      <trkpt lat="44.12048" lon="1.85033">
        <ele>232.6</ele>
        <time>2012-12-29T08:58:23.999Z</time>
      </trkpt>
      <trkpt lat="44.12046" lon="1.85029">
        <ele>232.5</ele>
        <time>2012-12-29T08:58:24.999Z</time>
      </trkpt>
      <trkpt lat="44.12045" lon="1.85025">
        <ele>232.3</ele>
        <time>2012-12-29T08:58:25.999Z</time>
      </trkpt>
      <trkpt lat="44.12043" lon="1.85022">
        <ele>232.1</ele>
        <time>2012-12-29T08:58:26.999Z</time>
      </trkpt>
      <trkpt lat="44.12042" lon="1.85017">
        <ele>232</ele>
        <time>2012-12-29T08:58:27.999Z</time>
      </trkpt>
      <trkpt lat="44.1204" lon="1.85013">
        <ele>231.8</ele>
        <time>2012-12-29T08:58:28.999Z</time>
      </trkpt>
      <trkpt lat="44.12038" lon="1.85009">
        <ele>231.5</ele>
        <time>2012-12-29T08:58:30.999Z</time>
      </trkpt>
      <trkpt lat="44.12036" lon="1.85008">
        <ele>231.4</ele>
        <time>2012-12-29T08:58:31.999Z</time>
      </trkpt>
      <trkpt lat="44.12032" lon="1.85006">
        <ele>231.1</ele>
        <time>2012-12-29T08:58:33.999Z</time>
      </trkpt>
      <trkpt lat="44.12031" lon="1.85005">
        <ele>231.1</ele>
        <time>2012-12-29T08:58:34.999Z</time>
      </trkpt>
      <trkpt lat="44.12029" lon="1.85003">
        <ele>231</ele>
        <time>2012-12-29T08:58:35.999Z</time>
      </trkpt>
      <trkpt lat="44.12027" lon="1.85002">
        <ele>231</ele>
        <time>2012-12-29T08:58:36.999Z</time>
      </trkpt>
      <trkpt lat="44.12023" lon="1.84999">
        <ele>230.8</ele>
        <time>2012-12-29T08:58:38.999Z</time>
      </trkpt>
      <trkpt lat="44.12021" lon="1.84997">
        <ele>230.7</ele>
        <time>2012-12-29T08:58:39.999Z</time>
      </trkpt>
      <trkpt lat="44.12018" lon="1.84994">
        <ele>230.6</ele>
        <time>2012-12-29T08:58:40.999Z</time>
      </trkpt>
      <trkpt lat="44.12015" lon="1.84992">
        <ele>230.6</ele>
        <time>2012-12-29T08:58:41.999Z</time>
      </trkpt>
      <trkpt lat="44.12012" lon="1.84989">
        <ele>230.6</ele>
        <time>2012-12-29T08:58:42.999Z</time>
      </trkpt>
      <trkpt lat="44.12009" lon="1.84985">
        <ele>230.7</ele>
        <time>2012-12-29T08:58:43.999Z</time>
      </trkpt>
      <trkpt lat="44.12005" lon="1.84982">
        <ele>230.9</ele>
        <time>2012-12-29T08:58:44.999Z</time>
      </trkpt>
      <trkpt lat="44.12002" lon="1.84979">
        <ele>231</ele>
        <time>2012-12-29T08:58:45.999Z</time>
      </trkpt>
      <trkpt lat="44.11998" lon="1.84976">
        <ele>231.2</ele>
        <time>2012-12-29T08:58:46.999Z</time>
      </trkpt>
      <trkpt lat="44.11993" lon="1.84975">
        <ele>231.4</ele>
        <time>2012-12-29T08:58:47.999Z</time>
      </trkpt>
      <trkpt lat="44.1199" lon="1.84974">
        <ele>231.6</ele>
        <time>2012-12-29T08:58:48.999Z</time>
      </trkpt>
      <trkpt lat="44.11987" lon="1.84971">
        <ele>231.9</ele>
        <time>2012-12-29T08:58:49.999Z</time>
      </trkpt>
      <trkpt lat="44.11984" lon="1.84969">
        <ele>232.1</ele>
        <time>2012-12-29T08:58:50.999Z</time>
      </trkpt>
      <trkpt lat="44.11982" lon="1.84967">
        <ele>232.3</ele>
        <time>2012-12-29T08:58:51.999Z</time>
      </trkpt>
      <trkpt lat="44.11979" lon="1.84965">
        <ele>232.5</ele>
        <time>2012-12-29T08:58:52.999Z</time>
      </trkpt>
      <trkpt lat="44.11976" lon="1.84964">
        <ele>232.7</ele>
        <time>2012-12-29T08:58:53.999Z</time>
      </trkpt>
      <trkpt lat="44.11974" lon="1.84963">
        <ele>232.9</ele>
        <time>2012-12-29T08:58:54.999Z</time>
      </trkpt>
      <trkpt lat="44.11971" lon="1.84961">
        <ele>233</ele>
        <time>2012-12-29T08:58:55.999Z</time>
      </trkpt>
      <trkpt lat="44.11969" lon="1.84959">
        <ele>233.2</ele>
        <time>2012-12-29T08:58:56.999Z</time>
      </trkpt>
      <trkpt lat="44.11967" lon="1.84957">
        <ele>233.3</ele>
        <time>2012-12-29T08:58:57.999Z</time>
      </trkpt>
      <trkpt lat="44.11964" lon="1.84956">
        <ele>233.4</ele>
        <time>2012-12-29T08:58:58.999Z</time>
      </trkpt>
      <trkpt lat="44.11962" lon="1.84954">
        <ele>233.6</ele>
        <time>2012-12-29T08:58:59.999Z</time>
      </trkpt>
      <trkpt lat="44.11959" lon="1.84953">
        <ele>233.8</ele>
        <time>2012-12-29T08:59:00.999Z</time>
      </trkpt>
      <trkpt lat="44.11957" lon="1.84952">
        <ele>233.9</ele>
        <time>2012-12-29T08:59:01.999Z</time>
      </trkpt>
      <trkpt lat="44.11954" lon="1.8495">
        <ele>234.1</ele>
        <time>2012-12-29T08:59:02.999Z</time>
      </trkpt>
      <trkpt lat="44.11951" lon="1.84949">
        <ele>234.3</ele>
        <time>2012-12-29T08:59:03.999Z</time>
      </trkpt>
      <trkpt lat="44.11949" lon="1.84947">
        <ele>234.4</ele>
        <time>2012-12-29T08:59:04.999Z</time>
      </trkpt>
      <trkpt lat="44.11947" lon="1.84944">
        <ele>234.6</ele>
        <time>2012-12-29T08:59:05.999Z</time>
      </trkpt>
      <trkpt lat="44.11945" lon="1.84942">
        <ele>234.8</ele>
        <time>2012-12-29T08:59:06.999Z</time>
      </trkpt>
      <trkpt lat="44.11943" lon="1.84939">
        <ele>235</ele>
        <time>2012-12-29T08:59:07.999Z</time>
      </trkpt>
      <trkpt lat="44.11941" lon="1.84935">
        <ele>235.2</ele>
        <time>2012-12-29T08:59:08.999Z</time>
      </trkpt>
      <trkpt lat="44.1194" lon="1.84931">
        <ele>235.5</ele>
        <time>2012-12-29T08:59:09.999Z</time>
      </trkpt>
      <trkpt lat="44.11939" lon="1.84929">
        <ele>235.7</ele>
        <time>2012-12-29T08:59:10.999Z</time>
      </trkpt>
      <trkpt lat="44.11937" lon="1.84926">
        <ele>235.9</ele>
        <time>2012-12-29T08:59:11.999Z</time>
      </trkpt>
      <trkpt lat="44.11936" lon="1.84923">
        <ele>236.1</ele>
        <time>2012-12-29T08:59:12.999Z</time>
      </trkpt>
      <trkpt lat="44.11935" lon="1.84919">
        <ele>236.3</ele>
        <time>2012-12-29T08:59:13.999Z</time>
      </trkpt>
      <trkpt lat="44.11934" lon="1.84914">
        <ele>236.4</ele>
        <time>2012-12-29T08:59:14.999Z</time>
      </trkpt>
      <trkpt lat="44.11933" lon="1.84911">
        <ele>236.5</ele>
        <time>2012-12-29T08:59:15.999Z</time>
      </trkpt>
      <trkpt lat="44.11933" lon="1.84908">
        <ele>236.6</ele>
        <time>2012-12-29T08:59:16.999Z</time>
      </trkpt>
      <trkpt lat="44.11931" lon="1.84904">
        <ele>236.7</ele>
        <time>2012-12-29T08:59:17.999Z</time>
      </trkpt>
      <trkpt lat="44.1193" lon="1.84901">
        <ele>236.8</ele>
        <time>2012-12-29T08:59:18.999Z</time>
      </trkpt>
      <trkpt lat="44.11929" lon="1.84897">
        <ele>236.9</ele>
        <time>2012-12-29T08:59:19.999Z</time>
      </trkpt>
      <trkpt lat="44.11929" lon="1.84893">
        <ele>237.1</ele>
        <time>2012-12-29T08:59:20.999Z</time>
      </trkpt>
      <trkpt lat="44.11928" lon="1.84888">
        <ele>237.2</ele>
        <time>2012-12-29T08:59:21.999Z</time>
      </trkpt>
      <trkpt lat="44.11927" lon="1.84884">
        <ele>237.2</ele>
        <time>2012-12-29T08:59:22.999Z</time>
      </trkpt>
      <trkpt lat="44.11925" lon="1.84879">
        <ele>237.2</ele>
        <time>2012-12-29T08:59:23.999Z</time>
      </trkpt>
      <trkpt lat="44.11923" lon="1.84875">
        <ele>237.2</ele>
        <time>2012-12-29T08:59:24.999Z</time>
      </trkpt>
      <trkpt lat="44.11919" lon="1.84873">
        <ele>237.2</ele>
        <time>2012-12-29T08:59:25.999Z</time>
      </trkpt>
      <trkpt lat="44.11916" lon="1.84871">
        <ele>237.2</ele>
        <time>2012-12-29T08:59:26.999Z</time>
      </trkpt>
      <trkpt lat="44.11912" lon="1.8487">
        <ele>237.2</ele>
        <time>2012-12-29T08:59:27.999Z</time>
      </trkpt>
      <trkpt lat="44.11908" lon="1.8487">
        <ele>237.2</ele>
        <time>2012-12-29T08:59:28.999Z</time>
      </trkpt>
      <trkpt lat="44.11904" lon="1.8487">
        <ele>237.3</ele>
        <time>2012-12-29T08:59:29.999Z</time>
      </trkpt>
      <trkpt lat="44.11901" lon="1.84871">
        <ele>237.3</ele>
        <time>2012-12-29T08:59:30.999Z</time>
      </trkpt>
      <trkpt lat="44.11897" lon="1.84871">
        <ele>237.6</ele>
        <time>2012-12-29T08:59:33.999Z</time>
      </trkpt>
      <trkpt lat="44.11896" lon="1.84872">
        <ele>237.7</ele>
        <time>2012-12-29T08:59:34.999Z</time>
      </trkpt>
      <trkpt lat="44.11892" lon="1.84872">
        <ele>238.1</ele>
        <time>2012-12-29T08:59:38.999Z</time>
      </trkpt>
      <trkpt lat="44.1189" lon="1.84872">
        <ele>238.3</ele>
        <time>2012-12-29T08:59:39.999Z</time>
      </trkpt>
      <trkpt lat="44.1189" lon="1.84866">
        <ele>241.8</ele>
        <time>2012-12-29T09:00:10.999Z</time>
      </trkpt>
      <trkpt lat="44.1189" lon="1.84865">
        <ele>241.8</ele>
        <time>2012-12-29T09:00:11.999Z</time>
      </trkpt>
      <trkpt lat="44.11888" lon="1.84859">
        <ele>241.8</ele>
        <time>2012-12-29T09:00:14.999Z</time>
      </trkpt>
      <trkpt lat="44.11888" lon="1.84857">
        <ele>241.9</ele>
        <time>2012-12-29T09:00:15.999Z</time>
      </trkpt>
      <trkpt lat="44.11891" lon="1.84861">
        <ele>247.5</ele>
        <time>2012-12-29T09:01:29.999Z</time>
      </trkpt>
      <trkpt lat="44.11892" lon="1.84861">
        <ele>247.6</ele>
        <time>2012-12-29T09:01:30.999Z</time>
      </trkpt>
      <trkpt lat="44.11894" lon="1.84865">
        <ele>248</ele>
        <time>2012-12-29T09:01:39.999Z</time>
      </trkpt>
      <trkpt lat="44.11894" lon="1.84868">
        <ele>248</ele>
        <time>2012-12-29T09:01:40.999Z</time>
      </trkpt>
      <trkpt lat="44.11895" lon="1.84871">
        <ele>248.4</ele>
        <time>2012-12-29T09:01:48.999Z</time>
      </trkpt>
      <trkpt lat="44.11895" lon="1.84874">
        <ele>248.6</ele>
        <time>2012-12-29T09:01:49.999Z</time>
      </trkpt>
      <trkpt lat="44.11891" lon="1.84878">
        <ele>249</ele>
        <time>2012-12-29T09:02:01.999Z</time>
      </trkpt>
      <trkpt lat="44.11891" lon="1.84878">
        <ele>249</ele>
        <time>2012-12-29T09:02:02.999Z</time>
      </trkpt>
      <trkpt lat="44.11891" lon="1.84873">
        <ele>249.1</ele>
        <time>2012-12-29T09:02:08.999Z</time>
      </trkpt>
      <trkpt lat="44.11892" lon="1.84871">
        <ele>249.1</ele>
        <time>2012-12-29T09:02:09.999Z</time>
      </trkpt>
      <trkpt lat="44.11888" lon="1.84873">
        <ele>248.2</ele>
        <time>2012-12-29T09:02:27.999Z</time>
      </trkpt>
      <trkpt lat="44.11887" lon="1.84874">
        <ele>248</ele>
        <time>2012-12-29T09:02:28.999Z</time>
      </trkpt>
      <trkpt lat="44.11885" lon="1.84879">
        <ele>247.7</ele>
        <time>2012-12-29T09:02:34.999Z</time>
      </trkpt>
      <trkpt lat="44.11885" lon="1.8488">
        <ele>247.7</ele>
        <time>2012-12-29T09:02:35.999Z</time>
      </trkpt>
      <trkpt lat="44.11885" lon="1.84875">
        <ele>247.2</ele>
        <time>2012-12-29T09:02:57.999Z</time>
      </trkpt>
      <trkpt lat="44.11885" lon="1.84873">
        <ele>247.2</ele>
        <time>2012-12-29T09:02:58.999Z</time>
      </trkpt>
      <trkpt lat="44.11886" lon="1.84869">
        <ele>247.2</ele>
        <time>2012-12-29T09:03:01.999Z</time>
      </trkpt>
      <trkpt lat="44.11887" lon="1.84868">
        <ele>247.2</ele>
        <time>2012-12-29T09:03:02.999Z</time>
      </trkpt>
      <trkpt lat="44.11891" lon="1.84864">
        <ele>247.1</ele>
        <time>2012-12-29T09:03:05.999Z</time>
      </trkpt>
      <trkpt lat="44.11891" lon="1.84863">
        <ele>247.1</ele>
        <time>2012-12-29T09:03:06.999Z</time>
      </trkpt>
      <trkpt lat="44.11894" lon="1.84859">
        <ele>247.1</ele>
        <time>2012-12-29T09:03:12.999Z</time>
      </trkpt>
      <trkpt lat="44.11895" lon="1.84859">
        <ele>247.1</ele>
        <time>2012-12-29T09:03:13.999Z</time>
      </trkpt>
      <trkpt lat="44.11894" lon="1.84865">
        <ele>247</ele>
        <time>2012-12-29T09:03:30.999Z</time>
      </trkpt>
      <trkpt lat="44.11894" lon="1.84865">
        <ele>247</ele>
        <time>2012-12-29T09:03:31.999Z</time>
      </trkpt>
      <trkpt lat="44.11893" lon="1.84871">
        <ele>247.3</ele>
        <time>2012-12-29T09:04:17.999Z</time>
      </trkpt>
      <trkpt lat="44.11893" lon="1.84871">
        <ele>247.3</ele>
        <time>2012-12-29T09:04:18.999Z</time>
      </trkpt>
      <trkpt lat="44.11897" lon="1.8487">
        <ele>248.8</ele>
        <time>2012-12-29T09:04:56.999Z</time>
      </trkpt>
      <trkpt lat="44.11898" lon="1.8487">
        <ele>248.9</ele>
        <time>2012-12-29T09:04:57.999Z</time>
      </trkpt>
      <trkpt lat="44.11901" lon="1.84874">
        <ele>248.3</ele>
        <time>2012-12-29T09:05:29.999Z</time>
      </trkpt>
      <trkpt lat="44.11901" lon="1.84874">
        <ele>248.3</ele>
        <time>2012-12-29T09:05:30.999Z</time>
      </trkpt>
      <trkpt lat="44.11898" lon="1.8487">
        <ele>248.1</ele>
        <time>2012-12-29T09:06:24.999Z</time>
      </trkpt>
      <trkpt lat="44.11898" lon="1.84869">
        <ele>248.1</ele>
        <time>2012-12-29T09:06:25.999Z</time>
      </trkpt>
      <trkpt lat="44.11896" lon="1.84874">
        <ele>248.3</ele>
        <time>2012-12-29T09:06:48.999Z</time>
      </trkpt>
      <trkpt lat="44.11896" lon="1.84874">
        <ele>248.3</ele>
        <time>2012-12-29T09:06:49.999Z</time>
      </trkpt>
      <trkpt lat="44.11893" lon="1.84872">
        <ele>247.4</ele>
        <time>2012-12-29T09:07:10.000Z</time>
      </trkpt>
      <trkpt lat="44.11891" lon="1.84868">
        <ele>247.4</ele>
        <time>2012-12-29T09:07:11.000Z</time>
      </trkpt>
      <trkpt lat="44.11888" lon="1.84864">
        <ele>247.5</ele>
        <time>2012-12-29T09:07:13.000Z</time>
      </trkpt>
      <trkpt lat="44.11888" lon="1.84863">
        <ele>247.6</ele>
        <time>2012-12-29T09:07:14.000Z</time>
      </trkpt>
      <trkpt lat="44.11887" lon="1.84857">
        <ele>250.4</ele>
        <time>2012-12-29T09:08:04.000Z</time>
      </trkpt>
      <trkpt lat="44.11889" lon="1.84856">
        <ele>250.6</ele>
        <time>2012-12-29T09:08:05.000Z</time>
      </trkpt>
      <trkpt lat="44.11885" lon="1.84852">
        <ele>251.3</ele>
        <time>2012-12-29T09:08:10.000Z</time>
      </trkpt>
      <trkpt lat="44.11884" lon="1.84852">
        <ele>251.4</ele>
        <time>2012-12-29T09:08:11.000Z</time>
      </trkpt>
      <trkpt lat="44.1188" lon="1.84853">
        <ele>251.6</ele>
        <time>2012-12-29T09:08:14.000Z</time>
      </trkpt>
      <trkpt lat="44.11879" lon="1.84855">
        <ele>251.7</ele>
        <time>2012-12-29T09:08:15.000Z</time>
      </trkpt>
      <trkpt lat="44.11876" lon="1.84856">
        <ele>251.8</ele>
        <time>2012-12-29T09:08:17.000Z</time>
      </trkpt>
      <trkpt lat="44.11874" lon="1.84857">
        <ele>251.8</ele>
        <time>2012-12-29T09:08:18.000Z</time>
      </trkpt>
      <trkpt lat="44.1187" lon="1.84857">
        <ele>251.9</ele>
        <time>2012-12-29T09:08:21.000Z</time>
      </trkpt>
      <trkpt lat="44.11869" lon="1.84856">
        <ele>251.9</ele>
        <time>2012-12-29T09:08:22.000Z</time>
      </trkpt>
      <trkpt lat="44.11866" lon="1.84856">
        <ele>252</ele>
        <time>2012-12-29T09:08:24.000Z</time>
      </trkpt>
      <trkpt lat="44.11864" lon="1.84855">
        <ele>252.1</ele>
        <time>2012-12-29T09:08:25.000Z</time>
      </trkpt>
      <trkpt lat="44.1186" lon="1.84855">
        <ele>252.2</ele>
        <time>2012-12-29T09:08:27.000Z</time>
      </trkpt>
      <trkpt lat="44.11859" lon="1.84855">
        <ele>252.3</ele>
        <time>2012-12-29T09:08:28.000Z</time>
      </trkpt>
      <trkpt lat="44.11854" lon="1.84856">
        <ele>252.4</ele>
        <time>2012-12-29T09:08:30.000Z</time>
      </trkpt>
      <trkpt lat="44.11852" lon="1.84856">
        <ele>252.4</ele>
        <time>2012-12-29T09:08:31.000Z</time>
      </trkpt>
      <trkpt lat="44.11849" lon="1.84856">
        <ele>252.4</ele>
        <time>2012-12-29T09:08:33.000Z</time>
      </trkpt>
      <trkpt lat="44.11848" lon="1.84856">
        <ele>252.4</ele>
        <time>2012-12-29T09:08:34.000Z</time>
      </trkpt>
      <trkpt lat="44.11844" lon="1.84856">
        <ele>252.5</ele>
        <time>2012-12-29T09:08:37.000Z</time>
      </trkpt>
      <trkpt lat="44.11843" lon="1.84856">
        <ele>252.5</ele>
        <time>2012-12-29T09:08:38.000Z</time>
      </trkpt>
      <trkpt lat="44.11839" lon="1.84855">
        <ele>252.7</ele>
        <time>2012-12-29T09:08:41.000Z</time>
      </trkpt>
      <trkpt lat="44.11838" lon="1.84855">
        <ele>252.7</ele>
        <time>2012-12-29T09:08:42.000Z</time>
      </trkpt>
      <trkpt lat="44.11833" lon="1.84854">
        <ele>252.9</ele>
        <time>2012-12-29T09:08:44.000Z</time>
      </trkpt>
      <trkpt lat="44.11832" lon="1.84854">
        <ele>253</ele>
        <time>2012-12-29T09:08:45.000Z</time>
      </trkpt>
      <trkpt lat="44.11828" lon="1.84854">
        <ele>253.3</ele>
        <time>2012-12-29T09:08:48.000Z</time>
      </trkpt>
      <trkpt lat="44.11827" lon="1.84854">
        <ele>253.4</ele>
        <time>2012-12-29T09:08:49.000Z</time>
      </trkpt>
      <trkpt lat="44.11823" lon="1.84854">
        <ele>253.4</ele>
        <time>2012-12-29T09:08:51.000Z</time>
      </trkpt>
      <trkpt lat="44.11821" lon="1.84854">
        <ele>253.4</ele>
        <time>2012-12-29T09:08:52.000Z</time>
      </trkpt>
      <trkpt lat="44.11818" lon="1.84853">
        <ele>253.3</ele>
        <time>2012-12-29T09:08:54.000Z</time>
      </trkpt>
      <trkpt lat="44.11817" lon="1.84852">
        <ele>253.4</ele>
        <time>2012-12-29T09:08:55.000Z</time>
      </trkpt>
      <trkpt lat="44.11814" lon="1.84849">
        <ele>253.4</ele>
        <time>2012-12-29T09:08:57.000Z</time>
      </trkpt>
      <trkpt lat="44.11813" lon="1.84849">
        <ele>253.4</ele>
        <time>2012-12-29T09:08:58.000Z</time>
      </trkpt>
      <trkpt lat="44.1181" lon="1.84847">
        <ele>253.3</ele>
        <time>2012-12-29T09:09:00.000Z</time>
      </trkpt>
      <trkpt lat="44.11808" lon="1.84846">
        <ele>253.3</ele>
        <time>2012-12-29T09:09:01.000Z</time>
      </trkpt>
      <trkpt lat="44.11805" lon="1.84844">
        <ele>253.1</ele>
        <time>2012-12-29T09:09:03.000Z</time>
      </trkpt>
      <trkpt lat="44.11803" lon="1.84844">
        <ele>252.9</ele>
        <time>2012-12-29T09:09:04.000Z</time>
      </trkpt>
      <trkpt lat="44.118" lon="1.84842">
        <ele>252.7</ele>
        <time>2012-12-29T09:09:06.000Z</time>
      </trkpt>
      <trkpt lat="44.11798" lon="1.84841">
        <ele>252.6</ele>
        <time>2012-12-29T09:09:07.000Z</time>
      </trkpt>
      <trkpt lat="44.11795" lon="1.84839">
        <ele>252.6</ele>
        <time>2012-12-29T09:09:09.000Z</time>
      </trkpt>
      <trkpt lat="44.11794" lon="1.84838">
        <ele>252.6</ele>
        <time>2012-12-29T09:09:10.000Z</time>
      </trkpt>
      <trkpt lat="44.11792" lon="1.84836">
        <ele>252.7</ele>
        <time>2012-12-29T09:09:11.000Z</time>
      </trkpt>
      <trkpt lat="44.1179" lon="1.84834">
        <ele>252.7</ele>
        <time>2012-12-29T09:09:12.000Z</time>
      </trkpt>
      <trkpt lat="44.11786" lon="1.84831">
        <ele>252.8</ele>
        <time>2012-12-29T09:09:14.000Z</time>
      </trkpt>
      <trkpt lat="44.11785" lon="1.84829">
        <ele>252.9</ele>
        <time>2012-12-29T09:09:15.000Z</time>
      </trkpt>
      <trkpt lat="44.11782" lon="1.84826">
        <ele>253.2</ele>
        <time>2012-12-29T09:09:17.000Z</time>
      </trkpt>
      <trkpt lat="44.1178" lon="1.84824">
        <ele>253.4</ele>
        <time>2012-12-29T09:09:18.000Z</time>
      </trkpt>
      <trkpt lat="44.11778" lon="1.84822">
        <ele>253.5</ele>
        <time>2012-12-29T09:09:19.000Z</time>
      </trkpt>
      <trkpt lat="44.11776" lon="1.8482">
        <ele>253.7</ele>
        <time>2012-12-29T09:09:20.000Z</time>
      </trkpt>
      <trkpt lat="44.11773" lon="1.84816">
        <ele>253.9</ele>
        <time>2012-12-29T09:09:22.000Z</time>
      </trkpt>
      <trkpt lat="44.11771" lon="1.84815">
        <ele>254</ele>
        <time>2012-12-29T09:09:23.000Z</time>
      </trkpt>
      <trkpt lat="44.11768" lon="1.84812">
        <ele>254.2</ele>
        <time>2012-12-29T09:09:25.000Z</time>
      </trkpt>
      <trkpt lat="44.11767" lon="1.8481">
        <ele>254.3</ele>
        <time>2012-12-29T09:09:26.000Z</time>
      </trkpt>
      <trkpt lat="44.11764" lon="1.84805">
        <ele>254.4</ele>
        <time>2012-12-29T09:09:29.000Z</time>
      </trkpt>
      <trkpt lat="44.11763" lon="1.84803">
        <ele>254.5</ele>
        <time>2012-12-29T09:09:30.000Z</time>
      </trkpt>
      <trkpt lat="44.11761" lon="1.848">
        <ele>254.7</ele>
        <time>2012-12-29T09:09:32.000Z</time>
      </trkpt>
      <trkpt lat="44.11759" lon="1.84798">
        <ele>254.8</ele>
        <time>2012-12-29T09:09:33.000Z</time>
      </trkpt>
      <trkpt lat="44.11757" lon="1.84794">
        <ele>254.9</ele>
        <time>2012-12-29T09:09:35.000Z</time>
      </trkpt>
      <trkpt lat="44.11756" lon="1.84792">
        <ele>255</ele>
        <time>2012-12-29T09:09:36.000Z</time>
      </trkpt>
      <trkpt lat="44.11753" lon="1.84788">
        <ele>254.9</ele>
        <time>2012-12-29T09:09:38.000Z</time>
      </trkpt>
      <trkpt lat="44.11751" lon="1.84786">
        <ele>254.8</ele>
        <time>2012-12-29T09:09:39.000Z</time>
      </trkpt>
      <trkpt lat="44.11748" lon="1.84782">
        <ele>254.7</ele>
        <time>2012-12-29T09:09:41.000Z</time>
      </trkpt>
      <trkpt lat="44.11747" lon="1.8478">
        <ele>254.6</ele>
        <time>2012-12-29T09:09:42.000Z</time>
      </trkpt>
      <trkpt lat="44.11744" lon="1.84777">
        <ele>254.5</ele>
        <time>2012-12-29T09:09:44.000Z</time>
      </trkpt>
      <trkpt lat="44.11743" lon="1.84775">
        <ele>254.3</ele>
        <time>2012-12-29T09:09:45.000Z</time>
      </trkpt>
      <trkpt lat="44.1174" lon="1.84772">
        <ele>254.2</ele>
        <time>2012-12-29T09:09:47.000Z</time>
      </trkpt>
      <trkpt lat="44.11739" lon="1.8477">
        <ele>254.1</ele>
        <time>2012-12-29T09:09:48.000Z</time>
      </trkpt>
      <trkpt lat="44.11738" lon="1.84764">
        <ele>254</ele>
        <time>2012-12-29T09:09:51.000Z</time>
      </trkpt>
      <trkpt lat="44.11737" lon="1.84762">
        <ele>253.9</ele>
        <time>2012-12-29T09:09:52.000Z</time>
      </trkpt>
      <trkpt lat="44.11736" lon="1.84759">
        <ele>253.9</ele>
        <time>2012-12-29T09:09:53.000Z</time>
      </trkpt>
      <trkpt lat="44.11734" lon="1.84757">
        <ele>254</ele>
        <time>2012-12-29T09:09:54.000Z</time>
      </trkpt>
      <trkpt lat="44.11731" lon="1.84753">
        <ele>254.1</ele>
        <time>2012-12-29T09:09:56.000Z</time>
      </trkpt>
      <trkpt lat="44.1173" lon="1.84751">
        <ele>254.1</ele>
        <time>2012-12-29T09:09:57.000Z</time>
      </trkpt>
      <trkpt lat="44.11727" lon="1.84747">
        <ele>254.3</ele>
        <time>2012-12-29T09:09:59.000Z</time>
      </trkpt>
      <trkpt lat="44.11726" lon="1.84746">
        <ele>254.3</ele>
        <time>2012-12-29T09:10:00.000Z</time>
      </trkpt>
      <trkpt lat="44.11723" lon="1.84743">
        <ele>254.5</ele>
        <time>2012-12-29T09:10:02.000Z</time>
      </trkpt>
      <trkpt lat="44.11722" lon="1.84742">
        <ele>254.7</ele>
        <time>2012-12-29T09:10:03.000Z</time>
      </trkpt>
      <trkpt lat="44.11719" lon="1.84738">
        <ele>255</ele>
        <time>2012-12-29T09:10:05.000Z</time>
      </trkpt>
      <trkpt lat="44.11718" lon="1.84737">
        <ele>255.2</ele>
        <time>2012-12-29T09:10:06.000Z</time>
      </trkpt>
      <trkpt lat="44.11715" lon="1.84733">
        <ele>255.9</ele>
        <time>2012-12-29T09:10:09.000Z</time>
      </trkpt>
      <trkpt lat="44.11713" lon="1.84732">
        <ele>256</ele>
        <time>2012-12-29T09:10:10.000Z</time>
      </trkpt>
      <trkpt lat="44.11708" lon="1.84729">
        <ele>256.8</ele>
        <time>2012-12-29T09:10:13.000Z</time>
      </trkpt>
      <trkpt lat="44.11708" lon="1.84728">
        <ele>257.1</ele>
        <time>2012-12-29T09:10:14.000Z</time>
      </trkpt>
      <trkpt lat="44.11705" lon="1.84724">
        <ele>257.9</ele>
        <time>2012-12-29T09:10:17.000Z</time>
      </trkpt>
      <trkpt lat="44.11705" lon="1.84723">
        <ele>258.2</ele>
        <time>2012-12-29T09:10:18.000Z</time>
      </trkpt>
      <trkpt lat="44.11702" lon="1.8472">
        <ele>259.1</ele>
        <time>2012-12-29T09:10:21.000Z</time>
      </trkpt>
      <trkpt lat="44.11701" lon="1.84717">
        <ele>259.4</ele>
        <time>2012-12-29T09:10:22.000Z</time>
      </trkpt>
      <trkpt lat="44.11697" lon="1.84714">
        <ele>260</ele>
        <time>2012-12-29T09:10:24.000Z</time>
      </trkpt>
      <trkpt lat="44.11696" lon="1.84712">
        <ele>260.2</ele>
        <time>2012-12-29T09:10:25.000Z</time>
      </trkpt>
      <trkpt lat="44.11693" lon="1.84709">
        <ele>261</ele>
        <time>2012-12-29T09:10:28.000Z</time>
      </trkpt>
      <trkpt lat="44.11692" lon="1.84708">
        <ele>261.3</ele>
        <time>2012-12-29T09:10:29.000Z</time>
      </trkpt>
      <trkpt lat="44.11688" lon="1.84706">
        <ele>262</ele>
        <time>2012-12-29T09:10:32.000Z</time>
      </trkpt>
      <trkpt lat="44.11687" lon="1.84706">
        <ele>262.2</ele>
        <time>2012-12-29T09:10:33.000Z</time>
      </trkpt>
      <trkpt lat="44.11683" lon="1.84703">
        <ele>262.8</ele>
        <time>2012-12-29T09:10:36.000Z</time>
      </trkpt>
      <trkpt lat="44.11681" lon="1.84703">
        <ele>263</ele>
        <time>2012-12-29T09:10:37.000Z</time>
      </trkpt>
      <trkpt lat="44.11677" lon="1.84702">
        <ele>263.8</ele>
        <time>2012-12-29T09:10:41.000Z</time>
      </trkpt>
      <trkpt lat="44.11676" lon="1.84702">
        <ele>264</ele>
        <time>2012-12-29T09:10:42.000Z</time>
      </trkpt>
      <trkpt lat="44.11672" lon="1.84701">
        <ele>264.2</ele>
        <time>2012-12-29T09:10:44.000Z</time>
      </trkpt>
      <trkpt lat="44.11671" lon="1.847">
        <ele>264.2</ele>
        <time>2012-12-29T09:10:45.000Z</time>
      </trkpt>
      <trkpt lat="44.11667" lon="1.84699">
        <ele>264.4</ele>
        <time>2012-12-29T09:10:48.000Z</time>
      </trkpt>
      <trkpt lat="44.11666" lon="1.84698">
        <ele>264.5</ele>
        <time>2012-12-29T09:10:49.000Z</time>
      </trkpt>
      <trkpt lat="44.11662" lon="1.84695">
        <ele>264.8</ele>
        <time>2012-12-29T09:10:52.000Z</time>
      </trkpt>
      <trkpt lat="44.11661" lon="1.84695">
        <ele>264.9</ele>
        <time>2012-12-29T09:10:53.000Z</time>
      </trkpt>
      <trkpt lat="44.11658" lon="1.84693">
        <ele>265.5</ele>
        <time>2012-12-29T09:10:56.000Z</time>
      </trkpt>
      <trkpt lat="44.11657" lon="1.84693">
        <ele>265.7</ele>
        <time>2012-12-29T09:10:57.000Z</time>
      </trkpt>
      <trkpt lat="44.11654" lon="1.84692">
        <ele>266.2</ele>
        <time>2012-12-29T09:11:00.000Z</time>
      </trkpt>
      <trkpt lat="44.11652" lon="1.84691">
        <ele>266.4</ele>
        <time>2012-12-29T09:11:01.000Z</time>
      </trkpt>
      <trkpt lat="44.11649" lon="1.84688">
        <ele>267</ele>
        <time>2012-12-29T09:11:04.000Z</time>
      </trkpt>
      <trkpt lat="44.11648" lon="1.84687">
        <ele>267.2</ele>
        <time>2012-12-29T09:11:05.000Z</time>
      </trkpt>
      <trkpt lat="44.11645" lon="1.84685">
        <ele>268.1</ele>
        <time>2012-12-29T09:11:08.000Z</time>
      </trkpt>
      <trkpt lat="44.11644" lon="1.84684">
        <ele>268.3</ele>
        <time>2012-12-29T09:11:09.000Z</time>
      </trkpt>
      <trkpt lat="44.1164" lon="1.84681">
        <ele>269.4</ele>
        <time>2012-12-29T09:11:13.000Z</time>
      </trkpt>
      <trkpt lat="44.11638" lon="1.84681">
        <ele>269.7</ele>
        <time>2012-12-29T09:11:14.000Z</time>
      </trkpt>
      <trkpt lat="44.11635" lon="1.84677">
        <ele>271</ele>
        <time>2012-12-29T09:11:19.000Z</time>
      </trkpt>
      <trkpt lat="44.11634" lon="1.84676">
        <ele>271.4</ele>
        <time>2012-12-29T09:11:20.000Z</time>
      </trkpt>
      <trkpt lat="44.11631" lon="1.84673">
        <ele>273</ele>
        <time>2012-12-29T09:11:25.000Z</time>
      </trkpt>
      <trkpt lat="44.11629" lon="1.84672">
        <ele>273.3</ele>
        <time>2012-12-29T09:11:26.000Z</time>
      </trkpt>
      <trkpt lat="44.11627" lon="1.84669">
        <ele>274.3</ele>
        <time>2012-12-29T09:11:29.000Z</time>
      </trkpt>
      <trkpt lat="44.11626" lon="1.84668">
        <ele>274.6</ele>
        <time>2012-12-29T09:11:30.000Z</time>
      </trkpt>
      <trkpt lat="44.11622" lon="1.84665">
        <ele>275.5</ele>
        <time>2012-12-29T09:11:33.000Z</time>
      </trkpt>
      <trkpt lat="44.11621" lon="1.84664">
        <ele>275.7</ele>
        <time>2012-12-29T09:11:34.000Z</time>
      </trkpt>
      <trkpt lat="44.11617" lon="1.84662">
        <ele>276.4</ele>
        <time>2012-12-29T09:11:37.000Z</time>
      </trkpt>
      <trkpt lat="44.11617" lon="1.84661">
        <ele>276.7</ele>
        <time>2012-12-29T09:11:38.000Z</time>
      </trkpt>
      <trkpt lat="44.11613" lon="1.84658">
        <ele>277.6</ele>
        <time>2012-12-29T09:11:43.000Z</time>
      </trkpt>
      <trkpt lat="44.11612" lon="1.84658">
        <ele>277.8</ele>
        <time>2012-12-29T09:11:44.000Z</time>
      </trkpt>
      <trkpt lat="44.1161" lon="1.84652">
        <ele>278.3</ele>
        <time>2012-12-29T09:11:49.000Z</time>
      </trkpt>
      <trkpt lat="44.1161" lon="1.84651">
        <ele>278.4</ele>
        <time>2012-12-29T09:11:50.000Z</time>
      </trkpt>
      <trkpt lat="44.1161" lon="1.84646">
        <ele>278.8</ele>
        <time>2012-12-29T09:11:54.000Z</time>
      </trkpt>
      <trkpt lat="44.1161" lon="1.84644">
        <ele>278.9</ele>
        <time>2012-12-29T09:11:55.000Z</time>
      </trkpt>
      <trkpt lat="44.11609" lon="1.84639">
        <ele>279.3</ele>
        <time>2012-12-29T09:11:59.000Z</time>
      </trkpt>
      <trkpt lat="44.11609" lon="1.84638">
        <ele>279.3</ele>
        <time>2012-12-29T09:12:00.000Z</time>
      </trkpt>
      <trkpt lat="44.1161" lon="1.84632">
        <ele>279.2</ele>
        <time>2012-12-29T09:12:05.000Z</time>
      </trkpt>
      <trkpt lat="44.11611" lon="1.8463">
        <ele>279.1</ele>
        <time>2012-12-29T09:12:06.000Z</time>
      </trkpt>
      <trkpt lat="44.11611" lon="1.84625">
        <ele>279</ele>
        <time>2012-12-29T09:12:08.000Z</time>
      </trkpt>
      <trkpt lat="44.11611" lon="1.84623">
        <ele>279</ele>
        <time>2012-12-29T09:12:09.000Z</time>
      </trkpt>
      <trkpt lat="44.11611" lon="1.84618">
        <ele>278.9</ele>
        <time>2012-12-29T09:12:13.000Z</time>
      </trkpt>
      <trkpt lat="44.11611" lon="1.84616">
        <ele>278.9</ele>
        <time>2012-12-29T09:12:14.000Z</time>
      </trkpt>
      <trkpt lat="44.11611" lon="1.8461">
        <ele>279</ele>
        <time>2012-12-29T09:12:19.000Z</time>
      </trkpt>
      <trkpt lat="44.1161" lon="1.84607">
        <ele>279.1</ele>
        <time>2012-12-29T09:12:20.000Z</time>
      </trkpt>
      <trkpt lat="44.11608" lon="1.84603">
        <ele>279.3</ele>
        <time>2012-12-29T09:12:22.000Z</time>
      </trkpt>
      <trkpt lat="44.11607" lon="1.84601">
        <ele>279.5</ele>
        <time>2012-12-29T09:12:23.000Z</time>
      </trkpt>
      <trkpt lat="44.11603" lon="1.84597">
        <ele>280.2</ele>
        <time>2012-12-29T09:12:27.000Z</time>
      </trkpt>
      <trkpt lat="44.11602" lon="1.84596">
        <ele>280.4</ele>
        <time>2012-12-29T09:12:28.000Z</time>
      </trkpt>
      <trkpt lat="44.116" lon="1.84594">
        <ele>280.7</ele>
        <time>2012-12-29T09:12:30.000Z</time>
      </trkpt>
      <trkpt lat="44.11598" lon="1.84592">
        <ele>281</ele>
        <time>2012-12-29T09:12:31.000Z</time>
      </trkpt>
      <trkpt lat="44.11595" lon="1.8459">
        <ele>281.3</ele>
        <time>2012-12-29T09:12:32.000Z</time>
      </trkpt>
      <trkpt lat="44.11593" lon="1.84588">
        <ele>281.6</ele>
        <time>2012-12-29T09:12:33.000Z</time>
      </trkpt>
      <trkpt lat="44.11589" lon="1.84588">
        <ele>282.2</ele>
        <time>2012-12-29T09:12:35.000Z</time>
      </trkpt>
      <trkpt lat="44.11588" lon="1.84588">
        <ele>282.4</ele>
        <time>2012-12-29T09:12:36.000Z</time>
      </trkpt>
      <trkpt lat="44.11584" lon="1.84588">
        <ele>283.1</ele>
        <time>2012-12-29T09:12:38.000Z</time>
      </trkpt>
      <trkpt lat="44.11583" lon="1.84587">
        <ele>283.5</ele>
        <time>2012-12-29T09:12:39.000Z</time>
      </trkpt>
      <trkpt lat="44.11579" lon="1.84587">
        <ele>284.5</ele>
        <time>2012-12-29T09:12:42.000Z</time>
      </trkpt>
      <trkpt lat="44.11578" lon="1.84587">
        <ele>284.9</ele>
        <time>2012-12-29T09:12:43.000Z</time>
      </trkpt>
      <trkpt lat="44.11575" lon="1.84586">
        <ele>286.5</ele>
        <time>2012-12-29T09:12:48.000Z</time>
      </trkpt>
      <trkpt lat="44.11573" lon="1.84585">
        <ele>286.8</ele>
        <time>2012-12-29T09:12:49.000Z</time>
      </trkpt>
      <trkpt lat="44.1157" lon="1.84583">
        <ele>287.9</ele>
        <time>2012-12-29T09:12:53.000Z</time>
      </trkpt>
      <trkpt lat="44.11569" lon="1.84582">
        <ele>288.1</ele>
        <time>2012-12-29T09:12:54.000Z</time>
      </trkpt>
      <trkpt lat="44.11564" lon="1.8458">
        <ele>289.9</ele>
        <time>2012-12-29T09:13:00.000Z</time>
      </trkpt>
      <trkpt lat="44.11564" lon="1.84579">
        <ele>290.2</ele>
        <time>2012-12-29T09:13:01.000Z</time>
      </trkpt>
      <trkpt lat="44.1156" lon="1.84576">
        <ele>292.3</ele>
        <time>2012-12-29T09:13:08.000Z</time>
      </trkpt>
      <trkpt lat="44.11559" lon="1.84575">
        <ele>292.6</ele>
        <time>2012-12-29T09:13:09.000Z</time>
      </trkpt>
      <trkpt lat="44.11556" lon="1.84571">
        <ele>293.6</ele>
        <time>2012-12-29T09:13:13.000Z</time>
      </trkpt>
      <trkpt lat="44.11555" lon="1.8457">
        <ele>293.8</ele>
        <time>2012-12-29T09:13:14.000Z</time>
      </trkpt>
      <trkpt lat="44.11552" lon="1.84567">
        <ele>294.9</ele>
        <time>2012-12-29T09:13:18.000Z</time>
      </trkpt>
      <trkpt lat="44.11552" lon="1.84566">
        <ele>295</ele>
        <time>2012-12-29T09:13:19.000Z</time>
      </trkpt>
      <trkpt lat="44.11549" lon="1.84562">
        <ele>295.5</ele>
        <time>2012-12-29T09:13:23.000Z</time>
      </trkpt>
      <trkpt lat="44.11548" lon="1.84562">
        <ele>295.7</ele>
        <time>2012-12-29T09:13:24.000Z</time>
      </trkpt>
      <trkpt lat="44.11544" lon="1.84557">
        <ele>296.5</ele>
        <time>2012-12-29T09:13:29.000Z</time>
      </trkpt>
      <trkpt lat="44.11544" lon="1.84556">
        <ele>296.7</ele>
        <time>2012-12-29T09:13:30.000Z</time>
      </trkpt>
      <trkpt lat="44.11543" lon="1.84552">
        <ele>297.2</ele>
        <time>2012-12-29T09:13:33.000Z</time>
      </trkpt>
      <trkpt lat="44.11542" lon="1.8455">
        <ele>297.3</ele>
        <time>2012-12-29T09:13:34.000Z</time>
      </trkpt>
      <trkpt lat="44.11539" lon="1.84547">
        <ele>298</ele>
        <time>2012-12-29T09:13:38.000Z</time>
      </trkpt>
      <trkpt lat="44.11538" lon="1.84545">
        <ele>298.1</ele>
        <time>2012-12-29T09:13:39.000Z</time>
      </trkpt>
      <trkpt lat="44.11536" lon="1.84542">
        <ele>298.5</ele>
        <time>2012-12-29T09:13:42.000Z</time>
      </trkpt>
      <trkpt lat="44.11535" lon="1.84541">
        <ele>298.6</ele>
        <time>2012-12-29T09:13:43.000Z</time>
      </trkpt>
      <trkpt lat="44.11533" lon="1.84536">
        <ele>299.1</ele>
        <time>2012-12-29T09:13:46.000Z</time>
      </trkpt>
      <trkpt lat="44.11532" lon="1.84535">
        <ele>299.3</ele>
        <time>2012-12-29T09:13:47.000Z</time>
      </trkpt>
      <trkpt lat="44.11529" lon="1.84532">
        <ele>299.8</ele>
        <time>2012-12-29T09:13:51.000Z</time>
      </trkpt>
      <trkpt lat="44.11528" lon="1.84531">
        <ele>299.9</ele>
        <time>2012-12-29T09:13:52.000Z</time>
      </trkpt>
      <trkpt lat="44.11525" lon="1.84528">
        <ele>300.2</ele>
        <time>2012-12-29T09:13:55.000Z</time>
      </trkpt>
      <trkpt lat="44.11524" lon="1.84526">
        <ele>300.4</ele>
        <time>2012-12-29T09:13:56.000Z</time>
      </trkpt>
      <trkpt lat="44.11521" lon="1.84522">
        <ele>300.8</ele>
        <time>2012-12-29T09:13:59.000Z</time>
      </trkpt>
      <trkpt lat="44.11519" lon="1.84519">
        <ele>300.9</ele>
        <time>2012-12-29T09:14:00.000Z</time>
      </trkpt>
      <trkpt lat="44.11516" lon="1.84515">
        <ele>301.7</ele>
        <time>2012-12-29T09:14:04.000Z</time>
      </trkpt>
      <trkpt lat="44.11515" lon="1.84514">
        <ele>301.9</ele>
        <time>2012-12-29T09:14:05.000Z</time>
      </trkpt>
      <trkpt lat="44.11513" lon="1.84508">
        <ele>303.1</ele>
        <time>2012-12-29T09:14:10.000Z</time>
      </trkpt>
      <trkpt lat="44.11513" lon="1.84507">
        <ele>303.4</ele>
        <time>2012-12-29T09:14:11.000Z</time>
      </trkpt>
      <trkpt lat="44.11512" lon="1.84503">
        <ele>304.1</ele>
        <time>2012-12-29T09:14:15.000Z</time>
      </trkpt>
      <trkpt lat="44.1151" lon="1.84501">
        <ele>304.2</ele>
        <time>2012-12-29T09:14:16.000Z</time>
      </trkpt>
      <trkpt lat="44.11507" lon="1.84497">
        <ele>304.5</ele>
        <time>2012-12-29T09:14:18.000Z</time>
      </trkpt>
      <trkpt lat="44.11506" lon="1.84495">
        <ele>304.7</ele>
        <time>2012-12-29T09:14:19.000Z</time>
      </trkpt>
      <trkpt lat="44.11503" lon="1.8449">
        <ele>305.4</ele>
        <time>2012-12-29T09:14:23.000Z</time>
      </trkpt>
      <trkpt lat="44.11503" lon="1.84488">
        <ele>305.7</ele>
        <time>2012-12-29T09:14:24.000Z</time>
      </trkpt>
      <trkpt lat="44.11501" lon="1.84484">
        <ele>306.3</ele>
        <time>2012-12-29T09:14:28.000Z</time>
      </trkpt>
      <trkpt lat="44.115" lon="1.84483">
        <ele>306.3</ele>
        <time>2012-12-29T09:14:29.000Z</time>
      </trkpt>
      <trkpt lat="44.11498" lon="1.84478">
        <ele>306.7</ele>
        <time>2012-12-29T09:14:33.000Z</time>
      </trkpt>
      <trkpt lat="44.11497" lon="1.84477">
        <ele>306.7</ele>
        <time>2012-12-29T09:14:34.000Z</time>
      </trkpt>
      <trkpt lat="44.11495" lon="1.84472">
        <ele>307</ele>
        <time>2012-12-29T09:14:38.000Z</time>
      </trkpt>
      <trkpt lat="44.11495" lon="1.84471">
        <ele>307.1</ele>
        <time>2012-12-29T09:14:39.000Z</time>
      </trkpt>
      <trkpt lat="44.11491" lon="1.84466">
        <ele>307.1</ele>
        <time>2012-12-29T09:14:46.000Z</time>
      </trkpt>
      <trkpt lat="44.11491" lon="1.84466">
        <ele>307.1</ele>
        <time>2012-12-29T09:14:47.000Z</time>
      </trkpt>
      <trkpt lat="44.11487" lon="1.84463">
        <ele>309.6</ele>
        <time>2012-12-29T09:15:16.000Z</time>
      </trkpt>
      <trkpt lat="44.11487" lon="1.84462">
        <ele>309.6</ele>
        <time>2012-12-29T09:15:17.000Z</time>
      </trkpt>
      <trkpt lat="44.11483" lon="1.84465">
        <ele>314.2</ele>
        <time>2012-12-29T09:16:17.000Z</time>
      </trkpt>
      <trkpt lat="44.11483" lon="1.84465">
        <ele>314.2</ele>
        <time>2012-12-29T09:16:18.000Z</time>
      </trkpt>
      <trkpt lat="44.11479" lon="1.84462">
        <ele>314.4</ele>
        <time>2012-12-29T09:16:36.000Z</time>
      </trkpt>
      <trkpt lat="44.11479" lon="1.84462">
        <ele>314.3</ele>
        <time>2012-12-29T09:16:37.000Z</time>
      </trkpt>
      <trkpt lat="44.11483" lon="1.84464">
        <ele>313.5</ele>
        <time>2012-12-29T09:17:48.000Z</time>
      </trkpt>
      <trkpt lat="44.11483" lon="1.84464">
        <ele>313.5</ele>
        <time>2012-12-29T09:17:49.000Z</time>
      </trkpt>
      <trkpt lat="44.11487" lon="1.84463">
        <ele>313.7</ele>
        <time>2012-12-29T09:18:02.000Z</time>
      </trkpt>
      <trkpt lat="44.11487" lon="1.84463">
        <ele>313.7</ele>
        <time>2012-12-29T09:18:03.000Z</time>
      </trkpt>
      <trkpt lat="44.11486" lon="1.84457">
        <ele>316.2</ele>
        <time>2012-12-29T09:18:51.000Z</time>
      </trkpt>
      <trkpt lat="44.11485" lon="1.84457">
        <ele>316.3</ele>
        <time>2012-12-29T09:18:52.000Z</time>
      </trkpt>
      <trkpt lat="44.11487" lon="1.84453">
        <ele>316.6</ele>
        <time>2012-12-29T09:19:04.000Z</time>
      </trkpt>
      <trkpt lat="44.11488" lon="1.84451">
        <ele>316.8</ele>
        <time>2012-12-29T09:19:05.000Z</time>
      </trkpt>
      <trkpt lat="44.11488" lon="1.84445">
        <ele>317</ele>
        <time>2012-12-29T09:19:09.000Z</time>
      </trkpt>
      <trkpt lat="44.11489" lon="1.84444">
        <ele>317</ele>
        <time>2012-12-29T09:19:10.000Z</time>
      </trkpt>
      <trkpt lat="44.11487" lon="1.8445">
        <ele>318.9</ele>
        <time>2012-12-29T09:19:50.000Z</time>
      </trkpt>
      <trkpt lat="44.11486" lon="1.84449">
        <ele>318.9</ele>
        <time>2012-12-29T09:19:51.000Z</time>
      </trkpt>
      <trkpt lat="44.11482" lon="1.84447">
        <ele>318.8</ele>
        <time>2012-12-29T09:19:55.000Z</time>
      </trkpt>
      <trkpt lat="44.11481" lon="1.84447">
        <ele>318.7</ele>
        <time>2012-12-29T09:19:56.000Z</time>
      </trkpt>
      <trkpt lat="44.11478" lon="1.84443">
        <ele>318.4</ele>
        <time>2012-12-29T09:20:01.000Z</time>
      </trkpt>
      <trkpt lat="44.11477" lon="1.84442">
        <ele>318.2</ele>
        <time>2012-12-29T09:20:02.000Z</time>
      </trkpt>
      <trkpt lat="44.11474" lon="1.8444">
        <ele>317.8</ele>
        <time>2012-12-29T09:20:04.000Z</time>
      </trkpt>
      <trkpt lat="44.11473" lon="1.84438">
        <ele>317.6</ele>
        <time>2012-12-29T09:20:05.000Z</time>
      </trkpt>
      <trkpt lat="44.11471" lon="1.84435">
        <ele>317</ele>
        <time>2012-12-29T09:20:07.000Z</time>
      </trkpt>
      <trkpt lat="44.11471" lon="1.84433">
        <ele>316.7</ele>
        <time>2012-12-29T09:20:08.000Z</time>
      </trkpt>
      <trkpt lat="44.11469" lon="1.84429">
        <ele>316.3</ele>
        <time>2012-12-29T09:20:09.000Z</time>
      </trkpt>
      <trkpt lat="44.11468" lon="1.84426">
        <ele>316</ele>
        <time>2012-12-29T09:20:10.000Z</time>
      </trkpt>
      <trkpt lat="44.11468" lon="1.84423">
        <ele>315.7</ele>
        <time>2012-12-29T09:20:11.000Z</time>
      </trkpt>
      <trkpt lat="44.11467" lon="1.84419">
        <ele>315.3</ele>
        <time>2012-12-29T09:20:12.000Z</time>
      </trkpt>
      <trkpt lat="44.11466" lon="1.84415">
        <ele>315</ele>
        <time>2012-12-29T09:20:13.000Z</time>
      </trkpt>
      <trkpt lat="44.11465" lon="1.84412">
        <ele>314.6</ele>
        <time>2012-12-29T09:20:14.000Z</time>
      </trkpt>
      <trkpt lat="44.11463" lon="1.84406">
        <ele>314</ele>
        <time>2012-12-29T09:20:16.000Z</time>
      </trkpt>
      <trkpt lat="44.11462" lon="1.84404">
        <ele>313.7</ele>
        <time>2012-12-29T09:20:17.000Z</time>
      </trkpt>
      <trkpt lat="44.11461" lon="1.844">
        <ele>313.1</ele>
        <time>2012-12-29T09:20:19.000Z</time>
      </trkpt>
      <trkpt lat="44.11461" lon="1.84397">
        <ele>312.8</ele>
        <time>2012-12-29T09:20:20.000Z</time>
      </trkpt>
      <trkpt lat="44.11459" lon="1.84393">
        <ele>312</ele>
        <time>2012-12-29T09:20:22.000Z</time>
      </trkpt>
      <trkpt lat="44.11459" lon="1.8439">
        <ele>311.5</ele>
        <time>2012-12-29T09:20:23.000Z</time>
      </trkpt>
      <trkpt lat="44.11457" lon="1.84385">
        <ele>310.4</ele>
        <time>2012-12-29T09:20:25.000Z</time>
      </trkpt>
      <trkpt lat="44.11456" lon="1.84382">
        <ele>309.8</ele>
        <time>2012-12-29T09:20:26.000Z</time>
      </trkpt>
      <trkpt lat="44.11455" lon="1.84376">
        <ele>308.7</ele>
        <time>2012-12-29T09:20:28.000Z</time>
      </trkpt>
      <trkpt lat="44.11455" lon="1.84374">
        <ele>308.1</ele>
        <time>2012-12-29T09:20:29.000Z</time>
      </trkpt>
      <trkpt lat="44.11453" lon="1.84369">
        <ele>305.8</ele>
        <time>2012-12-29T09:20:43.000Z</time>
      </trkpt>
      <trkpt lat="44.11453" lon="1.84368">
        <ele>305.3</ele>
        <time>2012-12-29T09:20:44.000Z</time>
      </trkpt>
      <trkpt lat="44.11453" lon="1.84362">
        <ele>303.1</ele>
        <time>2012-12-29T09:20:54.000Z</time>
      </trkpt>
      <trkpt lat="44.11454" lon="1.8436">
        <ele>302.9</ele>
        <time>2012-12-29T09:20:55.000Z</time>
      </trkpt>
      <trkpt lat="44.11454" lon="1.84356">
        <ele>302.6</ele>
        <time>2012-12-29T09:20:57.000Z</time>
      </trkpt>
      <trkpt lat="44.11454" lon="1.84353">
        <ele>302.4</ele>
        <time>2012-12-29T09:20:58.000Z</time>
      </trkpt>
      <trkpt lat="44.11452" lon="1.84349">
        <ele>302</ele>
        <time>2012-12-29T09:21:00.000Z</time>
      </trkpt>
      <trkpt lat="44.11452" lon="1.84347">
        <ele>301.8</ele>
        <time>2012-12-29T09:21:01.000Z</time>
      </trkpt>
      <trkpt lat="44.1145" lon="1.84343">
        <ele>301.1</ele>
        <time>2012-12-29T09:21:04.000Z</time>
      </trkpt>
      <trkpt lat="44.11449" lon="1.84342">
        <ele>300.8</ele>
        <time>2012-12-29T09:21:05.000Z</time>
      </trkpt>
      <trkpt lat="44.11447" lon="1.84337">
        <ele>298.2</ele>
        <time>2012-12-29T09:21:24.000Z</time>
      </trkpt>
      <trkpt lat="44.11448" lon="1.84335">
        <ele>298.2</ele>
        <time>2012-12-29T09:21:25.000Z</time>
      </trkpt>
      <trkpt lat="44.1145" lon="1.8433">
        <ele>298.6</ele>
        <time>2012-12-29T09:21:30.000Z</time>
      </trkpt>
      <trkpt lat="44.1145" lon="1.84328">
        <ele>298.7</ele>
        <time>2012-12-29T09:21:31.000Z</time>
      </trkpt>
      <trkpt lat="44.11451" lon="1.84322">
        <ele>300.7</ele>
        <time>2012-12-29T09:21:41.000Z</time>
      </trkpt>
      <trkpt lat="44.11451" lon="1.84319">
        <ele>301</ele>
        <time>2012-12-29T09:21:42.000Z</time>
      </trkpt>
      <trkpt lat="44.1145" lon="1.84307">
        <ele>301.4</ele>
        <time>2012-12-29T09:21:43.000Z</time>
      </trkpt>
      <trkpt lat="44.11449" lon="1.843">
        <ele>301.6</ele>
        <time>2012-12-29T09:21:44.000Z</time>
      </trkpt>
      <trkpt lat="44.11447" lon="1.84295">
        <ele>301.8</ele>
        <time>2012-12-29T09:21:45.000Z</time>
      </trkpt>
      <trkpt lat="44.11447" lon="1.84291">
        <ele>302</ele>
        <time>2012-12-29T09:21:46.000Z</time>
      </trkpt>
      <trkpt lat="44.11445" lon="1.84286">
        <ele>302.5</ele>
        <time>2012-12-29T09:21:48.000Z</time>
      </trkpt>
      <trkpt lat="44.11445" lon="1.84284">
        <ele>302.5</ele>
        <time>2012-12-29T09:21:49.000Z</time>
      </trkpt>
      <trkpt lat="44.11446" lon="1.8428">
        <ele>302.7</ele>
        <time>2012-12-29T09:21:51.000Z</time>
      </trkpt>
      <trkpt lat="44.11446" lon="1.84277">
        <ele>302.7</ele>
        <time>2012-12-29T09:21:52.000Z</time>
      </trkpt>
      <trkpt lat="44.11447" lon="1.84271">
        <ele>302.8</ele>
        <time>2012-12-29T09:21:54.000Z</time>
      </trkpt>
      <trkpt lat="44.11446" lon="1.84269">
        <ele>302.9</ele>
        <time>2012-12-29T09:21:55.000Z</time>
      </trkpt>
      <trkpt lat="44.11448" lon="1.84264">
        <ele>302.4</ele>
        <time>2012-12-29T09:22:02.000Z</time>
      </trkpt>
      <trkpt lat="44.11448" lon="1.84263">
        <ele>302.4</ele>
        <time>2012-12-29T09:22:03.000Z</time>
      </trkpt>
      <trkpt lat="44.1145" lon="1.84258">
        <ele>302.2</ele>
        <time>2012-12-29T09:22:06.000Z</time>
      </trkpt>
      <trkpt lat="44.1145" lon="1.84257">
        <ele>302.2</ele>
        <time>2012-12-29T09:22:07.000Z</time>
      </trkpt>
      <trkpt lat="44.11452" lon="1.84254">
        <ele>302.3</ele>
        <time>2012-12-29T09:22:10.000Z</time>
      </trkpt>
      <trkpt lat="44.11453" lon="1.84251">
        <ele>302.4</ele>
        <time>2012-12-29T09:22:11.000Z</time>
      </trkpt>
      <trkpt lat="44.11455" lon="1.84246">
        <ele>303.3</ele>
        <time>2012-12-29T09:22:18.000Z</time>
      </trkpt>
      <trkpt lat="44.11455" lon="1.84245">
        <ele>303.3</ele>
        <time>2012-12-29T09:22:19.000Z</time>
      </trkpt>
      <trkpt lat="44.11455" lon="1.8424">
        <ele>303.9</ele>
        <time>2012-12-29T09:22:23.000Z</time>
      </trkpt>
      <trkpt lat="44.11455" lon="1.84238">
        <ele>304</ele>
        <time>2012-12-29T09:22:24.000Z</time>
      </trkpt>
      <trkpt lat="44.11456" lon="1.84233">
        <ele>304.5</ele>
        <time>2012-12-29T09:22:27.000Z</time>
      </trkpt>
      <trkpt lat="44.11456" lon="1.84231">
        <ele>304.7</ele>
        <time>2012-12-29T09:22:28.000Z</time>
      </trkpt>
      <trkpt lat="44.11457" lon="1.84226">
        <ele>305.3</ele>
        <time>2012-12-29T09:22:31.000Z</time>
      </trkpt>
      <trkpt lat="44.11457" lon="1.84223">
        <ele>305.4</ele>
        <time>2012-12-29T09:22:32.000Z</time>
      </trkpt>
      <trkpt lat="44.11459" lon="1.84218">
        <ele>305.7</ele>
        <time>2012-12-29T09:22:35.000Z</time>
      </trkpt>
      <trkpt lat="44.1146" lon="1.84216">
        <ele>305.9</ele>
        <time>2012-12-29T09:22:36.000Z</time>
      </trkpt>
      <trkpt lat="44.11463" lon="1.84212">
        <ele>306.1</ele>
        <time>2012-12-29T09:22:38.000Z</time>
      </trkpt>
      <trkpt lat="44.11464" lon="1.84211">
        <ele>306.2</ele>
        <time>2012-12-29T09:22:39.000Z</time>
      </trkpt>
      <trkpt lat="44.11467" lon="1.84208">
        <ele>306.4</ele>
        <time>2012-12-29T09:22:41.000Z</time>
      </trkpt>
      <trkpt lat="44.11467" lon="1.84205">
        <ele>306.5</ele>
        <time>2012-12-29T09:22:42.000Z</time>
      </trkpt>
      <trkpt lat="44.11469" lon="1.84201">
        <ele>306.6</ele>
        <time>2012-12-29T09:22:44.000Z</time>
      </trkpt>
      <trkpt lat="44.11469" lon="1.84199">
        <ele>306.6</ele>
        <time>2012-12-29T09:22:45.000Z</time>
      </trkpt>
      <trkpt lat="44.1147" lon="1.84195">
        <ele>306.5</ele>
        <time>2012-12-29T09:22:47.000Z</time>
      </trkpt>
      <trkpt lat="44.11471" lon="1.84193">
        <ele>306.4</ele>
        <time>2012-12-29T09:22:48.000Z</time>
      </trkpt>
      <trkpt lat="44.11472" lon="1.84188">
        <ele>305.9</ele>
        <time>2012-12-29T09:22:51.000Z</time>
      </trkpt>
      <trkpt lat="44.11472" lon="1.84187">
        <ele>305.7</ele>
        <time>2012-12-29T09:22:52.000Z</time>
      </trkpt>
      <trkpt lat="44.11473" lon="1.84182">
        <ele>305.4</ele>
        <time>2012-12-29T09:22:54.000Z</time>
      </trkpt>
      <trkpt lat="44.11474" lon="1.8418">
        <ele>305.2</ele>
        <time>2012-12-29T09:22:55.000Z</time>
      </trkpt>
      <trkpt lat="44.11476" lon="1.84176">
        <ele>304.7</ele>
        <time>2012-12-29T09:22:58.000Z</time>
      </trkpt>
      <trkpt lat="44.11477" lon="1.84173">
        <ele>304.5</ele>
        <time>2012-12-29T09:22:59.000Z</time>
      </trkpt>
      <trkpt lat="44.11477" lon="1.84168">
        <ele>304.2</ele>
        <time>2012-12-29T09:23:01.000Z</time>
      </trkpt>
      <trkpt lat="44.11477" lon="1.84166">
        <ele>304.1</ele>
        <time>2012-12-29T09:23:02.000Z</time>
      </trkpt>
      <trkpt lat="44.11477" lon="1.84161">
        <ele>304</ele>
        <time>2012-12-29T09:23:04.000Z</time>
      </trkpt>
      <trkpt lat="44.11477" lon="1.84159">
        <ele>304.1</ele>
        <time>2012-12-29T09:23:05.000Z</time>
      </trkpt>
      <trkpt lat="44.11477" lon="1.84154">
        <ele>304</ele>
        <time>2012-12-29T09:23:07.000Z</time>
      </trkpt>
      <trkpt lat="44.11478" lon="1.84152">
        <ele>303.8</ele>
        <time>2012-12-29T09:23:08.000Z</time>
      </trkpt>
      <trkpt lat="44.11478" lon="1.84148">
        <ele>303.5</ele>
        <time>2012-12-29T09:23:10.000Z</time>
      </trkpt>
      <trkpt lat="44.11479" lon="1.84145">
        <ele>303.2</ele>
        <time>2012-12-29T09:23:11.000Z</time>
      </trkpt>
      <trkpt lat="44.11479" lon="1.84139">
        <ele>302.5</ele>
        <time>2012-12-29T09:23:14.000Z</time>
      </trkpt>
      <trkpt lat="44.11479" lon="1.84136">
        <ele>302.3</ele>
        <time>2012-12-29T09:23:15.000Z</time>
      </trkpt>
      <trkpt lat="44.11479" lon="1.84131">
        <ele>301.9</ele>
        <time>2012-12-29T09:23:18.000Z</time>
      </trkpt>
      <trkpt lat="44.11479" lon="1.84129">
        <ele>301.7</ele>
        <time>2012-12-29T09:23:19.000Z</time>
      </trkpt>
      <trkpt lat="44.1148" lon="1.84123">
        <ele>301.3</ele>
        <time>2012-12-29T09:23:22.000Z</time>
      </trkpt>
      <trkpt lat="44.1148" lon="1.84122">
        <ele>301.2</ele>
        <time>2012-12-29T09:23:23.000Z</time>
      </trkpt>
      <trkpt lat="44.1148" lon="1.84117">
        <ele>300.8</ele>
        <time>2012-12-29T09:23:25.000Z</time>
      </trkpt>
      <trkpt lat="44.1148" lon="1.84115">
        <ele>300.5</ele>
        <time>2012-12-29T09:23:26.000Z</time>
      </trkpt>
      <trkpt lat="44.11479" lon="1.8411">
        <ele>300</ele>
        <time>2012-12-29T09:23:28.000Z</time>
      </trkpt>
      <trkpt lat="44.11478" lon="1.84107">
        <ele>299.8</ele>
        <time>2012-12-29T09:23:29.000Z</time>
      </trkpt>
      <trkpt lat="44.11477" lon="1.84102">
        <ele>299.4</ele>
        <time>2012-12-29T09:23:31.000Z</time>
      </trkpt>
      <trkpt lat="44.11476" lon="1.841">
        <ele>299.2</ele>
        <time>2012-12-29T09:23:32.000Z</time>
      </trkpt>
      <trkpt lat="44.11476" lon="1.84098">
        <ele>299.1</ele>
        <time>2012-12-29T09:23:33.000Z</time>
      </trkpt>
      <trkpt lat="44.11475" lon="1.84093">
        <ele>298.9</ele>
        <time>2012-12-29T09:23:34.000Z</time>
      </trkpt>
      <trkpt lat="44.11475" lon="1.84089">
        <ele>298.8</ele>
        <time>2012-12-29T09:23:35.000Z</time>
      </trkpt>
      <trkpt lat="44.11476" lon="1.84086">
        <ele>298.6</ele>
        <time>2012-12-29T09:23:36.000Z</time>
      </trkpt>
      <trkpt lat="44.11477" lon="1.8408">
        <ele>298.6</ele>
        <time>2012-12-29T09:23:38.000Z</time>
      </trkpt>
      <trkpt lat="44.11477" lon="1.84078">
        <ele>298.6</ele>
        <time>2012-12-29T09:23:39.000Z</time>
      </trkpt>
      <trkpt lat="44.11478" lon="1.84073">
        <ele>298.7</ele>
        <time>2012-12-29T09:23:41.000Z</time>
      </trkpt>
      <trkpt lat="44.11478" lon="1.84071">
        <ele>298.7</ele>
        <time>2012-12-29T09:23:42.000Z</time>
      </trkpt>
      <trkpt lat="44.11478" lon="1.84065">
        <ele>298.8</ele>
        <time>2012-12-29T09:23:44.000Z</time>
      </trkpt>
      <trkpt lat="44.11478" lon="1.84063">
        <ele>298.9</ele>
        <time>2012-12-29T09:23:45.000Z</time>
      </trkpt>
      <trkpt lat="44.11478" lon="1.84059">
        <ele>299.2</ele>
        <time>2012-12-29T09:23:47.000Z</time>
      </trkpt>
      <trkpt lat="44.11478" lon="1.84057">
        <ele>299.4</ele>
        <time>2012-12-29T09:23:48.000Z</time>
      </trkpt>
      <trkpt lat="44.11477" lon="1.84051">
        <ele>300</ele>
        <time>2012-12-29T09:23:50.000Z</time>
      </trkpt>
      <trkpt lat="44.11477" lon="1.8405">
        <ele>300.3</ele>
        <time>2012-12-29T09:23:51.000Z</time>
      </trkpt>
      <trkpt lat="44.11476" lon="1.84046">
        <ele>300.7</ele>
        <time>2012-12-29T09:23:52.000Z</time>
      </trkpt>
      <trkpt lat="44.11475" lon="1.84042">
        <ele>300.9</ele>
        <time>2012-12-29T09:23:53.000Z</time>
      </trkpt>
      <trkpt lat="44.11473" lon="1.84037">
        <ele>301.5</ele>
        <time>2012-12-29T09:23:55.000Z</time>
      </trkpt>
      <trkpt lat="44.11472" lon="1.84034">
        <ele>301.8</ele>
        <time>2012-12-29T09:23:56.000Z</time>
      </trkpt>
      <trkpt lat="44.11469" lon="1.84029">
        <ele>302.4</ele>
        <time>2012-12-29T09:23:58.000Z</time>
      </trkpt>
      <trkpt lat="44.11468" lon="1.84027">
        <ele>302.7</ele>
        <time>2012-12-29T09:23:59.000Z</time>
      </trkpt>
      <trkpt lat="44.11466" lon="1.84022">
        <ele>303.4</ele>
        <time>2012-12-29T09:24:01.000Z</time>
      </trkpt>
      <trkpt lat="44.11465" lon="1.8402">
        <ele>303.7</ele>
        <time>2012-12-29T09:24:02.000Z</time>
      </trkpt>
      <trkpt lat="44.11462" lon="1.84015">
        <ele>304.6</ele>
        <time>2012-12-29T09:24:05.000Z</time>
      </trkpt>
      <trkpt lat="44.11462" lon="1.84013">
        <ele>304.9</ele>
        <time>2012-12-29T09:24:06.000Z</time>
      </trkpt>
      <trkpt lat="44.1146" lon="1.8401">
        <ele>305.6</ele>
        <time>2012-12-29T09:24:08.000Z</time>
      </trkpt>
      <trkpt lat="44.11459" lon="1.84008">
        <ele>306</ele>
        <time>2012-12-29T09:24:09.000Z</time>
      </trkpt>
      <trkpt lat="44.11457" lon="1.84004">
        <ele>306.8</ele>
        <time>2012-12-29T09:24:11.000Z</time>
      </trkpt>
      <trkpt lat="44.11456" lon="1.84002">
        <ele>307.1</ele>
        <time>2012-12-29T09:24:12.000Z</time>
      </trkpt>
      <trkpt lat="44.11455" lon="1.83998">
        <ele>307.8</ele>
        <time>2012-12-29T09:24:14.000Z</time>
      </trkpt>
      <trkpt lat="44.11453" lon="1.83996">
        <ele>308.1</ele>
        <time>2012-12-29T09:24:15.000Z</time>
      </trkpt>
      <trkpt lat="44.1145" lon="1.83992">
        <ele>309.2</ele>
        <time>2012-12-29T09:24:18.000Z</time>
      </trkpt>
      <trkpt lat="44.11449" lon="1.8399">
        <ele>309.6</ele>
        <time>2012-12-29T09:24:19.000Z</time>
      </trkpt>
      <trkpt lat="44.11447" lon="1.83985">
        <ele>310.5</ele>
        <time>2012-12-29T09:24:22.000Z</time>
      </trkpt>
      <trkpt lat="44.11447" lon="1.83984">
        <ele>310.8</ele>
        <time>2012-12-29T09:24:23.000Z</time>
      </trkpt>
      <trkpt lat="44.11445" lon="1.83979">
        <ele>311.7</ele>
        <time>2012-12-29T09:24:26.000Z</time>
      </trkpt>
      <trkpt lat="44.11444" lon="1.83977">
        <ele>312</ele>
        <time>2012-12-29T09:24:27.000Z</time>
      </trkpt>
      <trkpt lat="44.11442" lon="1.83973">
        <ele>312.4</ele>
        <time>2012-12-29T09:24:29.000Z</time>
      </trkpt>
      <trkpt lat="44.11442" lon="1.83971">
        <ele>312.7</ele>
        <time>2012-12-29T09:24:30.000Z</time>
      </trkpt>
      <trkpt lat="44.11439" lon="1.83966">
        <ele>313.6</ele>
        <time>2012-12-29T09:24:33.000Z</time>
      </trkpt>
      <trkpt lat="44.11439" lon="1.83964">
        <ele>313.9</ele>
        <time>2012-12-29T09:24:34.000Z</time>
      </trkpt>
      <trkpt lat="44.11437" lon="1.8396">
        <ele>314.4</ele>
        <time>2012-12-29T09:24:36.000Z</time>
      </trkpt>
      <trkpt lat="44.11436" lon="1.83959">
        <ele>314.7</ele>
        <time>2012-12-29T09:24:37.000Z</time>
      </trkpt>
      <trkpt lat="44.11434" lon="1.83953">
        <ele>315.6</ele>
        <time>2012-12-29T09:24:40.000Z</time>
      </trkpt>
      <trkpt lat="44.11434" lon="1.83951">
        <ele>315.9</ele>
        <time>2012-12-29T09:24:41.000Z</time>
      </trkpt>
      <trkpt lat="44.11432" lon="1.83947">
        <ele>316.4</ele>
        <time>2012-12-29T09:24:43.000Z</time>
      </trkpt>
      <trkpt lat="44.11431" lon="1.83945">
        <ele>316.7</ele>
        <time>2012-12-29T09:24:44.000Z</time>
      </trkpt>
      <trkpt lat="44.11429" lon="1.83941">
        <ele>317.2</ele>
        <time>2012-12-29T09:24:46.000Z</time>
      </trkpt>
      <trkpt lat="44.11428" lon="1.83939">
        <ele>317.5</ele>
        <time>2012-12-29T09:24:47.000Z</time>
      </trkpt>
      <trkpt lat="44.11426" lon="1.83935">
        <ele>318.1</ele>
        <time>2012-12-29T09:24:49.000Z</time>
      </trkpt>
      <trkpt lat="44.11425" lon="1.83932">
        <ele>318.4</ele>
        <time>2012-12-29T09:24:50.000Z</time>
      </trkpt>
      <trkpt lat="44.11423" lon="1.83928">
        <ele>319</ele>
        <time>2012-12-29T09:24:52.000Z</time>
      </trkpt>
      <trkpt lat="44.11421" lon="1.83926">
        <ele>319.3</ele>
        <time>2012-12-29T09:24:53.000Z</time>
      </trkpt>
      <trkpt lat="44.11419" lon="1.83922">
        <ele>319.8</ele>
        <time>2012-12-29T09:24:55.000Z</time>
      </trkpt>
      <trkpt lat="44.11418" lon="1.8392">
        <ele>320</ele>
        <time>2012-12-29T09:24:56.000Z</time>
      </trkpt>
      <trkpt lat="44.11416" lon="1.83916">
        <ele>320.7</ele>
        <time>2012-12-29T09:24:59.000Z</time>
      </trkpt>
      <trkpt lat="44.11415" lon="1.83914">
        <ele>320.9</ele>
        <time>2012-12-29T09:25:00.000Z</time>
      </trkpt>
      <trkpt lat="44.11414" lon="1.8391">
        <ele>321.4</ele>
        <time>2012-12-29T09:25:02.000Z</time>
      </trkpt>
      <trkpt lat="44.11413" lon="1.83908">
        <ele>321.6</ele>
        <time>2012-12-29T09:25:03.000Z</time>
      </trkpt>
      <trkpt lat="44.1141" lon="1.83904">
        <ele>322</ele>
        <time>2012-12-29T09:25:05.000Z</time>
      </trkpt>
      <trkpt lat="44.11409" lon="1.83902">
        <ele>322.2</ele>
        <time>2012-12-29T09:25:06.000Z</time>
      </trkpt>
      <trkpt lat="44.11406" lon="1.83898">
        <ele>322.8</ele>
        <time>2012-12-29T09:25:09.000Z</time>
      </trkpt>
      <trkpt lat="44.11405" lon="1.83896">
        <ele>322.9</ele>
        <time>2012-12-29T09:25:10.000Z</time>
      </trkpt>
      <trkpt lat="44.11403" lon="1.83893">
        <ele>323.3</ele>
        <time>2012-12-29T09:25:12.000Z</time>
      </trkpt>
      <trkpt lat="44.11401" lon="1.83892">
        <ele>323.4</ele>
        <time>2012-12-29T09:25:13.000Z</time>
      </trkpt>
      <trkpt lat="44.11398" lon="1.83888">
        <ele>324</ele>
        <time>2012-12-29T09:25:16.000Z</time>
      </trkpt>
      <trkpt lat="44.11397" lon="1.83887">
        <ele>324.2</ele>
        <time>2012-12-29T09:25:17.000Z</time>
      </trkpt>
      <trkpt lat="44.11395" lon="1.83883">
        <ele>324.5</ele>
        <time>2012-12-29T09:25:19.000Z</time>
      </trkpt>
      <trkpt lat="44.11394" lon="1.83882">
        <ele>324.7</ele>
        <time>2012-12-29T09:25:20.000Z</time>
      </trkpt>
      <trkpt lat="44.11392" lon="1.83879">
        <ele>325.1</ele>
        <time>2012-12-29T09:25:22.000Z</time>
      </trkpt>
      <trkpt lat="44.1139" lon="1.83878">
        <ele>325.2</ele>
        <time>2012-12-29T09:25:23.000Z</time>
      </trkpt>
      <trkpt lat="44.11387" lon="1.83875">
        <ele>325.6</ele>
        <time>2012-12-29T09:25:25.000Z</time>
      </trkpt>
      <trkpt lat="44.11386" lon="1.83873">
        <ele>325.8</ele>
        <time>2012-12-29T09:25:26.000Z</time>
      </trkpt>
      <trkpt lat="44.11384" lon="1.83869">
        <ele>326.5</ele>
        <time>2012-12-29T09:25:29.000Z</time>
      </trkpt>
      <trkpt lat="44.11383" lon="1.83868">
        <ele>326.7</ele>
        <time>2012-12-29T09:25:30.000Z</time>
      </trkpt>
      <trkpt lat="44.11381" lon="1.83865">
        <ele>327.1</ele>
        <time>2012-12-29T09:25:32.000Z</time>
      </trkpt>
      <trkpt lat="44.1138" lon="1.83863">
        <ele>327.3</ele>
        <time>2012-12-29T09:25:33.000Z</time>
      </trkpt>
      <trkpt lat="44.11377" lon="1.83859">
        <ele>327.8</ele>
        <time>2012-12-29T09:25:36.000Z</time>
      </trkpt>
      <trkpt lat="44.11376" lon="1.83857">
        <ele>328</ele>
        <time>2012-12-29T09:25:37.000Z</time>
      </trkpt>
      <trkpt lat="44.11374" lon="1.83852">
        <ele>328.4</ele>
        <time>2012-12-29T09:25:39.000Z</time>
      </trkpt>
      <trkpt lat="44.11373" lon="1.83849">
        <ele>328.6</ele>
        <time>2012-12-29T09:25:40.000Z</time>
      </trkpt>
      <trkpt lat="44.11371" lon="1.83845">
        <ele>329</ele>
        <time>2012-12-29T09:25:43.000Z</time>
      </trkpt>
      <trkpt lat="44.1137" lon="1.83843">
        <ele>329.1</ele>
        <time>2012-12-29T09:25:44.000Z</time>
      </trkpt>
      <trkpt lat="44.11369" lon="1.83839">
        <ele>329.3</ele>
        <time>2012-12-29T09:25:46.000Z</time>
      </trkpt>
      <trkpt lat="44.11368" lon="1.83837">
        <ele>329.4</ele>
        <time>2012-12-29T09:25:47.000Z</time>
      </trkpt>
      <trkpt lat="44.11367" lon="1.83832">
        <ele>329.7</ele>
        <time>2012-12-29T09:25:49.000Z</time>
      </trkpt>
      <trkpt lat="44.11366" lon="1.8383">
        <ele>329.8</ele>
        <time>2012-12-29T09:25:50.000Z</time>
      </trkpt>
      <trkpt lat="44.11366" lon="1.83826">
        <ele>330.1</ele>
        <time>2012-12-29T09:25:52.000Z</time>
      </trkpt>
      <trkpt lat="44.11365" lon="1.83823">
        <ele>330.2</ele>
        <time>2012-12-29T09:25:53.000Z</time>
      </trkpt>
      <trkpt lat="44.11364" lon="1.83818">
        <ele>330.7</ele>
        <time>2012-12-29T09:25:55.000Z</time>
      </trkpt>
      <trkpt lat="44.11364" lon="1.83815">
        <ele>330.9</ele>
        <time>2012-12-29T09:25:56.000Z</time>
      </trkpt>
      <trkpt lat="44.11363" lon="1.8381">
        <ele>331.5</ele>
        <time>2012-12-29T09:25:59.000Z</time>
      </trkpt>
      <trkpt lat="44.11363" lon="1.83808">
        <ele>331.7</ele>
        <time>2012-12-29T09:26:00.000Z</time>
      </trkpt>
      <trkpt lat="44.11363" lon="1.83804">
        <ele>332.2</ele>
        <time>2012-12-29T09:26:02.000Z</time>
      </trkpt>
      <trkpt lat="44.11363" lon="1.83801">
        <ele>332.4</ele>
        <time>2012-12-29T09:26:03.000Z</time>
      </trkpt>
      <trkpt lat="44.11362" lon="1.83795">
        <ele>333</ele>
        <time>2012-12-29T09:26:06.000Z</time>
      </trkpt>
      <trkpt lat="44.11363" lon="1.83793">
        <ele>333.2</ele>
        <time>2012-12-29T09:26:07.000Z</time>
      </trkpt>
      <trkpt lat="44.11363" lon="1.83787">
        <ele>333.9</ele>
        <time>2012-12-29T09:26:10.000Z</time>
      </trkpt>
      <trkpt lat="44.11363" lon="1.83785">
        <ele>334.1</ele>
        <time>2012-12-29T09:26:11.000Z</time>
      </trkpt>
      <trkpt lat="44.11363" lon="1.83779">
        <ele>334.6</ele>
        <time>2012-12-29T09:26:14.000Z</time>
      </trkpt>
      <trkpt lat="44.11363" lon="1.83774">
        <ele>334.8</ele>
        <time>2012-12-29T09:26:16.000Z</time>
      </trkpt>
      <trkpt lat="44.11363" lon="1.83769">
        <ele>335</ele>
        <time>2012-12-29T09:26:18.000Z</time>
      </trkpt>
      <trkpt lat="44.11363" lon="1.83766">
        <ele>335.1</ele>
        <time>2012-12-29T09:26:19.000Z</time>
      </trkpt>
      <trkpt lat="44.11363" lon="1.83761">
        <ele>335.6</ele>
        <time>2012-12-29T09:26:22.000Z</time>
      </trkpt>
      <trkpt lat="44.11363" lon="1.83759">
        <ele>335.7</ele>
        <time>2012-12-29T09:26:23.000Z</time>
      </trkpt>
      <trkpt lat="44.11363" lon="1.83754">
        <ele>336</ele>
        <time>2012-12-29T09:26:26.000Z</time>
      </trkpt>
      <trkpt lat="44.11363" lon="1.83753">
        <ele>336.2</ele>
        <time>2012-12-29T09:26:27.000Z</time>
      </trkpt>
      <trkpt lat="44.11362" lon="1.83747">
        <ele>336.4</ele>
        <time>2012-12-29T09:26:29.000Z</time>
      </trkpt>
      <trkpt lat="44.11362" lon="1.83746">
        <ele>336.5</ele>
        <time>2012-12-29T09:26:30.000Z</time>
      </trkpt>
      <trkpt lat="44.11362" lon="1.83741">
        <ele>336.7</ele>
        <time>2012-12-29T09:26:32.000Z</time>
      </trkpt>
      <trkpt lat="44.11361" lon="1.83739">
        <ele>336.7</ele>
        <time>2012-12-29T09:26:33.000Z</time>
      </trkpt>
      <trkpt lat="44.11361" lon="1.83734">
        <ele>336.9</ele>
        <time>2012-12-29T09:26:35.000Z</time>
      </trkpt>
      <trkpt lat="44.1136" lon="1.83732">
        <ele>337</ele>
        <time>2012-12-29T09:26:36.000Z</time>
      </trkpt>
      <trkpt lat="44.11359" lon="1.83727">
        <ele>337.3</ele>
        <time>2012-12-29T09:26:39.000Z</time>
      </trkpt>
      <trkpt lat="44.11359" lon="1.83725">
        <ele>337.5</ele>
        <time>2012-12-29T09:26:40.000Z</time>
      </trkpt>
      <trkpt lat="44.11358" lon="1.83719">
        <ele>337.7</ele>
        <time>2012-12-29T09:26:43.000Z</time>
      </trkpt>
      <trkpt lat="44.11358" lon="1.83717">
        <ele>337.7</ele>
        <time>2012-12-29T09:26:44.000Z</time>
      </trkpt>
      <trkpt lat="44.11357" lon="1.83712">
        <ele>337.9</ele>
        <time>2012-12-29T09:26:46.000Z</time>
      </trkpt>
      <trkpt lat="44.11356" lon="1.8371">
        <ele>338</ele>
        <time>2012-12-29T09:26:47.000Z</time>
      </trkpt>
      <trkpt lat="44.11354" lon="1.83705">
        <ele>338.3</ele>
        <time>2012-12-29T09:26:49.000Z</time>
      </trkpt>
      <trkpt lat="44.11354" lon="1.83703">
        <ele>338.4</ele>
        <time>2012-12-29T09:26:50.000Z</time>
      </trkpt>
      <trkpt lat="44.11353" lon="1.83699">
        <ele>338.9</ele>
        <time>2012-12-29T09:26:52.000Z</time>
      </trkpt>
      <trkpt lat="44.11352" lon="1.83697">
        <ele>339.1</ele>
        <time>2012-12-29T09:26:53.000Z</time>
      </trkpt>
      <trkpt lat="44.1135" lon="1.83691">
        <ele>339.6</ele>
        <time>2012-12-29T09:26:56.000Z</time>
      </trkpt>
      <trkpt lat="44.11349" lon="1.83689">
        <ele>339.8</ele>
        <time>2012-12-29T09:26:57.000Z</time>
      </trkpt>
      <trkpt lat="44.11348" lon="1.83685">
        <ele>340.4</ele>
        <time>2012-12-29T09:27:00.000Z</time>
      </trkpt>
      <trkpt lat="44.11347" lon="1.83683">
        <ele>340.6</ele>
        <time>2012-12-29T09:27:01.000Z</time>
      </trkpt>
      <trkpt lat="44.11346" lon="1.83678">
        <ele>341.3</ele>
        <time>2012-12-29T09:27:04.000Z</time>
      </trkpt>
      <trkpt lat="44.11345" lon="1.83676">
        <ele>341.4</ele>
        <time>2012-12-29T09:27:05.000Z</time>
      </trkpt>
      <trkpt lat="44.11344" lon="1.83669">
        <ele>342.2</ele>
        <time>2012-12-29T09:27:09.000Z</time>
      </trkpt>
      <trkpt lat="44.11344" lon="1.83667">
        <ele>342.4</ele>
        <time>2012-12-29T09:27:10.000Z</time>
      </trkpt>
      <trkpt lat="44.11343" lon="1.83662">
        <ele>343.1</ele>
        <time>2012-12-29T09:27:13.000Z</time>
      </trkpt>
      <trkpt lat="44.11342" lon="1.8366">
        <ele>343.2</ele>
        <time>2012-12-29T09:27:14.000Z</time>
      </trkpt>
      <trkpt lat="44.11341" lon="1.83655">
        <ele>343.6</ele>
        <time>2012-12-29T09:27:16.000Z</time>
      </trkpt>
      <trkpt lat="44.11341" lon="1.83653">
        <ele>343.7</ele>
        <time>2012-12-29T09:27:17.000Z</time>
      </trkpt>
      <trkpt lat="44.1134" lon="1.83649">
        <ele>344.1</ele>
        <time>2012-12-29T09:27:19.000Z</time>
      </trkpt>
      <trkpt lat="44.1134" lon="1.83647">
        <ele>344.3</ele>
        <time>2012-12-29T09:27:20.000Z</time>
      </trkpt>
      <trkpt lat="44.11338" lon="1.83642">
        <ele>344.8</ele>
        <time>2012-12-29T09:27:23.000Z</time>
      </trkpt>
      <trkpt lat="44.11337" lon="1.83641">
        <ele>344.9</ele>
        <time>2012-12-29T09:27:24.000Z</time>
      </trkpt>
      <trkpt lat="44.11335" lon="1.83636">
        <ele>345.3</ele>
        <time>2012-12-29T09:27:27.000Z</time>
      </trkpt>
      <trkpt lat="44.11335" lon="1.83634">
        <ele>345.5</ele>
        <time>2012-12-29T09:27:28.000Z</time>
      </trkpt>
      <trkpt lat="44.11334" lon="1.83629">
        <ele>345.8</ele>
        <time>2012-12-29T09:27:30.000Z</time>
      </trkpt>
      <trkpt lat="44.11333" lon="1.83627">
        <ele>346</ele>
        <time>2012-12-29T09:27:31.000Z</time>
      </trkpt>
      <trkpt lat="44.11332" lon="1.83623">
        <ele>346.5</ele>
        <time>2012-12-29T09:27:33.000Z</time>
      </trkpt>
      <trkpt lat="44.11331" lon="1.83621">
        <ele>346.8</ele>
        <time>2012-12-29T09:27:34.000Z</time>
      </trkpt>
      <trkpt lat="44.11331" lon="1.83616">
        <ele>347.5</ele>
        <time>2012-12-29T09:27:37.000Z</time>
      </trkpt>
      <trkpt lat="44.1133" lon="1.83613">
        <ele>347.7</ele>
        <time>2012-12-29T09:27:38.000Z</time>
      </trkpt>
      <trkpt lat="44.1133" lon="1.83608">
        <ele>348.4</ele>
        <time>2012-12-29T09:27:41.000Z</time>
      </trkpt>
      <trkpt lat="44.1133" lon="1.83606">
        <ele>348.6</ele>
        <time>2012-12-29T09:27:42.000Z</time>
      </trkpt>
      <trkpt lat="44.11329" lon="1.83601">
        <ele>349.4</ele>
        <time>2012-12-29T09:27:45.000Z</time>
      </trkpt>
      <trkpt lat="44.11329" lon="1.836">
        <ele>349.7</ele>
        <time>2012-12-29T09:27:46.000Z</time>
      </trkpt>
      <trkpt lat="44.11328" lon="1.83594">
        <ele>350.4</ele>
        <time>2012-12-29T09:27:49.000Z</time>
      </trkpt>
      <trkpt lat="44.11328" lon="1.83592">
        <ele>350.6</ele>
        <time>2012-12-29T09:27:50.000Z</time>
      </trkpt>
      <trkpt lat="44.11327" lon="1.83586">
        <ele>351.7</ele>
        <time>2012-12-29T09:27:55.000Z</time>
      </trkpt>
      <trkpt lat="44.11327" lon="1.83584">
        <ele>351.9</ele>
        <time>2012-12-29T09:27:56.000Z</time>
      </trkpt>
      <trkpt lat="44.11327" lon="1.83579">
        <ele>352.4</ele>
        <time>2012-12-29T09:27:59.000Z</time>
      </trkpt>
      <trkpt lat="44.11327" lon="1.83578">
        <ele>352.6</ele>
        <time>2012-12-29T09:28:00.000Z</time>
      </trkpt>
      <trkpt lat="44.11327" lon="1.83573">
        <ele>353</ele>
        <time>2012-12-29T09:28:04.000Z</time>
      </trkpt>
      <trkpt lat="44.11326" lon="1.83571">
        <ele>353.1</ele>
        <time>2012-12-29T09:28:05.000Z</time>
      </trkpt>
      <trkpt lat="44.11325" lon="1.83566">
        <ele>353.3</ele>
        <time>2012-12-29T09:28:07.000Z</time>
      </trkpt>
      <trkpt lat="44.11325" lon="1.83564">
        <ele>353.4</ele>
        <time>2012-12-29T09:28:08.000Z</time>
      </trkpt>
      <trkpt lat="44.11324" lon="1.83559">
        <ele>353.6</ele>
        <time>2012-12-29T09:28:12.000Z</time>
      </trkpt>
      <trkpt lat="44.11324" lon="1.83557">
        <ele>353.7</ele>
        <time>2012-12-29T09:28:13.000Z</time>
      </trkpt>
      <trkpt lat="44.11322" lon="1.83551">
        <ele>354</ele>
        <time>2012-12-29T09:28:17.000Z</time>
      </trkpt>
      <trkpt lat="44.11321" lon="1.8355">
        <ele>354.1</ele>
        <time>2012-12-29T09:28:18.000Z</time>
      </trkpt>
      <trkpt lat="44.11319" lon="1.83545">
        <ele>354.2</ele>
        <time>2012-12-29T09:28:20.000Z</time>
      </trkpt>
      <trkpt lat="44.11318" lon="1.83542">
        <ele>354.3</ele>
        <time>2012-12-29T09:28:21.000Z</time>
      </trkpt>
      <trkpt lat="44.11317" lon="1.83537">
        <ele>354.6</ele>
        <time>2012-12-29T09:28:23.000Z</time>
      </trkpt>
      <trkpt lat="44.11316" lon="1.83536">
        <ele>354.7</ele>
        <time>2012-12-29T09:28:24.000Z</time>
      </trkpt>
      <trkpt lat="44.11314" lon="1.83531">
        <ele>355.4</ele>
        <time>2012-12-29T09:28:27.000Z</time>
      </trkpt>
      <trkpt lat="44.11313" lon="1.83529">
        <ele>355.6</ele>
        <time>2012-12-29T09:28:28.000Z</time>
      </trkpt>
      <trkpt lat="44.11312" lon="1.83524">
        <ele>355.9</ele>
        <time>2012-12-29T09:28:31.000Z</time>
      </trkpt>
      <trkpt lat="44.11312" lon="1.83522">
        <ele>356.1</ele>
        <time>2012-12-29T09:28:32.000Z</time>
      </trkpt>
      <trkpt lat="44.11311" lon="1.83516">
        <ele>356.6</ele>
        <time>2012-12-29T09:28:35.000Z</time>
      </trkpt>
      <trkpt lat="44.1131" lon="1.83515">
        <ele>356.8</ele>
        <time>2012-12-29T09:28:36.000Z</time>
      </trkpt>
      <trkpt lat="44.11308" lon="1.83511">
        <ele>357.3</ele>
        <time>2012-12-29T09:28:39.000Z</time>
      </trkpt>
      <trkpt lat="44.11307" lon="1.8351">
        <ele>357.4</ele>
        <time>2012-12-29T09:28:40.000Z</time>
      </trkpt>
      <trkpt lat="44.11303" lon="1.83506">
        <ele>357.6</ele>
        <time>2012-12-29T09:28:44.000Z</time>
      </trkpt>
      <trkpt lat="44.11302" lon="1.83505">
        <ele>357.7</ele>
        <time>2012-12-29T09:28:45.000Z</time>
      </trkpt>
      <trkpt lat="44.11298" lon="1.83502">
        <ele>357.8</ele>
        <time>2012-12-29T09:28:48.000Z</time>
      </trkpt>
      <trkpt lat="44.11297" lon="1.83502">
        <ele>357.9</ele>
        <time>2012-12-29T09:28:49.000Z</time>
      </trkpt>
      <trkpt lat="44.11293" lon="1.83502">
        <ele>358.2</ele>
        <time>2012-12-29T09:28:53.000Z</time>
      </trkpt>
      <trkpt lat="44.11291" lon="1.83502">
        <ele>358.3</ele>
        <time>2012-12-29T09:28:54.000Z</time>
      </trkpt>
      <trkpt lat="44.11286" lon="1.83503">
        <ele>358.7</ele>
        <time>2012-12-29T09:28:57.000Z</time>
      </trkpt>
      <trkpt lat="44.11285" lon="1.83504">
        <ele>358.8</ele>
        <time>2012-12-29T09:28:58.000Z</time>
      </trkpt>
      <trkpt lat="44.11282" lon="1.83507">
        <ele>359</ele>
        <time>2012-12-29T09:29:01.000Z</time>
      </trkpt>
      <trkpt lat="44.11281" lon="1.83507">
        <ele>359.2</ele>
        <time>2012-12-29T09:29:02.000Z</time>
      </trkpt>
      <trkpt lat="44.11278" lon="1.83508">
        <ele>359.4</ele>
        <time>2012-12-29T09:29:04.000Z</time>
      </trkpt>
      <trkpt lat="44.11276" lon="1.83509">
        <ele>359.5</ele>
        <time>2012-12-29T09:29:05.000Z</time>
      </trkpt>
      <trkpt lat="44.11272" lon="1.83512">
        <ele>360.1</ele>
        <time>2012-12-29T09:29:09.000Z</time>
      </trkpt>
      <trkpt lat="44.11271" lon="1.83513">
        <ele>360.3</ele>
        <time>2012-12-29T09:29:10.000Z</time>
      </trkpt>
      <trkpt lat="44.11267" lon="1.83516">
        <ele>360.9</ele>
        <time>2012-12-29T09:29:14.000Z</time>
      </trkpt>
      <trkpt lat="44.11266" lon="1.83517">
        <ele>361</ele>
        <time>2012-12-29T09:29:15.000Z</time>
      </trkpt>
      <trkpt lat="44.11264" lon="1.8352">
        <ele>361.4</ele>
        <time>2012-12-29T09:29:18.000Z</time>
      </trkpt>
      <trkpt lat="44.11263" lon="1.83522">
        <ele>361.5</ele>
        <time>2012-12-29T09:29:19.000Z</time>
      </trkpt>
      <trkpt lat="44.11259" lon="1.83525">
        <ele>361.9</ele>
        <time>2012-12-29T09:29:22.000Z</time>
      </trkpt>
      <trkpt lat="44.11257" lon="1.83526">
        <ele>362</ele>
        <time>2012-12-29T09:29:23.000Z</time>
      </trkpt>
      <trkpt lat="44.11253" lon="1.83529">
        <ele>362.4</ele>
        <time>2012-12-29T09:29:26.000Z</time>
      </trkpt>
      <trkpt lat="44.11252" lon="1.83529">
        <ele>362.6</ele>
        <time>2012-12-29T09:29:27.000Z</time>
      </trkpt>
      <trkpt lat="44.11248" lon="1.83532">
        <ele>363.1</ele>
        <time>2012-12-29T09:29:31.000Z</time>
      </trkpt>
      <trkpt lat="44.11247" lon="1.83533">
        <ele>363.3</ele>
        <time>2012-12-29T09:29:32.000Z</time>
      </trkpt>
      <trkpt lat="44.11244" lon="1.83536">
        <ele>363.6</ele>
        <time>2012-12-29T09:29:35.000Z</time>
      </trkpt>
      <trkpt lat="44.11243" lon="1.83537">
        <ele>363.7</ele>
        <time>2012-12-29T09:29:36.000Z</time>
      </trkpt>
      <trkpt lat="44.11241" lon="1.83542">
        <ele>364.7</ele>
        <time>2012-12-29T09:29:40.000Z</time>
      </trkpt>
      <trkpt lat="44.1124" lon="1.83543">
        <ele>364.8</ele>
        <time>2012-12-29T09:29:41.000Z</time>
      </trkpt>
      <trkpt lat="44.11238" lon="1.83548">
        <ele>365.2</ele>
        <time>2012-12-29T09:29:44.000Z</time>
      </trkpt>
      <trkpt lat="44.11238" lon="1.8355">
        <ele>365.3</ele>
        <time>2012-12-29T09:29:45.000Z</time>
      </trkpt>
      <trkpt lat="44.11237" lon="1.83555">
        <ele>365.6</ele>
        <time>2012-12-29T09:29:48.000Z</time>
      </trkpt>
      <trkpt lat="44.11236" lon="1.83558">
        <ele>365.7</ele>
        <time>2012-12-29T09:29:49.000Z</time>
      </trkpt>
      <trkpt lat="44.11234" lon="1.83563">
        <ele>366.2</ele>
        <time>2012-12-29T09:29:53.000Z</time>
      </trkpt>
      <trkpt lat="44.11234" lon="1.83564">
        <ele>366.3</ele>
        <time>2012-12-29T09:29:54.000Z</time>
      </trkpt>
      <trkpt lat="44.11231" lon="1.83568">
        <ele>366.4</ele>
        <time>2012-12-29T09:29:56.000Z</time>
      </trkpt>
      <trkpt lat="44.1123" lon="1.8357">
        <ele>366.3</ele>
        <time>2012-12-29T09:29:57.000Z</time>
      </trkpt>
      <trkpt lat="44.11228" lon="1.83575">
        <ele>366.4</ele>
        <time>2012-12-29T09:30:00.000Z</time>
      </trkpt>
      <trkpt lat="44.11227" lon="1.83577">
        <ele>366.5</ele>
        <time>2012-12-29T09:30:01.000Z</time>
      </trkpt>
      <trkpt lat="44.11225" lon="1.8358">
        <ele>366.7</ele>
        <time>2012-12-29T09:30:03.000Z</time>
      </trkpt>
      <trkpt lat="44.11224" lon="1.83582">
        <ele>366.8</ele>
        <time>2012-12-29T09:30:04.000Z</time>
      </trkpt>
      <trkpt lat="44.11223" lon="1.83586">
        <ele>367.1</ele>
        <time>2012-12-29T09:30:06.000Z</time>
      </trkpt>
      <trkpt lat="44.11222" lon="1.83588">
        <ele>367.2</ele>
        <time>2012-12-29T09:30:07.000Z</time>
      </trkpt>
      <trkpt lat="44.1122" lon="1.83593">
        <ele>367.5</ele>
        <time>2012-12-29T09:30:10.000Z</time>
      </trkpt>
      <trkpt lat="44.11219" lon="1.83594">
        <ele>367.6</ele>
        <time>2012-12-29T09:30:11.000Z</time>
      </trkpt>
      <trkpt lat="44.11217" lon="1.836">
        <ele>368</ele>
        <time>2012-12-29T09:30:14.000Z</time>
      </trkpt>
      <trkpt lat="44.11217" lon="1.83601">
        <ele>368.1</ele>
        <time>2012-12-29T09:30:15.000Z</time>
      </trkpt>
      <trkpt lat="44.11215" lon="1.83605">
        <ele>368.5</ele>
        <time>2012-12-29T09:30:18.000Z</time>
      </trkpt>
      <trkpt lat="44.11215" lon="1.83606">
        <ele>368.5</ele>
        <time>2012-12-29T09:30:19.000Z</time>
      </trkpt>
      <trkpt lat="44.11213" lon="1.83612">
        <ele>368.8</ele>
        <time>2012-12-29T09:30:23.000Z</time>
      </trkpt>
      <trkpt lat="44.11213" lon="1.83614">
        <ele>368.8</ele>
        <time>2012-12-29T09:30:24.000Z</time>
      </trkpt>
      <trkpt lat="44.11211" lon="1.83618">
        <ele>368.8</ele>
        <time>2012-12-29T09:30:27.000Z</time>
      </trkpt>
      <trkpt lat="44.11211" lon="1.83619">
        <ele>368.9</ele>
        <time>2012-12-29T09:30:28.000Z</time>
      </trkpt>
      <trkpt lat="44.1121" lon="1.83624">
        <ele>368.8</ele>
        <time>2012-12-29T09:30:32.000Z</time>
      </trkpt>
      <trkpt lat="44.1121" lon="1.83626">
        <ele>368.8</ele>
        <time>2012-12-29T09:30:33.000Z</time>
      </trkpt>
      <trkpt lat="44.11209" lon="1.83632">
        <ele>369</ele>
        <time>2012-12-29T09:30:36.000Z</time>
      </trkpt>
      <trkpt lat="44.11208" lon="1.83635">
        <ele>369</ele>
        <time>2012-12-29T09:30:37.000Z</time>
      </trkpt>
      <trkpt lat="44.11207" lon="1.83638">
        <ele>369</ele>
        <time>2012-12-29T09:30:38.000Z</time>
      </trkpt>
      <trkpt lat="44.11207" lon="1.83641">
        <ele>369</ele>
        <time>2012-12-29T09:30:39.000Z</time>
      </trkpt>
      <trkpt lat="44.11206" lon="1.83645">
        <ele>369.1</ele>
        <time>2012-12-29T09:30:41.000Z</time>
      </trkpt>
      <trkpt lat="44.11206" lon="1.83647">
        <ele>369.1</ele>
        <time>2012-12-29T09:30:42.000Z</time>
      </trkpt>
      <trkpt lat="44.11205" lon="1.83652">
        <ele>369.1</ele>
        <time>2012-12-29T09:30:44.000Z</time>
      </trkpt>
      <trkpt lat="44.11204" lon="1.83654">
        <ele>369.1</ele>
        <time>2012-12-29T09:30:45.000Z</time>
      </trkpt>
      <trkpt lat="44.11203" lon="1.8366">
        <ele>369.2</ele>
        <time>2012-12-29T09:30:48.000Z</time>
      </trkpt>
      <trkpt lat="44.11202" lon="1.83661">
        <ele>369.3</ele>
        <time>2012-12-29T09:30:49.000Z</time>
      </trkpt>
      <trkpt lat="44.112" lon="1.83667">
        <ele>369.4</ele>
        <time>2012-12-29T09:30:52.000Z</time>
      </trkpt>
      <trkpt lat="44.112" lon="1.83668">
        <ele>369.4</ele>
        <time>2012-12-29T09:30:53.000Z</time>
      </trkpt>
      <trkpt lat="44.11198" lon="1.83672">
        <ele>369.5</ele>
        <time>2012-12-29T09:30:56.000Z</time>
      </trkpt>
      <trkpt lat="44.11197" lon="1.83675">
        <ele>369.5</ele>
        <time>2012-12-29T09:30:57.000Z</time>
      </trkpt>
      <trkpt lat="44.11195" lon="1.8368">
        <ele>369.6</ele>
        <time>2012-12-29T09:30:59.000Z</time>
      </trkpt>
      <trkpt lat="44.11194" lon="1.83682">
        <ele>369.7</ele>
        <time>2012-12-29T09:31:00.000Z</time>
      </trkpt>
      <trkpt lat="44.11193" lon="1.83687">
        <ele>369.9</ele>
        <time>2012-12-29T09:31:02.000Z</time>
      </trkpt>
      <trkpt lat="44.11192" lon="1.83689">
        <ele>370</ele>
        <time>2012-12-29T09:31:03.000Z</time>
      </trkpt>
      <trkpt lat="44.1119" lon="1.83694">
        <ele>370.1</ele>
        <time>2012-12-29T09:31:06.000Z</time>
      </trkpt>
      <trkpt lat="44.1119" lon="1.83695">
        <ele>370.2</ele>
        <time>2012-12-29T09:31:07.000Z</time>
      </trkpt>
      <trkpt lat="44.11189" lon="1.83699">
        <ele>370.4</ele>
        <time>2012-12-29T09:31:09.000Z</time>
      </trkpt>
      <trkpt lat="44.11188" lon="1.83701">
        <ele>370.4</ele>
        <time>2012-12-29T09:31:10.000Z</time>
      </trkpt>
      <trkpt lat="44.11187" lon="1.83705">
        <ele>370.9</ele>
        <time>2012-12-29T09:31:13.000Z</time>
      </trkpt>
      <trkpt lat="44.11186" lon="1.83707">
        <ele>371</ele>
        <time>2012-12-29T09:31:14.000Z</time>
      </trkpt>
      <trkpt lat="44.11184" lon="1.83711">
        <ele>371.3</ele>
        <time>2012-12-29T09:31:16.000Z</time>
      </trkpt>
      <trkpt lat="44.11183" lon="1.83712">
        <ele>371.4</ele>
        <time>2012-12-29T09:31:17.000Z</time>
      </trkpt>
      <trkpt lat="44.11179" lon="1.83715">
        <ele>371.8</ele>
        <time>2012-12-29T09:31:19.000Z</time>
      </trkpt>
      <trkpt lat="44.11177" lon="1.83717">
        <ele>372</ele>
        <time>2012-12-29T09:31:20.000Z</time>
      </trkpt>
      <trkpt lat="44.11173" lon="1.83718">
        <ele>372.2</ele>
        <time>2012-12-29T09:31:22.000Z</time>
      </trkpt>
      <trkpt lat="44.11172" lon="1.83717">
        <ele>372.4</ele>
        <time>2012-12-29T09:31:23.000Z</time>
      </trkpt>
      <trkpt lat="44.1117" lon="1.83713">
        <ele>372.7</ele>
        <time>2012-12-29T09:31:25.000Z</time>
      </trkpt>
      <trkpt lat="44.11169" lon="1.8371">
        <ele>372.9</ele>
        <time>2012-12-29T09:31:26.000Z</time>
      </trkpt>
      <trkpt lat="44.11168" lon="1.83704">
        <ele>373.2</ele>
        <time>2012-12-29T09:31:28.000Z</time>
      </trkpt>
      <trkpt lat="44.11168" lon="1.83701">
        <ele>373.3</ele>
        <time>2012-12-29T09:31:29.000Z</time>
      </trkpt>
      <trkpt lat="44.11169" lon="1.83697">
        <ele>373.5</ele>
        <time>2012-12-29T09:31:31.000Z</time>
      </trkpt>
      <trkpt lat="44.11169" lon="1.83694">
        <ele>373.5</ele>
        <time>2012-12-29T09:31:32.000Z</time>
      </trkpt>
      <trkpt lat="44.1117" lon="1.83691">
        <ele>373.7</ele>
        <time>2012-12-29T09:31:34.000Z</time>
      </trkpt>
      <trkpt lat="44.1117" lon="1.83688">
        <ele>373.8</ele>
        <time>2012-12-29T09:31:35.000Z</time>
      </trkpt>
      <trkpt lat="44.1117" lon="1.83684">
        <ele>374</ele>
        <time>2012-12-29T09:31:37.000Z</time>
      </trkpt>
      <trkpt lat="44.1117" lon="1.83681">
        <ele>374.1</ele>
        <time>2012-12-29T09:31:38.000Z</time>
      </trkpt>
      <trkpt lat="44.1117" lon="1.83676">
        <ele>374.4</ele>
        <time>2012-12-29T09:31:40.000Z</time>
      </trkpt>
      <trkpt lat="44.1117" lon="1.83673">
        <ele>374.5</ele>
        <time>2012-12-29T09:31:41.000Z</time>
      </trkpt>
      <trkpt lat="44.11171" lon="1.83667">
        <ele>374.7</ele>
        <time>2012-12-29T09:31:43.000Z</time>
      </trkpt>
      <trkpt lat="44.1117" lon="1.83664">
        <ele>374.9</ele>
        <time>2012-12-29T09:31:44.000Z</time>
      </trkpt>
      <trkpt lat="44.11171" lon="1.83659">
        <ele>375.3</ele>
        <time>2012-12-29T09:31:46.000Z</time>
      </trkpt>
      <trkpt lat="44.11172" lon="1.83656">
        <ele>375.5</ele>
        <time>2012-12-29T09:31:47.000Z</time>
      </trkpt>
      <trkpt lat="44.11173" lon="1.83651">
        <ele>375.9</ele>
        <time>2012-12-29T09:31:49.000Z</time>
      </trkpt>
      <trkpt lat="44.11173" lon="1.83649">
        <ele>376</ele>
        <time>2012-12-29T09:31:50.000Z</time>
      </trkpt>
      <trkpt lat="44.11174" lon="1.83643">
        <ele>376.7</ele>
        <time>2012-12-29T09:31:54.000Z</time>
      </trkpt>
      <trkpt lat="44.11174" lon="1.83641">
        <ele>376.9</ele>
        <time>2012-12-29T09:31:55.000Z</time>
      </trkpt>
      <trkpt lat="44.11174" lon="1.83635">
        <ele>377.6</ele>
        <time>2012-12-29T09:31:58.000Z</time>
      </trkpt>
      <trkpt lat="44.11173" lon="1.83633">
        <ele>377.8</ele>
        <time>2012-12-29T09:31:59.000Z</time>
      </trkpt>
      <trkpt lat="44.11173" lon="1.83628">
        <ele>379.1</ele>
        <time>2012-12-29T09:32:02.999Z</time>
      </trkpt>
      <trkpt lat="44.11172" lon="1.83627">
        <ele>379.4</ele>
        <time>2012-12-29T09:32:03.999Z</time>
      </trkpt>
      <trkpt lat="44.11172" lon="1.83623">
        <ele>379.8</ele>
        <time>2012-12-29T09:32:05.999Z</time>
      </trkpt>
      <trkpt lat="44.11171" lon="1.83621">
        <ele>380</ele>
        <time>2012-12-29T09:32:06.999Z</time>
      </trkpt>
      <trkpt lat="44.1117" lon="1.83616">
        <ele>380.6</ele>
        <time>2012-12-29T09:32:09.999Z</time>
      </trkpt>
      <trkpt lat="44.11169" lon="1.83614">
        <ele>380.8</ele>
        <time>2012-12-29T09:32:10.999Z</time>
      </trkpt>
      <trkpt lat="44.11168" lon="1.83611">
        <ele>381.2</ele>
        <time>2012-12-29T09:32:12.999Z</time>
      </trkpt>
      <trkpt lat="44.11167" lon="1.83609">
        <ele>381.4</ele>
        <time>2012-12-29T09:32:13.999Z</time>
      </trkpt>
      <trkpt lat="44.11164" lon="1.83604">
        <ele>382</ele>
        <time>2012-12-29T09:32:16.999Z</time>
      </trkpt>
      <trkpt lat="44.11163" lon="1.83603">
        <ele>382.2</ele>
        <time>2012-12-29T09:32:17.999Z</time>
      </trkpt>
      <trkpt lat="44.1116" lon="1.83599">
        <ele>382.8</ele>
        <time>2012-12-29T09:32:20.999Z</time>
      </trkpt>
      <trkpt lat="44.11158" lon="1.83598">
        <ele>383</ele>
        <time>2012-12-29T09:32:21.999Z</time>
      </trkpt>
      <trkpt lat="44.11154" lon="1.83597">
        <ele>383.7</ele>
        <time>2012-12-29T09:32:24.999Z</time>
      </trkpt>
      <trkpt lat="44.11153" lon="1.83597">
        <ele>383.9</ele>
        <time>2012-12-29T09:32:25.999Z</time>
      </trkpt>
      <trkpt lat="44.11149" lon="1.83594">
        <ele>384.7</ele>
        <time>2012-12-29T09:32:28.999Z</time>
      </trkpt>
      <trkpt lat="44.11148" lon="1.83594">
        <ele>384.9</ele>
        <time>2012-12-29T09:32:29.999Z</time>
      </trkpt>
      <trkpt lat="44.11145" lon="1.83592">
        <ele>385.6</ele>
        <time>2012-12-29T09:32:32.999Z</time>
      </trkpt>
      <trkpt lat="44.11144" lon="1.83591">
        <ele>385.8</ele>
        <time>2012-12-29T09:32:33.999Z</time>
      </trkpt>
      <trkpt lat="44.11142" lon="1.83587">
        <ele>386.3</ele>
        <time>2012-12-29T09:32:36.999Z</time>
      </trkpt>
      <trkpt lat="44.11141" lon="1.83586">
        <ele>386.4</ele>
        <time>2012-12-29T09:32:37.999Z</time>
      </trkpt>
      <trkpt lat="44.11139" lon="1.83581">
        <ele>386.9</ele>
        <time>2012-12-29T09:32:40.999Z</time>
      </trkpt>
      <trkpt lat="44.11138" lon="1.83579">
        <ele>387</ele>
        <time>2012-12-29T09:32:41.999Z</time>
      </trkpt>
      <trkpt lat="44.11135" lon="1.83576">
        <ele>387.6</ele>
        <time>2012-12-29T09:32:44.999Z</time>
      </trkpt>
      <trkpt lat="44.11134" lon="1.83575">
        <ele>387.8</ele>
        <time>2012-12-29T09:32:45.999Z</time>
      </trkpt>
      <trkpt lat="44.11131" lon="1.83573">
        <ele>388</ele>
        <time>2012-12-29T09:32:47.999Z</time>
      </trkpt>
      <trkpt lat="44.1113" lon="1.83572">
        <ele>388</ele>
        <time>2012-12-29T09:32:48.999Z</time>
      </trkpt>
      <trkpt lat="44.11127" lon="1.83569">
        <ele>388.6</ele>
        <time>2012-12-29T09:32:51.999Z</time>
      </trkpt>
      <trkpt lat="44.11126" lon="1.83569">
        <ele>388.8</ele>
        <time>2012-12-29T09:32:52.999Z</time>
      </trkpt>
      <trkpt lat="44.11123" lon="1.83566">
        <ele>389.3</ele>
        <time>2012-12-29T09:32:55.999Z</time>
      </trkpt>
      <trkpt lat="44.11122" lon="1.83565">
        <ele>389.5</ele>
        <time>2012-12-29T09:32:56.999Z</time>
      </trkpt>
      <trkpt lat="44.11119" lon="1.83562">
        <ele>390</ele>
        <time>2012-12-29T09:32:59.999Z</time>
      </trkpt>
      <trkpt lat="44.11118" lon="1.83561">
        <ele>390.2</ele>
        <time>2012-12-29T09:33:00.999Z</time>
      </trkpt>
      <trkpt lat="44.11115" lon="1.83556">
        <ele>390.5</ele>
        <time>2012-12-29T09:33:03.999Z</time>
      </trkpt>
      <trkpt lat="44.11114" lon="1.83555">
        <ele>390.7</ele>
        <time>2012-12-29T09:33:04.999Z</time>
      </trkpt>
      <trkpt lat="44.11111" lon="1.83551">
        <ele>391.2</ele>
        <time>2012-12-29T09:33:08.999Z</time>
      </trkpt>
      <trkpt lat="44.1111" lon="1.8355">
        <ele>391.3</ele>
        <time>2012-12-29T09:33:09.999Z</time>
      </trkpt>
      <trkpt lat="44.11107" lon="1.83545">
        <ele>391.7</ele>
        <time>2012-12-29T09:33:12.999Z</time>
      </trkpt>
      <trkpt lat="44.11106" lon="1.83544">
        <ele>391.8</ele>
        <time>2012-12-29T09:33:13.999Z</time>
      </trkpt>
      <trkpt lat="44.11104" lon="1.83538">
        <ele>392.1</ele>
        <time>2012-12-29T09:33:16.999Z</time>
      </trkpt>
      <trkpt lat="44.11104" lon="1.83537">
        <ele>392.2</ele>
        <time>2012-12-29T09:33:17.999Z</time>
      </trkpt>
      <trkpt lat="44.11101" lon="1.83533">
        <ele>392.7</ele>
        <time>2012-12-29T09:33:20.999Z</time>
      </trkpt>
      <trkpt lat="44.111" lon="1.83531">
        <ele>392.9</ele>
        <time>2012-12-29T09:33:21.999Z</time>
      </trkpt>
      <trkpt lat="44.11098" lon="1.83527">
        <ele>393.6</ele>
        <time>2012-12-29T09:33:24.999Z</time>
      </trkpt>
      <trkpt lat="44.11098" lon="1.83525">
        <ele>393.8</ele>
        <time>2012-12-29T09:33:25.999Z</time>
      </trkpt>
      <trkpt lat="44.11097" lon="1.8352">
        <ele>394.4</ele>
        <time>2012-12-29T09:33:29.999Z</time>
      </trkpt>
      <trkpt lat="44.11096" lon="1.83518">
        <ele>394.5</ele>
        <time>2012-12-29T09:33:30.999Z</time>
      </trkpt>
      <trkpt lat="44.11095" lon="1.83513">
        <ele>394.6</ele>
        <time>2012-12-29T09:33:33.999Z</time>
      </trkpt>
      <trkpt lat="44.11094" lon="1.83512">
        <ele>394.7</ele>
        <time>2012-12-29T09:33:34.999Z</time>
      </trkpt>
      <trkpt lat="44.11093" lon="1.83508">
        <ele>395</ele>
        <time>2012-12-29T09:33:36.999Z</time>
      </trkpt>
      <trkpt lat="44.11092" lon="1.83505">
        <ele>395</ele>
        <time>2012-12-29T09:33:37.999Z</time>
      </trkpt>
      <trkpt lat="44.11092" lon="1.835">
        <ele>395.4</ele>
        <time>2012-12-29T09:33:40.999Z</time>
      </trkpt>
      <trkpt lat="44.11092" lon="1.83498">
        <ele>395.5</ele>
        <time>2012-12-29T09:33:41.999Z</time>
      </trkpt>
      <trkpt lat="44.11092" lon="1.83492">
        <ele>396.1</ele>
        <time>2012-12-29T09:33:44.999Z</time>
      </trkpt>
      <trkpt lat="44.11092" lon="1.8349">
        <ele>396.2</ele>
        <time>2012-12-29T09:33:45.999Z</time>
      </trkpt>
      <trkpt lat="44.11091" lon="1.83485">
        <ele>396.8</ele>
        <time>2012-12-29T09:33:48.999Z</time>
      </trkpt>
      <trkpt lat="44.11091" lon="1.83483">
        <ele>397</ele>
        <time>2012-12-29T09:33:49.999Z</time>
      </trkpt>
      <trkpt lat="44.1109" lon="1.83479">
        <ele>397.3</ele>
        <time>2012-12-29T09:33:51.999Z</time>
      </trkpt>
      <trkpt lat="44.1109" lon="1.83476">
        <ele>397.5</ele>
        <time>2012-12-29T09:33:52.999Z</time>
      </trkpt>
      <trkpt lat="44.11089" lon="1.8347">
        <ele>397.8</ele>
        <time>2012-12-29T09:33:55.999Z</time>
      </trkpt>
      <trkpt lat="44.11089" lon="1.83469">
        <ele>397.9</ele>
        <time>2012-12-29T09:33:56.999Z</time>
      </trkpt>
      <trkpt lat="44.11089" lon="1.83464">
        <ele>397.9</ele>
        <time>2012-12-29T09:33:58.999Z</time>
      </trkpt>
      <trkpt lat="44.11089" lon="1.83461">
        <ele>398</ele>
        <time>2012-12-29T09:33:59.999Z</time>
      </trkpt>
      <trkpt lat="44.11089" lon="1.83456">
        <ele>398.3</ele>
        <time>2012-12-29T09:34:02.999Z</time>
      </trkpt>
      <trkpt lat="44.1109" lon="1.83454">
        <ele>398.5</ele>
        <time>2012-12-29T09:34:03.999Z</time>
      </trkpt>
      <trkpt lat="44.11091" lon="1.83449">
        <ele>398.7</ele>
        <time>2012-12-29T09:34:05.999Z</time>
      </trkpt>
      <trkpt lat="44.11091" lon="1.83447">
        <ele>398.9</ele>
        <time>2012-12-29T09:34:06.999Z</time>
      </trkpt>
      <trkpt lat="44.11091" lon="1.83442">
        <ele>399.3</ele>
        <time>2012-12-29T09:34:08.999Z</time>
      </trkpt>
      <trkpt lat="44.11091" lon="1.83439">
        <ele>399.5</ele>
        <time>2012-12-29T09:34:09.999Z</time>
      </trkpt>
      <trkpt lat="44.11091" lon="1.83434">
        <ele>399.7</ele>
        <time>2012-12-29T09:34:11.999Z</time>
      </trkpt>
      <trkpt lat="44.11091" lon="1.8343">
        <ele>399.9</ele>
        <time>2012-12-29T09:34:12.999Z</time>
      </trkpt>
      <trkpt lat="44.11092" lon="1.83426">
        <ele>400.1</ele>
        <time>2012-12-29T09:34:14.999Z</time>
      </trkpt>
      <trkpt lat="44.11092" lon="1.83424">
        <ele>400.2</ele>
        <time>2012-12-29T09:34:15.999Z</time>
      </trkpt>
      <trkpt lat="44.11094" lon="1.83421">
        <ele>400.4</ele>
        <time>2012-12-29T09:34:17.999Z</time>
      </trkpt>
      <trkpt lat="44.11095" lon="1.83419">
        <ele>400.5</ele>
        <time>2012-12-29T09:34:18.999Z</time>
      </trkpt>
      <trkpt lat="44.11097" lon="1.83417">
        <ele>400.7</ele>
        <time>2012-12-29T09:34:20.999Z</time>
      </trkpt>
      <trkpt lat="44.11099" lon="1.83415">
        <ele>400.8</ele>
        <time>2012-12-29T09:34:21.999Z</time>
      </trkpt>
      <trkpt lat="44.11102" lon="1.83411">
        <ele>401.1</ele>
        <time>2012-12-29T09:34:23.999Z</time>
      </trkpt>
      <trkpt lat="44.11103" lon="1.83409">
        <ele>401.3</ele>
        <time>2012-12-29T09:34:24.999Z</time>
      </trkpt>
      <trkpt lat="44.11105" lon="1.83404">
        <ele>401.5</ele>
        <time>2012-12-29T09:34:26.999Z</time>
      </trkpt>
      <trkpt lat="44.11106" lon="1.83401">
        <ele>401.6</ele>
        <time>2012-12-29T09:34:27.999Z</time>
      </trkpt>
      <trkpt lat="44.11107" lon="1.83396">
        <ele>401.8</ele>
        <time>2012-12-29T09:34:29.999Z</time>
      </trkpt>
      <trkpt lat="44.11108" lon="1.83393">
        <ele>401.9</ele>
        <time>2012-12-29T09:34:30.999Z</time>
      </trkpt>
      <trkpt lat="44.11109" lon="1.83388">
        <ele>402.1</ele>
        <time>2012-12-29T09:34:32.999Z</time>
      </trkpt>
      <trkpt lat="44.1111" lon="1.83386">
        <ele>402.2</ele>
        <time>2012-12-29T09:34:33.999Z</time>
      </trkpt>
      <trkpt lat="44.11112" lon="1.8338">
        <ele>402.4</ele>
        <time>2012-12-29T09:34:35.999Z</time>
      </trkpt>
      <trkpt lat="44.11113" lon="1.83378">
        <ele>402.5</ele>
        <time>2012-12-29T09:34:36.999Z</time>
      </trkpt>
      <trkpt lat="44.11114" lon="1.83375">
        <ele>402.6</ele>
        <time>2012-12-29T09:34:37.999Z</time>
      </trkpt>
      <trkpt lat="44.11115" lon="1.83372">
        <ele>402.7</ele>
        <time>2012-12-29T09:34:38.999Z</time>
      </trkpt>
      <trkpt lat="44.11116" lon="1.83367">
        <ele>402.8</ele>
        <time>2012-12-29T09:34:40.999Z</time>
      </trkpt>
      <trkpt lat="44.11117" lon="1.83364">
        <ele>402.9</ele>
        <time>2012-12-29T09:34:41.999Z</time>
      </trkpt>
      <trkpt lat="44.11118" lon="1.8336">
        <ele>403.1</ele>
        <time>2012-12-29T09:34:43.999Z</time>
      </trkpt>
      <trkpt lat="44.11118" lon="1.83357">
        <ele>403.2</ele>
        <time>2012-12-29T09:34:44.999Z</time>
      </trkpt>
      <trkpt lat="44.11119" lon="1.83352">
        <ele>403.3</ele>
        <time>2012-12-29T09:34:46.999Z</time>
      </trkpt>
      <trkpt lat="44.11119" lon="1.83349">
        <ele>403.3</ele>
        <time>2012-12-29T09:34:47.999Z</time>
      </trkpt>
      <trkpt lat="44.11119" lon="1.83344">
        <ele>403.4</ele>
        <time>2012-12-29T09:34:49.999Z</time>
      </trkpt>
      <trkpt lat="44.11119" lon="1.83342">
        <ele>403.4</ele>
        <time>2012-12-29T09:34:50.999Z</time>
      </trkpt>
      <trkpt lat="44.11119" lon="1.83339">
        <ele>403.4</ele>
        <time>2012-12-29T09:34:51.999Z</time>
      </trkpt>
      <trkpt lat="44.11119" lon="1.83335">
        <ele>403.3</ele>
        <time>2012-12-29T09:34:52.999Z</time>
      </trkpt>
      <trkpt lat="44.1112" lon="1.83331">
        <ele>403.4</ele>
        <time>2012-12-29T09:34:53.999Z</time>
      </trkpt>
      <trkpt lat="44.11119" lon="1.83328">
        <ele>403.6</ele>
        <time>2012-12-29T09:34:54.999Z</time>
      </trkpt>
      <trkpt lat="44.11118" lon="1.83323">
        <ele>403.8</ele>
        <time>2012-12-29T09:34:56.999Z</time>
      </trkpt>
      <trkpt lat="44.11117" lon="1.8332">
        <ele>403.9</ele>
        <time>2012-12-29T09:34:57.999Z</time>
      </trkpt>
      <trkpt lat="44.11116" lon="1.83317">
        <ele>404</ele>
        <time>2012-12-29T09:34:58.999Z</time>
      </trkpt>
      <trkpt lat="44.11114" lon="1.83314">
        <ele>404</ele>
        <time>2012-12-29T09:34:59.999Z</time>
      </trkpt>
      <trkpt lat="44.11111" lon="1.8331">
        <ele>404.2</ele>
        <time>2012-12-29T09:35:01.999Z</time>
      </trkpt>
      <trkpt lat="44.11109" lon="1.83308">
        <ele>404.3</ele>
        <time>2012-12-29T09:35:02.999Z</time>
      </trkpt>
      <trkpt lat="44.11107" lon="1.83303">
        <ele>404.5</ele>
        <time>2012-12-29T09:35:04.999Z</time>
      </trkpt>
      <trkpt lat="44.11105" lon="1.833">
        <ele>404.7</ele>
        <time>2012-12-29T09:35:05.999Z</time>
      </trkpt>
      <trkpt lat="44.11103" lon="1.83298">
        <ele>404.8</ele>
        <time>2012-12-29T09:35:06.999Z</time>
      </trkpt>
      <trkpt lat="44.11102" lon="1.83295">
        <ele>404.9</ele>
        <time>2012-12-29T09:35:07.999Z</time>
      </trkpt>
      <trkpt lat="44.111" lon="1.83292">
        <ele>405</ele>
        <time>2012-12-29T09:35:08.999Z</time>
      </trkpt>
      <trkpt lat="44.11098" lon="1.83289">
        <ele>405.1</ele>
        <time>2012-12-29T09:35:09.999Z</time>
      </trkpt>
      <trkpt lat="44.11096" lon="1.83287">
        <ele>405.3</ele>
        <time>2012-12-29T09:35:10.999Z</time>
      </trkpt>
      <trkpt lat="44.11094" lon="1.83284">
        <ele>405.4</ele>
        <time>2012-12-29T09:35:11.999Z</time>
      </trkpt>
      <trkpt lat="44.11091" lon="1.8328">
        <ele>405.7</ele>
        <time>2012-12-29T09:35:13.999Z</time>
      </trkpt>
      <trkpt lat="44.11089" lon="1.83277">
        <ele>405.9</ele>
        <time>2012-12-29T09:35:14.999Z</time>
      </trkpt>
      <trkpt lat="44.11087" lon="1.83274">
        <ele>406.2</ele>
        <time>2012-12-29T09:35:16.999Z</time>
      </trkpt>
      <trkpt lat="44.11085" lon="1.83271">
        <ele>406.3</ele>
        <time>2012-12-29T09:35:17.999Z</time>
      </trkpt>
      <trkpt lat="44.11084" lon="1.83268">
        <ele>406.4</ele>
        <time>2012-12-29T09:35:18.999Z</time>
      </trkpt>
      <trkpt lat="44.11082" lon="1.83266">
        <ele>406.5</ele>
        <time>2012-12-29T09:35:19.999Z</time>
      </trkpt>
      <trkpt lat="44.11081" lon="1.83262">
        <ele>406.6</ele>
        <time>2012-12-29T09:35:20.999Z</time>
      </trkpt>
      <trkpt lat="44.1108" lon="1.8326">
        <ele>406.7</ele>
        <time>2012-12-29T09:35:21.999Z</time>
      </trkpt>
      <trkpt lat="44.11078" lon="1.83256">
        <ele>406.9</ele>
        <time>2012-12-29T09:35:23.999Z</time>
      </trkpt>
      <trkpt lat="44.11076" lon="1.83253">
        <ele>406.9</ele>
        <time>2012-12-29T09:35:24.999Z</time>
      </trkpt>
      <trkpt lat="44.11074" lon="1.8325">
        <ele>406.9</ele>
        <time>2012-12-29T09:35:25.999Z</time>
      </trkpt>
      <trkpt lat="44.11072" lon="1.83248">
        <ele>407</ele>
        <time>2012-12-29T09:35:26.999Z</time>
      </trkpt>
      <trkpt lat="44.1107" lon="1.83246">
        <ele>407</ele>
        <time>2012-12-29T09:35:27.999Z</time>
      </trkpt>
      <trkpt lat="44.11068" lon="1.83243">
        <ele>407</ele>
        <time>2012-12-29T09:35:28.999Z</time>
      </trkpt>
      <trkpt lat="44.11065" lon="1.8324">
        <ele>407</ele>
        <time>2012-12-29T09:35:29.999Z</time>
      </trkpt>
      <trkpt lat="44.11063" lon="1.83237">
        <ele>407.2</ele>
        <time>2012-12-29T09:35:30.999Z</time>
      </trkpt>
      <trkpt lat="44.11061" lon="1.83235">
        <ele>407.3</ele>
        <time>2012-12-29T09:35:31.999Z</time>
      </trkpt>
      <trkpt lat="44.1106" lon="1.83232">
        <ele>407.5</ele>
        <time>2012-12-29T09:35:32.999Z</time>
      </trkpt>
      <trkpt lat="44.11058" lon="1.8323">
        <ele>407.7</ele>
        <time>2012-12-29T09:35:33.999Z</time>
      </trkpt>
      <trkpt lat="44.11056" lon="1.83227">
        <ele>407.9</ele>
        <time>2012-12-29T09:35:34.999Z</time>
      </trkpt>
      <trkpt lat="44.11053" lon="1.83224">
        <ele>408</ele>
        <time>2012-12-29T09:35:36.999Z</time>
      </trkpt>
      <trkpt lat="44.11051" lon="1.83221">
        <ele>408.1</ele>
        <time>2012-12-29T09:35:37.999Z</time>
      </trkpt>
      <trkpt lat="44.1105" lon="1.8322">
        <ele>408.1</ele>
        <time>2012-12-29T09:35:38.999Z</time>
      </trkpt>
      <trkpt lat="44.11048" lon="1.83217">
        <ele>408.1</ele>
        <time>2012-12-29T09:35:39.999Z</time>
      </trkpt>
      <trkpt lat="44.11044" lon="1.83214">
        <ele>408.2</ele>
        <time>2012-12-29T09:35:41.999Z</time>
      </trkpt>
      <trkpt lat="44.11042" lon="1.83212">
        <ele>408.2</ele>
        <time>2012-12-29T09:35:42.999Z</time>
      </trkpt>
      <trkpt lat="44.1104" lon="1.8321">
        <ele>408.3</ele>
        <time>2012-12-29T09:35:43.999Z</time>
      </trkpt>
      <trkpt lat="44.11038" lon="1.83208">
        <ele>408.3</ele>
        <time>2012-12-29T09:35:44.999Z</time>
      </trkpt>
      <trkpt lat="44.11035" lon="1.83205">
        <ele>408.4</ele>
        <time>2012-12-29T09:35:45.999Z</time>
      </trkpt>
      <trkpt lat="44.11033" lon="1.83203">
        <ele>408.4</ele>
        <time>2012-12-29T09:35:46.999Z</time>
      </trkpt>
      <trkpt lat="44.11031" lon="1.83201">
        <ele>408.5</ele>
        <time>2012-12-29T09:35:47.999Z</time>
      </trkpt>
      <trkpt lat="44.11028" lon="1.83199">
        <ele>408.6</ele>
        <time>2012-12-29T09:35:48.999Z</time>
      </trkpt>
      <trkpt lat="44.11025" lon="1.83195">
        <ele>408.8</ele>
        <time>2012-12-29T09:35:50.999Z</time>
      </trkpt>
      <trkpt lat="44.11024" lon="1.83193">
        <ele>408.8</ele>
        <time>2012-12-29T09:35:51.999Z</time>
      </trkpt>
      <trkpt lat="44.11021" lon="1.83189">
        <ele>409</ele>
        <time>2012-12-29T09:35:53.999Z</time>
      </trkpt>
      <trkpt lat="44.1102" lon="1.83186">
        <ele>409.1</ele>
        <time>2012-12-29T09:35:54.999Z</time>
      </trkpt>
      <trkpt lat="44.11019" lon="1.83183">
        <ele>409.2</ele>
        <time>2012-12-29T09:35:55.999Z</time>
      </trkpt>
      <trkpt lat="44.11017" lon="1.83181">
        <ele>409.2</ele>
        <time>2012-12-29T09:35:56.999Z</time>
      </trkpt>
      <trkpt lat="44.11015" lon="1.83177">
        <ele>409.3</ele>
        <time>2012-12-29T09:35:57.999Z</time>
      </trkpt>
      <trkpt lat="44.11014" lon="1.83174">
        <ele>409.3</ele>
        <time>2012-12-29T09:35:58.999Z</time>
      </trkpt>
      <trkpt lat="44.11012" lon="1.83172">
        <ele>409.4</ele>
        <time>2012-12-29T09:35:59.999Z</time>
      </trkpt>
      <trkpt lat="44.1101" lon="1.83169">
        <ele>409.5</ele>
        <time>2012-12-29T09:36:00.999Z</time>
      </trkpt>
      <trkpt lat="44.11008" lon="1.83166">
        <ele>409.5</ele>
        <time>2012-12-29T09:36:01.999Z</time>
      </trkpt>
      <trkpt lat="44.11006" lon="1.83163">
        <ele>409.5</ele>
        <time>2012-12-29T09:36:02.999Z</time>
      </trkpt>
      <trkpt lat="44.11004" lon="1.83161">
        <ele>409.5</ele>
        <time>2012-12-29T09:36:03.999Z</time>
      </trkpt>
      <trkpt lat="44.11001" lon="1.83158">
        <ele>409.6</ele>
        <time>2012-12-29T09:36:04.999Z</time>
      </trkpt>
      <trkpt lat="44.10999" lon="1.83156">
        <ele>409.6</ele>
        <time>2012-12-29T09:36:05.999Z</time>
      </trkpt>
      <trkpt lat="44.10997" lon="1.83153">
        <ele>409.7</ele>
        <time>2012-12-29T09:36:06.999Z</time>
      </trkpt>
      <trkpt lat="44.10995" lon="1.8315">
        <ele>409.8</ele>
        <time>2012-12-29T09:36:07.999Z</time>
      </trkpt>
      <trkpt lat="44.10993" lon="1.83148">
        <ele>409.9</ele>
        <time>2012-12-29T09:36:08.999Z</time>
      </trkpt>
      <trkpt lat="44.10991" lon="1.83145">
        <ele>410</ele>
        <time>2012-12-29T09:36:09.999Z</time>
      </trkpt>
      <trkpt lat="44.10989" lon="1.83143">
        <ele>410.1</ele>
        <time>2012-12-29T09:36:10.999Z</time>
      </trkpt>
      <trkpt lat="44.10986" lon="1.8314">
        <ele>410.4</ele>
        <time>2012-12-29T09:36:12.999Z</time>
      </trkpt>
      <trkpt lat="44.10984" lon="1.83139">
        <ele>410.5</ele>
        <time>2012-12-29T09:36:13.999Z</time>
      </trkpt>
      <trkpt lat="44.1098" lon="1.83136">
        <ele>411.2</ele>
        <time>2012-12-29T09:36:27.999Z</time>
      </trkpt>
      <trkpt lat="44.10979" lon="1.83136">
        <ele>411.2</ele>
        <time>2012-12-29T09:36:28.999Z</time>
      </trkpt>
      <trkpt lat="44.1098" lon="1.83142">
        <ele>412.3</ele>
        <time>2012-12-29T09:36:50.999Z</time>
      </trkpt>
      <trkpt lat="44.10981" lon="1.83144">
        <ele>412.4</ele>
        <time>2012-12-29T09:36:51.999Z</time>
      </trkpt>
      <trkpt lat="44.1098" lon="1.83149">
        <ele>412.6</ele>
        <time>2012-12-29T09:36:59.999Z</time>
      </trkpt>
      <trkpt lat="44.1098" lon="1.8315">
        <ele>412.6</ele>
        <time>2012-12-29T09:37:00.999Z</time>
      </trkpt>
      <trkpt lat="44.10982" lon="1.83144">
        <ele>411.3</ele>
        <time>2012-12-29T09:37:40.999Z</time>
      </trkpt>
      <trkpt lat="44.10982" lon="1.83143">
        <ele>411.2</ele>
        <time>2012-12-29T09:37:41.999Z</time>
      </trkpt>
      <trkpt lat="44.10984" lon="1.83138">
        <ele>411.1</ele>
        <time>2012-12-29T09:37:43.999Z</time>
      </trkpt>
      <trkpt lat="44.10984" lon="1.83137">
        <ele>411.1</ele>
        <time>2012-12-29T09:37:44.999Z</time>
      </trkpt>
      <trkpt lat="44.10987" lon="1.83133">
        <ele>413.1</ele>
        <time>2012-12-29T09:39:43.999Z</time>
      </trkpt>
      <trkpt lat="44.10987" lon="1.83133">
        <ele>413.1</ele>
        <time>2012-12-29T09:39:44.999Z</time>
      </trkpt>
      <trkpt lat="44.10986" lon="1.83138">
        <ele>412.6</ele>
        <time>2012-12-29T09:40:02.999Z</time>
      </trkpt>
      <trkpt lat="44.10986" lon="1.83139">
        <ele>412.6</ele>
        <time>2012-12-29T09:40:03.999Z</time>
      </trkpt>
      <trkpt lat="44.10984" lon="1.83133">
        <ele>411.3</ele>
        <time>2012-12-29T09:40:28.999Z</time>
      </trkpt>
      <trkpt lat="44.10983" lon="1.83133">
        <ele>411.3</ele>
        <time>2012-12-29T09:40:29.999Z</time>
      </trkpt>
      <trkpt lat="44.10981" lon="1.83138">
        <ele>410.7</ele>
        <time>2012-12-29T09:40:53.999Z</time>
      </trkpt>
      <trkpt lat="44.10981" lon="1.83138">
        <ele>410.7</ele>
        <time>2012-12-29T09:40:54.999Z</time>
      </trkpt>
      <trkpt lat="44.10985" lon="1.83136">
        <ele>411.2</ele>
        <time>2012-12-29T09:41:34.999Z</time>
      </trkpt>
      <trkpt lat="44.10985" lon="1.83136">
        <ele>411.2</ele>
        <time>2012-12-29T09:41:35.999Z</time>
      </trkpt>
      <trkpt lat="44.10981" lon="1.83135">
        <ele>413.4</ele>
        <time>2012-12-29T09:42:28.999Z</time>
      </trkpt>
      <trkpt lat="44.10981" lon="1.83134">
        <ele>413.4</ele>
        <time>2012-12-29T09:42:29.999Z</time>
      </trkpt>
      <trkpt lat="44.10977" lon="1.83135">
        <ele>412.2</ele>
        <time>2012-12-29T09:43:49.999Z</time>
      </trkpt>
      <trkpt lat="44.10976" lon="1.83135">
        <ele>412.2</ele>
        <time>2012-12-29T09:43:50.999Z</time>
      </trkpt>
      <trkpt lat="44.10979" lon="1.8313">
        <ele>412</ele>
        <time>2012-12-29T09:44:26.999Z</time>
      </trkpt>
      <trkpt lat="44.10979" lon="1.8313">
        <ele>412</ele>
        <time>2012-12-29T09:44:27.999Z</time>
      </trkpt>
      <trkpt lat="44.10982" lon="1.83133">
        <ele>413.2</ele>
        <time>2012-12-29T09:44:58.999Z</time>
      </trkpt>
      <trkpt lat="44.10983" lon="1.83133">
        <ele>413.2</ele>
        <time>2012-12-29T09:44:59.999Z</time>
      </trkpt>
      <trkpt lat="44.10986" lon="1.83136">
        <ele>413.6</ele>
        <time>2012-12-29T09:45:36.999Z</time>
      </trkpt>
      <trkpt lat="44.10987" lon="1.83136">
        <ele>413.7</ele>
        <time>2012-12-29T09:45:37.999Z</time>
      </trkpt>
      <trkpt lat="44.10991" lon="1.83137">
        <ele>414.2</ele>
        <time>2012-12-29T09:45:42.999Z</time>
      </trkpt>
      <trkpt lat="44.10992" lon="1.83136">
        <ele>414.2</ele>
        <time>2012-12-29T09:45:43.999Z</time>
      </trkpt>
      <trkpt lat="44.10996" lon="1.83135">
        <ele>414.4</ele>
        <time>2012-12-29T09:45:45.999Z</time>
      </trkpt>
      <trkpt lat="44.10999" lon="1.83134">
        <ele>414.5</ele>
        <time>2012-12-29T09:45:46.999Z</time>
      </trkpt>
      <trkpt lat="44.11001" lon="1.83132">
        <ele>414.6</ele>
        <time>2012-12-29T09:45:47.999Z</time>
      </trkpt>
      <trkpt lat="44.11004" lon="1.8313">
        <ele>414.8</ele>
        <time>2012-12-29T09:45:48.999Z</time>
      </trkpt>
      <trkpt lat="44.11008" lon="1.83128">
        <ele>414.8</ele>
        <time>2012-12-29T09:45:49.999Z</time>
      </trkpt>
      <trkpt lat="44.11011" lon="1.83125">
        <ele>414.8</ele>
        <time>2012-12-29T09:45:50.999Z</time>
      </trkpt>
      <trkpt lat="44.11016" lon="1.83122">
        <ele>415.2</ele>
        <time>2012-12-29T09:45:51.999Z</time>
      </trkpt>
      <trkpt lat="44.11021" lon="1.83119">
        <ele>415.1</ele>
        <time>2012-12-29T09:45:52.999Z</time>
      </trkpt>
      <trkpt lat="44.11026" lon="1.83115">
        <ele>414.5</ele>
        <time>2012-12-29T09:45:53.999Z</time>
      </trkpt>
      <trkpt lat="44.11032" lon="1.83111">
        <ele>413.7</ele>
        <time>2012-12-29T09:45:54.999Z</time>
      </trkpt>
      <trkpt lat="44.11037" lon="1.83107">
        <ele>412.7</ele>
        <time>2012-12-29T09:45:55.999Z</time>
      </trkpt>
      <trkpt lat="44.11043" lon="1.83104">
        <ele>411.3</ele>
        <time>2012-12-29T09:45:56.999Z</time>
      </trkpt>
      <trkpt lat="44.11047" lon="1.83101">
        <ele>409.6</ele>
        <time>2012-12-29T09:45:57.999Z</time>
      </trkpt>
      <trkpt lat="44.11052" lon="1.83098">
        <ele>408.3</ele>
        <time>2012-12-29T09:45:58.999Z</time>
      </trkpt>
      <trkpt lat="44.11057" lon="1.83095">
        <ele>407.8</ele>
        <time>2012-12-29T09:45:59.999Z</time>
      </trkpt>
      <trkpt lat="44.11063" lon="1.83092">
        <ele>407.4</ele>
        <time>2012-12-29T09:46:00.999Z</time>
      </trkpt>
      <trkpt lat="44.11069" lon="1.83089">
        <ele>406.7</ele>
        <time>2012-12-29T09:46:01.999Z</time>
      </trkpt>
      <trkpt lat="44.11074" lon="1.83086">
        <ele>406.6</ele>
        <time>2012-12-29T09:46:02.999Z</time>
      </trkpt>
      <trkpt lat="44.11081" lon="1.83083">
        <ele>406.6</ele>
        <time>2012-12-29T09:46:03.999Z</time>
      </trkpt>
      <trkpt lat="44.11087" lon="1.83079">
        <ele>406.8</ele>
        <time>2012-12-29T09:46:04.999Z</time>
      </trkpt>
      <trkpt lat="44.11094" lon="1.83076">
        <ele>407</ele>
        <time>2012-12-29T09:46:05.999Z</time>
      </trkpt>
      <trkpt lat="44.111" lon="1.83074">
        <ele>407.2</ele>
        <time>2012-12-29T09:46:06.999Z</time>
      </trkpt>
      <trkpt lat="44.11105" lon="1.83072">
        <ele>407.3</ele>
        <time>2012-12-29T09:46:07.999Z</time>
      </trkpt>
      <trkpt lat="44.11111" lon="1.8307">
        <ele>407.3</ele>
        <time>2012-12-29T09:46:08.999Z</time>
      </trkpt>
      <trkpt lat="44.11116" lon="1.83069">
        <ele>407</ele>
        <time>2012-12-29T09:46:09.999Z</time>
      </trkpt>
      <trkpt lat="44.11119" lon="1.83068">
        <ele>407</ele>
        <time>2012-12-29T09:46:10.999Z</time>
      </trkpt>
      <trkpt lat="44.11122" lon="1.83067">
        <ele>406.9</ele>
        <time>2012-12-29T09:46:11.999Z</time>
      </trkpt>
      <trkpt lat="44.11124" lon="1.83067">
        <ele>406.9</ele>
        <time>2012-12-29T09:46:12.999Z</time>
      </trkpt>
      <trkpt lat="44.11127" lon="1.83068">
        <ele>407</ele>
        <time>2012-12-29T09:46:13.999Z</time>
      </trkpt>
      <trkpt lat="44.11131" lon="1.83072">
        <ele>407.1</ele>
        <time>2012-12-29T09:46:17.999Z</time>
      </trkpt>
      <trkpt lat="44.11131" lon="1.83073">
        <ele>407.2</ele>
        <time>2012-12-29T09:46:18.999Z</time>
      </trkpt>
      <trkpt lat="44.11133" lon="1.83077">
        <ele>407.4</ele>
        <time>2012-12-29T09:46:20.999Z</time>
      </trkpt>
      <trkpt lat="44.11135" lon="1.83078">
        <ele>407.5</ele>
        <time>2012-12-29T09:46:21.999Z</time>
      </trkpt>
      <trkpt lat="44.11136" lon="1.8308">
        <ele>407.5</ele>
        <time>2012-12-29T09:46:22.999Z</time>
      </trkpt>
      <trkpt lat="44.11139" lon="1.83083">
        <ele>407.6</ele>
        <time>2012-12-29T09:46:23.999Z</time>
      </trkpt>
      <trkpt lat="44.11142" lon="1.83086">
        <ele>407.6</ele>
        <time>2012-12-29T09:46:25.999Z</time>
      </trkpt>
      <trkpt lat="44.11143" lon="1.83088">
        <ele>407.5</ele>
        <time>2012-12-29T09:46:26.999Z</time>
      </trkpt>
      <trkpt lat="44.11146" lon="1.8309">
        <ele>407.5</ele>
        <time>2012-12-29T09:46:28.999Z</time>
      </trkpt>
      <trkpt lat="44.11147" lon="1.83091">
        <ele>407.6</ele>
        <time>2012-12-29T09:46:29.999Z</time>
      </trkpt>
      <trkpt lat="44.1115" lon="1.83093">
        <ele>407.7</ele>
        <time>2012-12-29T09:46:31.999Z</time>
      </trkpt>
      <trkpt lat="44.11152" lon="1.83094">
        <ele>407.7</ele>
        <time>2012-12-29T09:46:32.999Z</time>
      </trkpt>
      <trkpt lat="44.11156" lon="1.83095">
        <ele>407.8</ele>
        <time>2012-12-29T09:46:34.999Z</time>
      </trkpt>
      <trkpt lat="44.11157" lon="1.83096">
        <ele>407.8</ele>
        <time>2012-12-29T09:46:35.999Z</time>
      </trkpt>
      <trkpt lat="44.1116" lon="1.83097">
        <ele>407.8</ele>
        <time>2012-12-29T09:46:37.999Z</time>
      </trkpt>
      <trkpt lat="44.11162" lon="1.83097">
        <ele>407.8</ele>
        <time>2012-12-29T09:46:38.999Z</time>
      </trkpt>
      <trkpt lat="44.11166" lon="1.83097">
        <ele>407.8</ele>
        <time>2012-12-29T09:46:40.999Z</time>
      </trkpt>
      <trkpt lat="44.11169" lon="1.83096">
        <ele>407.9</ele>
        <time>2012-12-29T09:46:41.999Z</time>
      </trkpt>
      <trkpt lat="44.11172" lon="1.83096">
        <ele>407.9</ele>
        <time>2012-12-29T09:46:42.999Z</time>
      </trkpt>
      <trkpt lat="44.11174" lon="1.83095">
        <ele>407.9</ele>
        <time>2012-12-29T09:46:43.999Z</time>
      </trkpt>
      <trkpt lat="44.11177" lon="1.83094">
        <ele>407.9</ele>
        <time>2012-12-29T09:46:44.999Z</time>
      </trkpt>
      <trkpt lat="44.1118" lon="1.83093">
        <ele>407.9</ele>
        <time>2012-12-29T09:46:45.999Z</time>
      </trkpt>
      <trkpt lat="44.11182" lon="1.83093">
        <ele>407.9</ele>
        <time>2012-12-29T09:46:46.999Z</time>
      </trkpt>
      <trkpt lat="44.11185" lon="1.83093">
        <ele>407.9</ele>
        <time>2012-12-29T09:46:47.999Z</time>
      </trkpt>
      <trkpt lat="44.11187" lon="1.83093">
        <ele>407.8</ele>
        <time>2012-12-29T09:46:48.999Z</time>
      </trkpt>
      <trkpt lat="44.1119" lon="1.83092">
        <ele>407.7</ele>
        <time>2012-12-29T09:46:49.999Z</time>
      </trkpt>
      <trkpt lat="44.11192" lon="1.83092">
        <ele>407.6</ele>
        <time>2012-12-29T09:46:50.999Z</time>
      </trkpt>
      <trkpt lat="44.11195" lon="1.83091">
        <ele>407.4</ele>
        <time>2012-12-29T09:46:51.999Z</time>
      </trkpt>
      <trkpt lat="44.11197" lon="1.8309">
        <ele>407.2</ele>
        <time>2012-12-29T09:46:52.999Z</time>
      </trkpt>
      <trkpt lat="44.112" lon="1.83089">
        <ele>407</ele>
        <time>2012-12-29T09:46:53.999Z</time>
      </trkpt>
      <trkpt lat="44.11202" lon="1.83089">
        <ele>406.8</ele>
        <time>2012-12-29T09:46:54.999Z</time>
      </trkpt>
      <trkpt lat="44.11205" lon="1.83088">
        <ele>406.7</ele>
        <time>2012-12-29T09:46:55.999Z</time>
      </trkpt>
      <trkpt lat="44.11207" lon="1.83087">
        <ele>406.5</ele>
        <time>2012-12-29T09:46:56.999Z</time>
      </trkpt>
      <trkpt lat="44.11209" lon="1.83086">
        <ele>406.3</ele>
        <time>2012-12-29T09:46:57.999Z</time>
      </trkpt>
      <trkpt lat="44.11211" lon="1.83085">
        <ele>406</ele>
        <time>2012-12-29T09:46:58.999Z</time>
      </trkpt>
      <trkpt lat="44.11214" lon="1.83084">
        <ele>405.8</ele>
        <time>2012-12-29T09:46:59.999Z</time>
      </trkpt>
      <trkpt lat="44.11216" lon="1.83082">
        <ele>405.6</ele>
        <time>2012-12-29T09:47:00.999Z</time>
      </trkpt>
      <trkpt lat="44.11219" lon="1.83081">
        <ele>405.4</ele>
        <time>2012-12-29T09:47:01.999Z</time>
      </trkpt>
      <trkpt lat="44.11222" lon="1.8308">
        <ele>405.3</ele>
        <time>2012-12-29T09:47:02.999Z</time>
      </trkpt>
      <trkpt lat="44.11225" lon="1.83079">
        <ele>405</ele>
        <time>2012-12-29T09:47:03.999Z</time>
      </trkpt>
      <trkpt lat="44.11227" lon="1.83077">
        <ele>404.8</ele>
        <time>2012-12-29T09:47:04.999Z</time>
      </trkpt>
      <trkpt lat="44.1123" lon="1.83076">
        <ele>404.5</ele>
        <time>2012-12-29T09:47:05.999Z</time>
      </trkpt>
      <trkpt lat="44.11232" lon="1.83075">
        <ele>404.3</ele>
        <time>2012-12-29T09:47:06.999Z</time>
      </trkpt>
      <trkpt lat="44.11235" lon="1.83073">
        <ele>404</ele>
        <time>2012-12-29T09:47:07.999Z</time>
      </trkpt>
      <trkpt lat="44.11238" lon="1.83072">
        <ele>403.8</ele>
        <time>2012-12-29T09:47:08.999Z</time>
      </trkpt>
      <trkpt lat="44.1124" lon="1.83071">
        <ele>403.7</ele>
        <time>2012-12-29T09:47:09.999Z</time>
      </trkpt>
      <trkpt lat="44.11242" lon="1.8307">
        <ele>403.6</ele>
        <time>2012-12-29T09:47:10.999Z</time>
      </trkpt>
      <trkpt lat="44.11245" lon="1.83068">
        <ele>403.4</ele>
        <time>2012-12-29T09:47:11.999Z</time>
      </trkpt>
      <trkpt lat="44.11247" lon="1.83067">
        <ele>403.2</ele>
        <time>2012-12-29T09:47:12.999Z</time>
      </trkpt>
      <trkpt lat="44.1125" lon="1.83066">
        <ele>403.1</ele>
        <time>2012-12-29T09:47:13.999Z</time>
      </trkpt>
      <trkpt lat="44.11252" lon="1.83065">
        <ele>402.9</ele>
        <time>2012-12-29T09:47:14.999Z</time>
      </trkpt>
      <trkpt lat="44.11255" lon="1.83064">
        <ele>402.7</ele>
        <time>2012-12-29T09:47:15.999Z</time>
      </trkpt>
      <trkpt lat="44.11258" lon="1.83063">
        <ele>402.6</ele>
        <time>2012-12-29T09:47:16.999Z</time>
      </trkpt>
      <trkpt lat="44.11261" lon="1.83061">
        <ele>402.4</ele>
        <time>2012-12-29T09:47:17.999Z</time>
      </trkpt>
      <trkpt lat="44.11264" lon="1.8306">
        <ele>402.2</ele>
        <time>2012-12-29T09:47:18.999Z</time>
      </trkpt>
      <trkpt lat="44.11266" lon="1.83059">
        <ele>402.2</ele>
        <time>2012-12-29T09:47:19.999Z</time>
      </trkpt>
      <trkpt lat="44.11269" lon="1.83058">
        <ele>402.1</ele>
        <time>2012-12-29T09:47:20.999Z</time>
      </trkpt>
      <trkpt lat="44.11271" lon="1.83057">
        <ele>402.1</ele>
        <time>2012-12-29T09:47:21.999Z</time>
      </trkpt>
      <trkpt lat="44.11274" lon="1.83056">
        <ele>402</ele>
        <time>2012-12-29T09:47:22.999Z</time>
      </trkpt>
      <trkpt lat="44.11277" lon="1.83055">
        <ele>402</ele>
        <time>2012-12-29T09:47:23.999Z</time>
      </trkpt>
      <trkpt lat="44.1128" lon="1.83053">
        <ele>401.9</ele>
        <time>2012-12-29T09:47:24.999Z</time>
      </trkpt>
      <trkpt lat="44.11283" lon="1.83052">
        <ele>401.8</ele>
        <time>2012-12-29T09:47:25.999Z</time>
      </trkpt>
      <trkpt lat="44.11285" lon="1.83051">
        <ele>401.6</ele>
        <time>2012-12-29T09:47:26.999Z</time>
      </trkpt>
      <trkpt lat="44.11287" lon="1.83049">
        <ele>401.6</ele>
        <time>2012-12-29T09:47:27.999Z</time>
      </trkpt>
      <trkpt lat="44.1129" lon="1.83047">
        <ele>401.5</ele>
        <time>2012-12-29T09:47:28.999Z</time>
      </trkpt>
      <trkpt lat="44.11292" lon="1.83044">
        <ele>401.3</ele>
        <time>2012-12-29T09:47:29.999Z</time>
      </trkpt>
      <trkpt lat="44.11295" lon="1.83042">
        <ele>401.2</ele>
        <time>2012-12-29T09:47:30.999Z</time>
      </trkpt>
      <trkpt lat="44.11297" lon="1.83039">
        <ele>401</ele>
        <time>2012-12-29T09:47:31.999Z</time>
      </trkpt>
      <trkpt lat="44.113" lon="1.83036">
        <ele>401</ele>
        <time>2012-12-29T09:47:32.999Z</time>
      </trkpt>
      <trkpt lat="44.11303" lon="1.83034">
        <ele>400.9</ele>
        <time>2012-12-29T09:47:33.999Z</time>
      </trkpt>
      <trkpt lat="44.11306" lon="1.83031">
        <ele>400.8</ele>
        <time>2012-12-29T09:47:34.999Z</time>
      </trkpt>
      <trkpt lat="44.11309" lon="1.83028">
        <ele>400.8</ele>
        <time>2012-12-29T09:47:35.999Z</time>
      </trkpt>
      <trkpt lat="44.11311" lon="1.83025">
        <ele>400.8</ele>
        <time>2012-12-29T09:47:36.999Z</time>
      </trkpt>
      <trkpt lat="44.11313" lon="1.83022">
        <ele>400.8</ele>
        <time>2012-12-29T09:47:37.999Z</time>
      </trkpt>
      <trkpt lat="44.11315" lon="1.83019">
        <ele>400.8</ele>
        <time>2012-12-29T09:47:38.999Z</time>
      </trkpt>
      <trkpt lat="44.11317" lon="1.83017">
        <ele>400.9</ele>
        <time>2012-12-29T09:47:39.999Z</time>
      </trkpt>
      <trkpt lat="44.11319" lon="1.83014">
        <ele>401</ele>
        <time>2012-12-29T09:47:40.999Z</time>
      </trkpt>
      <trkpt lat="44.11321" lon="1.83012">
        <ele>401</ele>
        <time>2012-12-29T09:47:41.999Z</time>
      </trkpt>
      <trkpt lat="44.11324" lon="1.8301">
        <ele>401.1</ele>
        <time>2012-12-29T09:47:42.999Z</time>
      </trkpt>
      <trkpt lat="44.11327" lon="1.83008">
        <ele>401.3</ele>
        <time>2012-12-29T09:47:43.999Z</time>
      </trkpt>
      <trkpt lat="44.11329" lon="1.83005">
        <ele>401.4</ele>
        <time>2012-12-29T09:47:44.999Z</time>
      </trkpt>
      <trkpt lat="44.11331" lon="1.83003">
        <ele>401.6</ele>
        <time>2012-12-29T09:47:45.999Z</time>
      </trkpt>
      <trkpt lat="44.11334" lon="1.83001">
        <ele>401.9</ele>
        <time>2012-12-29T09:47:46.999Z</time>
      </trkpt>
      <trkpt lat="44.11337" lon="1.82998">
        <ele>402.1</ele>
        <time>2012-12-29T09:47:47.999Z</time>
      </trkpt>
      <trkpt lat="44.1134" lon="1.82996">
        <ele>402.4</ele>
        <time>2012-12-29T09:47:48.999Z</time>
      </trkpt>
      <trkpt lat="44.11342" lon="1.82994">
        <ele>402.7</ele>
        <time>2012-12-29T09:47:49.999Z</time>
      </trkpt>
      <trkpt lat="44.11344" lon="1.82992">
        <ele>402.9</ele>
        <time>2012-12-29T09:47:50.999Z</time>
      </trkpt>
      <trkpt lat="44.11346" lon="1.82989">
        <ele>403.1</ele>
        <time>2012-12-29T09:47:51.999Z</time>
      </trkpt>
      <trkpt lat="44.11349" lon="1.82987">
        <ele>403.3</ele>
        <time>2012-12-29T09:47:52.999Z</time>
      </trkpt>
      <trkpt lat="44.11351" lon="1.82985">
        <ele>403.6</ele>
        <time>2012-12-29T09:47:53.999Z</time>
      </trkpt>
      <trkpt lat="44.11353" lon="1.82982">
        <ele>403.9</ele>
        <time>2012-12-29T09:47:54.999Z</time>
      </trkpt>
      <trkpt lat="44.11355" lon="1.8298">
        <ele>404.2</ele>
        <time>2012-12-29T09:47:55.999Z</time>
      </trkpt>
      <trkpt lat="44.11357" lon="1.82978">
        <ele>404.4</ele>
        <time>2012-12-29T09:47:56.999Z</time>
      </trkpt>
      <trkpt lat="44.11359" lon="1.82976">
        <ele>404.7</ele>
        <time>2012-12-29T09:47:57.999Z</time>
      </trkpt>
      <trkpt lat="44.11362" lon="1.82973">
        <ele>405.2</ele>
        <time>2012-12-29T09:47:59.999Z</time>
      </trkpt>
      <trkpt lat="44.11365" lon="1.8297">
        <ele>405.4</ele>
        <time>2012-12-29T09:48:00.999Z</time>
      </trkpt>
      <trkpt lat="44.11367" lon="1.82968">
        <ele>405.6</ele>
        <time>2012-12-29T09:48:01.999Z</time>
      </trkpt>
      <trkpt lat="44.1137" lon="1.82966">
        <ele>405.8</ele>
        <time>2012-12-29T09:48:02.999Z</time>
      </trkpt>
      <trkpt lat="44.11373" lon="1.82964">
        <ele>406.1</ele>
        <time>2012-12-29T09:48:03.999Z</time>
      </trkpt>
      <trkpt lat="44.11375" lon="1.82963">
        <ele>406.3</ele>
        <time>2012-12-29T09:48:04.999Z</time>
      </trkpt>
      <trkpt lat="44.11376" lon="1.82961">
        <ele>406.6</ele>
        <time>2012-12-29T09:48:05.999Z</time>
      </trkpt>
      <trkpt lat="44.11379" lon="1.82959">
        <ele>406.8</ele>
        <time>2012-12-29T09:48:06.999Z</time>
      </trkpt>
      <trkpt lat="44.11381" lon="1.82956">
        <ele>407</ele>
        <time>2012-12-29T09:48:07.999Z</time>
      </trkpt>
      <trkpt lat="44.11384" lon="1.82954">
        <ele>407.2</ele>
        <time>2012-12-29T09:48:08.999Z</time>
      </trkpt>
      <trkpt lat="44.11386" lon="1.82952">
        <ele>407.4</ele>
        <time>2012-12-29T09:48:09.999Z</time>
      </trkpt>
      <trkpt lat="44.11389" lon="1.82951">
        <ele>407.6</ele>
        <time>2012-12-29T09:48:10.999Z</time>
      </trkpt>
      <trkpt lat="44.11393" lon="1.82951">
        <ele>408</ele>
        <time>2012-12-29T09:48:12.999Z</time>
      </trkpt>
      <trkpt lat="44.11394" lon="1.82952">
        <ele>408.2</ele>
        <time>2012-12-29T09:48:13.999Z</time>
      </trkpt>
      <trkpt lat="44.11396" lon="1.82956">
        <ele>408.6</ele>
        <time>2012-12-29T09:48:15.999Z</time>
      </trkpt>
      <trkpt lat="44.11396" lon="1.82959">
        <ele>408.8</ele>
        <time>2012-12-29T09:48:16.999Z</time>
      </trkpt>
      <trkpt lat="44.11396" lon="1.82963">
        <ele>409</ele>
        <time>2012-12-29T09:48:17.999Z</time>
      </trkpt>
      <trkpt lat="44.11397" lon="1.82967">
        <ele>409.2</ele>
        <time>2012-12-29T09:48:18.999Z</time>
      </trkpt>
      <trkpt lat="44.11397" lon="1.82971">
        <ele>409.3</ele>
        <time>2012-12-29T09:48:19.999Z</time>
      </trkpt>
      <trkpt lat="44.11397" lon="1.82974">
        <ele>409.5</ele>
        <time>2012-12-29T09:48:20.999Z</time>
      </trkpt>
      <trkpt lat="44.11398" lon="1.82977">
        <ele>409.7</ele>
        <time>2012-12-29T09:48:21.999Z</time>
      </trkpt>
      <trkpt lat="44.11399" lon="1.82981">
        <ele>409.9</ele>
        <time>2012-12-29T09:48:22.999Z</time>
      </trkpt>
      <trkpt lat="44.114" lon="1.82985">
        <ele>410.2</ele>
        <time>2012-12-29T09:48:24.999Z</time>
      </trkpt>
      <trkpt lat="44.11402" lon="1.82987">
        <ele>410.4</ele>
        <time>2012-12-29T09:48:25.999Z</time>
      </trkpt>
      <trkpt lat="44.11403" lon="1.8299">
        <ele>410.5</ele>
        <time>2012-12-29T09:48:26.999Z</time>
      </trkpt>
      <trkpt lat="44.11405" lon="1.82992">
        <ele>410.7</ele>
        <time>2012-12-29T09:48:27.999Z</time>
      </trkpt>
      <trkpt lat="44.11407" lon="1.82996">
        <ele>411.1</ele>
        <time>2012-12-29T09:48:29.999Z</time>
      </trkpt>
      <trkpt lat="44.11409" lon="1.82998">
        <ele>411.4</ele>
        <time>2012-12-29T09:48:30.999Z</time>
      </trkpt>
      <trkpt lat="44.11411" lon="1.83">
        <ele>411.5</ele>
        <time>2012-12-29T09:48:31.999Z</time>
      </trkpt>
      <trkpt lat="44.11413" lon="1.83003">
        <ele>411.6</ele>
        <time>2012-12-29T09:48:32.999Z</time>
      </trkpt>
      <trkpt lat="44.11415" lon="1.83005">
        <ele>411.8</ele>
        <time>2012-12-29T09:48:33.999Z</time>
      </trkpt>
      <trkpt lat="44.11416" lon="1.83007">
        <ele>412</ele>
        <time>2012-12-29T09:48:34.999Z</time>
      </trkpt>
      <trkpt lat="44.11418" lon="1.83009">
        <ele>412.2</ele>
        <time>2012-12-29T09:48:35.999Z</time>
      </trkpt>
      <trkpt lat="44.1142" lon="1.83011">
        <ele>412.4</ele>
        <time>2012-12-29T09:48:36.999Z</time>
      </trkpt>
      <trkpt lat="44.11422" lon="1.83013">
        <ele>412.5</ele>
        <time>2012-12-29T09:48:37.999Z</time>
      </trkpt>
      <trkpt lat="44.11425" lon="1.83015">
        <ele>412.7</ele>
        <time>2012-12-29T09:48:38.999Z</time>
      </trkpt>
      <trkpt lat="44.11428" lon="1.83018">
        <ele>412.9</ele>
        <time>2012-12-29T09:48:40.999Z</time>
      </trkpt>
      <trkpt lat="44.11429" lon="1.8302">
        <ele>413.1</ele>
        <time>2012-12-29T09:48:41.999Z</time>
      </trkpt>
      <trkpt lat="44.11432" lon="1.83024">
        <ele>413.6</ele>
        <time>2012-12-29T09:48:43.999Z</time>
      </trkpt>
      <trkpt lat="44.11433" lon="1.83026">
        <ele>413.8</ele>
        <time>2012-12-29T09:48:44.999Z</time>
      </trkpt>
      <trkpt lat="44.11435" lon="1.8303">
        <ele>414.2</ele>
        <time>2012-12-29T09:48:46.999Z</time>
      </trkpt>
      <trkpt lat="44.11437" lon="1.83032">
        <ele>414.3</ele>
        <time>2012-12-29T09:48:47.999Z</time>
      </trkpt>
      <trkpt lat="44.11439" lon="1.83034">
        <ele>414.4</ele>
        <time>2012-12-29T09:48:48.999Z</time>
      </trkpt>
      <trkpt lat="44.11441" lon="1.83036">
        <ele>414.4</ele>
        <time>2012-12-29T09:48:49.999Z</time>
      </trkpt>
      <trkpt lat="44.11444" lon="1.83039">
        <ele>414.5</ele>
        <time>2012-12-29T09:48:50.999Z</time>
      </trkpt>
      <trkpt lat="44.11446" lon="1.83042">
        <ele>414.6</ele>
        <time>2012-12-29T09:48:51.999Z</time>
      </trkpt>
      <trkpt lat="44.11449" lon="1.83044">
        <ele>414.7</ele>
        <time>2012-12-29T09:48:52.999Z</time>
      </trkpt>
      <trkpt lat="44.1145" lon="1.83047">
        <ele>414.9</ele>
        <time>2012-12-29T09:48:53.999Z</time>
      </trkpt>
      <trkpt lat="44.11452" lon="1.8305">
        <ele>415</ele>
        <time>2012-12-29T09:48:54.999Z</time>
      </trkpt>
      <trkpt lat="44.11454" lon="1.83052">
        <ele>415.1</ele>
        <time>2012-12-29T09:48:55.999Z</time>
      </trkpt>
      <trkpt lat="44.11456" lon="1.83055">
        <ele>415.3</ele>
        <time>2012-12-29T09:48:56.999Z</time>
      </trkpt>
      <trkpt lat="44.11458" lon="1.83057">
        <ele>415.4</ele>
        <time>2012-12-29T09:48:57.999Z</time>
      </trkpt>
      <trkpt lat="44.1146" lon="1.8306">
        <ele>415.5</ele>
        <time>2012-12-29T09:48:58.999Z</time>
      </trkpt>
      <trkpt lat="44.11462" lon="1.83063">
        <ele>415.6</ele>
        <time>2012-12-29T09:48:59.999Z</time>
      </trkpt>
      <trkpt lat="44.11464" lon="1.83065">
        <ele>415.7</ele>
        <time>2012-12-29T09:49:00.999Z</time>
      </trkpt>
      <trkpt lat="44.11466" lon="1.83068">
        <ele>415.7</ele>
        <time>2012-12-29T09:49:01.999Z</time>
      </trkpt>
      <trkpt lat="44.11468" lon="1.83071">
        <ele>415.8</ele>
        <time>2012-12-29T09:49:02.999Z</time>
      </trkpt>
      <trkpt lat="44.1147" lon="1.83073">
        <ele>415.9</ele>
        <time>2012-12-29T09:49:03.999Z</time>
      </trkpt>
      <trkpt lat="44.11472" lon="1.83076">
        <ele>416</ele>
        <time>2012-12-29T09:49:04.999Z</time>
      </trkpt>
      <trkpt lat="44.11475" lon="1.8308">
        <ele>416.1</ele>
        <time>2012-12-29T09:49:05.999Z</time>
      </trkpt>
      <trkpt lat="44.11476" lon="1.83083">
        <ele>416.2</ele>
        <time>2012-12-29T09:49:06.999Z</time>
      </trkpt>
      <trkpt lat="44.11478" lon="1.83086">
        <ele>416.3</ele>
        <time>2012-12-29T09:49:07.999Z</time>
      </trkpt>
      <trkpt lat="44.1148" lon="1.83091">
        <ele>416.5</ele>
        <time>2012-12-29T09:49:09.999Z</time>
      </trkpt>
      <trkpt lat="44.11482" lon="1.83093">
        <ele>416.7</ele>
        <time>2012-12-29T09:49:10.999Z</time>
      </trkpt>
      <trkpt lat="44.11486" lon="1.83096">
        <ele>417</ele>
        <time>2012-12-29T09:49:12.999Z</time>
      </trkpt>
      <trkpt lat="44.11488" lon="1.83098">
        <ele>417.1</ele>
        <time>2012-12-29T09:49:13.999Z</time>
      </trkpt>
      <trkpt lat="44.1149" lon="1.83101">
        <ele>417.2</ele>
        <time>2012-12-29T09:49:14.999Z</time>
      </trkpt>
      <trkpt lat="44.11491" lon="1.83103">
        <ele>417.3</ele>
        <time>2012-12-29T09:49:15.999Z</time>
      </trkpt>
      <trkpt lat="44.11493" lon="1.83106">
        <ele>417.4</ele>
        <time>2012-12-29T09:49:16.999Z</time>
      </trkpt>
      <trkpt lat="44.11494" lon="1.83108">
        <ele>417.4</ele>
        <time>2012-12-29T09:49:17.999Z</time>
      </trkpt>
      <trkpt lat="44.11496" lon="1.83111">
        <ele>417.5</ele>
        <time>2012-12-29T09:49:18.999Z</time>
      </trkpt>
      <trkpt lat="44.11497" lon="1.83114">
        <ele>417.6</ele>
        <time>2012-12-29T09:49:19.999Z</time>
      </trkpt>
      <trkpt lat="44.11499" lon="1.83117">
        <ele>417.6</ele>
        <time>2012-12-29T09:49:20.999Z</time>
      </trkpt>
      <trkpt lat="44.11501" lon="1.83119">
        <ele>417.7</ele>
        <time>2012-12-29T09:49:21.999Z</time>
      </trkpt>
      <trkpt lat="44.11502" lon="1.83121">
        <ele>417.7</ele>
        <time>2012-12-29T09:49:22.999Z</time>
      </trkpt>
      <trkpt lat="44.11504" lon="1.83124">
        <ele>417.7</ele>
        <time>2012-12-29T09:49:23.999Z</time>
      </trkpt>
      <trkpt lat="44.11506" lon="1.83127">
        <ele>417.8</ele>
        <time>2012-12-29T09:49:24.999Z</time>
      </trkpt>
      <trkpt lat="44.11508" lon="1.8313">
        <ele>417.8</ele>
        <time>2012-12-29T09:49:25.999Z</time>
      </trkpt>
      <trkpt lat="44.1151" lon="1.83133">
        <ele>417.8</ele>
        <time>2012-12-29T09:49:26.999Z</time>
      </trkpt>
      <trkpt lat="44.11512" lon="1.83135">
        <ele>417.8</ele>
        <time>2012-12-29T09:49:27.999Z</time>
      </trkpt>
      <trkpt lat="44.11513" lon="1.83138">
        <ele>417.9</ele>
        <time>2012-12-29T09:49:28.999Z</time>
      </trkpt>
      <trkpt lat="44.11515" lon="1.83141">
        <ele>417.9</ele>
        <time>2012-12-29T09:49:29.999Z</time>
      </trkpt>
      <trkpt lat="44.11517" lon="1.83145">
        <ele>417.9</ele>
        <time>2012-12-29T09:49:30.999Z</time>
      </trkpt>
      <trkpt lat="44.11518" lon="1.83148">
        <ele>418</ele>
        <time>2012-12-29T09:49:31.999Z</time>
      </trkpt>
      <trkpt lat="44.1152" lon="1.83151">
        <ele>418</ele>
        <time>2012-12-29T09:49:32.999Z</time>
      </trkpt>
      <trkpt lat="44.11521" lon="1.83155">
        <ele>417.9</ele>
        <time>2012-12-29T09:49:33.999Z</time>
      </trkpt>
      <trkpt lat="44.11523" lon="1.83159">
        <ele>417.8</ele>
        <time>2012-12-29T09:49:34.999Z</time>
      </trkpt>
      <trkpt lat="44.11524" lon="1.83163">
        <ele>417.8</ele>
        <time>2012-12-29T09:49:35.999Z</time>
      </trkpt>
      <trkpt lat="44.11525" lon="1.83167">
        <ele>417.7</ele>
        <time>2012-12-29T09:49:36.999Z</time>
      </trkpt>
      <trkpt lat="44.11527" lon="1.83171">
        <ele>417.7</ele>
        <time>2012-12-29T09:49:37.999Z</time>
      </trkpt>
      <trkpt lat="44.11528" lon="1.83174">
        <ele>417.7</ele>
        <time>2012-12-29T09:49:38.999Z</time>
      </trkpt>
      <trkpt lat="44.1153" lon="1.83177">
        <ele>417.7</ele>
        <time>2012-12-29T09:49:39.999Z</time>
      </trkpt>
      <trkpt lat="44.11531" lon="1.8318">
        <ele>417.6</ele>
        <time>2012-12-29T09:49:40.999Z</time>
      </trkpt>
      <trkpt lat="44.11533" lon="1.83182">
        <ele>417.6</ele>
        <time>2012-12-29T09:49:41.999Z</time>
      </trkpt>
      <trkpt lat="44.11535" lon="1.83185">
        <ele>417.7</ele>
        <time>2012-12-29T09:49:42.999Z</time>
      </trkpt>
      <trkpt lat="44.11536" lon="1.83187">
        <ele>417.8</ele>
        <time>2012-12-29T09:49:43.999Z</time>
      </trkpt>
      <trkpt lat="44.1154" lon="1.8319">
        <ele>417.8</ele>
        <time>2012-12-29T09:49:45.999Z</time>
      </trkpt>
      <trkpt lat="44.11542" lon="1.83192">
        <ele>417.9</ele>
        <time>2012-12-29T09:49:46.999Z</time>
      </trkpt>
      <trkpt lat="44.11545" lon="1.83193">
        <ele>418</ele>
        <time>2012-12-29T09:49:47.999Z</time>
      </trkpt>
      <trkpt lat="44.11548" lon="1.83193">
        <ele>418.1</ele>
        <time>2012-12-29T09:49:48.999Z</time>
      </trkpt>
      <trkpt lat="44.11551" lon="1.83193">
        <ele>418.2</ele>
        <time>2012-12-29T09:49:49.999Z</time>
      </trkpt>
      <trkpt lat="44.11554" lon="1.83193">
        <ele>418.3</ele>
        <time>2012-12-29T09:49:50.999Z</time>
      </trkpt>
      <trkpt lat="44.11557" lon="1.83192">
        <ele>418.4</ele>
        <time>2012-12-29T09:49:51.999Z</time>
      </trkpt>
      <trkpt lat="44.11559" lon="1.83192">
        <ele>418.5</ele>
        <time>2012-12-29T09:49:52.999Z</time>
      </trkpt>
      <trkpt lat="44.11562" lon="1.83191">
        <ele>418.5</ele>
        <time>2012-12-29T09:49:53.999Z</time>
      </trkpt>
      <trkpt lat="44.11565" lon="1.83191">
        <ele>418.5</ele>
        <time>2012-12-29T09:49:54.999Z</time>
      </trkpt>
      <trkpt lat="44.11569" lon="1.8319">
        <ele>418.5</ele>
        <time>2012-12-29T09:49:55.999Z</time>
      </trkpt>
      <trkpt lat="44.11572" lon="1.83189">
        <ele>418.5</ele>
        <time>2012-12-29T09:49:56.999Z</time>
      </trkpt>
      <trkpt lat="44.11575" lon="1.8319">
        <ele>418.5</ele>
        <time>2012-12-29T09:49:57.999Z</time>
      </trkpt>
      <trkpt lat="44.11579" lon="1.8319">
        <ele>418.5</ele>
        <time>2012-12-29T09:49:58.999Z</time>
      </trkpt>
      <trkpt lat="44.11583" lon="1.83191">
        <ele>418.5</ele>
        <time>2012-12-29T09:49:59.999Z</time>
      </trkpt>
      <trkpt lat="44.11586" lon="1.83192">
        <ele>418.5</ele>
        <time>2012-12-29T09:50:00.999Z</time>
      </trkpt>
      <trkpt lat="44.11591" lon="1.83193">
        <ele>418.5</ele>
        <time>2012-12-29T09:50:01.999Z</time>
      </trkpt>
      <trkpt lat="44.11595" lon="1.83194">
        <ele>418.6</ele>
        <time>2012-12-29T09:50:02.999Z</time>
      </trkpt>
      <trkpt lat="44.11598" lon="1.83196">
        <ele>418.6</ele>
        <time>2012-12-29T09:50:03.999Z</time>
      </trkpt>
      <trkpt lat="44.11601" lon="1.83198">
        <ele>418.6</ele>
        <time>2012-12-29T09:50:04.999Z</time>
      </trkpt>
      <trkpt lat="44.11604" lon="1.832">
        <ele>418.7</ele>
        <time>2012-12-29T09:50:05.999Z</time>
      </trkpt>
      <trkpt lat="44.11607" lon="1.83203">
        <ele>418.7</ele>
        <time>2012-12-29T09:50:06.999Z</time>
      </trkpt>
      <trkpt lat="44.11609" lon="1.83205">
        <ele>418.7</ele>
        <time>2012-12-29T09:50:07.999Z</time>
      </trkpt>
      <trkpt lat="44.11611" lon="1.83208">
        <ele>418.8</ele>
        <time>2012-12-29T09:50:08.999Z</time>
      </trkpt>
      <trkpt lat="44.11613" lon="1.83211">
        <ele>418.8</ele>
        <time>2012-12-29T09:50:09.999Z</time>
      </trkpt>
      <trkpt lat="44.11616" lon="1.83213">
        <ele>418.8</ele>
        <time>2012-12-29T09:50:10.999Z</time>
      </trkpt>
      <trkpt lat="44.11618" lon="1.83216">
        <ele>418.8</ele>
        <time>2012-12-29T09:50:11.999Z</time>
      </trkpt>
      <trkpt lat="44.1162" lon="1.83219">
        <ele>418.8</ele>
        <time>2012-12-29T09:50:12.999Z</time>
      </trkpt>
      <trkpt lat="44.11622" lon="1.83222">
        <ele>418.7</ele>
        <time>2012-12-29T09:50:13.999Z</time>
      </trkpt>
      <trkpt lat="44.11624" lon="1.83225">
        <ele>418.8</ele>
        <time>2012-12-29T09:50:14.999Z</time>
      </trkpt>
      <trkpt lat="44.11626" lon="1.83228">
        <ele>418.9</ele>
        <time>2012-12-29T09:50:15.999Z</time>
      </trkpt>
      <trkpt lat="44.11628" lon="1.83231">
        <ele>418.9</ele>
        <time>2012-12-29T09:50:16.999Z</time>
      </trkpt>
      <trkpt lat="44.1163" lon="1.83234">
        <ele>418.9</ele>
        <time>2012-12-29T09:50:17.999Z</time>
      </trkpt>
      <trkpt lat="44.11632" lon="1.83236">
        <ele>418.9</ele>
        <time>2012-12-29T09:50:18.999Z</time>
      </trkpt>
      <trkpt lat="44.11633" lon="1.8324">
        <ele>418.9</ele>
        <time>2012-12-29T09:50:19.999Z</time>
      </trkpt>
      <trkpt lat="44.11635" lon="1.83243">
        <ele>418.8</ele>
        <time>2012-12-29T09:50:20.999Z</time>
      </trkpt>
      <trkpt lat="44.11637" lon="1.83246">
        <ele>418.8</ele>
        <time>2012-12-29T09:50:21.999Z</time>
      </trkpt>
      <trkpt lat="44.11638" lon="1.83249">
        <ele>418.8</ele>
        <time>2012-12-29T09:50:22.999Z</time>
      </trkpt>
      <trkpt lat="44.1164" lon="1.83252">
        <ele>418.9</ele>
        <time>2012-12-29T09:50:23.999Z</time>
      </trkpt>
      <trkpt lat="44.11642" lon="1.83255">
        <ele>418.9</ele>
        <time>2012-12-29T09:50:24.999Z</time>
      </trkpt>
      <trkpt lat="44.11644" lon="1.83257">
        <ele>419</ele>
        <time>2012-12-29T09:50:25.999Z</time>
      </trkpt>
      <trkpt lat="44.11646" lon="1.8326">
        <ele>419.1</ele>
        <time>2012-12-29T09:50:26.999Z</time>
      </trkpt>
      <trkpt lat="44.11648" lon="1.83262">
        <ele>419.2</ele>
        <time>2012-12-29T09:50:27.999Z</time>
      </trkpt>
      <trkpt lat="44.1165" lon="1.83264">
        <ele>419.3</ele>
        <time>2012-12-29T09:50:28.999Z</time>
      </trkpt>
      <trkpt lat="44.11653" lon="1.83267">
        <ele>419.4</ele>
        <time>2012-12-29T09:50:29.999Z</time>
      </trkpt>
      <trkpt lat="44.11655" lon="1.83269">
        <ele>419.4</ele>
        <time>2012-12-29T09:50:30.999Z</time>
      </trkpt>
      <trkpt lat="44.11657" lon="1.83271">
        <ele>419.4</ele>
        <time>2012-12-29T09:50:31.999Z</time>
      </trkpt>
      <trkpt lat="44.11659" lon="1.83273">
        <ele>419.4</ele>
        <time>2012-12-29T09:50:32.999Z</time>
      </trkpt>
      <trkpt lat="44.1166" lon="1.83276">
        <ele>419.5</ele>
        <time>2012-12-29T09:50:33.999Z</time>
      </trkpt>
      <trkpt lat="44.11662" lon="1.83278">
        <ele>419.5</ele>
        <time>2012-12-29T09:50:34.999Z</time>
      </trkpt>
      <trkpt lat="44.11665" lon="1.8328">
        <ele>419.5</ele>
        <time>2012-12-29T09:50:35.999Z</time>
      </trkpt>
      <trkpt lat="44.11667" lon="1.83283">
        <ele>419.5</ele>
        <time>2012-12-29T09:50:36.999Z</time>
      </trkpt>
      <trkpt lat="44.11669" lon="1.83286">
        <ele>419.6</ele>
        <time>2012-12-29T09:50:37.999Z</time>
      </trkpt>
      <trkpt lat="44.1167" lon="1.83288">
        <ele>419.6</ele>
        <time>2012-12-29T09:50:38.999Z</time>
      </trkpt>
      <trkpt lat="44.11672" lon="1.83291">
        <ele>419.7</ele>
        <time>2012-12-29T09:50:39.999Z</time>
      </trkpt>
      <trkpt lat="44.11674" lon="1.83294">
        <ele>419.7</ele>
        <time>2012-12-29T09:50:40.999Z</time>
      </trkpt>
      <trkpt lat="44.11676" lon="1.83297">
        <ele>419.6</ele>
        <time>2012-12-29T09:50:41.999Z</time>
      </trkpt>
      <trkpt lat="44.11678" lon="1.83301">
        <ele>419.6</ele>
        <time>2012-12-29T09:50:42.999Z</time>
      </trkpt>
      <trkpt lat="44.11681" lon="1.83304">
        <ele>419.6</ele>
        <time>2012-12-29T09:50:43.999Z</time>
      </trkpt>
      <trkpt lat="44.11683" lon="1.83308">
        <ele>419.6</ele>
        <time>2012-12-29T09:50:44.999Z</time>
      </trkpt>
      <trkpt lat="44.11685" lon="1.83311">
        <ele>419.6</ele>
        <time>2012-12-29T09:50:45.999Z</time>
      </trkpt>
      <trkpt lat="44.11686" lon="1.83313">
        <ele>419.5</ele>
        <time>2012-12-29T09:50:46.999Z</time>
      </trkpt>
      <trkpt lat="44.11689" lon="1.83317">
        <ele>419.5</ele>
        <time>2012-12-29T09:50:47.999Z</time>
      </trkpt>
      <trkpt lat="44.11691" lon="1.8332">
        <ele>419.5</ele>
        <time>2012-12-29T09:50:48.999Z</time>
      </trkpt>
      <trkpt lat="44.11693" lon="1.83324">
        <ele>419.5</ele>
        <time>2012-12-29T09:50:49.999Z</time>
      </trkpt>
      <trkpt lat="44.11695" lon="1.83327">
        <ele>419.5</ele>
        <time>2012-12-29T09:50:50.999Z</time>
      </trkpt>
      <trkpt lat="44.11697" lon="1.8333">
        <ele>419.4</ele>
        <time>2012-12-29T09:50:51.999Z</time>
      </trkpt>
      <trkpt lat="44.11699" lon="1.83334">
        <ele>419.4</ele>
        <time>2012-12-29T09:50:52.999Z</time>
      </trkpt>
      <trkpt lat="44.11701" lon="1.83337">
        <ele>419.3</ele>
        <time>2012-12-29T09:50:53.999Z</time>
      </trkpt>
      <trkpt lat="44.11704" lon="1.83341">
        <ele>419.3</ele>
        <time>2012-12-29T09:50:54.999Z</time>
      </trkpt>
      <trkpt lat="44.11706" lon="1.83344">
        <ele>419.2</ele>
        <time>2012-12-29T09:50:55.999Z</time>
      </trkpt>
      <trkpt lat="44.11709" lon="1.83347">
        <ele>419.1</ele>
        <time>2012-12-29T09:50:56.999Z</time>
      </trkpt>
      <trkpt lat="44.11711" lon="1.83351">
        <ele>419.1</ele>
        <time>2012-12-29T09:50:57.999Z</time>
      </trkpt>
      <trkpt lat="44.11714" lon="1.83354">
        <ele>419.1</ele>
        <time>2012-12-29T09:50:58.999Z</time>
      </trkpt>
      <trkpt lat="44.11716" lon="1.83357">
        <ele>419.2</ele>
        <time>2012-12-29T09:50:59.999Z</time>
      </trkpt>
      <trkpt lat="44.11718" lon="1.8336">
        <ele>419.2</ele>
        <time>2012-12-29T09:51:00.999Z</time>
      </trkpt>
      <trkpt lat="44.1172" lon="1.83363">
        <ele>419.1</ele>
        <time>2012-12-29T09:51:01.999Z</time>
      </trkpt>
      <trkpt lat="44.11722" lon="1.83365">
        <ele>419.1</ele>
        <time>2012-12-29T09:51:02.999Z</time>
      </trkpt>
      <trkpt lat="44.11725" lon="1.83367">
        <ele>419.1</ele>
        <time>2012-12-29T09:51:03.999Z</time>
      </trkpt>
      <trkpt lat="44.11728" lon="1.83369">
        <ele>419.1</ele>
        <time>2012-12-29T09:51:04.999Z</time>
      </trkpt>
      <trkpt lat="44.11731" lon="1.83371">
        <ele>419.1</ele>
        <time>2012-12-29T09:51:05.999Z</time>
      </trkpt>
      <trkpt lat="44.11734" lon="1.83374">
        <ele>419.1</ele>
        <time>2012-12-29T09:51:06.999Z</time>
      </trkpt>
      <trkpt lat="44.11737" lon="1.83376">
        <ele>419.1</ele>
        <time>2012-12-29T09:51:07.999Z</time>
      </trkpt>
      <trkpt lat="44.1174" lon="1.83378">
        <ele>419.1</ele>
        <time>2012-12-29T09:51:08.999Z</time>
      </trkpt>
      <trkpt lat="44.11743" lon="1.83381">
        <ele>419</ele>
        <time>2012-12-29T09:51:09.999Z</time>
      </trkpt>
      <trkpt lat="44.11745" lon="1.83383">
        <ele>418.9</ele>
        <time>2012-12-29T09:51:10.999Z</time>
      </trkpt>
      <trkpt lat="44.11748" lon="1.83385">
        <ele>418.8</ele>
        <time>2012-12-29T09:51:11.999Z</time>
      </trkpt>
      <trkpt lat="44.1175" lon="1.83387">
        <ele>418.8</ele>
        <time>2012-12-29T09:51:12.999Z</time>
      </trkpt>
      <trkpt lat="44.11752" lon="1.83388">
        <ele>418.8</ele>
        <time>2012-12-29T09:51:13.999Z</time>
      </trkpt>
      <trkpt lat="44.11755" lon="1.83391">
        <ele>418.8</ele>
        <time>2012-12-29T09:51:14.999Z</time>
      </trkpt>
      <trkpt lat="44.11757" lon="1.83393">
        <ele>418.8</ele>
        <time>2012-12-29T09:51:15.999Z</time>
      </trkpt>
      <trkpt lat="44.11761" lon="1.83396">
        <ele>418.8</ele>
        <time>2012-12-29T09:51:16.999Z</time>
      </trkpt>
      <trkpt lat="44.11763" lon="1.83399">
        <ele>418.8</ele>
        <time>2012-12-29T09:51:17.999Z</time>
      </trkpt>
      <trkpt lat="44.11766" lon="1.83401">
        <ele>418.8</ele>
        <time>2012-12-29T09:51:18.999Z</time>
      </trkpt>
      <trkpt lat="44.11769" lon="1.83403">
        <ele>418.9</ele>
        <time>2012-12-29T09:51:19.999Z</time>
      </trkpt>
      <trkpt lat="44.11772" lon="1.83404">
        <ele>419</ele>
        <time>2012-12-29T09:51:20.999Z</time>
      </trkpt>
      <trkpt lat="44.11774" lon="1.83406">
        <ele>419.1</ele>
        <time>2012-12-29T09:51:21.999Z</time>
      </trkpt>
      <trkpt lat="44.11776" lon="1.83407">
        <ele>419.3</ele>
        <time>2012-12-29T09:51:22.999Z</time>
      </trkpt>
      <trkpt lat="44.11779" lon="1.83409">
        <ele>419.3</ele>
        <time>2012-12-29T09:51:23.999Z</time>
      </trkpt>
      <trkpt lat="44.11781" lon="1.8341">
        <ele>419.4</ele>
        <time>2012-12-29T09:51:24.999Z</time>
      </trkpt>
      <trkpt lat="44.11784" lon="1.83411">
        <ele>419.4</ele>
        <time>2012-12-29T09:51:25.999Z</time>
      </trkpt>
      <trkpt lat="44.11786" lon="1.83412">
        <ele>419.4</ele>
        <time>2012-12-29T09:51:26.999Z</time>
      </trkpt>
      <trkpt lat="44.11789" lon="1.83415">
        <ele>419.6</ele>
        <time>2012-12-29T09:51:28.999Z</time>
      </trkpt>
      <trkpt lat="44.11791" lon="1.83416">
        <ele>419.7</ele>
        <time>2012-12-29T09:51:29.999Z</time>
      </trkpt>
      <trkpt lat="44.11795" lon="1.83417">
        <ele>419.8</ele>
        <time>2012-12-29T09:51:31.999Z</time>
      </trkpt>
      <trkpt lat="44.11798" lon="1.83417">
        <ele>419.8</ele>
        <time>2012-12-29T09:51:32.999Z</time>
      </trkpt>
      <trkpt lat="44.11801" lon="1.83417">
        <ele>419.9</ele>
        <time>2012-12-29T09:51:33.999Z</time>
      </trkpt>
      <trkpt lat="44.11803" lon="1.83417">
        <ele>420</ele>
        <time>2012-12-29T09:51:34.999Z</time>
      </trkpt>
      <trkpt lat="44.11806" lon="1.83416">
        <ele>420</ele>
        <time>2012-12-29T09:51:35.999Z</time>
      </trkpt>
      <trkpt lat="44.11808" lon="1.83416">
        <ele>420</ele>
        <time>2012-12-29T09:51:36.999Z</time>
      </trkpt>
      <trkpt lat="44.11811" lon="1.83416">
        <ele>420</ele>
        <time>2012-12-29T09:51:37.999Z</time>
      </trkpt>
      <trkpt lat="44.11813" lon="1.83416">
        <ele>420.1</ele>
        <time>2012-12-29T09:51:38.999Z</time>
      </trkpt>
      <trkpt lat="44.11815" lon="1.83415">
        <ele>420.1</ele>
        <time>2012-12-29T09:51:39.999Z</time>
      </trkpt>
      <trkpt lat="44.11818" lon="1.83416">
        <ele>420.1</ele>
        <time>2012-12-29T09:51:40.999Z</time>
      </trkpt>
      <trkpt lat="44.11821" lon="1.83416">
        <ele>420.1</ele>
        <time>2012-12-29T09:51:41.999Z</time>
      </trkpt>
      <trkpt lat="44.11823" lon="1.83416">
        <ele>420.2</ele>
        <time>2012-12-29T09:51:42.999Z</time>
      </trkpt>
      <trkpt lat="44.11826" lon="1.83417">
        <ele>420.2</ele>
        <time>2012-12-29T09:51:43.999Z</time>
      </trkpt>
      <trkpt lat="44.11828" lon="1.83418">
        <ele>420.3</ele>
        <time>2012-12-29T09:51:44.999Z</time>
      </trkpt>
      <trkpt lat="44.1183" lon="1.83418">
        <ele>420.4</ele>
        <time>2012-12-29T09:51:45.999Z</time>
      </trkpt>
      <trkpt lat="44.11832" lon="1.83419">
        <ele>420.4</ele>
        <time>2012-12-29T09:51:46.999Z</time>
      </trkpt>
      <trkpt lat="44.11836" lon="1.83421">
        <ele>420.6</ele>
        <time>2012-12-29T09:51:48.999Z</time>
      </trkpt>
      <trkpt lat="44.11838" lon="1.83422">
        <ele>420.6</ele>
        <time>2012-12-29T09:51:49.999Z</time>
      </trkpt>
      <trkpt lat="44.11842" lon="1.83423">
        <ele>420.6</ele>
        <time>2012-12-29T09:51:52.999Z</time>
      </trkpt>
      <trkpt lat="44.11842" lon="1.83423">
        <ele>420.6</ele>
        <time>2012-12-29T09:51:53.999Z</time>
      </trkpt>
      <trkpt lat="44.11846" lon="1.83424">
        <ele>420.8</ele>
        <time>2012-12-29T09:51:59.999Z</time>
      </trkpt>
      <trkpt lat="44.11846" lon="1.83425">
        <ele>420.8</ele>
        <time>2012-12-29T09:52:00.999Z</time>
      </trkpt>
      <trkpt lat="44.1185" lon="1.83427">
        <ele>421.1</ele>
        <time>2012-12-29T09:52:06.999Z</time>
      </trkpt>
      <trkpt lat="44.11852" lon="1.83429">
        <ele>421.1</ele>
        <time>2012-12-29T09:52:07.999Z</time>
      </trkpt>
      <trkpt lat="44.11855" lon="1.83431">
        <ele>421.6</ele>
        <time>2012-12-29T09:52:10.999Z</time>
      </trkpt>
      <trkpt lat="44.11856" lon="1.83432">
        <ele>421.8</ele>
        <time>2012-12-29T09:52:11.999Z</time>
      </trkpt>
      <trkpt lat="44.1186" lon="1.83433">
        <ele>422.3</ele>
        <time>2012-12-29T09:52:17.999Z</time>
      </trkpt>
      <trkpt lat="44.11861" lon="1.83434">
        <ele>422.3</ele>
        <time>2012-12-29T09:52:18.999Z</time>
      </trkpt>
      <trkpt lat="44.11863" lon="1.83435">
        <ele>422.2</ele>
        <time>2012-12-29T09:52:19.999Z</time>
      </trkpt>
      <trkpt lat="44.11865" lon="1.83436">
        <ele>422.1</ele>
        <time>2012-12-29T09:52:20.999Z</time>
      </trkpt>
      <trkpt lat="44.11867" lon="1.83438">
        <ele>422</ele>
        <time>2012-12-29T09:52:21.999Z</time>
      </trkpt>
      <trkpt lat="44.11869" lon="1.8344">
        <ele>421.9</ele>
        <time>2012-12-29T09:52:22.999Z</time>
      </trkpt>
      <trkpt lat="44.11872" lon="1.83442">
        <ele>421.8</ele>
        <time>2012-12-29T09:52:23.999Z</time>
      </trkpt>
      <trkpt lat="44.11875" lon="1.83446">
        <ele>421.8</ele>
        <time>2012-12-29T09:52:24.999Z</time>
      </trkpt>
      <trkpt lat="44.11878" lon="1.83449">
        <ele>421.8</ele>
        <time>2012-12-29T09:52:25.999Z</time>
      </trkpt>
      <trkpt lat="44.11881" lon="1.83452">
        <ele>421.7</ele>
        <time>2012-12-29T09:52:26.999Z</time>
      </trkpt>
      <trkpt lat="44.11884" lon="1.83456">
        <ele>421.7</ele>
        <time>2012-12-29T09:52:27.999Z</time>
      </trkpt>
      <trkpt lat="44.11887" lon="1.83461">
        <ele>421.6</ele>
        <time>2012-12-29T09:52:28.999Z</time>
      </trkpt>
      <trkpt lat="44.11889" lon="1.83465">
        <ele>421.5</ele>
        <time>2012-12-29T09:52:29.999Z</time>
      </trkpt>
      <trkpt lat="44.11891" lon="1.83468">
        <ele>421.3</ele>
        <time>2012-12-29T09:52:30.999Z</time>
      </trkpt>
      <trkpt lat="44.11894" lon="1.83473">
        <ele>421.1</ele>
        <time>2012-12-29T09:52:31.999Z</time>
      </trkpt>
      <trkpt lat="44.11898" lon="1.83478">
        <ele>420.8</ele>
        <time>2012-12-29T09:52:32.999Z</time>
      </trkpt>
      <trkpt lat="44.11901" lon="1.83482">
        <ele>420.6</ele>
        <time>2012-12-29T09:52:33.999Z</time>
      </trkpt>
      <trkpt lat="44.11904" lon="1.83486">
        <ele>420.4</ele>
        <time>2012-12-29T09:52:34.999Z</time>
      </trkpt>
      <trkpt lat="44.11907" lon="1.8349">
        <ele>420.2</ele>
        <time>2012-12-29T09:52:35.999Z</time>
      </trkpt>
      <trkpt lat="44.11911" lon="1.83493">
        <ele>420.1</ele>
        <time>2012-12-29T09:52:36.999Z</time>
      </trkpt>
      <trkpt lat="44.11914" lon="1.83497">
        <ele>419.9</ele>
        <time>2012-12-29T09:52:37.999Z</time>
      </trkpt>
      <trkpt lat="44.11917" lon="1.835">
        <ele>419.8</ele>
        <time>2012-12-29T09:52:38.999Z</time>
      </trkpt>
      <trkpt lat="44.11919" lon="1.83503">
        <ele>419.8</ele>
        <time>2012-12-29T09:52:39.999Z</time>
      </trkpt>
      <trkpt lat="44.11922" lon="1.83506">
        <ele>419.7</ele>
        <time>2012-12-29T09:52:40.999Z</time>
      </trkpt>
      <trkpt lat="44.11924" lon="1.83508">
        <ele>419.6</ele>
        <time>2012-12-29T09:52:41.999Z</time>
      </trkpt>
      <trkpt lat="44.11926" lon="1.8351">
        <ele>419.4</ele>
        <time>2012-12-29T09:52:42.999Z</time>
      </trkpt>
      <trkpt lat="44.11929" lon="1.83512">
        <ele>419.4</ele>
        <time>2012-12-29T09:52:43.999Z</time>
      </trkpt>
      <trkpt lat="44.11932" lon="1.83514">
        <ele>419.3</ele>
        <time>2012-12-29T09:52:44.999Z</time>
      </trkpt>
      <trkpt lat="44.11935" lon="1.83517">
        <ele>419.2</ele>
        <time>2012-12-29T09:52:45.999Z</time>
      </trkpt>
      <trkpt lat="44.11938" lon="1.8352">
        <ele>419.1</ele>
        <time>2012-12-29T09:52:46.999Z</time>
      </trkpt>
      <trkpt lat="44.11942" lon="1.83522">
        <ele>417.9</ele>
        <time>2012-12-29T09:52:47.999Z</time>
      </trkpt>
      <trkpt lat="44.11947" lon="1.83524">
        <ele>416.9</ele>
        <time>2012-12-29T09:52:48.999Z</time>
      </trkpt>
      <trkpt lat="44.11951" lon="1.83527">
        <ele>416.8</ele>
        <time>2012-12-29T09:52:49.999Z</time>
      </trkpt>
      <trkpt lat="44.11954" lon="1.8353">
        <ele>416.8</ele>
        <time>2012-12-29T09:52:50.999Z</time>
      </trkpt>
      <trkpt lat="44.11956" lon="1.83533">
        <ele>416.7</ele>
        <time>2012-12-29T09:52:51.999Z</time>
      </trkpt>
      <trkpt lat="44.11958" lon="1.83536">
        <ele>416.6</ele>
        <time>2012-12-29T09:52:52.999Z</time>
      </trkpt>
      <trkpt lat="44.11961" lon="1.83539">
        <ele>416.6</ele>
        <time>2012-12-29T09:52:53.999Z</time>
      </trkpt>
      <trkpt lat="44.11962" lon="1.83542">
        <ele>416.5</ele>
        <time>2012-12-29T09:52:54.999Z</time>
      </trkpt>
      <trkpt lat="44.11965" lon="1.83546">
        <ele>416.5</ele>
        <time>2012-12-29T09:52:55.999Z</time>
      </trkpt>
      <trkpt lat="44.11967" lon="1.83549">
        <ele>416.5</ele>
        <time>2012-12-29T09:52:56.999Z</time>
      </trkpt>
      <trkpt lat="44.11969" lon="1.83553">
        <ele>416.4</ele>
        <time>2012-12-29T09:52:57.999Z</time>
      </trkpt>
      <trkpt lat="44.11971" lon="1.83557">
        <ele>416.4</ele>
        <time>2012-12-29T09:52:58.999Z</time>
      </trkpt>
      <trkpt lat="44.11973" lon="1.8356">
        <ele>416.4</ele>
        <time>2012-12-29T09:52:59.999Z</time>
      </trkpt>
      <trkpt lat="44.11975" lon="1.83563">
        <ele>416.3</ele>
        <time>2012-12-29T09:53:00.999Z</time>
      </trkpt>
      <trkpt lat="44.11977" lon="1.83565">
        <ele>416.3</ele>
        <time>2012-12-29T09:53:01.999Z</time>
      </trkpt>
      <trkpt lat="44.11979" lon="1.83568">
        <ele>416.2</ele>
        <time>2012-12-29T09:53:02.999Z</time>
      </trkpt>
      <trkpt lat="44.1198" lon="1.83571">
        <ele>416.2</ele>
        <time>2012-12-29T09:53:03.999Z</time>
      </trkpt>
      <trkpt lat="44.11982" lon="1.83574">
        <ele>416.2</ele>
        <time>2012-12-29T09:53:04.999Z</time>
      </trkpt>
      <trkpt lat="44.11983" lon="1.83577">
        <ele>416.1</ele>
        <time>2012-12-29T09:53:05.999Z</time>
      </trkpt>
      <trkpt lat="44.11985" lon="1.8358">
        <ele>416.1</ele>
        <time>2012-12-29T09:53:06.999Z</time>
      </trkpt>
      <trkpt lat="44.11986" lon="1.83583">
        <ele>416.1</ele>
        <time>2012-12-29T09:53:07.999Z</time>
      </trkpt>
      <trkpt lat="44.11987" lon="1.83585">
        <ele>416</ele>
        <time>2012-12-29T09:53:08.999Z</time>
      </trkpt>
      <trkpt lat="44.11988" lon="1.83588">
        <ele>416</ele>
        <time>2012-12-29T09:53:09.999Z</time>
      </trkpt>
      <trkpt lat="44.11989" lon="1.83592">
        <ele>415.9</ele>
        <time>2012-12-29T09:53:10.999Z</time>
      </trkpt>
      <trkpt lat="44.11989" lon="1.83595">
        <ele>415.9</ele>
        <time>2012-12-29T09:53:11.999Z</time>
      </trkpt>
      <trkpt lat="44.1199" lon="1.83599">
        <ele>415.8</ele>
        <time>2012-12-29T09:53:12.999Z</time>
      </trkpt>
      <trkpt lat="44.1199" lon="1.83602">
        <ele>415.7</ele>
        <time>2012-12-29T09:53:13.999Z</time>
      </trkpt>
      <trkpt lat="44.11991" lon="1.83607">
        <ele>415.6</ele>
        <time>2012-12-29T09:53:15.999Z</time>
      </trkpt>
      <trkpt lat="44.11992" lon="1.8361">
        <ele>415.6</ele>
        <time>2012-12-29T09:53:16.999Z</time>
      </trkpt>
      <trkpt lat="44.11993" lon="1.83613">
        <ele>415.4</ele>
        <time>2012-12-29T09:53:18.999Z</time>
      </trkpt>
      <trkpt lat="44.11994" lon="1.83615">
        <ele>415.4</ele>
        <time>2012-12-29T09:53:19.999Z</time>
      </trkpt>
      <trkpt lat="44.11998" lon="1.83618">
        <ele>415.3</ele>
        <time>2012-12-29T09:53:22.999Z</time>
      </trkpt>
      <trkpt lat="44.11999" lon="1.8362">
        <ele>415.3</ele>
        <time>2012-12-29T09:53:23.999Z</time>
      </trkpt>
      <trkpt lat="44.12001" lon="1.83622">
        <ele>415.3</ele>
        <time>2012-12-29T09:53:24.999Z</time>
      </trkpt>
      <trkpt lat="44.12003" lon="1.83625">
        <ele>415.3</ele>
        <time>2012-12-29T09:53:25.999Z</time>
      </trkpt>
      <trkpt lat="44.12005" lon="1.83629">
        <ele>415.3</ele>
        <time>2012-12-29T09:53:26.999Z</time>
      </trkpt>
      <trkpt lat="44.12006" lon="1.83632">
        <ele>415.4</ele>
        <time>2012-12-29T09:53:27.999Z</time>
      </trkpt>
      <trkpt lat="44.12008" lon="1.83635">
        <ele>415.5</ele>
        <time>2012-12-29T09:53:28.999Z</time>
      </trkpt>
      <trkpt lat="44.12009" lon="1.83639">
        <ele>415.6</ele>
        <time>2012-12-29T09:53:29.999Z</time>
      </trkpt>
      <trkpt lat="44.12011" lon="1.83642">
        <ele>415.6</ele>
        <time>2012-12-29T09:53:30.999Z</time>
      </trkpt>
      <trkpt lat="44.12012" lon="1.83646">
        <ele>415.7</ele>
        <time>2012-12-29T09:53:31.999Z</time>
      </trkpt>
      <trkpt lat="44.12013" lon="1.83649">
        <ele>415.7</ele>
        <time>2012-12-29T09:53:32.999Z</time>
      </trkpt>
      <trkpt lat="44.12014" lon="1.83653">
        <ele>415.8</ele>
        <time>2012-12-29T09:53:33.999Z</time>
      </trkpt>
      <trkpt lat="44.12014" lon="1.83657">
        <ele>415.8</ele>
        <time>2012-12-29T09:53:34.999Z</time>
      </trkpt>
      <trkpt lat="44.12014" lon="1.8366">
        <ele>415.8</ele>
        <time>2012-12-29T09:53:35.999Z</time>
      </trkpt>
      <trkpt lat="44.12014" lon="1.83665">
        <ele>415.7</ele>
        <time>2012-12-29T09:53:36.999Z</time>
      </trkpt>
      <trkpt lat="44.12014" lon="1.83669">
        <ele>415.7</ele>
        <time>2012-12-29T09:53:37.999Z</time>
      </trkpt>
      <trkpt lat="44.12013" lon="1.83674">
        <ele>415.6</ele>
        <time>2012-12-29T09:53:38.999Z</time>
      </trkpt>
      <trkpt lat="44.12013" lon="1.83677">
        <ele>415.6</ele>
        <time>2012-12-29T09:53:39.999Z</time>
      </trkpt>
      <trkpt lat="44.12012" lon="1.8368">
        <ele>415.5</ele>
        <time>2012-12-29T09:53:40.999Z</time>
      </trkpt>
      <trkpt lat="44.12012" lon="1.83684">
        <ele>415.5</ele>
        <time>2012-12-29T09:53:41.999Z</time>
      </trkpt>
      <trkpt lat="44.12011" lon="1.8369">
        <ele>415.3</ele>
        <time>2012-12-29T09:53:43.999Z</time>
      </trkpt>
      <trkpt lat="44.12011" lon="1.83693">
        <ele>415.2</ele>
        <time>2012-12-29T09:53:44.999Z</time>
      </trkpt>
      <trkpt lat="44.12011" lon="1.83699">
        <ele>415.2</ele>
        <time>2012-12-29T09:53:46.999Z</time>
      </trkpt>
      <trkpt lat="44.12011" lon="1.83701">
        <ele>415.1</ele>
        <time>2012-12-29T09:53:47.999Z</time>
      </trkpt>
      <trkpt lat="44.12012" lon="1.83707">
        <ele>415.1</ele>
        <time>2012-12-29T09:53:49.999Z</time>
      </trkpt>
      <trkpt lat="44.12013" lon="1.8371">
        <ele>415</ele>
        <time>2012-12-29T09:53:50.999Z</time>
      </trkpt>
      <trkpt lat="44.12015" lon="1.83715">
        <ele>415.1</ele>
        <time>2012-12-29T09:53:52.999Z</time>
      </trkpt>
      <trkpt lat="44.12016" lon="1.83718">
        <ele>415</ele>
        <time>2012-12-29T09:53:53.999Z</time>
      </trkpt>
      <trkpt lat="44.12017" lon="1.83722">
        <ele>415</ele>
        <time>2012-12-29T09:53:54.999Z</time>
      </trkpt>
      <trkpt lat="44.12019" lon="1.83726">
        <ele>415</ele>
        <time>2012-12-29T09:53:55.999Z</time>
      </trkpt>
      <trkpt lat="44.1202" lon="1.8373">
        <ele>414.9</ele>
        <time>2012-12-29T09:53:56.999Z</time>
      </trkpt>
      <trkpt lat="44.12021" lon="1.83734">
        <ele>414.9</ele>
        <time>2012-12-29T09:53:57.999Z</time>
      </trkpt>
      <trkpt lat="44.12023" lon="1.83737">
        <ele>415</ele>
        <time>2012-12-29T09:53:58.999Z</time>
      </trkpt>
      <trkpt lat="44.12024" lon="1.83741">
        <ele>415</ele>
        <time>2012-12-29T09:53:59.999Z</time>
      </trkpt>
      <trkpt lat="44.12025" lon="1.83744">
        <ele>415.2</ele>
        <time>2012-12-29T09:54:00.999Z</time>
      </trkpt>
      <trkpt lat="44.12026" lon="1.83747">
        <ele>415.3</ele>
        <time>2012-12-29T09:54:01.999Z</time>
      </trkpt>
      <trkpt lat="44.12027" lon="1.83751">
        <ele>415.3</ele>
        <time>2012-12-29T09:54:02.999Z</time>
      </trkpt>
      <trkpt lat="44.12029" lon="1.83755">
        <ele>415.3</ele>
        <time>2012-12-29T09:54:03.999Z</time>
      </trkpt>
      <trkpt lat="44.1203" lon="1.83757">
        <ele>415.3</ele>
        <time>2012-12-29T09:54:04.999Z</time>
      </trkpt>
      <trkpt lat="44.12031" lon="1.8376">
        <ele>415.4</ele>
        <time>2012-12-29T09:54:05.999Z</time>
      </trkpt>
      <trkpt lat="44.12033" lon="1.83763">
        <ele>415.4</ele>
        <time>2012-12-29T09:54:06.999Z</time>
      </trkpt>
      <trkpt lat="44.12034" lon="1.83766">
        <ele>415.4</ele>
        <time>2012-12-29T09:54:07.999Z</time>
      </trkpt>
      <trkpt lat="44.12036" lon="1.83769">
        <ele>415.3</ele>
        <time>2012-12-29T09:54:08.999Z</time>
      </trkpt>
      <trkpt lat="44.12038" lon="1.83772">
        <ele>415.2</ele>
        <time>2012-12-29T09:54:09.999Z</time>
      </trkpt>
      <trkpt lat="44.1204" lon="1.83775">
        <ele>415.1</ele>
        <time>2012-12-29T09:54:10.999Z</time>
      </trkpt>
      <trkpt lat="44.12042" lon="1.83778">
        <ele>415</ele>
        <time>2012-12-29T09:54:11.999Z</time>
      </trkpt>
      <trkpt lat="44.12044" lon="1.83781">
        <ele>414.9</ele>
        <time>2012-12-29T09:54:12.999Z</time>
      </trkpt>
      <trkpt lat="44.12047" lon="1.83786">
        <ele>414.7</ele>
        <time>2012-12-29T09:54:13.999Z</time>
      </trkpt>
      <trkpt lat="44.12049" lon="1.8379">
        <ele>414.6</ele>
        <time>2012-12-29T09:54:14.999Z</time>
      </trkpt>
      <trkpt lat="44.12052" lon="1.83793">
        <ele>414.5</ele>
        <time>2012-12-29T09:54:15.999Z</time>
      </trkpt>
      <trkpt lat="44.12054" lon="1.83797">
        <ele>414.5</ele>
        <time>2012-12-29T09:54:16.999Z</time>
      </trkpt>
      <trkpt lat="44.12057" lon="1.83801">
        <ele>414.5</ele>
        <time>2012-12-29T09:54:17.999Z</time>
      </trkpt>
      <trkpt lat="44.1206" lon="1.83805">
        <ele>414.4</ele>
        <time>2012-12-29T09:54:18.999Z</time>
      </trkpt>
      <trkpt lat="44.12062" lon="1.8381">
        <ele>414.4</ele>
        <time>2012-12-29T09:54:19.999Z</time>
      </trkpt>
      <trkpt lat="44.12065" lon="1.83814">
        <ele>414.4</ele>
        <time>2012-12-29T09:54:20.999Z</time>
      </trkpt>
      <trkpt lat="44.12067" lon="1.83818">
        <ele>414.3</ele>
        <time>2012-12-29T09:54:21.999Z</time>
      </trkpt>
      <trkpt lat="44.12069" lon="1.83822">
        <ele>414.2</ele>
        <time>2012-12-29T09:54:22.999Z</time>
      </trkpt>
      <trkpt lat="44.12071" lon="1.83825">
        <ele>414.2</ele>
        <time>2012-12-29T09:54:23.999Z</time>
      </trkpt>
      <trkpt lat="44.12073" lon="1.8383">
        <ele>414.1</ele>
        <time>2012-12-29T09:54:24.999Z</time>
      </trkpt>
      <trkpt lat="44.12075" lon="1.83833">
        <ele>414</ele>
        <time>2012-12-29T09:54:25.999Z</time>
      </trkpt>
      <trkpt lat="44.12077" lon="1.83837">
        <ele>414</ele>
        <time>2012-12-29T09:54:26.999Z</time>
      </trkpt>
      <trkpt lat="44.12079" lon="1.83842">
        <ele>413.9</ele>
        <time>2012-12-29T09:54:27.999Z</time>
      </trkpt>
      <trkpt lat="44.12081" lon="1.83846">
        <ele>413.9</ele>
        <time>2012-12-29T09:54:28.999Z</time>
      </trkpt>
      <trkpt lat="44.12083" lon="1.8385">
        <ele>413.9</ele>
        <time>2012-12-29T09:54:29.999Z</time>
      </trkpt>
      <trkpt lat="44.12085" lon="1.83853">
        <ele>413.9</ele>
        <time>2012-12-29T09:54:30.999Z</time>
      </trkpt>
      <trkpt lat="44.12086" lon="1.83856">
        <ele>413.9</ele>
        <time>2012-12-29T09:54:31.999Z</time>
      </trkpt>
      <trkpt lat="44.12088" lon="1.83859">
        <ele>413.9</ele>
        <time>2012-12-29T09:54:32.999Z</time>
      </trkpt>
      <trkpt lat="44.1209" lon="1.83862">
        <ele>413.9</ele>
        <time>2012-12-29T09:54:33.999Z</time>
      </trkpt>
      <trkpt lat="44.12091" lon="1.83866">
        <ele>413.9</ele>
        <time>2012-12-29T09:54:34.999Z</time>
      </trkpt>
      <trkpt lat="44.12093" lon="1.83869">
        <ele>413.9</ele>
        <time>2012-12-29T09:54:35.999Z</time>
      </trkpt>
      <trkpt lat="44.12095" lon="1.83874">
        <ele>413.9</ele>
        <time>2012-12-29T09:54:36.999Z</time>
      </trkpt>
      <trkpt lat="44.12097" lon="1.83877">
        <ele>413.9</ele>
        <time>2012-12-29T09:54:37.999Z</time>
      </trkpt>
      <trkpt lat="44.12099" lon="1.83881">
        <ele>414</ele>
        <time>2012-12-29T09:54:38.999Z</time>
      </trkpt>
      <trkpt lat="44.121" lon="1.83885">
        <ele>414</ele>
        <time>2012-12-29T09:54:39.999Z</time>
      </trkpt>
      <trkpt lat="44.12103" lon="1.83891">
        <ele>414</ele>
        <time>2012-12-29T09:54:40.999Z</time>
      </trkpt>
      <trkpt lat="44.12105" lon="1.83897">
        <ele>414</ele>
        <time>2012-12-29T09:54:41.999Z</time>
      </trkpt>
      <trkpt lat="44.12107" lon="1.83902">
        <ele>414.1</ele>
        <time>2012-12-29T09:54:42.999Z</time>
      </trkpt>
      <trkpt lat="44.12109" lon="1.83907">
        <ele>414.1</ele>
        <time>2012-12-29T09:54:43.999Z</time>
      </trkpt>
      <trkpt lat="44.12112" lon="1.83912">
        <ele>414.1</ele>
        <time>2012-12-29T09:54:44.999Z</time>
      </trkpt>
      <trkpt lat="44.12114" lon="1.83917">
        <ele>414.4</ele>
        <time>2012-12-29T09:54:45.999Z</time>
      </trkpt>
      <trkpt lat="44.12117" lon="1.83922">
        <ele>414.2</ele>
        <time>2012-12-29T09:54:46.999Z</time>
      </trkpt>
      <trkpt lat="44.12119" lon="1.83926">
        <ele>414.1</ele>
        <time>2012-12-29T09:54:47.999Z</time>
      </trkpt>
      <trkpt lat="44.12121" lon="1.83932">
        <ele>414.2</ele>
        <time>2012-12-29T09:54:48.999Z</time>
      </trkpt>
      <trkpt lat="44.12124" lon="1.83938">
        <ele>414</ele>
        <time>2012-12-29T09:54:49.999Z</time>
      </trkpt>
      <trkpt lat="44.12126" lon="1.83944">
        <ele>413.9</ele>
        <time>2012-12-29T09:54:50.999Z</time>
      </trkpt>
      <trkpt lat="44.12129" lon="1.8395">
        <ele>413.7</ele>
        <time>2012-12-29T09:54:51.999Z</time>
      </trkpt>
      <trkpt lat="44.12131" lon="1.83956">
        <ele>413.5</ele>
        <time>2012-12-29T09:54:52.999Z</time>
      </trkpt>
      <trkpt lat="44.12133" lon="1.8396">
        <ele>413.4</ele>
        <time>2012-12-29T09:54:53.999Z</time>
      </trkpt>
      <trkpt lat="44.12135" lon="1.83965">
        <ele>413.2</ele>
        <time>2012-12-29T09:54:54.999Z</time>
      </trkpt>
      <trkpt lat="44.12138" lon="1.8397">
        <ele>413</ele>
        <time>2012-12-29T09:54:55.999Z</time>
      </trkpt>
      <trkpt lat="44.1214" lon="1.83973">
        <ele>412.8</ele>
        <time>2012-12-29T09:54:56.999Z</time>
      </trkpt>
      <trkpt lat="44.12142" lon="1.83979">
        <ele>412.6</ele>
        <time>2012-12-29T09:54:57.999Z</time>
      </trkpt>
      <trkpt lat="44.12145" lon="1.83983">
        <ele>412.4</ele>
        <time>2012-12-29T09:54:58.999Z</time>
      </trkpt>
      <trkpt lat="44.12148" lon="1.83987">
        <ele>412.1</ele>
        <time>2012-12-29T09:54:59.999Z</time>
      </trkpt>
      <trkpt lat="44.1215" lon="1.83992">
        <ele>412</ele>
        <time>2012-12-29T09:55:00.999Z</time>
      </trkpt>
      <trkpt lat="44.12153" lon="1.83997">
        <ele>411.8</ele>
        <time>2012-12-29T09:55:01.999Z</time>
      </trkpt>
      <trkpt lat="44.12155" lon="1.84002">
        <ele>411.6</ele>
        <time>2012-12-29T09:55:02.999Z</time>
      </trkpt>
      <trkpt lat="44.12158" lon="1.84007">
        <ele>411.4</ele>
        <time>2012-12-29T09:55:03.999Z</time>
      </trkpt>
      <trkpt lat="44.1216" lon="1.84012">
        <ele>411.3</ele>
        <time>2012-12-29T09:55:04.999Z</time>
      </trkpt>
      <trkpt lat="44.12163" lon="1.84016">
        <ele>411.2</ele>
        <time>2012-12-29T09:55:05.999Z</time>
      </trkpt>
      <trkpt lat="44.12166" lon="1.84022">
        <ele>411</ele>
        <time>2012-12-29T09:55:06.999Z</time>
      </trkpt>
      <trkpt lat="44.12169" lon="1.84028">
        <ele>410.9</ele>
        <time>2012-12-29T09:55:07.999Z</time>
      </trkpt>
      <trkpt lat="44.12171" lon="1.84033">
        <ele>410.8</ele>
        <time>2012-12-29T09:55:08.999Z</time>
      </trkpt>
      <trkpt lat="44.12174" lon="1.84038">
        <ele>410.8</ele>
        <time>2012-12-29T09:55:09.999Z</time>
      </trkpt>
      <trkpt lat="44.12176" lon="1.84043">
        <ele>410.7</ele>
        <time>2012-12-29T09:55:10.999Z</time>
      </trkpt>
      <trkpt lat="44.12178" lon="1.84048">
        <ele>409.8</ele>
        <time>2012-12-29T09:55:11.999Z</time>
      </trkpt>
      <trkpt lat="44.12181" lon="1.84054">
        <ele>409</ele>
        <time>2012-12-29T09:55:12.999Z</time>
      </trkpt>
      <trkpt lat="44.12183" lon="1.8406">
        <ele>408.2</ele>
        <time>2012-12-29T09:55:13.999Z</time>
      </trkpt>
      <trkpt lat="44.12185" lon="1.84065">
        <ele>407.6</ele>
        <time>2012-12-29T09:55:14.999Z</time>
      </trkpt>
      <trkpt lat="44.12187" lon="1.8407">
        <ele>407.5</ele>
        <time>2012-12-29T09:55:15.999Z</time>
      </trkpt>
      <trkpt lat="44.12189" lon="1.84075">
        <ele>407.5</ele>
        <time>2012-12-29T09:55:16.999Z</time>
      </trkpt>
      <trkpt lat="44.12191" lon="1.84081">
        <ele>407.5</ele>
        <time>2012-12-29T09:55:17.999Z</time>
      </trkpt>
      <trkpt lat="44.12193" lon="1.84086">
        <ele>407.5</ele>
        <time>2012-12-29T09:55:18.999Z</time>
      </trkpt>
      <trkpt lat="44.12194" lon="1.8409">
        <ele>407.3</ele>
        <time>2012-12-29T09:55:19.999Z</time>
      </trkpt>
      <trkpt lat="44.12196" lon="1.84094">
        <ele>407.2</ele>
        <time>2012-12-29T09:55:20.999Z</time>
      </trkpt>
      <trkpt lat="44.12198" lon="1.84098">
        <ele>407</ele>
        <time>2012-12-29T09:55:21.999Z</time>
      </trkpt>
      <trkpt lat="44.122" lon="1.84101">
        <ele>406.8</ele>
        <time>2012-12-29T09:55:22.999Z</time>
      </trkpt>
      <trkpt lat="44.12202" lon="1.84105">
        <ele>406.7</ele>
        <time>2012-12-29T09:55:23.999Z</time>
      </trkpt>
      <trkpt lat="44.12205" lon="1.84108">
        <ele>406.6</ele>
        <time>2012-12-29T09:55:24.999Z</time>
      </trkpt>
      <trkpt lat="44.12207" lon="1.84111">
        <ele>406.5</ele>
        <time>2012-12-29T09:55:25.999Z</time>
      </trkpt>
      <trkpt lat="44.12209" lon="1.84113">
        <ele>406.4</ele>
        <time>2012-12-29T09:55:26.999Z</time>
      </trkpt>
      <trkpt lat="44.1221" lon="1.84115">
        <ele>406.5</ele>
        <time>2012-12-29T09:55:27.999Z</time>
      </trkpt>
      <trkpt lat="44.12212" lon="1.84117">
        <ele>406.5</ele>
        <time>2012-12-29T09:55:28.999Z</time>
      </trkpt>
      <trkpt lat="44.12214" lon="1.8412">
        <ele>406.6</ele>
        <time>2012-12-29T09:55:29.999Z</time>
      </trkpt>
      <trkpt lat="44.12217" lon="1.84122">
        <ele>406.6</ele>
        <time>2012-12-29T09:55:30.999Z</time>
      </trkpt>
      <trkpt lat="44.12219" lon="1.84125">
        <ele>406.6</ele>
        <time>2012-12-29T09:55:31.999Z</time>
      </trkpt>
      <trkpt lat="44.12221" lon="1.84127">
        <ele>406.6</ele>
        <time>2012-12-29T09:55:32.999Z</time>
      </trkpt>
      <trkpt lat="44.12224" lon="1.84131">
        <ele>406.6</ele>
        <time>2012-12-29T09:55:33.999Z</time>
      </trkpt>
      <trkpt lat="44.12226" lon="1.84134">
        <ele>406.6</ele>
        <time>2012-12-29T09:55:34.999Z</time>
      </trkpt>
      <trkpt lat="44.12229" lon="1.84137">
        <ele>406.7</ele>
        <time>2012-12-29T09:55:35.999Z</time>
      </trkpt>
      <trkpt lat="44.12231" lon="1.8414">
        <ele>406.7</ele>
        <time>2012-12-29T09:55:36.999Z</time>
      </trkpt>
      <trkpt lat="44.12233" lon="1.84143">
        <ele>406.8</ele>
        <time>2012-12-29T09:55:37.999Z</time>
      </trkpt>
      <trkpt lat="44.12235" lon="1.84146">
        <ele>406.8</ele>
        <time>2012-12-29T09:55:38.999Z</time>
      </trkpt>
      <trkpt lat="44.12236" lon="1.84149">
        <ele>406.8</ele>
        <time>2012-12-29T09:55:39.999Z</time>
      </trkpt>
      <trkpt lat="44.12238" lon="1.84152">
        <ele>406.9</ele>
        <time>2012-12-29T09:55:40.999Z</time>
      </trkpt>
      <trkpt lat="44.12239" lon="1.84154">
        <ele>406.9</ele>
        <time>2012-12-29T09:55:41.999Z</time>
      </trkpt>
      <trkpt lat="44.12241" lon="1.84158">
        <ele>407</ele>
        <time>2012-12-29T09:55:42.999Z</time>
      </trkpt>
      <trkpt lat="44.12243" lon="1.84162">
        <ele>407</ele>
        <time>2012-12-29T09:55:43.999Z</time>
      </trkpt>
      <trkpt lat="44.12245" lon="1.84166">
        <ele>407</ele>
        <time>2012-12-29T09:55:44.999Z</time>
      </trkpt>
      <trkpt lat="44.12247" lon="1.8417">
        <ele>406.9</ele>
        <time>2012-12-29T09:55:45.999Z</time>
      </trkpt>
      <trkpt lat="44.12249" lon="1.84175">
        <ele>406.9</ele>
        <time>2012-12-29T09:55:46.999Z</time>
      </trkpt>
      <trkpt lat="44.12251" lon="1.84179">
        <ele>406.9</ele>
        <time>2012-12-29T09:55:47.999Z</time>
      </trkpt>
      <trkpt lat="44.12252" lon="1.84182">
        <ele>406.9</ele>
        <time>2012-12-29T09:55:48.999Z</time>
      </trkpt>
      <trkpt lat="44.12254" lon="1.84185">
        <ele>406.9</ele>
        <time>2012-12-29T09:55:49.999Z</time>
      </trkpt>
      <trkpt lat="44.12255" lon="1.84189">
        <ele>406.9</ele>
        <time>2012-12-29T09:55:50.999Z</time>
      </trkpt>
      <trkpt lat="44.12257" lon="1.84193">
        <ele>406.8</ele>
        <time>2012-12-29T09:55:51.999Z</time>
      </trkpt>
      <trkpt lat="44.12258" lon="1.84197">
        <ele>406.8</ele>
        <time>2012-12-29T09:55:52.999Z</time>
      </trkpt>
      <trkpt lat="44.12259" lon="1.84201">
        <ele>406.7</ele>
        <time>2012-12-29T09:55:53.999Z</time>
      </trkpt>
      <trkpt lat="44.12261" lon="1.84204">
        <ele>406.8</ele>
        <time>2012-12-29T09:55:54.999Z</time>
      </trkpt>
      <trkpt lat="44.12262" lon="1.84209">
        <ele>406.8</ele>
        <time>2012-12-29T09:55:55.999Z</time>
      </trkpt>
      <trkpt lat="44.12263" lon="1.84212">
        <ele>406.8</ele>
        <time>2012-12-29T09:55:56.999Z</time>
      </trkpt>
      <trkpt lat="44.12264" lon="1.84216">
        <ele>406.8</ele>
        <time>2012-12-29T09:55:57.999Z</time>
      </trkpt>
      <trkpt lat="44.12265" lon="1.8422">
        <ele>406.7</ele>
        <time>2012-12-29T09:55:58.999Z</time>
      </trkpt>
      <trkpt lat="44.12266" lon="1.84224">
        <ele>406.7</ele>
        <time>2012-12-29T09:55:59.999Z</time>
      </trkpt>
      <trkpt lat="44.12267" lon="1.84229">
        <ele>406.7</ele>
        <time>2012-12-29T09:56:00.999Z</time>
      </trkpt>
      <trkpt lat="44.12268" lon="1.84233">
        <ele>406.6</ele>
        <time>2012-12-29T09:56:01.999Z</time>
      </trkpt>
      <trkpt lat="44.12269" lon="1.84237">
        <ele>406.5</ele>
        <time>2012-12-29T09:56:02.999Z</time>
      </trkpt>
      <trkpt lat="44.12269" lon="1.84241">
        <ele>406.5</ele>
        <time>2012-12-29T09:56:03.999Z</time>
      </trkpt>
      <trkpt lat="44.12269" lon="1.84245">
        <ele>406.5</ele>
        <time>2012-12-29T09:56:04.999Z</time>
      </trkpt>
      <trkpt lat="44.12269" lon="1.8425">
        <ele>406.5</ele>
        <time>2012-12-29T09:56:05.999Z</time>
      </trkpt>
      <trkpt lat="44.12269" lon="1.84254">
        <ele>406.5</ele>
        <time>2012-12-29T09:56:06.999Z</time>
      </trkpt>
      <trkpt lat="44.12269" lon="1.84259">
        <ele>406.4</ele>
        <time>2012-12-29T09:56:07.999Z</time>
      </trkpt>
      <trkpt lat="44.12268" lon="1.84263">
        <ele>406.3</ele>
        <time>2012-12-29T09:56:08.999Z</time>
      </trkpt>
      <trkpt lat="44.12267" lon="1.84267">
        <ele>406.3</ele>
        <time>2012-12-29T09:56:09.999Z</time>
      </trkpt>
      <trkpt lat="44.12266" lon="1.8427">
        <ele>406.2</ele>
        <time>2012-12-29T09:56:10.999Z</time>
      </trkpt>
      <trkpt lat="44.12266" lon="1.84274">
        <ele>406.2</ele>
        <time>2012-12-29T09:56:11.999Z</time>
      </trkpt>
      <trkpt lat="44.12265" lon="1.84277">
        <ele>406.2</ele>
        <time>2012-12-29T09:56:12.999Z</time>
      </trkpt>
      <trkpt lat="44.12264" lon="1.8428">
        <ele>406.1</ele>
        <time>2012-12-29T09:56:13.999Z</time>
      </trkpt>
      <trkpt lat="44.12263" lon="1.84286">
        <ele>406</ele>
        <time>2012-12-29T09:56:15.999Z</time>
      </trkpt>
      <trkpt lat="44.12263" lon="1.8429">
        <ele>406</ele>
        <time>2012-12-29T09:56:16.999Z</time>
      </trkpt>
      <trkpt lat="44.12262" lon="1.84293">
        <ele>406</ele>
        <time>2012-12-29T09:56:17.999Z</time>
      </trkpt>
      <trkpt lat="44.12262" lon="1.84296">
        <ele>405.9</ele>
        <time>2012-12-29T09:56:18.999Z</time>
      </trkpt>
      <trkpt lat="44.12262" lon="1.843">
        <ele>405.9</ele>
        <time>2012-12-29T09:56:19.999Z</time>
      </trkpt>
      <trkpt lat="44.12261" lon="1.84304">
        <ele>405.8</ele>
        <time>2012-12-29T09:56:20.999Z</time>
      </trkpt>
      <trkpt lat="44.12261" lon="1.84307">
        <ele>405.7</ele>
        <time>2012-12-29T09:56:21.999Z</time>
      </trkpt>
      <trkpt lat="44.12261" lon="1.84311">
        <ele>405.7</ele>
        <time>2012-12-29T09:56:22.999Z</time>
      </trkpt>
      <trkpt lat="44.12261" lon="1.84315">
        <ele>405.6</ele>
        <time>2012-12-29T09:56:23.999Z</time>
      </trkpt>
      <trkpt lat="44.1226" lon="1.84318">
        <ele>405.5</ele>
        <time>2012-12-29T09:56:24.999Z</time>
      </trkpt>
      <trkpt lat="44.12261" lon="1.84322">
        <ele>405.5</ele>
        <time>2012-12-29T09:56:25.999Z</time>
      </trkpt>
      <trkpt lat="44.12261" lon="1.84326">
        <ele>405.4</ele>
        <time>2012-12-29T09:56:26.999Z</time>
      </trkpt>
      <trkpt lat="44.12261" lon="1.84329">
        <ele>405.4</ele>
        <time>2012-12-29T09:56:27.999Z</time>
      </trkpt>
      <trkpt lat="44.12261" lon="1.84333">
        <ele>405.4</ele>
        <time>2012-12-29T09:56:28.999Z</time>
      </trkpt>
      <trkpt lat="44.1226" lon="1.84336">
        <ele>405.4</ele>
        <time>2012-12-29T09:56:29.999Z</time>
      </trkpt>
      <trkpt lat="44.1226" lon="1.8434">
        <ele>405.4</ele>
        <time>2012-12-29T09:56:30.999Z</time>
      </trkpt>
      <trkpt lat="44.12259" lon="1.84343">
        <ele>405.4</ele>
        <time>2012-12-29T09:56:31.999Z</time>
      </trkpt>
      <trkpt lat="44.12258" lon="1.84347">
        <ele>405.4</ele>
        <time>2012-12-29T09:56:32.999Z</time>
      </trkpt>
      <trkpt lat="44.12258" lon="1.8435">
        <ele>405.3</ele>
        <time>2012-12-29T09:56:33.999Z</time>
      </trkpt>
      <trkpt lat="44.12258" lon="1.84353">
        <ele>405.2</ele>
        <time>2012-12-29T09:56:34.999Z</time>
      </trkpt>
      <trkpt lat="44.12257" lon="1.84356">
        <ele>405.2</ele>
        <time>2012-12-29T09:56:35.999Z</time>
      </trkpt>
      <trkpt lat="44.12257" lon="1.8436">
        <ele>405.1</ele>
        <time>2012-12-29T09:56:36.999Z</time>
      </trkpt>
      <trkpt lat="44.12257" lon="1.84366">
        <ele>405.1</ele>
        <time>2012-12-29T09:56:38.999Z</time>
      </trkpt>
      <trkpt lat="44.12256" lon="1.84369">
        <ele>405</ele>
        <time>2012-12-29T09:56:39.999Z</time>
      </trkpt>
      <trkpt lat="44.12256" lon="1.84373">
        <ele>405.1</ele>
        <time>2012-12-29T09:56:40.999Z</time>
      </trkpt>
      <trkpt lat="44.12256" lon="1.84376">
        <ele>405.1</ele>
        <time>2012-12-29T09:56:41.999Z</time>
      </trkpt>
      <trkpt lat="44.12257" lon="1.8438">
        <ele>405.2</ele>
        <time>2012-12-29T09:56:42.999Z</time>
      </trkpt>
      <trkpt lat="44.12257" lon="1.84384">
        <ele>405.2</ele>
        <time>2012-12-29T09:56:43.999Z</time>
      </trkpt>
      <trkpt lat="44.12257" lon="1.84388">
        <ele>405.3</ele>
        <time>2012-12-29T09:56:44.999Z</time>
      </trkpt>
      <trkpt lat="44.12257" lon="1.84392">
        <ele>405.4</ele>
        <time>2012-12-29T09:56:45.999Z</time>
      </trkpt>
      <trkpt lat="44.12257" lon="1.84396">
        <ele>405.5</ele>
        <time>2012-12-29T09:56:46.999Z</time>
      </trkpt>
      <trkpt lat="44.12256" lon="1.84399">
        <ele>405.5</ele>
        <time>2012-12-29T09:56:47.999Z</time>
      </trkpt>
      <trkpt lat="44.12256" lon="1.84405">
        <ele>405.7</ele>
        <time>2012-12-29T09:56:50.000Z</time>
      </trkpt>
      <trkpt lat="44.12255" lon="1.84408">
        <ele>405.8</ele>
        <time>2012-12-29T09:56:51.000Z</time>
      </trkpt>
      <trkpt lat="44.12255" lon="1.84412">
        <ele>405.9</ele>
        <time>2012-12-29T09:56:52.000Z</time>
      </trkpt>
      <trkpt lat="44.12255" lon="1.84415">
        <ele>405.9</ele>
        <time>2012-12-29T09:56:53.000Z</time>
      </trkpt>
      <trkpt lat="44.12254" lon="1.84421">
        <ele>406</ele>
        <time>2012-12-29T09:56:55.000Z</time>
      </trkpt>
      <trkpt lat="44.12254" lon="1.84424">
        <ele>406</ele>
        <time>2012-12-29T09:56:56.000Z</time>
      </trkpt>
      <trkpt lat="44.12253" lon="1.84429">
        <ele>406.1</ele>
        <time>2012-12-29T09:56:58.000Z</time>
      </trkpt>
      <trkpt lat="44.12253" lon="1.84432">
        <ele>406.2</ele>
        <time>2012-12-29T09:56:59.000Z</time>
      </trkpt>
      <trkpt lat="44.12252" lon="1.84438">
        <ele>406.3</ele>
        <time>2012-12-29T09:57:01.000Z</time>
      </trkpt>
      <trkpt lat="44.12252" lon="1.84441">
        <ele>406.3</ele>
        <time>2012-12-29T09:57:02.000Z</time>
      </trkpt>
      <trkpt lat="44.12251" lon="1.84445">
        <ele>406.4</ele>
        <time>2012-12-29T09:57:03.000Z</time>
      </trkpt>
      <trkpt lat="44.12251" lon="1.84448">
        <ele>406.4</ele>
        <time>2012-12-29T09:57:04.000Z</time>
      </trkpt>
      <trkpt lat="44.12251" lon="1.84453">
        <ele>406.6</ele>
        <time>2012-12-29T09:57:06.000Z</time>
      </trkpt>
      <trkpt lat="44.1225" lon="1.84456">
        <ele>406.7</ele>
        <time>2012-12-29T09:57:07.000Z</time>
      </trkpt>
      <trkpt lat="44.1225" lon="1.8446">
        <ele>406.8</ele>
        <time>2012-12-29T09:57:08.000Z</time>
      </trkpt>
      <trkpt lat="44.1225" lon="1.84463">
        <ele>406.9</ele>
        <time>2012-12-29T09:57:09.000Z</time>
      </trkpt>
      <trkpt lat="44.1225" lon="1.84468">
        <ele>407.2</ele>
        <time>2012-12-29T09:57:11.000Z</time>
      </trkpt>
      <trkpt lat="44.12249" lon="1.84471">
        <ele>407.3</ele>
        <time>2012-12-29T09:57:12.000Z</time>
      </trkpt>
      <trkpt lat="44.12249" lon="1.84476">
        <ele>407.5</ele>
        <time>2012-12-29T09:57:14.000Z</time>
      </trkpt>
      <trkpt lat="44.12249" lon="1.84479">
        <ele>407.6</ele>
        <time>2012-12-29T09:57:15.000Z</time>
      </trkpt>
      <trkpt lat="44.12247" lon="1.84484">
        <ele>407.8</ele>
        <time>2012-12-29T09:57:17.000Z</time>
      </trkpt>
      <trkpt lat="44.12247" lon="1.84486">
        <ele>407.8</ele>
        <time>2012-12-29T09:57:18.000Z</time>
      </trkpt>
      <trkpt lat="44.12245" lon="1.84492">
        <ele>407.9</ele>
        <time>2012-12-29T09:57:20.000Z</time>
      </trkpt>
      <trkpt lat="44.12244" lon="1.84495">
        <ele>407.9</ele>
        <time>2012-12-29T09:57:21.000Z</time>
      </trkpt>
      <trkpt lat="44.12243" lon="1.84498">
        <ele>407.9</ele>
        <time>2012-12-29T09:57:22.000Z</time>
      </trkpt>
      <trkpt lat="44.12243" lon="1.84502">
        <ele>407.9</ele>
        <time>2012-12-29T09:57:23.000Z</time>
      </trkpt>
      <trkpt lat="44.12242" lon="1.84505">
        <ele>407.9</ele>
        <time>2012-12-29T09:57:24.000Z</time>
      </trkpt>
      <trkpt lat="44.1224" lon="1.84508">
        <ele>408</ele>
        <time>2012-12-29T09:57:25.000Z</time>
      </trkpt>
      <trkpt lat="44.12239" lon="1.84511">
        <ele>408.1</ele>
        <time>2012-12-29T09:57:26.000Z</time>
      </trkpt>
      <trkpt lat="44.12238" lon="1.84513">
        <ele>408.2</ele>
        <time>2012-12-29T09:57:27.000Z</time>
      </trkpt>
      <trkpt lat="44.12237" lon="1.84516">
        <ele>408.2</ele>
        <time>2012-12-29T09:57:28.000Z</time>
      </trkpt>
      <trkpt lat="44.12236" lon="1.8452">
        <ele>408.3</ele>
        <time>2012-12-29T09:57:29.000Z</time>
      </trkpt>
      <trkpt lat="44.12234" lon="1.84523">
        <ele>408.3</ele>
        <time>2012-12-29T09:57:30.000Z</time>
      </trkpt>
      <trkpt lat="44.12234" lon="1.84526">
        <ele>408.4</ele>
        <time>2012-12-29T09:57:31.000Z</time>
      </trkpt>
      <trkpt lat="44.12233" lon="1.84531">
        <ele>408.5</ele>
        <time>2012-12-29T09:57:33.000Z</time>
      </trkpt>
      <trkpt lat="44.12233" lon="1.84534">
        <ele>408.6</ele>
        <time>2012-12-29T09:57:34.000Z</time>
      </trkpt>
      <trkpt lat="44.12234" lon="1.84539">
        <ele>408.8</ele>
        <time>2012-12-29T09:57:36.000Z</time>
      </trkpt>
      <trkpt lat="44.12235" lon="1.84542">
        <ele>408.8</ele>
        <time>2012-12-29T09:57:37.000Z</time>
      </trkpt>
      <trkpt lat="44.12236" lon="1.84545">
        <ele>408.8</ele>
        <time>2012-12-29T09:57:38.000Z</time>
      </trkpt>
      <trkpt lat="44.12236" lon="1.84548">
        <ele>408.8</ele>
        <time>2012-12-29T09:57:39.000Z</time>
      </trkpt>
      <trkpt lat="44.12236" lon="1.84553">
        <ele>408.9</ele>
        <time>2012-12-29T09:57:40.000Z</time>
      </trkpt>
      <trkpt lat="44.12237" lon="1.84556">
        <ele>409</ele>
        <time>2012-12-29T09:57:41.000Z</time>
      </trkpt>
      <trkpt lat="44.12236" lon="1.8456">
        <ele>409.1</ele>
        <time>2012-12-29T09:57:42.000Z</time>
      </trkpt>
      <trkpt lat="44.12236" lon="1.84563">
        <ele>409.2</ele>
        <time>2012-12-29T09:57:43.000Z</time>
      </trkpt>
      <trkpt lat="44.12235" lon="1.84567">
        <ele>409.4</ele>
        <time>2012-12-29T09:57:44.000Z</time>
      </trkpt>
      <trkpt lat="44.12234" lon="1.8457">
        <ele>409.5</ele>
        <time>2012-12-29T09:57:45.000Z</time>
      </trkpt>
      <trkpt lat="44.12234" lon="1.84573">
        <ele>409.6</ele>
        <time>2012-12-29T09:57:46.000Z</time>
      </trkpt>
      <trkpt lat="44.12233" lon="1.84576">
        <ele>409.7</ele>
        <time>2012-12-29T09:57:47.000Z</time>
      </trkpt>
      <trkpt lat="44.1223" lon="1.84581">
        <ele>410</ele>
        <time>2012-12-29T09:57:49.000Z</time>
      </trkpt>
      <trkpt lat="44.12229" lon="1.84583">
        <ele>410</ele>
        <time>2012-12-29T09:57:50.000Z</time>
      </trkpt>
      <trkpt lat="44.12227" lon="1.84588">
        <ele>410.2</ele>
        <time>2012-12-29T09:57:52.000Z</time>
      </trkpt>
      <trkpt lat="44.12226" lon="1.84591">
        <ele>410.2</ele>
        <time>2012-12-29T09:57:53.000Z</time>
      </trkpt>
      <trkpt lat="44.12226" lon="1.84596">
        <ele>410.4</ele>
        <time>2012-12-29T09:57:55.000Z</time>
      </trkpt>
      <trkpt lat="44.12226" lon="1.84598">
        <ele>410.5</ele>
        <time>2012-12-29T09:57:56.000Z</time>
      </trkpt>
      <trkpt lat="44.12227" lon="1.84603">
        <ele>410.6</ele>
        <time>2012-12-29T09:57:58.000Z</time>
      </trkpt>
      <trkpt lat="44.12228" lon="1.84606">
        <ele>410.7</ele>
        <time>2012-12-29T09:57:59.000Z</time>
      </trkpt>
      <trkpt lat="44.12229" lon="1.84611">
        <ele>410.8</ele>
        <time>2012-12-29T09:58:01.000Z</time>
      </trkpt>
      <trkpt lat="44.1223" lon="1.84613">
        <ele>410.9</ele>
        <time>2012-12-29T09:58:02.000Z</time>
      </trkpt>
      <trkpt lat="44.12232" lon="1.84618">
        <ele>411.1</ele>
        <time>2012-12-29T09:58:04.000Z</time>
      </trkpt>
      <trkpt lat="44.12233" lon="1.84621">
        <ele>411.1</ele>
        <time>2012-12-29T09:58:05.000Z</time>
      </trkpt>
      <trkpt lat="44.12233" lon="1.84625">
        <ele>411.3</ele>
        <time>2012-12-29T09:58:06.000Z</time>
      </trkpt>
      <trkpt lat="44.12233" lon="1.84629">
        <ele>411.4</ele>
        <time>2012-12-29T09:58:07.000Z</time>
      </trkpt>
      <trkpt lat="44.12233" lon="1.84634">
        <ele>411.8</ele>
        <time>2012-12-29T09:58:09.000Z</time>
      </trkpt>
      <trkpt lat="44.12233" lon="1.84638">
        <ele>412</ele>
        <time>2012-12-29T09:58:10.000Z</time>
      </trkpt>
      <trkpt lat="44.12232" lon="1.84643">
        <ele>412.2</ele>
        <time>2012-12-29T09:58:12.000Z</time>
      </trkpt>
      <trkpt lat="44.12232" lon="1.84645">
        <ele>412.3</ele>
        <time>2012-12-29T09:58:13.000Z</time>
      </trkpt>
      <trkpt lat="44.12233" lon="1.84651">
        <ele>412.5</ele>
        <time>2012-12-29T09:58:15.000Z</time>
      </trkpt>
      <trkpt lat="44.12233" lon="1.84654">
        <ele>412.6</ele>
        <time>2012-12-29T09:58:16.000Z</time>
      </trkpt>
      <trkpt lat="44.12233" lon="1.84657">
        <ele>412.8</ele>
        <time>2012-12-29T09:58:17.000Z</time>
      </trkpt>
      <trkpt lat="44.12234" lon="1.8466">
        <ele>412.9</ele>
        <time>2012-12-29T09:58:18.000Z</time>
      </trkpt>
      <trkpt lat="44.12235" lon="1.84664">
        <ele>413</ele>
        <time>2012-12-29T09:58:19.000Z</time>
      </trkpt>
      <trkpt lat="44.12236" lon="1.84667">
        <ele>413.1</ele>
        <time>2012-12-29T09:58:20.000Z</time>
      </trkpt>
      <trkpt lat="44.12237" lon="1.84671">
        <ele>413.3</ele>
        <time>2012-12-29T09:58:22.000Z</time>
      </trkpt>
      <trkpt lat="44.12237" lon="1.84674">
        <ele>413.3</ele>
        <time>2012-12-29T09:58:23.000Z</time>
      </trkpt>
      <trkpt lat="44.12238" lon="1.8468">
        <ele>413.4</ele>
        <time>2012-12-29T09:58:25.000Z</time>
      </trkpt>
      <trkpt lat="44.12238" lon="1.84684">
        <ele>413.4</ele>
        <time>2012-12-29T09:58:26.000Z</time>
      </trkpt>
      <trkpt lat="44.12237" lon="1.8469">
        <ele>413.3</ele>
        <time>2012-12-29T09:58:28.000Z</time>
      </trkpt>
      <trkpt lat="44.12236" lon="1.84692">
        <ele>413.3</ele>
        <time>2012-12-29T09:58:29.000Z</time>
      </trkpt>
      <trkpt lat="44.12233" lon="1.84697">
        <ele>413.3</ele>
        <time>2012-12-29T09:58:31.000Z</time>
      </trkpt>
      <trkpt lat="44.12232" lon="1.84699">
        <ele>413.3</ele>
        <time>2012-12-29T09:58:32.000Z</time>
      </trkpt>
      <trkpt lat="44.1223" lon="1.84704">
        <ele>413.5</ele>
        <time>2012-12-29T09:58:34.000Z</time>
      </trkpt>
      <trkpt lat="44.12229" lon="1.84707">
        <ele>413.6</ele>
        <time>2012-12-29T09:58:35.000Z</time>
      </trkpt>
      <trkpt lat="44.12228" lon="1.8471">
        <ele>413.7</ele>
        <time>2012-12-29T09:58:36.000Z</time>
      </trkpt>
      <trkpt lat="44.12227" lon="1.84713">
        <ele>413.8</ele>
        <time>2012-12-29T09:58:37.000Z</time>
      </trkpt>
      <trkpt lat="44.12226" lon="1.84718">
        <ele>413.8</ele>
        <time>2012-12-29T09:58:38.000Z</time>
      </trkpt>
      <trkpt lat="44.12225" lon="1.84721">
        <ele>413.9</ele>
        <time>2012-12-29T09:58:39.000Z</time>
      </trkpt>
      <trkpt lat="44.12225" lon="1.84725">
        <ele>414.1</ele>
        <time>2012-12-29T09:58:40.000Z</time>
      </trkpt>
      <trkpt lat="44.12225" lon="1.84728">
        <ele>414.1</ele>
        <time>2012-12-29T09:58:41.000Z</time>
      </trkpt>
      <trkpt lat="44.12225" lon="1.84733">
        <ele>414.3</ele>
        <time>2012-12-29T09:58:43.000Z</time>
      </trkpt>
      <trkpt lat="44.12224" lon="1.84736">
        <ele>414.4</ele>
        <time>2012-12-29T09:58:44.000Z</time>
      </trkpt>
      <trkpt lat="44.12224" lon="1.8474">
        <ele>414.5</ele>
        <time>2012-12-29T09:58:45.000Z</time>
      </trkpt>
      <trkpt lat="44.12224" lon="1.84744">
        <ele>414.6</ele>
        <time>2012-12-29T09:58:46.000Z</time>
      </trkpt>
      <trkpt lat="44.12223" lon="1.84747">
        <ele>414.7</ele>
        <time>2012-12-29T09:58:47.000Z</time>
      </trkpt>
      <trkpt lat="44.12223" lon="1.8475">
        <ele>414.8</ele>
        <time>2012-12-29T09:58:48.000Z</time>
      </trkpt>
      <trkpt lat="44.12223" lon="1.84754">
        <ele>414.9</ele>
        <time>2012-12-29T09:58:49.000Z</time>
      </trkpt>
      <trkpt lat="44.12223" lon="1.84757">
        <ele>414.9</ele>
        <time>2012-12-29T09:58:50.000Z</time>
      </trkpt>
      <trkpt lat="44.12223" lon="1.84762">
        <ele>415</ele>
        <time>2012-12-29T09:58:52.000Z</time>
      </trkpt>
      <trkpt lat="44.12223" lon="1.84765">
        <ele>415.1</ele>
        <time>2012-12-29T09:58:53.000Z</time>
      </trkpt>
      <trkpt lat="44.12224" lon="1.84768">
        <ele>415.1</ele>
        <time>2012-12-29T09:58:55.000Z</time>
      </trkpt>
      <trkpt lat="44.12225" lon="1.8477">
        <ele>415.2</ele>
        <time>2012-12-29T09:58:56.000Z</time>
      </trkpt>
      <trkpt lat="44.12229" lon="1.84774">
        <ele>415.5</ele>
        <time>2012-12-29T09:58:59.000Z</time>
      </trkpt>
      <trkpt lat="44.1223" lon="1.84776">
        <ele>415.5</ele>
        <time>2012-12-29T09:59:00.000Z</time>
      </trkpt>
      <trkpt lat="44.12233" lon="1.84781">
        <ele>415.7</ele>
        <time>2012-12-29T09:59:02.000Z</time>
      </trkpt>
      <trkpt lat="44.12234" lon="1.84783">
        <ele>415.7</ele>
        <time>2012-12-29T09:59:03.000Z</time>
      </trkpt>
      <trkpt lat="44.12235" lon="1.84787">
        <ele>415.7</ele>
        <time>2012-12-29T09:59:04.000Z</time>
      </trkpt>
      <trkpt lat="44.12237" lon="1.8479">
        <ele>415.8</ele>
        <time>2012-12-29T09:59:05.000Z</time>
      </trkpt>
      <trkpt lat="44.12239" lon="1.84794">
        <ele>415.8</ele>
        <time>2012-12-29T09:59:06.000Z</time>
      </trkpt>
      <trkpt lat="44.1224" lon="1.84797">
        <ele>415.9</ele>
        <time>2012-12-29T09:59:07.000Z</time>
      </trkpt>
      <trkpt lat="44.12241" lon="1.84801">
        <ele>416</ele>
        <time>2012-12-29T09:59:08.000Z</time>
      </trkpt>
      <trkpt lat="44.12243" lon="1.84806">
        <ele>416</ele>
        <time>2012-12-29T09:59:09.000Z</time>
      </trkpt>
      <trkpt lat="44.12244" lon="1.84811">
        <ele>416.1</ele>
        <time>2012-12-29T09:59:10.000Z</time>
      </trkpt>
      <trkpt lat="44.12246" lon="1.84816">
        <ele>416.1</ele>
        <time>2012-12-29T09:59:11.000Z</time>
      </trkpt>
      <trkpt lat="44.12247" lon="1.8482">
        <ele>416.2</ele>
        <time>2012-12-29T09:59:12.000Z</time>
      </trkpt>
      <trkpt lat="44.12248" lon="1.84822">
        <ele>416.2</ele>
        <time>2012-12-29T09:59:13.000Z</time>
      </trkpt>
      <trkpt lat="44.1225" lon="1.84817">
        <ele>417.1</ele>
        <time>2012-12-29T09:59:59.000Z</time>
      </trkpt>
      <trkpt lat="44.12251" lon="1.84816">
        <ele>417.1</ele>
        <time>2012-12-29T10:00:00.000Z</time>
      </trkpt>
      <trkpt lat="44.12247" lon="1.84819">
        <ele>416.6</ele>
        <time>2012-12-29T10:00:11.000Z</time>
      </trkpt>
      <trkpt lat="44.12247" lon="1.84819">
        <ele>416.6</ele>
        <time>2012-12-29T10:00:12.000Z</time>
      </trkpt>
      <trkpt lat="44.1225" lon="1.84823">
        <ele>416.6</ele>
        <time>2012-12-29T10:00:32.000Z</time>
      </trkpt>
      <trkpt lat="44.1225" lon="1.84824">
        <ele>416.6</ele>
        <time>2012-12-29T10:00:33.000Z</time>
      </trkpt>
      <trkpt lat="44.12254" lon="1.84827">
        <ele>418.2</ele>
        <time>2012-12-29T10:02:31.000Z</time>
      </trkpt>
      <trkpt lat="44.12255" lon="1.84829">
        <ele>418.1</ele>
        <time>2012-12-29T10:02:32.000Z</time>
      </trkpt>
      <trkpt lat="44.12256" lon="1.84832">
        <ele>418.1</ele>
        <time>2012-12-29T10:02:33.000Z</time>
      </trkpt>
      <trkpt lat="44.12257" lon="1.84835">
        <ele>418</ele>
        <time>2012-12-29T10:02:34.000Z</time>
      </trkpt>
      <trkpt lat="44.12258" lon="1.8484">
        <ele>418</ele>
        <time>2012-12-29T10:02:35.000Z</time>
      </trkpt>
      <trkpt lat="44.12261" lon="1.84846">
        <ele>417.9</ele>
        <time>2012-12-29T10:02:36.000Z</time>
      </trkpt>
      <trkpt lat="44.12265" lon="1.84853">
        <ele>417.8</ele>
        <time>2012-12-29T10:02:37.000Z</time>
      </trkpt>
      <trkpt lat="44.1227" lon="1.84859">
        <ele>417.7</ele>
        <time>2012-12-29T10:02:38.000Z</time>
      </trkpt>
      <trkpt lat="44.12274" lon="1.84864">
        <ele>417.6</ele>
        <time>2012-12-29T10:02:39.000Z</time>
      </trkpt>
      <trkpt lat="44.12277" lon="1.84869">
        <ele>416.4</ele>
        <time>2012-12-29T10:02:40.000Z</time>
      </trkpt>
      <trkpt lat="44.1228" lon="1.84874">
        <ele>415.3</ele>
        <time>2012-12-29T10:02:41.000Z</time>
      </trkpt>
      <trkpt lat="44.12283" lon="1.84883">
        <ele>414.1</ele>
        <time>2012-12-29T10:02:42.000Z</time>
      </trkpt>
      <trkpt lat="44.12285" lon="1.8489">
        <ele>413</ele>
        <time>2012-12-29T10:02:43.000Z</time>
      </trkpt>
      <trkpt lat="44.12287" lon="1.84896">
        <ele>412.9</ele>
        <time>2012-12-29T10:02:44.000Z</time>
      </trkpt>
      <trkpt lat="44.12289" lon="1.849">
        <ele>412.9</ele>
        <time>2012-12-29T10:02:45.000Z</time>
      </trkpt>
      <trkpt lat="44.12292" lon="1.84903">
        <ele>412.8</ele>
        <time>2012-12-29T10:02:46.000Z</time>
      </trkpt>
      <trkpt lat="44.12295" lon="1.84904">
        <ele>412.7</ele>
        <time>2012-12-29T10:02:47.000Z</time>
      </trkpt>
      <trkpt lat="44.12298" lon="1.84903">
        <ele>412.6</ele>
        <time>2012-12-29T10:02:48.000Z</time>
      </trkpt>
      <trkpt lat="44.12302" lon="1.84902">
        <ele>412.4</ele>
        <time>2012-12-29T10:02:49.000Z</time>
      </trkpt>
      <trkpt lat="44.12307" lon="1.849">
        <ele>412.4</ele>
        <time>2012-12-29T10:02:50.000Z</time>
      </trkpt>
      <trkpt lat="44.12311" lon="1.84898">
        <ele>411.4</ele>
        <time>2012-12-29T10:02:51.000Z</time>
      </trkpt>
      <trkpt lat="44.12315" lon="1.84896">
        <ele>410.5</ele>
        <time>2012-12-29T10:02:52.000Z</time>
      </trkpt>
      <trkpt lat="44.12321" lon="1.84893">
        <ele>409.6</ele>
        <time>2012-12-29T10:02:53.000Z</time>
      </trkpt>
      <trkpt lat="44.12326" lon="1.84889">
        <ele>408.2</ele>
        <time>2012-12-29T10:02:54.000Z</time>
      </trkpt>
      <trkpt lat="44.12331" lon="1.84884">
        <ele>407</ele>
        <time>2012-12-29T10:02:55.000Z</time>
      </trkpt>
      <trkpt lat="44.12336" lon="1.8488">
        <ele>406</ele>
        <time>2012-12-29T10:02:56.000Z</time>
      </trkpt>
      <trkpt lat="44.12341" lon="1.84875">
        <ele>404.8</ele>
        <time>2012-12-29T10:02:57.000Z</time>
      </trkpt>
      <trkpt lat="44.12346" lon="1.84871">
        <ele>403.5</ele>
        <time>2012-12-29T10:02:58.000Z</time>
      </trkpt>
      <trkpt lat="44.1235" lon="1.84867">
        <ele>402.2</ele>
        <time>2012-12-29T10:02:59.000Z</time>
      </trkpt>
      <trkpt lat="44.12354" lon="1.84864">
        <ele>400.8</ele>
        <time>2012-12-29T10:03:00.000Z</time>
      </trkpt>
      <trkpt lat="44.12357" lon="1.8486">
        <ele>400.7</ele>
        <time>2012-12-29T10:03:01.000Z</time>
      </trkpt>
      <trkpt lat="44.12361" lon="1.84857">
        <ele>400.7</ele>
        <time>2012-12-29T10:03:02.000Z</time>
      </trkpt>
      <trkpt lat="44.12362" lon="1.84854">
        <ele>400.6</ele>
        <time>2012-12-29T10:03:03.000Z</time>
      </trkpt>
      <trkpt lat="44.12364" lon="1.84851">
        <ele>400.6</ele>
        <time>2012-12-29T10:03:04.000Z</time>
      </trkpt>
      <trkpt lat="44.12367" lon="1.8485">
        <ele>400.5</ele>
        <time>2012-12-29T10:03:05.000Z</time>
      </trkpt>
      <trkpt lat="44.12369" lon="1.84851">
        <ele>400.5</ele>
        <time>2012-12-29T10:03:06.000Z</time>
      </trkpt>
      <trkpt lat="44.12372" lon="1.84853">
        <ele>400.4</ele>
        <time>2012-12-29T10:03:07.000Z</time>
      </trkpt>
      <trkpt lat="44.12376" lon="1.84856">
        <ele>400.4</ele>
        <time>2012-12-29T10:03:08.000Z</time>
      </trkpt>
      <trkpt lat="44.1238" lon="1.8486">
        <ele>400.4</ele>
        <time>2012-12-29T10:03:09.000Z</time>
      </trkpt>
      <trkpt lat="44.12383" lon="1.84864">
        <ele>400.3</ele>
        <time>2012-12-29T10:03:10.000Z</time>
      </trkpt>
      <trkpt lat="44.12385" lon="1.84867">
        <ele>400.2</ele>
        <time>2012-12-29T10:03:11.000Z</time>
      </trkpt>
      <trkpt lat="44.12388" lon="1.8487">
        <ele>400.1</ele>
        <time>2012-12-29T10:03:12.000Z</time>
      </trkpt>
      <trkpt lat="44.12391" lon="1.84872">
        <ele>400</ele>
        <time>2012-12-29T10:03:13.000Z</time>
      </trkpt>
      <trkpt lat="44.12394" lon="1.84874">
        <ele>400</ele>
        <time>2012-12-29T10:03:14.000Z</time>
      </trkpt>
      <trkpt lat="44.12396" lon="1.84876">
        <ele>399.9</ele>
        <time>2012-12-29T10:03:15.000Z</time>
      </trkpt>
      <trkpt lat="44.12399" lon="1.84877">
        <ele>399.8</ele>
        <time>2012-12-29T10:03:16.000Z</time>
      </trkpt>
      <trkpt lat="44.12402" lon="1.84879">
        <ele>399.8</ele>
        <time>2012-12-29T10:03:17.000Z</time>
      </trkpt>
      <trkpt lat="44.12406" lon="1.8488">
        <ele>399.8</ele>
        <time>2012-12-29T10:03:18.000Z</time>
      </trkpt>
      <trkpt lat="44.1241" lon="1.84881">
        <ele>399.7</ele>
        <time>2012-12-29T10:03:19.000Z</time>
      </trkpt>
      <trkpt lat="44.12413" lon="1.84882">
        <ele>399.6</ele>
        <time>2012-12-29T10:03:20.000Z</time>
      </trkpt>
      <trkpt lat="44.12417" lon="1.84883">
        <ele>399.6</ele>
        <time>2012-12-29T10:03:21.000Z</time>
      </trkpt>
      <trkpt lat="44.12421" lon="1.84885">
        <ele>399.5</ele>
        <time>2012-12-29T10:03:22.000Z</time>
      </trkpt>
      <trkpt lat="44.12426" lon="1.84888">
        <ele>398.8</ele>
        <time>2012-12-29T10:03:23.000Z</time>
      </trkpt>
      <trkpt lat="44.1243" lon="1.84891">
        <ele>397.7</ele>
        <time>2012-12-29T10:03:24.000Z</time>
      </trkpt>
      <trkpt lat="44.12435" lon="1.84894">
        <ele>396.8</ele>
        <time>2012-12-29T10:03:25.000Z</time>
      </trkpt>
      <trkpt lat="44.12438" lon="1.84897">
        <ele>396.7</ele>
        <time>2012-12-29T10:03:26.000Z</time>
      </trkpt>
      <trkpt lat="44.12441" lon="1.849">
        <ele>396.6</ele>
        <time>2012-12-29T10:03:27.000Z</time>
      </trkpt>
      <trkpt lat="44.12443" lon="1.84902">
        <ele>396.5</ele>
        <time>2012-12-29T10:03:28.000Z</time>
      </trkpt>
      <trkpt lat="44.12445" lon="1.84904">
        <ele>396.5</ele>
        <time>2012-12-29T10:03:29.000Z</time>
      </trkpt>
      <trkpt lat="44.12447" lon="1.84903">
        <ele>396.1</ele>
        <time>2012-12-29T10:03:38.000Z</time>
      </trkpt>
      <trkpt lat="44.12452" lon="1.84908">
        <ele>395</ele>
        <time>2012-12-29T10:03:39.000Z</time>
      </trkpt>
      <trkpt lat="44.12457" lon="1.84913">
        <ele>394.1</ele>
        <time>2012-12-29T10:03:40.000Z</time>
      </trkpt>
      <trkpt lat="44.12461" lon="1.84917">
        <ele>393.5</ele>
        <time>2012-12-29T10:03:41.000Z</time>
      </trkpt>
      <trkpt lat="44.12464" lon="1.84921">
        <ele>392.8</ele>
        <time>2012-12-29T10:03:42.000Z</time>
      </trkpt>
      <trkpt lat="44.12467" lon="1.84926">
        <ele>392</ele>
        <time>2012-12-29T10:03:43.000Z</time>
      </trkpt>
      <trkpt lat="44.1247" lon="1.84932">
        <ele>391.2</ele>
        <time>2012-12-29T10:03:44.000Z</time>
      </trkpt>
      <trkpt lat="44.12472" lon="1.84938">
        <ele>390.6</ele>
        <time>2012-12-29T10:03:45.000Z</time>
      </trkpt>
      <trkpt lat="44.12474" lon="1.84945">
        <ele>390.1</ele>
        <time>2012-12-29T10:03:46.000Z</time>
      </trkpt>
      <trkpt lat="44.12475" lon="1.84952">
        <ele>389.6</ele>
        <time>2012-12-29T10:03:47.000Z</time>
      </trkpt>
      <trkpt lat="44.12477" lon="1.84959">
        <ele>388.7</ele>
        <time>2012-12-29T10:03:48.000Z</time>
      </trkpt>
      <trkpt lat="44.12479" lon="1.84966">
        <ele>387.5</ele>
        <time>2012-12-29T10:03:49.000Z</time>
      </trkpt>
      <trkpt lat="44.12482" lon="1.84973">
        <ele>386.6</ele>
        <time>2012-12-29T10:03:50.000Z</time>
      </trkpt>
      <trkpt lat="44.12484" lon="1.84979">
        <ele>385.9</ele>
        <time>2012-12-29T10:03:51.000Z</time>
      </trkpt>
      <trkpt lat="44.12487" lon="1.84985">
        <ele>385.5</ele>
        <time>2012-12-29T10:03:52.000Z</time>
      </trkpt>
      <trkpt lat="44.1249" lon="1.84991">
        <ele>385.5</ele>
        <time>2012-12-29T10:03:53.000Z</time>
      </trkpt>
      <trkpt lat="44.12493" lon="1.84997">
        <ele>385.4</ele>
        <time>2012-12-29T10:03:54.000Z</time>
      </trkpt>
      <trkpt lat="44.12496" lon="1.85003">
        <ele>385.3</ele>
        <time>2012-12-29T10:03:55.000Z</time>
      </trkpt>
      <trkpt lat="44.12498" lon="1.85009">
        <ele>385.6</ele>
        <time>2012-12-29T10:03:56.000Z</time>
      </trkpt>
      <trkpt lat="44.12501" lon="1.85017">
        <ele>385.1</ele>
        <time>2012-12-29T10:03:57.000Z</time>
      </trkpt>
      <trkpt lat="44.12503" lon="1.85024">
        <ele>384.3</ele>
        <time>2012-12-29T10:03:58.000Z</time>
      </trkpt>
      <trkpt lat="44.12506" lon="1.85032">
        <ele>384.3</ele>
        <time>2012-12-29T10:03:59.000Z</time>
      </trkpt>
      <trkpt lat="44.12509" lon="1.8504">
        <ele>384</ele>
        <time>2012-12-29T10:04:00.000Z</time>
      </trkpt>
      <trkpt lat="44.12512" lon="1.85049">
        <ele>383</ele>
        <time>2012-12-29T10:04:01.000Z</time>
      </trkpt>
      <trkpt lat="44.12515" lon="1.85059">
        <ele>382</ele>
        <time>2012-12-29T10:04:02.000Z</time>
      </trkpt>
      <trkpt lat="44.12519" lon="1.85066">
        <ele>381.2</ele>
        <time>2012-12-29T10:04:03.000Z</time>
      </trkpt>
      <trkpt lat="44.12522" lon="1.85071">
        <ele>380</ele>
        <time>2012-12-29T10:04:04.000Z</time>
      </trkpt>
      <trkpt lat="44.12525" lon="1.85076">
        <ele>379.9</ele>
        <time>2012-12-29T10:04:05.000Z</time>
      </trkpt>
      <trkpt lat="44.12529" lon="1.8508">
        <ele>379.8</ele>
        <time>2012-12-29T10:04:06.000Z</time>
      </trkpt>
      <trkpt lat="44.12532" lon="1.85083">
        <ele>379.8</ele>
        <time>2012-12-29T10:04:07.000Z</time>
      </trkpt>
      <trkpt lat="44.12535" lon="1.85084">
        <ele>379.7</ele>
        <time>2012-12-29T10:04:08.000Z</time>
      </trkpt>
      <trkpt lat="44.12538" lon="1.85086">
        <ele>379.7</ele>
        <time>2012-12-29T10:04:09.000Z</time>
      </trkpt>
      <trkpt lat="44.1254" lon="1.85088">
        <ele>379.8</ele>
        <time>2012-12-29T10:04:10.000Z</time>
      </trkpt>
      <trkpt lat="44.12543" lon="1.8509">
        <ele>379.8</ele>
        <time>2012-12-29T10:04:11.000Z</time>
      </trkpt>
      <trkpt lat="44.12546" lon="1.85091">
        <ele>379.7</ele>
        <time>2012-12-29T10:04:12.000Z</time>
      </trkpt>
      <trkpt lat="44.12549" lon="1.85093">
        <ele>379.7</ele>
        <time>2012-12-29T10:04:13.000Z</time>
      </trkpt>
      <trkpt lat="44.12552" lon="1.85095">
        <ele>379.7</ele>
        <time>2012-12-29T10:04:14.000Z</time>
      </trkpt>
      <trkpt lat="44.12555" lon="1.85097">
        <ele>379.6</ele>
        <time>2012-12-29T10:04:15.000Z</time>
      </trkpt>
      <trkpt lat="44.12558" lon="1.85098">
        <ele>379.5</ele>
        <time>2012-12-29T10:04:16.000Z</time>
      </trkpt>
      <trkpt lat="44.12562" lon="1.85101">
        <ele>379.4</ele>
        <time>2012-12-29T10:04:17.000Z</time>
      </trkpt>
      <trkpt lat="44.12565" lon="1.85103">
        <ele>379.4</ele>
        <time>2012-12-29T10:04:18.000Z</time>
      </trkpt>
      <trkpt lat="44.12569" lon="1.85105">
        <ele>378.9</ele>
        <time>2012-12-29T10:04:19.000Z</time>
      </trkpt>
      <trkpt lat="44.12573" lon="1.85107">
        <ele>378.3</ele>
        <time>2012-12-29T10:04:20.000Z</time>
      </trkpt>
      <trkpt lat="44.12577" lon="1.85109">
        <ele>377.7</ele>
        <time>2012-12-29T10:04:21.000Z</time>
      </trkpt>
      <trkpt lat="44.12582" lon="1.85112">
        <ele>376.7</ele>
        <time>2012-12-29T10:04:22.000Z</time>
      </trkpt>
      <trkpt lat="44.12585" lon="1.85115">
        <ele>375.8</ele>
        <time>2012-12-29T10:04:23.000Z</time>
      </trkpt>
      <trkpt lat="44.12589" lon="1.85118">
        <ele>374.8</ele>
        <time>2012-12-29T10:04:24.000Z</time>
      </trkpt>
      <trkpt lat="44.12593" lon="1.85122">
        <ele>374.1</ele>
        <time>2012-12-29T10:04:25.000Z</time>
      </trkpt>
      <trkpt lat="44.12597" lon="1.85125">
        <ele>374</ele>
        <time>2012-12-29T10:04:26.000Z</time>
      </trkpt>
      <trkpt lat="44.12601" lon="1.85128">
        <ele>374</ele>
        <time>2012-12-29T10:04:27.000Z</time>
      </trkpt>
      <trkpt lat="44.12604" lon="1.85131">
        <ele>373.9</ele>
        <time>2012-12-29T10:04:28.000Z</time>
      </trkpt>
      <trkpt lat="44.12607" lon="1.85134">
        <ele>373.9</ele>
        <time>2012-12-29T10:04:29.000Z</time>
      </trkpt>
      <trkpt lat="44.12611" lon="1.85136">
        <ele>373.8</ele>
        <time>2012-12-29T10:04:30.000Z</time>
      </trkpt>
      <trkpt lat="44.12613" lon="1.85138">
        <ele>373.7</ele>
        <time>2012-12-29T10:04:31.000Z</time>
      </trkpt>
      <trkpt lat="44.12617" lon="1.85141">
        <ele>373.7</ele>
        <time>2012-12-29T10:04:33.000Z</time>
      </trkpt>
      <trkpt lat="44.12618" lon="1.85143">
        <ele>373.7</ele>
        <time>2012-12-29T10:04:34.000Z</time>
      </trkpt>
      <trkpt lat="44.12621" lon="1.85145">
        <ele>373.7</ele>
        <time>2012-12-29T10:04:36.000Z</time>
      </trkpt>
      <trkpt lat="44.12622" lon="1.85146">
        <ele>373.7</ele>
        <time>2012-12-29T10:04:37.000Z</time>
      </trkpt>
      <trkpt lat="44.12624" lon="1.85148">
        <ele>373.6</ele>
        <time>2012-12-29T10:04:39.000Z</time>
      </trkpt>
      <trkpt lat="44.12626" lon="1.8515">
        <ele>373.6</ele>
        <time>2012-12-29T10:04:40.000Z</time>
      </trkpt>
      <trkpt lat="44.12628" lon="1.85154">
        <ele>373.7</ele>
        <time>2012-12-29T10:04:42.000Z</time>
      </trkpt>
      <trkpt lat="44.1263" lon="1.85156">
        <ele>373.7</ele>
        <time>2012-12-29T10:04:43.000Z</time>
      </trkpt>
      <trkpt lat="44.12632" lon="1.85159">
        <ele>373.7</ele>
        <time>2012-12-29T10:04:44.000Z</time>
      </trkpt>
      <trkpt lat="44.12636" lon="1.85162">
        <ele>373.6</ele>
        <time>2012-12-29T10:04:45.000Z</time>
      </trkpt>
      <trkpt lat="44.12639" lon="1.85165">
        <ele>373.6</ele>
        <time>2012-12-29T10:04:46.000Z</time>
      </trkpt>
      <trkpt lat="44.12642" lon="1.85168">
        <ele>373.6</ele>
        <time>2012-12-29T10:04:47.000Z</time>
      </trkpt>
      <trkpt lat="44.12644" lon="1.85171">
        <ele>373.6</ele>
        <time>2012-12-29T10:04:48.000Z</time>
      </trkpt>
      <trkpt lat="44.12646" lon="1.85174">
        <ele>373.5</ele>
        <time>2012-12-29T10:04:49.000Z</time>
      </trkpt>
      <trkpt lat="44.12649" lon="1.85178">
        <ele>373.5</ele>
        <time>2012-12-29T10:04:50.000Z</time>
      </trkpt>
      <trkpt lat="44.12651" lon="1.85181">
        <ele>373.5</ele>
        <time>2012-12-29T10:04:51.000Z</time>
      </trkpt>
      <trkpt lat="44.12652" lon="1.85185">
        <ele>373.4</ele>
        <time>2012-12-29T10:04:52.000Z</time>
      </trkpt>
      <trkpt lat="44.12654" lon="1.85188">
        <ele>373.3</ele>
        <time>2012-12-29T10:04:53.000Z</time>
      </trkpt>
      <trkpt lat="44.12655" lon="1.85192">
        <ele>373.3</ele>
        <time>2012-12-29T10:04:54.000Z</time>
      </trkpt>
      <trkpt lat="44.12657" lon="1.85196">
        <ele>373.3</ele>
        <time>2012-12-29T10:04:55.000Z</time>
      </trkpt>
      <trkpt lat="44.12658" lon="1.85199">
        <ele>373.2</ele>
        <time>2012-12-29T10:04:56.000Z</time>
      </trkpt>
      <trkpt lat="44.1266" lon="1.85203">
        <ele>373.1</ele>
        <time>2012-12-29T10:04:57.000Z</time>
      </trkpt>
      <trkpt lat="44.12662" lon="1.85206">
        <ele>373</ele>
        <time>2012-12-29T10:04:58.000Z</time>
      </trkpt>
      <trkpt lat="44.12664" lon="1.8521">
        <ele>372.9</ele>
        <time>2012-12-29T10:04:59.000Z</time>
      </trkpt>
      <trkpt lat="44.12666" lon="1.85213">
        <ele>372.8</ele>
        <time>2012-12-29T10:05:00.000Z</time>
      </trkpt>
      <trkpt lat="44.12669" lon="1.85217">
        <ele>372.7</ele>
        <time>2012-12-29T10:05:01.000Z</time>
      </trkpt>
      <trkpt lat="44.12673" lon="1.85222">
        <ele>372.5</ele>
        <time>2012-12-29T10:05:02.000Z</time>
      </trkpt>
      <trkpt lat="44.12677" lon="1.85226">
        <ele>370.8</ele>
        <time>2012-12-29T10:05:03.000Z</time>
      </trkpt>
      <trkpt lat="44.12681" lon="1.8523">
        <ele>370.6</ele>
        <time>2012-12-29T10:05:04.000Z</time>
      </trkpt>
      <trkpt lat="44.12686" lon="1.85233">
        <ele>370.5</ele>
        <time>2012-12-29T10:05:05.000Z</time>
      </trkpt>
      <trkpt lat="44.1269" lon="1.85236">
        <ele>370.4</ele>
        <time>2012-12-29T10:05:06.000Z</time>
      </trkpt>
      <trkpt lat="44.12693" lon="1.85238">
        <ele>370.3</ele>
        <time>2012-12-29T10:05:07.000Z</time>
      </trkpt>
      <trkpt lat="44.12697" lon="1.8524">
        <ele>368.7</ele>
        <time>2012-12-29T10:05:08.000Z</time>
      </trkpt>
      <trkpt lat="44.12701" lon="1.85244">
        <ele>367.9</ele>
        <time>2012-12-29T10:05:09.000Z</time>
      </trkpt>
      <trkpt lat="44.12705" lon="1.85248">
        <ele>367.2</ele>
        <time>2012-12-29T10:05:10.000Z</time>
      </trkpt>
      <trkpt lat="44.12709" lon="1.85252">
        <ele>366.4</ele>
        <time>2012-12-29T10:05:11.000Z</time>
      </trkpt>
      <trkpt lat="44.12713" lon="1.85256">
        <ele>365.7</ele>
        <time>2012-12-29T10:05:12.000Z</time>
      </trkpt>
      <trkpt lat="44.12718" lon="1.8526">
        <ele>365.4</ele>
        <time>2012-12-29T10:05:13.000Z</time>
      </trkpt>
      <trkpt lat="44.12723" lon="1.85265">
        <ele>365</ele>
        <time>2012-12-29T10:05:14.000Z</time>
      </trkpt>
      <trkpt lat="44.12727" lon="1.85269">
        <ele>364.6</ele>
        <time>2012-12-29T10:05:15.000Z</time>
      </trkpt>
      <trkpt lat="44.12732" lon="1.85274">
        <ele>364.3</ele>
        <time>2012-12-29T10:05:16.000Z</time>
      </trkpt>
      <trkpt lat="44.12736" lon="1.85279">
        <ele>363.9</ele>
        <time>2012-12-29T10:05:17.000Z</time>
      </trkpt>
      <trkpt lat="44.1274" lon="1.85283">
        <ele>363.3</ele>
        <time>2012-12-29T10:05:18.000Z</time>
      </trkpt>
      <trkpt lat="44.12744" lon="1.85288">
        <ele>362.7</ele>
        <time>2012-12-29T10:05:19.000Z</time>
      </trkpt>
      <trkpt lat="44.12747" lon="1.85293">
        <ele>362.4</ele>
        <time>2012-12-29T10:05:20.000Z</time>
      </trkpt>
      <trkpt lat="44.1275" lon="1.85298">
        <ele>362.4</ele>
        <time>2012-12-29T10:05:21.000Z</time>
      </trkpt>
      <trkpt lat="44.12752" lon="1.85301">
        <ele>362.4</ele>
        <time>2012-12-29T10:05:22.000Z</time>
      </trkpt>
      <trkpt lat="44.12755" lon="1.85306">
        <ele>361.6</ele>
        <time>2012-12-29T10:05:23.000Z</time>
      </trkpt>
      <trkpt lat="44.12759" lon="1.85312">
        <ele>361</ele>
        <time>2012-12-29T10:05:24.000Z</time>
      </trkpt>
      <trkpt lat="44.12761" lon="1.85316">
        <ele>360.7</ele>
        <time>2012-12-29T10:05:25.000Z</time>
      </trkpt>
      <trkpt lat="44.12764" lon="1.85322">
        <ele>359.8</ele>
        <time>2012-12-29T10:05:26.000Z</time>
      </trkpt>
      <trkpt lat="44.12767" lon="1.85328">
        <ele>358.8</ele>
        <time>2012-12-29T10:05:27.000Z</time>
      </trkpt>
      <trkpt lat="44.12769" lon="1.85334">
        <ele>357.5</ele>
        <time>2012-12-29T10:05:28.000Z</time>
      </trkpt>
      <trkpt lat="44.12772" lon="1.85341">
        <ele>357.3</ele>
        <time>2012-12-29T10:05:29.000Z</time>
      </trkpt>
      <trkpt lat="44.12775" lon="1.85348">
        <ele>357.6</ele>
        <time>2012-12-29T10:05:30.000Z</time>
      </trkpt>
      <trkpt lat="44.1278" lon="1.85353">
        <ele>357.9</ele>
        <time>2012-12-29T10:05:31.000Z</time>
      </trkpt>
      <trkpt lat="44.12784" lon="1.85358">
        <ele>357.7</ele>
        <time>2012-12-29T10:05:32.000Z</time>
      </trkpt>
      <trkpt lat="44.12788" lon="1.85362">
        <ele>357.1</ele>
        <time>2012-12-29T10:05:33.000Z</time>
      </trkpt>
      <trkpt lat="44.12791" lon="1.85366">
        <ele>356.5</ele>
        <time>2012-12-29T10:05:34.000Z</time>
      </trkpt>
      <trkpt lat="44.12795" lon="1.85369">
        <ele>356</ele>
        <time>2012-12-29T10:05:35.000Z</time>
      </trkpt>
      <trkpt lat="44.12799" lon="1.85374">
        <ele>355.5</ele>
        <time>2012-12-29T10:05:36.000Z</time>
      </trkpt>
      <trkpt lat="44.12803" lon="1.8538">
        <ele>355</ele>
        <time>2012-12-29T10:05:37.000Z</time>
      </trkpt>
      <trkpt lat="44.12808" lon="1.85386">
        <ele>354.5</ele>
        <time>2012-12-29T10:05:38.000Z</time>
      </trkpt>
      <trkpt lat="44.12813" lon="1.85393">
        <ele>354.6</ele>
        <time>2012-12-29T10:05:39.000Z</time>
      </trkpt>
      <trkpt lat="44.12818" lon="1.854">
        <ele>354.4</ele>
        <time>2012-12-29T10:05:40.000Z</time>
      </trkpt>
      <trkpt lat="44.12823" lon="1.85408">
        <ele>354.1</ele>
        <time>2012-12-29T10:05:41.000Z</time>
      </trkpt>
      <trkpt lat="44.12828" lon="1.85415">
        <ele>353.4</ele>
        <time>2012-12-29T10:05:42.000Z</time>
      </trkpt>
      <trkpt lat="44.12834" lon="1.85421">
        <ele>352.8</ele>
        <time>2012-12-29T10:05:43.000Z</time>
      </trkpt>
      <trkpt lat="44.12839" lon="1.85427">
        <ele>352.2</ele>
        <time>2012-12-29T10:05:44.000Z</time>
      </trkpt>
      <trkpt lat="44.12844" lon="1.85433">
        <ele>351.7</ele>
        <time>2012-12-29T10:05:45.000Z</time>
      </trkpt>
      <trkpt lat="44.12849" lon="1.85438">
        <ele>351.2</ele>
        <time>2012-12-29T10:05:46.000Z</time>
      </trkpt>
      <trkpt lat="44.12853" lon="1.85443">
        <ele>351.2</ele>
        <time>2012-12-29T10:05:47.000Z</time>
      </trkpt>
      <trkpt lat="44.12856" lon="1.85448">
        <ele>351.1</ele>
        <time>2012-12-29T10:05:48.000Z</time>
      </trkpt>
      <trkpt lat="44.12859" lon="1.85453">
        <ele>351</ele>
        <time>2012-12-29T10:05:49.000Z</time>
      </trkpt>
      <trkpt lat="44.12862" lon="1.85457">
        <ele>351</ele>
        <time>2012-12-29T10:05:50.000Z</time>
      </trkpt>
      <trkpt lat="44.12864" lon="1.85461">
        <ele>350.9</ele>
        <time>2012-12-29T10:05:51.000Z</time>
      </trkpt>
      <trkpt lat="44.12866" lon="1.85464">
        <ele>350.9</ele>
        <time>2012-12-29T10:05:52.000Z</time>
      </trkpt>
      <trkpt lat="44.12868" lon="1.85468">
        <ele>350.9</ele>
        <time>2012-12-29T10:05:53.000Z</time>
      </trkpt>
      <trkpt lat="44.12869" lon="1.85471">
        <ele>350.8</ele>
        <time>2012-12-29T10:05:54.000Z</time>
      </trkpt>
      <trkpt lat="44.12871" lon="1.85475">
        <ele>350.7</ele>
        <time>2012-12-29T10:05:55.000Z</time>
      </trkpt>
      <trkpt lat="44.12872" lon="1.8548">
        <ele>350.6</ele>
        <time>2012-12-29T10:05:56.000Z</time>
      </trkpt>
      <trkpt lat="44.12874" lon="1.85485">
        <ele>350.5</ele>
        <time>2012-12-29T10:05:57.000Z</time>
      </trkpt>
      <trkpt lat="44.12876" lon="1.85491">
        <ele>349</ele>
        <time>2012-12-29T10:05:58.000Z</time>
      </trkpt>
      <trkpt lat="44.12878" lon="1.85497">
        <ele>347.8</ele>
        <time>2012-12-29T10:05:59.000Z</time>
      </trkpt>
      <trkpt lat="44.12879" lon="1.85503">
        <ele>346.9</ele>
        <time>2012-12-29T10:06:00.000Z</time>
      </trkpt>
      <trkpt lat="44.12881" lon="1.85509">
        <ele>345.7</ele>
        <time>2012-12-29T10:06:01.000Z</time>
      </trkpt>
      <trkpt lat="44.12883" lon="1.85516">
        <ele>345</ele>
        <time>2012-12-29T10:06:02.000Z</time>
      </trkpt>
      <trkpt lat="44.12886" lon="1.85523">
        <ele>344.4</ele>
        <time>2012-12-29T10:06:03.000Z</time>
      </trkpt>
      <trkpt lat="44.12888" lon="1.85529">
        <ele>344.3</ele>
        <time>2012-12-29T10:06:04.000Z</time>
      </trkpt>
      <trkpt lat="44.12889" lon="1.85534">
        <ele>344.1</ele>
        <time>2012-12-29T10:06:05.000Z</time>
      </trkpt>
      <trkpt lat="44.12891" lon="1.8554">
        <ele>343.6</ele>
        <time>2012-12-29T10:06:06.000Z</time>
      </trkpt>
      <trkpt lat="44.12893" lon="1.85546">
        <ele>343.3</ele>
        <time>2012-12-29T10:06:07.000Z</time>
      </trkpt>
      <trkpt lat="44.12895" lon="1.85552">
        <ele>343</ele>
        <time>2012-12-29T10:06:08.000Z</time>
      </trkpt>
      <trkpt lat="44.12897" lon="1.85559">
        <ele>342.6</ele>
        <time>2012-12-29T10:06:09.000Z</time>
      </trkpt>
      <trkpt lat="44.129" lon="1.85566">
        <ele>342.2</ele>
        <time>2012-12-29T10:06:10.000Z</time>
      </trkpt>
      <trkpt lat="44.12902" lon="1.85573">
        <ele>341.5</ele>
        <time>2012-12-29T10:06:11.000Z</time>
      </trkpt>
      <trkpt lat="44.12903" lon="1.8558">
        <ele>340.6</ele>
        <time>2012-12-29T10:06:12.000Z</time>
      </trkpt>
      <trkpt lat="44.12905" lon="1.85586">
        <ele>340.4</ele>
        <time>2012-12-29T10:06:13.000Z</time>
      </trkpt>
      <trkpt lat="44.12906" lon="1.85592">
        <ele>340.5</ele>
        <time>2012-12-29T10:06:14.000Z</time>
      </trkpt>
      <trkpt lat="44.12907" lon="1.85598">
        <ele>340.6</ele>
        <time>2012-12-29T10:06:15.000Z</time>
      </trkpt>
      <trkpt lat="44.12909" lon="1.85604">
        <ele>340.4</ele>
        <time>2012-12-29T10:06:16.000Z</time>
      </trkpt>
      <trkpt lat="44.1291" lon="1.85611">
        <ele>340.3</ele>
        <time>2012-12-29T10:06:17.000Z</time>
      </trkpt>
      <trkpt lat="44.12911" lon="1.85618">
        <ele>340.2</ele>
        <time>2012-12-29T10:06:18.000Z</time>
      </trkpt>
      <trkpt lat="44.12913" lon="1.85625">
        <ele>340.1</ele>
        <time>2012-12-29T10:06:19.000Z</time>
      </trkpt>
      <trkpt lat="44.12916" lon="1.85632">
        <ele>339.7</ele>
        <time>2012-12-29T10:06:20.000Z</time>
      </trkpt>
      <trkpt lat="44.12917" lon="1.85639">
        <ele>339.1</ele>
        <time>2012-12-29T10:06:21.000Z</time>
      </trkpt>
      <trkpt lat="44.12918" lon="1.85647">
        <ele>338.8</ele>
        <time>2012-12-29T10:06:22.000Z</time>
      </trkpt>
      <trkpt lat="44.12919" lon="1.85653">
        <ele>339.1</ele>
        <time>2012-12-29T10:06:23.000Z</time>
      </trkpt>
      <trkpt lat="44.1292" lon="1.8566">
        <ele>339.1</ele>
        <time>2012-12-29T10:06:24.000Z</time>
      </trkpt>
      <trkpt lat="44.12922" lon="1.85668">
        <ele>338.5</ele>
        <time>2012-12-29T10:06:25.000Z</time>
      </trkpt>
      <trkpt lat="44.12924" lon="1.85675">
        <ele>337.6</ele>
        <time>2012-12-29T10:06:26.000Z</time>
      </trkpt>
      <trkpt lat="44.12925" lon="1.85682">
        <ele>336.9</ele>
        <time>2012-12-29T10:06:27.000Z</time>
      </trkpt>
      <trkpt lat="44.12927" lon="1.8569">
        <ele>336.6</ele>
        <time>2012-12-29T10:06:28.000Z</time>
      </trkpt>
      <trkpt lat="44.12929" lon="1.85698">
        <ele>336.5</ele>
        <time>2012-12-29T10:06:29.000Z</time>
      </trkpt>
      <trkpt lat="44.1293" lon="1.85706">
        <ele>336.1</ele>
        <time>2012-12-29T10:06:30.000Z</time>
      </trkpt>
      <trkpt lat="44.12932" lon="1.85714">
        <ele>335.4</ele>
        <time>2012-12-29T10:06:31.000Z</time>
      </trkpt>
      <trkpt lat="44.12933" lon="1.85722">
        <ele>334.7</ele>
        <time>2012-12-29T10:06:32.000Z</time>
      </trkpt>
      <trkpt lat="44.12935" lon="1.85731">
        <ele>333.3</ele>
        <time>2012-12-29T10:06:33.000Z</time>
      </trkpt>
      <trkpt lat="44.12938" lon="1.8574">
        <ele>332.7</ele>
        <time>2012-12-29T10:06:34.000Z</time>
      </trkpt>
      <trkpt lat="44.1294" lon="1.85749">
        <ele>332.2</ele>
        <time>2012-12-29T10:06:35.000Z</time>
      </trkpt>
      <trkpt lat="44.12942" lon="1.8576">
        <ele>331.7</ele>
        <time>2012-12-29T10:06:36.000Z</time>
      </trkpt>
      <trkpt lat="44.12944" lon="1.85769">
        <ele>331.7</ele>
        <time>2012-12-29T10:06:37.000Z</time>
      </trkpt>
      <trkpt lat="44.12945" lon="1.85778">
        <ele>331.8</ele>
        <time>2012-12-29T10:06:38.000Z</time>
      </trkpt>
      <trkpt lat="44.12947" lon="1.85786">
        <ele>331.7</ele>
        <time>2012-12-29T10:06:39.000Z</time>
      </trkpt>
      <trkpt lat="44.12949" lon="1.85793">
        <ele>331.7</ele>
        <time>2012-12-29T10:06:40.000Z</time>
      </trkpt>
      <trkpt lat="44.1295" lon="1.85798">
        <ele>331.5</ele>
        <time>2012-12-29T10:06:41.000Z</time>
      </trkpt>
      <trkpt lat="44.12952" lon="1.85806">
        <ele>330.9</ele>
        <time>2012-12-29T10:06:42.000Z</time>
      </trkpt>
      <trkpt lat="44.12954" lon="1.85814">
        <ele>330.7</ele>
        <time>2012-12-29T10:06:43.000Z</time>
      </trkpt>
      <trkpt lat="44.12955" lon="1.85822">
        <ele>330.2</ele>
        <time>2012-12-29T10:06:44.000Z</time>
      </trkpt>
      <trkpt lat="44.12956" lon="1.8583">
        <ele>330.1</ele>
        <time>2012-12-29T10:06:45.000Z</time>
      </trkpt>
      <trkpt lat="44.12957" lon="1.85838">
        <ele>329.2</ele>
        <time>2012-12-29T10:06:46.000Z</time>
      </trkpt>
      <trkpt lat="44.12958" lon="1.85846">
        <ele>328.1</ele>
        <time>2012-12-29T10:06:47.000Z</time>
      </trkpt>
      <trkpt lat="44.12959" lon="1.85853">
        <ele>327</ele>
        <time>2012-12-29T10:06:48.000Z</time>
      </trkpt>
      <trkpt lat="44.1296" lon="1.8586">
        <ele>326.4</ele>
        <time>2012-12-29T10:06:49.000Z</time>
      </trkpt>
      <trkpt lat="44.12962" lon="1.85867">
        <ele>326.1</ele>
        <time>2012-12-29T10:06:50.000Z</time>
      </trkpt>
      <trkpt lat="44.12963" lon="1.85874">
        <ele>325.6</ele>
        <time>2012-12-29T10:06:51.000Z</time>
      </trkpt>
      <trkpt lat="44.12964" lon="1.85882">
        <ele>325.3</ele>
        <time>2012-12-29T10:06:52.000Z</time>
      </trkpt>
      <trkpt lat="44.12965" lon="1.8589">
        <ele>324.8</ele>
        <time>2012-12-29T10:06:53.000Z</time>
      </trkpt>
      <trkpt lat="44.12966" lon="1.85896">
        <ele>324.8</ele>
        <time>2012-12-29T10:06:54.000Z</time>
      </trkpt>
      <trkpt lat="44.12966" lon="1.85901">
        <ele>324.9</ele>
        <time>2012-12-29T10:06:55.000Z</time>
      </trkpt>
      <trkpt lat="44.12967" lon="1.85907">
        <ele>324.9</ele>
        <time>2012-12-29T10:06:56.000Z</time>
      </trkpt>
      <trkpt lat="44.12967" lon="1.85911">
        <ele>324.8</ele>
        <time>2012-12-29T10:06:57.000Z</time>
      </trkpt>
      <trkpt lat="44.12967" lon="1.85915">
        <ele>324.8</ele>
        <time>2012-12-29T10:06:58.000Z</time>
      </trkpt>
      <trkpt lat="44.12966" lon="1.85919">
        <ele>324.8</ele>
        <time>2012-12-29T10:06:59.000Z</time>
      </trkpt>
      <trkpt lat="44.12965" lon="1.85923">
        <ele>324.7</ele>
        <time>2012-12-29T10:07:00.000Z</time>
      </trkpt>
      <trkpt lat="44.12964" lon="1.85927">
        <ele>324.6</ele>
        <time>2012-12-29T10:07:01.000Z</time>
      </trkpt>
      <trkpt lat="44.12962" lon="1.8593">
        <ele>324.5</ele>
        <time>2012-12-29T10:07:02.000Z</time>
      </trkpt>
      <trkpt lat="44.12961" lon="1.85933">
        <ele>324.4</ele>
        <time>2012-12-29T10:07:03.000Z</time>
      </trkpt>
      <trkpt lat="44.1296" lon="1.85938">
        <ele>324.3</ele>
        <time>2012-12-29T10:07:04.000Z</time>
      </trkpt>
      <trkpt lat="44.12959" lon="1.85943">
        <ele>324.3</ele>
        <time>2012-12-29T10:07:05.000Z</time>
      </trkpt>
      <trkpt lat="44.12959" lon="1.85947">
        <ele>324.3</ele>
        <time>2012-12-29T10:07:06.000Z</time>
      </trkpt>
      <trkpt lat="44.12958" lon="1.85951">
        <ele>324.3</ele>
        <time>2012-12-29T10:07:07.000Z</time>
      </trkpt>
      <trkpt lat="44.12958" lon="1.85956">
        <ele>324.3</ele>
        <time>2012-12-29T10:07:08.000Z</time>
      </trkpt>
      <trkpt lat="44.12958" lon="1.85961">
        <ele>324.3</ele>
        <time>2012-12-29T10:07:09.000Z</time>
      </trkpt>
      <trkpt lat="44.12957" lon="1.85967">
        <ele>324.2</ele>
        <time>2012-12-29T10:07:10.000Z</time>
      </trkpt>
      <trkpt lat="44.12957" lon="1.85972">
        <ele>324.2</ele>
        <time>2012-12-29T10:07:11.000Z</time>
      </trkpt>
      <trkpt lat="44.12957" lon="1.85978">
        <ele>324.2</ele>
        <time>2012-12-29T10:07:12.000Z</time>
      </trkpt>
      <trkpt lat="44.12957" lon="1.85984">
        <ele>324.1</ele>
        <time>2012-12-29T10:07:13.000Z</time>
      </trkpt>
      <trkpt lat="44.12956" lon="1.85989">
        <ele>323.6</ele>
        <time>2012-12-29T10:07:14.000Z</time>
      </trkpt>
      <trkpt lat="44.12956" lon="1.85995">
        <ele>323</ele>
        <time>2012-12-29T10:07:15.000Z</time>
      </trkpt>
      <trkpt lat="44.12956" lon="1.86">
        <ele>322.6</ele>
        <time>2012-12-29T10:07:16.000Z</time>
      </trkpt>
      <trkpt lat="44.12956" lon="1.86006">
        <ele>321.7</ele>
        <time>2012-12-29T10:07:17.000Z</time>
      </trkpt>
      <trkpt lat="44.12957" lon="1.86011">
        <ele>321.7</ele>
        <time>2012-12-29T10:07:18.000Z</time>
      </trkpt>
      <trkpt lat="44.12957" lon="1.86016">
        <ele>321.6</ele>
        <time>2012-12-29T10:07:19.000Z</time>
      </trkpt>
      <trkpt lat="44.12957" lon="1.86023">
        <ele>321.5</ele>
        <time>2012-12-29T10:07:20.000Z</time>
      </trkpt>
      <trkpt lat="44.12957" lon="1.86029">
        <ele>321.4</ele>
        <time>2012-12-29T10:07:21.000Z</time>
      </trkpt>
      <trkpt lat="44.12957" lon="1.86035">
        <ele>321.3</ele>
        <time>2012-12-29T10:07:22.000Z</time>
      </trkpt>
      <trkpt lat="44.12958" lon="1.8604">
        <ele>321.2</ele>
        <time>2012-12-29T10:07:23.000Z</time>
      </trkpt>
      <trkpt lat="44.12958" lon="1.86045">
        <ele>321</ele>
        <time>2012-12-29T10:07:24.000Z</time>
      </trkpt>
      <trkpt lat="44.12959" lon="1.86052">
        <ele>320.9</ele>
        <time>2012-12-29T10:07:25.000Z</time>
      </trkpt>
      <trkpt lat="44.1296" lon="1.86057">
        <ele>320.9</ele>
        <time>2012-12-29T10:07:26.000Z</time>
      </trkpt>
      <trkpt lat="44.12961" lon="1.86063">
        <ele>320.8</ele>
        <time>2012-12-29T10:07:27.000Z</time>
      </trkpt>
      <trkpt lat="44.12962" lon="1.86068">
        <ele>320.7</ele>
        <time>2012-12-29T10:07:28.000Z</time>
      </trkpt>
      <trkpt lat="44.12963" lon="1.86075">
        <ele>320.2</ele>
        <time>2012-12-29T10:07:29.000Z</time>
      </trkpt>
      <trkpt lat="44.12964" lon="1.86082">
        <ele>319.9</ele>
        <time>2012-12-29T10:07:30.000Z</time>
      </trkpt>
      <trkpt lat="44.12966" lon="1.86088">
        <ele>320.1</ele>
        <time>2012-12-29T10:07:31.000Z</time>
      </trkpt>
      <trkpt lat="44.12967" lon="1.86093">
        <ele>320.2</ele>
        <time>2012-12-29T10:07:32.000Z</time>
      </trkpt>
      <trkpt lat="44.12969" lon="1.86098">
        <ele>320.1</ele>
        <time>2012-12-29T10:07:33.000Z</time>
      </trkpt>
      <trkpt lat="44.12972" lon="1.86105">
        <ele>319.8</ele>
        <time>2012-12-29T10:07:34.000Z</time>
      </trkpt>
      <trkpt lat="44.12975" lon="1.86111">
        <ele>319.6</ele>
        <time>2012-12-29T10:07:35.000Z</time>
      </trkpt>
      <trkpt lat="44.12979" lon="1.86117">
        <ele>319.4</ele>
        <time>2012-12-29T10:07:36.000Z</time>
      </trkpt>
      <trkpt lat="44.12982" lon="1.86122">
        <ele>319.1</ele>
        <time>2012-12-29T10:07:37.000Z</time>
      </trkpt>
      <trkpt lat="44.12984" lon="1.86127">
        <ele>319</ele>
        <time>2012-12-29T10:07:38.000Z</time>
      </trkpt>
      <trkpt lat="44.12986" lon="1.86131">
        <ele>319</ele>
        <time>2012-12-29T10:07:39.000Z</time>
      </trkpt>
      <trkpt lat="44.12989" lon="1.86135">
        <ele>319</ele>
        <time>2012-12-29T10:07:40.000Z</time>
      </trkpt>
      <trkpt lat="44.12991" lon="1.86137">
        <ele>318.9</ele>
        <time>2012-12-29T10:07:41.000Z</time>
      </trkpt>
      <trkpt lat="44.12994" lon="1.86141">
        <ele>318.9</ele>
        <time>2012-12-29T10:07:42.000Z</time>
      </trkpt>
      <trkpt lat="44.12996" lon="1.86144">
        <ele>318.8</ele>
        <time>2012-12-29T10:07:43.000Z</time>
      </trkpt>
      <trkpt lat="44.13" lon="1.86148">
        <ele>318.7</ele>
        <time>2012-12-29T10:07:44.000Z</time>
      </trkpt>
      <trkpt lat="44.13003" lon="1.86152">
        <ele>318.6</ele>
        <time>2012-12-29T10:07:45.000Z</time>
      </trkpt>
      <trkpt lat="44.13006" lon="1.86155">
        <ele>318.6</ele>
        <time>2012-12-29T10:07:46.000Z</time>
      </trkpt>
      <trkpt lat="44.13009" lon="1.8616">
        <ele>317.9</ele>
        <time>2012-12-29T10:07:47.000Z</time>
      </trkpt>
      <trkpt lat="44.13013" lon="1.86164">
        <ele>317.6</ele>
        <time>2012-12-29T10:07:48.000Z</time>
      </trkpt>
      <trkpt lat="44.13015" lon="1.86168">
        <ele>317.5</ele>
        <time>2012-12-29T10:07:49.000Z</time>
      </trkpt>
      <trkpt lat="44.13017" lon="1.86171">
        <ele>317.4</ele>
        <time>2012-12-29T10:07:50.000Z</time>
      </trkpt>
      <trkpt lat="44.13019" lon="1.86175">
        <ele>317.4</ele>
        <time>2012-12-29T10:07:51.000Z</time>
      </trkpt>
      <trkpt lat="44.13021" lon="1.8618">
        <ele>317.4</ele>
        <time>2012-12-29T10:07:52.000Z</time>
      </trkpt>
      <trkpt lat="44.13023" lon="1.86185">
        <ele>317.4</ele>
        <time>2012-12-29T10:07:53.000Z</time>
      </trkpt>
      <trkpt lat="44.13025" lon="1.86191">
        <ele>317.4</ele>
        <time>2012-12-29T10:07:54.000Z</time>
      </trkpt>
      <trkpt lat="44.13028" lon="1.86196">
        <ele>317.4</ele>
        <time>2012-12-29T10:07:55.000Z</time>
      </trkpt>
      <trkpt lat="44.1303" lon="1.86201">
        <ele>317.5</ele>
        <time>2012-12-29T10:07:56.000Z</time>
      </trkpt>
      <trkpt lat="44.13034" lon="1.86206">
        <ele>317.7</ele>
        <time>2012-12-29T10:07:57.000Z</time>
      </trkpt>
      <trkpt lat="44.13038" lon="1.86211">
        <ele>317.5</ele>
        <time>2012-12-29T10:07:58.000Z</time>
      </trkpt>
      <trkpt lat="44.13043" lon="1.86216">
        <ele>317.1</ele>
        <time>2012-12-29T10:07:59.000Z</time>
      </trkpt>
      <trkpt lat="44.13048" lon="1.86221">
        <ele>316.3</ele>
        <time>2012-12-29T10:08:00.000Z</time>
      </trkpt>
      <trkpt lat="44.13052" lon="1.86225">
        <ele>315.5</ele>
        <time>2012-12-29T10:08:01.000Z</time>
      </trkpt>
      <trkpt lat="44.13056" lon="1.86231">
        <ele>314.8</ele>
        <time>2012-12-29T10:08:02.000Z</time>
      </trkpt>
      <trkpt lat="44.13059" lon="1.86237">
        <ele>313.9</ele>
        <time>2012-12-29T10:08:03.000Z</time>
      </trkpt>
      <trkpt lat="44.13061" lon="1.86243">
        <ele>312.7</ele>
        <time>2012-12-29T10:08:04.000Z</time>
      </trkpt>
      <trkpt lat="44.13064" lon="1.86251">
        <ele>311.5</ele>
        <time>2012-12-29T10:08:05.000Z</time>
      </trkpt>
      <trkpt lat="44.13066" lon="1.86259">
        <ele>310.3</ele>
        <time>2012-12-29T10:08:06.000Z</time>
      </trkpt>
      <trkpt lat="44.13069" lon="1.86267">
        <ele>309.3</ele>
        <time>2012-12-29T10:08:07.000Z</time>
      </trkpt>
      <trkpt lat="44.13072" lon="1.86274">
        <ele>308.7</ele>
        <time>2012-12-29T10:08:08.000Z</time>
      </trkpt>
      <trkpt lat="44.13075" lon="1.86279">
        <ele>308.2</ele>
        <time>2012-12-29T10:08:09.000Z</time>
      </trkpt>
      <trkpt lat="44.13078" lon="1.86282">
        <ele>307.9</ele>
        <time>2012-12-29T10:08:10.000Z</time>
      </trkpt>
      <trkpt lat="44.13082" lon="1.86285">
        <ele>307.9</ele>
        <time>2012-12-29T10:08:11.000Z</time>
      </trkpt>
      <trkpt lat="44.13087" lon="1.86285">
        <ele>307.1</ele>
        <time>2012-12-29T10:08:12.000Z</time>
      </trkpt>
      <trkpt lat="44.13094" lon="1.86282">
        <ele>306.1</ele>
        <time>2012-12-29T10:08:13.000Z</time>
      </trkpt>
      <trkpt lat="44.13102" lon="1.8628">
        <ele>304.8</ele>
        <time>2012-12-29T10:08:14.000Z</time>
      </trkpt>
      <trkpt lat="44.13109" lon="1.86278">
        <ele>303.7</ele>
        <time>2012-12-29T10:08:15.000Z</time>
      </trkpt>
      <trkpt lat="44.13115" lon="1.86276">
        <ele>302.5</ele>
        <time>2012-12-29T10:08:16.000Z</time>
      </trkpt>
      <trkpt lat="44.13122" lon="1.86273">
        <ele>301.6</ele>
        <time>2012-12-29T10:08:17.000Z</time>
      </trkpt>
      <trkpt lat="44.1313" lon="1.8627">
        <ele>300.8</ele>
        <time>2012-12-29T10:08:18.000Z</time>
      </trkpt>
      <trkpt lat="44.13137" lon="1.86266">
        <ele>300.5</ele>
        <time>2012-12-29T10:08:19.000Z</time>
      </trkpt>
      <trkpt lat="44.13144" lon="1.86262">
        <ele>299.9</ele>
        <time>2012-12-29T10:08:20.000Z</time>
      </trkpt>
      <trkpt lat="44.1315" lon="1.86258">
        <ele>299.3</ele>
        <time>2012-12-29T10:08:21.000Z</time>
      </trkpt>
      <trkpt lat="44.13156" lon="1.86254">
        <ele>298.9</ele>
        <time>2012-12-29T10:08:22.000Z</time>
      </trkpt>
      <trkpt lat="44.13161" lon="1.8625">
        <ele>298.6</ele>
        <time>2012-12-29T10:08:23.000Z</time>
      </trkpt>
      <trkpt lat="44.13168" lon="1.86246">
        <ele>297.7</ele>
        <time>2012-12-29T10:08:24.000Z</time>
      </trkpt>
      <trkpt lat="44.13174" lon="1.86243">
        <ele>297.2</ele>
        <time>2012-12-29T10:08:25.000Z</time>
      </trkpt>
      <trkpt lat="44.13179" lon="1.86239">
        <ele>297.3</ele>
        <time>2012-12-29T10:08:26.000Z</time>
      </trkpt>
      <trkpt lat="44.13183" lon="1.86236">
        <ele>297.3</ele>
        <time>2012-12-29T10:08:27.000Z</time>
      </trkpt>
      <trkpt lat="44.13189" lon="1.86232">
        <ele>297.2</ele>
        <time>2012-12-29T10:08:28.000Z</time>
      </trkpt>
      <trkpt lat="44.13195" lon="1.86227">
        <ele>297.2</ele>
        <time>2012-12-29T10:08:29.000Z</time>
      </trkpt>
      <trkpt lat="44.132" lon="1.86223">
        <ele>296.9</ele>
        <time>2012-12-29T10:08:30.000Z</time>
      </trkpt>
      <trkpt lat="44.13204" lon="1.86217">
        <ele>296.4</ele>
        <time>2012-12-29T10:08:31.000Z</time>
      </trkpt>
      <trkpt lat="44.13207" lon="1.8621">
        <ele>295.5</ele>
        <time>2012-12-29T10:08:32.000Z</time>
      </trkpt>
      <trkpt lat="44.13209" lon="1.86202">
        <ele>294.5</ele>
        <time>2012-12-29T10:08:33.000Z</time>
      </trkpt>
      <trkpt lat="44.1321" lon="1.86194">
        <ele>294</ele>
        <time>2012-12-29T10:08:34.000Z</time>
      </trkpt>
      <trkpt lat="44.13211" lon="1.86188">
        <ele>293.4</ele>
        <time>2012-12-29T10:08:35.000Z</time>
      </trkpt>
      <trkpt lat="44.13212" lon="1.86182">
        <ele>292.3</ele>
        <time>2012-12-29T10:08:36.000Z</time>
      </trkpt>
      <trkpt lat="44.13215" lon="1.86178">
        <ele>292.2</ele>
        <time>2012-12-29T10:08:37.000Z</time>
      </trkpt>
      <trkpt lat="44.13218" lon="1.86175">
        <ele>290.8</ele>
        <time>2012-12-29T10:08:38.000Z</time>
      </trkpt>
      <trkpt lat="44.13223" lon="1.86171">
        <ele>289.9</ele>
        <time>2012-12-29T10:08:39.000Z</time>
      </trkpt>
      <trkpt lat="44.13228" lon="1.86168">
        <ele>288.9</ele>
        <time>2012-12-29T10:08:40.000Z</time>
      </trkpt>
      <trkpt lat="44.13232" lon="1.86166">
        <ele>288</ele>
        <time>2012-12-29T10:08:41.000Z</time>
      </trkpt>
      <trkpt lat="44.13237" lon="1.86163">
        <ele>287.4</ele>
        <time>2012-12-29T10:08:42.000Z</time>
      </trkpt>
      <trkpt lat="44.13243" lon="1.8616">
        <ele>286.6</ele>
        <time>2012-12-29T10:08:43.000Z</time>
      </trkpt>
      <trkpt lat="44.13249" lon="1.86157">
        <ele>285.9</ele>
        <time>2012-12-29T10:08:44.000Z</time>
      </trkpt>
      <trkpt lat="44.13255" lon="1.86155">
        <ele>285.3</ele>
        <time>2012-12-29T10:08:45.000Z</time>
      </trkpt>
      <trkpt lat="44.13261" lon="1.86153">
        <ele>284.4</ele>
        <time>2012-12-29T10:08:46.000Z</time>
      </trkpt>
      <trkpt lat="44.13266" lon="1.86151">
        <ele>283.2</ele>
        <time>2012-12-29T10:08:47.000Z</time>
      </trkpt>
      <trkpt lat="44.13272" lon="1.8615">
        <ele>282.5</ele>
        <time>2012-12-29T10:08:48.000Z</time>
      </trkpt>
      <trkpt lat="44.13277" lon="1.86147">
        <ele>282</ele>
        <time>2012-12-29T10:08:49.000Z</time>
      </trkpt>
      <trkpt lat="44.13283" lon="1.86145">
        <ele>281.6</ele>
        <time>2012-12-29T10:08:50.000Z</time>
      </trkpt>
      <trkpt lat="44.1329" lon="1.86143">
        <ele>281.7</ele>
        <time>2012-12-29T10:08:51.000Z</time>
      </trkpt>
      <trkpt lat="44.13297" lon="1.86141">
        <ele>281.2</ele>
        <time>2012-12-29T10:08:52.000Z</time>
      </trkpt>
      <trkpt lat="44.13303" lon="1.86139">
        <ele>281.3</ele>
        <time>2012-12-29T10:08:53.000Z</time>
      </trkpt>
      <trkpt lat="44.13309" lon="1.86137">
        <ele>281.3</ele>
        <time>2012-12-29T10:08:54.000Z</time>
      </trkpt>
      <trkpt lat="44.13315" lon="1.86134">
        <ele>280.8</ele>
        <time>2012-12-29T10:08:55.000Z</time>
      </trkpt>
      <trkpt lat="44.13322" lon="1.86132">
        <ele>280.2</ele>
        <time>2012-12-29T10:08:56.000Z</time>
      </trkpt>
      <trkpt lat="44.13328" lon="1.86129">
        <ele>279.4</ele>
        <time>2012-12-29T10:08:57.000Z</time>
      </trkpt>
      <trkpt lat="44.13334" lon="1.86128">
        <ele>278.2</ele>
        <time>2012-12-29T10:08:58.000Z</time>
      </trkpt>
      <trkpt lat="44.1334" lon="1.86127">
        <ele>276.9</ele>
        <time>2012-12-29T10:08:59.000Z</time>
      </trkpt>
      <trkpt lat="44.13344" lon="1.86131">
        <ele>275.4</ele>
        <time>2012-12-29T10:09:00.000Z</time>
      </trkpt>
      <trkpt lat="44.13348" lon="1.86138">
        <ele>274.2</ele>
        <time>2012-12-29T10:09:01.000Z</time>
      </trkpt>
      <trkpt lat="44.1335" lon="1.86146">
        <ele>273</ele>
        <time>2012-12-29T10:09:02.000Z</time>
      </trkpt>
      <trkpt lat="44.13351" lon="1.86155">
        <ele>271.9</ele>
        <time>2012-12-29T10:09:03.000Z</time>
      </trkpt>
      <trkpt lat="44.1335" lon="1.86163">
        <ele>270</ele>
        <time>2012-12-29T10:09:04.000Z</time>
      </trkpt>
      <trkpt lat="44.1335" lon="1.86171">
        <ele>268.6</ele>
        <time>2012-12-29T10:09:05.000Z</time>
      </trkpt>
      <trkpt lat="44.13348" lon="1.8618">
        <ele>266.8</ele>
        <time>2012-12-29T10:09:06.000Z</time>
      </trkpt>
      <trkpt lat="44.13346" lon="1.8619">
        <ele>265.6</ele>
        <time>2012-12-29T10:09:07.000Z</time>
      </trkpt>
      <trkpt lat="44.13343" lon="1.862">
        <ele>264.8</ele>
        <time>2012-12-29T10:09:08.000Z</time>
      </trkpt>
      <trkpt lat="44.13339" lon="1.86209">
        <ele>263.8</ele>
        <time>2012-12-29T10:09:09.000Z</time>
      </trkpt>
      <trkpt lat="44.13335" lon="1.86217">
        <ele>262.9</ele>
        <time>2012-12-29T10:09:10.000Z</time>
      </trkpt>
      <trkpt lat="44.13331" lon="1.86224">
        <ele>261.9</ele>
        <time>2012-12-29T10:09:11.000Z</time>
      </trkpt>
      <trkpt lat="44.13327" lon="1.86232">
        <ele>261.4</ele>
        <time>2012-12-29T10:09:12.000Z</time>
      </trkpt>
      <trkpt lat="44.13322" lon="1.8624">
        <ele>260.8</ele>
        <time>2012-12-29T10:09:13.000Z</time>
      </trkpt>
      <trkpt lat="44.13318" lon="1.86248">
        <ele>260.5</ele>
        <time>2012-12-29T10:09:14.000Z</time>
      </trkpt>
      <trkpt lat="44.13313" lon="1.86255">
        <ele>260.1</ele>
        <time>2012-12-29T10:09:15.000Z</time>
      </trkpt>
      <trkpt lat="44.1331" lon="1.86264">
        <ele>259.8</ele>
        <time>2012-12-29T10:09:16.000Z</time>
      </trkpt>
      <trkpt lat="44.13308" lon="1.86275">
        <ele>260.1</ele>
        <time>2012-12-29T10:09:17.000Z</time>
      </trkpt>
      <trkpt lat="44.13306" lon="1.86287">
        <ele>260.4</ele>
        <time>2012-12-29T10:09:18.000Z</time>
      </trkpt>
      <trkpt lat="44.13305" lon="1.86298">
        <ele>260.4</ele>
        <time>2012-12-29T10:09:19.000Z</time>
      </trkpt>
      <trkpt lat="44.13304" lon="1.86309">
        <ele>260.1</ele>
        <time>2012-12-29T10:09:20.000Z</time>
      </trkpt>
      <trkpt lat="44.13303" lon="1.8632">
        <ele>259.7</ele>
        <time>2012-12-29T10:09:21.000Z</time>
      </trkpt>
      <trkpt lat="44.13302" lon="1.86331">
        <ele>259.2</ele>
        <time>2012-12-29T10:09:22.000Z</time>
      </trkpt>
      <trkpt lat="44.13301" lon="1.86342">
        <ele>258.7</ele>
        <time>2012-12-29T10:09:23.000Z</time>
      </trkpt>
      <trkpt lat="44.133" lon="1.86353">
        <ele>257.9</ele>
        <time>2012-12-29T10:09:24.000Z</time>
      </trkpt>
      <trkpt lat="44.13298" lon="1.86363">
        <ele>257.5</ele>
        <time>2012-12-29T10:09:25.000Z</time>
      </trkpt>
      <trkpt lat="44.13296" lon="1.86373">
        <ele>257.2</ele>
        <time>2012-12-29T10:09:26.000Z</time>
      </trkpt>
      <trkpt lat="44.13294" lon="1.86381">
        <ele>256.3</ele>
        <time>2012-12-29T10:09:27.000Z</time>
      </trkpt>
      <trkpt lat="44.13291" lon="1.86391">
        <ele>255.4</ele>
        <time>2012-12-29T10:09:28.000Z</time>
      </trkpt>
      <trkpt lat="44.13288" lon="1.86399">
        <ele>254.6</ele>
        <time>2012-12-29T10:09:29.000Z</time>
      </trkpt>
      <trkpt lat="44.13285" lon="1.86408">
        <ele>253.6</ele>
        <time>2012-12-29T10:09:30.000Z</time>
      </trkpt>
      <trkpt lat="44.13282" lon="1.86417">
        <ele>252.5</ele>
        <time>2012-12-29T10:09:31.000Z</time>
      </trkpt>
      <trkpt lat="44.1328" lon="1.86424">
        <ele>252</ele>
        <time>2012-12-29T10:09:32.000Z</time>
      </trkpt>
      <trkpt lat="44.13277" lon="1.86432">
        <ele>251</ele>
        <time>2012-12-29T10:09:33.000Z</time>
      </trkpt>
      <trkpt lat="44.13275" lon="1.86441">
        <ele>250.5</ele>
        <time>2012-12-29T10:09:34.000Z</time>
      </trkpt>
      <trkpt lat="44.13273" lon="1.86449">
        <ele>250.3</ele>
        <time>2012-12-29T10:09:35.000Z</time>
      </trkpt>
      <trkpt lat="44.13271" lon="1.86457">
        <ele>250.4</ele>
        <time>2012-12-29T10:09:36.000Z</time>
      </trkpt>
      <trkpt lat="44.13269" lon="1.86464">
        <ele>250.5</ele>
        <time>2012-12-29T10:09:37.000Z</time>
      </trkpt>
      <trkpt lat="44.1327" lon="1.8647">
        <ele>250.4</ele>
        <time>2012-12-29T10:09:38.000Z</time>
      </trkpt>
      <trkpt lat="44.13272" lon="1.86474">
        <ele>250.5</ele>
        <time>2012-12-29T10:09:39.000Z</time>
      </trkpt>
      <trkpt lat="44.13275" lon="1.86475">
        <ele>250.5</ele>
        <time>2012-12-29T10:09:40.000Z</time>
      </trkpt>
      <trkpt lat="44.13279" lon="1.86475">
        <ele>250.5</ele>
        <time>2012-12-29T10:09:41.000Z</time>
      </trkpt>
      <trkpt lat="44.13285" lon="1.86472">
        <ele>251</ele>
        <time>2012-12-29T10:09:42.000Z</time>
      </trkpt>
      <trkpt lat="44.13291" lon="1.86467">
        <ele>251.2</ele>
        <time>2012-12-29T10:09:43.000Z</time>
      </trkpt>
      <trkpt lat="44.13296" lon="1.86461">
        <ele>251.3</ele>
        <time>2012-12-29T10:09:44.000Z</time>
      </trkpt>
      <trkpt lat="44.133" lon="1.86455">
        <ele>251.1</ele>
        <time>2012-12-29T10:09:45.000Z</time>
      </trkpt>
      <trkpt lat="44.13304" lon="1.86448">
        <ele>250.6</ele>
        <time>2012-12-29T10:09:46.000Z</time>
      </trkpt>
      <trkpt lat="44.13309" lon="1.86441">
        <ele>250.1</ele>
        <time>2012-12-29T10:09:47.000Z</time>
      </trkpt>
      <trkpt lat="44.13314" lon="1.86435">
        <ele>249.7</ele>
        <time>2012-12-29T10:09:48.000Z</time>
      </trkpt>
      <trkpt lat="44.13319" lon="1.8643">
        <ele>249.1</ele>
        <time>2012-12-29T10:09:49.000Z</time>
      </trkpt>
      <trkpt lat="44.13324" lon="1.86426">
        <ele>248.2</ele>
        <time>2012-12-29T10:09:50.000Z</time>
      </trkpt>
      <trkpt lat="44.13329" lon="1.86422">
        <ele>247.4</ele>
        <time>2012-12-29T10:09:51.000Z</time>
      </trkpt>
      <trkpt lat="44.13334" lon="1.86418">
        <ele>246.6</ele>
        <time>2012-12-29T10:09:52.000Z</time>
      </trkpt>
      <trkpt lat="44.13338" lon="1.86415">
        <ele>246</ele>
        <time>2012-12-29T10:09:53.000Z</time>
      </trkpt>
      <trkpt lat="44.13343" lon="1.86411">
        <ele>245.6</ele>
        <time>2012-12-29T10:09:54.000Z</time>
      </trkpt>
      <trkpt lat="44.13348" lon="1.86407">
        <ele>244.5</ele>
        <time>2012-12-29T10:09:55.000Z</time>
      </trkpt>
      <trkpt lat="44.13354" lon="1.86408">
        <ele>243</ele>
        <time>2012-12-29T10:09:56.000Z</time>
      </trkpt>
      <trkpt lat="44.13361" lon="1.86412">
        <ele>242</ele>
        <time>2012-12-29T10:09:57.000Z</time>
      </trkpt>
      <trkpt lat="44.13367" lon="1.86418">
        <ele>241</ele>
        <time>2012-12-29T10:09:58.000Z</time>
      </trkpt>
      <trkpt lat="44.13373" lon="1.86424">
        <ele>239.8</ele>
        <time>2012-12-29T10:09:59.000Z</time>
      </trkpt>
      <trkpt lat="44.13379" lon="1.86431">
        <ele>239.4</ele>
        <time>2012-12-29T10:10:00.000Z</time>
      </trkpt>
      <trkpt lat="44.13385" lon="1.86437">
        <ele>238.7</ele>
        <time>2012-12-29T10:10:01.000Z</time>
      </trkpt>
      <trkpt lat="44.1339" lon="1.86444">
        <ele>238</ele>
        <time>2012-12-29T10:10:02.000Z</time>
      </trkpt>
      <trkpt lat="44.13394" lon="1.86449">
        <ele>237.8</ele>
        <time>2012-12-29T10:10:03.000Z</time>
      </trkpt>
      <trkpt lat="44.13398" lon="1.86454">
        <ele>238</ele>
        <time>2012-12-29T10:10:04.000Z</time>
      </trkpt>
      <trkpt lat="44.13402" lon="1.86458">
        <ele>238.2</ele>
        <time>2012-12-29T10:10:05.000Z</time>
      </trkpt>
      <trkpt lat="44.13405" lon="1.86459">
        <ele>238.2</ele>
        <time>2012-12-29T10:10:06.000Z</time>
      </trkpt>
      <trkpt lat="44.13409" lon="1.86459">
        <ele>238.4</ele>
        <time>2012-12-29T10:10:07.000Z</time>
      </trkpt>
      <trkpt lat="44.13413" lon="1.86459">
        <ele>238.6</ele>
        <time>2012-12-29T10:10:08.000Z</time>
      </trkpt>
      <trkpt lat="44.13416" lon="1.86457">
        <ele>238.9</ele>
        <time>2012-12-29T10:10:09.000Z</time>
      </trkpt>
      <trkpt lat="44.13419" lon="1.86454">
        <ele>239</ele>
        <time>2012-12-29T10:10:10.000Z</time>
      </trkpt>
      <trkpt lat="44.13423" lon="1.86449">
        <ele>238.8</ele>
        <time>2012-12-29T10:10:11.000Z</time>
      </trkpt>
      <trkpt lat="44.13427" lon="1.86443">
        <ele>238.6</ele>
        <time>2012-12-29T10:10:12.000Z</time>
      </trkpt>
      <trkpt lat="44.13432" lon="1.86438">
        <ele>238</ele>
        <time>2012-12-29T10:10:13.000Z</time>
      </trkpt>
      <trkpt lat="44.13436" lon="1.86433">
        <ele>237.7</ele>
        <time>2012-12-29T10:10:14.000Z</time>
      </trkpt>
      <trkpt lat="44.13441" lon="1.86428">
        <ele>236.9</ele>
        <time>2012-12-29T10:10:15.000Z</time>
      </trkpt>
      <trkpt lat="44.13446" lon="1.86423">
        <ele>236</ele>
        <time>2012-12-29T10:10:16.000Z</time>
      </trkpt>
      <trkpt lat="44.13452" lon="1.86418">
        <ele>235.1</ele>
        <time>2012-12-29T10:10:17.000Z</time>
      </trkpt>
      <trkpt lat="44.13457" lon="1.86414">
        <ele>233.9</ele>
        <time>2012-12-29T10:10:18.000Z</time>
      </trkpt>
      <trkpt lat="44.13464" lon="1.86408">
        <ele>232.5</ele>
        <time>2012-12-29T10:10:19.000Z</time>
      </trkpt>
      <trkpt lat="44.1347" lon="1.86404">
        <ele>231.2</ele>
        <time>2012-12-29T10:10:20.000Z</time>
      </trkpt>
      <trkpt lat="44.13476" lon="1.86398">
        <ele>229.6</ele>
        <time>2012-12-29T10:10:21.000Z</time>
      </trkpt>
      <trkpt lat="44.13482" lon="1.86392">
        <ele>227.5</ele>
        <time>2012-12-29T10:10:22.000Z</time>
      </trkpt>
      <trkpt lat="44.13487" lon="1.86388">
        <ele>226.3</ele>
        <time>2012-12-29T10:10:23.000Z</time>
      </trkpt>
      <trkpt lat="44.13491" lon="1.86384">
        <ele>225.2</ele>
        <time>2012-12-29T10:10:24.000Z</time>
      </trkpt>
      <trkpt lat="44.13495" lon="1.86382">
        <ele>225.1</ele>
        <time>2012-12-29T10:10:25.000Z</time>
      </trkpt>
      <trkpt lat="44.13501" lon="1.86383">
        <ele>225</ele>
        <time>2012-12-29T10:10:26.000Z</time>
      </trkpt>
      <trkpt lat="44.13507" lon="1.86387">
        <ele>224.8</ele>
        <time>2012-12-29T10:10:27.000Z</time>
      </trkpt>
      <trkpt lat="44.13513" lon="1.86391">
        <ele>224.4</ele>
        <time>2012-12-29T10:10:28.000Z</time>
      </trkpt>
      <trkpt lat="44.13518" lon="1.86396">
        <ele>223.7</ele>
        <time>2012-12-29T10:10:29.000Z</time>
      </trkpt>
      <trkpt lat="44.13523" lon="1.86401">
        <ele>223.7</ele>
        <time>2012-12-29T10:10:30.000Z</time>
      </trkpt>
      <trkpt lat="44.13528" lon="1.86404">
        <ele>223.7</ele>
        <time>2012-12-29T10:10:31.000Z</time>
      </trkpt>
      <trkpt lat="44.13534" lon="1.86404">
        <ele>223.6</ele>
        <time>2012-12-29T10:10:32.000Z</time>
      </trkpt>
      <trkpt lat="44.13536" lon="1.86402">
        <ele>223.5</ele>
        <time>2012-12-29T10:10:33.000Z</time>
      </trkpt>
      <trkpt lat="44.13538" lon="1.86399">
        <ele>223.4</ele>
        <time>2012-12-29T10:10:34.000Z</time>
      </trkpt>
      <trkpt lat="44.13542" lon="1.86395">
        <ele>223.4</ele>
        <time>2012-12-29T10:10:35.000Z</time>
      </trkpt>
      <trkpt lat="44.13547" lon="1.86392">
        <ele>223.4</ele>
        <time>2012-12-29T10:10:36.000Z</time>
      </trkpt>
      <trkpt lat="44.13549" lon="1.8639">
        <ele>223.4</ele>
        <time>2012-12-29T10:10:37.000Z</time>
      </trkpt>
      <trkpt lat="44.1355" lon="1.86385">
        <ele>223.4</ele>
        <time>2012-12-29T10:10:38.000Z</time>
      </trkpt>
      <trkpt lat="44.1355" lon="1.8638">
        <ele>223.3</ele>
        <time>2012-12-29T10:10:39.000Z</time>
      </trkpt>
      <trkpt lat="44.13548" lon="1.86373">
        <ele>223.2</ele>
        <time>2012-12-29T10:10:40.000Z</time>
      </trkpt>
      <trkpt lat="44.13546" lon="1.86367">
        <ele>223.1</ele>
        <time>2012-12-29T10:10:41.000Z</time>
      </trkpt>
      <trkpt lat="44.13546" lon="1.86367">
        <ele>223.1</ele>
        <time>2012-12-29T10:10:43.000Z</time>
      </trkpt>
      <trkpt lat="44.13535" lon="1.86348">
        <ele>223</ele>
        <time>2012-12-29T10:10:44.000Z</time>
      </trkpt>
      <trkpt lat="44.13535" lon="1.86348">
        <ele>222.9</ele>
        <time>2012-12-29T10:10:45.000Z</time>
      </trkpt>
      <trkpt lat="44.1352" lon="1.86335">
        <ele>222.7</ele>
        <time>2012-12-29T10:10:46.000Z</time>
      </trkpt>
      <trkpt lat="44.13512" lon="1.86331">
        <ele>222.5</ele>
        <time>2012-12-29T10:10:47.000Z</time>
      </trkpt>
      <trkpt lat="44.13505" lon="1.86328">
        <ele>220.5</ele>
        <time>2012-12-29T10:10:48.000Z</time>
      </trkpt>
      <trkpt lat="44.13498" lon="1.86328">
        <ele>218.8</ele>
        <time>2012-12-29T10:10:49.000Z</time>
      </trkpt>
      <trkpt lat="44.13493" lon="1.86326">
        <ele>218.6</ele>
        <time>2012-12-29T10:10:50.000Z</time>
      </trkpt>
      <trkpt lat="44.13489" lon="1.86323">
        <ele>218.4</ele>
        <time>2012-12-29T10:10:51.000Z</time>
      </trkpt>
      <trkpt lat="44.13487" lon="1.86319">
        <ele>218.1</ele>
        <time>2012-12-29T10:10:52.000Z</time>
      </trkpt>
      <trkpt lat="44.13484" lon="1.86315">
        <ele>215.9</ele>
        <time>2012-12-29T10:10:53.000Z</time>
      </trkpt>
      <trkpt lat="44.13482" lon="1.8631">
        <ele>214.2</ele>
        <time>2012-12-29T10:10:54.000Z</time>
      </trkpt>
      <trkpt lat="44.13483" lon="1.86308">
        <ele>214.1</ele>
        <time>2012-12-29T10:10:55.000Z</time>
      </trkpt>
      <trkpt lat="44.13486" lon="1.86305">
        <ele>213.6</ele>
        <time>2012-12-29T10:10:56.000Z</time>
      </trkpt>
      <trkpt lat="44.13489" lon="1.86299">
        <ele>212.8</ele>
        <time>2012-12-29T10:10:57.000Z</time>
      </trkpt>
      <trkpt lat="44.13494" lon="1.86293">
        <ele>212.3</ele>
        <time>2012-12-29T10:10:58.000Z</time>
      </trkpt>
      <trkpt lat="44.13499" lon="1.86286">
        <ele>212</ele>
        <time>2012-12-29T10:10:59.000Z</time>
      </trkpt>
      <trkpt lat="44.13505" lon="1.8628">
        <ele>212.1</ele>
        <time>2012-12-29T10:11:00.000Z</time>
      </trkpt>
      <trkpt lat="44.13511" lon="1.86273">
        <ele>211.8</ele>
        <time>2012-12-29T10:11:01.000Z</time>
      </trkpt>
      <trkpt lat="44.13517" lon="1.86266">
        <ele>211.7</ele>
        <time>2012-12-29T10:11:02.000Z</time>
      </trkpt>
      <trkpt lat="44.13525" lon="1.86261">
        <ele>211.2</ele>
        <time>2012-12-29T10:11:03.000Z</time>
      </trkpt>
      <trkpt lat="44.13533" lon="1.86256">
        <ele>210.7</ele>
        <time>2012-12-29T10:11:04.000Z</time>
      </trkpt>
      <trkpt lat="44.1354" lon="1.86252">
        <ele>209.8</ele>
        <time>2012-12-29T10:11:05.000Z</time>
      </trkpt>
      <trkpt lat="44.13548" lon="1.86248">
        <ele>208.8</ele>
        <time>2012-12-29T10:11:06.000Z</time>
      </trkpt>
      <trkpt lat="44.13556" lon="1.86245">
        <ele>208.2</ele>
        <time>2012-12-29T10:11:07.000Z</time>
      </trkpt>
      <trkpt lat="44.13564" lon="1.86241">
        <ele>207.2</ele>
        <time>2012-12-29T10:11:08.000Z</time>
      </trkpt>
      <trkpt lat="44.13571" lon="1.86237">
        <ele>206.2</ele>
        <time>2012-12-29T10:11:09.000Z</time>
      </trkpt>
      <trkpt lat="44.13576" lon="1.86232">
        <ele>205.8</ele>
        <time>2012-12-29T10:11:10.000Z</time>
      </trkpt>
      <trkpt lat="44.1358" lon="1.86226">
        <ele>205.4</ele>
        <time>2012-12-29T10:11:11.000Z</time>
      </trkpt>
      <trkpt lat="44.13585" lon="1.86221">
        <ele>205.1</ele>
        <time>2012-12-29T10:11:12.000Z</time>
      </trkpt>
      <trkpt lat="44.13591" lon="1.86217">
        <ele>204.8</ele>
        <time>2012-12-29T10:11:13.000Z</time>
      </trkpt>
      <trkpt lat="44.13597" lon="1.86215">
        <ele>204.8</ele>
        <time>2012-12-29T10:11:14.000Z</time>
      </trkpt>
      <trkpt lat="44.13603" lon="1.86213">
        <ele>204.7</ele>
        <time>2012-12-29T10:11:15.000Z</time>
      </trkpt>
      <trkpt lat="44.13608" lon="1.86212">
        <ele>203.6</ele>
        <time>2012-12-29T10:11:16.000Z</time>
      </trkpt>
      <trkpt lat="44.13614" lon="1.86211">
        <ele>202.9</ele>
        <time>2012-12-29T10:11:17.000Z</time>
      </trkpt>
      <trkpt lat="44.13618" lon="1.8621">
        <ele>202.8</ele>
        <time>2012-12-29T10:11:18.000Z</time>
      </trkpt>
      <trkpt lat="44.1362" lon="1.8621">
        <ele>202.8</ele>
        <time>2012-12-29T10:11:19.000Z</time>
      </trkpt>
      <trkpt lat="44.1362" lon="1.8621">
        <ele>202.2</ele>
        <time>2012-12-29T10:12:45.000Z</time>
      </trkpt>
      <trkpt lat="44.13619" lon="1.86218">
        <ele>202.3</ele>
        <time>2012-12-29T10:12:46.000Z</time>
      </trkpt>
      <trkpt lat="44.13621" lon="1.86224">
        <ele>202.4</ele>
        <time>2012-12-29T10:12:48.000Z</time>
      </trkpt>
      <trkpt lat="44.13622" lon="1.86227">
        <ele>202.5</ele>
        <time>2012-12-29T10:12:49.000Z</time>
      </trkpt>
      <trkpt lat="44.13623" lon="1.86232">
        <ele>202.5</ele>
        <time>2012-12-29T10:12:50.000Z</time>
      </trkpt>
      <trkpt lat="44.13623" lon="1.86236">
        <ele>202.6</ele>
        <time>2012-12-29T10:12:51.000Z</time>
      </trkpt>
      <trkpt lat="44.13624" lon="1.8624">
        <ele>202.6</ele>
        <time>2012-12-29T10:12:52.000Z</time>
      </trkpt>
      <trkpt lat="44.13625" lon="1.86244">
        <ele>202.7</ele>
        <time>2012-12-29T10:12:53.000Z</time>
      </trkpt>
      <trkpt lat="44.13625" lon="1.86247">
        <ele>202.7</ele>
        <time>2012-12-29T10:12:54.000Z</time>
      </trkpt>
      <trkpt lat="44.13626" lon="1.86251">
        <ele>202.8</ele>
        <time>2012-12-29T10:12:55.000Z</time>
      </trkpt>
      <trkpt lat="44.13627" lon="1.86256">
        <ele>202.8</ele>
        <time>2012-12-29T10:12:56.000Z</time>
      </trkpt>
      <trkpt lat="44.13628" lon="1.8626">
        <ele>202.9</ele>
        <time>2012-12-29T10:12:57.000Z</time>
      </trkpt>
      <trkpt lat="44.13629" lon="1.86266">
        <ele>202.9</ele>
        <time>2012-12-29T10:12:58.000Z</time>
      </trkpt>
      <trkpt lat="44.13631" lon="1.86272">
        <ele>202.9</ele>
        <time>2012-12-29T10:12:59.000Z</time>
      </trkpt>
      <trkpt lat="44.13632" lon="1.86278">
        <ele>203.9</ele>
        <time>2012-12-29T10:13:00.000Z</time>
      </trkpt>
      <trkpt lat="44.13633" lon="1.86282">
        <ele>205.2</ele>
        <time>2012-12-29T10:13:01.000Z</time>
      </trkpt>
      <trkpt lat="44.13634" lon="1.86287">
        <ele>206.2</ele>
        <time>2012-12-29T10:13:02.000Z</time>
      </trkpt>
      <trkpt lat="44.13635" lon="1.86291">
        <ele>206.9</ele>
        <time>2012-12-29T10:13:03.000Z</time>
      </trkpt>
      <trkpt lat="44.13637" lon="1.86297">
        <ele>207.5</ele>
        <time>2012-12-29T10:13:04.000Z</time>
      </trkpt>
      <trkpt lat="44.13639" lon="1.86303">
        <ele>207.8</ele>
        <time>2012-12-29T10:13:05.000Z</time>
      </trkpt>
      <trkpt lat="44.1364" lon="1.86309">
        <ele>207.8</ele>
        <time>2012-12-29T10:13:06.000Z</time>
      </trkpt>
      <trkpt lat="44.13642" lon="1.86315">
        <ele>208.1</ele>
        <time>2012-12-29T10:13:07.000Z</time>
      </trkpt>
      <trkpt lat="44.13643" lon="1.8632">
        <ele>207.6</ele>
        <time>2012-12-29T10:13:08.000Z</time>
      </trkpt>
      <trkpt lat="44.13645" lon="1.86326">
        <ele>207.2</ele>
        <time>2012-12-29T10:13:09.000Z</time>
      </trkpt>
      <trkpt lat="44.13647" lon="1.8633">
        <ele>207</ele>
        <time>2012-12-29T10:13:10.000Z</time>
      </trkpt>
      <trkpt lat="44.13649" lon="1.86335">
        <ele>207.6</ele>
        <time>2012-12-29T10:13:11.000Z</time>
      </trkpt>
      <trkpt lat="44.1365" lon="1.8634">
        <ele>208.1</ele>
        <time>2012-12-29T10:13:12.000Z</time>
      </trkpt>
      <trkpt lat="44.13653" lon="1.86345">
        <ele>208.3</ele>
        <time>2012-12-29T10:13:13.000Z</time>
      </trkpt>
      <trkpt lat="44.13655" lon="1.8635">
        <ele>207.8</ele>
        <time>2012-12-29T10:13:14.000Z</time>
      </trkpt>
      <trkpt lat="44.13657" lon="1.86356">
        <ele>207.5</ele>
        <time>2012-12-29T10:13:15.000Z</time>
      </trkpt>
      <trkpt lat="44.13658" lon="1.86362">
        <ele>207</ele>
        <time>2012-12-29T10:13:16.000Z</time>
      </trkpt>
      <trkpt lat="44.1366" lon="1.86368">
        <ele>206.4</ele>
        <time>2012-12-29T10:13:17.000Z</time>
      </trkpt>
      <trkpt lat="44.13662" lon="1.86374">
        <ele>205.4</ele>
        <time>2012-12-29T10:13:18.000Z</time>
      </trkpt>
      <trkpt lat="44.13664" lon="1.86379">
        <ele>203.8</ele>
        <time>2012-12-29T10:13:19.000Z</time>
      </trkpt>
      <trkpt lat="44.13666" lon="1.86386">
        <ele>202.4</ele>
        <time>2012-12-29T10:13:20.000Z</time>
      </trkpt>
      <trkpt lat="44.13669" lon="1.86392">
        <ele>201.1</ele>
        <time>2012-12-29T10:13:21.000Z</time>
      </trkpt>
      <trkpt lat="44.13671" lon="1.86398">
        <ele>199.9</ele>
        <time>2012-12-29T10:13:22.000Z</time>
      </trkpt>
      <trkpt lat="44.13673" lon="1.86404">
        <ele>199.2</ele>
        <time>2012-12-29T10:13:23.000Z</time>
      </trkpt>
      <trkpt lat="44.13675" lon="1.86409">
        <ele>198.9</ele>
        <time>2012-12-29T10:13:24.000Z</time>
      </trkpt>
      <trkpt lat="44.13677" lon="1.86415">
        <ele>199.2</ele>
        <time>2012-12-29T10:13:25.000Z</time>
      </trkpt>
      <trkpt lat="44.13678" lon="1.8642">
        <ele>199.7</ele>
        <time>2012-12-29T10:13:26.000Z</time>
      </trkpt>
      <trkpt lat="44.1368" lon="1.86426">
        <ele>200</ele>
        <time>2012-12-29T10:13:27.000Z</time>
      </trkpt>
      <trkpt lat="44.13681" lon="1.86432">
        <ele>200.3</ele>
        <time>2012-12-29T10:13:28.000Z</time>
      </trkpt>
      <trkpt lat="44.13683" lon="1.86439">
        <ele>200.3</ele>
        <time>2012-12-29T10:13:29.000Z</time>
      </trkpt>
      <trkpt lat="44.13684" lon="1.86445">
        <ele>199.1</ele>
        <time>2012-12-29T10:13:30.000Z</time>
      </trkpt>
      <trkpt lat="44.13685" lon="1.8645">
        <ele>198.3</ele>
        <time>2012-12-29T10:13:31.000Z</time>
      </trkpt>
      <trkpt lat="44.13686" lon="1.86457">
        <ele>197.5</ele>
        <time>2012-12-29T10:13:32.000Z</time>
      </trkpt>
      <trkpt lat="44.13687" lon="1.86463">
        <ele>196.1</ele>
        <time>2012-12-29T10:13:33.000Z</time>
      </trkpt>
      <trkpt lat="44.13687" lon="1.86469">
        <ele>195.4</ele>
        <time>2012-12-29T10:13:34.000Z</time>
      </trkpt>
      <trkpt lat="44.13688" lon="1.86475">
        <ele>194.9</ele>
        <time>2012-12-29T10:13:35.000Z</time>
      </trkpt>
      <trkpt lat="44.13688" lon="1.8648">
        <ele>194.7</ele>
        <time>2012-12-29T10:13:36.000Z</time>
      </trkpt>
      <trkpt lat="44.13689" lon="1.86486">
        <ele>194.6</ele>
        <time>2012-12-29T10:13:37.000Z</time>
      </trkpt>
      <trkpt lat="44.1369" lon="1.86492">
        <ele>194.6</ele>
        <time>2012-12-29T10:13:38.000Z</time>
      </trkpt>
      <trkpt lat="44.13691" lon="1.86499">
        <ele>194.8</ele>
        <time>2012-12-29T10:13:39.000Z</time>
      </trkpt>
      <trkpt lat="44.13691" lon="1.86505">
        <ele>195</ele>
        <time>2012-12-29T10:13:40.000Z</time>
      </trkpt>
      <trkpt lat="44.13692" lon="1.86511">
        <ele>195.4</ele>
        <time>2012-12-29T10:13:41.000Z</time>
      </trkpt>
      <trkpt lat="44.13692" lon="1.86517">
        <ele>195.4</ele>
        <time>2012-12-29T10:13:42.000Z</time>
      </trkpt>
      <trkpt lat="44.13693" lon="1.86523">
        <ele>195.3</ele>
        <time>2012-12-29T10:13:43.000Z</time>
      </trkpt>
      <trkpt lat="44.13693" lon="1.86529">
        <ele>195.3</ele>
        <time>2012-12-29T10:13:44.000Z</time>
      </trkpt>
      <trkpt lat="44.13694" lon="1.86535">
        <ele>195.3</ele>
        <time>2012-12-29T10:13:45.000Z</time>
      </trkpt>
      <trkpt lat="44.13694" lon="1.86541">
        <ele>195.6</ele>
        <time>2012-12-29T10:13:46.000Z</time>
      </trkpt>
      <trkpt lat="44.13694" lon="1.86547">
        <ele>195.6</ele>
        <time>2012-12-29T10:13:47.000Z</time>
      </trkpt>
      <trkpt lat="44.13695" lon="1.86552">
        <ele>194.8</ele>
        <time>2012-12-29T10:13:48.000Z</time>
      </trkpt>
      <trkpt lat="44.13695" lon="1.86559">
        <ele>193.7</ele>
        <time>2012-12-29T10:13:49.000Z</time>
      </trkpt>
      <trkpt lat="44.13695" lon="1.86564">
        <ele>192.8</ele>
        <time>2012-12-29T10:13:50.000Z</time>
      </trkpt>
      <trkpt lat="44.13695" lon="1.8657">
        <ele>192.6</ele>
        <time>2012-12-29T10:13:51.000Z</time>
      </trkpt>
      <trkpt lat="44.13695" lon="1.86576">
        <ele>192.5</ele>
        <time>2012-12-29T10:13:52.000Z</time>
      </trkpt>
      <trkpt lat="44.13695" lon="1.86581">
        <ele>192.5</ele>
        <time>2012-12-29T10:13:53.000Z</time>
      </trkpt>
      <trkpt lat="44.13695" lon="1.86586">
        <ele>192.4</ele>
        <time>2012-12-29T10:13:54.000Z</time>
      </trkpt>
      <trkpt lat="44.13696" lon="1.86591">
        <ele>192.4</ele>
        <time>2012-12-29T10:13:55.000Z</time>
      </trkpt>
      <trkpt lat="44.13696" lon="1.86596">
        <ele>192.3</ele>
        <time>2012-12-29T10:13:56.000Z</time>
      </trkpt>
      <trkpt lat="44.13697" lon="1.86601">
        <ele>191.3</ele>
        <time>2012-12-29T10:13:57.000Z</time>
      </trkpt>
      <trkpt lat="44.13698" lon="1.86607">
        <ele>191.2</ele>
        <time>2012-12-29T10:13:58.000Z</time>
      </trkpt>
      <trkpt lat="44.13699" lon="1.86612">
        <ele>191.1</ele>
        <time>2012-12-29T10:13:59.000Z</time>
      </trkpt>
      <trkpt lat="44.137" lon="1.86618">
        <ele>190.5</ele>
        <time>2012-12-29T10:14:00.000Z</time>
      </trkpt>
      <trkpt lat="44.137" lon="1.86624">
        <ele>190.5</ele>
        <time>2012-12-29T10:14:01.000Z</time>
      </trkpt>
      <trkpt lat="44.13701" lon="1.8663">
        <ele>190.5</ele>
        <time>2012-12-29T10:14:02.000Z</time>
      </trkpt>
      <trkpt lat="44.13701" lon="1.86635">
        <ele>190.4</ele>
        <time>2012-12-29T10:14:03.000Z</time>
      </trkpt>
      <trkpt lat="44.13701" lon="1.86641">
        <ele>190.1</ele>
        <time>2012-12-29T10:14:04.000Z</time>
      </trkpt>
      <trkpt lat="44.13702" lon="1.86646">
        <ele>190.1</ele>
        <time>2012-12-29T10:14:05.000Z</time>
      </trkpt>
      <trkpt lat="44.13703" lon="1.86653">
        <ele>190.1</ele>
        <time>2012-12-29T10:14:06.000Z</time>
      </trkpt>
      <trkpt lat="44.13704" lon="1.86659">
        <ele>190.9</ele>
        <time>2012-12-29T10:14:07.000Z</time>
      </trkpt>
      <trkpt lat="44.13705" lon="1.86665">
        <ele>191.5</ele>
        <time>2012-12-29T10:14:08.000Z</time>
      </trkpt>
      <trkpt lat="44.13706" lon="1.86671">
        <ele>191.8</ele>
        <time>2012-12-29T10:14:09.000Z</time>
      </trkpt>
      <trkpt lat="44.13708" lon="1.86677">
        <ele>192.5</ele>
        <time>2012-12-29T10:14:10.000Z</time>
      </trkpt>
      <trkpt lat="44.13709" lon="1.86682">
        <ele>193.3</ele>
        <time>2012-12-29T10:14:11.000Z</time>
      </trkpt>
      <trkpt lat="44.13711" lon="1.86688">
        <ele>193.9</ele>
        <time>2012-12-29T10:14:12.000Z</time>
      </trkpt>
      <trkpt lat="44.13713" lon="1.86693">
        <ele>194.3</ele>
        <time>2012-12-29T10:14:13.000Z</time>
      </trkpt>
      <trkpt lat="44.13714" lon="1.86699">
        <ele>194.4</ele>
        <time>2012-12-29T10:14:14.000Z</time>
      </trkpt>
      <trkpt lat="44.13716" lon="1.86705">
        <ele>194.6</ele>
        <time>2012-12-29T10:14:15.000Z</time>
      </trkpt>
      <trkpt lat="44.13718" lon="1.86712">
        <ele>194.7</ele>
        <time>2012-12-29T10:14:16.000Z</time>
      </trkpt>
      <trkpt lat="44.1372" lon="1.86718">
        <ele>195</ele>
        <time>2012-12-29T10:14:17.000Z</time>
      </trkpt>
      <trkpt lat="44.13722" lon="1.86724">
        <ele>195.4</ele>
        <time>2012-12-29T10:14:18.000Z</time>
      </trkpt>
      <trkpt lat="44.13724" lon="1.86731">
        <ele>195</ele>
        <time>2012-12-29T10:14:19.000Z</time>
      </trkpt>
      <trkpt lat="44.13726" lon="1.86739">
        <ele>195.1</ele>
        <time>2012-12-29T10:14:20.000Z</time>
      </trkpt>
      <trkpt lat="44.13728" lon="1.86748">
        <ele>195.6</ele>
        <time>2012-12-29T10:14:21.000Z</time>
      </trkpt>
      <trkpt lat="44.13731" lon="1.86756">
        <ele>196.5</ele>
        <time>2012-12-29T10:14:22.000Z</time>
      </trkpt>
      <trkpt lat="44.13733" lon="1.86765">
        <ele>197</ele>
        <time>2012-12-29T10:14:23.000Z</time>
      </trkpt>
      <trkpt lat="44.13736" lon="1.86774">
        <ele>197.2</ele>
        <time>2012-12-29T10:14:24.000Z</time>
      </trkpt>
      <trkpt lat="44.13738" lon="1.86783">
        <ele>197.5</ele>
        <time>2012-12-29T10:14:25.000Z</time>
      </trkpt>
      <trkpt lat="44.13741" lon="1.86792">
        <ele>197.3</ele>
        <time>2012-12-29T10:14:26.000Z</time>
      </trkpt>
      <trkpt lat="44.13744" lon="1.86802">
        <ele>197</ele>
        <time>2012-12-29T10:14:27.000Z</time>
      </trkpt>
      <trkpt lat="44.13747" lon="1.86811">
        <ele>196.8</ele>
        <time>2012-12-29T10:14:28.000Z</time>
      </trkpt>
      <trkpt lat="44.13749" lon="1.86821">
        <ele>196.2</ele>
        <time>2012-12-29T10:14:29.000Z</time>
      </trkpt>
      <trkpt lat="44.13752" lon="1.86831">
        <ele>195.6</ele>
        <time>2012-12-29T10:14:30.000Z</time>
      </trkpt>
      <trkpt lat="44.13755" lon="1.86841">
        <ele>194.8</ele>
        <time>2012-12-29T10:14:31.000Z</time>
      </trkpt>
      <trkpt lat="44.13758" lon="1.86851">
        <ele>194</ele>
        <time>2012-12-29T10:14:32.000Z</time>
      </trkpt>
      <trkpt lat="44.13761" lon="1.86862">
        <ele>193.2</ele>
        <time>2012-12-29T10:14:33.000Z</time>
      </trkpt>
      <trkpt lat="44.13763" lon="1.86873">
        <ele>192.1</ele>
        <time>2012-12-29T10:14:34.000Z</time>
      </trkpt>
      <trkpt lat="44.13766" lon="1.86883">
        <ele>191.2</ele>
        <time>2012-12-29T10:14:35.000Z</time>
      </trkpt>
      <trkpt lat="44.13769" lon="1.86894">
        <ele>190.9</ele>
        <time>2012-12-29T10:14:36.000Z</time>
      </trkpt>
      <trkpt lat="44.13772" lon="1.86905">
        <ele>190.6</ele>
        <time>2012-12-29T10:14:37.000Z</time>
      </trkpt>
      <trkpt lat="44.13775" lon="1.86916">
        <ele>190.1</ele>
        <time>2012-12-29T10:14:38.000Z</time>
      </trkpt>
      <trkpt lat="44.13777" lon="1.86927">
        <ele>189.6</ele>
        <time>2012-12-29T10:14:39.000Z</time>
      </trkpt>
      <trkpt lat="44.1378" lon="1.86939">
        <ele>189.1</ele>
        <time>2012-12-29T10:14:40.000Z</time>
      </trkpt>
      <trkpt lat="44.13782" lon="1.86952">
        <ele>188.3</ele>
        <time>2012-12-29T10:14:41.000Z</time>
      </trkpt>
      <trkpt lat="44.13783" lon="1.86965">
        <ele>187.4</ele>
        <time>2012-12-29T10:14:42.000Z</time>
      </trkpt>
      <trkpt lat="44.13784" lon="1.86977">
        <ele>186.6</ele>
        <time>2012-12-29T10:14:43.000Z</time>
      </trkpt>
      <trkpt lat="44.13783" lon="1.86989">
        <ele>185.8</ele>
        <time>2012-12-29T10:14:44.000Z</time>
      </trkpt>
      <trkpt lat="44.13781" lon="1.87">
        <ele>185.3</ele>
        <time>2012-12-29T10:14:45.000Z</time>
      </trkpt>
      <trkpt lat="44.13779" lon="1.87011">
        <ele>184.9</ele>
        <time>2012-12-29T10:14:46.000Z</time>
      </trkpt>
      <trkpt lat="44.13777" lon="1.87022">
        <ele>184.6</ele>
        <time>2012-12-29T10:14:47.000Z</time>
      </trkpt>
      <trkpt lat="44.13775" lon="1.87032">
        <ele>184.3</ele>
        <time>2012-12-29T10:14:48.000Z</time>
      </trkpt>
      <trkpt lat="44.13773" lon="1.87042">
        <ele>183.7</ele>
        <time>2012-12-29T10:14:49.000Z</time>
      </trkpt>
      <trkpt lat="44.13771" lon="1.87051">
        <ele>183.1</ele>
        <time>2012-12-29T10:14:50.000Z</time>
      </trkpt>
      <trkpt lat="44.13769" lon="1.87059">
        <ele>182.3</ele>
        <time>2012-12-29T10:14:51.000Z</time>
      </trkpt>
      <trkpt lat="44.13767" lon="1.87066">
        <ele>182</ele>
        <time>2012-12-29T10:14:52.000Z</time>
      </trkpt>
      <trkpt lat="44.13766" lon="1.87073">
        <ele>181.4</ele>
        <time>2012-12-29T10:14:53.000Z</time>
      </trkpt>
      <trkpt lat="44.13764" lon="1.87079">
        <ele>180.9</ele>
        <time>2012-12-29T10:14:54.000Z</time>
      </trkpt>
      <trkpt lat="44.13761" lon="1.87085">
        <ele>180.8</ele>
        <time>2012-12-29T10:14:55.000Z</time>
      </trkpt>
      <trkpt lat="44.13759" lon="1.87092">
        <ele>180.6</ele>
        <time>2012-12-29T10:14:56.000Z</time>
      </trkpt>
      <trkpt lat="44.13758" lon="1.87098">
        <ele>180.7</ele>
        <time>2012-12-29T10:14:57.000Z</time>
      </trkpt>
      <trkpt lat="44.13756" lon="1.87103">
        <ele>180.9</ele>
        <time>2012-12-29T10:14:58.000Z</time>
      </trkpt>
      <trkpt lat="44.13754" lon="1.87108">
        <ele>181.1</ele>
        <time>2012-12-29T10:14:59.000Z</time>
      </trkpt>
      <trkpt lat="44.13751" lon="1.87113">
        <ele>181.5</ele>
        <time>2012-12-29T10:15:00.000Z</time>
      </trkpt>
      <trkpt lat="44.13749" lon="1.87119">
        <ele>182.5</ele>
        <time>2012-12-29T10:15:01.000Z</time>
      </trkpt>
      <trkpt lat="44.13747" lon="1.87125">
        <ele>182.9</ele>
        <time>2012-12-29T10:15:02.000Z</time>
      </trkpt>
      <trkpt lat="44.13745" lon="1.87131">
        <ele>183.2</ele>
        <time>2012-12-29T10:15:03.000Z</time>
      </trkpt>
      <trkpt lat="44.13743" lon="1.87136">
        <ele>183.7</ele>
        <time>2012-12-29T10:15:04.000Z</time>
      </trkpt>
      <trkpt lat="44.13741" lon="1.87141">
        <ele>183.9</ele>
        <time>2012-12-29T10:15:05.000Z</time>
      </trkpt>
      <trkpt lat="44.13738" lon="1.87146">
        <ele>183.9</ele>
        <time>2012-12-29T10:15:06.000Z</time>
      </trkpt>
      <trkpt lat="44.13736" lon="1.87151">
        <ele>184</ele>
        <time>2012-12-29T10:15:07.000Z</time>
      </trkpt>
      <trkpt lat="44.13734" lon="1.87156">
        <ele>184.1</ele>
        <time>2012-12-29T10:15:08.000Z</time>
      </trkpt>
      <trkpt lat="44.13732" lon="1.87161">
        <ele>184.3</ele>
        <time>2012-12-29T10:15:09.000Z</time>
      </trkpt>
      <trkpt lat="44.13729" lon="1.87166">
        <ele>184.6</ele>
        <time>2012-12-29T10:15:10.000Z</time>
      </trkpt>
      <trkpt lat="44.13727" lon="1.87171">
        <ele>185</ele>
        <time>2012-12-29T10:15:11.000Z</time>
      </trkpt>
      <trkpt lat="44.13725" lon="1.87175">
        <ele>185.6</ele>
        <time>2012-12-29T10:15:12.000Z</time>
      </trkpt>
      <trkpt lat="44.13723" lon="1.87179">
        <ele>186.2</ele>
        <time>2012-12-29T10:15:13.000Z</time>
      </trkpt>
      <trkpt lat="44.1372" lon="1.87184">
        <ele>186.6</ele>
        <time>2012-12-29T10:15:14.000Z</time>
      </trkpt>
      <trkpt lat="44.13716" lon="1.87189">
        <ele>186.2</ele>
        <time>2012-12-29T10:15:15.000Z</time>
      </trkpt>
      <trkpt lat="44.13713" lon="1.87195">
        <ele>185.9</ele>
        <time>2012-12-29T10:15:16.000Z</time>
      </trkpt>
      <trkpt lat="44.13709" lon="1.87199">
        <ele>185.4</ele>
        <time>2012-12-29T10:15:17.000Z</time>
      </trkpt>
      <trkpt lat="44.13706" lon="1.87204">
        <ele>184.7</ele>
        <time>2012-12-29T10:15:18.000Z</time>
      </trkpt>
      <trkpt lat="44.13701" lon="1.87207">
        <ele>184.1</ele>
        <time>2012-12-29T10:15:19.000Z</time>
      </trkpt>
      <trkpt lat="44.13697" lon="1.87211">
        <ele>183.5</ele>
        <time>2012-12-29T10:15:20.000Z</time>
      </trkpt>
      <trkpt lat="44.13693" lon="1.87214">
        <ele>183.4</ele>
        <time>2012-12-29T10:15:21.000Z</time>
      </trkpt>
      <trkpt lat="44.1369" lon="1.87216">
        <ele>183.8</ele>
        <time>2012-12-29T10:15:22.000Z</time>
      </trkpt>
      <trkpt lat="44.13686" lon="1.87219">
        <ele>184.4</ele>
        <time>2012-12-29T10:15:23.000Z</time>
      </trkpt>
      <trkpt lat="44.13683" lon="1.87221">
        <ele>185.2</ele>
        <time>2012-12-29T10:15:24.000Z</time>
      </trkpt>
      <trkpt lat="44.13678" lon="1.87224">
        <ele>185.6</ele>
        <time>2012-12-29T10:15:25.000Z</time>
      </trkpt>
      <trkpt lat="44.13674" lon="1.87226">
        <ele>185.4</ele>
        <time>2012-12-29T10:15:26.000Z</time>
      </trkpt>
      <trkpt lat="44.1367" lon="1.87228">
        <ele>185.6</ele>
        <time>2012-12-29T10:15:27.000Z</time>
      </trkpt>
      <trkpt lat="44.13665" lon="1.87229">
        <ele>185.5</ele>
        <time>2012-12-29T10:15:28.000Z</time>
      </trkpt>
      <trkpt lat="44.13662" lon="1.87231">
        <ele>185.4</ele>
        <time>2012-12-29T10:15:29.000Z</time>
      </trkpt>
      <trkpt lat="44.13658" lon="1.87233">
        <ele>185.4</ele>
        <time>2012-12-29T10:15:30.000Z</time>
      </trkpt>
      <trkpt lat="44.13654" lon="1.87235">
        <ele>185.1</ele>
        <time>2012-12-29T10:15:31.000Z</time>
      </trkpt>
      <trkpt lat="44.1365" lon="1.87237">
        <ele>185.3</ele>
        <time>2012-12-29T10:15:32.000Z</time>
      </trkpt>
      <trkpt lat="44.13645" lon="1.87239">
        <ele>185.3</ele>
        <time>2012-12-29T10:15:33.000Z</time>
      </trkpt>
      <trkpt lat="44.13641" lon="1.87241">
        <ele>185.2</ele>
        <time>2012-12-29T10:15:34.000Z</time>
      </trkpt>
      <trkpt lat="44.13636" lon="1.87243">
        <ele>186.1</ele>
        <time>2012-12-29T10:15:35.000Z</time>
      </trkpt>
      <trkpt lat="44.13632" lon="1.87245">
        <ele>187.2</ele>
        <time>2012-12-29T10:15:36.000Z</time>
      </trkpt>
      <trkpt lat="44.13627" lon="1.87247">
        <ele>187.5</ele>
        <time>2012-12-29T10:15:37.000Z</time>
      </trkpt>
      <trkpt lat="44.13622" lon="1.87249">
        <ele>187.2</ele>
        <time>2012-12-29T10:15:38.000Z</time>
      </trkpt>
      <trkpt lat="44.13618" lon="1.87251">
        <ele>187.1</ele>
        <time>2012-12-29T10:15:39.000Z</time>
      </trkpt>
      <trkpt lat="44.13614" lon="1.87255">
        <ele>187.3</ele>
        <time>2012-12-29T10:15:40.000Z</time>
      </trkpt>
      <trkpt lat="44.13609" lon="1.87258">
        <ele>187.4</ele>
        <time>2012-12-29T10:15:41.000Z</time>
      </trkpt>
      <trkpt lat="44.13604" lon="1.87262">
        <ele>187.1</ele>
        <time>2012-12-29T10:15:42.000Z</time>
      </trkpt>
      <trkpt lat="44.136" lon="1.87266">
        <ele>187.1</ele>
        <time>2012-12-29T10:15:43.000Z</time>
      </trkpt>
      <trkpt lat="44.13597" lon="1.8727">
        <ele>187.1</ele>
        <time>2012-12-29T10:15:44.000Z</time>
      </trkpt>
      <trkpt lat="44.13593" lon="1.87274">
        <ele>186.7</ele>
        <time>2012-12-29T10:15:45.000Z</time>
      </trkpt>
      <trkpt lat="44.13589" lon="1.87279">
        <ele>186.6</ele>
        <time>2012-12-29T10:15:46.000Z</time>
      </trkpt>
      <trkpt lat="44.13587" lon="1.87282">
        <ele>186.6</ele>
        <time>2012-12-29T10:15:47.000Z</time>
      </trkpt>
      <trkpt lat="44.13584" lon="1.87286">
        <ele>186.5</ele>
        <time>2012-12-29T10:15:48.000Z</time>
      </trkpt>
      <trkpt lat="44.13581" lon="1.87288">
        <ele>186.4</ele>
        <time>2012-12-29T10:15:49.000Z</time>
      </trkpt>
      <trkpt lat="44.13578" lon="1.87288">
        <ele>186.4</ele>
        <time>2012-12-29T10:15:50.000Z</time>
      </trkpt>
      <trkpt lat="44.13574" lon="1.87286">
        <ele>186.1</ele>
        <time>2012-12-29T10:15:51.000Z</time>
      </trkpt>
      <trkpt lat="44.13569" lon="1.87283">
        <ele>185.4</ele>
        <time>2012-12-29T10:15:52.000Z</time>
      </trkpt>
      <trkpt lat="44.13565" lon="1.8728">
        <ele>185.1</ele>
        <time>2012-12-29T10:15:53.000Z</time>
      </trkpt>
      <trkpt lat="44.1356" lon="1.87277">
        <ele>184.7</ele>
        <time>2012-12-29T10:15:54.000Z</time>
      </trkpt>
      <trkpt lat="44.13556" lon="1.87275">
        <ele>184.6</ele>
        <time>2012-12-29T10:15:55.000Z</time>
      </trkpt>
      <trkpt lat="44.13553" lon="1.87273">
        <ele>184.8</ele>
        <time>2012-12-29T10:15:56.000Z</time>
      </trkpt>
      <trkpt lat="44.1355" lon="1.87271">
        <ele>184.8</ele>
        <time>2012-12-29T10:15:57.000Z</time>
      </trkpt>
      <trkpt lat="44.13546" lon="1.87269">
        <ele>184.8</ele>
        <time>2012-12-29T10:15:58.000Z</time>
      </trkpt>
      <trkpt lat="44.13542" lon="1.87268">
        <ele>184.8</ele>
        <time>2012-12-29T10:15:59.000Z</time>
      </trkpt>
      <trkpt lat="44.13539" lon="1.87267">
        <ele>184.8</ele>
        <time>2012-12-29T10:16:00.000Z</time>
      </trkpt>
      <trkpt lat="44.13536" lon="1.87267">
        <ele>184.8</ele>
        <time>2012-12-29T10:16:01.000Z</time>
      </trkpt>
      <trkpt lat="44.13532" lon="1.87267">
        <ele>184.8</ele>
        <time>2012-12-29T10:16:02.000Z</time>
      </trkpt>
      <trkpt lat="44.13529" lon="1.87267">
        <ele>184.7</ele>
        <time>2012-12-29T10:16:03.000Z</time>
      </trkpt>
      <trkpt lat="44.13525" lon="1.87267">
        <ele>184.7</ele>
        <time>2012-12-29T10:16:04.000Z</time>
      </trkpt>
      <trkpt lat="44.13521" lon="1.87268">
        <ele>184.6</ele>
        <time>2012-12-29T10:16:05.000Z</time>
      </trkpt>
      <trkpt lat="44.13516" lon="1.87269">
        <ele>184.4</ele>
        <time>2012-12-29T10:16:06.000Z</time>
      </trkpt>
      <trkpt lat="44.1351" lon="1.8727">
        <ele>183</ele>
        <time>2012-12-29T10:16:07.000Z</time>
      </trkpt>
      <trkpt lat="44.13505" lon="1.87272">
        <ele>181.6</ele>
        <time>2012-12-29T10:16:08.000Z</time>
      </trkpt>
      <trkpt lat="44.135" lon="1.87274">
        <ele>180.9</ele>
        <time>2012-12-29T10:16:09.000Z</time>
      </trkpt>
      <trkpt lat="44.13495" lon="1.87276">
        <ele>180.5</ele>
        <time>2012-12-29T10:16:10.000Z</time>
      </trkpt>
      <trkpt lat="44.13491" lon="1.87277">
        <ele>180</ele>
        <time>2012-12-29T10:16:11.000Z</time>
      </trkpt>
      <trkpt lat="44.13487" lon="1.87278">
        <ele>179.8</ele>
        <time>2012-12-29T10:16:12.000Z</time>
      </trkpt>
      <trkpt lat="44.13483" lon="1.87279">
        <ele>179.6</ele>
        <time>2012-12-29T10:16:13.000Z</time>
      </trkpt>
      <trkpt lat="44.13479" lon="1.8728">
        <ele>179.5</ele>
        <time>2012-12-29T10:16:14.000Z</time>
      </trkpt>
      <trkpt lat="44.13475" lon="1.87282">
        <ele>179.5</ele>
        <time>2012-12-29T10:16:15.000Z</time>
      </trkpt>
      <trkpt lat="44.13471" lon="1.87283">
        <ele>179.5</ele>
        <time>2012-12-29T10:16:16.000Z</time>
      </trkpt>
      <trkpt lat="44.13468" lon="1.87284">
        <ele>179.6</ele>
        <time>2012-12-29T10:16:17.000Z</time>
      </trkpt>
      <trkpt lat="44.13464" lon="1.87285">
        <ele>179.6</ele>
        <time>2012-12-29T10:16:18.000Z</time>
      </trkpt>
      <trkpt lat="44.1346" lon="1.87286">
        <ele>179.7</ele>
        <time>2012-12-29T10:16:19.000Z</time>
      </trkpt>
      <trkpt lat="44.13455" lon="1.87287">
        <ele>179.9</ele>
        <time>2012-12-29T10:16:20.000Z</time>
      </trkpt>
      <trkpt lat="44.13451" lon="1.87289">
        <ele>179.9</ele>
        <time>2012-12-29T10:16:21.000Z</time>
      </trkpt>
      <trkpt lat="44.13447" lon="1.8729">
        <ele>179.9</ele>
        <time>2012-12-29T10:16:22.000Z</time>
      </trkpt>
      <trkpt lat="44.13442" lon="1.87292">
        <ele>179.9</ele>
        <time>2012-12-29T10:16:23.000Z</time>
      </trkpt>
      <trkpt lat="44.13438" lon="1.87293">
        <ele>180.2</ele>
        <time>2012-12-29T10:16:24.000Z</time>
      </trkpt>
      <trkpt lat="44.13434" lon="1.87294">
        <ele>180.2</ele>
        <time>2012-12-29T10:16:25.000Z</time>
      </trkpt>
      <trkpt lat="44.1343" lon="1.87295">
        <ele>180.3</ele>
        <time>2012-12-29T10:16:26.000Z</time>
      </trkpt>
      <trkpt lat="44.13425" lon="1.87296">
        <ele>180</ele>
        <time>2012-12-29T10:16:27.000Z</time>
      </trkpt>
      <trkpt lat="44.1342" lon="1.87297">
        <ele>179.1</ele>
        <time>2012-12-29T10:16:28.000Z</time>
      </trkpt>
      <trkpt lat="44.13415" lon="1.87299">
        <ele>178.6</ele>
        <time>2012-12-29T10:16:29.000Z</time>
      </trkpt>
      <trkpt lat="44.1341" lon="1.87301">
        <ele>177.7</ele>
        <time>2012-12-29T10:16:30.000Z</time>
      </trkpt>
      <trkpt lat="44.13405" lon="1.87302">
        <ele>177.1</ele>
        <time>2012-12-29T10:16:31.000Z</time>
      </trkpt>
      <trkpt lat="44.13401" lon="1.87303">
        <ele>177.2</ele>
        <time>2012-12-29T10:16:32.000Z</time>
      </trkpt>
      <trkpt lat="44.13397" lon="1.87305">
        <ele>177.8</ele>
        <time>2012-12-29T10:16:33.000Z</time>
      </trkpt>
      <trkpt lat="44.13393" lon="1.87306">
        <ele>178.5</ele>
        <time>2012-12-29T10:16:34.000Z</time>
      </trkpt>
      <trkpt lat="44.13388" lon="1.87307">
        <ele>178.7</ele>
        <time>2012-12-29T10:16:35.000Z</time>
      </trkpt>
      <trkpt lat="44.13384" lon="1.87309">
        <ele>178.6</ele>
        <time>2012-12-29T10:16:36.000Z</time>
      </trkpt>
      <trkpt lat="44.1338" lon="1.8731">
        <ele>178.5</ele>
        <time>2012-12-29T10:16:37.000Z</time>
      </trkpt>
      <trkpt lat="44.13376" lon="1.87311">
        <ele>178.3</ele>
        <time>2012-12-29T10:16:38.000Z</time>
      </trkpt>
      <trkpt lat="44.13372" lon="1.87311">
        <ele>178.3</ele>
        <time>2012-12-29T10:16:39.000Z</time>
      </trkpt>
      <trkpt lat="44.13368" lon="1.87312">
        <ele>178.3</ele>
        <time>2012-12-29T10:16:40.000Z</time>
      </trkpt>
      <trkpt lat="44.13364" lon="1.87313">
        <ele>178.3</ele>
        <time>2012-12-29T10:16:41.000Z</time>
      </trkpt>
      <trkpt lat="44.13361" lon="1.87314">
        <ele>178.3</ele>
        <time>2012-12-29T10:16:42.000Z</time>
      </trkpt>
      <trkpt lat="44.13356" lon="1.87315">
        <ele>179.4</ele>
        <time>2012-12-29T10:16:43.000Z</time>
      </trkpt>
      <trkpt lat="44.13352" lon="1.87316">
        <ele>179.5</ele>
        <time>2012-12-29T10:16:44.000Z</time>
      </trkpt>
      <trkpt lat="44.13349" lon="1.87317">
        <ele>179.6</ele>
        <time>2012-12-29T10:16:45.000Z</time>
      </trkpt>
      <trkpt lat="44.13345" lon="1.87318">
        <ele>179.6</ele>
        <time>2012-12-29T10:16:46.000Z</time>
      </trkpt>
      <trkpt lat="44.13341" lon="1.87319">
        <ele>179.6</ele>
        <time>2012-12-29T10:16:47.000Z</time>
      </trkpt>
      <trkpt lat="44.13337" lon="1.87319">
        <ele>179.7</ele>
        <time>2012-12-29T10:16:48.000Z</time>
      </trkpt>
      <trkpt lat="44.13333" lon="1.8732">
        <ele>179.7</ele>
        <time>2012-12-29T10:16:49.000Z</time>
      </trkpt>
      <trkpt lat="44.13329" lon="1.87321">
        <ele>179.7</ele>
        <time>2012-12-29T10:16:50.000Z</time>
      </trkpt>
      <trkpt lat="44.13324" lon="1.87322">
        <ele>179.7</ele>
        <time>2012-12-29T10:16:51.000Z</time>
      </trkpt>
      <trkpt lat="44.1332" lon="1.87322">
        <ele>179.8</ele>
        <time>2012-12-29T10:16:52.000Z</time>
      </trkpt>
      <trkpt lat="44.13316" lon="1.87323">
        <ele>179.8</ele>
        <time>2012-12-29T10:16:53.000Z</time>
      </trkpt>
      <trkpt lat="44.13312" lon="1.87324">
        <ele>179.9</ele>
        <time>2012-12-29T10:16:54.000Z</time>
      </trkpt>
      <trkpt lat="44.13309" lon="1.87325">
        <ele>180</ele>
        <time>2012-12-29T10:16:55.000Z</time>
      </trkpt>
      <trkpt lat="44.13305" lon="1.87326">
        <ele>180</ele>
        <time>2012-12-29T10:16:56.000Z</time>
      </trkpt>
      <trkpt lat="44.13301" lon="1.87326">
        <ele>180.2</ele>
        <time>2012-12-29T10:16:57.000Z</time>
      </trkpt>
      <trkpt lat="44.13298" lon="1.87327">
        <ele>180.3</ele>
        <time>2012-12-29T10:16:58.000Z</time>
      </trkpt>
      <trkpt lat="44.13294" lon="1.87327">
        <ele>180.4</ele>
        <time>2012-12-29T10:16:59.000Z</time>
      </trkpt>
      <trkpt lat="44.1329" lon="1.87328">
        <ele>180.5</ele>
        <time>2012-12-29T10:17:00.000Z</time>
      </trkpt>
      <trkpt lat="44.13286" lon="1.87329">
        <ele>180.5</ele>
        <time>2012-12-29T10:17:01.000Z</time>
      </trkpt>
      <trkpt lat="44.13282" lon="1.8733">
        <ele>180.6</ele>
        <time>2012-12-29T10:17:02.000Z</time>
      </trkpt>
      <trkpt lat="44.13277" lon="1.87331">
        <ele>180.6</ele>
        <time>2012-12-29T10:17:03.000Z</time>
      </trkpt>
      <trkpt lat="44.13273" lon="1.87332">
        <ele>180.7</ele>
        <time>2012-12-29T10:17:04.000Z</time>
      </trkpt>
      <trkpt lat="44.13269" lon="1.87333">
        <ele>180.8</ele>
        <time>2012-12-29T10:17:05.000Z</time>
      </trkpt>
      <trkpt lat="44.13265" lon="1.87333">
        <ele>180.8</ele>
        <time>2012-12-29T10:17:06.000Z</time>
      </trkpt>
      <trkpt lat="44.13262" lon="1.87333">
        <ele>181</ele>
        <time>2012-12-29T10:17:07.000Z</time>
      </trkpt>
      <trkpt lat="44.13258" lon="1.87334">
        <ele>181.1</ele>
        <time>2012-12-29T10:17:08.000Z</time>
      </trkpt>
      <trkpt lat="44.13255" lon="1.87334">
        <ele>181.2</ele>
        <time>2012-12-29T10:17:09.000Z</time>
      </trkpt>
      <trkpt lat="44.13251" lon="1.87336">
        <ele>181.3</ele>
        <time>2012-12-29T10:17:10.000Z</time>
      </trkpt>
      <trkpt lat="44.13248" lon="1.87337">
        <ele>181.4</ele>
        <time>2012-12-29T10:17:11.000Z</time>
      </trkpt>
      <trkpt lat="44.13244" lon="1.87338">
        <ele>181.5</ele>
        <time>2012-12-29T10:17:12.000Z</time>
      </trkpt>
      <trkpt lat="44.13241" lon="1.8734">
        <ele>181.7</ele>
        <time>2012-12-29T10:17:13.000Z</time>
      </trkpt>
      <trkpt lat="44.13239" lon="1.8734">
        <ele>181.8</ele>
        <time>2012-12-29T10:17:14.000Z</time>
      </trkpt>
      <trkpt lat="44.13236" lon="1.87341">
        <ele>181.8</ele>
        <time>2012-12-29T10:17:15.000Z</time>
      </trkpt>
      <trkpt lat="44.13232" lon="1.87342">
        <ele>181.8</ele>
        <time>2012-12-29T10:17:16.000Z</time>
      </trkpt>
      <trkpt lat="44.13229" lon="1.87342">
        <ele>181.8</ele>
        <time>2012-12-29T10:17:17.000Z</time>
      </trkpt>
      <trkpt lat="44.13226" lon="1.87342">
        <ele>181.9</ele>
        <time>2012-12-29T10:17:18.000Z</time>
      </trkpt>
      <trkpt lat="44.13223" lon="1.87342">
        <ele>181.9</ele>
        <time>2012-12-29T10:17:19.000Z</time>
      </trkpt>
      <trkpt lat="44.1322" lon="1.87343">
        <ele>182</ele>
        <time>2012-12-29T10:17:20.000Z</time>
      </trkpt>
      <trkpt lat="44.13217" lon="1.87343">
        <ele>182.1</ele>
        <time>2012-12-29T10:17:21.000Z</time>
      </trkpt>
      <trkpt lat="44.13213" lon="1.87344">
        <ele>182.2</ele>
        <time>2012-12-29T10:17:22.000Z</time>
      </trkpt>
      <trkpt lat="44.1321" lon="1.87344">
        <ele>182.4</ele>
        <time>2012-12-29T10:17:23.000Z</time>
      </trkpt>
      <trkpt lat="44.13208" lon="1.87345">
        <ele>182.5</ele>
        <time>2012-12-29T10:17:24.000Z</time>
      </trkpt>
      <trkpt lat="44.13205" lon="1.87345">
        <ele>182.7</ele>
        <time>2012-12-29T10:17:25.000Z</time>
      </trkpt>
      <trkpt lat="44.13201" lon="1.87346">
        <ele>182.8</ele>
        <time>2012-12-29T10:17:26.000Z</time>
      </trkpt>
      <trkpt lat="44.13198" lon="1.87346">
        <ele>182.9</ele>
        <time>2012-12-29T10:17:27.000Z</time>
      </trkpt>
      <trkpt lat="44.13195" lon="1.87347">
        <ele>183.2</ele>
        <time>2012-12-29T10:17:28.000Z</time>
      </trkpt>
      <trkpt lat="44.13192" lon="1.87347">
        <ele>183.4</ele>
        <time>2012-12-29T10:17:29.000Z</time>
      </trkpt>
      <trkpt lat="44.1319" lon="1.87347">
        <ele>183.7</ele>
        <time>2012-12-29T10:17:30.000Z</time>
      </trkpt>
      <trkpt lat="44.13187" lon="1.87347">
        <ele>184</ele>
        <time>2012-12-29T10:17:31.000Z</time>
      </trkpt>
      <trkpt lat="44.13184" lon="1.87347">
        <ele>184.2</ele>
        <time>2012-12-29T10:17:32.000Z</time>
      </trkpt>
      <trkpt lat="44.13181" lon="1.87347">
        <ele>184.5</ele>
        <time>2012-12-29T10:17:33.000Z</time>
      </trkpt>
      <trkpt lat="44.13177" lon="1.87348">
        <ele>184.8</ele>
        <time>2012-12-29T10:17:34.000Z</time>
      </trkpt>
      <trkpt lat="44.13175" lon="1.87349">
        <ele>185</ele>
        <time>2012-12-29T10:17:35.000Z</time>
      </trkpt>
      <trkpt lat="44.13171" lon="1.87349">
        <ele>185.2</ele>
        <time>2012-12-29T10:17:36.000Z</time>
      </trkpt>
      <trkpt lat="44.13168" lon="1.87351">
        <ele>185.7</ele>
        <time>2012-12-29T10:17:38.000Z</time>
      </trkpt>
      <trkpt lat="44.13166" lon="1.87352">
        <ele>186</ele>
        <time>2012-12-29T10:17:39.000Z</time>
      </trkpt>
      <trkpt lat="44.13163" lon="1.87353">
        <ele>186.2</ele>
        <time>2012-12-29T10:17:40.000Z</time>
      </trkpt>
      <trkpt lat="44.13161" lon="1.87355">
        <ele>186.4</ele>
        <time>2012-12-29T10:17:41.000Z</time>
      </trkpt>
      <trkpt lat="44.13158" lon="1.87356">
        <ele>186.6</ele>
        <time>2012-12-29T10:17:42.000Z</time>
      </trkpt>
      <trkpt lat="44.13154" lon="1.87358">
        <ele>186.7</ele>
        <time>2012-12-29T10:17:43.000Z</time>
      </trkpt>
      <trkpt lat="44.1315" lon="1.87361">
        <ele>186.8</ele>
        <time>2012-12-29T10:17:44.000Z</time>
      </trkpt>
      <trkpt lat="44.13147" lon="1.87362">
        <ele>187</ele>
        <time>2012-12-29T10:17:45.000Z</time>
      </trkpt>
      <trkpt lat="44.13144" lon="1.87364">
        <ele>187.1</ele>
        <time>2012-12-29T10:17:46.000Z</time>
      </trkpt>
      <trkpt lat="44.13141" lon="1.87365">
        <ele>187.3</ele>
        <time>2012-12-29T10:17:47.000Z</time>
      </trkpt>
      <trkpt lat="44.13138" lon="1.87366">
        <ele>187.4</ele>
        <time>2012-12-29T10:17:48.000Z</time>
      </trkpt>
      <trkpt lat="44.13134" lon="1.87367">
        <ele>187.5</ele>
        <time>2012-12-29T10:17:49.000Z</time>
      </trkpt>
      <trkpt lat="44.13132" lon="1.87368">
        <ele>187.6</ele>
        <time>2012-12-29T10:17:50.000Z</time>
      </trkpt>
      <trkpt lat="44.13129" lon="1.87369">
        <ele>187.8</ele>
        <time>2012-12-29T10:17:51.000Z</time>
      </trkpt>
      <trkpt lat="44.13126" lon="1.8737">
        <ele>187.9</ele>
        <time>2012-12-29T10:17:52.000Z</time>
      </trkpt>
      <trkpt lat="44.13123" lon="1.8737">
        <ele>188</ele>
        <time>2012-12-29T10:17:53.000Z</time>
      </trkpt>
      <trkpt lat="44.13121" lon="1.8737">
        <ele>188.2</ele>
        <time>2012-12-29T10:17:54.000Z</time>
      </trkpt>
      <trkpt lat="44.13119" lon="1.8737">
        <ele>188.3</ele>
        <time>2012-12-29T10:17:55.000Z</time>
      </trkpt>
      <trkpt lat="44.13117" lon="1.8737">
        <ele>188.4</ele>
        <time>2012-12-29T10:17:56.000Z</time>
      </trkpt>
      <trkpt lat="44.13114" lon="1.87371">
        <ele>188.6</ele>
        <time>2012-12-29T10:17:57.000Z</time>
      </trkpt>
      <trkpt lat="44.13111" lon="1.87372">
        <ele>188.7</ele>
        <time>2012-12-29T10:17:58.000Z</time>
      </trkpt>
      <trkpt lat="44.13108" lon="1.87372">
        <ele>188.8</ele>
        <time>2012-12-29T10:17:59.000Z</time>
      </trkpt>
      <trkpt lat="44.13104" lon="1.87373">
        <ele>189</ele>
        <time>2012-12-29T10:18:01.000Z</time>
      </trkpt>
      <trkpt lat="44.13101" lon="1.87374">
        <ele>189</ele>
        <time>2012-12-29T10:18:02.000Z</time>
      </trkpt>
      <trkpt lat="44.13098" lon="1.87375">
        <ele>189</ele>
        <time>2012-12-29T10:18:03.000Z</time>
      </trkpt>
      <trkpt lat="44.13096" lon="1.87375">
        <ele>189.1</ele>
        <time>2012-12-29T10:18:04.000Z</time>
      </trkpt>
      <trkpt lat="44.13094" lon="1.87375">
        <ele>189.2</ele>
        <time>2012-12-29T10:18:05.000Z</time>
      </trkpt>
      <trkpt lat="44.13091" lon="1.87375">
        <ele>189.1</ele>
        <time>2012-12-29T10:18:06.000Z</time>
      </trkpt>
      <trkpt lat="44.13089" lon="1.87375">
        <ele>189</ele>
        <time>2012-12-29T10:18:07.000Z</time>
      </trkpt>
      <trkpt lat="44.13086" lon="1.87375">
        <ele>188.9</ele>
        <time>2012-12-29T10:18:08.000Z</time>
      </trkpt>
      <trkpt lat="44.13081" lon="1.87375">
        <ele>188.4</ele>
        <time>2012-12-29T10:18:10.000Z</time>
      </trkpt>
      <trkpt lat="44.13079" lon="1.87375">
        <ele>188.2</ele>
        <time>2012-12-29T10:18:11.000Z</time>
      </trkpt>
      <trkpt lat="44.13075" lon="1.87376">
        <ele>187.7</ele>
        <time>2012-12-29T10:18:13.000Z</time>
      </trkpt>
      <trkpt lat="44.13072" lon="1.87376">
        <ele>187.5</ele>
        <time>2012-12-29T10:18:14.000Z</time>
      </trkpt>
      <trkpt lat="44.1307" lon="1.87377">
        <ele>187.2</ele>
        <time>2012-12-29T10:18:15.000Z</time>
      </trkpt>
      <trkpt lat="44.13067" lon="1.87377">
        <ele>187</ele>
        <time>2012-12-29T10:18:16.000Z</time>
      </trkpt>
      <trkpt lat="44.13065" lon="1.87378">
        <ele>186.8</ele>
        <time>2012-12-29T10:18:17.000Z</time>
      </trkpt>
      <trkpt lat="44.13062" lon="1.87379">
        <ele>186.6</ele>
        <time>2012-12-29T10:18:18.000Z</time>
      </trkpt>
      <trkpt lat="44.13058" lon="1.8738">
        <ele>186.3</ele>
        <time>2012-12-29T10:18:20.000Z</time>
      </trkpt>
      <trkpt lat="44.13056" lon="1.8738">
        <ele>186.2</ele>
        <time>2012-12-29T10:18:21.000Z</time>
      </trkpt>
      <trkpt lat="44.13054" lon="1.87381">
        <ele>186.1</ele>
        <time>2012-12-29T10:18:22.000Z</time>
      </trkpt>
      <trkpt lat="44.13052" lon="1.87382">
        <ele>186</ele>
        <time>2012-12-29T10:18:23.000Z</time>
      </trkpt>
      <trkpt lat="44.13049" lon="1.87384">
        <ele>185.9</ele>
        <time>2012-12-29T10:18:24.000Z</time>
      </trkpt>
      <trkpt lat="44.13047" lon="1.87386">
        <ele>185.8</ele>
        <time>2012-12-29T10:18:25.000Z</time>
      </trkpt>
      <trkpt lat="44.13044" lon="1.87388">
        <ele>185.6</ele>
        <time>2012-12-29T10:18:26.000Z</time>
      </trkpt>
      <trkpt lat="44.13041" lon="1.8739">
        <ele>185.5</ele>
        <time>2012-12-29T10:18:27.000Z</time>
      </trkpt>
      <trkpt lat="44.13038" lon="1.87392">
        <ele>185.5</ele>
        <time>2012-12-29T10:18:28.000Z</time>
      </trkpt>
      <trkpt lat="44.13035" lon="1.87394">
        <ele>185.4</ele>
        <time>2012-12-29T10:18:29.000Z</time>
      </trkpt>
      <trkpt lat="44.13032" lon="1.87396">
        <ele>185.4</ele>
        <time>2012-12-29T10:18:30.000Z</time>
      </trkpt>
      <trkpt lat="44.13029" lon="1.87398">
        <ele>185.3</ele>
        <time>2012-12-29T10:18:31.000Z</time>
      </trkpt>
      <trkpt lat="44.13026" lon="1.87401">
        <ele>185.2</ele>
        <time>2012-12-29T10:18:32.000Z</time>
      </trkpt>
      <trkpt lat="44.13022" lon="1.87404">
        <ele>185.2</ele>
        <time>2012-12-29T10:18:33.000Z</time>
      </trkpt>
      <trkpt lat="44.13019" lon="1.87406">
        <ele>185.1</ele>
        <time>2012-12-29T10:18:34.000Z</time>
      </trkpt>
      <trkpt lat="44.13016" lon="1.8741">
        <ele>185.1</ele>
        <time>2012-12-29T10:18:35.000Z</time>
      </trkpt>
      <trkpt lat="44.13012" lon="1.87414">
        <ele>185</ele>
        <time>2012-12-29T10:18:36.000Z</time>
      </trkpt>
      <trkpt lat="44.13009" lon="1.87419">
        <ele>185</ele>
        <time>2012-12-29T10:18:37.000Z</time>
      </trkpt>
      <trkpt lat="44.13006" lon="1.87424">
        <ele>185</ele>
        <time>2012-12-29T10:18:38.000Z</time>
      </trkpt>
      <trkpt lat="44.13002" lon="1.87428">
        <ele>185</ele>
        <time>2012-12-29T10:18:39.000Z</time>
      </trkpt>
      <trkpt lat="44.12999" lon="1.87433">
        <ele>185</ele>
        <time>2012-12-29T10:18:40.000Z</time>
      </trkpt>
      <trkpt lat="44.12996" lon="1.87436">
        <ele>184.8</ele>
        <time>2012-12-29T10:18:41.000Z</time>
      </trkpt>
      <trkpt lat="44.12992" lon="1.87441">
        <ele>184.8</ele>
        <time>2012-12-29T10:18:42.000Z</time>
      </trkpt>
      <trkpt lat="44.12989" lon="1.87445">
        <ele>184.7</ele>
        <time>2012-12-29T10:18:43.000Z</time>
      </trkpt>
      <trkpt lat="44.12986" lon="1.87449">
        <ele>184.7</ele>
        <time>2012-12-29T10:18:44.000Z</time>
      </trkpt>
      <trkpt lat="44.12984" lon="1.87452">
        <ele>184.7</ele>
        <time>2012-12-29T10:18:45.000Z</time>
      </trkpt>
      <trkpt lat="44.12982" lon="1.87457">
        <ele>184.7</ele>
        <time>2012-12-29T10:18:46.000Z</time>
      </trkpt>
      <trkpt lat="44.1298" lon="1.87461">
        <ele>184.7</ele>
        <time>2012-12-29T10:18:47.000Z</time>
      </trkpt>
      <trkpt lat="44.12977" lon="1.87466">
        <ele>184.7</ele>
        <time>2012-12-29T10:18:48.000Z</time>
      </trkpt>
      <trkpt lat="44.12973" lon="1.87473">
        <ele>184.8</ele>
        <time>2012-12-29T10:18:49.000Z</time>
      </trkpt>
      <trkpt lat="44.1297" lon="1.8748">
        <ele>184.9</ele>
        <time>2012-12-29T10:18:50.000Z</time>
      </trkpt>
      <trkpt lat="44.12966" lon="1.87486">
        <ele>185.1</ele>
        <time>2012-12-29T10:18:51.000Z</time>
      </trkpt>
      <trkpt lat="44.12962" lon="1.87492">
        <ele>185.3</ele>
        <time>2012-12-29T10:18:52.000Z</time>
      </trkpt>
      <trkpt lat="44.12959" lon="1.87496">
        <ele>185.5</ele>
        <time>2012-12-29T10:18:53.000Z</time>
      </trkpt>
      <trkpt lat="44.12956" lon="1.87501">
        <ele>185.7</ele>
        <time>2012-12-29T10:18:54.000Z</time>
      </trkpt>
      <trkpt lat="44.12954" lon="1.87505">
        <ele>185.9</ele>
        <time>2012-12-29T10:18:55.000Z</time>
      </trkpt>
      <trkpt lat="44.12952" lon="1.87508">
        <ele>186.1</ele>
        <time>2012-12-29T10:18:56.000Z</time>
      </trkpt>
      <trkpt lat="44.1295" lon="1.87513">
        <ele>186.3</ele>
        <time>2012-12-29T10:18:57.000Z</time>
      </trkpt>
      <trkpt lat="44.12949" lon="1.87517">
        <ele>186.5</ele>
        <time>2012-12-29T10:18:58.000Z</time>
      </trkpt>
      <trkpt lat="44.12946" lon="1.87522">
        <ele>186.6</ele>
        <time>2012-12-29T10:18:59.000Z</time>
      </trkpt>
      <trkpt lat="44.12943" lon="1.87527">
        <ele>187.5</ele>
        <time>2012-12-29T10:19:00.000Z</time>
      </trkpt>
      <trkpt lat="44.12939" lon="1.87531">
        <ele>189.1</ele>
        <time>2012-12-29T10:19:01.000Z</time>
      </trkpt>
      <trkpt lat="44.12936" lon="1.87535">
        <ele>190.4</ele>
        <time>2012-12-29T10:19:02.000Z</time>
      </trkpt>
      <trkpt lat="44.12932" lon="1.8754">
        <ele>191.1</ele>
        <time>2012-12-29T10:19:03.000Z</time>
      </trkpt>
      <trkpt lat="44.12928" lon="1.87545">
        <ele>191.2</ele>
        <time>2012-12-29T10:19:04.000Z</time>
      </trkpt>
      <trkpt lat="44.12924" lon="1.87551">
        <ele>191.3</ele>
        <time>2012-12-29T10:19:05.000Z</time>
      </trkpt>
      <trkpt lat="44.1292" lon="1.87557">
        <ele>191</ele>
        <time>2012-12-29T10:19:06.000Z</time>
      </trkpt>
      <trkpt lat="44.12916" lon="1.87565">
        <ele>190.7</ele>
        <time>2012-12-29T10:19:07.000Z</time>
      </trkpt>
      <trkpt lat="44.12913" lon="1.87572">
        <ele>190.8</ele>
        <time>2012-12-29T10:19:08.000Z</time>
      </trkpt>
      <trkpt lat="44.12909" lon="1.87579">
        <ele>190.9</ele>
        <time>2012-12-29T10:19:09.000Z</time>
      </trkpt>
      <trkpt lat="44.12905" lon="1.87586">
        <ele>190.9</ele>
        <time>2012-12-29T10:19:10.000Z</time>
      </trkpt>
      <trkpt lat="44.129" lon="1.87592">
        <ele>191.3</ele>
        <time>2012-12-29T10:19:11.000Z</time>
      </trkpt>
      <trkpt lat="44.12897" lon="1.87598">
        <ele>190.6</ele>
        <time>2012-12-29T10:19:12.000Z</time>
      </trkpt>
      <trkpt lat="44.12893" lon="1.87604">
        <ele>189.4</ele>
        <time>2012-12-29T10:19:13.000Z</time>
      </trkpt>
      <trkpt lat="44.12889" lon="1.8761">
        <ele>189.3</ele>
        <time>2012-12-29T10:19:14.000Z</time>
      </trkpt>
      <trkpt lat="44.12888" lon="1.87615">
        <ele>188.4</ele>
        <time>2012-12-29T10:19:15.000Z</time>
      </trkpt>
      <trkpt lat="44.12887" lon="1.8762">
        <ele>188.3</ele>
        <time>2012-12-29T10:19:16.000Z</time>
      </trkpt>
      <trkpt lat="44.12887" lon="1.87624">
        <ele>186.9</ele>
        <time>2012-12-29T10:19:17.000Z</time>
      </trkpt>
      <trkpt lat="44.12891" lon="1.8763">
        <ele>186.4</ele>
        <time>2012-12-29T10:19:18.000Z</time>
      </trkpt>
      <trkpt lat="44.12894" lon="1.87636">
        <ele>185.7</ele>
        <time>2012-12-29T10:19:19.000Z</time>
      </trkpt>
      <trkpt lat="44.12897" lon="1.87643">
        <ele>184.8</ele>
        <time>2012-12-29T10:19:20.000Z</time>
      </trkpt>
      <trkpt lat="44.12898" lon="1.87651">
        <ele>184.3</ele>
        <time>2012-12-29T10:19:21.000Z</time>
      </trkpt>
      <trkpt lat="44.129" lon="1.8766">
        <ele>183.3</ele>
        <time>2012-12-29T10:19:22.000Z</time>
      </trkpt>
      <trkpt lat="44.129" lon="1.87667">
        <ele>182.9</ele>
        <time>2012-12-29T10:19:23.000Z</time>
      </trkpt>
      <trkpt lat="44.12899" lon="1.87675">
        <ele>182.9</ele>
        <time>2012-12-29T10:19:24.000Z</time>
      </trkpt>
      <trkpt lat="44.12898" lon="1.87683">
        <ele>182.9</ele>
        <time>2012-12-29T10:19:25.000Z</time>
      </trkpt>
      <trkpt lat="44.12897" lon="1.87691">
        <ele>182.4</ele>
        <time>2012-12-29T10:19:26.000Z</time>
      </trkpt>
      <trkpt lat="44.12894" lon="1.87697">
        <ele>181.5</ele>
        <time>2012-12-29T10:19:27.000Z</time>
      </trkpt>
      <trkpt lat="44.1289" lon="1.87703">
        <ele>180.2</ele>
        <time>2012-12-29T10:19:28.000Z</time>
      </trkpt>
      <trkpt lat="44.12888" lon="1.87708">
        <ele>179.5</ele>
        <time>2012-12-29T10:19:29.000Z</time>
      </trkpt>
      <trkpt lat="44.12885" lon="1.87712">
        <ele>179.5</ele>
        <time>2012-12-29T10:19:30.000Z</time>
      </trkpt>
      <trkpt lat="44.12881" lon="1.87716">
        <ele>179.6</ele>
        <time>2012-12-29T10:19:31.000Z</time>
      </trkpt>
      <trkpt lat="44.12878" lon="1.8772">
        <ele>179.6</ele>
        <time>2012-12-29T10:19:32.000Z</time>
      </trkpt>
      <trkpt lat="44.12875" lon="1.87724">
        <ele>179.6</ele>
        <time>2012-12-29T10:19:33.000Z</time>
      </trkpt>
      <trkpt lat="44.12872" lon="1.87727">
        <ele>179.6</ele>
        <time>2012-12-29T10:19:34.000Z</time>
      </trkpt>
      <trkpt lat="44.12871" lon="1.8773">
        <ele>179.7</ele>
        <time>2012-12-29T10:19:35.000Z</time>
      </trkpt>
      <trkpt lat="44.12869" lon="1.87732">
        <ele>179.7</ele>
        <time>2012-12-29T10:19:36.000Z</time>
      </trkpt>
      <trkpt lat="44.12867" lon="1.87735">
        <ele>179.7</ele>
        <time>2012-12-29T10:19:37.000Z</time>
      </trkpt>
      <trkpt lat="44.12866" lon="1.87738">
        <ele>179.6</ele>
        <time>2012-12-29T10:19:38.000Z</time>
      </trkpt>
      <trkpt lat="44.12864" lon="1.8774">
        <ele>179.7</ele>
        <time>2012-12-29T10:19:39.000Z</time>
      </trkpt>
      <trkpt lat="44.12863" lon="1.87744">
        <ele>179.7</ele>
        <time>2012-12-29T10:19:40.000Z</time>
      </trkpt>
      <trkpt lat="44.12861" lon="1.87747">
        <ele>179.8</ele>
        <time>2012-12-29T10:19:41.000Z</time>
      </trkpt>
      <trkpt lat="44.1286" lon="1.87752">
        <ele>179.8</ele>
        <time>2012-12-29T10:19:42.000Z</time>
      </trkpt>
      <trkpt lat="44.12859" lon="1.87756">
        <ele>179.8</ele>
        <time>2012-12-29T10:19:43.000Z</time>
      </trkpt>
      <trkpt lat="44.12857" lon="1.87762">
        <ele>179.7</ele>
        <time>2012-12-29T10:19:44.000Z</time>
      </trkpt>
      <trkpt lat="44.12855" lon="1.87767">
        <ele>179.6</ele>
        <time>2012-12-29T10:19:45.000Z</time>
      </trkpt>
      <trkpt lat="44.12854" lon="1.87772">
        <ele>179.5</ele>
        <time>2012-12-29T10:19:46.000Z</time>
      </trkpt>
      <trkpt lat="44.12852" lon="1.87776">
        <ele>179.4</ele>
        <time>2012-12-29T10:19:47.000Z</time>
      </trkpt>
      <trkpt lat="44.1285" lon="1.87781">
        <ele>179.3</ele>
        <time>2012-12-29T10:19:48.000Z</time>
      </trkpt>
      <trkpt lat="44.12847" lon="1.87786">
        <ele>179.2</ele>
        <time>2012-12-29T10:19:49.000Z</time>
      </trkpt>
      <trkpt lat="44.12845" lon="1.87791">
        <ele>179.1</ele>
        <time>2012-12-29T10:19:50.000Z</time>
      </trkpt>
      <trkpt lat="44.12841" lon="1.87796">
        <ele>178</ele>
        <time>2012-12-29T10:19:51.000Z</time>
      </trkpt>
      <trkpt lat="44.12838" lon="1.87802">
        <ele>177.9</ele>
        <time>2012-12-29T10:19:52.000Z</time>
      </trkpt>
      <trkpt lat="44.12835" lon="1.87807">
        <ele>178.2</ele>
        <time>2012-12-29T10:19:53.000Z</time>
      </trkpt>
      <trkpt lat="44.12831" lon="1.87812">
        <ele>178.3</ele>
        <time>2012-12-29T10:19:54.000Z</time>
      </trkpt>
      <trkpt lat="44.12829" lon="1.87815">
        <ele>178.4</ele>
        <time>2012-12-29T10:19:55.000Z</time>
      </trkpt>
      <trkpt lat="44.12827" lon="1.87818">
        <ele>178.5</ele>
        <time>2012-12-29T10:19:56.000Z</time>
      </trkpt>
      <trkpt lat="44.12824" lon="1.87822">
        <ele>178.6</ele>
        <time>2012-12-29T10:19:57.000Z</time>
      </trkpt>
      <trkpt lat="44.1282" lon="1.87825">
        <ele>178.7</ele>
        <time>2012-12-29T10:19:58.000Z</time>
      </trkpt>
      <trkpt lat="44.12817" lon="1.87828">
        <ele>178.8</ele>
        <time>2012-12-29T10:19:59.000Z</time>
      </trkpt>
      <trkpt lat="44.12815" lon="1.87831">
        <ele>178.9</ele>
        <time>2012-12-29T10:20:00.000Z</time>
      </trkpt>
      <trkpt lat="44.12812" lon="1.87836">
        <ele>179</ele>
        <time>2012-12-29T10:20:01.000Z</time>
      </trkpt>
      <trkpt lat="44.12809" lon="1.8784">
        <ele>179.1</ele>
        <time>2012-12-29T10:20:02.000Z</time>
      </trkpt>
      <trkpt lat="44.12807" lon="1.87846">
        <ele>179.1</ele>
        <time>2012-12-29T10:20:03.000Z</time>
      </trkpt>
      <trkpt lat="44.12804" lon="1.87852">
        <ele>179.1</ele>
        <time>2012-12-29T10:20:04.000Z</time>
      </trkpt>
      <trkpt lat="44.12803" lon="1.87856">
        <ele>179.2</ele>
        <time>2012-12-29T10:20:05.000Z</time>
      </trkpt>
      <trkpt lat="44.12802" lon="1.8786">
        <ele>179.3</ele>
        <time>2012-12-29T10:20:06.000Z</time>
      </trkpt>
      <trkpt lat="44.12801" lon="1.87864">
        <ele>179.4</ele>
        <time>2012-12-29T10:20:07.000Z</time>
      </trkpt>
      <trkpt lat="44.128" lon="1.87868">
        <ele>179.5</ele>
        <time>2012-12-29T10:20:08.000Z</time>
      </trkpt>
      <trkpt lat="44.12799" lon="1.87871">
        <ele>179.6</ele>
        <time>2012-12-29T10:20:09.000Z</time>
      </trkpt>
      <trkpt lat="44.12798" lon="1.87875">
        <ele>179.7</ele>
        <time>2012-12-29T10:20:10.000Z</time>
      </trkpt>
      <trkpt lat="44.12796" lon="1.8788">
        <ele>179.8</ele>
        <time>2012-12-29T10:20:11.000Z</time>
      </trkpt>
      <trkpt lat="44.12795" lon="1.87883">
        <ele>179.9</ele>
        <time>2012-12-29T10:20:12.000Z</time>
      </trkpt>
      <trkpt lat="44.12794" lon="1.87889">
        <ele>180.1</ele>
        <time>2012-12-29T10:20:14.000Z</time>
      </trkpt>
      <trkpt lat="44.12794" lon="1.87892">
        <ele>180.2</ele>
        <time>2012-12-29T10:20:15.000Z</time>
      </trkpt>
      <trkpt lat="44.12794" lon="1.87896">
        <ele>180.4</ele>
        <time>2012-12-29T10:20:16.000Z</time>
      </trkpt>
      <trkpt lat="44.12794" lon="1.87899">
        <ele>180.6</ele>
        <time>2012-12-29T10:20:17.000Z</time>
      </trkpt>
      <trkpt lat="44.12795" lon="1.87902">
        <ele>181.1</ele>
        <time>2012-12-29T10:20:19.000Z</time>
      </trkpt>
      <trkpt lat="44.12796" lon="1.87904">
        <ele>181.2</ele>
        <time>2012-12-29T10:20:20.000Z</time>
      </trkpt>
      <trkpt lat="44.12799" lon="1.87906">
        <ele>181.3</ele>
        <time>2012-12-29T10:20:21.000Z</time>
      </trkpt>
      <trkpt lat="44.12802" lon="1.87908">
        <ele>181.4</ele>
        <time>2012-12-29T10:20:22.000Z</time>
      </trkpt>
      <trkpt lat="44.12805" lon="1.87911">
        <ele>181.6</ele>
        <time>2012-12-29T10:20:23.000Z</time>
      </trkpt>
      <trkpt lat="44.12808" lon="1.87914">
        <ele>181.6</ele>
        <time>2012-12-29T10:20:24.000Z</time>
      </trkpt>
      <trkpt lat="44.12811" lon="1.87916">
        <ele>181.7</ele>
        <time>2012-12-29T10:20:25.000Z</time>
      </trkpt>
      <trkpt lat="44.12814" lon="1.87919">
        <ele>181.8</ele>
        <time>2012-12-29T10:20:26.000Z</time>
      </trkpt>
      <trkpt lat="44.12817" lon="1.87922">
        <ele>182.8</ele>
        <time>2012-12-29T10:20:27.000Z</time>
      </trkpt>
      <trkpt lat="44.12821" lon="1.87925">
        <ele>183.7</ele>
        <time>2012-12-29T10:20:28.000Z</time>
      </trkpt>
      <trkpt lat="44.12824" lon="1.87929">
        <ele>184.4</ele>
        <time>2012-12-29T10:20:29.000Z</time>
      </trkpt>
      <trkpt lat="44.12828" lon="1.87933">
        <ele>184.7</ele>
        <time>2012-12-29T10:20:30.000Z</time>
      </trkpt>
      <trkpt lat="44.12833" lon="1.87938">
        <ele>184.4</ele>
        <time>2012-12-29T10:20:31.000Z</time>
      </trkpt>
      <trkpt lat="44.12839" lon="1.87942">
        <ele>184.3</ele>
        <time>2012-12-29T10:20:32.000Z</time>
      </trkpt>
      <trkpt lat="44.12844" lon="1.87947">
        <ele>183.6</ele>
        <time>2012-12-29T10:20:33.000Z</time>
      </trkpt>
      <trkpt lat="44.1285" lon="1.87952">
        <ele>182.8</ele>
        <time>2012-12-29T10:20:34.000Z</time>
      </trkpt>
      <trkpt lat="44.12855" lon="1.87956">
        <ele>182.2</ele>
        <time>2012-12-29T10:20:35.000Z</time>
      </trkpt>
      <trkpt lat="44.1286" lon="1.8796">
        <ele>181.9</ele>
        <time>2012-12-29T10:20:36.000Z</time>
      </trkpt>
      <trkpt lat="44.12864" lon="1.87963">
        <ele>181.6</ele>
        <time>2012-12-29T10:20:37.000Z</time>
      </trkpt>
      <trkpt lat="44.12868" lon="1.87967">
        <ele>181.4</ele>
        <time>2012-12-29T10:20:38.000Z</time>
      </trkpt>
      <trkpt lat="44.12871" lon="1.87971">
        <ele>181.1</ele>
        <time>2012-12-29T10:20:39.000Z</time>
      </trkpt>
      <trkpt lat="44.12875" lon="1.87974">
        <ele>181</ele>
        <time>2012-12-29T10:20:40.000Z</time>
      </trkpt>
      <trkpt lat="44.12878" lon="1.87978">
        <ele>181.1</ele>
        <time>2012-12-29T10:20:41.000Z</time>
      </trkpt>
      <trkpt lat="44.12881" lon="1.87981">
        <ele>181.1</ele>
        <time>2012-12-29T10:20:42.000Z</time>
      </trkpt>
      <trkpt lat="44.12884" lon="1.87985">
        <ele>181.2</ele>
        <time>2012-12-29T10:20:43.000Z</time>
      </trkpt>
      <trkpt lat="44.12886" lon="1.87988">
        <ele>181.3</ele>
        <time>2012-12-29T10:20:44.000Z</time>
      </trkpt>
      <trkpt lat="44.12889" lon="1.87991">
        <ele>181.4</ele>
        <time>2012-12-29T10:20:45.000Z</time>
      </trkpt>
      <trkpt lat="44.12892" lon="1.87993">
        <ele>181.5</ele>
        <time>2012-12-29T10:20:46.000Z</time>
      </trkpt>
      <trkpt lat="44.12895" lon="1.87997">
        <ele>181.6</ele>
        <time>2012-12-29T10:20:47.000Z</time>
      </trkpt>
      <trkpt lat="44.12898" lon="1.88">
        <ele>182.6</ele>
        <time>2012-12-29T10:20:48.000Z</time>
      </trkpt>
      <trkpt lat="44.12901" lon="1.88003">
        <ele>182.6</ele>
        <time>2012-12-29T10:20:49.000Z</time>
      </trkpt>
      <trkpt lat="44.12904" lon="1.88007">
        <ele>182.7</ele>
        <time>2012-12-29T10:20:50.000Z</time>
      </trkpt>
      <trkpt lat="44.12907" lon="1.8801">
        <ele>183.3</ele>
        <time>2012-12-29T10:20:51.000Z</time>
      </trkpt>
      <trkpt lat="44.12909" lon="1.88013">
        <ele>183.3</ele>
        <time>2012-12-29T10:20:52.000Z</time>
      </trkpt>
      <trkpt lat="44.1291" lon="1.88016">
        <ele>183.3</ele>
        <time>2012-12-29T10:20:53.000Z</time>
      </trkpt>
      <trkpt lat="44.12911" lon="1.8802">
        <ele>183.3</ele>
        <time>2012-12-29T10:20:54.000Z</time>
      </trkpt>
      <trkpt lat="44.12911" lon="1.88023">
        <ele>183.3</ele>
        <time>2012-12-29T10:20:55.000Z</time>
      </trkpt>
      <trkpt lat="44.1291" lon="1.88025">
        <ele>183.3</ele>
        <time>2012-12-29T10:20:56.000Z</time>
      </trkpt>
      <trkpt lat="44.12909" lon="1.88029">
        <ele>183.4</ele>
        <time>2012-12-29T10:20:57.000Z</time>
      </trkpt>
      <trkpt lat="44.12906" lon="1.88033">
        <ele>183.4</ele>
        <time>2012-12-29T10:20:58.000Z</time>
      </trkpt>
      <trkpt lat="44.129" lon="1.88039">
        <ele>182.9</ele>
        <time>2012-12-29T10:20:59.000Z</time>
      </trkpt>
      <trkpt lat="44.12895" lon="1.88045">
        <ele>181.9</ele>
        <time>2012-12-29T10:21:00.000Z</time>
      </trkpt>
      <trkpt lat="44.12891" lon="1.88051">
        <ele>181</ele>
        <time>2012-12-29T10:21:01.000Z</time>
      </trkpt>
      <trkpt lat="44.12887" lon="1.88057">
        <ele>180.9</ele>
        <time>2012-12-29T10:21:02.000Z</time>
      </trkpt>
      <trkpt lat="44.12885" lon="1.88062">
        <ele>180.9</ele>
        <time>2012-12-29T10:21:03.000Z</time>
      </trkpt>
      <trkpt lat="44.12885" lon="1.88066">
        <ele>180.9</ele>
        <time>2012-12-29T10:21:04.000Z</time>
      </trkpt>
      <trkpt lat="44.12887" lon="1.8807">
        <ele>180.9</ele>
        <time>2012-12-29T10:21:05.000Z</time>
      </trkpt>
      <trkpt lat="44.12889" lon="1.88073">
        <ele>181</ele>
        <time>2012-12-29T10:21:06.000Z</time>
      </trkpt>
      <trkpt lat="44.12891" lon="1.88076">
        <ele>180.9</ele>
        <time>2012-12-29T10:21:07.000Z</time>
      </trkpt>
      <trkpt lat="44.12894" lon="1.88077">
        <ele>180.9</ele>
        <time>2012-12-29T10:21:08.000Z</time>
      </trkpt>
      <trkpt lat="44.12896" lon="1.88079">
        <ele>180.9</ele>
        <time>2012-12-29T10:21:09.000Z</time>
      </trkpt>
      <trkpt lat="44.12898" lon="1.88081">
        <ele>180.9</ele>
        <time>2012-12-29T10:21:10.000Z</time>
      </trkpt>
      <trkpt lat="44.12901" lon="1.88083">
        <ele>181</ele>
        <time>2012-12-29T10:21:11.000Z</time>
      </trkpt>
      <trkpt lat="44.12903" lon="1.88085">
        <ele>181</ele>
        <time>2012-12-29T10:21:12.000Z</time>
      </trkpt>
      <trkpt lat="44.12907" lon="1.88087">
        <ele>181.1</ele>
        <time>2012-12-29T10:21:14.000Z</time>
      </trkpt>
      <trkpt lat="44.12909" lon="1.88086">
        <ele>181.1</ele>
        <time>2012-12-29T10:21:15.000Z</time>
      </trkpt>
      <trkpt lat="44.12912" lon="1.88084">
        <ele>181.1</ele>
        <time>2012-12-29T10:21:16.000Z</time>
      </trkpt>
      <trkpt lat="44.12914" lon="1.88081">
        <ele>181.3</ele>
        <time>2012-12-29T10:21:17.000Z</time>
      </trkpt>
      <trkpt lat="44.12915" lon="1.88078">
        <ele>181.4</ele>
        <time>2012-12-29T10:21:18.000Z</time>
      </trkpt>
      <trkpt lat="44.12917" lon="1.88073">
        <ele>181.5</ele>
        <time>2012-12-29T10:21:19.000Z</time>
      </trkpt>
      <trkpt lat="44.12918" lon="1.88069">
        <ele>181.7</ele>
        <time>2012-12-29T10:21:20.000Z</time>
      </trkpt>
      <trkpt lat="44.1292" lon="1.88065">
        <ele>181.8</ele>
        <time>2012-12-29T10:21:21.000Z</time>
      </trkpt>
      <trkpt lat="44.12922" lon="1.8806">
        <ele>182</ele>
        <time>2012-12-29T10:21:22.000Z</time>
      </trkpt>
      <trkpt lat="44.12923" lon="1.88055">
        <ele>182</ele>
        <time>2012-12-29T10:21:23.000Z</time>
      </trkpt>
      <trkpt lat="44.12925" lon="1.88051">
        <ele>182.1</ele>
        <time>2012-12-29T10:21:24.000Z</time>
      </trkpt>
      <trkpt lat="44.12927" lon="1.88047">
        <ele>182.2</ele>
        <time>2012-12-29T10:21:25.000Z</time>
      </trkpt>
      <trkpt lat="44.12928" lon="1.88043">
        <ele>182.3</ele>
        <time>2012-12-29T10:21:26.000Z</time>
      </trkpt>
      <trkpt lat="44.1293" lon="1.88039">
        <ele>182.3</ele>
        <time>2012-12-29T10:21:27.000Z</time>
      </trkpt>
      <trkpt lat="44.12932" lon="1.88035">
        <ele>182.4</ele>
        <time>2012-12-29T10:21:28.000Z</time>
      </trkpt>
      <trkpt lat="44.12934" lon="1.88032">
        <ele>182.4</ele>
        <time>2012-12-29T10:21:29.000Z</time>
      </trkpt>
      <trkpt lat="44.12936" lon="1.88029">
        <ele>182.5</ele>
        <time>2012-12-29T10:21:30.000Z</time>
      </trkpt>
      <trkpt lat="44.12938" lon="1.88027">
        <ele>182.6</ele>
        <time>2012-12-29T10:21:31.000Z</time>
      </trkpt>
      <trkpt lat="44.1294" lon="1.88024">
        <ele>182.7</ele>
        <time>2012-12-29T10:21:32.000Z</time>
      </trkpt>
      <trkpt lat="44.12942" lon="1.88022">
        <ele>182.8</ele>
        <time>2012-12-29T10:21:33.000Z</time>
      </trkpt>
      <trkpt lat="44.12944" lon="1.88019">
        <ele>182.9</ele>
        <time>2012-12-29T10:21:34.000Z</time>
      </trkpt>
      <trkpt lat="44.12947" lon="1.88017">
        <ele>182.9</ele>
        <time>2012-12-29T10:21:35.000Z</time>
      </trkpt>
      <trkpt lat="44.12949" lon="1.88015">
        <ele>182.9</ele>
        <time>2012-12-29T10:21:36.000Z</time>
      </trkpt>
      <trkpt lat="44.12952" lon="1.88013">
        <ele>182.9</ele>
        <time>2012-12-29T10:21:37.000Z</time>
      </trkpt>
      <trkpt lat="44.12954" lon="1.8801">
        <ele>183</ele>
        <time>2012-12-29T10:21:38.000Z</time>
      </trkpt>
      <trkpt lat="44.12956" lon="1.88009">
        <ele>183</ele>
        <time>2012-12-29T10:21:39.000Z</time>
      </trkpt>
      <trkpt lat="44.12958" lon="1.88007">
        <ele>183</ele>
        <time>2012-12-29T10:21:40.000Z</time>
      </trkpt>
      <trkpt lat="44.1296" lon="1.88004">
        <ele>183.1</ele>
        <time>2012-12-29T10:21:41.000Z</time>
      </trkpt>
      <trkpt lat="44.12964" lon="1.88001">
        <ele>183.3</ele>
        <time>2012-12-29T10:21:43.000Z</time>
      </trkpt>
      <trkpt lat="44.12965" lon="1.87999">
        <ele>183.4</ele>
        <time>2012-12-29T10:21:44.000Z</time>
      </trkpt>
      <trkpt lat="44.12969" lon="1.87996">
        <ele>183.5</ele>
        <time>2012-12-29T10:21:46.000Z</time>
      </trkpt>
      <trkpt lat="44.12971" lon="1.87994">
        <ele>183.6</ele>
        <time>2012-12-29T10:21:47.000Z</time>
      </trkpt>
      <trkpt lat="44.12973" lon="1.87993">
        <ele>183.7</ele>
        <time>2012-12-29T10:21:48.000Z</time>
      </trkpt>
      <trkpt lat="44.12976" lon="1.87991">
        <ele>183.9</ele>
        <time>2012-12-29T10:21:49.000Z</time>
      </trkpt>
      <trkpt lat="44.12979" lon="1.87989">
        <ele>184.2</ele>
        <time>2012-12-29T10:21:51.000Z</time>
      </trkpt>
      <trkpt lat="44.12981" lon="1.87988">
        <ele>184.3</ele>
        <time>2012-12-29T10:21:52.000Z</time>
      </trkpt>
      <trkpt lat="44.12984" lon="1.87988">
        <ele>184.5</ele>
        <time>2012-12-29T10:21:54.000Z</time>
      </trkpt>
      <trkpt lat="44.12986" lon="1.87988">
        <ele>184.5</ele>
        <time>2012-12-29T10:21:55.000Z</time>
      </trkpt>
      <trkpt lat="44.1299" lon="1.8799">
        <ele>184.6</ele>
        <time>2012-12-29T10:21:57.000Z</time>
      </trkpt>
      <trkpt lat="44.12992" lon="1.87991">
        <ele>184.7</ele>
        <time>2012-12-29T10:21:58.000Z</time>
      </trkpt>
      <trkpt lat="44.12996" lon="1.87993">
        <ele>184.8</ele>
        <time>2012-12-29T10:22:00.000Z</time>
      </trkpt>
      <trkpt lat="44.12998" lon="1.87994">
        <ele>184.9</ele>
        <time>2012-12-29T10:22:01.000Z</time>
      </trkpt>
      <trkpt lat="44.13001" lon="1.87997">
        <ele>185.1</ele>
        <time>2012-12-29T10:22:03.000Z</time>
      </trkpt>
      <trkpt lat="44.13003" lon="1.87998">
        <ele>185.2</ele>
        <time>2012-12-29T10:22:04.000Z</time>
      </trkpt>
      <trkpt lat="44.13006" lon="1.88002">
        <ele>185.3</ele>
        <time>2012-12-29T10:22:06.000Z</time>
      </trkpt>
      <trkpt lat="44.13007" lon="1.88003">
        <ele>185.4</ele>
        <time>2012-12-29T10:22:07.000Z</time>
      </trkpt>
      <trkpt lat="44.1301" lon="1.88007">
        <ele>185.5</ele>
        <time>2012-12-29T10:22:09.000Z</time>
      </trkpt>
      <trkpt lat="44.13011" lon="1.88008">
        <ele>185.6</ele>
        <time>2012-12-29T10:22:10.000Z</time>
      </trkpt>
      <trkpt lat="44.13013" lon="1.88012">
        <ele>185.7</ele>
        <time>2012-12-29T10:22:11.999Z</time>
      </trkpt>
      <trkpt lat="44.13014" lon="1.88014">
        <ele>185.8</ele>
        <time>2012-12-29T10:22:12.999Z</time>
      </trkpt>
      <trkpt lat="44.13017" lon="1.88018">
        <ele>186</ele>
        <time>2012-12-29T10:22:14.999Z</time>
      </trkpt>
      <trkpt lat="44.13017" lon="1.8802">
        <ele>186.1</ele>
        <time>2012-12-29T10:22:15.999Z</time>
      </trkpt>
      <trkpt lat="44.13019" lon="1.88025">
        <ele>186.3</ele>
        <time>2012-12-29T10:22:17.999Z</time>
      </trkpt>
      <trkpt lat="44.1302" lon="1.88027">
        <ele>186.5</ele>
        <time>2012-12-29T10:22:18.999Z</time>
      </trkpt>
      <trkpt lat="44.1302" lon="1.88033">
        <ele>186.7</ele>
        <time>2012-12-29T10:22:20.999Z</time>
      </trkpt>
      <trkpt lat="44.13019" lon="1.88036">
        <ele>186.9</ele>
        <time>2012-12-29T10:22:21.999Z</time>
      </trkpt>
      <trkpt lat="44.13018" lon="1.88041">
        <ele>187.2</ele>
        <time>2012-12-29T10:22:23.999Z</time>
      </trkpt>
      <trkpt lat="44.13017" lon="1.88043">
        <ele>187.3</ele>
        <time>2012-12-29T10:22:24.999Z</time>
      </trkpt>
      <trkpt lat="44.13015" lon="1.88047">
        <ele>187.6</ele>
        <time>2012-12-29T10:22:26.999Z</time>
      </trkpt>
      <trkpt lat="44.13014" lon="1.88049">
        <ele>187.8</ele>
        <time>2012-12-29T10:22:27.999Z</time>
      </trkpt>
      <trkpt lat="44.13012" lon="1.88052">
        <ele>188</ele>
        <time>2012-12-29T10:22:29.999Z</time>
      </trkpt>
      <trkpt lat="44.13011" lon="1.88055">
        <ele>188.2</ele>
        <time>2012-12-29T10:22:30.999Z</time>
      </trkpt>
      <trkpt lat="44.13009" lon="1.88059">
        <ele>188.4</ele>
        <time>2012-12-29T10:22:32.999Z</time>
      </trkpt>
      <trkpt lat="44.13008" lon="1.88061">
        <ele>188.6</ele>
        <time>2012-12-29T10:22:33.999Z</time>
      </trkpt>
      <trkpt lat="44.13004" lon="1.88065">
        <ele>189.3</ele>
        <time>2012-12-29T10:22:36.999Z</time>
      </trkpt>
      <trkpt lat="44.13003" lon="1.88066">
        <ele>189.5</ele>
        <time>2012-12-29T10:22:37.999Z</time>
      </trkpt>
      <trkpt lat="44.13" lon="1.88069">
        <ele>189.8</ele>
        <time>2012-12-29T10:22:39.999Z</time>
      </trkpt>
      <trkpt lat="44.12999" lon="1.88071">
        <ele>189.8</ele>
        <time>2012-12-29T10:22:40.999Z</time>
      </trkpt>
      <trkpt lat="44.12997" lon="1.88074">
        <ele>190.3</ele>
        <time>2012-12-29T10:22:43.999Z</time>
      </trkpt>
      <trkpt lat="44.12996" lon="1.88076">
        <ele>190.3</ele>
        <time>2012-12-29T10:22:44.999Z</time>
      </trkpt>
      <trkpt lat="44.12994" lon="1.88079">
        <ele>190.4</ele>
        <time>2012-12-29T10:22:46.999Z</time>
      </trkpt>
      <trkpt lat="44.12993" lon="1.88081">
        <ele>190.4</ele>
        <time>2012-12-29T10:22:47.999Z</time>
      </trkpt>
      <trkpt lat="44.1299" lon="1.88085">
        <ele>190.7</ele>
        <time>2012-12-29T10:22:50.999Z</time>
      </trkpt>
      <trkpt lat="44.1299" lon="1.88087">
        <ele>190.8</ele>
        <time>2012-12-29T10:22:51.999Z</time>
      </trkpt>
      <trkpt lat="44.12987" lon="1.8809">
        <ele>191.1</ele>
        <time>2012-12-29T10:22:54.999Z</time>
      </trkpt>
      <trkpt lat="44.12986" lon="1.88091">
        <ele>191.3</ele>
        <time>2012-12-29T10:22:55.999Z</time>
      </trkpt>
      <trkpt lat="44.12983" lon="1.88095">
        <ele>191.8</ele>
        <time>2012-12-29T10:22:59.999Z</time>
      </trkpt>
      <trkpt lat="44.12982" lon="1.88096">
        <ele>191.9</ele>
        <time>2012-12-29T10:23:00.999Z</time>
      </trkpt>
      <trkpt lat="44.1298" lon="1.88099">
        <ele>192.2</ele>
        <time>2012-12-29T10:23:02.999Z</time>
      </trkpt>
      <trkpt lat="44.12979" lon="1.88102">
        <ele>192.3</ele>
        <time>2012-12-29T10:23:03.999Z</time>
      </trkpt>
      <trkpt lat="44.12976" lon="1.88106">
        <ele>192.7</ele>
        <time>2012-12-29T10:23:06.999Z</time>
      </trkpt>
      <trkpt lat="44.12975" lon="1.88107">
        <ele>192.9</ele>
        <time>2012-12-29T10:23:07.999Z</time>
      </trkpt>
      <trkpt lat="44.12972" lon="1.8811">
        <ele>193.3</ele>
        <time>2012-12-29T10:23:10.999Z</time>
      </trkpt>
      <trkpt lat="44.12971" lon="1.88111">
        <ele>193.4</ele>
        <time>2012-12-29T10:23:11.999Z</time>
      </trkpt>
      <trkpt lat="44.12967" lon="1.88115">
        <ele>193.8</ele>
        <time>2012-12-29T10:23:14.999Z</time>
      </trkpt>
      <trkpt lat="44.12966" lon="1.88116">
        <ele>193.9</ele>
        <time>2012-12-29T10:23:15.999Z</time>
      </trkpt>
      <trkpt lat="44.12964" lon="1.8812">
        <ele>194.4</ele>
        <time>2012-12-29T10:23:18.999Z</time>
      </trkpt>
      <trkpt lat="44.12963" lon="1.88122">
        <ele>194.5</ele>
        <time>2012-12-29T10:23:19.999Z</time>
      </trkpt>
      <trkpt lat="44.12961" lon="1.88125">
        <ele>194.9</ele>
        <time>2012-12-29T10:23:21.999Z</time>
      </trkpt>
      <trkpt lat="44.12959" lon="1.88126">
        <ele>195.1</ele>
        <time>2012-12-29T10:23:22.999Z</time>
      </trkpt>
      <trkpt lat="44.12957" lon="1.8813">
        <ele>195.6</ele>
        <time>2012-12-29T10:23:24.999Z</time>
      </trkpt>
      <trkpt lat="44.12956" lon="1.88132">
        <ele>195.9</ele>
        <time>2012-12-29T10:23:25.999Z</time>
      </trkpt>
      <trkpt lat="44.12954" lon="1.88136">
        <ele>196.4</ele>
        <time>2012-12-29T10:23:27.999Z</time>
      </trkpt>
      <trkpt lat="44.12953" lon="1.88137">
        <ele>196.7</ele>
        <time>2012-12-29T10:23:28.999Z</time>
      </trkpt>
      <trkpt lat="44.12951" lon="1.88142">
        <ele>197.3</ele>
        <time>2012-12-29T10:23:31.999Z</time>
      </trkpt>
      <trkpt lat="44.1295" lon="1.88143">
        <ele>197.6</ele>
        <time>2012-12-29T10:23:32.999Z</time>
      </trkpt>
      <trkpt lat="44.12948" lon="1.88148">
        <ele>198.4</ele>
        <time>2012-12-29T10:23:35.999Z</time>
      </trkpt>
      <trkpt lat="44.12947" lon="1.88149">
        <ele>198.7</ele>
        <time>2012-12-29T10:23:36.999Z</time>
      </trkpt>
      <trkpt lat="44.12945" lon="1.88154">
        <ele>199.5</ele>
        <time>2012-12-29T10:23:39.999Z</time>
      </trkpt>
      <trkpt lat="44.12944" lon="1.88156">
        <ele>199.8</ele>
        <time>2012-12-29T10:23:40.999Z</time>
      </trkpt>
      <trkpt lat="44.12944" lon="1.8816">
        <ele>200.3</ele>
        <time>2012-12-29T10:23:42.999Z</time>
      </trkpt>
      <trkpt lat="44.12944" lon="1.88162">
        <ele>200.5</ele>
        <time>2012-12-29T10:23:43.999Z</time>
      </trkpt>
      <trkpt lat="44.12945" lon="1.88168">
        <ele>201</ele>
        <time>2012-12-29T10:23:45.999Z</time>
      </trkpt>
      <trkpt lat="44.12945" lon="1.88171">
        <ele>201.2</ele>
        <time>2012-12-29T10:23:46.999Z</time>
      </trkpt>
      <trkpt lat="44.12947" lon="1.88176">
        <ele>201.4</ele>
        <time>2012-12-29T10:23:48.999Z</time>
      </trkpt>
      <trkpt lat="44.12949" lon="1.88178">
        <ele>201.6</ele>
        <time>2012-12-29T10:23:49.999Z</time>
      </trkpt>
      <trkpt lat="44.12951" lon="1.88181">
        <ele>202</ele>
        <time>2012-12-29T10:23:51.999Z</time>
      </trkpt>
      <trkpt lat="44.12953" lon="1.88183">
        <ele>202.2</ele>
        <time>2012-12-29T10:23:52.999Z</time>
      </trkpt>
      <trkpt lat="44.12955" lon="1.88184">
        <ele>202.5</ele>
        <time>2012-12-29T10:23:53.999Z</time>
      </trkpt>
      <trkpt lat="44.12957" lon="1.88185">
        <ele>202.8</ele>
        <time>2012-12-29T10:23:54.999Z</time>
      </trkpt>
      <trkpt lat="44.12961" lon="1.88187">
        <ele>203.4</ele>
        <time>2012-12-29T10:23:56.999Z</time>
      </trkpt>
      <trkpt lat="44.12963" lon="1.88187">
        <ele>203.8</ele>
        <time>2012-12-29T10:23:57.999Z</time>
      </trkpt>
      <trkpt lat="44.12966" lon="1.88189">
        <ele>204.3</ele>
        <time>2012-12-29T10:23:59.999Z</time>
      </trkpt>
      <trkpt lat="44.12967" lon="1.88189">
        <ele>204.5</ele>
        <time>2012-12-29T10:24:00.999Z</time>
      </trkpt>
      <trkpt lat="44.1297" lon="1.88192">
        <ele>204.9</ele>
        <time>2012-12-29T10:24:02.999Z</time>
      </trkpt>
      <trkpt lat="44.12971" lon="1.88193">
        <ele>205.2</ele>
        <time>2012-12-29T10:24:03.999Z</time>
      </trkpt>
      <trkpt lat="44.12973" lon="1.88196">
        <ele>205.7</ele>
        <time>2012-12-29T10:24:05.999Z</time>
      </trkpt>
      <trkpt lat="44.12975" lon="1.88199">
        <ele>206</ele>
        <time>2012-12-29T10:24:06.999Z</time>
      </trkpt>
      <trkpt lat="44.12977" lon="1.88203">
        <ele>206.6</ele>
        <time>2012-12-29T10:24:08.999Z</time>
      </trkpt>
      <trkpt lat="44.12977" lon="1.88204">
        <ele>206.9</ele>
        <time>2012-12-29T10:24:09.999Z</time>
      </trkpt>
      <trkpt lat="44.12979" lon="1.88209">
        <ele>207.5</ele>
        <time>2012-12-29T10:24:11.999Z</time>
      </trkpt>
      <trkpt lat="44.1298" lon="1.88212">
        <ele>207.8</ele>
        <time>2012-12-29T10:24:12.999Z</time>
      </trkpt>
      <trkpt lat="44.12981" lon="1.88217">
        <ele>208.2</ele>
        <time>2012-12-29T10:24:14.999Z</time>
      </trkpt>
      <trkpt lat="44.12981" lon="1.88219">
        <ele>208.4</ele>
        <time>2012-12-29T10:24:15.999Z</time>
      </trkpt>
      <trkpt lat="44.12982" lon="1.88223">
        <ele>208.7</ele>
        <time>2012-12-29T10:24:17.999Z</time>
      </trkpt>
      <trkpt lat="44.12982" lon="1.88225">
        <ele>208.9</ele>
        <time>2012-12-29T10:24:18.999Z</time>
      </trkpt>
      <trkpt lat="44.12984" lon="1.88231">
        <ele>209.3</ele>
        <time>2012-12-29T10:24:21.999Z</time>
      </trkpt>
      <trkpt lat="44.12984" lon="1.88233">
        <ele>209.4</ele>
        <time>2012-12-29T10:24:22.999Z</time>
      </trkpt>
      <trkpt lat="44.12985" lon="1.88237">
        <ele>209.5</ele>
        <time>2012-12-29T10:24:24.999Z</time>
      </trkpt>
      <trkpt lat="44.12985" lon="1.8824">
        <ele>209.6</ele>
        <time>2012-12-29T10:24:25.999Z</time>
      </trkpt>
      <trkpt lat="44.12987" lon="1.88246">
        <ele>209.6</ele>
        <time>2012-12-29T10:24:27.999Z</time>
      </trkpt>
      <trkpt lat="44.12987" lon="1.88248">
        <ele>209.6</ele>
        <time>2012-12-29T10:24:28.999Z</time>
      </trkpt>
      <trkpt lat="44.12988" lon="1.88253">
        <ele>209.5</ele>
        <time>2012-12-29T10:24:30.999Z</time>
      </trkpt>
      <trkpt lat="44.12989" lon="1.88256">
        <ele>209.5</ele>
        <time>2012-12-29T10:24:31.999Z</time>
      </trkpt>
      <trkpt lat="44.1299" lon="1.88262">
        <ele>209.5</ele>
        <time>2012-12-29T10:24:33.999Z</time>
      </trkpt>
      <trkpt lat="44.1299" lon="1.88264">
        <ele>209.6</ele>
        <time>2012-12-29T10:24:34.999Z</time>
      </trkpt>
      <trkpt lat="44.12991" lon="1.88269">
        <ele>209.6</ele>
        <time>2012-12-29T10:24:36.999Z</time>
      </trkpt>
      <trkpt lat="44.12991" lon="1.88271">
        <ele>209.6</ele>
        <time>2012-12-29T10:24:37.999Z</time>
      </trkpt>
      <trkpt lat="44.12993" lon="1.88276">
        <ele>209.6</ele>
        <time>2012-12-29T10:24:39.999Z</time>
      </trkpt>
      <trkpt lat="44.12994" lon="1.88277">
        <ele>209.7</ele>
        <time>2012-12-29T10:24:40.999Z</time>
      </trkpt>
      <trkpt lat="44.12995" lon="1.88281">
        <ele>210</ele>
        <time>2012-12-29T10:24:42.999Z</time>
      </trkpt>
      <trkpt lat="44.12996" lon="1.88283">
        <ele>210.2</ele>
        <time>2012-12-29T10:24:43.999Z</time>
      </trkpt>
      <trkpt lat="44.12997" lon="1.88288">
        <ele>210.6</ele>
        <time>2012-12-29T10:24:45.999Z</time>
      </trkpt>
      <trkpt lat="44.12998" lon="1.88291">
        <ele>210.7</ele>
        <time>2012-12-29T10:24:46.999Z</time>
      </trkpt>
      <trkpt lat="44.12999" lon="1.88296">
        <ele>211</ele>
        <time>2012-12-29T10:24:48.999Z</time>
      </trkpt>
      <trkpt lat="44.13" lon="1.88299">
        <ele>211.1</ele>
        <time>2012-12-29T10:24:49.999Z</time>
      </trkpt>
      <trkpt lat="44.13002" lon="1.88304">
        <ele>211.4</ele>
        <time>2012-12-29T10:24:51.999Z</time>
      </trkpt>
      <trkpt lat="44.13003" lon="1.88307">
        <ele>211.6</ele>
        <time>2012-12-29T10:24:52.999Z</time>
      </trkpt>
      <trkpt lat="44.13004" lon="1.88312">
        <ele>211.8</ele>
        <time>2012-12-29T10:24:54.999Z</time>
      </trkpt>
      <trkpt lat="44.13005" lon="1.88315">
        <ele>211.9</ele>
        <time>2012-12-29T10:24:55.999Z</time>
      </trkpt>
      <trkpt lat="44.13007" lon="1.8832">
        <ele>212.2</ele>
        <time>2012-12-29T10:24:57.999Z</time>
      </trkpt>
      <trkpt lat="44.13008" lon="1.88322">
        <ele>212.3</ele>
        <time>2012-12-29T10:24:58.999Z</time>
      </trkpt>
      <trkpt lat="44.13009" lon="1.88326">
        <ele>212.6</ele>
        <time>2012-12-29T10:25:00.999Z</time>
      </trkpt>
      <trkpt lat="44.1301" lon="1.88328">
        <ele>212.7</ele>
        <time>2012-12-29T10:25:01.999Z</time>
      </trkpt>
      <trkpt lat="44.13011" lon="1.88333">
        <ele>212.9</ele>
        <time>2012-12-29T10:25:03.999Z</time>
      </trkpt>
      <trkpt lat="44.13013" lon="1.88336">
        <ele>213</ele>
        <time>2012-12-29T10:25:04.999Z</time>
      </trkpt>
      <trkpt lat="44.13015" lon="1.88341">
        <ele>213.4</ele>
        <time>2012-12-29T10:25:06.999Z</time>
      </trkpt>
      <trkpt lat="44.13016" lon="1.88343">
        <ele>213.5</ele>
        <time>2012-12-29T10:25:07.999Z</time>
      </trkpt>
      <trkpt lat="44.13019" lon="1.88348">
        <ele>213.9</ele>
        <time>2012-12-29T10:25:09.999Z</time>
      </trkpt>
      <trkpt lat="44.1302" lon="1.8835">
        <ele>214.1</ele>
        <time>2012-12-29T10:25:10.999Z</time>
      </trkpt>
      <trkpt lat="44.13022" lon="1.88354">
        <ele>214.6</ele>
        <time>2012-12-29T10:25:12.999Z</time>
      </trkpt>
      <trkpt lat="44.13022" lon="1.88356">
        <ele>214.8</ele>
        <time>2012-12-29T10:25:13.999Z</time>
      </trkpt>
      <trkpt lat="44.13024" lon="1.88359">
        <ele>215</ele>
        <time>2012-12-29T10:25:14.999Z</time>
      </trkpt>
      <trkpt lat="44.13025" lon="1.88362">
        <ele>215.2</ele>
        <time>2012-12-29T10:25:15.999Z</time>
      </trkpt>
      <trkpt lat="44.13026" lon="1.88365">
        <ele>215.4</ele>
        <time>2012-12-29T10:25:16.999Z</time>
      </trkpt>
      <trkpt lat="44.13027" lon="1.88367">
        <ele>215.7</ele>
        <time>2012-12-29T10:25:17.999Z</time>
      </trkpt>
      <trkpt lat="44.13028" lon="1.8837">
        <ele>215.8</ele>
        <time>2012-12-29T10:25:18.999Z</time>
      </trkpt>
      <trkpt lat="44.13029" lon="1.88373">
        <ele>216</ele>
        <time>2012-12-29T10:25:19.999Z</time>
      </trkpt>
      <trkpt lat="44.13031" lon="1.88377">
        <ele>216.4</ele>
        <time>2012-12-29T10:25:21.999Z</time>
      </trkpt>
      <trkpt lat="44.13032" lon="1.8838">
        <ele>216.6</ele>
        <time>2012-12-29T10:25:22.999Z</time>
      </trkpt>
      <trkpt lat="44.13034" lon="1.88384">
        <ele>216.9</ele>
        <time>2012-12-29T10:25:24.999Z</time>
      </trkpt>
      <trkpt lat="44.13035" lon="1.88387">
        <ele>217</ele>
        <time>2012-12-29T10:25:25.999Z</time>
      </trkpt>
      <trkpt lat="44.13036" lon="1.88392">
        <ele>217.2</ele>
        <time>2012-12-29T10:25:27.999Z</time>
      </trkpt>
      <trkpt lat="44.13037" lon="1.88394">
        <ele>217.3</ele>
        <time>2012-12-29T10:25:28.999Z</time>
      </trkpt>
      <trkpt lat="44.13038" lon="1.884">
        <ele>217.4</ele>
        <time>2012-12-29T10:25:30.999Z</time>
      </trkpt>
      <trkpt lat="44.13038" lon="1.88402">
        <ele>217.5</ele>
        <time>2012-12-29T10:25:31.999Z</time>
      </trkpt>
      <trkpt lat="44.13039" lon="1.88406">
        <ele>217.8</ele>
        <time>2012-12-29T10:25:33.999Z</time>
      </trkpt>
      <trkpt lat="44.13039" lon="1.88409">
        <ele>218</ele>
        <time>2012-12-29T10:25:34.999Z</time>
      </trkpt>
      <trkpt lat="44.13039" lon="1.88414">
        <ele>218.2</ele>
        <time>2012-12-29T10:25:36.999Z</time>
      </trkpt>
      <trkpt lat="44.13038" lon="1.88416">
        <ele>218.2</ele>
        <time>2012-12-29T10:25:37.999Z</time>
      </trkpt>
      <trkpt lat="44.13037" lon="1.88421">
        <ele>218.4</ele>
        <time>2012-12-29T10:25:39.999Z</time>
      </trkpt>
      <trkpt lat="44.13036" lon="1.88423">
        <ele>218.4</ele>
        <time>2012-12-29T10:25:40.999Z</time>
      </trkpt>
      <trkpt lat="44.13035" lon="1.88426">
        <ele>218.5</ele>
        <time>2012-12-29T10:25:41.999Z</time>
      </trkpt>
      <trkpt lat="44.13034" lon="1.88429">
        <ele>218.6</ele>
        <time>2012-12-29T10:25:42.999Z</time>
      </trkpt>
      <trkpt lat="44.13032" lon="1.88432">
        <ele>218.6</ele>
        <time>2012-12-29T10:25:43.999Z</time>
      </trkpt>
      <trkpt lat="44.13031" lon="1.88435">
        <ele>218.7</ele>
        <time>2012-12-29T10:25:44.999Z</time>
      </trkpt>
      <trkpt lat="44.1303" lon="1.88438">
        <ele>218.7</ele>
        <time>2012-12-29T10:25:45.999Z</time>
      </trkpt>
      <trkpt lat="44.13029" lon="1.88441">
        <ele>218.8</ele>
        <time>2012-12-29T10:25:46.999Z</time>
      </trkpt>
      <trkpt lat="44.13028" lon="1.88446">
        <ele>219</ele>
        <time>2012-12-29T10:25:48.999Z</time>
      </trkpt>
      <trkpt lat="44.13028" lon="1.88449">
        <ele>219.1</ele>
        <time>2012-12-29T10:25:49.999Z</time>
      </trkpt>
      <trkpt lat="44.13028" lon="1.88454">
        <ele>219.3</ele>
        <time>2012-12-29T10:25:51.999Z</time>
      </trkpt>
      <trkpt lat="44.13028" lon="1.88457">
        <ele>219.4</ele>
        <time>2012-12-29T10:25:52.999Z</time>
      </trkpt>
      <trkpt lat="44.13029" lon="1.8846">
        <ele>219.5</ele>
        <time>2012-12-29T10:25:53.999Z</time>
      </trkpt>
      <trkpt lat="44.1303" lon="1.88463">
        <ele>219.5</ele>
        <time>2012-12-29T10:25:54.999Z</time>
      </trkpt>
      <trkpt lat="44.13031" lon="1.88466">
        <ele>219.6</ele>
        <time>2012-12-29T10:25:55.999Z</time>
      </trkpt>
      <trkpt lat="44.13033" lon="1.88469">
        <ele>219.6</ele>
        <time>2012-12-29T10:25:56.999Z</time>
      </trkpt>
      <trkpt lat="44.13034" lon="1.88472">
        <ele>219.6</ele>
        <time>2012-12-29T10:25:57.999Z</time>
      </trkpt>
      <trkpt lat="44.13036" lon="1.88474">
        <ele>219.7</ele>
        <time>2012-12-29T10:25:58.999Z</time>
      </trkpt>
      <trkpt lat="44.13038" lon="1.88476">
        <ele>219.9</ele>
        <time>2012-12-29T10:25:59.999Z</time>
      </trkpt>
      <trkpt lat="44.13039" lon="1.88479">
        <ele>220</ele>
        <time>2012-12-29T10:26:00.999Z</time>
      </trkpt>
      <trkpt lat="44.13041" lon="1.88481">
        <ele>220.2</ele>
        <time>2012-12-29T10:26:01.999Z</time>
      </trkpt>
      <trkpt lat="44.13043" lon="1.88483">
        <ele>220.3</ele>
        <time>2012-12-29T10:26:02.999Z</time>
      </trkpt>
      <trkpt lat="44.13046" lon="1.88487">
        <ele>220.5</ele>
        <time>2012-12-29T10:26:04.999Z</time>
      </trkpt>
      <trkpt lat="44.13048" lon="1.88489">
        <ele>220.7</ele>
        <time>2012-12-29T10:26:05.999Z</time>
      </trkpt>
      <trkpt lat="44.1305" lon="1.88492">
        <ele>220.8</ele>
        <time>2012-12-29T10:26:06.999Z</time>
      </trkpt>
      <trkpt lat="44.13051" lon="1.88494">
        <ele>220.9</ele>
        <time>2012-12-29T10:26:07.999Z</time>
      </trkpt>
      <trkpt lat="44.13054" lon="1.88498">
        <ele>221.1</ele>
        <time>2012-12-29T10:26:09.999Z</time>
      </trkpt>
      <trkpt lat="44.13056" lon="1.885">
        <ele>221.2</ele>
        <time>2012-12-29T10:26:10.999Z</time>
      </trkpt>
      <trkpt lat="44.13057" lon="1.88503">
        <ele>221.3</ele>
        <time>2012-12-29T10:26:11.999Z</time>
      </trkpt>
      <trkpt lat="44.13059" lon="1.88505">
        <ele>221.4</ele>
        <time>2012-12-29T10:26:12.999Z</time>
      </trkpt>
      <trkpt lat="44.13061" lon="1.8851">
        <ele>221.6</ele>
        <time>2012-12-29T10:26:14.999Z</time>
      </trkpt>
      <trkpt lat="44.13062" lon="1.88513">
        <ele>221.7</ele>
        <time>2012-12-29T10:26:15.999Z</time>
      </trkpt>
      <trkpt lat="44.13063" lon="1.88516">
        <ele>221.8</ele>
        <time>2012-12-29T10:26:16.999Z</time>
      </trkpt>
      <trkpt lat="44.13064" lon="1.88519">
        <ele>221.9</ele>
        <time>2012-12-29T10:26:17.999Z</time>
      </trkpt>
      <trkpt lat="44.13064" lon="1.88522">
        <ele>222</ele>
        <time>2012-12-29T10:26:18.999Z</time>
      </trkpt>
      <trkpt lat="44.13065" lon="1.88525">
        <ele>222.2</ele>
        <time>2012-12-29T10:26:19.999Z</time>
      </trkpt>
      <trkpt lat="44.13065" lon="1.88528">
        <ele>222.3</ele>
        <time>2012-12-29T10:26:20.999Z</time>
      </trkpt>
      <trkpt lat="44.13066" lon="1.88531">
        <ele>222.4</ele>
        <time>2012-12-29T10:26:21.999Z</time>
      </trkpt>
      <trkpt lat="44.13067" lon="1.88537">
        <ele>222.6</ele>
        <time>2012-12-29T10:26:23.999Z</time>
      </trkpt>
      <trkpt lat="44.13068" lon="1.8854">
        <ele>222.7</ele>
        <time>2012-12-29T10:26:24.999Z</time>
      </trkpt>
      <trkpt lat="44.13068" lon="1.88543">
        <ele>222.8</ele>
        <time>2012-12-29T10:26:25.999Z</time>
      </trkpt>
      <trkpt lat="44.13069" lon="1.88546">
        <ele>222.9</ele>
        <time>2012-12-29T10:26:26.999Z</time>
      </trkpt>
      <trkpt lat="44.1307" lon="1.88551">
        <ele>223.1</ele>
        <time>2012-12-29T10:26:28.999Z</time>
      </trkpt>
      <trkpt lat="44.1307" lon="1.88554">
        <ele>223.2</ele>
        <time>2012-12-29T10:26:29.999Z</time>
      </trkpt>
      <trkpt lat="44.13071" lon="1.88558">
        <ele>223.4</ele>
        <time>2012-12-29T10:26:31.999Z</time>
      </trkpt>
      <trkpt lat="44.13071" lon="1.88561">
        <ele>223.5</ele>
        <time>2012-12-29T10:26:32.999Z</time>
      </trkpt>
      <trkpt lat="44.13071" lon="1.88566">
        <ele>223.7</ele>
        <time>2012-12-29T10:26:34.999Z</time>
      </trkpt>
      <trkpt lat="44.13071" lon="1.88569">
        <ele>223.7</ele>
        <time>2012-12-29T10:26:35.999Z</time>
      </trkpt>
      <trkpt lat="44.13072" lon="1.88573">
        <ele>223.8</ele>
        <time>2012-12-29T10:26:37.999Z</time>
      </trkpt>
      <trkpt lat="44.13072" lon="1.88576">
        <ele>223.9</ele>
        <time>2012-12-29T10:26:38.999Z</time>
      </trkpt>
      <trkpt lat="44.13073" lon="1.88581">
        <ele>224</ele>
        <time>2012-12-29T10:26:40.999Z</time>
      </trkpt>
      <trkpt lat="44.13074" lon="1.88583">
        <ele>224.1</ele>
        <time>2012-12-29T10:26:41.999Z</time>
      </trkpt>
      <trkpt lat="44.13075" lon="1.88588">
        <ele>224.4</ele>
        <time>2012-12-29T10:26:43.999Z</time>
      </trkpt>
      <trkpt lat="44.13075" lon="1.88591">
        <ele>224.5</ele>
        <time>2012-12-29T10:26:44.999Z</time>
      </trkpt>
      <trkpt lat="44.13076" lon="1.88596">
        <ele>224.7</ele>
        <time>2012-12-29T10:26:46.999Z</time>
      </trkpt>
      <trkpt lat="44.13077" lon="1.88599">
        <ele>224.8</ele>
        <time>2012-12-29T10:26:47.999Z</time>
      </trkpt>
      <trkpt lat="44.13078" lon="1.88604">
        <ele>225</ele>
        <time>2012-12-29T10:26:49.999Z</time>
      </trkpt>
      <trkpt lat="44.13079" lon="1.88607">
        <ele>225.2</ele>
        <time>2012-12-29T10:26:50.999Z</time>
      </trkpt>
      <trkpt lat="44.1308" lon="1.88612">
        <ele>225.5</ele>
        <time>2012-12-29T10:26:52.999Z</time>
      </trkpt>
      <trkpt lat="44.1308" lon="1.88614">
        <ele>225.7</ele>
        <time>2012-12-29T10:26:53.999Z</time>
      </trkpt>
      <trkpt lat="44.13082" lon="1.88619">
        <ele>226.1</ele>
        <time>2012-12-29T10:26:55.999Z</time>
      </trkpt>
      <trkpt lat="44.13083" lon="1.88621">
        <ele>226.3</ele>
        <time>2012-12-29T10:26:56.999Z</time>
      </trkpt>
      <trkpt lat="44.13084" lon="1.88624">
        <ele>226.4</ele>
        <time>2012-12-29T10:26:57.999Z</time>
      </trkpt>
      <trkpt lat="44.13085" lon="1.88626">
        <ele>226.6</ele>
        <time>2012-12-29T10:26:58.999Z</time>
      </trkpt>
      <trkpt lat="44.13087" lon="1.88631">
        <ele>226.9</ele>
        <time>2012-12-29T10:27:00.999Z</time>
      </trkpt>
      <trkpt lat="44.13088" lon="1.88634">
        <ele>227</ele>
        <time>2012-12-29T10:27:01.999Z</time>
      </trkpt>
      <trkpt lat="44.1309" lon="1.88639">
        <ele>227.2</ele>
        <time>2012-12-29T10:27:03.999Z</time>
      </trkpt>
      <trkpt lat="44.13091" lon="1.88642">
        <ele>227.3</ele>
        <time>2012-12-29T10:27:04.999Z</time>
      </trkpt>
      <trkpt lat="44.13092" lon="1.88646">
        <ele>227.5</ele>
        <time>2012-12-29T10:27:06.999Z</time>
      </trkpt>
      <trkpt lat="44.13093" lon="1.88649">
        <ele>227.6</ele>
        <time>2012-12-29T10:27:07.999Z</time>
      </trkpt>
      <trkpt lat="44.13095" lon="1.88654">
        <ele>227.9</ele>
        <time>2012-12-29T10:27:09.999Z</time>
      </trkpt>
      <trkpt lat="44.13096" lon="1.88657">
        <ele>228.1</ele>
        <time>2012-12-29T10:27:10.999Z</time>
      </trkpt>
      <trkpt lat="44.13097" lon="1.8866">
        <ele>228.2</ele>
        <time>2012-12-29T10:27:11.999Z</time>
      </trkpt>
      <trkpt lat="44.13098" lon="1.88663">
        <ele>228.4</ele>
        <time>2012-12-29T10:27:12.999Z</time>
      </trkpt>
      <trkpt lat="44.13099" lon="1.88667">
        <ele>228.7</ele>
        <time>2012-12-29T10:27:14.999Z</time>
      </trkpt>
      <trkpt lat="44.13099" lon="1.88669">
        <ele>228.9</ele>
        <time>2012-12-29T10:27:15.999Z</time>
      </trkpt>
      <trkpt lat="44.13101" lon="1.88673">
        <ele>229.2</ele>
        <time>2012-12-29T10:27:17.999Z</time>
      </trkpt>
      <trkpt lat="44.13101" lon="1.88676">
        <ele>229.3</ele>
        <time>2012-12-29T10:27:18.999Z</time>
      </trkpt>
      <trkpt lat="44.13103" lon="1.88681">
        <ele>229.5</ele>
        <time>2012-12-29T10:27:20.999Z</time>
      </trkpt>
      <trkpt lat="44.13104" lon="1.88684">
        <ele>229.7</ele>
        <time>2012-12-29T10:27:21.999Z</time>
      </trkpt>
      <trkpt lat="44.13106" lon="1.88689">
        <ele>229.9</ele>
        <time>2012-12-29T10:27:23.999Z</time>
      </trkpt>
      <trkpt lat="44.13107" lon="1.88691">
        <ele>230.1</ele>
        <time>2012-12-29T10:27:24.999Z</time>
      </trkpt>
      <trkpt lat="44.13108" lon="1.88696">
        <ele>230.4</ele>
        <time>2012-12-29T10:27:26.999Z</time>
      </trkpt>
      <trkpt lat="44.13109" lon="1.88698">
        <ele>230.5</ele>
        <time>2012-12-29T10:27:27.999Z</time>
      </trkpt>
      <trkpt lat="44.1311" lon="1.88703">
        <ele>230.9</ele>
        <time>2012-12-29T10:27:29.999Z</time>
      </trkpt>
      <trkpt lat="44.13111" lon="1.88706">
        <ele>231</ele>
        <time>2012-12-29T10:27:30.999Z</time>
      </trkpt>
      <trkpt lat="44.13112" lon="1.88711">
        <ele>231.4</ele>
        <time>2012-12-29T10:27:32.999Z</time>
      </trkpt>
      <trkpt lat="44.13112" lon="1.88714">
        <ele>231.5</ele>
        <time>2012-12-29T10:27:33.999Z</time>
      </trkpt>
      <trkpt lat="44.13113" lon="1.88719">
        <ele>231.8</ele>
        <time>2012-12-29T10:27:35.999Z</time>
      </trkpt>
      <trkpt lat="44.13113" lon="1.88722">
        <ele>232</ele>
        <time>2012-12-29T10:27:36.999Z</time>
      </trkpt>
      <trkpt lat="44.13114" lon="1.88728">
        <ele>232.5</ele>
        <time>2012-12-29T10:27:38.999Z</time>
      </trkpt>
      <trkpt lat="44.13114" lon="1.88731">
        <ele>232.7</ele>
        <time>2012-12-29T10:27:39.999Z</time>
      </trkpt>
      <trkpt lat="44.13114" lon="1.88735">
        <ele>233.1</ele>
        <time>2012-12-29T10:27:41.999Z</time>
      </trkpt>
      <trkpt lat="44.13114" lon="1.88738">
        <ele>233.3</ele>
        <time>2012-12-29T10:27:42.999Z</time>
      </trkpt>
      <trkpt lat="44.13115" lon="1.88743">
        <ele>233.6</ele>
        <time>2012-12-29T10:27:44.999Z</time>
      </trkpt>
      <trkpt lat="44.13115" lon="1.88746">
        <ele>233.7</ele>
        <time>2012-12-29T10:27:45.999Z</time>
      </trkpt>
      <trkpt lat="44.13116" lon="1.88751">
        <ele>233.9</ele>
        <time>2012-12-29T10:27:47.999Z</time>
      </trkpt>
      <trkpt lat="44.13117" lon="1.88754">
        <ele>234</ele>
        <time>2012-12-29T10:27:48.999Z</time>
      </trkpt>
      <trkpt lat="44.13117" lon="1.88758">
        <ele>234.2</ele>
        <time>2012-12-29T10:27:50.999Z</time>
      </trkpt>
      <trkpt lat="44.13117" lon="1.88761">
        <ele>234.3</ele>
        <time>2012-12-29T10:27:51.999Z</time>
      </trkpt>
      <trkpt lat="44.13117" lon="1.88765">
        <ele>234.6</ele>
        <time>2012-12-29T10:27:53.999Z</time>
      </trkpt>
      <trkpt lat="44.13117" lon="1.88768">
        <ele>234.8</ele>
        <time>2012-12-29T10:27:54.999Z</time>
      </trkpt>
      <trkpt lat="44.13117" lon="1.88772">
        <ele>235</ele>
        <time>2012-12-29T10:27:56.999Z</time>
      </trkpt>
      <trkpt lat="44.13117" lon="1.88775">
        <ele>235.1</ele>
        <time>2012-12-29T10:27:57.999Z</time>
      </trkpt>
      <trkpt lat="44.13117" lon="1.88779">
        <ele>235.4</ele>
        <time>2012-12-29T10:27:59.999Z</time>
      </trkpt>
      <trkpt lat="44.13117" lon="1.88782">
        <ele>235.6</ele>
        <time>2012-12-29T10:28:00.999Z</time>
      </trkpt>
      <trkpt lat="44.13118" lon="1.88786">
        <ele>236</ele>
        <time>2012-12-29T10:28:02.999Z</time>
      </trkpt>
      <trkpt lat="44.13118" lon="1.88789">
        <ele>236.1</ele>
        <time>2012-12-29T10:28:03.999Z</time>
      </trkpt>
      <trkpt lat="44.13119" lon="1.88794">
        <ele>236.5</ele>
        <time>2012-12-29T10:28:05.999Z</time>
      </trkpt>
      <trkpt lat="44.13119" lon="1.88797">
        <ele>236.7</ele>
        <time>2012-12-29T10:28:06.999Z</time>
      </trkpt>
      <trkpt lat="44.1312" lon="1.88801">
        <ele>237</ele>
        <time>2012-12-29T10:28:08.999Z</time>
      </trkpt>
      <trkpt lat="44.13121" lon="1.88804">
        <ele>237.1</ele>
        <time>2012-12-29T10:28:09.999Z</time>
      </trkpt>
      <trkpt lat="44.13122" lon="1.88807">
        <ele>237.3</ele>
        <time>2012-12-29T10:28:11.999Z</time>
      </trkpt>
      <trkpt lat="44.13122" lon="1.8881">
        <ele>237.5</ele>
        <time>2012-12-29T10:28:12.999Z</time>
      </trkpt>
      <trkpt lat="44.13124" lon="1.88816">
        <ele>237.8</ele>
        <time>2012-12-29T10:28:14.999Z</time>
      </trkpt>
      <trkpt lat="44.13124" lon="1.88818">
        <ele>238</ele>
        <time>2012-12-29T10:28:15.999Z</time>
      </trkpt>
      <trkpt lat="44.13126" lon="1.88824">
        <ele>238.4</ele>
        <time>2012-12-29T10:28:17.999Z</time>
      </trkpt>
      <trkpt lat="44.13126" lon="1.88826">
        <ele>238.6</ele>
        <time>2012-12-29T10:28:18.999Z</time>
      </trkpt>
      <trkpt lat="44.13129" lon="1.8883">
        <ele>238.9</ele>
        <time>2012-12-29T10:28:20.999Z</time>
      </trkpt>
      <trkpt lat="44.1313" lon="1.88832">
        <ele>239</ele>
        <time>2012-12-29T10:28:21.999Z</time>
      </trkpt>
      <trkpt lat="44.13132" lon="1.88836">
        <ele>239.3</ele>
        <time>2012-12-29T10:28:23.999Z</time>
      </trkpt>
      <trkpt lat="44.13134" lon="1.8884">
        <ele>239.5</ele>
        <time>2012-12-29T10:28:24.999Z</time>
      </trkpt>
      <trkpt lat="44.13136" lon="1.88842">
        <ele>239.7</ele>
        <time>2012-12-29T10:28:25.999Z</time>
      </trkpt>
      <trkpt lat="44.13138" lon="1.88845">
        <ele>239.8</ele>
        <time>2012-12-29T10:28:26.999Z</time>
      </trkpt>
      <trkpt lat="44.1314" lon="1.88849">
        <ele>240.1</ele>
        <time>2012-12-29T10:28:28.999Z</time>
      </trkpt>
      <trkpt lat="44.13142" lon="1.88851">
        <ele>240.2</ele>
        <time>2012-12-29T10:28:29.999Z</time>
      </trkpt>
      <trkpt lat="44.13144" lon="1.88853">
        <ele>240.3</ele>
        <time>2012-12-29T10:28:30.999Z</time>
      </trkpt>
      <trkpt lat="44.13145" lon="1.88855">
        <ele>240.5</ele>
        <time>2012-12-29T10:28:31.999Z</time>
      </trkpt>
      <trkpt lat="44.13148" lon="1.88859">
        <ele>240.9</ele>
        <time>2012-12-29T10:28:33.999Z</time>
      </trkpt>
      <trkpt lat="44.13149" lon="1.88861">
        <ele>241.1</ele>
        <time>2012-12-29T10:28:34.999Z</time>
      </trkpt>
      <trkpt lat="44.13152" lon="1.88865">
        <ele>241.5</ele>
        <time>2012-12-29T10:28:36.999Z</time>
      </trkpt>
      <trkpt lat="44.13154" lon="1.88867">
        <ele>241.7</ele>
        <time>2012-12-29T10:28:37.999Z</time>
      </trkpt>
      <trkpt lat="44.13157" lon="1.88871">
        <ele>242.1</ele>
        <time>2012-12-29T10:28:39.999Z</time>
      </trkpt>
      <trkpt lat="44.13159" lon="1.88873">
        <ele>242.3</ele>
        <time>2012-12-29T10:28:40.999Z</time>
      </trkpt>
      <trkpt lat="44.13162" lon="1.88876">
        <ele>242.7</ele>
        <time>2012-12-29T10:28:42.999Z</time>
      </trkpt>
      <trkpt lat="44.13163" lon="1.88877">
        <ele>242.9</ele>
        <time>2012-12-29T10:28:43.999Z</time>
      </trkpt>
      <trkpt lat="44.13165" lon="1.88879">
        <ele>243</ele>
        <time>2012-12-29T10:28:44.999Z</time>
      </trkpt>
      <trkpt lat="44.13167" lon="1.88881">
        <ele>243.2</ele>
        <time>2012-12-29T10:28:45.999Z</time>
      </trkpt>
      <trkpt lat="44.13168" lon="1.88884">
        <ele>243.3</ele>
        <time>2012-12-29T10:28:46.999Z</time>
      </trkpt>
      <trkpt lat="44.1317" lon="1.88886">
        <ele>243.4</ele>
        <time>2012-12-29T10:28:47.999Z</time>
      </trkpt>
      <trkpt lat="44.13173" lon="1.88889">
        <ele>243.5</ele>
        <time>2012-12-29T10:28:49.999Z</time>
      </trkpt>
      <trkpt lat="44.13174" lon="1.88891">
        <ele>243.6</ele>
        <time>2012-12-29T10:28:50.999Z</time>
      </trkpt>
      <trkpt lat="44.13177" lon="1.88894">
        <ele>243.9</ele>
        <time>2012-12-29T10:28:52.999Z</time>
      </trkpt>
      <trkpt lat="44.13179" lon="1.88895">
        <ele>244</ele>
        <time>2012-12-29T10:28:53.999Z</time>
      </trkpt>
      <trkpt lat="44.13182" lon="1.889">
        <ele>244.3</ele>
        <time>2012-12-29T10:28:55.999Z</time>
      </trkpt>
      <trkpt lat="44.13183" lon="1.88902">
        <ele>244.4</ele>
        <time>2012-12-29T10:28:56.999Z</time>
      </trkpt>
      <trkpt lat="44.13186" lon="1.88905">
        <ele>244.7</ele>
        <time>2012-12-29T10:28:58.999Z</time>
      </trkpt>
      <trkpt lat="44.13187" lon="1.88907">
        <ele>244.8</ele>
        <time>2012-12-29T10:28:59.999Z</time>
      </trkpt>
      <trkpt lat="44.1319" lon="1.88911">
        <ele>245.1</ele>
        <time>2012-12-29T10:29:01.999Z</time>
      </trkpt>
      <trkpt lat="44.13191" lon="1.88913">
        <ele>245.2</ele>
        <time>2012-12-29T10:29:02.999Z</time>
      </trkpt>
      <trkpt lat="44.13194" lon="1.88916">
        <ele>245.4</ele>
        <time>2012-12-29T10:29:04.999Z</time>
      </trkpt>
      <trkpt lat="44.13195" lon="1.88917">
        <ele>245.5</ele>
        <time>2012-12-29T10:29:05.999Z</time>
      </trkpt>
      <trkpt lat="44.13198" lon="1.8892">
        <ele>245.9</ele>
        <time>2012-12-29T10:29:08.999Z</time>
      </trkpt>
      <trkpt lat="44.13199" lon="1.88921">
        <ele>246</ele>
        <time>2012-12-29T10:29:09.999Z</time>
      </trkpt>
      <trkpt lat="44.13202" lon="1.88925">
        <ele>246.2</ele>
        <time>2012-12-29T10:29:11.999Z</time>
      </trkpt>
      <trkpt lat="44.13203" lon="1.88927">
        <ele>246.3</ele>
        <time>2012-12-29T10:29:12.999Z</time>
      </trkpt>
      <trkpt lat="44.13205" lon="1.88931">
        <ele>246.6</ele>
        <time>2012-12-29T10:29:14.999Z</time>
      </trkpt>
      <trkpt lat="44.13206" lon="1.88932">
        <ele>246.7</ele>
        <time>2012-12-29T10:29:15.999Z</time>
      </trkpt>
      <trkpt lat="44.13209" lon="1.88935">
        <ele>247.1</ele>
        <time>2012-12-29T10:29:18.999Z</time>
      </trkpt>
      <trkpt lat="44.1321" lon="1.88936">
        <ele>247.3</ele>
        <time>2012-12-29T10:29:19.999Z</time>
      </trkpt>
      <trkpt lat="44.13212" lon="1.8894">
        <ele>247.6</ele>
        <time>2012-12-29T10:29:21.999Z</time>
      </trkpt>
      <trkpt lat="44.13213" lon="1.88942">
        <ele>247.7</ele>
        <time>2012-12-29T10:29:22.999Z</time>
      </trkpt>
      <trkpt lat="44.13215" lon="1.88946">
        <ele>248.1</ele>
        <time>2012-12-29T10:29:25.999Z</time>
      </trkpt>
      <trkpt lat="44.13216" lon="1.88947">
        <ele>248.2</ele>
        <time>2012-12-29T10:29:26.999Z</time>
      </trkpt>
      <trkpt lat="44.13218" lon="1.8895">
        <ele>248.3</ele>
        <time>2012-12-29T10:29:28.999Z</time>
      </trkpt>
      <trkpt lat="44.13219" lon="1.88951">
        <ele>248.4</ele>
        <time>2012-12-29T10:29:29.999Z</time>
      </trkpt>
      <trkpt lat="44.13221" lon="1.88954">
        <ele>248.6</ele>
        <time>2012-12-29T10:29:30.999Z</time>
      </trkpt>
      <trkpt lat="44.13222" lon="1.88957">
        <ele>248.7</ele>
        <time>2012-12-29T10:29:31.999Z</time>
      </trkpt>
      <trkpt lat="44.13224" lon="1.8896">
        <ele>248.9</ele>
        <time>2012-12-29T10:29:32.999Z</time>
      </trkpt>
      <trkpt lat="44.13225" lon="1.88963">
        <ele>249</ele>
        <time>2012-12-29T10:29:33.999Z</time>
      </trkpt>
      <trkpt lat="44.13227" lon="1.88966">
        <ele>249.1</ele>
        <time>2012-12-29T10:29:34.999Z</time>
      </trkpt>
      <trkpt lat="44.13229" lon="1.88969">
        <ele>249.2</ele>
        <time>2012-12-29T10:29:35.999Z</time>
      </trkpt>
      <trkpt lat="44.1323" lon="1.88972">
        <ele>249.3</ele>
        <time>2012-12-29T10:29:36.999Z</time>
      </trkpt>
      <trkpt lat="44.13232" lon="1.88975">
        <ele>249.4</ele>
        <time>2012-12-29T10:29:37.999Z</time>
      </trkpt>
      <trkpt lat="44.13233" lon="1.88978">
        <ele>249.5</ele>
        <time>2012-12-29T10:29:38.999Z</time>
      </trkpt>
      <trkpt lat="44.13235" lon="1.88982">
        <ele>249.6</ele>
        <time>2012-12-29T10:29:39.999Z</time>
      </trkpt>
      <trkpt lat="44.13237" lon="1.88985">
        <ele>249.6</ele>
        <time>2012-12-29T10:29:40.999Z</time>
      </trkpt>
      <trkpt lat="44.13238" lon="1.88989">
        <ele>249.7</ele>
        <time>2012-12-29T10:29:41.999Z</time>
      </trkpt>
      <trkpt lat="44.1324" lon="1.88993">
        <ele>249.7</ele>
        <time>2012-12-29T10:29:42.999Z</time>
      </trkpt>
      <trkpt lat="44.13242" lon="1.88997">
        <ele>249.7</ele>
        <time>2012-12-29T10:29:43.999Z</time>
      </trkpt>
      <trkpt lat="44.13244" lon="1.89001">
        <ele>249.6</ele>
        <time>2012-12-29T10:29:44.999Z</time>
      </trkpt>
      <trkpt lat="44.13247" lon="1.89006">
        <ele>249.6</ele>
        <time>2012-12-29T10:29:45.999Z</time>
      </trkpt>
      <trkpt lat="44.1325" lon="1.89012">
        <ele>249.6</ele>
        <time>2012-12-29T10:29:46.999Z</time>
      </trkpt>
      <trkpt lat="44.13252" lon="1.89016">
        <ele>249.6</ele>
        <time>2012-12-29T10:29:47.999Z</time>
      </trkpt>
      <trkpt lat="44.13254" lon="1.89021">
        <ele>249.6</ele>
        <time>2012-12-29T10:29:48.999Z</time>
      </trkpt>
      <trkpt lat="44.13257" lon="1.89025">
        <ele>249.6</ele>
        <time>2012-12-29T10:29:49.999Z</time>
      </trkpt>
      <trkpt lat="44.13259" lon="1.8903">
        <ele>248.9</ele>
        <time>2012-12-29T10:29:50.999Z</time>
      </trkpt>
      <trkpt lat="44.13262" lon="1.89034">
        <ele>248.9</ele>
        <time>2012-12-29T10:29:51.999Z</time>
      </trkpt>
      <trkpt lat="44.13264" lon="1.89038">
        <ele>248.9</ele>
        <time>2012-12-29T10:29:52.999Z</time>
      </trkpt>
      <trkpt lat="44.13267" lon="1.89043">
        <ele>248.8</ele>
        <time>2012-12-29T10:29:53.999Z</time>
      </trkpt>
      <trkpt lat="44.1327" lon="1.89049">
        <ele>248.8</ele>
        <time>2012-12-29T10:29:54.999Z</time>
      </trkpt>
      <trkpt lat="44.13274" lon="1.89056">
        <ele>248.8</ele>
        <time>2012-12-29T10:29:55.999Z</time>
      </trkpt>
      <trkpt lat="44.13277" lon="1.89062">
        <ele>248.7</ele>
        <time>2012-12-29T10:29:56.999Z</time>
      </trkpt>
      <trkpt lat="44.1328" lon="1.89069">
        <ele>248.2</ele>
        <time>2012-12-29T10:29:57.999Z</time>
      </trkpt>
      <trkpt lat="44.13283" lon="1.89075">
        <ele>247.9</ele>
        <time>2012-12-29T10:29:58.999Z</time>
      </trkpt>
      <trkpt lat="44.13286" lon="1.89083">
        <ele>247.5</ele>
        <time>2012-12-29T10:29:59.999Z</time>
      </trkpt>
      <trkpt lat="44.13289" lon="1.89091">
        <ele>247</ele>
        <time>2012-12-29T10:30:00.999Z</time>
      </trkpt>
      <trkpt lat="44.13291" lon="1.891">
        <ele>246.3</ele>
        <time>2012-12-29T10:30:01.999Z</time>
      </trkpt>
      <trkpt lat="44.13293" lon="1.89109">
        <ele>245.6</ele>
        <time>2012-12-29T10:30:02.999Z</time>
      </trkpt>
      <trkpt lat="44.13295" lon="1.89119">
        <ele>244.8</ele>
        <time>2012-12-29T10:30:03.999Z</time>
      </trkpt>
      <trkpt lat="44.13296" lon="1.8913">
        <ele>243.7</ele>
        <time>2012-12-29T10:30:04.999Z</time>
      </trkpt>
      <trkpt lat="44.13298" lon="1.89141">
        <ele>243.4</ele>
        <time>2012-12-29T10:30:05.999Z</time>
      </trkpt>
      <trkpt lat="44.133" lon="1.89152">
        <ele>242.9</ele>
        <time>2012-12-29T10:30:06.999Z</time>
      </trkpt>
      <trkpt lat="44.13301" lon="1.89162">
        <ele>242.2</ele>
        <time>2012-12-29T10:30:07.999Z</time>
      </trkpt>
      <trkpt lat="44.13302" lon="1.89173">
        <ele>241.4</ele>
        <time>2012-12-29T10:30:08.999Z</time>
      </trkpt>
      <trkpt lat="44.13302" lon="1.89184">
        <ele>240.9</ele>
        <time>2012-12-29T10:30:09.999Z</time>
      </trkpt>
      <trkpt lat="44.13301" lon="1.89193">
        <ele>240.7</ele>
        <time>2012-12-29T10:30:10.999Z</time>
      </trkpt>
      <trkpt lat="44.13299" lon="1.892">
        <ele>240.7</ele>
        <time>2012-12-29T10:30:11.999Z</time>
      </trkpt>
      <trkpt lat="44.13297" lon="1.89207">
        <ele>240.7</ele>
        <time>2012-12-29T10:30:12.999Z</time>
      </trkpt>
      <trkpt lat="44.13295" lon="1.89211">
        <ele>240.6</ele>
        <time>2012-12-29T10:30:13.999Z</time>
      </trkpt>
      <trkpt lat="44.13294" lon="1.89215">
        <ele>240.5</ele>
        <time>2012-12-29T10:30:14.999Z</time>
      </trkpt>
      <trkpt lat="44.13292" lon="1.89217">
        <ele>240.4</ele>
        <time>2012-12-29T10:30:15.999Z</time>
      </trkpt>
      <trkpt lat="44.13291" lon="1.8922">
        <ele>240.3</ele>
        <time>2012-12-29T10:30:16.999Z</time>
      </trkpt>
      <trkpt lat="44.1329" lon="1.89224">
        <ele>240.3</ele>
        <time>2012-12-29T10:30:17.999Z</time>
      </trkpt>
      <trkpt lat="44.13289" lon="1.89227">
        <ele>240.2</ele>
        <time>2012-12-29T10:30:18.999Z</time>
      </trkpt>
      <trkpt lat="44.13287" lon="1.89231">
        <ele>240.2</ele>
        <time>2012-12-29T10:30:20.999Z</time>
      </trkpt>
      <trkpt lat="44.13286" lon="1.89233">
        <ele>240.3</ele>
        <time>2012-12-29T10:30:21.999Z</time>
      </trkpt>
      <trkpt lat="44.13285" lon="1.89237">
        <ele>240.2</ele>
        <time>2012-12-29T10:30:23.999Z</time>
      </trkpt>
      <trkpt lat="44.13284" lon="1.8924">
        <ele>240.2</ele>
        <time>2012-12-29T10:30:24.999Z</time>
      </trkpt>
      <trkpt lat="44.13282" lon="1.89243">
        <ele>240.2</ele>
        <time>2012-12-29T10:30:25.999Z</time>
      </trkpt>
      <trkpt lat="44.13281" lon="1.89246">
        <ele>240.1</ele>
        <time>2012-12-29T10:30:26.999Z</time>
      </trkpt>
      <trkpt lat="44.13279" lon="1.8925">
        <ele>240</ele>
        <time>2012-12-29T10:30:28.999Z</time>
      </trkpt>
      <trkpt lat="44.13278" lon="1.89251">
        <ele>239.9</ele>
        <time>2012-12-29T10:30:29.999Z</time>
      </trkpt>
      <trkpt lat="44.13276" lon="1.89254">
        <ele>239.9</ele>
        <time>2012-12-29T10:30:31.999Z</time>
      </trkpt>
      <trkpt lat="44.13274" lon="1.89256">
        <ele>239.9</ele>
        <time>2012-12-29T10:30:32.999Z</time>
      </trkpt>
      <trkpt lat="44.13272" lon="1.89261">
        <ele>239.9</ele>
        <time>2012-12-29T10:30:34.999Z</time>
      </trkpt>
      <trkpt lat="44.13271" lon="1.89263">
        <ele>239.9</ele>
        <time>2012-12-29T10:30:35.999Z</time>
      </trkpt>
      <trkpt lat="44.13268" lon="1.89267">
        <ele>240</ele>
        <time>2012-12-29T10:30:37.999Z</time>
      </trkpt>
      <trkpt lat="44.13268" lon="1.89269">
        <ele>240</ele>
        <time>2012-12-29T10:30:38.999Z</time>
      </trkpt>
      <trkpt lat="44.13266" lon="1.89274">
        <ele>240</ele>
        <time>2012-12-29T10:30:40.999Z</time>
      </trkpt>
      <trkpt lat="44.13266" lon="1.89276">
        <ele>240</ele>
        <time>2012-12-29T10:30:41.999Z</time>
      </trkpt>
      <trkpt lat="44.13264" lon="1.89281">
        <ele>240.1</ele>
        <time>2012-12-29T10:30:43.999Z</time>
      </trkpt>
      <trkpt lat="44.13263" lon="1.89283">
        <ele>240.1</ele>
        <time>2012-12-29T10:30:44.999Z</time>
      </trkpt>
      <trkpt lat="44.13262" lon="1.89287">
        <ele>240.1</ele>
        <time>2012-12-29T10:30:46.999Z</time>
      </trkpt>
      <trkpt lat="44.13261" lon="1.89289">
        <ele>240.1</ele>
        <time>2012-12-29T10:30:47.999Z</time>
      </trkpt>
      <trkpt lat="44.13259" lon="1.89293">
        <ele>240.2</ele>
        <time>2012-12-29T10:30:49.999Z</time>
      </trkpt>
      <trkpt lat="44.13258" lon="1.89295">
        <ele>240.3</ele>
        <time>2012-12-29T10:30:50.999Z</time>
      </trkpt>
      <trkpt lat="44.13256" lon="1.893">
        <ele>240.5</ele>
        <time>2012-12-29T10:30:52.999Z</time>
      </trkpt>
      <trkpt lat="44.13255" lon="1.89302">
        <ele>240.4</ele>
        <time>2012-12-29T10:30:53.999Z</time>
      </trkpt>
      <trkpt lat="44.13253" lon="1.89306">
        <ele>240.5</ele>
        <time>2012-12-29T10:30:55.999Z</time>
      </trkpt>
      <trkpt lat="44.13252" lon="1.89309">
        <ele>240.5</ele>
        <time>2012-12-29T10:30:56.999Z</time>
      </trkpt>
      <trkpt lat="44.13249" lon="1.89313">
        <ele>240.6</ele>
        <time>2012-12-29T10:30:58.999Z</time>
      </trkpt>
      <trkpt lat="44.13248" lon="1.89315">
        <ele>240.7</ele>
        <time>2012-12-29T10:30:59.999Z</time>
      </trkpt>
      <trkpt lat="44.13246" lon="1.8932">
        <ele>240.8</ele>
        <time>2012-12-29T10:31:01.999Z</time>
      </trkpt>
      <trkpt lat="44.13246" lon="1.89322">
        <ele>240.8</ele>
        <time>2012-12-29T10:31:02.999Z</time>
      </trkpt>
      <trkpt lat="44.13244" lon="1.89327">
        <ele>240.9</ele>
        <time>2012-12-29T10:31:04.999Z</time>
      </trkpt>
      <trkpt lat="44.13244" lon="1.89329">
        <ele>241</ele>
        <time>2012-12-29T10:31:05.999Z</time>
      </trkpt>
      <trkpt lat="44.13243" lon="1.89333">
        <ele>241.2</ele>
        <time>2012-12-29T10:31:07.999Z</time>
      </trkpt>
      <trkpt lat="44.13242" lon="1.89336">
        <ele>241.2</ele>
        <time>2012-12-29T10:31:08.999Z</time>
      </trkpt>
      <trkpt lat="44.1324" lon="1.8934">
        <ele>241.5</ele>
        <time>2012-12-29T10:31:10.999Z</time>
      </trkpt>
      <trkpt lat="44.13239" lon="1.89342">
        <ele>241.6</ele>
        <time>2012-12-29T10:31:11.999Z</time>
      </trkpt>
      <trkpt lat="44.13237" lon="1.89346">
        <ele>241.8</ele>
        <time>2012-12-29T10:31:13.999Z</time>
      </trkpt>
      <trkpt lat="44.13237" lon="1.89348">
        <ele>241.9</ele>
        <time>2012-12-29T10:31:14.999Z</time>
      </trkpt>
      <trkpt lat="44.13235" lon="1.89353">
        <ele>242</ele>
        <time>2012-12-29T10:31:16.999Z</time>
      </trkpt>
      <trkpt lat="44.13235" lon="1.89356">
        <ele>242.1</ele>
        <time>2012-12-29T10:31:17.999Z</time>
      </trkpt>
      <trkpt lat="44.13233" lon="1.89362">
        <ele>242.3</ele>
        <time>2012-12-29T10:31:19.999Z</time>
      </trkpt>
      <trkpt lat="44.13233" lon="1.89364">
        <ele>242.4</ele>
        <time>2012-12-29T10:31:20.999Z</time>
      </trkpt>
      <trkpt lat="44.13232" lon="1.89369">
        <ele>242.7</ele>
        <time>2012-12-29T10:31:22.999Z</time>
      </trkpt>
      <trkpt lat="44.13231" lon="1.89372">
        <ele>242.8</ele>
        <time>2012-12-29T10:31:23.999Z</time>
      </trkpt>
      <trkpt lat="44.13229" lon="1.89376">
        <ele>243</ele>
        <time>2012-12-29T10:31:25.999Z</time>
      </trkpt>
      <trkpt lat="44.13229" lon="1.89378">
        <ele>243.1</ele>
        <time>2012-12-29T10:31:26.999Z</time>
      </trkpt>
      <trkpt lat="44.13227" lon="1.89382">
        <ele>243.4</ele>
        <time>2012-12-29T10:31:28.999Z</time>
      </trkpt>
      <trkpt lat="44.13227" lon="1.89384">
        <ele>243.5</ele>
        <time>2012-12-29T10:31:29.999Z</time>
      </trkpt>
      <trkpt lat="44.13225" lon="1.8939">
        <ele>243.8</ele>
        <time>2012-12-29T10:31:32.999Z</time>
      </trkpt>
      <trkpt lat="44.13224" lon="1.89392">
        <ele>243.9</ele>
        <time>2012-12-29T10:31:33.999Z</time>
      </trkpt>
      <trkpt lat="44.13223" lon="1.89397">
        <ele>244</ele>
        <time>2012-12-29T10:31:35.999Z</time>
      </trkpt>
      <trkpt lat="44.13222" lon="1.89399">
        <ele>244</ele>
        <time>2012-12-29T10:31:36.999Z</time>
      </trkpt>
      <trkpt lat="44.13221" lon="1.89403">
        <ele>244.2</ele>
        <time>2012-12-29T10:31:38.999Z</time>
      </trkpt>
      <trkpt lat="44.1322" lon="1.89405">
        <ele>244.2</ele>
        <time>2012-12-29T10:31:39.999Z</time>
      </trkpt>
      <trkpt lat="44.13218" lon="1.89411">
        <ele>244.4</ele>
        <time>2012-12-29T10:31:42.999Z</time>
      </trkpt>
      <trkpt lat="44.13218" lon="1.89412">
        <ele>244.5</ele>
        <time>2012-12-29T10:31:43.999Z</time>
      </trkpt>
      <trkpt lat="44.13216" lon="1.89416">
        <ele>244.7</ele>
        <time>2012-12-29T10:31:45.999Z</time>
      </trkpt>
      <trkpt lat="44.13215" lon="1.89419">
        <ele>244.8</ele>
        <time>2012-12-29T10:31:46.999Z</time>
      </trkpt>
      <trkpt lat="44.13214" lon="1.89424">
        <ele>244.9</ele>
        <time>2012-12-29T10:31:48.999Z</time>
      </trkpt>
      <trkpt lat="44.13213" lon="1.89426">
        <ele>244.9</ele>
        <time>2012-12-29T10:31:49.999Z</time>
      </trkpt>
      <trkpt lat="44.13211" lon="1.89431">
        <ele>245.1</ele>
        <time>2012-12-29T10:31:51.999Z</time>
      </trkpt>
      <trkpt lat="44.13211" lon="1.89434">
        <ele>245.1</ele>
        <time>2012-12-29T10:31:52.999Z</time>
      </trkpt>
      <trkpt lat="44.13209" lon="1.89438">
        <ele>245.3</ele>
        <time>2012-12-29T10:31:54.999Z</time>
      </trkpt>
      <trkpt lat="44.13208" lon="1.89441">
        <ele>245.4</ele>
        <time>2012-12-29T10:31:55.999Z</time>
      </trkpt>
      <trkpt lat="44.13206" lon="1.89444">
        <ele>245.6</ele>
        <time>2012-12-29T10:31:57.999Z</time>
      </trkpt>
      <trkpt lat="44.13206" lon="1.89446">
        <ele>245.7</ele>
        <time>2012-12-29T10:31:58.999Z</time>
      </trkpt>
      <trkpt lat="44.13204" lon="1.89449">
        <ele>245.8</ele>
        <time>2012-12-29T10:31:59.999Z</time>
      </trkpt>
      <trkpt lat="44.13203" lon="1.89452">
        <ele>245.8</ele>
        <time>2012-12-29T10:32:00.999Z</time>
      </trkpt>
      <trkpt lat="44.13201" lon="1.89457">
        <ele>246</ele>
        <time>2012-12-29T10:32:02.999Z</time>
      </trkpt>
      <trkpt lat="44.13201" lon="1.89459">
        <ele>246.1</ele>
        <time>2012-12-29T10:32:03.999Z</time>
      </trkpt>
      <trkpt lat="44.132" lon="1.89463">
        <ele>246.3</ele>
        <time>2012-12-29T10:32:05.999Z</time>
      </trkpt>
      <trkpt lat="44.13199" lon="1.89466">
        <ele>246.4</ele>
        <time>2012-12-29T10:32:06.999Z</time>
      </trkpt>
      <trkpt lat="44.13198" lon="1.89469">
        <ele>246.8</ele>
        <time>2012-12-29T10:32:08.999Z</time>
      </trkpt>
      <trkpt lat="44.13197" lon="1.89472">
        <ele>247</ele>
        <time>2012-12-29T10:32:09.999Z</time>
      </trkpt>
      <trkpt lat="44.13196" lon="1.89477">
        <ele>247.2</ele>
        <time>2012-12-29T10:32:11.999Z</time>
      </trkpt>
      <trkpt lat="44.13196" lon="1.89479">
        <ele>247.4</ele>
        <time>2012-12-29T10:32:12.999Z</time>
      </trkpt>
      <trkpt lat="44.13194" lon="1.89484">
        <ele>247.6</ele>
        <time>2012-12-29T10:32:14.999Z</time>
      </trkpt>
      <trkpt lat="44.13194" lon="1.89487">
        <ele>247.6</ele>
        <time>2012-12-29T10:32:15.999Z</time>
      </trkpt>
      <trkpt lat="44.13193" lon="1.89492">
        <ele>247.7</ele>
        <time>2012-12-29T10:32:17.999Z</time>
      </trkpt>
      <trkpt lat="44.13193" lon="1.89494">
        <ele>247.7</ele>
        <time>2012-12-29T10:32:18.999Z</time>
      </trkpt>
      <trkpt lat="44.13192" lon="1.89499">
        <ele>247.7</ele>
        <time>2012-12-29T10:32:20.999Z</time>
      </trkpt>
      <trkpt lat="44.13191" lon="1.89501">
        <ele>247.6</ele>
        <time>2012-12-29T10:32:21.999Z</time>
      </trkpt>
      <trkpt lat="44.1319" lon="1.89505">
        <ele>247.6</ele>
        <time>2012-12-29T10:32:23.999Z</time>
      </trkpt>
      <trkpt lat="44.1319" lon="1.89508">
        <ele>247.5</ele>
        <time>2012-12-29T10:32:24.999Z</time>
      </trkpt>
      <trkpt lat="44.13189" lon="1.89513">
        <ele>247.5</ele>
        <time>2012-12-29T10:32:26.999Z</time>
      </trkpt>
      <trkpt lat="44.13189" lon="1.89515">
        <ele>247.4</ele>
        <time>2012-12-29T10:32:27.999Z</time>
      </trkpt>
      <trkpt lat="44.13188" lon="1.8952">
        <ele>247.5</ele>
        <time>2012-12-29T10:32:29.999Z</time>
      </trkpt>
      <trkpt lat="44.13187" lon="1.89522">
        <ele>247.5</ele>
        <time>2012-12-29T10:32:30.999Z</time>
      </trkpt>
      <trkpt lat="44.13185" lon="1.89527">
        <ele>247.7</ele>
        <time>2012-12-29T10:32:32.999Z</time>
      </trkpt>
      <trkpt lat="44.13184" lon="1.89529">
        <ele>247.7</ele>
        <time>2012-12-29T10:32:33.999Z</time>
      </trkpt>
      <trkpt lat="44.13183" lon="1.89533">
        <ele>247.9</ele>
        <time>2012-12-29T10:32:35.999Z</time>
      </trkpt>
      <trkpt lat="44.13182" lon="1.89536">
        <ele>248</ele>
        <time>2012-12-29T10:32:36.999Z</time>
      </trkpt>
      <trkpt lat="44.1318" lon="1.89539">
        <ele>248.1</ele>
        <time>2012-12-29T10:32:37.999Z</time>
      </trkpt>
      <trkpt lat="44.13179" lon="1.89541">
        <ele>248.3</ele>
        <time>2012-12-29T10:32:38.999Z</time>
      </trkpt>
      <trkpt lat="44.13177" lon="1.89545">
        <ele>248.6</ele>
        <time>2012-12-29T10:32:40.999Z</time>
      </trkpt>
      <trkpt lat="44.13177" lon="1.89547">
        <ele>248.7</ele>
        <time>2012-12-29T10:32:41.999Z</time>
      </trkpt>
      <trkpt lat="44.13174" lon="1.89552">
        <ele>249</ele>
        <time>2012-12-29T10:32:43.999Z</time>
      </trkpt>
      <trkpt lat="44.13173" lon="1.89554">
        <ele>249.1</ele>
        <time>2012-12-29T10:32:44.999Z</time>
      </trkpt>
      <trkpt lat="44.13171" lon="1.89557">
        <ele>249.3</ele>
        <time>2012-12-29T10:32:46.999Z</time>
      </trkpt>
      <trkpt lat="44.13169" lon="1.89559">
        <ele>249.4</ele>
        <time>2012-12-29T10:32:47.999Z</time>
      </trkpt>
      <trkpt lat="44.13167" lon="1.89564">
        <ele>249.6</ele>
        <time>2012-12-29T10:32:49.999Z</time>
      </trkpt>
      <trkpt lat="44.13166" lon="1.89566">
        <ele>249.7</ele>
        <time>2012-12-29T10:32:50.999Z</time>
      </trkpt>
      <trkpt lat="44.13163" lon="1.8957">
        <ele>250</ele>
        <time>2012-12-29T10:32:52.999Z</time>
      </trkpt>
      <trkpt lat="44.13162" lon="1.89572">
        <ele>250.1</ele>
        <time>2012-12-29T10:32:53.999Z</time>
      </trkpt>
      <trkpt lat="44.1316" lon="1.89576">
        <ele>250.3</ele>
        <time>2012-12-29T10:32:55.999Z</time>
      </trkpt>
      <trkpt lat="44.13158" lon="1.89579">
        <ele>250.4</ele>
        <time>2012-12-29T10:32:56.999Z</time>
      </trkpt>
      <trkpt lat="44.13156" lon="1.89583">
        <ele>250.6</ele>
        <time>2012-12-29T10:32:58.999Z</time>
      </trkpt>
      <trkpt lat="44.13155" lon="1.89585">
        <ele>250.7</ele>
        <time>2012-12-29T10:32:59.999Z</time>
      </trkpt>
      <trkpt lat="44.13153" lon="1.89589">
        <ele>250.9</ele>
        <time>2012-12-29T10:33:01.999Z</time>
      </trkpt>
      <trkpt lat="44.13152" lon="1.89591">
        <ele>251</ele>
        <time>2012-12-29T10:33:02.999Z</time>
      </trkpt>
      <trkpt lat="44.1315" lon="1.89595">
        <ele>251.3</ele>
        <time>2012-12-29T10:33:04.999Z</time>
      </trkpt>
      <trkpt lat="44.13149" lon="1.89597">
        <ele>251.4</ele>
        <time>2012-12-29T10:33:05.999Z</time>
      </trkpt>
      <trkpt lat="44.13147" lon="1.896">
        <ele>251.7</ele>
        <time>2012-12-29T10:33:07.999Z</time>
      </trkpt>
      <trkpt lat="44.13146" lon="1.89603">
        <ele>251.7</ele>
        <time>2012-12-29T10:33:08.999Z</time>
      </trkpt>
      <trkpt lat="44.13144" lon="1.89606">
        <ele>251.9</ele>
        <time>2012-12-29T10:33:10.999Z</time>
      </trkpt>
      <trkpt lat="44.13143" lon="1.89608">
        <ele>252.1</ele>
        <time>2012-12-29T10:33:11.999Z</time>
      </trkpt>
      <trkpt lat="44.13141" lon="1.89612">
        <ele>252.3</ele>
        <time>2012-12-29T10:33:13.999Z</time>
      </trkpt>
      <trkpt lat="44.1314" lon="1.89614">
        <ele>252.5</ele>
        <time>2012-12-29T10:33:14.999Z</time>
      </trkpt>
      <trkpt lat="44.13139" lon="1.89616">
        <ele>252.6</ele>
        <time>2012-12-29T10:33:15.999Z</time>
      </trkpt>
      <trkpt lat="44.13137" lon="1.89619">
        <ele>252.7</ele>
        <time>2012-12-29T10:33:16.999Z</time>
      </trkpt>
      <trkpt lat="44.13135" lon="1.89624">
        <ele>252.9</ele>
        <time>2012-12-29T10:33:18.999Z</time>
      </trkpt>
      <trkpt lat="44.13134" lon="1.89626">
        <ele>253.1</ele>
        <time>2012-12-29T10:33:19.999Z</time>
      </trkpt>
      <trkpt lat="44.13132" lon="1.8963">
        <ele>253.3</ele>
        <time>2012-12-29T10:33:21.999Z</time>
      </trkpt>
      <trkpt lat="44.13131" lon="1.89632">
        <ele>253.4</ele>
        <time>2012-12-29T10:33:22.999Z</time>
      </trkpt>
      <trkpt lat="44.13129" lon="1.89637">
        <ele>253.7</ele>
        <time>2012-12-29T10:33:24.999Z</time>
      </trkpt>
      <trkpt lat="44.13128" lon="1.89639">
        <ele>253.8</ele>
        <time>2012-12-29T10:33:25.999Z</time>
      </trkpt>
      <trkpt lat="44.13126" lon="1.89644">
        <ele>253.9</ele>
        <time>2012-12-29T10:33:27.999Z</time>
      </trkpt>
      <trkpt lat="44.13125" lon="1.89646">
        <ele>254</ele>
        <time>2012-12-29T10:33:28.999Z</time>
      </trkpt>
      <trkpt lat="44.13123" lon="1.89651">
        <ele>254</ele>
        <time>2012-12-29T10:33:30.999Z</time>
      </trkpt>
      <trkpt lat="44.13123" lon="1.89653">
        <ele>254</ele>
        <time>2012-12-29T10:33:31.999Z</time>
      </trkpt>
      <trkpt lat="44.13121" lon="1.89657">
        <ele>254.1</ele>
        <time>2012-12-29T10:33:33.999Z</time>
      </trkpt>
      <trkpt lat="44.13121" lon="1.89659">
        <ele>254.2</ele>
        <time>2012-12-29T10:33:34.999Z</time>
      </trkpt>
      <trkpt lat="44.1312" lon="1.89662">
        <ele>254.2</ele>
        <time>2012-12-29T10:33:35.999Z</time>
      </trkpt>
      <trkpt lat="44.13119" lon="1.89665">
        <ele>254.2</ele>
        <time>2012-12-29T10:33:36.999Z</time>
      </trkpt>
      <trkpt lat="44.13118" lon="1.89668">
        <ele>254.2</ele>
        <time>2012-12-29T10:33:37.999Z</time>
      </trkpt>
      <trkpt lat="44.13117" lon="1.89671">
        <ele>254.3</ele>
        <time>2012-12-29T10:33:38.999Z</time>
      </trkpt>
      <trkpt lat="44.13116" lon="1.89675">
        <ele>254.4</ele>
        <time>2012-12-29T10:33:39.999Z</time>
      </trkpt>
      <trkpt lat="44.13115" lon="1.89678">
        <ele>254.5</ele>
        <time>2012-12-29T10:33:40.999Z</time>
      </trkpt>
      <trkpt lat="44.13114" lon="1.89681">
        <ele>254.6</ele>
        <time>2012-12-29T10:33:41.999Z</time>
      </trkpt>
      <trkpt lat="44.13112" lon="1.89684">
        <ele>254.7</ele>
        <time>2012-12-29T10:33:42.999Z</time>
      </trkpt>
      <trkpt lat="44.1311" lon="1.8969">
        <ele>254.9</ele>
        <time>2012-12-29T10:33:44.999Z</time>
      </trkpt>
      <trkpt lat="44.1311" lon="1.89692">
        <ele>255</ele>
        <time>2012-12-29T10:33:45.999Z</time>
      </trkpt>
      <trkpt lat="44.13108" lon="1.89696">
        <ele>255.2</ele>
        <time>2012-12-29T10:33:47.999Z</time>
      </trkpt>
      <trkpt lat="44.13108" lon="1.89699">
        <ele>255.3</ele>
        <time>2012-12-29T10:33:48.999Z</time>
      </trkpt>
      <trkpt lat="44.13106" lon="1.89704">
        <ele>255.4</ele>
        <time>2012-12-29T10:33:50.999Z</time>
      </trkpt>
      <trkpt lat="44.13105" lon="1.89707">
        <ele>255.5</ele>
        <time>2012-12-29T10:33:51.999Z</time>
      </trkpt>
      <trkpt lat="44.13103" lon="1.8971">
        <ele>255.5</ele>
        <time>2012-12-29T10:33:52.999Z</time>
      </trkpt>
      <trkpt lat="44.13102" lon="1.89712">
        <ele>255.6</ele>
        <time>2012-12-29T10:33:53.999Z</time>
      </trkpt>
      <trkpt lat="44.131" lon="1.89717">
        <ele>255.6</ele>
        <time>2012-12-29T10:33:55.999Z</time>
      </trkpt>
      <trkpt lat="44.13099" lon="1.8972">
        <ele>255.7</ele>
        <time>2012-12-29T10:33:56.999Z</time>
      </trkpt>
      <trkpt lat="44.13097" lon="1.89724">
        <ele>255.8</ele>
        <time>2012-12-29T10:33:58.999Z</time>
      </trkpt>
      <trkpt lat="44.13096" lon="1.89727">
        <ele>255.9</ele>
        <time>2012-12-29T10:33:59.999Z</time>
      </trkpt>
      <trkpt lat="44.13093" lon="1.89731">
        <ele>256.1</ele>
        <time>2012-12-29T10:34:01.999Z</time>
      </trkpt>
      <trkpt lat="44.13092" lon="1.89733">
        <ele>256.2</ele>
        <time>2012-12-29T10:34:02.999Z</time>
      </trkpt>
      <trkpt lat="44.1309" lon="1.89738">
        <ele>256.4</ele>
        <time>2012-12-29T10:34:04.999Z</time>
      </trkpt>
      <trkpt lat="44.13089" lon="1.8974">
        <ele>256.6</ele>
        <time>2012-12-29T10:34:05.999Z</time>
      </trkpt>
      <trkpt lat="44.13086" lon="1.89745">
        <ele>256.9</ele>
        <time>2012-12-29T10:34:07.999Z</time>
      </trkpt>
      <trkpt lat="44.13085" lon="1.89747">
        <ele>257</ele>
        <time>2012-12-29T10:34:08.999Z</time>
      </trkpt>
      <trkpt lat="44.13083" lon="1.89752">
        <ele>257.2</ele>
        <time>2012-12-29T10:34:10.999Z</time>
      </trkpt>
      <trkpt lat="44.13081" lon="1.89754">
        <ele>257.2</ele>
        <time>2012-12-29T10:34:11.999Z</time>
      </trkpt>
      <trkpt lat="44.13079" lon="1.89758">
        <ele>257.4</ele>
        <time>2012-12-29T10:34:13.999Z</time>
      </trkpt>
      <trkpt lat="44.13078" lon="1.8976">
        <ele>257.5</ele>
        <time>2012-12-29T10:34:14.999Z</time>
      </trkpt>
      <trkpt lat="44.13075" lon="1.89764">
        <ele>257.7</ele>
        <time>2012-12-29T10:34:16.999Z</time>
      </trkpt>
      <trkpt lat="44.13073" lon="1.89767">
        <ele>257.8</ele>
        <time>2012-12-29T10:34:17.999Z</time>
      </trkpt>
      <trkpt lat="44.13072" lon="1.8977">
        <ele>257.9</ele>
        <time>2012-12-29T10:34:18.999Z</time>
      </trkpt>
      <trkpt lat="44.1307" lon="1.89772">
        <ele>258</ele>
        <time>2012-12-29T10:34:19.999Z</time>
      </trkpt>
      <trkpt lat="44.13068" lon="1.89776">
        <ele>258.2</ele>
        <time>2012-12-29T10:34:21.999Z</time>
      </trkpt>
      <trkpt lat="44.13067" lon="1.89778">
        <ele>258.3</ele>
        <time>2012-12-29T10:34:22.999Z</time>
      </trkpt>
      <trkpt lat="44.13064" lon="1.89782">
        <ele>258.5</ele>
        <time>2012-12-29T10:34:24.999Z</time>
      </trkpt>
      <trkpt lat="44.13063" lon="1.89784">
        <ele>258.6</ele>
        <time>2012-12-29T10:34:25.999Z</time>
      </trkpt>
      <trkpt lat="44.13061" lon="1.89788">
        <ele>258.7</ele>
        <time>2012-12-29T10:34:27.999Z</time>
      </trkpt>
      <trkpt lat="44.13059" lon="1.8979">
        <ele>258.8</ele>
        <time>2012-12-29T10:34:28.999Z</time>
      </trkpt>
      <trkpt lat="44.13057" lon="1.89795">
        <ele>258.9</ele>
        <time>2012-12-29T10:34:30.999Z</time>
      </trkpt>
      <trkpt lat="44.13056" lon="1.89796">
        <ele>258.9</ele>
        <time>2012-12-29T10:34:31.999Z</time>
      </trkpt>
      <trkpt lat="44.13054" lon="1.89801">
        <ele>259.1</ele>
        <time>2012-12-29T10:34:33.999Z</time>
      </trkpt>
      <trkpt lat="44.13053" lon="1.89803">
        <ele>259.1</ele>
        <time>2012-12-29T10:34:34.999Z</time>
      </trkpt>
      <trkpt lat="44.13051" lon="1.89808">
        <ele>259.2</ele>
        <time>2012-12-29T10:34:36.999Z</time>
      </trkpt>
      <trkpt lat="44.13051" lon="1.8981">
        <ele>259.3</ele>
        <time>2012-12-29T10:34:37.999Z</time>
      </trkpt>
      <trkpt lat="44.1305" lon="1.89815">
        <ele>259.5</ele>
        <time>2012-12-29T10:34:39.999Z</time>
      </trkpt>
      <trkpt lat="44.1305" lon="1.89817">
        <ele>259.6</ele>
        <time>2012-12-29T10:34:40.999Z</time>
      </trkpt>
      <trkpt lat="44.13049" lon="1.89822">
        <ele>259.8</ele>
        <time>2012-12-29T10:34:43.999Z</time>
      </trkpt>
      <trkpt lat="44.13048" lon="1.89826">
        <ele>259.9</ele>
        <time>2012-12-29T10:34:44.999Z</time>
      </trkpt>
      <trkpt lat="44.13047" lon="1.89829">
        <ele>260</ele>
        <time>2012-12-29T10:34:45.999Z</time>
      </trkpt>
      <trkpt lat="44.13046" lon="1.89832">
        <ele>260.1</ele>
        <time>2012-12-29T10:34:46.999Z</time>
      </trkpt>
      <trkpt lat="44.13046" lon="1.89835">
        <ele>260.3</ele>
        <time>2012-12-29T10:34:47.999Z</time>
      </trkpt>
      <trkpt lat="44.13045" lon="1.89838">
        <ele>260.4</ele>
        <time>2012-12-29T10:34:48.999Z</time>
      </trkpt>
      <trkpt lat="44.13044" lon="1.89841">
        <ele>260.6</ele>
        <time>2012-12-29T10:34:49.999Z</time>
      </trkpt>
      <trkpt lat="44.13043" lon="1.89844">
        <ele>260.8</ele>
        <time>2012-12-29T10:34:50.999Z</time>
      </trkpt>
      <trkpt lat="44.13042" lon="1.89849">
        <ele>261.1</ele>
        <time>2012-12-29T10:34:52.999Z</time>
      </trkpt>
      <trkpt lat="44.13041" lon="1.89851">
        <ele>261.3</ele>
        <time>2012-12-29T10:34:53.999Z</time>
      </trkpt>
      <trkpt lat="44.13039" lon="1.89856">
        <ele>261.6</ele>
        <time>2012-12-29T10:34:55.999Z</time>
      </trkpt>
      <trkpt lat="44.13039" lon="1.89858">
        <ele>261.8</ele>
        <time>2012-12-29T10:34:56.999Z</time>
      </trkpt>
      <trkpt lat="44.13037" lon="1.89863">
        <ele>262</ele>
        <time>2012-12-29T10:34:58.999Z</time>
      </trkpt>
      <trkpt lat="44.13036" lon="1.89866">
        <ele>262.1</ele>
        <time>2012-12-29T10:34:59.999Z</time>
      </trkpt>
      <trkpt lat="44.13034" lon="1.89871">
        <ele>262.2</ele>
        <time>2012-12-29T10:35:01.999Z</time>
      </trkpt>
      <trkpt lat="44.13033" lon="1.89873">
        <ele>262.3</ele>
        <time>2012-12-29T10:35:02.999Z</time>
      </trkpt>
      <trkpt lat="44.13032" lon="1.89878">
        <ele>262.4</ele>
        <time>2012-12-29T10:35:04.999Z</time>
      </trkpt>
      <trkpt lat="44.13031" lon="1.8988">
        <ele>262.5</ele>
        <time>2012-12-29T10:35:05.999Z</time>
      </trkpt>
      <trkpt lat="44.1303" lon="1.89883">
        <ele>262.5</ele>
        <time>2012-12-29T10:35:06.999Z</time>
      </trkpt>
      <trkpt lat="44.13028" lon="1.89886">
        <ele>262.6</ele>
        <time>2012-12-29T10:35:07.999Z</time>
      </trkpt>
      <trkpt lat="44.13027" lon="1.89891">
        <ele>262.7</ele>
        <time>2012-12-29T10:35:09.999Z</time>
      </trkpt>
      <trkpt lat="44.13026" lon="1.89893">
        <ele>262.8</ele>
        <time>2012-12-29T10:35:10.999Z</time>
      </trkpt>
      <trkpt lat="44.13024" lon="1.89898">
        <ele>263.1</ele>
        <time>2012-12-29T10:35:12.999Z</time>
      </trkpt>
      <trkpt lat="44.13023" lon="1.899">
        <ele>263.3</ele>
        <time>2012-12-29T10:35:13.999Z</time>
      </trkpt>
      <trkpt lat="44.1302" lon="1.89905">
        <ele>263.5</ele>
        <time>2012-12-29T10:35:15.999Z</time>
      </trkpt>
      <trkpt lat="44.13018" lon="1.89907">
        <ele>263.6</ele>
        <time>2012-12-29T10:35:16.999Z</time>
      </trkpt>
      <trkpt lat="44.13017" lon="1.89909">
        <ele>263.6</ele>
        <time>2012-12-29T10:35:17.999Z</time>
      </trkpt>
      <trkpt lat="44.13015" lon="1.89912">
        <ele>263.7</ele>
        <time>2012-12-29T10:35:18.999Z</time>
      </trkpt>
      <trkpt lat="44.13012" lon="1.89916">
        <ele>263.8</ele>
        <time>2012-12-29T10:35:20.999Z</time>
      </trkpt>
      <trkpt lat="44.1301" lon="1.89918">
        <ele>263.8</ele>
        <time>2012-12-29T10:35:21.999Z</time>
      </trkpt>
      <trkpt lat="44.13006" lon="1.89922">
        <ele>263.9</ele>
        <time>2012-12-29T10:35:23.999Z</time>
      </trkpt>
      <trkpt lat="44.13005" lon="1.89924">
        <ele>264</ele>
        <time>2012-12-29T10:35:24.999Z</time>
      </trkpt>
      <trkpt lat="44.13001" lon="1.89928">
        <ele>264.1</ele>
        <time>2012-12-29T10:35:26.999Z</time>
      </trkpt>
      <trkpt lat="44.13" lon="1.8993">
        <ele>264.1</ele>
        <time>2012-12-29T10:35:27.999Z</time>
      </trkpt>
      <trkpt lat="44.12999" lon="1.89932">
        <ele>264.2</ele>
        <time>2012-12-29T10:35:28.999Z</time>
      </trkpt>
      <trkpt lat="44.12997" lon="1.89935">
        <ele>264.2</ele>
        <time>2012-12-29T10:35:29.999Z</time>
      </trkpt>
      <trkpt lat="44.12995" lon="1.89937">
        <ele>264.3</ele>
        <time>2012-12-29T10:35:30.999Z</time>
      </trkpt>
      <trkpt lat="44.12993" lon="1.89939">
        <ele>264.3</ele>
        <time>2012-12-29T10:35:31.999Z</time>
      </trkpt>
      <trkpt lat="44.1299" lon="1.89943">
        <ele>264.5</ele>
        <time>2012-12-29T10:35:33.999Z</time>
      </trkpt>
      <trkpt lat="44.12988" lon="1.89945">
        <ele>264.6</ele>
        <time>2012-12-29T10:35:34.999Z</time>
      </trkpt>
      <trkpt lat="44.12987" lon="1.89947">
        <ele>264.6</ele>
        <time>2012-12-29T10:35:35.999Z</time>
      </trkpt>
      <trkpt lat="44.12985" lon="1.89949">
        <ele>264.6</ele>
        <time>2012-12-29T10:35:36.999Z</time>
      </trkpt>
      <trkpt lat="44.12983" lon="1.89951">
        <ele>264.7</ele>
        <time>2012-12-29T10:35:37.999Z</time>
      </trkpt>
      <trkpt lat="44.12981" lon="1.89953">
        <ele>264.7</ele>
        <time>2012-12-29T10:35:38.999Z</time>
      </trkpt>
      <trkpt lat="44.12978" lon="1.89956">
        <ele>264.8</ele>
        <time>2012-12-29T10:35:39.999Z</time>
      </trkpt>
      <trkpt lat="44.12976" lon="1.89959">
        <ele>264.8</ele>
        <time>2012-12-29T10:35:40.999Z</time>
      </trkpt>
      <trkpt lat="44.12974" lon="1.89962">
        <ele>264.8</ele>
        <time>2012-12-29T10:35:41.999Z</time>
      </trkpt>
      <trkpt lat="44.12972" lon="1.89964">
        <ele>264.8</ele>
        <time>2012-12-29T10:35:42.999Z</time>
      </trkpt>
      <trkpt lat="44.1297" lon="1.89967">
        <ele>264.8</ele>
        <time>2012-12-29T10:35:43.999Z</time>
      </trkpt>
      <trkpt lat="44.12967" lon="1.8997">
        <ele>264.9</ele>
        <time>2012-12-29T10:35:44.999Z</time>
      </trkpt>
      <trkpt lat="44.12965" lon="1.89972">
        <ele>264.9</ele>
        <time>2012-12-29T10:35:45.999Z</time>
      </trkpt>
      <trkpt lat="44.12964" lon="1.89974">
        <ele>264.9</ele>
        <time>2012-12-29T10:35:46.999Z</time>
      </trkpt>
      <trkpt lat="44.12961" lon="1.89977">
        <ele>264.9</ele>
        <time>2012-12-29T10:35:47.999Z</time>
      </trkpt>
      <trkpt lat="44.12959" lon="1.89979">
        <ele>264.9</ele>
        <time>2012-12-29T10:35:48.999Z</time>
      </trkpt>
      <trkpt lat="44.12957" lon="1.89981">
        <ele>265</ele>
        <time>2012-12-29T10:35:49.999Z</time>
      </trkpt>
      <trkpt lat="44.12956" lon="1.89983">
        <ele>265</ele>
        <time>2012-12-29T10:35:50.999Z</time>
      </trkpt>
      <trkpt lat="44.12954" lon="1.89986">
        <ele>265.1</ele>
        <time>2012-12-29T10:35:51.999Z</time>
      </trkpt>
      <trkpt lat="44.12952" lon="1.89989">
        <ele>265.1</ele>
        <time>2012-12-29T10:35:52.999Z</time>
      </trkpt>
      <trkpt lat="44.1295" lon="1.89991">
        <ele>265.1</ele>
        <time>2012-12-29T10:35:53.999Z</time>
      </trkpt>
      <trkpt lat="44.12948" lon="1.89994">
        <ele>265.1</ele>
        <time>2012-12-29T10:35:54.999Z</time>
      </trkpt>
      <trkpt lat="44.12946" lon="1.89996">
        <ele>265.2</ele>
        <time>2012-12-29T10:35:55.999Z</time>
      </trkpt>
      <trkpt lat="44.12944" lon="1.89999">
        <ele>265.3</ele>
        <time>2012-12-29T10:35:56.999Z</time>
      </trkpt>
      <trkpt lat="44.12941" lon="1.90002">
        <ele>265.3</ele>
        <time>2012-12-29T10:35:57.999Z</time>
      </trkpt>
      <trkpt lat="44.1294" lon="1.90005">
        <ele>265.3</ele>
        <time>2012-12-29T10:35:58.999Z</time>
      </trkpt>
      <trkpt lat="44.12938" lon="1.90007">
        <ele>265.4</ele>
        <time>2012-12-29T10:35:59.999Z</time>
      </trkpt>
      <trkpt lat="44.12936" lon="1.9001">
        <ele>265.4</ele>
        <time>2012-12-29T10:36:00.999Z</time>
      </trkpt>
      <trkpt lat="44.12934" lon="1.90012">
        <ele>265.5</ele>
        <time>2012-12-29T10:36:01.999Z</time>
      </trkpt>
      <trkpt lat="44.12932" lon="1.90014">
        <ele>265.6</ele>
        <time>2012-12-29T10:36:02.999Z</time>
      </trkpt>
      <trkpt lat="44.1293" lon="1.90016">
        <ele>265.6</ele>
        <time>2012-12-29T10:36:03.999Z</time>
      </trkpt>
      <trkpt lat="44.12927" lon="1.90018">
        <ele>265.8</ele>
        <time>2012-12-29T10:36:04.999Z</time>
      </trkpt>
      <trkpt lat="44.12925" lon="1.9002">
        <ele>265.9</ele>
        <time>2012-12-29T10:36:05.999Z</time>
      </trkpt>
      <trkpt lat="44.12922" lon="1.90022">
        <ele>266</ele>
        <time>2012-12-29T10:36:06.999Z</time>
      </trkpt>
      <trkpt lat="44.12919" lon="1.90025">
        <ele>266</ele>
        <time>2012-12-29T10:36:07.999Z</time>
      </trkpt>
      <trkpt lat="44.12916" lon="1.90027">
        <ele>266.1</ele>
        <time>2012-12-29T10:36:08.999Z</time>
      </trkpt>
      <trkpt lat="44.12914" lon="1.9003">
        <ele>266.2</ele>
        <time>2012-12-29T10:36:09.999Z</time>
      </trkpt>
      <trkpt lat="44.12912" lon="1.90033">
        <ele>266.2</ele>
        <time>2012-12-29T10:36:10.999Z</time>
      </trkpt>
      <trkpt lat="44.1291" lon="1.90036">
        <ele>266.3</ele>
        <time>2012-12-29T10:36:11.999Z</time>
      </trkpt>
      <trkpt lat="44.12907" lon="1.90038">
        <ele>266.3</ele>
        <time>2012-12-29T10:36:12.999Z</time>
      </trkpt>
      <trkpt lat="44.12904" lon="1.90041">
        <ele>266.4</ele>
        <time>2012-12-29T10:36:13.999Z</time>
      </trkpt>
      <trkpt lat="44.12902" lon="1.90044">
        <ele>266.5</ele>
        <time>2012-12-29T10:36:14.999Z</time>
      </trkpt>
      <trkpt lat="44.12899" lon="1.90046">
        <ele>266.6</ele>
        <time>2012-12-29T10:36:15.999Z</time>
      </trkpt>
      <trkpt lat="44.12897" lon="1.90049">
        <ele>266.6</ele>
        <time>2012-12-29T10:36:16.999Z</time>
      </trkpt>
      <trkpt lat="44.12894" lon="1.90051">
        <ele>266.6</ele>
        <time>2012-12-29T10:36:17.999Z</time>
      </trkpt>
      <trkpt lat="44.12892" lon="1.90054">
        <ele>266.7</ele>
        <time>2012-12-29T10:36:18.999Z</time>
      </trkpt>
      <trkpt lat="44.12889" lon="1.90057">
        <ele>266.7</ele>
        <time>2012-12-29T10:36:19.999Z</time>
      </trkpt>
      <trkpt lat="44.12887" lon="1.90059">
        <ele>266.8</ele>
        <time>2012-12-29T10:36:20.999Z</time>
      </trkpt>
      <trkpt lat="44.12883" lon="1.90063">
        <ele>267</ele>
        <time>2012-12-29T10:36:22.999Z</time>
      </trkpt>
      <trkpt lat="44.12881" lon="1.90065">
        <ele>267.1</ele>
        <time>2012-12-29T10:36:23.999Z</time>
      </trkpt>
      <trkpt lat="44.12879" lon="1.90067">
        <ele>267.2</ele>
        <time>2012-12-29T10:36:24.999Z</time>
      </trkpt>
      <trkpt lat="44.12877" lon="1.9007">
        <ele>267.3</ele>
        <time>2012-12-29T10:36:25.999Z</time>
      </trkpt>
      <trkpt lat="44.12875" lon="1.90072">
        <ele>267.4</ele>
        <time>2012-12-29T10:36:26.999Z</time>
      </trkpt>
      <trkpt lat="44.12873" lon="1.90074">
        <ele>267.5</ele>
        <time>2012-12-29T10:36:27.999Z</time>
      </trkpt>
      <trkpt lat="44.12871" lon="1.90076">
        <ele>267.6</ele>
        <time>2012-12-29T10:36:28.999Z</time>
      </trkpt>
      <trkpt lat="44.1287" lon="1.90078">
        <ele>267.7</ele>
        <time>2012-12-29T10:36:29.999Z</time>
      </trkpt>
      <trkpt lat="44.12866" lon="1.90078">
        <ele>268.9</ele>
        <time>2012-12-29T10:36:46.999Z</time>
      </trkpt>
      <trkpt lat="44.12865" lon="1.9008">
        <ele>269</ele>
        <time>2012-12-29T10:36:47.999Z</time>
      </trkpt>
      <trkpt lat="44.12862" lon="1.90082">
        <ele>269.1</ele>
        <time>2012-12-29T10:36:48.999Z</time>
      </trkpt>
      <trkpt lat="44.1286" lon="1.90084">
        <ele>269.1</ele>
        <time>2012-12-29T10:36:49.999Z</time>
      </trkpt>
      <trkpt lat="44.12857" lon="1.90087">
        <ele>269</ele>
        <time>2012-12-29T10:36:50.999Z</time>
      </trkpt>
      <trkpt lat="44.12854" lon="1.90089">
        <ele>269</ele>
        <time>2012-12-29T10:36:51.999Z</time>
      </trkpt>
      <trkpt lat="44.12852" lon="1.90091">
        <ele>269.1</ele>
        <time>2012-12-29T10:36:52.999Z</time>
      </trkpt>
      <trkpt lat="44.12849" lon="1.90094">
        <ele>269.1</ele>
        <time>2012-12-29T10:36:53.999Z</time>
      </trkpt>
      <trkpt lat="44.12846" lon="1.90097">
        <ele>269</ele>
        <time>2012-12-29T10:36:54.999Z</time>
      </trkpt>
      <trkpt lat="44.12842" lon="1.901">
        <ele>269</ele>
        <time>2012-12-29T10:36:55.999Z</time>
      </trkpt>
      <trkpt lat="44.12839" lon="1.90102">
        <ele>269</ele>
        <time>2012-12-29T10:36:56.999Z</time>
      </trkpt>
      <trkpt lat="44.12836" lon="1.90104">
        <ele>269.2</ele>
        <time>2012-12-29T10:36:57.999Z</time>
      </trkpt>
      <trkpt lat="44.12834" lon="1.90105">
        <ele>269.3</ele>
        <time>2012-12-29T10:36:58.999Z</time>
      </trkpt>
      <trkpt lat="44.12831" lon="1.90106">
        <ele>269.4</ele>
        <time>2012-12-29T10:36:59.999Z</time>
      </trkpt>
      <trkpt lat="44.12827" lon="1.90107">
        <ele>269.6</ele>
        <time>2012-12-29T10:37:02.999Z</time>
      </trkpt>
      <trkpt lat="44.12827" lon="1.90107">
        <ele>269.6</ele>
        <time>2012-12-29T10:37:03.999Z</time>
      </trkpt>
      <trkpt lat="44.12829" lon="1.90109">
        <ele>269.9</ele>
        <time>2012-12-29T10:37:08.999Z</time>
      </trkpt>
      <trkpt lat="44.12831" lon="1.9011">
        <ele>269.9</ele>
        <time>2012-12-29T10:37:09.999Z</time>
      </trkpt>
      <trkpt lat="44.12833" lon="1.90111">
        <ele>269.9</ele>
        <time>2012-12-29T10:37:10.999Z</time>
      </trkpt>
      <trkpt lat="44.12835" lon="1.90113">
        <ele>269.9</ele>
        <time>2012-12-29T10:37:11.999Z</time>
      </trkpt>
      <trkpt lat="44.12839" lon="1.90115">
        <ele>269.9</ele>
        <time>2012-12-29T10:37:13.999Z</time>
      </trkpt>
      <trkpt lat="44.12841" lon="1.90116">
        <ele>270</ele>
        <time>2012-12-29T10:37:14.999Z</time>
      </trkpt>
      <trkpt lat="44.12845" lon="1.9012">
        <ele>270.3</ele>
        <time>2012-12-29T10:37:19.999Z</time>
      </trkpt>
      <trkpt lat="44.12845" lon="1.90121">
        <ele>270.4</ele>
        <time>2012-12-29T10:37:20.999Z</time>
      </trkpt>
      <trkpt lat="44.12842" lon="1.90116">
        <ele>272.6</ele>
        <time>2012-12-29T10:38:18.999Z</time>
      </trkpt>
      <trkpt lat="44.12842" lon="1.90116">
        <ele>272.8</ele>
        <time>2012-12-29T10:38:19.999Z</time>
      </trkpt>
      <trkpt lat="44.12844" lon="1.90121">
        <ele>273.6</ele>
        <time>2012-12-29T10:38:47.999Z</time>
      </trkpt>
      <trkpt lat="44.12844" lon="1.90122">
        <ele>273.6</ele>
        <time>2012-12-29T10:38:48.999Z</time>
      </trkpt>
      <trkpt lat="44.12842" lon="1.90117">
        <ele>273.7</ele>
        <time>2012-12-29T10:38:57.999Z</time>
      </trkpt>
      <trkpt lat="44.12841" lon="1.90116">
        <ele>273.8</ele>
        <time>2012-12-29T10:38:58.999Z</time>
      </trkpt>
      <trkpt lat="44.12838" lon="1.90114">
        <ele>273.9</ele>
        <time>2012-12-29T10:39:08.999Z</time>
      </trkpt>
      <trkpt lat="44.12837" lon="1.90114">
        <ele>273.9</ele>
        <time>2012-12-29T10:39:09.999Z</time>
      </trkpt>
      <trkpt lat="44.12833" lon="1.90112">
        <ele>273.8</ele>
        <time>2012-12-29T10:39:13.999Z</time>
      </trkpt>
      <trkpt lat="44.12832" lon="1.90112">
        <ele>273.8</ele>
        <time>2012-12-29T10:39:14.999Z</time>
      </trkpt>
      <trkpt lat="44.12828" lon="1.90112">
        <ele>273.7</ele>
        <time>2012-12-29T10:39:16.999Z</time>
      </trkpt>
      <trkpt lat="44.12827" lon="1.90112">
        <ele>273.7</ele>
        <time>2012-12-29T10:39:17.999Z</time>
      </trkpt>
      <trkpt lat="44.12823" lon="1.90112">
        <ele>273.8</ele>
        <time>2012-12-29T10:39:19.999Z</time>
      </trkpt>
      <trkpt lat="44.12821" lon="1.90112">
        <ele>273.8</ele>
        <time>2012-12-29T10:39:20.999Z</time>
      </trkpt>
      <trkpt lat="44.12817" lon="1.90112">
        <ele>273.8</ele>
        <time>2012-12-29T10:39:22.999Z</time>
      </trkpt>
      <trkpt lat="44.12815" lon="1.90112">
        <ele>273.8</ele>
        <time>2012-12-29T10:39:23.999Z</time>
      </trkpt>
      <trkpt lat="44.12812" lon="1.90112">
        <ele>273.8</ele>
        <time>2012-12-29T10:39:25.999Z</time>
      </trkpt>
      <trkpt lat="44.12811" lon="1.90111">
        <ele>273.8</ele>
        <time>2012-12-29T10:39:26.999Z</time>
      </trkpt>
      <trkpt lat="44.12807" lon="1.9011">
        <ele>273.9</ele>
        <time>2012-12-29T10:39:29.999Z</time>
      </trkpt>
      <trkpt lat="44.12805" lon="1.9011">
        <ele>273.9</ele>
        <time>2012-12-29T10:39:30.999Z</time>
      </trkpt>
      <trkpt lat="44.12801" lon="1.9011">
        <ele>274</ele>
        <time>2012-12-29T10:39:32.999Z</time>
      </trkpt>
      <trkpt lat="44.12799" lon="1.9011">
        <ele>274.1</ele>
        <time>2012-12-29T10:39:33.999Z</time>
      </trkpt>
      <trkpt lat="44.12796" lon="1.90111">
        <ele>274.2</ele>
        <time>2012-12-29T10:39:35.999Z</time>
      </trkpt>
      <trkpt lat="44.12794" lon="1.90112">
        <ele>274.4</ele>
        <time>2012-12-29T10:39:36.999Z</time>
      </trkpt>
      <trkpt lat="44.1279" lon="1.90114">
        <ele>274.6</ele>
        <time>2012-12-29T10:39:38.999Z</time>
      </trkpt>
      <trkpt lat="44.12787" lon="1.90115">
        <ele>274.6</ele>
        <time>2012-12-29T10:39:39.999Z</time>
      </trkpt>
      <trkpt lat="44.12784" lon="1.90115">
        <ele>274.7</ele>
        <time>2012-12-29T10:39:41.999Z</time>
      </trkpt>
      <trkpt lat="44.12782" lon="1.90116">
        <ele>274.8</ele>
        <time>2012-12-29T10:39:42.999Z</time>
      </trkpt>
      <trkpt lat="44.12779" lon="1.90118">
        <ele>275</ele>
        <time>2012-12-29T10:39:44.999Z</time>
      </trkpt>
      <trkpt lat="44.12776" lon="1.90119">
        <ele>275.2</ele>
        <time>2012-12-29T10:39:45.999Z</time>
      </trkpt>
      <trkpt lat="44.12773" lon="1.9012">
        <ele>275.6</ele>
        <time>2012-12-29T10:39:47.999Z</time>
      </trkpt>
      <trkpt lat="44.12771" lon="1.9012">
        <ele>275.8</ele>
        <time>2012-12-29T10:39:48.999Z</time>
      </trkpt>
      <trkpt lat="44.12767" lon="1.90121">
        <ele>276.1</ele>
        <time>2012-12-29T10:39:50.999Z</time>
      </trkpt>
      <trkpt lat="44.12765" lon="1.90121">
        <ele>276.2</ele>
        <time>2012-12-29T10:39:51.999Z</time>
      </trkpt>
      <trkpt lat="44.12761" lon="1.9012">
        <ele>276.7</ele>
        <time>2012-12-29T10:39:54.999Z</time>
      </trkpt>
      <trkpt lat="44.1276" lon="1.9012">
        <ele>276.9</ele>
        <time>2012-12-29T10:39:55.999Z</time>
      </trkpt>
      <trkpt lat="44.12756" lon="1.90121">
        <ele>277.3</ele>
        <time>2012-12-29T10:39:57.999Z</time>
      </trkpt>
      <trkpt lat="44.12755" lon="1.90121">
        <ele>277.5</ele>
        <time>2012-12-29T10:39:58.999Z</time>
      </trkpt>
      <trkpt lat="44.12751" lon="1.90121">
        <ele>278.1</ele>
        <time>2012-12-29T10:40:01.999Z</time>
      </trkpt>
      <trkpt lat="44.1275" lon="1.90121">
        <ele>278.3</ele>
        <time>2012-12-29T10:40:02.999Z</time>
      </trkpt>
      <trkpt lat="44.12747" lon="1.90121">
        <ele>278.6</ele>
        <time>2012-12-29T10:40:04.999Z</time>
      </trkpt>
      <trkpt lat="44.12745" lon="1.90121">
        <ele>278.8</ele>
        <time>2012-12-29T10:40:05.999Z</time>
      </trkpt>
      <trkpt lat="44.12742" lon="1.90121">
        <ele>279.2</ele>
        <time>2012-12-29T10:40:08.999Z</time>
      </trkpt>
      <trkpt lat="44.1274" lon="1.90121">
        <ele>279.4</ele>
        <time>2012-12-29T10:40:09.999Z</time>
      </trkpt>
      <trkpt lat="44.12736" lon="1.90121">
        <ele>279.8</ele>
        <time>2012-12-29T10:40:12.999Z</time>
      </trkpt>
      <trkpt lat="44.12734" lon="1.90121">
        <ele>279.9</ele>
        <time>2012-12-29T10:40:13.999Z</time>
      </trkpt>
      <trkpt lat="44.12731" lon="1.9012">
        <ele>280.2</ele>
        <time>2012-12-29T10:40:15.999Z</time>
      </trkpt>
      <trkpt lat="44.1273" lon="1.9012">
        <ele>280.3</ele>
        <time>2012-12-29T10:40:16.999Z</time>
      </trkpt>
      <trkpt lat="44.12726" lon="1.9012">
        <ele>280.7</ele>
        <time>2012-12-29T10:40:19.999Z</time>
      </trkpt>
      <trkpt lat="44.12725" lon="1.9012">
        <ele>280.8</ele>
        <time>2012-12-29T10:40:20.999Z</time>
      </trkpt>
      <trkpt lat="44.12721" lon="1.9012">
        <ele>281.1</ele>
        <time>2012-12-29T10:40:22.999Z</time>
      </trkpt>
      <trkpt lat="44.1272" lon="1.9012">
        <ele>281.3</ele>
        <time>2012-12-29T10:40:23.999Z</time>
      </trkpt>
      <trkpt lat="44.12716" lon="1.9012">
        <ele>281.7</ele>
        <time>2012-12-29T10:40:26.999Z</time>
      </trkpt>
      <trkpt lat="44.12715" lon="1.9012">
        <ele>281.8</ele>
        <time>2012-12-29T10:40:27.999Z</time>
      </trkpt>
      <trkpt lat="44.12711" lon="1.90121">
        <ele>282.4</ele>
        <time>2012-12-29T10:40:31.999Z</time>
      </trkpt>
      <trkpt lat="44.1271" lon="1.90121">
        <ele>282.5</ele>
        <time>2012-12-29T10:40:32.999Z</time>
      </trkpt>
      <trkpt lat="44.12705" lon="1.9012">
        <ele>283</ele>
        <time>2012-12-29T10:40:35.999Z</time>
      </trkpt>
      <trkpt lat="44.12704" lon="1.9012">
        <ele>283.1</ele>
        <time>2012-12-29T10:40:36.999Z</time>
      </trkpt>
      <trkpt lat="44.127" lon="1.9012">
        <ele>283.6</ele>
        <time>2012-12-29T10:40:39.999Z</time>
      </trkpt>
      <trkpt lat="44.12698" lon="1.90119">
        <ele>283.7</ele>
        <time>2012-12-29T10:40:40.999Z</time>
      </trkpt>
      <trkpt lat="44.12694" lon="1.90118">
        <ele>284.2</ele>
        <time>2012-12-29T10:40:44.999Z</time>
      </trkpt>
      <trkpt lat="44.12693" lon="1.90118">
        <ele>284.4</ele>
        <time>2012-12-29T10:40:45.999Z</time>
      </trkpt>
      <trkpt lat="44.12689" lon="1.90118">
        <ele>284.8</ele>
        <time>2012-12-29T10:40:48.999Z</time>
      </trkpt>
      <trkpt lat="44.12688" lon="1.90118">
        <ele>285</ele>
        <time>2012-12-29T10:40:49.999Z</time>
      </trkpt>
      <trkpt lat="44.12683" lon="1.90117">
        <ele>285.7</ele>
        <time>2012-12-29T10:40:53.999Z</time>
      </trkpt>
      <trkpt lat="44.12683" lon="1.90117">
        <ele>285.9</ele>
        <time>2012-12-29T10:40:54.999Z</time>
      </trkpt>
      <trkpt lat="44.12679" lon="1.90116">
        <ele>286.5</ele>
        <time>2012-12-29T10:40:58.999Z</time>
      </trkpt>
      <trkpt lat="44.12677" lon="1.90116">
        <ele>286.6</ele>
        <time>2012-12-29T10:40:59.999Z</time>
      </trkpt>
      <trkpt lat="44.12673" lon="1.90116">
        <ele>287</ele>
        <time>2012-12-29T10:41:02.999Z</time>
      </trkpt>
      <trkpt lat="44.12671" lon="1.90117">
        <ele>287.1</ele>
        <time>2012-12-29T10:41:03.999Z</time>
      </trkpt>
      <trkpt lat="44.12668" lon="1.90118">
        <ele>287.4</ele>
        <time>2012-12-29T10:41:06.999Z</time>
      </trkpt>
      <trkpt lat="44.12666" lon="1.90118">
        <ele>287.4</ele>
        <time>2012-12-29T10:41:07.999Z</time>
      </trkpt>
      <trkpt lat="44.12662" lon="1.90119">
        <ele>287.7</ele>
        <time>2012-12-29T10:41:10.999Z</time>
      </trkpt>
      <trkpt lat="44.12661" lon="1.90119">
        <ele>287.9</ele>
        <time>2012-12-29T10:41:11.999Z</time>
      </trkpt>
      <trkpt lat="44.12658" lon="1.90119">
        <ele>288.1</ele>
        <time>2012-12-29T10:41:14.999Z</time>
      </trkpt>
      <trkpt lat="44.12656" lon="1.90119">
        <ele>288.2</ele>
        <time>2012-12-29T10:41:15.999Z</time>
      </trkpt>
      <trkpt lat="44.12652" lon="1.90119">
        <ele>288.6</ele>
        <time>2012-12-29T10:41:18.999Z</time>
      </trkpt>
      <trkpt lat="44.12651" lon="1.9012">
        <ele>288.8</ele>
        <time>2012-12-29T10:41:19.999Z</time>
      </trkpt>
      <trkpt lat="44.12646" lon="1.9012">
        <ele>289.1</ele>
        <time>2012-12-29T10:41:22.999Z</time>
      </trkpt>
      <trkpt lat="44.12645" lon="1.9012">
        <ele>289.2</ele>
        <time>2012-12-29T10:41:23.999Z</time>
      </trkpt>
      <trkpt lat="44.12642" lon="1.9012">
        <ele>289.5</ele>
        <time>2012-12-29T10:41:26.999Z</time>
      </trkpt>
      <trkpt lat="44.1264" lon="1.9012">
        <ele>289.6</ele>
        <time>2012-12-29T10:41:27.999Z</time>
      </trkpt>
      <trkpt lat="44.12636" lon="1.90121">
        <ele>290.1</ele>
        <time>2012-12-29T10:41:30.999Z</time>
      </trkpt>
      <trkpt lat="44.12635" lon="1.90121">
        <ele>290.3</ele>
        <time>2012-12-29T10:41:31.999Z</time>
      </trkpt>
      <trkpt lat="44.12631" lon="1.90122">
        <ele>290.9</ele>
        <time>2012-12-29T10:41:34.999Z</time>
      </trkpt>
      <trkpt lat="44.12629" lon="1.90122">
        <ele>291.2</ele>
        <time>2012-12-29T10:41:35.999Z</time>
      </trkpt>
      <trkpt lat="44.12625" lon="1.90122">
        <ele>291.9</ele>
        <time>2012-12-29T10:41:38.999Z</time>
      </trkpt>
      <trkpt lat="44.12624" lon="1.90122">
        <ele>292</ele>
        <time>2012-12-29T10:41:39.999Z</time>
      </trkpt>
      <trkpt lat="44.12621" lon="1.90122">
        <ele>292.4</ele>
        <time>2012-12-29T10:41:41.999Z</time>
      </trkpt>
      <trkpt lat="44.12619" lon="1.90122">
        <ele>292.5</ele>
        <time>2012-12-29T10:41:42.999Z</time>
      </trkpt>
      <trkpt lat="44.12616" lon="1.90121">
        <ele>292.9</ele>
        <time>2012-12-29T10:41:45.999Z</time>
      </trkpt>
      <trkpt lat="44.12614" lon="1.90121">
        <ele>293.1</ele>
        <time>2012-12-29T10:41:46.999Z</time>
      </trkpt>
      <trkpt lat="44.12611" lon="1.90121">
        <ele>293.4</ele>
        <time>2012-12-29T10:41:48.999Z</time>
      </trkpt>
      <trkpt lat="44.12609" lon="1.90121">
        <ele>293.6</ele>
        <time>2012-12-29T10:41:49.999Z</time>
      </trkpt>
      <trkpt lat="44.12605" lon="1.90121">
        <ele>294.3</ele>
        <time>2012-12-29T10:41:53.999Z</time>
      </trkpt>
      <trkpt lat="44.12604" lon="1.90121">
        <ele>294.5</ele>
        <time>2012-12-29T10:41:54.999Z</time>
      </trkpt>
      <trkpt lat="44.126" lon="1.9012">
        <ele>294.8</ele>
        <time>2012-12-29T10:41:57.999Z</time>
      </trkpt>
      <trkpt lat="44.12598" lon="1.9012">
        <ele>294.9</ele>
        <time>2012-12-29T10:41:58.999Z</time>
      </trkpt>
      <trkpt lat="44.12595" lon="1.9012">
        <ele>295</ele>
        <time>2012-12-29T10:42:00.999Z</time>
      </trkpt>
      <trkpt lat="44.12593" lon="1.9012">
        <ele>295.2</ele>
        <time>2012-12-29T10:42:01.999Z</time>
      </trkpt>
      <trkpt lat="44.12589" lon="1.90119">
        <ele>295.5</ele>
        <time>2012-12-29T10:42:04.999Z</time>
      </trkpt>
      <trkpt lat="44.12588" lon="1.90119">
        <ele>295.6</ele>
        <time>2012-12-29T10:42:05.999Z</time>
      </trkpt>
      <trkpt lat="44.12583" lon="1.90119">
        <ele>295.8</ele>
        <time>2012-12-29T10:42:08.999Z</time>
      </trkpt>
      <trkpt lat="44.12582" lon="1.90119">
        <ele>295.8</ele>
        <time>2012-12-29T10:42:09.999Z</time>
      </trkpt>
      <trkpt lat="44.12579" lon="1.90118">
        <ele>296</ele>
        <time>2012-12-29T10:42:12.999Z</time>
      </trkpt>
      <trkpt lat="44.12577" lon="1.90118">
        <ele>296.1</ele>
        <time>2012-12-29T10:42:13.999Z</time>
      </trkpt>
      <trkpt lat="44.12573" lon="1.90119">
        <ele>296.5</ele>
        <time>2012-12-29T10:42:16.999Z</time>
      </trkpt>
      <trkpt lat="44.12571" lon="1.90119">
        <ele>296.6</ele>
        <time>2012-12-29T10:42:17.999Z</time>
      </trkpt>
      <trkpt lat="44.12568" lon="1.90119">
        <ele>296.9</ele>
        <time>2012-12-29T10:42:19.999Z</time>
      </trkpt>
      <trkpt lat="44.12567" lon="1.90119">
        <ele>297</ele>
        <time>2012-12-29T10:42:20.999Z</time>
      </trkpt>
      <trkpt lat="44.12563" lon="1.90119">
        <ele>297.4</ele>
        <time>2012-12-29T10:42:23.999Z</time>
      </trkpt>
      <trkpt lat="44.12562" lon="1.90119">
        <ele>297.6</ele>
        <time>2012-12-29T10:42:24.999Z</time>
      </trkpt>
      <trkpt lat="44.12558" lon="1.9012">
        <ele>298.1</ele>
        <time>2012-12-29T10:42:27.999Z</time>
      </trkpt>
      <trkpt lat="44.12557" lon="1.9012">
        <ele>298.2</ele>
        <time>2012-12-29T10:42:28.999Z</time>
      </trkpt>
      <trkpt lat="44.12553" lon="1.9012">
        <ele>298.4</ele>
        <time>2012-12-29T10:42:31.999Z</time>
      </trkpt>
      <trkpt lat="44.12552" lon="1.90121">
        <ele>298.4</ele>
        <time>2012-12-29T10:42:32.999Z</time>
      </trkpt>
      <trkpt lat="44.12548" lon="1.90121">
        <ele>298.5</ele>
        <time>2012-12-29T10:42:34.999Z</time>
      </trkpt>
      <trkpt lat="44.12547" lon="1.90121">
        <ele>298.7</ele>
        <time>2012-12-29T10:42:35.999Z</time>
      </trkpt>
      <trkpt lat="44.12543" lon="1.90122">
        <ele>298.9</ele>
        <time>2012-12-29T10:42:37.999Z</time>
      </trkpt>
      <trkpt lat="44.12541" lon="1.90122">
        <ele>299</ele>
        <time>2012-12-29T10:42:38.999Z</time>
      </trkpt>
      <trkpt lat="44.12538" lon="1.90124">
        <ele>299.4</ele>
        <time>2012-12-29T10:42:41.999Z</time>
      </trkpt>
      <trkpt lat="44.12537" lon="1.90124">
        <ele>299.5</ele>
        <time>2012-12-29T10:42:42.999Z</time>
      </trkpt>
      <trkpt lat="44.12533" lon="1.90125">
        <ele>299.9</ele>
        <time>2012-12-29T10:42:45.999Z</time>
      </trkpt>
      <trkpt lat="44.12532" lon="1.90125">
        <ele>300</ele>
        <time>2012-12-29T10:42:46.999Z</time>
      </trkpt>
      <trkpt lat="44.12528" lon="1.90125">
        <ele>300.5</ele>
        <time>2012-12-29T10:42:49.999Z</time>
      </trkpt>
      <trkpt lat="44.12527" lon="1.90125">
        <ele>300.6</ele>
        <time>2012-12-29T10:42:50.999Z</time>
      </trkpt>
      <trkpt lat="44.12523" lon="1.90125">
        <ele>301</ele>
        <time>2012-12-29T10:42:53.999Z</time>
      </trkpt>
      <trkpt lat="44.12521" lon="1.90126">
        <ele>301.1</ele>
        <time>2012-12-29T10:42:54.999Z</time>
      </trkpt>
      <trkpt lat="44.12517" lon="1.90126">
        <ele>301.5</ele>
        <time>2012-12-29T10:42:57.999Z</time>
      </trkpt>
      <trkpt lat="44.12516" lon="1.90126">
        <ele>301.6</ele>
        <time>2012-12-29T10:42:58.999Z</time>
      </trkpt>
      <trkpt lat="44.12512" lon="1.90126">
        <ele>302</ele>
        <time>2012-12-29T10:43:01.999Z</time>
      </trkpt>
      <trkpt lat="44.1251" lon="1.90126">
        <ele>302.1</ele>
        <time>2012-12-29T10:43:02.999Z</time>
      </trkpt>
      <trkpt lat="44.12507" lon="1.90126">
        <ele>302.4</ele>
        <time>2012-12-29T10:43:04.999Z</time>
      </trkpt>
      <trkpt lat="44.12506" lon="1.90126">
        <ele>302.5</ele>
        <time>2012-12-29T10:43:05.999Z</time>
      </trkpt>
      <trkpt lat="44.12502" lon="1.90127">
        <ele>302.6</ele>
        <time>2012-12-29T10:43:07.999Z</time>
      </trkpt>
      <trkpt lat="44.12501" lon="1.90128">
        <ele>302.7</ele>
        <time>2012-12-29T10:43:08.999Z</time>
      </trkpt>
      <trkpt lat="44.12498" lon="1.9013">
        <ele>302.9</ele>
        <time>2012-12-29T10:43:10.999Z</time>
      </trkpt>
      <trkpt lat="44.12497" lon="1.90131">
        <ele>303.1</ele>
        <time>2012-12-29T10:43:11.999Z</time>
      </trkpt>
      <trkpt lat="44.12494" lon="1.90133">
        <ele>303.3</ele>
        <time>2012-12-29T10:43:13.999Z</time>
      </trkpt>
      <trkpt lat="44.12492" lon="1.90134">
        <ele>303.4</ele>
        <time>2012-12-29T10:43:14.999Z</time>
      </trkpt>
      <trkpt lat="44.12489" lon="1.90136">
        <ele>303.7</ele>
        <time>2012-12-29T10:43:16.999Z</time>
      </trkpt>
      <trkpt lat="44.12487" lon="1.90136">
        <ele>303.9</ele>
        <time>2012-12-29T10:43:17.999Z</time>
      </trkpt>
      <trkpt lat="44.12483" lon="1.90139">
        <ele>304.1</ele>
        <time>2012-12-29T10:43:19.999Z</time>
      </trkpt>
      <trkpt lat="44.12481" lon="1.9014">
        <ele>304.1</ele>
        <time>2012-12-29T10:43:20.999Z</time>
      </trkpt>
      <trkpt lat="44.12478" lon="1.90142">
        <ele>304.3</ele>
        <time>2012-12-29T10:43:22.999Z</time>
      </trkpt>
      <trkpt lat="44.12476" lon="1.90143">
        <ele>304.5</ele>
        <time>2012-12-29T10:43:23.999Z</time>
      </trkpt>
      <trkpt lat="44.12472" lon="1.90144">
        <ele>304.9</ele>
        <time>2012-12-29T10:43:26.999Z</time>
      </trkpt>
      <trkpt lat="44.1247" lon="1.90145">
        <ele>305.1</ele>
        <time>2012-12-29T10:43:27.999Z</time>
      </trkpt>
      <trkpt lat="44.12467" lon="1.90146">
        <ele>305.4</ele>
        <time>2012-12-29T10:43:29.999Z</time>
      </trkpt>
      <trkpt lat="44.12465" lon="1.90147">
        <ele>305.6</ele>
        <time>2012-12-29T10:43:30.999Z</time>
      </trkpt>
      <trkpt lat="44.12461" lon="1.90147">
        <ele>306</ele>
        <time>2012-12-29T10:43:32.999Z</time>
      </trkpt>
      <trkpt lat="44.1246" lon="1.90147">
        <ele>306.1</ele>
        <time>2012-12-29T10:43:33.999Z</time>
      </trkpt>
      <trkpt lat="44.12456" lon="1.90147">
        <ele>306.5</ele>
        <time>2012-12-29T10:43:35.999Z</time>
      </trkpt>
      <trkpt lat="44.12453" lon="1.90147">
        <ele>306.6</ele>
        <time>2012-12-29T10:43:36.999Z</time>
      </trkpt>
      <trkpt lat="44.1245" lon="1.90147">
        <ele>307</ele>
        <time>2012-12-29T10:43:38.999Z</time>
      </trkpt>
      <trkpt lat="44.12448" lon="1.90147">
        <ele>307.2</ele>
        <time>2012-12-29T10:43:39.999Z</time>
      </trkpt>
      <trkpt lat="44.12444" lon="1.90146">
        <ele>307.4</ele>
        <time>2012-12-29T10:43:41.999Z</time>
      </trkpt>
      <trkpt lat="44.12442" lon="1.90146">
        <ele>307.6</ele>
        <time>2012-12-29T10:43:42.999Z</time>
      </trkpt>
      <trkpt lat="44.12438" lon="1.90146">
        <ele>313.1</ele>
        <time>2012-12-29T10:46:12.999Z</time>
      </trkpt>
      <trkpt lat="44.12437" lon="1.90146">
        <ele>313.1</ele>
        <time>2012-12-29T10:46:13.999Z</time>
      </trkpt>
      <trkpt lat="44.12434" lon="1.90143">
        <ele>313.2</ele>
        <time>2012-12-29T10:46:35.999Z</time>
      </trkpt>
      <trkpt lat="44.12432" lon="1.90143">
        <ele>313.2</ele>
        <time>2012-12-29T10:46:36.999Z</time>
      </trkpt>
      <trkpt lat="44.1243" lon="1.90144">
        <ele>313.1</ele>
        <time>2012-12-29T10:46:37.999Z</time>
      </trkpt>
      <trkpt lat="44.12427" lon="1.90144">
        <ele>313.1</ele>
        <time>2012-12-29T10:46:38.999Z</time>
      </trkpt>
      <trkpt lat="44.12423" lon="1.90145">
        <ele>313.2</ele>
        <time>2012-12-29T10:46:40.999Z</time>
      </trkpt>
      <trkpt lat="44.1242" lon="1.90146">
        <ele>313.2</ele>
        <time>2012-12-29T10:46:41.999Z</time>
      </trkpt>
      <trkpt lat="44.12417" lon="1.90147">
        <ele>313.4</ele>
        <time>2012-12-29T10:46:43.999Z</time>
      </trkpt>
      <trkpt lat="44.12414" lon="1.90147">
        <ele>313.4</ele>
        <time>2012-12-29T10:46:44.999Z</time>
      </trkpt>
      <trkpt lat="44.12412" lon="1.90147">
        <ele>313.4</ele>
        <time>2012-12-29T10:46:45.999Z</time>
      </trkpt>
      <trkpt lat="44.12409" lon="1.90147">
        <ele>313.3</ele>
        <time>2012-12-29T10:46:46.999Z</time>
      </trkpt>
      <trkpt lat="44.12407" lon="1.90148">
        <ele>313.3</ele>
        <time>2012-12-29T10:46:47.999Z</time>
      </trkpt>
      <trkpt lat="44.12403" lon="1.9015">
        <ele>313.1</ele>
        <time>2012-12-29T10:46:48.999Z</time>
      </trkpt>
      <trkpt lat="44.124" lon="1.90152">
        <ele>313</ele>
        <time>2012-12-29T10:46:49.999Z</time>
      </trkpt>
      <trkpt lat="44.12395" lon="1.90155">
        <ele>310.8</ele>
        <time>2012-12-29T10:46:50.999Z</time>
      </trkpt>
      <trkpt lat="44.12391" lon="1.90159">
        <ele>309.4</ele>
        <time>2012-12-29T10:46:51.999Z</time>
      </trkpt>
      <trkpt lat="44.12386" lon="1.90163">
        <ele>308.1</ele>
        <time>2012-12-29T10:46:52.999Z</time>
      </trkpt>
      <trkpt lat="44.12381" lon="1.90166">
        <ele>307.3</ele>
        <time>2012-12-29T10:46:53.999Z</time>
      </trkpt>
      <trkpt lat="44.12376" lon="1.90171">
        <ele>307</ele>
        <time>2012-12-29T10:46:54.999Z</time>
      </trkpt>
      <trkpt lat="44.1237" lon="1.90175">
        <ele>306.8</ele>
        <time>2012-12-29T10:46:56.000Z</time>
      </trkpt>
      <trkpt lat="44.12365" lon="1.9018">
        <ele>306.7</ele>
        <time>2012-12-29T10:46:57.000Z</time>
      </trkpt>
      <trkpt lat="44.12362" lon="1.90185">
        <ele>306.3</ele>
        <time>2012-12-29T10:46:58.000Z</time>
      </trkpt>
      <trkpt lat="44.12359" lon="1.90191">
        <ele>306.1</ele>
        <time>2012-12-29T10:46:59.000Z</time>
      </trkpt>
      <trkpt lat="44.12355" lon="1.90196">
        <ele>305.8</ele>
        <time>2012-12-29T10:47:00.000Z</time>
      </trkpt>
      <trkpt lat="44.12354" lon="1.90201">
        <ele>305.8</ele>
        <time>2012-12-29T10:47:01.000Z</time>
      </trkpt>
      <trkpt lat="44.12353" lon="1.90206">
        <ele>305.7</ele>
        <time>2012-12-29T10:47:02.000Z</time>
      </trkpt>
      <trkpt lat="44.12354" lon="1.90213">
        <ele>305.6</ele>
        <time>2012-12-29T10:47:03.000Z</time>
      </trkpt>
      <trkpt lat="44.12354" lon="1.9022">
        <ele>304.8</ele>
        <time>2012-12-29T10:47:04.000Z</time>
      </trkpt>
      <trkpt lat="44.12355" lon="1.90228">
        <ele>304.5</ele>
        <time>2012-12-29T10:47:05.000Z</time>
      </trkpt>
      <trkpt lat="44.12355" lon="1.90237">
        <ele>304.6</ele>
        <time>2012-12-29T10:47:06.000Z</time>
      </trkpt>
      <trkpt lat="44.12356" lon="1.90245">
        <ele>304.7</ele>
        <time>2012-12-29T10:47:07.000Z</time>
      </trkpt>
      <trkpt lat="44.12357" lon="1.90254">
        <ele>304.8</ele>
        <time>2012-12-29T10:47:08.000Z</time>
      </trkpt>
      <trkpt lat="44.12359" lon="1.90264">
        <ele>305.2</ele>
        <time>2012-12-29T10:47:09.000Z</time>
      </trkpt>
      <trkpt lat="44.12361" lon="1.90273">
        <ele>305.1</ele>
        <time>2012-12-29T10:47:10.000Z</time>
      </trkpt>
      <trkpt lat="44.12363" lon="1.90283">
        <ele>305.4</ele>
        <time>2012-12-29T10:47:11.000Z</time>
      </trkpt>
      <trkpt lat="44.12365" lon="1.90291">
        <ele>305.3</ele>
        <time>2012-12-29T10:47:12.000Z</time>
      </trkpt>
      <trkpt lat="44.12367" lon="1.90299">
        <ele>304.9</ele>
        <time>2012-12-29T10:47:13.000Z</time>
      </trkpt>
      <trkpt lat="44.12368" lon="1.90306">
        <ele>304.9</ele>
        <time>2012-12-29T10:47:14.000Z</time>
      </trkpt>
      <trkpt lat="44.1237" lon="1.90313">
        <ele>304.9</ele>
        <time>2012-12-29T10:47:15.000Z</time>
      </trkpt>
      <trkpt lat="44.12371" lon="1.90318">
        <ele>304.9</ele>
        <time>2012-12-29T10:47:16.000Z</time>
      </trkpt>
      <trkpt lat="44.12373" lon="1.90324">
        <ele>304.8</ele>
        <time>2012-12-29T10:47:17.000Z</time>
      </trkpt>
      <trkpt lat="44.12373" lon="1.90329">
        <ele>304.8</ele>
        <time>2012-12-29T10:47:18.000Z</time>
      </trkpt>
      <trkpt lat="44.12374" lon="1.90335">
        <ele>304.8</ele>
        <time>2012-12-29T10:47:19.000Z</time>
      </trkpt>
      <trkpt lat="44.12376" lon="1.9034">
        <ele>304.8</ele>
        <time>2012-12-29T10:47:20.000Z</time>
      </trkpt>
      <trkpt lat="44.12377" lon="1.90344">
        <ele>304.8</ele>
        <time>2012-12-29T10:47:21.000Z</time>
      </trkpt>
      <trkpt lat="44.12379" lon="1.90349">
        <ele>304.7</ele>
        <time>2012-12-29T10:47:22.000Z</time>
      </trkpt>
      <trkpt lat="44.1238" lon="1.90353">
        <ele>304.7</ele>
        <time>2012-12-29T10:47:23.000Z</time>
      </trkpt>
      <trkpt lat="44.12381" lon="1.90357">
        <ele>304.7</ele>
        <time>2012-12-29T10:47:24.000Z</time>
      </trkpt>
      <trkpt lat="44.12382" lon="1.90361">
        <ele>304.8</ele>
        <time>2012-12-29T10:47:25.000Z</time>
      </trkpt>
      <trkpt lat="44.12383" lon="1.90365">
        <ele>304.8</ele>
        <time>2012-12-29T10:47:26.000Z</time>
      </trkpt>
      <trkpt lat="44.12384" lon="1.90369">
        <ele>304.9</ele>
        <time>2012-12-29T10:47:27.000Z</time>
      </trkpt>
      <trkpt lat="44.12385" lon="1.90374">
        <ele>305</ele>
        <time>2012-12-29T10:47:28.000Z</time>
      </trkpt>
      <trkpt lat="44.12386" lon="1.90379">
        <ele>305</ele>
        <time>2012-12-29T10:47:29.000Z</time>
      </trkpt>
      <trkpt lat="44.12387" lon="1.90384">
        <ele>305.1</ele>
        <time>2012-12-29T10:47:30.000Z</time>
      </trkpt>
      <trkpt lat="44.12388" lon="1.9039">
        <ele>305.2</ele>
        <time>2012-12-29T10:47:31.000Z</time>
      </trkpt>
      <trkpt lat="44.12389" lon="1.90395">
        <ele>305.3</ele>
        <time>2012-12-29T10:47:32.000Z</time>
      </trkpt>
      <trkpt lat="44.12391" lon="1.904">
        <ele>305.3</ele>
        <time>2012-12-29T10:47:33.000Z</time>
      </trkpt>
      <trkpt lat="44.12393" lon="1.90404">
        <ele>305.4</ele>
        <time>2012-12-29T10:47:34.000Z</time>
      </trkpt>
      <trkpt lat="44.12395" lon="1.90408">
        <ele>305.4</ele>
        <time>2012-12-29T10:47:35.000Z</time>
      </trkpt>
      <trkpt lat="44.12397" lon="1.90411">
        <ele>305.5</ele>
        <time>2012-12-29T10:47:36.000Z</time>
      </trkpt>
      <trkpt lat="44.124" lon="1.90413">
        <ele>305.5</ele>
        <time>2012-12-29T10:47:37.000Z</time>
      </trkpt>
      <trkpt lat="44.12402" lon="1.90415">
        <ele>305.6</ele>
        <time>2012-12-29T10:47:38.000Z</time>
      </trkpt>
      <trkpt lat="44.12404" lon="1.90417">
        <ele>305.6</ele>
        <time>2012-12-29T10:47:39.000Z</time>
      </trkpt>
      <trkpt lat="44.12406" lon="1.90419">
        <ele>305.6</ele>
        <time>2012-12-29T10:47:40.000Z</time>
      </trkpt>
      <trkpt lat="44.12408" lon="1.90421">
        <ele>305.6</ele>
        <time>2012-12-29T10:47:41.000Z</time>
      </trkpt>
      <trkpt lat="44.1241" lon="1.90423">
        <ele>305.6</ele>
        <time>2012-12-29T10:47:42.000Z</time>
      </trkpt>
      <trkpt lat="44.12412" lon="1.90425">
        <ele>305.5</ele>
        <time>2012-12-29T10:47:43.000Z</time>
      </trkpt>
      <trkpt lat="44.12414" lon="1.90427">
        <ele>305.5</ele>
        <time>2012-12-29T10:47:44.000Z</time>
      </trkpt>
      <trkpt lat="44.12417" lon="1.9043">
        <ele>305.5</ele>
        <time>2012-12-29T10:47:45.000Z</time>
      </trkpt>
      <trkpt lat="44.12419" lon="1.90432">
        <ele>305.5</ele>
        <time>2012-12-29T10:47:46.000Z</time>
      </trkpt>
      <trkpt lat="44.12421" lon="1.90435">
        <ele>305.5</ele>
        <time>2012-12-29T10:47:47.000Z</time>
      </trkpt>
      <trkpt lat="44.12424" lon="1.90437">
        <ele>305.6</ele>
        <time>2012-12-29T10:47:48.000Z</time>
      </trkpt>
      <trkpt lat="44.12426" lon="1.90439">
        <ele>305.6</ele>
        <time>2012-12-29T10:47:49.000Z</time>
      </trkpt>
      <trkpt lat="44.12428" lon="1.90441">
        <ele>305.7</ele>
        <time>2012-12-29T10:47:50.000Z</time>
      </trkpt>
      <trkpt lat="44.12431" lon="1.90444">
        <ele>305.7</ele>
        <time>2012-12-29T10:47:51.000Z</time>
      </trkpt>
      <trkpt lat="44.12433" lon="1.90447">
        <ele>305.7</ele>
        <time>2012-12-29T10:47:52.000Z</time>
      </trkpt>
      <trkpt lat="44.12436" lon="1.90449">
        <ele>305.7</ele>
        <time>2012-12-29T10:47:53.000Z</time>
      </trkpt>
      <trkpt lat="44.12439" lon="1.90452">
        <ele>305.7</ele>
        <time>2012-12-29T10:47:54.000Z</time>
      </trkpt>
      <trkpt lat="44.12441" lon="1.90454">
        <ele>305.8</ele>
        <time>2012-12-29T10:47:55.000Z</time>
      </trkpt>
      <trkpt lat="44.12443" lon="1.90457">
        <ele>305.8</ele>
        <time>2012-12-29T10:47:56.000Z</time>
      </trkpt>
      <trkpt lat="44.12445" lon="1.9046">
        <ele>305.8</ele>
        <time>2012-12-29T10:47:57.000Z</time>
      </trkpt>
      <trkpt lat="44.12447" lon="1.90464">
        <ele>305.9</ele>
        <time>2012-12-29T10:47:58.000Z</time>
      </trkpt>
      <trkpt lat="44.12449" lon="1.90467">
        <ele>306</ele>
        <time>2012-12-29T10:47:59.000Z</time>
      </trkpt>
      <trkpt lat="44.12451" lon="1.9047">
        <ele>306</ele>
        <time>2012-12-29T10:48:00.000Z</time>
      </trkpt>
      <trkpt lat="44.12452" lon="1.90474">
        <ele>306.1</ele>
        <time>2012-12-29T10:48:01.000Z</time>
      </trkpt>
      <trkpt lat="44.12454" lon="1.90478">
        <ele>306.2</ele>
        <time>2012-12-29T10:48:02.000Z</time>
      </trkpt>
      <trkpt lat="44.12455" lon="1.90481">
        <ele>306.3</ele>
        <time>2012-12-29T10:48:03.000Z</time>
      </trkpt>
      <trkpt lat="44.12456" lon="1.90485">
        <ele>306.4</ele>
        <time>2012-12-29T10:48:04.000Z</time>
      </trkpt>
      <trkpt lat="44.12457" lon="1.90489">
        <ele>306.4</ele>
        <time>2012-12-29T10:48:05.000Z</time>
      </trkpt>
      <trkpt lat="44.12458" lon="1.90492">
        <ele>306.5</ele>
        <time>2012-12-29T10:48:06.000Z</time>
      </trkpt>
      <trkpt lat="44.12459" lon="1.90496">
        <ele>306.6</ele>
        <time>2012-12-29T10:48:07.000Z</time>
      </trkpt>
      <trkpt lat="44.1246" lon="1.90501">
        <ele>306.7</ele>
        <time>2012-12-29T10:48:08.000Z</time>
      </trkpt>
      <trkpt lat="44.12462" lon="1.90505">
        <ele>306.9</ele>
        <time>2012-12-29T10:48:09.000Z</time>
      </trkpt>
      <trkpt lat="44.12463" lon="1.90508">
        <ele>307</ele>
        <time>2012-12-29T10:48:10.000Z</time>
      </trkpt>
      <trkpt lat="44.12464" lon="1.90511">
        <ele>307.1</ele>
        <time>2012-12-29T10:48:11.000Z</time>
      </trkpt>
      <trkpt lat="44.12465" lon="1.90517">
        <ele>307.2</ele>
        <time>2012-12-29T10:48:13.000Z</time>
      </trkpt>
      <trkpt lat="44.12466" lon="1.9052">
        <ele>307.3</ele>
        <time>2012-12-29T10:48:14.000Z</time>
      </trkpt>
      <trkpt lat="44.12466" lon="1.90524">
        <ele>307.4</ele>
        <time>2012-12-29T10:48:15.000Z</time>
      </trkpt>
      <trkpt lat="44.12467" lon="1.90527">
        <ele>307.5</ele>
        <time>2012-12-29T10:48:16.000Z</time>
      </trkpt>
      <trkpt lat="44.12468" lon="1.90531">
        <ele>307.6</ele>
        <time>2012-12-29T10:48:17.000Z</time>
      </trkpt>
      <trkpt lat="44.12469" lon="1.90535">
        <ele>307.8</ele>
        <time>2012-12-29T10:48:18.000Z</time>
      </trkpt>
      <trkpt lat="44.1247" lon="1.90538">
        <ele>308</ele>
        <time>2012-12-29T10:48:19.000Z</time>
      </trkpt>
      <trkpt lat="44.12471" lon="1.90543">
        <ele>308.1</ele>
        <time>2012-12-29T10:48:20.000Z</time>
      </trkpt>
      <trkpt lat="44.12473" lon="1.90547">
        <ele>308.2</ele>
        <time>2012-12-29T10:48:21.000Z</time>
      </trkpt>
      <trkpt lat="44.12475" lon="1.90552">
        <ele>308.3</ele>
        <time>2012-12-29T10:48:22.000Z</time>
      </trkpt>
      <trkpt lat="44.12478" lon="1.90557">
        <ele>308.8</ele>
        <time>2012-12-29T10:48:23.000Z</time>
      </trkpt>
      <trkpt lat="44.12481" lon="1.90562">
        <ele>309.3</ele>
        <time>2012-12-29T10:48:24.000Z</time>
      </trkpt>
      <trkpt lat="44.12484" lon="1.90568">
        <ele>309.3</ele>
        <time>2012-12-29T10:48:25.000Z</time>
      </trkpt>
      <trkpt lat="44.12488" lon="1.90574">
        <ele>308.7</ele>
        <time>2012-12-29T10:48:26.000Z</time>
      </trkpt>
      <trkpt lat="44.12492" lon="1.9058">
        <ele>307.9</ele>
        <time>2012-12-29T10:48:27.000Z</time>
      </trkpt>
      <trkpt lat="44.12496" lon="1.90586">
        <ele>307.1</ele>
        <time>2012-12-29T10:48:28.000Z</time>
      </trkpt>
      <trkpt lat="44.12501" lon="1.90592">
        <ele>306</ele>
        <time>2012-12-29T10:48:29.000Z</time>
      </trkpt>
      <trkpt lat="44.12506" lon="1.90598">
        <ele>305.3</ele>
        <time>2012-12-29T10:48:30.000Z</time>
      </trkpt>
      <trkpt lat="44.12511" lon="1.90604">
        <ele>304.3</ele>
        <time>2012-12-29T10:48:31.000Z</time>
      </trkpt>
      <trkpt lat="44.12517" lon="1.90611">
        <ele>304</ele>
        <time>2012-12-29T10:48:32.000Z</time>
      </trkpt>
      <trkpt lat="44.12523" lon="1.90616">
        <ele>303.3</ele>
        <time>2012-12-29T10:48:33.000Z</time>
      </trkpt>
      <trkpt lat="44.1253" lon="1.90622">
        <ele>302.9</ele>
        <time>2012-12-29T10:48:34.000Z</time>
      </trkpt>
      <trkpt lat="44.12538" lon="1.90629">
        <ele>302.3</ele>
        <time>2012-12-29T10:48:35.000Z</time>
      </trkpt>
      <trkpt lat="44.12545" lon="1.90635">
        <ele>301.5</ele>
        <time>2012-12-29T10:48:36.000Z</time>
      </trkpt>
      <trkpt lat="44.12553" lon="1.90641">
        <ele>300.7</ele>
        <time>2012-12-29T10:48:37.000Z</time>
      </trkpt>
      <trkpt lat="44.12561" lon="1.9065">
        <ele>300</ele>
        <time>2012-12-29T10:48:38.000Z</time>
      </trkpt>
      <trkpt lat="44.1257" lon="1.90658">
        <ele>299.6</ele>
        <time>2012-12-29T10:48:39.000Z</time>
      </trkpt>
      <trkpt lat="44.12578" lon="1.90666">
        <ele>299.6</ele>
        <time>2012-12-29T10:48:40.000Z</time>
      </trkpt>
      <trkpt lat="44.12584" lon="1.90675">
        <ele>299.5</ele>
        <time>2012-12-29T10:48:41.000Z</time>
      </trkpt>
      <trkpt lat="44.12589" lon="1.90683">
        <ele>299.9</ele>
        <time>2012-12-29T10:48:42.000Z</time>
      </trkpt>
      <trkpt lat="44.12592" lon="1.9069">
        <ele>299.9</ele>
        <time>2012-12-29T10:48:43.000Z</time>
      </trkpt>
      <trkpt lat="44.12595" lon="1.90696">
        <ele>299.7</ele>
        <time>2012-12-29T10:48:44.000Z</time>
      </trkpt>
      <trkpt lat="44.12598" lon="1.90703">
        <ele>299.1</ele>
        <time>2012-12-29T10:48:45.000Z</time>
      </trkpt>
      <trkpt lat="44.12601" lon="1.9071">
        <ele>298.3</ele>
        <time>2012-12-29T10:48:46.000Z</time>
      </trkpt>
      <trkpt lat="44.12603" lon="1.90716">
        <ele>298.6</ele>
        <time>2012-12-29T10:48:47.000Z</time>
      </trkpt>
      <trkpt lat="44.12605" lon="1.90721">
        <ele>299.1</ele>
        <time>2012-12-29T10:48:48.000Z</time>
      </trkpt>
      <trkpt lat="44.12607" lon="1.90726">
        <ele>299.1</ele>
        <time>2012-12-29T10:48:49.000Z</time>
      </trkpt>
      <trkpt lat="44.12609" lon="1.90731">
        <ele>299.1</ele>
        <time>2012-12-29T10:48:50.000Z</time>
      </trkpt>
      <trkpt lat="44.12611" lon="1.90736">
        <ele>299.1</ele>
        <time>2012-12-29T10:48:51.000Z</time>
      </trkpt>
      <trkpt lat="44.12613" lon="1.90739">
        <ele>299.1</ele>
        <time>2012-12-29T10:48:52.000Z</time>
      </trkpt>
      <trkpt lat="44.12614" lon="1.90743">
        <ele>299.2</ele>
        <time>2012-12-29T10:48:53.000Z</time>
      </trkpt>
      <trkpt lat="44.12616" lon="1.90747">
        <ele>299.2</ele>
        <time>2012-12-29T10:48:54.000Z</time>
      </trkpt>
      <trkpt lat="44.12617" lon="1.90751">
        <ele>299.2</ele>
        <time>2012-12-29T10:48:55.000Z</time>
      </trkpt>
      <trkpt lat="44.12619" lon="1.90755">
        <ele>299.3</ele>
        <time>2012-12-29T10:48:56.000Z</time>
      </trkpt>
      <trkpt lat="44.1262" lon="1.90758">
        <ele>299.4</ele>
        <time>2012-12-29T10:48:57.000Z</time>
      </trkpt>
      <trkpt lat="44.12621" lon="1.90762">
        <ele>299.5</ele>
        <time>2012-12-29T10:48:58.000Z</time>
      </trkpt>
      <trkpt lat="44.12622" lon="1.90766">
        <ele>299.6</ele>
        <time>2012-12-29T10:48:59.000Z</time>
      </trkpt>
      <trkpt lat="44.12624" lon="1.9077">
        <ele>299.7</ele>
        <time>2012-12-29T10:49:00.000Z</time>
      </trkpt>
      <trkpt lat="44.12625" lon="1.90775">
        <ele>299.8</ele>
        <time>2012-12-29T10:49:01.000Z</time>
      </trkpt>
      <trkpt lat="44.12626" lon="1.9078">
        <ele>299.9</ele>
        <time>2012-12-29T10:49:02.000Z</time>
      </trkpt>
      <trkpt lat="44.12627" lon="1.90786">
        <ele>299.9</ele>
        <time>2012-12-29T10:49:03.000Z</time>
      </trkpt>
      <trkpt lat="44.12627" lon="1.90791">
        <ele>299.9</ele>
        <time>2012-12-29T10:49:04.000Z</time>
      </trkpt>
      <trkpt lat="44.12626" lon="1.90795">
        <ele>300</ele>
        <time>2012-12-29T10:49:05.000Z</time>
      </trkpt>
      <trkpt lat="44.12626" lon="1.908">
        <ele>300</ele>
        <time>2012-12-29T10:49:06.000Z</time>
      </trkpt>
      <trkpt lat="44.12625" lon="1.90806">
        <ele>300.1</ele>
        <time>2012-12-29T10:49:07.000Z</time>
      </trkpt>
      <trkpt lat="44.12624" lon="1.9081">
        <ele>300.2</ele>
        <time>2012-12-29T10:49:08.000Z</time>
      </trkpt>
      <trkpt lat="44.12623" lon="1.90815">
        <ele>300.3</ele>
        <time>2012-12-29T10:49:09.000Z</time>
      </trkpt>
      <trkpt lat="44.12621" lon="1.90819">
        <ele>300.5</ele>
        <time>2012-12-29T10:49:10.000Z</time>
      </trkpt>
      <trkpt lat="44.1262" lon="1.90823">
        <ele>300.6</ele>
        <time>2012-12-29T10:49:11.000Z</time>
      </trkpt>
      <trkpt lat="44.12618" lon="1.90828">
        <ele>300.8</ele>
        <time>2012-12-29T10:49:12.000Z</time>
      </trkpt>
      <trkpt lat="44.12617" lon="1.90833">
        <ele>300.9</ele>
        <time>2012-12-29T10:49:13.000Z</time>
      </trkpt>
      <trkpt lat="44.12616" lon="1.90839">
        <ele>301</ele>
        <time>2012-12-29T10:49:14.000Z</time>
      </trkpt>
      <trkpt lat="44.12615" lon="1.90844">
        <ele>301.1</ele>
        <time>2012-12-29T10:49:15.000Z</time>
      </trkpt>
      <trkpt lat="44.12614" lon="1.90849">
        <ele>301.2</ele>
        <time>2012-12-29T10:49:16.000Z</time>
      </trkpt>
      <trkpt lat="44.12613" lon="1.90854">
        <ele>301.3</ele>
        <time>2012-12-29T10:49:17.000Z</time>
      </trkpt>
      <trkpt lat="44.12612" lon="1.90858">
        <ele>301.5</ele>
        <time>2012-12-29T10:49:18.000Z</time>
      </trkpt>
      <trkpt lat="44.12611" lon="1.90861">
        <ele>301.6</ele>
        <time>2012-12-29T10:49:19.000Z</time>
      </trkpt>
      <trkpt lat="44.12609" lon="1.90865">
        <ele>301.8</ele>
        <time>2012-12-29T10:49:20.000Z</time>
      </trkpt>
      <trkpt lat="44.12608" lon="1.90869">
        <ele>301.9</ele>
        <time>2012-12-29T10:49:21.000Z</time>
      </trkpt>
      <trkpt lat="44.12607" lon="1.90872">
        <ele>302</ele>
        <time>2012-12-29T10:49:22.000Z</time>
      </trkpt>
      <trkpt lat="44.12606" lon="1.90876">
        <ele>302.1</ele>
        <time>2012-12-29T10:49:23.000Z</time>
      </trkpt>
      <trkpt lat="44.12606" lon="1.9088">
        <ele>302.2</ele>
        <time>2012-12-29T10:49:24.000Z</time>
      </trkpt>
      <trkpt lat="44.12605" lon="1.90883">
        <ele>302.3</ele>
        <time>2012-12-29T10:49:25.000Z</time>
      </trkpt>
      <trkpt lat="44.12605" lon="1.90886">
        <ele>302.4</ele>
        <time>2012-12-29T10:49:26.000Z</time>
      </trkpt>
      <trkpt lat="44.12604" lon="1.9089">
        <ele>302.5</ele>
        <time>2012-12-29T10:49:27.000Z</time>
      </trkpt>
      <trkpt lat="44.12604" lon="1.90893">
        <ele>302.6</ele>
        <time>2012-12-29T10:49:28.000Z</time>
      </trkpt>
      <trkpt lat="44.12603" lon="1.90896">
        <ele>302.8</ele>
        <time>2012-12-29T10:49:29.000Z</time>
      </trkpt>
      <trkpt lat="44.12603" lon="1.90899">
        <ele>302.9</ele>
        <time>2012-12-29T10:49:30.000Z</time>
      </trkpt>
      <trkpt lat="44.12603" lon="1.90902">
        <ele>303.1</ele>
        <time>2012-12-29T10:49:31.000Z</time>
      </trkpt>
      <trkpt lat="44.12603" lon="1.90908">
        <ele>303.4</ele>
        <time>2012-12-29T10:49:33.000Z</time>
      </trkpt>
      <trkpt lat="44.12603" lon="1.90912">
        <ele>303.5</ele>
        <time>2012-12-29T10:49:34.000Z</time>
      </trkpt>
      <trkpt lat="44.12603" lon="1.90917">
        <ele>303.8</ele>
        <time>2012-12-29T10:49:36.000Z</time>
      </trkpt>
      <trkpt lat="44.12603" lon="1.9092">
        <ele>303.9</ele>
        <time>2012-12-29T10:49:37.000Z</time>
      </trkpt>
      <trkpt lat="44.12604" lon="1.90925">
        <ele>304.1</ele>
        <time>2012-12-29T10:49:39.000Z</time>
      </trkpt>
      <trkpt lat="44.12604" lon="1.90927">
        <ele>304.2</ele>
        <time>2012-12-29T10:49:40.000Z</time>
      </trkpt>
      <trkpt lat="44.12605" lon="1.9093">
        <ele>304.3</ele>
        <time>2012-12-29T10:49:41.000Z</time>
      </trkpt>
      <trkpt lat="44.12606" lon="1.90935">
        <ele>304.3</ele>
        <time>2012-12-29T10:49:42.000Z</time>
      </trkpt>
      <trkpt lat="44.12606" lon="1.90939">
        <ele>304.4</ele>
        <time>2012-12-29T10:49:43.000Z</time>
      </trkpt>
      <trkpt lat="44.12607" lon="1.90943">
        <ele>304.4</ele>
        <time>2012-12-29T10:49:44.000Z</time>
      </trkpt>
      <trkpt lat="44.12608" lon="1.90947">
        <ele>304.5</ele>
        <time>2012-12-29T10:49:45.000Z</time>
      </trkpt>
      <trkpt lat="44.12609" lon="1.9095">
        <ele>304.5</ele>
        <time>2012-12-29T10:49:46.000Z</time>
      </trkpt>
      <trkpt lat="44.1261" lon="1.90954">
        <ele>304.5</ele>
        <time>2012-12-29T10:49:47.000Z</time>
      </trkpt>
      <trkpt lat="44.12612" lon="1.90958">
        <ele>304.6</ele>
        <time>2012-12-29T10:49:48.000Z</time>
      </trkpt>
      <trkpt lat="44.12614" lon="1.90962">
        <ele>304.8</ele>
        <time>2012-12-29T10:49:49.000Z</time>
      </trkpt>
      <trkpt lat="44.12616" lon="1.90967">
        <ele>304.8</ele>
        <time>2012-12-29T10:49:50.000Z</time>
      </trkpt>
      <trkpt lat="44.12618" lon="1.90971">
        <ele>304.9</ele>
        <time>2012-12-29T10:49:51.000Z</time>
      </trkpt>
      <trkpt lat="44.1262" lon="1.90976">
        <ele>304.9</ele>
        <time>2012-12-29T10:49:52.000Z</time>
      </trkpt>
      <trkpt lat="44.12623" lon="1.9098">
        <ele>305</ele>
        <time>2012-12-29T10:49:53.000Z</time>
      </trkpt>
      <trkpt lat="44.12625" lon="1.90984">
        <ele>305</ele>
        <time>2012-12-29T10:49:54.000Z</time>
      </trkpt>
      <trkpt lat="44.12627" lon="1.90988">
        <ele>305.1</ele>
        <time>2012-12-29T10:49:55.000Z</time>
      </trkpt>
      <trkpt lat="44.12628" lon="1.90993">
        <ele>305.2</ele>
        <time>2012-12-29T10:49:56.000Z</time>
      </trkpt>
      <trkpt lat="44.1263" lon="1.90997">
        <ele>305.2</ele>
        <time>2012-12-29T10:49:57.000Z</time>
      </trkpt>
      <trkpt lat="44.12631" lon="1.91003">
        <ele>305.2</ele>
        <time>2012-12-29T10:49:58.000Z</time>
      </trkpt>
      <trkpt lat="44.12633" lon="1.91009">
        <ele>305.4</ele>
        <time>2012-12-29T10:49:59.000Z</time>
      </trkpt>
      <trkpt lat="44.12635" lon="1.91015">
        <ele>305.6</ele>
        <time>2012-12-29T10:50:00.000Z</time>
      </trkpt>
      <trkpt lat="44.12637" lon="1.91021">
        <ele>305.6</ele>
        <time>2012-12-29T10:50:01.000Z</time>
      </trkpt>
      <trkpt lat="44.12639" lon="1.91028">
        <ele>305.7</ele>
        <time>2012-12-29T10:50:02.000Z</time>
      </trkpt>
      <trkpt lat="44.12641" lon="1.91033">
        <ele>305.4</ele>
        <time>2012-12-29T10:50:03.000Z</time>
      </trkpt>
      <trkpt lat="44.12644" lon="1.91039">
        <ele>305.2</ele>
        <time>2012-12-29T10:50:04.000Z</time>
      </trkpt>
      <trkpt lat="44.12646" lon="1.91045">
        <ele>305.2</ele>
        <time>2012-12-29T10:50:05.000Z</time>
      </trkpt>
      <trkpt lat="44.12648" lon="1.91051">
        <ele>305.2</ele>
        <time>2012-12-29T10:50:06.000Z</time>
      </trkpt>
      <trkpt lat="44.1265" lon="1.91056">
        <ele>305.7</ele>
        <time>2012-12-29T10:50:07.000Z</time>
      </trkpt>
      <trkpt lat="44.12651" lon="1.91061">
        <ele>305.9</ele>
        <time>2012-12-29T10:50:08.000Z</time>
      </trkpt>
      <trkpt lat="44.12652" lon="1.91065">
        <ele>305.9</ele>
        <time>2012-12-29T10:50:09.000Z</time>
      </trkpt>
      <trkpt lat="44.12654" lon="1.9107">
        <ele>305.9</ele>
        <time>2012-12-29T10:50:10.000Z</time>
      </trkpt>
      <trkpt lat="44.12655" lon="1.91073">
        <ele>305.9</ele>
        <time>2012-12-29T10:50:11.000Z</time>
      </trkpt>
      <trkpt lat="44.12656" lon="1.91077">
        <ele>305.8</ele>
        <time>2012-12-29T10:50:12.000Z</time>
      </trkpt>
      <trkpt lat="44.12657" lon="1.91081">
        <ele>305.7</ele>
        <time>2012-12-29T10:50:13.000Z</time>
      </trkpt>
      <trkpt lat="44.12658" lon="1.91085">
        <ele>305.7</ele>
        <time>2012-12-29T10:50:14.000Z</time>
      </trkpt>
      <trkpt lat="44.12659" lon="1.91089">
        <ele>305.6</ele>
        <time>2012-12-29T10:50:15.000Z</time>
      </trkpt>
      <trkpt lat="44.1266" lon="1.91093">
        <ele>305.5</ele>
        <time>2012-12-29T10:50:16.000Z</time>
      </trkpt>
      <trkpt lat="44.12661" lon="1.91097">
        <ele>305.4</ele>
        <time>2012-12-29T10:50:17.000Z</time>
      </trkpt>
      <trkpt lat="44.12662" lon="1.91101">
        <ele>305.4</ele>
        <time>2012-12-29T10:50:18.000Z</time>
      </trkpt>
      <trkpt lat="44.12663" lon="1.91105">
        <ele>305.4</ele>
        <time>2012-12-29T10:50:19.000Z</time>
      </trkpt>
      <trkpt lat="44.12664" lon="1.91109">
        <ele>305.4</ele>
        <time>2012-12-29T10:50:20.000Z</time>
      </trkpt>
      <trkpt lat="44.12664" lon="1.91113">
        <ele>305.3</ele>
        <time>2012-12-29T10:50:21.000Z</time>
      </trkpt>
      <trkpt lat="44.12665" lon="1.91117">
        <ele>305.3</ele>
        <time>2012-12-29T10:50:22.000Z</time>
      </trkpt>
      <trkpt lat="44.12666" lon="1.91121">
        <ele>305.2</ele>
        <time>2012-12-29T10:50:23.000Z</time>
      </trkpt>
      <trkpt lat="44.12667" lon="1.91125">
        <ele>305.2</ele>
        <time>2012-12-29T10:50:24.000Z</time>
      </trkpt>
      <trkpt lat="44.12667" lon="1.9113">
        <ele>305.1</ele>
        <time>2012-12-29T10:50:25.000Z</time>
      </trkpt>
      <trkpt lat="44.12668" lon="1.91134">
        <ele>305.1</ele>
        <time>2012-12-29T10:50:26.000Z</time>
      </trkpt>
      <trkpt lat="44.12669" lon="1.91137">
        <ele>305</ele>
        <time>2012-12-29T10:50:27.000Z</time>
      </trkpt>
      <trkpt lat="44.12669" lon="1.9114">
        <ele>304.9</ele>
        <time>2012-12-29T10:50:28.000Z</time>
      </trkpt>
      <trkpt lat="44.1267" lon="1.91144">
        <ele>304.9</ele>
        <time>2012-12-29T10:50:29.000Z</time>
      </trkpt>
      <trkpt lat="44.12671" lon="1.91147">
        <ele>304.9</ele>
        <time>2012-12-29T10:50:30.000Z</time>
      </trkpt>
      <trkpt lat="44.12671" lon="1.91151">
        <ele>304.9</ele>
        <time>2012-12-29T10:50:31.000Z</time>
      </trkpt>
      <trkpt lat="44.12672" lon="1.91155">
        <ele>304.9</ele>
        <time>2012-12-29T10:50:32.000Z</time>
      </trkpt>
      <trkpt lat="44.12672" lon="1.91159">
        <ele>304.9</ele>
        <time>2012-12-29T10:50:33.000Z</time>
      </trkpt>
      <trkpt lat="44.12673" lon="1.91163">
        <ele>304.9</ele>
        <time>2012-12-29T10:50:34.000Z</time>
      </trkpt>
      <trkpt lat="44.12674" lon="1.91167">
        <ele>304.9</ele>
        <time>2012-12-29T10:50:35.000Z</time>
      </trkpt>
      <trkpt lat="44.12674" lon="1.9117">
        <ele>305</ele>
        <time>2012-12-29T10:50:36.000Z</time>
      </trkpt>
      <trkpt lat="44.12675" lon="1.91174">
        <ele>305</ele>
        <time>2012-12-29T10:50:37.000Z</time>
      </trkpt>
      <trkpt lat="44.12676" lon="1.91177">
        <ele>305.1</ele>
        <time>2012-12-29T10:50:38.000Z</time>
      </trkpt>
      <trkpt lat="44.12677" lon="1.91181">
        <ele>305.1</ele>
        <time>2012-12-29T10:50:39.000Z</time>
      </trkpt>
      <trkpt lat="44.12678" lon="1.91185">
        <ele>305.1</ele>
        <time>2012-12-29T10:50:40.000Z</time>
      </trkpt>
      <trkpt lat="44.12678" lon="1.91189">
        <ele>305.1</ele>
        <time>2012-12-29T10:50:41.000Z</time>
      </trkpt>
      <trkpt lat="44.12679" lon="1.91192">
        <ele>305.2</ele>
        <time>2012-12-29T10:50:42.000Z</time>
      </trkpt>
      <trkpt lat="44.1268" lon="1.91196">
        <ele>305.2</ele>
        <time>2012-12-29T10:50:43.000Z</time>
      </trkpt>
      <trkpt lat="44.12681" lon="1.912">
        <ele>305.2</ele>
        <time>2012-12-29T10:50:44.000Z</time>
      </trkpt>
      <trkpt lat="44.12681" lon="1.91203">
        <ele>305.2</ele>
        <time>2012-12-29T10:50:45.000Z</time>
      </trkpt>
      <trkpt lat="44.12682" lon="1.91207">
        <ele>305.2</ele>
        <time>2012-12-29T10:50:46.000Z</time>
      </trkpt>
      <trkpt lat="44.12683" lon="1.91211">
        <ele>305.1</ele>
        <time>2012-12-29T10:50:47.000Z</time>
      </trkpt>
      <trkpt lat="44.12683" lon="1.91215">
        <ele>305.1</ele>
        <time>2012-12-29T10:50:48.000Z</time>
      </trkpt>
      <trkpt lat="44.12684" lon="1.91218">
        <ele>305.1</ele>
        <time>2012-12-29T10:50:49.000Z</time>
      </trkpt>
      <trkpt lat="44.12685" lon="1.91221">
        <ele>305.2</ele>
        <time>2012-12-29T10:50:50.000Z</time>
      </trkpt>
      <trkpt lat="44.12686" lon="1.91225">
        <ele>305.2</ele>
        <time>2012-12-29T10:50:51.000Z</time>
      </trkpt>
      <trkpt lat="44.12687" lon="1.91229">
        <ele>305.3</ele>
        <time>2012-12-29T10:50:52.000Z</time>
      </trkpt>
      <trkpt lat="44.12687" lon="1.91233">
        <ele>305.4</ele>
        <time>2012-12-29T10:50:53.000Z</time>
      </trkpt>
      <trkpt lat="44.12688" lon="1.91237">
        <ele>305.5</ele>
        <time>2012-12-29T10:50:54.000Z</time>
      </trkpt>
      <trkpt lat="44.12689" lon="1.91241">
        <ele>305.5</ele>
        <time>2012-12-29T10:50:55.000Z</time>
      </trkpt>
      <trkpt lat="44.12689" lon="1.91245">
        <ele>305.6</ele>
        <time>2012-12-29T10:50:56.000Z</time>
      </trkpt>
      <trkpt lat="44.1269" lon="1.91249">
        <ele>305.6</ele>
        <time>2012-12-29T10:50:57.000Z</time>
      </trkpt>
      <trkpt lat="44.1269" lon="1.91253">
        <ele>305.7</ele>
        <time>2012-12-29T10:50:58.000Z</time>
      </trkpt>
      <trkpt lat="44.12691" lon="1.91257">
        <ele>305.7</ele>
        <time>2012-12-29T10:50:59.000Z</time>
      </trkpt>
      <trkpt lat="44.12691" lon="1.91261">
        <ele>305.8</ele>
        <time>2012-12-29T10:51:00.000Z</time>
      </trkpt>
      <trkpt lat="44.12691" lon="1.91265">
        <ele>305.8</ele>
        <time>2012-12-29T10:51:01.000Z</time>
      </trkpt>
      <trkpt lat="44.12692" lon="1.9127">
        <ele>305.8</ele>
        <time>2012-12-29T10:51:02.000Z</time>
      </trkpt>
      <trkpt lat="44.12692" lon="1.91274">
        <ele>305.9</ele>
        <time>2012-12-29T10:51:03.000Z</time>
      </trkpt>
      <trkpt lat="44.12692" lon="1.91278">
        <ele>306</ele>
        <time>2012-12-29T10:51:04.000Z</time>
      </trkpt>
      <trkpt lat="44.12693" lon="1.91284">
        <ele>306.1</ele>
        <time>2012-12-29T10:51:05.000Z</time>
      </trkpt>
      <trkpt lat="44.12693" lon="1.91288">
        <ele>306.3</ele>
        <time>2012-12-29T10:51:06.000Z</time>
      </trkpt>
      <trkpt lat="44.12693" lon="1.91294">
        <ele>306.4</ele>
        <time>2012-12-29T10:51:07.000Z</time>
      </trkpt>
      <trkpt lat="44.12693" lon="1.91298">
        <ele>306.6</ele>
        <time>2012-12-29T10:51:08.000Z</time>
      </trkpt>
      <trkpt lat="44.12693" lon="1.91302">
        <ele>306.7</ele>
        <time>2012-12-29T10:51:09.000Z</time>
      </trkpt>
      <trkpt lat="44.12693" lon="1.91306">
        <ele>306.7</ele>
        <time>2012-12-29T10:51:10.000Z</time>
      </trkpt>
      <trkpt lat="44.12692" lon="1.91312">
        <ele>306.9</ele>
        <time>2012-12-29T10:51:12.000Z</time>
      </trkpt>
      <trkpt lat="44.12692" lon="1.91315">
        <ele>307</ele>
        <time>2012-12-29T10:51:13.000Z</time>
      </trkpt>
      <trkpt lat="44.12691" lon="1.9132">
        <ele>307.4</ele>
        <time>2012-12-29T10:51:15.000Z</time>
      </trkpt>
      <trkpt lat="44.1269" lon="1.91324">
        <ele>307.7</ele>
        <time>2012-12-29T10:51:16.000Z</time>
      </trkpt>
      <trkpt lat="44.1269" lon="1.91327">
        <ele>307.9</ele>
        <time>2012-12-29T10:51:17.000Z</time>
      </trkpt>
      <trkpt lat="44.12689" lon="1.91331">
        <ele>308.1</ele>
        <time>2012-12-29T10:51:18.000Z</time>
      </trkpt>
      <trkpt lat="44.12688" lon="1.91334">
        <ele>308.3</ele>
        <time>2012-12-29T10:51:19.000Z</time>
      </trkpt>
      <trkpt lat="44.12688" lon="1.91337">
        <ele>308.6</ele>
        <time>2012-12-29T10:51:20.000Z</time>
      </trkpt>
      <trkpt lat="44.12687" lon="1.91342">
        <ele>308.9</ele>
        <time>2012-12-29T10:51:22.000Z</time>
      </trkpt>
      <trkpt lat="44.12686" lon="1.91346">
        <ele>309.1</ele>
        <time>2012-12-29T10:51:23.000Z</time>
      </trkpt>
      <trkpt lat="44.12685" lon="1.91349">
        <ele>309.2</ele>
        <time>2012-12-29T10:51:24.000Z</time>
      </trkpt>
      <trkpt lat="44.12685" lon="1.91353">
        <ele>309.4</ele>
        <time>2012-12-29T10:51:25.000Z</time>
      </trkpt>
      <trkpt lat="44.12684" lon="1.91356">
        <ele>309.6</ele>
        <time>2012-12-29T10:51:26.000Z</time>
      </trkpt>
      <trkpt lat="44.12683" lon="1.91359">
        <ele>309.8</ele>
        <time>2012-12-29T10:51:27.000Z</time>
      </trkpt>
      <trkpt lat="44.12682" lon="1.91361">
        <ele>310.1</ele>
        <time>2012-12-29T10:51:28.000Z</time>
      </trkpt>
      <trkpt lat="44.12682" lon="1.91364">
        <ele>310.3</ele>
        <time>2012-12-29T10:51:29.000Z</time>
      </trkpt>
      <trkpt lat="44.12681" lon="1.91368">
        <ele>310.5</ele>
        <time>2012-12-29T10:51:30.000Z</time>
      </trkpt>
      <trkpt lat="44.1268" lon="1.91371">
        <ele>310.7</ele>
        <time>2012-12-29T10:51:31.000Z</time>
      </trkpt>
      <trkpt lat="44.12679" lon="1.91374">
        <ele>310.9</ele>
        <time>2012-12-29T10:51:32.000Z</time>
      </trkpt>
      <trkpt lat="44.12678" lon="1.91377">
        <ele>311.1</ele>
        <time>2012-12-29T10:51:33.000Z</time>
      </trkpt>
      <trkpt lat="44.12676" lon="1.91382">
        <ele>311.5</ele>
        <time>2012-12-29T10:51:35.000Z</time>
      </trkpt>
      <trkpt lat="44.12675" lon="1.91385">
        <ele>311.7</ele>
        <time>2012-12-29T10:51:36.000Z</time>
      </trkpt>
      <trkpt lat="44.12673" lon="1.91391">
        <ele>312</ele>
        <time>2012-12-29T10:51:38.000Z</time>
      </trkpt>
      <trkpt lat="44.12673" lon="1.91393">
        <ele>312.2</ele>
        <time>2012-12-29T10:51:39.000Z</time>
      </trkpt>
      <trkpt lat="44.12672" lon="1.91396">
        <ele>312.4</ele>
        <time>2012-12-29T10:51:40.000Z</time>
      </trkpt>
      <trkpt lat="44.12671" lon="1.91399">
        <ele>312.5</ele>
        <time>2012-12-29T10:51:41.000Z</time>
      </trkpt>
      <trkpt lat="44.1267" lon="1.91403">
        <ele>312.7</ele>
        <time>2012-12-29T10:51:42.000Z</time>
      </trkpt>
      <trkpt lat="44.12669" lon="1.91406">
        <ele>312.8</ele>
        <time>2012-12-29T10:51:43.000Z</time>
      </trkpt>
      <trkpt lat="44.12668" lon="1.91411">
        <ele>313</ele>
        <time>2012-12-29T10:51:45.000Z</time>
      </trkpt>
      <trkpt lat="44.12667" lon="1.91414">
        <ele>313.1</ele>
        <time>2012-12-29T10:51:46.000Z</time>
      </trkpt>
      <trkpt lat="44.12665" lon="1.91417">
        <ele>313.1</ele>
        <time>2012-12-29T10:51:47.000Z</time>
      </trkpt>
      <trkpt lat="44.12664" lon="1.9142">
        <ele>313.2</ele>
        <time>2012-12-29T10:51:48.000Z</time>
      </trkpt>
      <trkpt lat="44.12663" lon="1.91423">
        <ele>313.4</ele>
        <time>2012-12-29T10:51:49.000Z</time>
      </trkpt>
      <trkpt lat="44.12662" lon="1.91426">
        <ele>313.5</ele>
        <time>2012-12-29T10:51:50.000Z</time>
      </trkpt>
      <trkpt lat="44.12661" lon="1.91429">
        <ele>313.6</ele>
        <time>2012-12-29T10:51:51.000Z</time>
      </trkpt>
      <trkpt lat="44.1266" lon="1.91433">
        <ele>313.7</ele>
        <time>2012-12-29T10:51:52.000Z</time>
      </trkpt>
      <trkpt lat="44.12659" lon="1.91436">
        <ele>313.8</ele>
        <time>2012-12-29T10:51:53.000Z</time>
      </trkpt>
      <trkpt lat="44.12657" lon="1.91439">
        <ele>313.9</ele>
        <time>2012-12-29T10:51:54.000Z</time>
      </trkpt>
      <trkpt lat="44.12656" lon="1.91442">
        <ele>314</ele>
        <time>2012-12-29T10:51:55.000Z</time>
      </trkpt>
      <trkpt lat="44.12654" lon="1.91445">
        <ele>314.1</ele>
        <time>2012-12-29T10:51:56.000Z</time>
      </trkpt>
      <trkpt lat="44.12653" lon="1.91448">
        <ele>314.1</ele>
        <time>2012-12-29T10:51:57.000Z</time>
      </trkpt>
      <trkpt lat="44.12652" lon="1.9145">
        <ele>314.2</ele>
        <time>2012-12-29T10:51:58.000Z</time>
      </trkpt>
      <trkpt lat="44.12651" lon="1.91456">
        <ele>314.4</ele>
        <time>2012-12-29T10:52:00.000Z</time>
      </trkpt>
      <trkpt lat="44.1265" lon="1.91458">
        <ele>314.5</ele>
        <time>2012-12-29T10:52:01.000Z</time>
      </trkpt>
      <trkpt lat="44.12649" lon="1.91462">
        <ele>314.7</ele>
        <time>2012-12-29T10:52:02.000Z</time>
      </trkpt>
      <trkpt lat="44.12648" lon="1.91465">
        <ele>314.8</ele>
        <time>2012-12-29T10:52:03.000Z</time>
      </trkpt>
      <trkpt lat="44.12646" lon="1.9147">
        <ele>315</ele>
        <time>2012-12-29T10:52:05.000Z</time>
      </trkpt>
      <trkpt lat="44.12645" lon="1.91473">
        <ele>315</ele>
        <time>2012-12-29T10:52:06.000Z</time>
      </trkpt>
      <trkpt lat="44.12644" lon="1.91477">
        <ele>316.1</ele>
        <time>2012-12-29T10:52:32.000Z</time>
      </trkpt>
      <trkpt lat="44.12642" lon="1.91479">
        <ele>316.1</ele>
        <time>2012-12-29T10:52:33.000Z</time>
      </trkpt>
      <trkpt lat="44.12641" lon="1.91483">
        <ele>316.3</ele>
        <time>2012-12-29T10:52:35.000Z</time>
      </trkpt>
      <trkpt lat="44.1264" lon="1.91487">
        <ele>316.4</ele>
        <time>2012-12-29T10:52:36.000Z</time>
      </trkpt>
      <trkpt lat="44.12639" lon="1.9149">
        <ele>316.4</ele>
        <time>2012-12-29T10:52:37.000Z</time>
      </trkpt>
      <trkpt lat="44.12637" lon="1.91494">
        <ele>316.5</ele>
        <time>2012-12-29T10:52:38.000Z</time>
      </trkpt>
      <trkpt lat="44.12636" lon="1.91498">
        <ele>316.6</ele>
        <time>2012-12-29T10:52:39.000Z</time>
      </trkpt>
      <trkpt lat="44.12635" lon="1.91502">
        <ele>316.7</ele>
        <time>2012-12-29T10:52:40.000Z</time>
      </trkpt>
      <trkpt lat="44.12634" lon="1.91506">
        <ele>316.8</ele>
        <time>2012-12-29T10:52:41.000Z</time>
      </trkpt>
      <trkpt lat="44.12633" lon="1.91509">
        <ele>316.9</ele>
        <time>2012-12-29T10:52:42.000Z</time>
      </trkpt>
      <trkpt lat="44.12632" lon="1.91513">
        <ele>317</ele>
        <time>2012-12-29T10:52:43.000Z</time>
      </trkpt>
      <trkpt lat="44.12631" lon="1.91516">
        <ele>317</ele>
        <time>2012-12-29T10:52:44.000Z</time>
      </trkpt>
      <trkpt lat="44.1263" lon="1.91519">
        <ele>317.1</ele>
        <time>2012-12-29T10:52:45.000Z</time>
      </trkpt>
      <trkpt lat="44.12629" lon="1.91523">
        <ele>317.1</ele>
        <time>2012-12-29T10:52:46.000Z</time>
      </trkpt>
      <trkpt lat="44.12627" lon="1.91527">
        <ele>317.1</ele>
        <time>2012-12-29T10:52:47.000Z</time>
      </trkpt>
      <trkpt lat="44.12626" lon="1.91531">
        <ele>317</ele>
        <time>2012-12-29T10:52:48.000Z</time>
      </trkpt>
      <trkpt lat="44.12625" lon="1.91536">
        <ele>317</ele>
        <time>2012-12-29T10:52:49.000Z</time>
      </trkpt>
      <trkpt lat="44.12623" lon="1.9154">
        <ele>317</ele>
        <time>2012-12-29T10:52:50.000Z</time>
      </trkpt>
      <trkpt lat="44.12621" lon="1.91546">
        <ele>317.1</ele>
        <time>2012-12-29T10:52:51.000Z</time>
      </trkpt>
      <trkpt lat="44.12619" lon="1.91552">
        <ele>317.1</ele>
        <time>2012-12-29T10:52:52.000Z</time>
      </trkpt>
      <trkpt lat="44.12618" lon="1.91556">
        <ele>317.2</ele>
        <time>2012-12-29T10:52:53.000Z</time>
      </trkpt>
      <trkpt lat="44.12616" lon="1.9156">
        <ele>317.3</ele>
        <time>2012-12-29T10:52:54.000Z</time>
      </trkpt>
      <trkpt lat="44.12615" lon="1.91564">
        <ele>317.4</ele>
        <time>2012-12-29T10:52:55.000Z</time>
      </trkpt>
      <trkpt lat="44.12614" lon="1.91567">
        <ele>317.4</ele>
        <time>2012-12-29T10:52:56.000Z</time>
      </trkpt>
      <trkpt lat="44.12612" lon="1.91571">
        <ele>317.4</ele>
        <time>2012-12-29T10:52:57.000Z</time>
      </trkpt>
      <trkpt lat="44.12611" lon="1.91575">
        <ele>317.4</ele>
        <time>2012-12-29T10:52:58.000Z</time>
      </trkpt>
      <trkpt lat="44.1261" lon="1.91579">
        <ele>317.4</ele>
        <time>2012-12-29T10:52:59.000Z</time>
      </trkpt>
      <trkpt lat="44.12608" lon="1.91583">
        <ele>317.4</ele>
        <time>2012-12-29T10:53:00.000Z</time>
      </trkpt>
      <trkpt lat="44.12607" lon="1.91587">
        <ele>317.4</ele>
        <time>2012-12-29T10:53:01.000Z</time>
      </trkpt>
      <trkpt lat="44.12605" lon="1.9159">
        <ele>317.4</ele>
        <time>2012-12-29T10:53:02.000Z</time>
      </trkpt>
      <trkpt lat="44.12603" lon="1.91594">
        <ele>317.5</ele>
        <time>2012-12-29T10:53:03.000Z</time>
      </trkpt>
      <trkpt lat="44.12602" lon="1.91599">
        <ele>317.5</ele>
        <time>2012-12-29T10:53:04.000Z</time>
      </trkpt>
      <trkpt lat="44.126" lon="1.91602">
        <ele>317.6</ele>
        <time>2012-12-29T10:53:05.000Z</time>
      </trkpt>
      <trkpt lat="44.12598" lon="1.91607">
        <ele>317.7</ele>
        <time>2012-12-29T10:53:06.000Z</time>
      </trkpt>
      <trkpt lat="44.12596" lon="1.91611">
        <ele>317.7</ele>
        <time>2012-12-29T10:53:07.000Z</time>
      </trkpt>
      <trkpt lat="44.12595" lon="1.91614">
        <ele>317.8</ele>
        <time>2012-12-29T10:53:08.000Z</time>
      </trkpt>
      <trkpt lat="44.12593" lon="1.91618">
        <ele>317.9</ele>
        <time>2012-12-29T10:53:09.000Z</time>
      </trkpt>
      <trkpt lat="44.12591" lon="1.91622">
        <ele>318</ele>
        <time>2012-12-29T10:53:10.000Z</time>
      </trkpt>
      <trkpt lat="44.1259" lon="1.91626">
        <ele>318.1</ele>
        <time>2012-12-29T10:53:11.000Z</time>
      </trkpt>
      <trkpt lat="44.12588" lon="1.9163">
        <ele>318.2</ele>
        <time>2012-12-29T10:53:12.000Z</time>
      </trkpt>
      <trkpt lat="44.12586" lon="1.91635">
        <ele>318.3</ele>
        <time>2012-12-29T10:53:13.000Z</time>
      </trkpt>
      <trkpt lat="44.12585" lon="1.91639">
        <ele>318.4</ele>
        <time>2012-12-29T10:53:14.000Z</time>
      </trkpt>
      <trkpt lat="44.12583" lon="1.91643">
        <ele>318.5</ele>
        <time>2012-12-29T10:53:15.000Z</time>
      </trkpt>
      <trkpt lat="44.12581" lon="1.91648">
        <ele>318.6</ele>
        <time>2012-12-29T10:53:16.000Z</time>
      </trkpt>
      <trkpt lat="44.12578" lon="1.91653">
        <ele>318.7</ele>
        <time>2012-12-29T10:53:17.000Z</time>
      </trkpt>
      <trkpt lat="44.12576" lon="1.91657">
        <ele>318.7</ele>
        <time>2012-12-29T10:53:18.000Z</time>
      </trkpt>
      <trkpt lat="44.12574" lon="1.91661">
        <ele>318.8</ele>
        <time>2012-12-29T10:53:19.000Z</time>
      </trkpt>
      <trkpt lat="44.12572" lon="1.91665">
        <ele>318.8</ele>
        <time>2012-12-29T10:53:20.000Z</time>
      </trkpt>
      <trkpt lat="44.12571" lon="1.91668">
        <ele>318.8</ele>
        <time>2012-12-29T10:53:21.000Z</time>
      </trkpt>
      <trkpt lat="44.12569" lon="1.91672">
        <ele>318.8</ele>
        <time>2012-12-29T10:53:22.000Z</time>
      </trkpt>
      <trkpt lat="44.12568" lon="1.91676">
        <ele>318.9</ele>
        <time>2012-12-29T10:53:23.000Z</time>
      </trkpt>
      <trkpt lat="44.12567" lon="1.91679">
        <ele>318.9</ele>
        <time>2012-12-29T10:53:24.000Z</time>
      </trkpt>
      <trkpt lat="44.12566" lon="1.91682">
        <ele>318.9</ele>
        <time>2012-12-29T10:53:25.000Z</time>
      </trkpt>
      <trkpt lat="44.12564" lon="1.91686">
        <ele>319</ele>
        <time>2012-12-29T10:53:26.000Z</time>
      </trkpt>
      <trkpt lat="44.12563" lon="1.9169">
        <ele>319</ele>
        <time>2012-12-29T10:53:27.000Z</time>
      </trkpt>
      <trkpt lat="44.12562" lon="1.91693">
        <ele>319</ele>
        <time>2012-12-29T10:53:28.000Z</time>
      </trkpt>
      <trkpt lat="44.1256" lon="1.91696">
        <ele>319</ele>
        <time>2012-12-29T10:53:29.000Z</time>
      </trkpt>
      <trkpt lat="44.1256" lon="1.91699">
        <ele>319.1</ele>
        <time>2012-12-29T10:53:30.000Z</time>
      </trkpt>
      <trkpt lat="44.1256" lon="1.91705">
        <ele>319.2</ele>
        <time>2012-12-29T10:53:32.000Z</time>
      </trkpt>
      <trkpt lat="44.12561" lon="1.91707">
        <ele>319.2</ele>
        <time>2012-12-29T10:53:33.000Z</time>
      </trkpt>
      <trkpt lat="44.12562" lon="1.91712">
        <ele>319.3</ele>
        <time>2012-12-29T10:53:35.000Z</time>
      </trkpt>
      <trkpt lat="44.12562" lon="1.91714">
        <ele>319.4</ele>
        <time>2012-12-29T10:53:36.000Z</time>
      </trkpt>
      <trkpt lat="44.12563" lon="1.91718">
        <ele>319.5</ele>
        <time>2012-12-29T10:53:38.000Z</time>
      </trkpt>
      <trkpt lat="44.12563" lon="1.9172">
        <ele>319.5</ele>
        <time>2012-12-29T10:53:39.000Z</time>
      </trkpt>
      <trkpt lat="44.12564" lon="1.91725">
        <ele>319.6</ele>
        <time>2012-12-29T10:53:41.000Z</time>
      </trkpt>
      <trkpt lat="44.12565" lon="1.91728">
        <ele>319.7</ele>
        <time>2012-12-29T10:53:42.000Z</time>
      </trkpt>
      <trkpt lat="44.12566" lon="1.91733">
        <ele>319.7</ele>
        <time>2012-12-29T10:53:44.000Z</time>
      </trkpt>
      <trkpt lat="44.12567" lon="1.91737">
        <ele>319.7</ele>
        <time>2012-12-29T10:53:45.000Z</time>
      </trkpt>
      <trkpt lat="44.12568" lon="1.91742">
        <ele>319.7</ele>
        <time>2012-12-29T10:53:47.000Z</time>
      </trkpt>
      <trkpt lat="44.12568" lon="1.91746">
        <ele>319.7</ele>
        <time>2012-12-29T10:53:48.000Z</time>
      </trkpt>
      <trkpt lat="44.12569" lon="1.91749">
        <ele>319.6</ele>
        <time>2012-12-29T10:53:49.000Z</time>
      </trkpt>
      <trkpt lat="44.1257" lon="1.91753">
        <ele>319.6</ele>
        <time>2012-12-29T10:53:50.000Z</time>
      </trkpt>
      <trkpt lat="44.1257" lon="1.91757">
        <ele>319.6</ele>
        <time>2012-12-29T10:53:51.000Z</time>
      </trkpt>
      <trkpt lat="44.12571" lon="1.9176">
        <ele>319.6</ele>
        <time>2012-12-29T10:53:52.000Z</time>
      </trkpt>
      <trkpt lat="44.12571" lon="1.91764">
        <ele>319.5</ele>
        <time>2012-12-29T10:53:53.000Z</time>
      </trkpt>
      <trkpt lat="44.12571" lon="1.91769">
        <ele>319.4</ele>
        <time>2012-12-29T10:53:54.000Z</time>
      </trkpt>
      <trkpt lat="44.12572" lon="1.91774">
        <ele>319.3</ele>
        <time>2012-12-29T10:53:55.000Z</time>
      </trkpt>
      <trkpt lat="44.12572" lon="1.91779">
        <ele>317.8</ele>
        <time>2012-12-29T10:53:56.000Z</time>
      </trkpt>
      <trkpt lat="44.12573" lon="1.91785">
        <ele>316.5</ele>
        <time>2012-12-29T10:53:57.000Z</time>
      </trkpt>
      <trkpt lat="44.12573" lon="1.91791">
        <ele>315.6</ele>
        <time>2012-12-29T10:53:58.000Z</time>
      </trkpt>
      <trkpt lat="44.12573" lon="1.91798">
        <ele>314.8</ele>
        <time>2012-12-29T10:53:59.000Z</time>
      </trkpt>
      <trkpt lat="44.12574" lon="1.91804">
        <ele>314.4</ele>
        <time>2012-12-29T10:54:00.000Z</time>
      </trkpt>
      <trkpt lat="44.12575" lon="1.91812">
        <ele>314.2</ele>
        <time>2012-12-29T10:54:01.000Z</time>
      </trkpt>
      <trkpt lat="44.12575" lon="1.91819">
        <ele>313.6</ele>
        <time>2012-12-29T10:54:02.000Z</time>
      </trkpt>
      <trkpt lat="44.12576" lon="1.91827">
        <ele>313.1</ele>
        <time>2012-12-29T10:54:03.000Z</time>
      </trkpt>
      <trkpt lat="44.12576" lon="1.91836">
        <ele>312.7</ele>
        <time>2012-12-29T10:54:04.000Z</time>
      </trkpt>
      <trkpt lat="44.12577" lon="1.91845">
        <ele>312.5</ele>
        <time>2012-12-29T10:54:05.000Z</time>
      </trkpt>
      <trkpt lat="44.12577" lon="1.91855">
        <ele>312.1</ele>
        <time>2012-12-29T10:54:06.000Z</time>
      </trkpt>
      <trkpt lat="44.12578" lon="1.91865">
        <ele>311.9</ele>
        <time>2012-12-29T10:54:07.000Z</time>
      </trkpt>
      <trkpt lat="44.12578" lon="1.91876">
        <ele>311.5</ele>
        <time>2012-12-29T10:54:08.000Z</time>
      </trkpt>
      <trkpt lat="44.12579" lon="1.91887">
        <ele>311.1</ele>
        <time>2012-12-29T10:54:09.000Z</time>
      </trkpt>
      <trkpt lat="44.12579" lon="1.91898">
        <ele>310.9</ele>
        <time>2012-12-29T10:54:10.000Z</time>
      </trkpt>
      <trkpt lat="44.12579" lon="1.91908">
        <ele>310.7</ele>
        <time>2012-12-29T10:54:11.000Z</time>
      </trkpt>
      <trkpt lat="44.12579" lon="1.91919">
        <ele>310.5</ele>
        <time>2012-12-29T10:54:12.000Z</time>
      </trkpt>
      <trkpt lat="44.12579" lon="1.91929">
        <ele>310.5</ele>
        <time>2012-12-29T10:54:13.000Z</time>
      </trkpt>
      <trkpt lat="44.12579" lon="1.9194">
        <ele>310.3</ele>
        <time>2012-12-29T10:54:14.000Z</time>
      </trkpt>
      <trkpt lat="44.12579" lon="1.9195">
        <ele>310.4</ele>
        <time>2012-12-29T10:54:15.000Z</time>
      </trkpt>
      <trkpt lat="44.12579" lon="1.91959">
        <ele>310.4</ele>
        <time>2012-12-29T10:54:16.000Z</time>
      </trkpt>
      <trkpt lat="44.1258" lon="1.91969">
        <ele>310.2</ele>
        <time>2012-12-29T10:54:17.000Z</time>
      </trkpt>
      <trkpt lat="44.1258" lon="1.9198">
        <ele>309.9</ele>
        <time>2012-12-29T10:54:18.000Z</time>
      </trkpt>
      <trkpt lat="44.1258" lon="1.91989">
        <ele>309.5</ele>
        <time>2012-12-29T10:54:19.000Z</time>
      </trkpt>
      <trkpt lat="44.1258" lon="1.91999">
        <ele>309</ele>
        <time>2012-12-29T10:54:20.000Z</time>
      </trkpt>
      <trkpt lat="44.1258" lon="1.92009">
        <ele>308.4</ele>
        <time>2012-12-29T10:54:21.000Z</time>
      </trkpt>
      <trkpt lat="44.12581" lon="1.92018">
        <ele>307.9</ele>
        <time>2012-12-29T10:54:22.000Z</time>
      </trkpt>
      <trkpt lat="44.12581" lon="1.92028">
        <ele>307.5</ele>
        <time>2012-12-29T10:54:23.000Z</time>
      </trkpt>
      <trkpt lat="44.12581" lon="1.92037">
        <ele>307.1</ele>
        <time>2012-12-29T10:54:24.000Z</time>
      </trkpt>
      <trkpt lat="44.12581" lon="1.92047">
        <ele>306.6</ele>
        <time>2012-12-29T10:54:25.000Z</time>
      </trkpt>
      <trkpt lat="44.12582" lon="1.92055">
        <ele>305.8</ele>
        <time>2012-12-29T10:54:26.000Z</time>
      </trkpt>
      <trkpt lat="44.12582" lon="1.92064">
        <ele>305.4</ele>
        <time>2012-12-29T10:54:27.000Z</time>
      </trkpt>
      <trkpt lat="44.12583" lon="1.92072">
        <ele>305</ele>
        <time>2012-12-29T10:54:28.000Z</time>
      </trkpt>
      <trkpt lat="44.12584" lon="1.92082">
        <ele>304.4</ele>
        <time>2012-12-29T10:54:29.000Z</time>
      </trkpt>
      <trkpt lat="44.12585" lon="1.9209">
        <ele>303.8</ele>
        <time>2012-12-29T10:54:30.000Z</time>
      </trkpt>
      <trkpt lat="44.12588" lon="1.92098">
        <ele>303.2</ele>
        <time>2012-12-29T10:54:31.000Z</time>
      </trkpt>
      <trkpt lat="44.1259" lon="1.92107">
        <ele>302.6</ele>
        <time>2012-12-29T10:54:32.000Z</time>
      </trkpt>
      <trkpt lat="44.12593" lon="1.92115">
        <ele>302.2</ele>
        <time>2012-12-29T10:54:33.000Z</time>
      </trkpt>
      <trkpt lat="44.12596" lon="1.92123">
        <ele>301.8</ele>
        <time>2012-12-29T10:54:34.000Z</time>
      </trkpt>
      <trkpt lat="44.12599" lon="1.92131">
        <ele>301.5</ele>
        <time>2012-12-29T10:54:35.000Z</time>
      </trkpt>
      <trkpt lat="44.12602" lon="1.92139">
        <ele>301.5</ele>
        <time>2012-12-29T10:54:36.000Z</time>
      </trkpt>
      <trkpt lat="44.12606" lon="1.92147">
        <ele>301.3</ele>
        <time>2012-12-29T10:54:37.000Z</time>
      </trkpt>
      <trkpt lat="44.12609" lon="1.92156">
        <ele>300.9</ele>
        <time>2012-12-29T10:54:38.000Z</time>
      </trkpt>
      <trkpt lat="44.12613" lon="1.92166">
        <ele>300.2</ele>
        <time>2012-12-29T10:54:39.000Z</time>
      </trkpt>
      <trkpt lat="44.12618" lon="1.92175">
        <ele>299.5</ele>
        <time>2012-12-29T10:54:40.000Z</time>
      </trkpt>
      <trkpt lat="44.12622" lon="1.92184">
        <ele>298.9</ele>
        <time>2012-12-29T10:54:41.000Z</time>
      </trkpt>
      <trkpt lat="44.12626" lon="1.92192">
        <ele>298.2</ele>
        <time>2012-12-29T10:54:42.000Z</time>
      </trkpt>
      <trkpt lat="44.12631" lon="1.92199">
        <ele>297.9</ele>
        <time>2012-12-29T10:54:43.000Z</time>
      </trkpt>
      <trkpt lat="44.12636" lon="1.92207">
        <ele>297.5</ele>
        <time>2012-12-29T10:54:44.000Z</time>
      </trkpt>
      <trkpt lat="44.12642" lon="1.92216">
        <ele>296.9</ele>
        <time>2012-12-29T10:54:45.000Z</time>
      </trkpt>
      <trkpt lat="44.12647" lon="1.92226">
        <ele>297</ele>
        <time>2012-12-29T10:54:46.000Z</time>
      </trkpt>
      <trkpt lat="44.1265" lon="1.92236">
        <ele>297.3</ele>
        <time>2012-12-29T10:54:47.000Z</time>
      </trkpt>
      <trkpt lat="44.12654" lon="1.92246">
        <ele>297.5</ele>
        <time>2012-12-29T10:54:48.000Z</time>
      </trkpt>
      <trkpt lat="44.12654" lon="1.92257">
        <ele>297.2</ele>
        <time>2012-12-29T10:54:49.000Z</time>
      </trkpt>
      <trkpt lat="44.12653" lon="1.92267">
        <ele>296.6</ele>
        <time>2012-12-29T10:54:50.000Z</time>
      </trkpt>
      <trkpt lat="44.12653" lon="1.92277">
        <ele>295.8</ele>
        <time>2012-12-29T10:54:51.000Z</time>
      </trkpt>
      <trkpt lat="44.12652" lon="1.92287">
        <ele>294.8</ele>
        <time>2012-12-29T10:54:52.000Z</time>
      </trkpt>
      <trkpt lat="44.12652" lon="1.92296">
        <ele>293.8</ele>
        <time>2012-12-29T10:54:53.000Z</time>
      </trkpt>
      <trkpt lat="44.12651" lon="1.92305">
        <ele>293.1</ele>
        <time>2012-12-29T10:54:54.000Z</time>
      </trkpt>
      <trkpt lat="44.12651" lon="1.92314">
        <ele>292.4</ele>
        <time>2012-12-29T10:54:55.000Z</time>
      </trkpt>
      <trkpt lat="44.1265" lon="1.92322">
        <ele>291.8</ele>
        <time>2012-12-29T10:54:56.000Z</time>
      </trkpt>
      <trkpt lat="44.1265" lon="1.92331">
        <ele>291.3</ele>
        <time>2012-12-29T10:54:57.000Z</time>
      </trkpt>
      <trkpt lat="44.12649" lon="1.92339">
        <ele>290.9</ele>
        <time>2012-12-29T10:54:58.000Z</time>
      </trkpt>
      <trkpt lat="44.12647" lon="1.92347">
        <ele>290.9</ele>
        <time>2012-12-29T10:54:59.000Z</time>
      </trkpt>
      <trkpt lat="44.12644" lon="1.92352">
        <ele>291</ele>
        <time>2012-12-29T10:55:00.000Z</time>
      </trkpt>
      <trkpt lat="44.12641" lon="1.92355">
        <ele>291.1</ele>
        <time>2012-12-29T10:55:01.000Z</time>
      </trkpt>
      <trkpt lat="44.12638" lon="1.92358">
        <ele>291.2</ele>
        <time>2012-12-29T10:55:02.000Z</time>
      </trkpt>
      <trkpt lat="44.12636" lon="1.9236">
        <ele>291.3</ele>
        <time>2012-12-29T10:55:03.000Z</time>
      </trkpt>
      <trkpt lat="44.12633" lon="1.92364">
        <ele>291.4</ele>
        <time>2012-12-29T10:55:04.000Z</time>
      </trkpt>
      <trkpt lat="44.12631" lon="1.92366">
        <ele>291.4</ele>
        <time>2012-12-29T10:55:05.000Z</time>
      </trkpt>
      <trkpt lat="44.12629" lon="1.92369">
        <ele>291.5</ele>
        <time>2012-12-29T10:55:06.000Z</time>
      </trkpt>
      <trkpt lat="44.12627" lon="1.92372">
        <ele>291.6</ele>
        <time>2012-12-29T10:55:07.000Z</time>
      </trkpt>
      <trkpt lat="44.12625" lon="1.92374">
        <ele>291.6</ele>
        <time>2012-12-29T10:55:08.000Z</time>
      </trkpt>
      <trkpt lat="44.12623" lon="1.92377">
        <ele>291.7</ele>
        <time>2012-12-29T10:55:09.000Z</time>
      </trkpt>
      <trkpt lat="44.12621" lon="1.92379">
        <ele>291.7</ele>
        <time>2012-12-29T10:55:10.000Z</time>
      </trkpt>
      <trkpt lat="44.1262" lon="1.92382">
        <ele>291.8</ele>
        <time>2012-12-29T10:55:11.000Z</time>
      </trkpt>
      <trkpt lat="44.12618" lon="1.92385">
        <ele>291.9</ele>
        <time>2012-12-29T10:55:12.000Z</time>
      </trkpt>
      <trkpt lat="44.12616" lon="1.92388">
        <ele>291.9</ele>
        <time>2012-12-29T10:55:13.000Z</time>
      </trkpt>
      <trkpt lat="44.12615" lon="1.92391">
        <ele>292</ele>
        <time>2012-12-29T10:55:14.000Z</time>
      </trkpt>
      <trkpt lat="44.12613" lon="1.92394">
        <ele>292</ele>
        <time>2012-12-29T10:55:15.000Z</time>
      </trkpt>
      <trkpt lat="44.12611" lon="1.92398">
        <ele>292</ele>
        <time>2012-12-29T10:55:16.000Z</time>
      </trkpt>
      <trkpt lat="44.1261" lon="1.92401">
        <ele>292</ele>
        <time>2012-12-29T10:55:17.000Z</time>
      </trkpt>
      <trkpt lat="44.12608" lon="1.92405">
        <ele>292</ele>
        <time>2012-12-29T10:55:18.000Z</time>
      </trkpt>
      <trkpt lat="44.12607" lon="1.92408">
        <ele>292.1</ele>
        <time>2012-12-29T10:55:19.000Z</time>
      </trkpt>
      <trkpt lat="44.12606" lon="1.92411">
        <ele>292.1</ele>
        <time>2012-12-29T10:55:20.000Z</time>
      </trkpt>
      <trkpt lat="44.12604" lon="1.92415">
        <ele>292.1</ele>
        <time>2012-12-29T10:55:21.000Z</time>
      </trkpt>
      <trkpt lat="44.12602" lon="1.92419">
        <ele>292.1</ele>
        <time>2012-12-29T10:55:22.000Z</time>
      </trkpt>
      <trkpt lat="44.12601" lon="1.92423">
        <ele>292.1</ele>
        <time>2012-12-29T10:55:23.000Z</time>
      </trkpt>
      <trkpt lat="44.12599" lon="1.92427">
        <ele>292.2</ele>
        <time>2012-12-29T10:55:24.000Z</time>
      </trkpt>
      <trkpt lat="44.12598" lon="1.92431">
        <ele>292.2</ele>
        <time>2012-12-29T10:55:25.000Z</time>
      </trkpt>
      <trkpt lat="44.12596" lon="1.92435">
        <ele>292.2</ele>
        <time>2012-12-29T10:55:26.000Z</time>
      </trkpt>
      <trkpt lat="44.12595" lon="1.92438">
        <ele>292.3</ele>
        <time>2012-12-29T10:55:27.000Z</time>
      </trkpt>
      <trkpt lat="44.12593" lon="1.92443">
        <ele>292.3</ele>
        <time>2012-12-29T10:55:28.000Z</time>
      </trkpt>
      <trkpt lat="44.12592" lon="1.92447">
        <ele>292.3</ele>
        <time>2012-12-29T10:55:29.000Z</time>
      </trkpt>
      <trkpt lat="44.12591" lon="1.92451">
        <ele>292.3</ele>
        <time>2012-12-29T10:55:30.000Z</time>
      </trkpt>
      <trkpt lat="44.12589" lon="1.92455">
        <ele>292.3</ele>
        <time>2012-12-29T10:55:31.000Z</time>
      </trkpt>
      <trkpt lat="44.12588" lon="1.92458">
        <ele>292.4</ele>
        <time>2012-12-29T10:55:32.000Z</time>
      </trkpt>
      <trkpt lat="44.12587" lon="1.92462">
        <ele>292.4</ele>
        <time>2012-12-29T10:55:33.000Z</time>
      </trkpt>
      <trkpt lat="44.12586" lon="1.92465">
        <ele>292.5</ele>
        <time>2012-12-29T10:55:34.000Z</time>
      </trkpt>
      <trkpt lat="44.12584" lon="1.92469">
        <ele>292.5</ele>
        <time>2012-12-29T10:55:35.000Z</time>
      </trkpt>
      <trkpt lat="44.12583" lon="1.92472">
        <ele>292.6</ele>
        <time>2012-12-29T10:55:36.000Z</time>
      </trkpt>
      <trkpt lat="44.12582" lon="1.92476">
        <ele>292.7</ele>
        <time>2012-12-29T10:55:37.000Z</time>
      </trkpt>
      <trkpt lat="44.1258" lon="1.9248">
        <ele>292.8</ele>
        <time>2012-12-29T10:55:38.000Z</time>
      </trkpt>
      <trkpt lat="44.12579" lon="1.92484">
        <ele>292.9</ele>
        <time>2012-12-29T10:55:39.000Z</time>
      </trkpt>
      <trkpt lat="44.12577" lon="1.92487">
        <ele>292.9</ele>
        <time>2012-12-29T10:55:40.000Z</time>
      </trkpt>
      <trkpt lat="44.12576" lon="1.9249">
        <ele>293</ele>
        <time>2012-12-29T10:55:41.000Z</time>
      </trkpt>
      <trkpt lat="44.12575" lon="1.92494">
        <ele>293.1</ele>
        <time>2012-12-29T10:55:42.000Z</time>
      </trkpt>
      <trkpt lat="44.12573" lon="1.92497">
        <ele>293.2</ele>
        <time>2012-12-29T10:55:43.000Z</time>
      </trkpt>
      <trkpt lat="44.12572" lon="1.925">
        <ele>293.3</ele>
        <time>2012-12-29T10:55:44.000Z</time>
      </trkpt>
      <trkpt lat="44.12571" lon="1.92503">
        <ele>293.4</ele>
        <time>2012-12-29T10:55:45.000Z</time>
      </trkpt>
      <trkpt lat="44.1257" lon="1.92507">
        <ele>293.5</ele>
        <time>2012-12-29T10:55:46.000Z</time>
      </trkpt>
      <trkpt lat="44.12568" lon="1.9251">
        <ele>293.6</ele>
        <time>2012-12-29T10:55:47.000Z</time>
      </trkpt>
      <trkpt lat="44.12567" lon="1.92514">
        <ele>293.8</ele>
        <time>2012-12-29T10:55:48.000Z</time>
      </trkpt>
      <trkpt lat="44.12566" lon="1.92517">
        <ele>293.9</ele>
        <time>2012-12-29T10:55:49.000Z</time>
      </trkpt>
      <trkpt lat="44.12566" lon="1.92521">
        <ele>294</ele>
        <time>2012-12-29T10:55:50.000Z</time>
      </trkpt>
      <trkpt lat="44.12564" lon="1.92525">
        <ele>294.1</ele>
        <time>2012-12-29T10:55:51.000Z</time>
      </trkpt>
      <trkpt lat="44.12564" lon="1.92528">
        <ele>294.2</ele>
        <time>2012-12-29T10:55:52.000Z</time>
      </trkpt>
      <trkpt lat="44.12563" lon="1.92532">
        <ele>294.4</ele>
        <time>2012-12-29T10:55:53.000Z</time>
      </trkpt>
      <trkpt lat="44.12562" lon="1.92535">
        <ele>294.5</ele>
        <time>2012-12-29T10:55:54.000Z</time>
      </trkpt>
      <trkpt lat="44.12562" lon="1.92539">
        <ele>294.6</ele>
        <time>2012-12-29T10:55:55.000Z</time>
      </trkpt>
      <trkpt lat="44.12562" lon="1.92543">
        <ele>294.7</ele>
        <time>2012-12-29T10:55:56.000Z</time>
      </trkpt>
      <trkpt lat="44.12561" lon="1.92546">
        <ele>294.8</ele>
        <time>2012-12-29T10:55:57.000Z</time>
      </trkpt>
      <trkpt lat="44.12561" lon="1.92549">
        <ele>294.9</ele>
        <time>2012-12-29T10:55:58.000Z</time>
      </trkpt>
      <trkpt lat="44.12561" lon="1.92552">
        <ele>294.9</ele>
        <time>2012-12-29T10:55:59.000Z</time>
      </trkpt>
      <trkpt lat="44.12561" lon="1.92556">
        <ele>295</ele>
        <time>2012-12-29T10:56:00.000Z</time>
      </trkpt>
      <trkpt lat="44.12561" lon="1.9256">
        <ele>295.1</ele>
        <time>2012-12-29T10:56:01.000Z</time>
      </trkpt>
      <trkpt lat="44.12561" lon="1.92565">
        <ele>295.2</ele>
        <time>2012-12-29T10:56:02.000Z</time>
      </trkpt>
      <trkpt lat="44.12561" lon="1.92569">
        <ele>295.2</ele>
        <time>2012-12-29T10:56:03.000Z</time>
      </trkpt>
      <trkpt lat="44.12561" lon="1.92573">
        <ele>295.3</ele>
        <time>2012-12-29T10:56:04.000Z</time>
      </trkpt>
      <trkpt lat="44.12562" lon="1.92576">
        <ele>295.3</ele>
        <time>2012-12-29T10:56:05.000Z</time>
      </trkpt>
      <trkpt lat="44.12562" lon="1.92579">
        <ele>295.3</ele>
        <time>2012-12-29T10:56:06.000Z</time>
      </trkpt>
      <trkpt lat="44.12562" lon="1.92582">
        <ele>295.4</ele>
        <time>2012-12-29T10:56:07.000Z</time>
      </trkpt>
      <trkpt lat="44.12563" lon="1.92585">
        <ele>295.4</ele>
        <time>2012-12-29T10:56:08.000Z</time>
      </trkpt>
      <trkpt lat="44.12564" lon="1.92589">
        <ele>295.4</ele>
        <time>2012-12-29T10:56:09.000Z</time>
      </trkpt>
      <trkpt lat="44.12564" lon="1.92593">
        <ele>295.4</ele>
        <time>2012-12-29T10:56:10.000Z</time>
      </trkpt>
      <trkpt lat="44.12565" lon="1.92597">
        <ele>295.4</ele>
        <time>2012-12-29T10:56:11.000Z</time>
      </trkpt>
      <trkpt lat="44.12565" lon="1.926">
        <ele>295.4</ele>
        <time>2012-12-29T10:56:12.000Z</time>
      </trkpt>
      <trkpt lat="44.12566" lon="1.92604">
        <ele>295.4</ele>
        <time>2012-12-29T10:56:13.000Z</time>
      </trkpt>
      <trkpt lat="44.12567" lon="1.92608">
        <ele>295.4</ele>
        <time>2012-12-29T10:56:14.000Z</time>
      </trkpt>
      <trkpt lat="44.12568" lon="1.92612">
        <ele>295.5</ele>
        <time>2012-12-29T10:56:15.000Z</time>
      </trkpt>
      <trkpt lat="44.12569" lon="1.92616">
        <ele>295.6</ele>
        <time>2012-12-29T10:56:16.000Z</time>
      </trkpt>
      <trkpt lat="44.1257" lon="1.9262">
        <ele>295.7</ele>
        <time>2012-12-29T10:56:17.000Z</time>
      </trkpt>
      <trkpt lat="44.12572" lon="1.92623">
        <ele>295.8</ele>
        <time>2012-12-29T10:56:18.000Z</time>
      </trkpt>
      <trkpt lat="44.12573" lon="1.92626">
        <ele>295.9</ele>
        <time>2012-12-29T10:56:19.000Z</time>
      </trkpt>
      <trkpt lat="44.12574" lon="1.9263">
        <ele>295.9</ele>
        <time>2012-12-29T10:56:20.000Z</time>
      </trkpt>
      <trkpt lat="44.12576" lon="1.92633">
        <ele>296</ele>
        <time>2012-12-29T10:56:21.000Z</time>
      </trkpt>
      <trkpt lat="44.12577" lon="1.92637">
        <ele>296.1</ele>
        <time>2012-12-29T10:56:22.000Z</time>
      </trkpt>
      <trkpt lat="44.12579" lon="1.92641">
        <ele>296.1</ele>
        <time>2012-12-29T10:56:23.000Z</time>
      </trkpt>
      <trkpt lat="44.1258" lon="1.92644">
        <ele>296.2</ele>
        <time>2012-12-29T10:56:24.000Z</time>
      </trkpt>
      <trkpt lat="44.12582" lon="1.92648">
        <ele>296.2</ele>
        <time>2012-12-29T10:56:25.000Z</time>
      </trkpt>
      <trkpt lat="44.12584" lon="1.92652">
        <ele>296.3</ele>
        <time>2012-12-29T10:56:26.000Z</time>
      </trkpt>
      <trkpt lat="44.12585" lon="1.92656">
        <ele>296.4</ele>
        <time>2012-12-29T10:56:27.000Z</time>
      </trkpt>
      <trkpt lat="44.12587" lon="1.92659">
        <ele>296.5</ele>
        <time>2012-12-29T10:56:28.000Z</time>
      </trkpt>
      <trkpt lat="44.12588" lon="1.92662">
        <ele>296.7</ele>
        <time>2012-12-29T10:56:29.000Z</time>
      </trkpt>
      <trkpt lat="44.1259" lon="1.92665">
        <ele>296.9</ele>
        <time>2012-12-29T10:56:30.000Z</time>
      </trkpt>
      <trkpt lat="44.12591" lon="1.92668">
        <ele>297.1</ele>
        <time>2012-12-29T10:56:31.000Z</time>
      </trkpt>
      <trkpt lat="44.12593" lon="1.92672">
        <ele>297.4</ele>
        <time>2012-12-29T10:56:32.000Z</time>
      </trkpt>
      <trkpt lat="44.12594" lon="1.92676">
        <ele>297.6</ele>
        <time>2012-12-29T10:56:33.000Z</time>
      </trkpt>
      <trkpt lat="44.12596" lon="1.9268">
        <ele>297.8</ele>
        <time>2012-12-29T10:56:34.000Z</time>
      </trkpt>
      <trkpt lat="44.12597" lon="1.92684">
        <ele>298</ele>
        <time>2012-12-29T10:56:35.000Z</time>
      </trkpt>
      <trkpt lat="44.12599" lon="1.92687">
        <ele>298.2</ele>
        <time>2012-12-29T10:56:36.000Z</time>
      </trkpt>
      <trkpt lat="44.12601" lon="1.92691">
        <ele>298.4</ele>
        <time>2012-12-29T10:56:37.000Z</time>
      </trkpt>
      <trkpt lat="44.12603" lon="1.92695">
        <ele>298.7</ele>
        <time>2012-12-29T10:56:38.000Z</time>
      </trkpt>
      <trkpt lat="44.12604" lon="1.92699">
        <ele>298.9</ele>
        <time>2012-12-29T10:56:39.000Z</time>
      </trkpt>
      <trkpt lat="44.12606" lon="1.92703">
        <ele>299.1</ele>
        <time>2012-12-29T10:56:40.000Z</time>
      </trkpt>
      <trkpt lat="44.12608" lon="1.92706">
        <ele>299.3</ele>
        <time>2012-12-29T10:56:41.000Z</time>
      </trkpt>
      <trkpt lat="44.1261" lon="1.9271">
        <ele>299.4</ele>
        <time>2012-12-29T10:56:42.000Z</time>
      </trkpt>
      <trkpt lat="44.12611" lon="1.92713">
        <ele>299.5</ele>
        <time>2012-12-29T10:56:43.000Z</time>
      </trkpt>
      <trkpt lat="44.12613" lon="1.92717">
        <ele>299.5</ele>
        <time>2012-12-29T10:56:44.000Z</time>
      </trkpt>
      <trkpt lat="44.12615" lon="1.9272">
        <ele>299.5</ele>
        <time>2012-12-29T10:56:45.000Z</time>
      </trkpt>
      <trkpt lat="44.12617" lon="1.92724">
        <ele>299.6</ele>
        <time>2012-12-29T10:56:46.000Z</time>
      </trkpt>
      <trkpt lat="44.12618" lon="1.92727">
        <ele>299.6</ele>
        <time>2012-12-29T10:56:47.000Z</time>
      </trkpt>
      <trkpt lat="44.1262" lon="1.92731">
        <ele>299.7</ele>
        <time>2012-12-29T10:56:48.000Z</time>
      </trkpt>
      <trkpt lat="44.12622" lon="1.92735">
        <ele>299.7</ele>
        <time>2012-12-29T10:56:49.000Z</time>
      </trkpt>
      <trkpt lat="44.12624" lon="1.92739">
        <ele>299.7</ele>
        <time>2012-12-29T10:56:50.000Z</time>
      </trkpt>
      <trkpt lat="44.12626" lon="1.92743">
        <ele>299.8</ele>
        <time>2012-12-29T10:56:51.000Z</time>
      </trkpt>
      <trkpt lat="44.12627" lon="1.92747">
        <ele>299.8</ele>
        <time>2012-12-29T10:56:52.000Z</time>
      </trkpt>
      <trkpt lat="44.12629" lon="1.92751">
        <ele>299.8</ele>
        <time>2012-12-29T10:56:53.000Z</time>
      </trkpt>
      <trkpt lat="44.12631" lon="1.92754">
        <ele>299.9</ele>
        <time>2012-12-29T10:56:54.000Z</time>
      </trkpt>
      <trkpt lat="44.12633" lon="1.92757">
        <ele>299.9</ele>
        <time>2012-12-29T10:56:55.000Z</time>
      </trkpt>
      <trkpt lat="44.12635" lon="1.92761">
        <ele>300</ele>
        <time>2012-12-29T10:56:56.000Z</time>
      </trkpt>
      <trkpt lat="44.12637" lon="1.92764">
        <ele>300</ele>
        <time>2012-12-29T10:56:57.000Z</time>
      </trkpt>
      <trkpt lat="44.12639" lon="1.92767">
        <ele>300.1</ele>
        <time>2012-12-29T10:56:58.000Z</time>
      </trkpt>
      <trkpt lat="44.12641" lon="1.9277">
        <ele>300.1</ele>
        <time>2012-12-29T10:56:59.000Z</time>
      </trkpt>
      <trkpt lat="44.12643" lon="1.92774">
        <ele>300.3</ele>
        <time>2012-12-29T10:57:00.000Z</time>
      </trkpt>
      <trkpt lat="44.12646" lon="1.92777">
        <ele>300.3</ele>
        <time>2012-12-29T10:57:01.000Z</time>
      </trkpt>
      <trkpt lat="44.12648" lon="1.9278">
        <ele>300.4</ele>
        <time>2012-12-29T10:57:02.000Z</time>
      </trkpt>
      <trkpt lat="44.1265" lon="1.92784">
        <ele>300.5</ele>
        <time>2012-12-29T10:57:03.000Z</time>
      </trkpt>
      <trkpt lat="44.12652" lon="1.92786">
        <ele>300.6</ele>
        <time>2012-12-29T10:57:04.000Z</time>
      </trkpt>
      <trkpt lat="44.12654" lon="1.92788">
        <ele>300.8</ele>
        <time>2012-12-29T10:57:05.000Z</time>
      </trkpt>
      <trkpt lat="44.12657" lon="1.92791">
        <ele>300.9</ele>
        <time>2012-12-29T10:57:06.000Z</time>
      </trkpt>
      <trkpt lat="44.1266" lon="1.92794">
        <ele>301</ele>
        <time>2012-12-29T10:57:07.000Z</time>
      </trkpt>
      <trkpt lat="44.12662" lon="1.92797">
        <ele>301.1</ele>
        <time>2012-12-29T10:57:08.000Z</time>
      </trkpt>
      <trkpt lat="44.12665" lon="1.92801">
        <ele>301.2</ele>
        <time>2012-12-29T10:57:09.000Z</time>
      </trkpt>
      <trkpt lat="44.12668" lon="1.92805">
        <ele>301.3</ele>
        <time>2012-12-29T10:57:10.000Z</time>
      </trkpt>
      <trkpt lat="44.1267" lon="1.92809">
        <ele>301.4</ele>
        <time>2012-12-29T10:57:11.000Z</time>
      </trkpt>
      <trkpt lat="44.12671" lon="1.92813">
        <ele>301.4</ele>
        <time>2012-12-29T10:57:12.000Z</time>
      </trkpt>
      <trkpt lat="44.12672" lon="1.92816">
        <ele>301.5</ele>
        <time>2012-12-29T10:57:13.000Z</time>
      </trkpt>
      <trkpt lat="44.12673" lon="1.9282">
        <ele>301.5</ele>
        <time>2012-12-29T10:57:14.000Z</time>
      </trkpt>
      <trkpt lat="44.12674" lon="1.92823">
        <ele>301.6</ele>
        <time>2012-12-29T10:57:15.000Z</time>
      </trkpt>
      <trkpt lat="44.12675" lon="1.92826">
        <ele>301.7</ele>
        <time>2012-12-29T10:57:16.000Z</time>
      </trkpt>
      <trkpt lat="44.12676" lon="1.9283">
        <ele>301.9</ele>
        <time>2012-12-29T10:57:17.000Z</time>
      </trkpt>
      <trkpt lat="44.12676" lon="1.92834">
        <ele>302</ele>
        <time>2012-12-29T10:57:18.000Z</time>
      </trkpt>
      <trkpt lat="44.12677" lon="1.92838">
        <ele>302.2</ele>
        <time>2012-12-29T10:57:19.000Z</time>
      </trkpt>
      <trkpt lat="44.12677" lon="1.92842">
        <ele>302.4</ele>
        <time>2012-12-29T10:57:20.000Z</time>
      </trkpt>
      <trkpt lat="44.12678" lon="1.92845">
        <ele>302.5</ele>
        <time>2012-12-29T10:57:21.000Z</time>
      </trkpt>
      <trkpt lat="44.12678" lon="1.92849">
        <ele>302.7</ele>
        <time>2012-12-29T10:57:22.000Z</time>
      </trkpt>
      <trkpt lat="44.12678" lon="1.92852">
        <ele>302.8</ele>
        <time>2012-12-29T10:57:23.000Z</time>
      </trkpt>
      <trkpt lat="44.12678" lon="1.92856">
        <ele>302.9</ele>
        <time>2012-12-29T10:57:24.000Z</time>
      </trkpt>
      <trkpt lat="44.12678" lon="1.92859">
        <ele>303</ele>
        <time>2012-12-29T10:57:25.000Z</time>
      </trkpt>
      <trkpt lat="44.12678" lon="1.92863">
        <ele>303.1</ele>
        <time>2012-12-29T10:57:26.000Z</time>
      </trkpt>
      <trkpt lat="44.12679" lon="1.92867">
        <ele>303.2</ele>
        <time>2012-12-29T10:57:27.000Z</time>
      </trkpt>
      <trkpt lat="44.12679" lon="1.92871">
        <ele>303.2</ele>
        <time>2012-12-29T10:57:28.000Z</time>
      </trkpt>
      <trkpt lat="44.12679" lon="1.92875">
        <ele>303.3</ele>
        <time>2012-12-29T10:57:29.000Z</time>
      </trkpt>
      <trkpt lat="44.12679" lon="1.92879">
        <ele>303.4</ele>
        <time>2012-12-29T10:57:30.000Z</time>
      </trkpt>
      <trkpt lat="44.12679" lon="1.92883">
        <ele>303.4</ele>
        <time>2012-12-29T10:57:31.000Z</time>
      </trkpt>
      <trkpt lat="44.12679" lon="1.92887">
        <ele>303.5</ele>
        <time>2012-12-29T10:57:32.000Z</time>
      </trkpt>
      <trkpt lat="44.1268" lon="1.92892">
        <ele>303.5</ele>
        <time>2012-12-29T10:57:33.000Z</time>
      </trkpt>
      <trkpt lat="44.1268" lon="1.92896">
        <ele>303.7</ele>
        <time>2012-12-29T10:57:34.000Z</time>
      </trkpt>
      <trkpt lat="44.1268" lon="1.929">
        <ele>303.8</ele>
        <time>2012-12-29T10:57:35.000Z</time>
      </trkpt>
      <trkpt lat="44.1268" lon="1.92905">
        <ele>303.9</ele>
        <time>2012-12-29T10:57:36.000Z</time>
      </trkpt>
      <trkpt lat="44.1268" lon="1.92909">
        <ele>304</ele>
        <time>2012-12-29T10:57:37.000Z</time>
      </trkpt>
      <trkpt lat="44.12681" lon="1.92913">
        <ele>304.1</ele>
        <time>2012-12-29T10:57:38.000Z</time>
      </trkpt>
      <trkpt lat="44.12681" lon="1.92916">
        <ele>304.1</ele>
        <time>2012-12-29T10:57:39.000Z</time>
      </trkpt>
      <trkpt lat="44.12681" lon="1.92921">
        <ele>304.1</ele>
        <time>2012-12-29T10:57:40.000Z</time>
      </trkpt>
      <trkpt lat="44.12681" lon="1.92924">
        <ele>304.2</ele>
        <time>2012-12-29T10:57:41.000Z</time>
      </trkpt>
      <trkpt lat="44.12681" lon="1.92928">
        <ele>304.3</ele>
        <time>2012-12-29T10:57:42.000Z</time>
      </trkpt>
      <trkpt lat="44.12681" lon="1.92933">
        <ele>304.4</ele>
        <time>2012-12-29T10:57:43.000Z</time>
      </trkpt>
      <trkpt lat="44.12681" lon="1.92937">
        <ele>304.4</ele>
        <time>2012-12-29T10:57:44.000Z</time>
      </trkpt>
      <trkpt lat="44.12682" lon="1.92941">
        <ele>304.5</ele>
        <time>2012-12-29T10:57:45.000Z</time>
      </trkpt>
      <trkpt lat="44.12682" lon="1.92945">
        <ele>304.5</ele>
        <time>2012-12-29T10:57:46.000Z</time>
      </trkpt>
      <trkpt lat="44.12682" lon="1.92949">
        <ele>304.5</ele>
        <time>2012-12-29T10:57:47.000Z</time>
      </trkpt>
      <trkpt lat="44.12682" lon="1.92954">
        <ele>304.6</ele>
        <time>2012-12-29T10:57:48.000Z</time>
      </trkpt>
      <trkpt lat="44.12682" lon="1.92959">
        <ele>304.6</ele>
        <time>2012-12-29T10:57:49.000Z</time>
      </trkpt>
      <trkpt lat="44.12682" lon="1.92963">
        <ele>304.6</ele>
        <time>2012-12-29T10:57:50.000Z</time>
      </trkpt>
      <trkpt lat="44.12682" lon="1.92967">
        <ele>304.7</ele>
        <time>2012-12-29T10:57:51.000Z</time>
      </trkpt>
      <trkpt lat="44.12682" lon="1.9297">
        <ele>304.7</ele>
        <time>2012-12-29T10:57:52.000Z</time>
      </trkpt>
      <trkpt lat="44.12683" lon="1.92973">
        <ele>304.8</ele>
        <time>2012-12-29T10:57:53.000Z</time>
      </trkpt>
      <trkpt lat="44.12683" lon="1.92977">
        <ele>304.9</ele>
        <time>2012-12-29T10:57:54.000Z</time>
      </trkpt>
      <trkpt lat="44.12683" lon="1.92981">
        <ele>305</ele>
        <time>2012-12-29T10:57:55.000Z</time>
      </trkpt>
      <trkpt lat="44.12683" lon="1.92985">
        <ele>305</ele>
        <time>2012-12-29T10:57:56.000Z</time>
      </trkpt>
      <trkpt lat="44.12684" lon="1.92988">
        <ele>305.1</ele>
        <time>2012-12-29T10:57:57.000Z</time>
      </trkpt>
      <trkpt lat="44.12684" lon="1.92991">
        <ele>305.1</ele>
        <time>2012-12-29T10:57:58.000Z</time>
      </trkpt>
      <trkpt lat="44.12685" lon="1.92995">
        <ele>305.2</ele>
        <time>2012-12-29T10:57:59.000Z</time>
      </trkpt>
      <trkpt lat="44.12685" lon="1.92999">
        <ele>305.3</ele>
        <time>2012-12-29T10:58:00.000Z</time>
      </trkpt>
      <trkpt lat="44.12686" lon="1.93002">
        <ele>305.4</ele>
        <time>2012-12-29T10:58:01.000Z</time>
      </trkpt>
      <trkpt lat="44.12686" lon="1.93006">
        <ele>305.5</ele>
        <time>2012-12-29T10:58:02.000Z</time>
      </trkpt>
      <trkpt lat="44.12687" lon="1.93009">
        <ele>305.6</ele>
        <time>2012-12-29T10:58:03.000Z</time>
      </trkpt>
      <trkpt lat="44.12687" lon="1.93012">
        <ele>305.6</ele>
        <time>2012-12-29T10:58:04.000Z</time>
      </trkpt>
      <trkpt lat="44.12688" lon="1.93018">
        <ele>305.8</ele>
        <time>2012-12-29T10:58:06.000Z</time>
      </trkpt>
      <trkpt lat="44.12688" lon="1.93021">
        <ele>305.9</ele>
        <time>2012-12-29T10:58:07.000Z</time>
      </trkpt>
      <trkpt lat="44.12689" lon="1.93025">
        <ele>305.9</ele>
        <time>2012-12-29T10:58:08.000Z</time>
      </trkpt>
      <trkpt lat="44.12689" lon="1.93029">
        <ele>306</ele>
        <time>2012-12-29T10:58:09.000Z</time>
      </trkpt>
      <trkpt lat="44.1269" lon="1.93033">
        <ele>306.1</ele>
        <time>2012-12-29T10:58:10.000Z</time>
      </trkpt>
      <trkpt lat="44.1269" lon="1.93037">
        <ele>306.2</ele>
        <time>2012-12-29T10:58:11.000Z</time>
      </trkpt>
      <trkpt lat="44.12691" lon="1.9304">
        <ele>306.3</ele>
        <time>2012-12-29T10:58:12.000Z</time>
      </trkpt>
      <trkpt lat="44.12691" lon="1.93044">
        <ele>306.4</ele>
        <time>2012-12-29T10:58:13.000Z</time>
      </trkpt>
      <trkpt lat="44.12692" lon="1.93047">
        <ele>306.5</ele>
        <time>2012-12-29T10:58:14.000Z</time>
      </trkpt>
      <trkpt lat="44.12692" lon="1.9305">
        <ele>306.6</ele>
        <time>2012-12-29T10:58:15.000Z</time>
      </trkpt>
      <trkpt lat="44.12692" lon="1.93053">
        <ele>306.7</ele>
        <time>2012-12-29T10:58:16.000Z</time>
      </trkpt>
      <trkpt lat="44.12693" lon="1.93057">
        <ele>306.8</ele>
        <time>2012-12-29T10:58:17.000Z</time>
      </trkpt>
      <trkpt lat="44.12693" lon="1.9306">
        <ele>306.9</ele>
        <time>2012-12-29T10:58:18.000Z</time>
      </trkpt>
      <trkpt lat="44.12693" lon="1.93063">
        <ele>307</ele>
        <time>2012-12-29T10:58:19.000Z</time>
      </trkpt>
      <trkpt lat="44.12693" lon="1.93067">
        <ele>307.1</ele>
        <time>2012-12-29T10:58:20.000Z</time>
      </trkpt>
      <trkpt lat="44.12693" lon="1.9307">
        <ele>307.3</ele>
        <time>2012-12-29T10:58:21.000Z</time>
      </trkpt>
      <trkpt lat="44.12693" lon="1.93074">
        <ele>307.4</ele>
        <time>2012-12-29T10:58:22.000Z</time>
      </trkpt>
      <trkpt lat="44.12693" lon="1.93077">
        <ele>307.5</ele>
        <time>2012-12-29T10:58:23.000Z</time>
      </trkpt>
      <trkpt lat="44.12693" lon="1.93082">
        <ele>307.6</ele>
        <time>2012-12-29T10:58:25.000Z</time>
      </trkpt>
      <trkpt lat="44.12694" lon="1.93085">
        <ele>307.7</ele>
        <time>2012-12-29T10:58:26.000Z</time>
      </trkpt>
      <trkpt lat="44.12694" lon="1.93088">
        <ele>307.8</ele>
        <time>2012-12-29T10:58:27.000Z</time>
      </trkpt>
      <trkpt lat="44.12694" lon="1.93092">
        <ele>307.9</ele>
        <time>2012-12-29T10:58:28.000Z</time>
      </trkpt>
      <trkpt lat="44.12695" lon="1.93095">
        <ele>307.9</ele>
        <time>2012-12-29T10:58:29.000Z</time>
      </trkpt>
      <trkpt lat="44.12695" lon="1.93099">
        <ele>307.9</ele>
        <time>2012-12-29T10:58:30.000Z</time>
      </trkpt>
      <trkpt lat="44.12695" lon="1.93105">
        <ele>307.9</ele>
        <time>2012-12-29T10:58:32.000Z</time>
      </trkpt>
      <trkpt lat="44.12695" lon="1.93108">
        <ele>307.9</ele>
        <time>2012-12-29T10:58:33.000Z</time>
      </trkpt>
      <trkpt lat="44.12695" lon="1.93112">
        <ele>307.8</ele>
        <time>2012-12-29T10:58:34.000Z</time>
      </trkpt>
      <trkpt lat="44.12695" lon="1.93115">
        <ele>307.7</ele>
        <time>2012-12-29T10:58:35.000Z</time>
      </trkpt>
      <trkpt lat="44.12695" lon="1.93118">
        <ele>307.6</ele>
        <time>2012-12-29T10:58:36.000Z</time>
      </trkpt>
      <trkpt lat="44.12695" lon="1.93122">
        <ele>307.5</ele>
        <time>2012-12-29T10:58:37.000Z</time>
      </trkpt>
      <trkpt lat="44.12695" lon="1.93126">
        <ele>307.4</ele>
        <time>2012-12-29T10:58:38.000Z</time>
      </trkpt>
      <trkpt lat="44.12695" lon="1.93129">
        <ele>307.3</ele>
        <time>2012-12-29T10:58:39.000Z</time>
      </trkpt>
      <trkpt lat="44.12695" lon="1.93133">
        <ele>307.2</ele>
        <time>2012-12-29T10:58:40.000Z</time>
      </trkpt>
      <trkpt lat="44.12696" lon="1.93136">
        <ele>307.2</ele>
        <time>2012-12-29T10:58:41.000Z</time>
      </trkpt>
      <trkpt lat="44.12696" lon="1.9314">
        <ele>307.1</ele>
        <time>2012-12-29T10:58:42.000Z</time>
      </trkpt>
      <trkpt lat="44.12697" lon="1.93144">
        <ele>307</ele>
        <time>2012-12-29T10:58:43.000Z</time>
      </trkpt>
      <trkpt lat="44.12698" lon="1.93148">
        <ele>307</ele>
        <time>2012-12-29T10:58:44.000Z</time>
      </trkpt>
      <trkpt lat="44.12698" lon="1.93152">
        <ele>307</ele>
        <time>2012-12-29T10:58:45.000Z</time>
      </trkpt>
      <trkpt lat="44.12699" lon="1.93156">
        <ele>307</ele>
        <time>2012-12-29T10:58:46.000Z</time>
      </trkpt>
      <trkpt lat="44.127" lon="1.9316">
        <ele>307.1</ele>
        <time>2012-12-29T10:58:47.000Z</time>
      </trkpt>
      <trkpt lat="44.127" lon="1.93164">
        <ele>307.1</ele>
        <time>2012-12-29T10:58:48.000Z</time>
      </trkpt>
      <trkpt lat="44.12701" lon="1.93167">
        <ele>307.2</ele>
        <time>2012-12-29T10:58:49.000Z</time>
      </trkpt>
      <trkpt lat="44.12701" lon="1.93171">
        <ele>307.3</ele>
        <time>2012-12-29T10:58:50.000Z</time>
      </trkpt>
      <trkpt lat="44.12702" lon="1.93174">
        <ele>307.5</ele>
        <time>2012-12-29T10:58:51.000Z</time>
      </trkpt>
      <trkpt lat="44.12703" lon="1.93177">
        <ele>307.7</ele>
        <time>2012-12-29T10:58:52.000Z</time>
      </trkpt>
      <trkpt lat="44.12703" lon="1.9318">
        <ele>307.7</ele>
        <time>2012-12-29T10:58:53.000Z</time>
      </trkpt>
      <trkpt lat="44.12704" lon="1.93184">
        <ele>307.8</ele>
        <time>2012-12-29T10:58:54.000Z</time>
      </trkpt>
      <trkpt lat="44.12705" lon="1.93187">
        <ele>307.9</ele>
        <time>2012-12-29T10:58:55.000Z</time>
      </trkpt>
      <trkpt lat="44.12705" lon="1.93191">
        <ele>307.9</ele>
        <time>2012-12-29T10:58:56.000Z</time>
      </trkpt>
      <trkpt lat="44.12707" lon="1.93194">
        <ele>308</ele>
        <time>2012-12-29T10:58:57.000Z</time>
      </trkpt>
      <trkpt lat="44.12708" lon="1.93197">
        <ele>308.1</ele>
        <time>2012-12-29T10:58:58.000Z</time>
      </trkpt>
      <trkpt lat="44.12709" lon="1.93201">
        <ele>308.2</ele>
        <time>2012-12-29T10:58:59.000Z</time>
      </trkpt>
      <trkpt lat="44.1271" lon="1.93204">
        <ele>308.3</ele>
        <time>2012-12-29T10:59:00.000Z</time>
      </trkpt>
      <trkpt lat="44.12711" lon="1.93207">
        <ele>308.3</ele>
        <time>2012-12-29T10:59:01.000Z</time>
      </trkpt>
      <trkpt lat="44.12713" lon="1.93212">
        <ele>308.5</ele>
        <time>2012-12-29T10:59:03.000Z</time>
      </trkpt>
      <trkpt lat="44.12715" lon="1.93215">
        <ele>308.5</ele>
        <time>2012-12-29T10:59:04.000Z</time>
      </trkpt>
      <trkpt lat="44.12716" lon="1.93218">
        <ele>308.6</ele>
        <time>2012-12-29T10:59:05.000Z</time>
      </trkpt>
      <trkpt lat="44.12717" lon="1.9322">
        <ele>308.6</ele>
        <time>2012-12-29T10:59:06.000Z</time>
      </trkpt>
      <trkpt lat="44.12719" lon="1.93223">
        <ele>308.7</ele>
        <time>2012-12-29T10:59:07.000Z</time>
      </trkpt>
      <trkpt lat="44.1272" lon="1.93226">
        <ele>308.7</ele>
        <time>2012-12-29T10:59:08.000Z</time>
      </trkpt>
      <trkpt lat="44.12722" lon="1.93228">
        <ele>308.7</ele>
        <time>2012-12-29T10:59:09.000Z</time>
      </trkpt>
      <trkpt lat="44.12723" lon="1.93231">
        <ele>308.7</ele>
        <time>2012-12-29T10:59:10.000Z</time>
      </trkpt>
      <trkpt lat="44.12725" lon="1.93234">
        <ele>308.8</ele>
        <time>2012-12-29T10:59:11.000Z</time>
      </trkpt>
      <trkpt lat="44.12726" lon="1.93237">
        <ele>308.8</ele>
        <time>2012-12-29T10:59:12.000Z</time>
      </trkpt>
      <trkpt lat="44.12728" lon="1.93239">
        <ele>308.8</ele>
        <time>2012-12-29T10:59:13.000Z</time>
      </trkpt>
      <trkpt lat="44.12729" lon="1.93242">
        <ele>308.9</ele>
        <time>2012-12-29T10:59:14.000Z</time>
      </trkpt>
      <trkpt lat="44.12731" lon="1.93247">
        <ele>309</ele>
        <time>2012-12-29T10:59:16.000Z</time>
      </trkpt>
      <trkpt lat="44.12733" lon="1.93249">
        <ele>309.1</ele>
        <time>2012-12-29T10:59:17.000Z</time>
      </trkpt>
      <trkpt lat="44.12734" lon="1.93251">
        <ele>309.3</ele>
        <time>2012-12-29T10:59:18.000Z</time>
      </trkpt>
      <trkpt lat="44.12736" lon="1.93254">
        <ele>309.4</ele>
        <time>2012-12-29T10:59:19.000Z</time>
      </trkpt>
      <trkpt lat="44.12738" lon="1.93256">
        <ele>309.5</ele>
        <time>2012-12-29T10:59:20.000Z</time>
      </trkpt>
      <trkpt lat="44.1274" lon="1.93259">
        <ele>309.6</ele>
        <time>2012-12-29T10:59:21.000Z</time>
      </trkpt>
      <trkpt lat="44.12742" lon="1.93262">
        <ele>309.6</ele>
        <time>2012-12-29T10:59:22.000Z</time>
      </trkpt>
      <trkpt lat="44.12744" lon="1.93264">
        <ele>309.7</ele>
        <time>2012-12-29T10:59:23.000Z</time>
      </trkpt>
      <trkpt lat="44.12746" lon="1.93267">
        <ele>309.7</ele>
        <time>2012-12-29T10:59:24.000Z</time>
      </trkpt>
      <trkpt lat="44.12747" lon="1.93269">
        <ele>309.7</ele>
        <time>2012-12-29T10:59:25.000Z</time>
      </trkpt>
      <trkpt lat="44.12749" lon="1.93271">
        <ele>309.6</ele>
        <time>2012-12-29T10:59:26.000Z</time>
      </trkpt>
      <trkpt lat="44.12751" lon="1.93273">
        <ele>309.6</ele>
        <time>2012-12-29T10:59:27.000Z</time>
      </trkpt>
      <trkpt lat="44.12753" lon="1.93275">
        <ele>309.7</ele>
        <time>2012-12-29T10:59:28.000Z</time>
      </trkpt>
      <trkpt lat="44.12755" lon="1.93277">
        <ele>309.7</ele>
        <time>2012-12-29T10:59:29.000Z</time>
      </trkpt>
      <trkpt lat="44.12757" lon="1.93279">
        <ele>309.7</ele>
        <time>2012-12-29T10:59:30.000Z</time>
      </trkpt>
      <trkpt lat="44.12759" lon="1.93282">
        <ele>309.7</ele>
        <time>2012-12-29T10:59:31.000Z</time>
      </trkpt>
      <trkpt lat="44.12761" lon="1.93284">
        <ele>309.8</ele>
        <time>2012-12-29T10:59:32.000Z</time>
      </trkpt>
      <trkpt lat="44.12763" lon="1.93286">
        <ele>309.8</ele>
        <time>2012-12-29T10:59:33.000Z</time>
      </trkpt>
      <trkpt lat="44.12765" lon="1.93289">
        <ele>309.9</ele>
        <time>2012-12-29T10:59:34.000Z</time>
      </trkpt>
      <trkpt lat="44.12768" lon="1.93291">
        <ele>309.9</ele>
        <time>2012-12-29T10:59:35.000Z</time>
      </trkpt>
      <trkpt lat="44.1277" lon="1.93294">
        <ele>309.9</ele>
        <time>2012-12-29T10:59:36.000Z</time>
      </trkpt>
      <trkpt lat="44.12772" lon="1.93296">
        <ele>310</ele>
        <time>2012-12-29T10:59:37.000Z</time>
      </trkpt>
      <trkpt lat="44.12774" lon="1.93299">
        <ele>310</ele>
        <time>2012-12-29T10:59:38.000Z</time>
      </trkpt>
      <trkpt lat="44.12776" lon="1.93302">
        <ele>310.1</ele>
        <time>2012-12-29T10:59:39.000Z</time>
      </trkpt>
      <trkpt lat="44.12779" lon="1.93305">
        <ele>310.1</ele>
        <time>2012-12-29T10:59:40.000Z</time>
      </trkpt>
      <trkpt lat="44.1278" lon="1.93309">
        <ele>310.1</ele>
        <time>2012-12-29T10:59:41.000Z</time>
      </trkpt>
      <trkpt lat="44.12782" lon="1.93312">
        <ele>310.2</ele>
        <time>2012-12-29T10:59:42.000Z</time>
      </trkpt>
      <trkpt lat="44.12784" lon="1.93315">
        <ele>310.3</ele>
        <time>2012-12-29T10:59:43.000Z</time>
      </trkpt>
      <trkpt lat="44.12786" lon="1.93318">
        <ele>310.4</ele>
        <time>2012-12-29T10:59:44.000Z</time>
      </trkpt>
      <trkpt lat="44.12787" lon="1.93321">
        <ele>310.5</ele>
        <time>2012-12-29T10:59:45.000Z</time>
      </trkpt>
      <trkpt lat="44.12789" lon="1.93325">
        <ele>310.6</ele>
        <time>2012-12-29T10:59:46.000Z</time>
      </trkpt>
      <trkpt lat="44.1279" lon="1.93328">
        <ele>310.7</ele>
        <time>2012-12-29T10:59:47.000Z</time>
      </trkpt>
      <trkpt lat="44.12791" lon="1.93332">
        <ele>310.9</ele>
        <time>2012-12-29T10:59:48.000Z</time>
      </trkpt>
      <trkpt lat="44.12792" lon="1.93335">
        <ele>311.1</ele>
        <time>2012-12-29T10:59:49.000Z</time>
      </trkpt>
      <trkpt lat="44.12793" lon="1.93338">
        <ele>311.2</ele>
        <time>2012-12-29T10:59:50.000Z</time>
      </trkpt>
      <trkpt lat="44.12794" lon="1.93342">
        <ele>311.4</ele>
        <time>2012-12-29T10:59:51.000Z</time>
      </trkpt>
      <trkpt lat="44.12794" lon="1.93345">
        <ele>311.5</ele>
        <time>2012-12-29T10:59:52.000Z</time>
      </trkpt>
      <trkpt lat="44.12795" lon="1.93349">
        <ele>311.6</ele>
        <time>2012-12-29T10:59:53.000Z</time>
      </trkpt>
      <trkpt lat="44.12796" lon="1.93352">
        <ele>311.7</ele>
        <time>2012-12-29T10:59:54.000Z</time>
      </trkpt>
      <trkpt lat="44.12797" lon="1.93355">
        <ele>311.9</ele>
        <time>2012-12-29T10:59:55.000Z</time>
      </trkpt>
      <trkpt lat="44.12798" lon="1.93358">
        <ele>312</ele>
        <time>2012-12-29T10:59:56.000Z</time>
      </trkpt>
      <trkpt lat="44.12799" lon="1.93362">
        <ele>312.1</ele>
        <time>2012-12-29T10:59:57.000Z</time>
      </trkpt>
      <trkpt lat="44.128" lon="1.93365">
        <ele>312.2</ele>
        <time>2012-12-29T10:59:58.000Z</time>
      </trkpt>
      <trkpt lat="44.12801" lon="1.93368">
        <ele>312.3</ele>
        <time>2012-12-29T10:59:59.000Z</time>
      </trkpt>
      <trkpt lat="44.12802" lon="1.93372">
        <ele>312.5</ele>
        <time>2012-12-29T11:00:00.000Z</time>
      </trkpt>
      <trkpt lat="44.12804" lon="1.93375">
        <ele>312.6</ele>
        <time>2012-12-29T11:00:01.000Z</time>
      </trkpt>
      <trkpt lat="44.12806" lon="1.93378">
        <ele>312.8</ele>
        <time>2012-12-29T11:00:02.000Z</time>
      </trkpt>
      <trkpt lat="44.12807" lon="1.93381">
        <ele>312.9</ele>
        <time>2012-12-29T11:00:03.000Z</time>
      </trkpt>
      <trkpt lat="44.12809" lon="1.93384">
        <ele>313</ele>
        <time>2012-12-29T11:00:04.000Z</time>
      </trkpt>
      <trkpt lat="44.1281" lon="1.93386">
        <ele>313.2</ele>
        <time>2012-12-29T11:00:05.000Z</time>
      </trkpt>
      <trkpt lat="44.12812" lon="1.9339">
        <ele>313.5</ele>
        <time>2012-12-29T11:00:07.000Z</time>
      </trkpt>
      <trkpt lat="44.12814" lon="1.93393">
        <ele>313.7</ele>
        <time>2012-12-29T11:00:08.000Z</time>
      </trkpt>
      <trkpt lat="44.12815" lon="1.93395">
        <ele>313.8</ele>
        <time>2012-12-29T11:00:09.000Z</time>
      </trkpt>
      <trkpt lat="44.12817" lon="1.93398">
        <ele>314</ele>
        <time>2012-12-29T11:00:10.000Z</time>
      </trkpt>
      <trkpt lat="44.12819" lon="1.93401">
        <ele>314.2</ele>
        <time>2012-12-29T11:00:11.000Z</time>
      </trkpt>
      <trkpt lat="44.1282" lon="1.93404">
        <ele>314.4</ele>
        <time>2012-12-29T11:00:12.000Z</time>
      </trkpt>
      <trkpt lat="44.12823" lon="1.93409">
        <ele>314.8</ele>
        <time>2012-12-29T11:00:14.000Z</time>
      </trkpt>
      <trkpt lat="44.12824" lon="1.93412">
        <ele>314.9</ele>
        <time>2012-12-29T11:00:15.000Z</time>
      </trkpt>
      <trkpt lat="44.12826" lon="1.93414">
        <ele>315.1</ele>
        <time>2012-12-29T11:00:16.000Z</time>
      </trkpt>
      <trkpt lat="44.12828" lon="1.93417">
        <ele>315.2</ele>
        <time>2012-12-29T11:00:17.000Z</time>
      </trkpt>
      <trkpt lat="44.12831" lon="1.93421">
        <ele>315.6</ele>
        <time>2012-12-29T11:00:19.000Z</time>
      </trkpt>
      <trkpt lat="44.12833" lon="1.93423">
        <ele>315.7</ele>
        <time>2012-12-29T11:00:20.000Z</time>
      </trkpt>
      <trkpt lat="44.12835" lon="1.93425">
        <ele>315.9</ele>
        <time>2012-12-29T11:00:21.000Z</time>
      </trkpt>
      <trkpt lat="44.12837" lon="1.93428">
        <ele>316</ele>
        <time>2012-12-29T11:00:22.000Z</time>
      </trkpt>
      <trkpt lat="44.12839" lon="1.9343">
        <ele>316.1</ele>
        <time>2012-12-29T11:00:23.000Z</time>
      </trkpt>
      <trkpt lat="44.12841" lon="1.93433">
        <ele>316.3</ele>
        <time>2012-12-29T11:00:24.000Z</time>
      </trkpt>
      <trkpt lat="44.12843" lon="1.93436">
        <ele>316.4</ele>
        <time>2012-12-29T11:00:25.000Z</time>
      </trkpt>
      <trkpt lat="44.12845" lon="1.93439">
        <ele>316.6</ele>
        <time>2012-12-29T11:00:26.000Z</time>
      </trkpt>
      <trkpt lat="44.12846" lon="1.93443">
        <ele>316.8</ele>
        <time>2012-12-29T11:00:27.000Z</time>
      </trkpt>
      <trkpt lat="44.12848" lon="1.93446">
        <ele>316.9</ele>
        <time>2012-12-29T11:00:28.000Z</time>
      </trkpt>
      <trkpt lat="44.1285" lon="1.93449">
        <ele>317.1</ele>
        <time>2012-12-29T11:00:29.000Z</time>
      </trkpt>
      <trkpt lat="44.12851" lon="1.93452">
        <ele>317.3</ele>
        <time>2012-12-29T11:00:30.000Z</time>
      </trkpt>
      <trkpt lat="44.12853" lon="1.93455">
        <ele>317.5</ele>
        <time>2012-12-29T11:00:31.000Z</time>
      </trkpt>
      <trkpt lat="44.12855" lon="1.93458">
        <ele>317.7</ele>
        <time>2012-12-29T11:00:32.000Z</time>
      </trkpt>
      <trkpt lat="44.12858" lon="1.93461">
        <ele>317.9</ele>
        <time>2012-12-29T11:00:33.000Z</time>
      </trkpt>
      <trkpt lat="44.1286" lon="1.93464">
        <ele>318</ele>
        <time>2012-12-29T11:00:34.000Z</time>
      </trkpt>
      <trkpt lat="44.12862" lon="1.93468">
        <ele>318.2</ele>
        <time>2012-12-29T11:00:35.000Z</time>
      </trkpt>
      <trkpt lat="44.12864" lon="1.93472">
        <ele>318.3</ele>
        <time>2012-12-29T11:00:36.000Z</time>
      </trkpt>
      <trkpt lat="44.12866" lon="1.93476">
        <ele>318.4</ele>
        <time>2012-12-29T11:00:37.000Z</time>
      </trkpt>
      <trkpt lat="44.12867" lon="1.93479">
        <ele>318.6</ele>
        <time>2012-12-29T11:00:38.000Z</time>
      </trkpt>
      <trkpt lat="44.12869" lon="1.93482">
        <ele>318.8</ele>
        <time>2012-12-29T11:00:39.000Z</time>
      </trkpt>
      <trkpt lat="44.12871" lon="1.93486">
        <ele>318.9</ele>
        <time>2012-12-29T11:00:40.000Z</time>
      </trkpt>
      <trkpt lat="44.12872" lon="1.93489">
        <ele>319.1</ele>
        <time>2012-12-29T11:00:41.000Z</time>
      </trkpt>
      <trkpt lat="44.12874" lon="1.93492">
        <ele>319.2</ele>
        <time>2012-12-29T11:00:42.000Z</time>
      </trkpt>
      <trkpt lat="44.12876" lon="1.93496">
        <ele>319.4</ele>
        <time>2012-12-29T11:00:43.000Z</time>
      </trkpt>
      <trkpt lat="44.12877" lon="1.93499">
        <ele>319.6</ele>
        <time>2012-12-29T11:00:44.000Z</time>
      </trkpt>
      <trkpt lat="44.12879" lon="1.93502">
        <ele>319.7</ele>
        <time>2012-12-29T11:00:45.000Z</time>
      </trkpt>
      <trkpt lat="44.12882" lon="1.93506">
        <ele>319.8</ele>
        <time>2012-12-29T11:00:46.000Z</time>
      </trkpt>
      <trkpt lat="44.12884" lon="1.9351">
        <ele>319.9</ele>
        <time>2012-12-29T11:00:47.000Z</time>
      </trkpt>
      <trkpt lat="44.12886" lon="1.93513">
        <ele>320</ele>
        <time>2012-12-29T11:00:48.000Z</time>
      </trkpt>
      <trkpt lat="44.12887" lon="1.93517">
        <ele>320.1</ele>
        <time>2012-12-29T11:00:49.000Z</time>
      </trkpt>
      <trkpt lat="44.12889" lon="1.93521">
        <ele>320.2</ele>
        <time>2012-12-29T11:00:50.000Z</time>
      </trkpt>
      <trkpt lat="44.12891" lon="1.93525">
        <ele>320.2</ele>
        <time>2012-12-29T11:00:51.000Z</time>
      </trkpt>
      <trkpt lat="44.12893" lon="1.93529">
        <ele>320.3</ele>
        <time>2012-12-29T11:00:52.000Z</time>
      </trkpt>
      <trkpt lat="44.12895" lon="1.93533">
        <ele>320.3</ele>
        <time>2012-12-29T11:00:53.000Z</time>
      </trkpt>
      <trkpt lat="44.12897" lon="1.93536">
        <ele>320.4</ele>
        <time>2012-12-29T11:00:54.000Z</time>
      </trkpt>
      <trkpt lat="44.129" lon="1.9354">
        <ele>320.5</ele>
        <time>2012-12-29T11:00:55.000Z</time>
      </trkpt>
      <trkpt lat="44.12902" lon="1.93544">
        <ele>320.5</ele>
        <time>2012-12-29T11:00:56.000Z</time>
      </trkpt>
      <trkpt lat="44.12904" lon="1.93547">
        <ele>320.6</ele>
        <time>2012-12-29T11:00:57.000Z</time>
      </trkpt>
      <trkpt lat="44.12906" lon="1.9355">
        <ele>320.6</ele>
        <time>2012-12-29T11:00:58.000Z</time>
      </trkpt>
      <trkpt lat="44.12907" lon="1.93553">
        <ele>320.6</ele>
        <time>2012-12-29T11:00:59.000Z</time>
      </trkpt>
      <trkpt lat="44.12909" lon="1.93556">
        <ele>320.7</ele>
        <time>2012-12-29T11:01:00.000Z</time>
      </trkpt>
      <trkpt lat="44.12911" lon="1.9356">
        <ele>320.8</ele>
        <time>2012-12-29T11:01:01.000Z</time>
      </trkpt>
      <trkpt lat="44.12913" lon="1.93564">
        <ele>320.9</ele>
        <time>2012-12-29T11:01:02.000Z</time>
      </trkpt>
      <trkpt lat="44.12916" lon="1.93568">
        <ele>321.1</ele>
        <time>2012-12-29T11:01:03.000Z</time>
      </trkpt>
      <trkpt lat="44.12918" lon="1.93573">
        <ele>321.2</ele>
        <time>2012-12-29T11:01:04.000Z</time>
      </trkpt>
      <trkpt lat="44.12921" lon="1.93577">
        <ele>321.4</ele>
        <time>2012-12-29T11:01:05.000Z</time>
      </trkpt>
      <trkpt lat="44.12923" lon="1.93581">
        <ele>321.5</ele>
        <time>2012-12-29T11:01:06.000Z</time>
      </trkpt>
      <trkpt lat="44.12925" lon="1.93585">
        <ele>321.7</ele>
        <time>2012-12-29T11:01:07.000Z</time>
      </trkpt>
      <trkpt lat="44.12927" lon="1.9359">
        <ele>321.9</ele>
        <time>2012-12-29T11:01:08.000Z</time>
      </trkpt>
      <trkpt lat="44.12928" lon="1.93595">
        <ele>322</ele>
        <time>2012-12-29T11:01:09.000Z</time>
      </trkpt>
      <trkpt lat="44.12929" lon="1.93599">
        <ele>322.2</ele>
        <time>2012-12-29T11:01:10.000Z</time>
      </trkpt>
      <trkpt lat="44.1293" lon="1.93603">
        <ele>322.3</ele>
        <time>2012-12-29T11:01:11.000Z</time>
      </trkpt>
      <trkpt lat="44.12932" lon="1.93606">
        <ele>322.4</ele>
        <time>2012-12-29T11:01:12.000Z</time>
      </trkpt>
      <trkpt lat="44.12933" lon="1.93611">
        <ele>322.4</ele>
        <time>2012-12-29T11:01:13.000Z</time>
      </trkpt>
      <trkpt lat="44.12935" lon="1.93615">
        <ele>322.5</ele>
        <time>2012-12-29T11:01:14.000Z</time>
      </trkpt>
      <trkpt lat="44.12936" lon="1.93619">
        <ele>322.6</ele>
        <time>2012-12-29T11:01:15.000Z</time>
      </trkpt>
      <trkpt lat="44.12937" lon="1.93623">
        <ele>322.6</ele>
        <time>2012-12-29T11:01:16.000Z</time>
      </trkpt>
      <trkpt lat="44.12939" lon="1.93628">
        <ele>322.6</ele>
        <time>2012-12-29T11:01:17.000Z</time>
      </trkpt>
      <trkpt lat="44.12941" lon="1.93633">
        <ele>322.7</ele>
        <time>2012-12-29T11:01:18.000Z</time>
      </trkpt>
      <trkpt lat="44.12943" lon="1.93637">
        <ele>322.7</ele>
        <time>2012-12-29T11:01:19.000Z</time>
      </trkpt>
      <trkpt lat="44.12944" lon="1.93642">
        <ele>322.7</ele>
        <time>2012-12-29T11:01:20.000Z</time>
      </trkpt>
      <trkpt lat="44.12946" lon="1.93647">
        <ele>322.7</ele>
        <time>2012-12-29T11:01:21.000Z</time>
      </trkpt>
      <trkpt lat="44.12947" lon="1.93651">
        <ele>322.7</ele>
        <time>2012-12-29T11:01:22.000Z</time>
      </trkpt>
      <trkpt lat="44.12948" lon="1.93655">
        <ele>322.7</ele>
        <time>2012-12-29T11:01:23.000Z</time>
      </trkpt>
      <trkpt lat="44.1295" lon="1.9366">
        <ele>322.8</ele>
        <time>2012-12-29T11:01:24.000Z</time>
      </trkpt>
      <trkpt lat="44.12951" lon="1.93665">
        <ele>323</ele>
        <time>2012-12-29T11:01:25.000Z</time>
      </trkpt>
      <trkpt lat="44.12954" lon="1.93671">
        <ele>323.2</ele>
        <time>2012-12-29T11:01:26.000Z</time>
      </trkpt>
      <trkpt lat="44.12956" lon="1.93676">
        <ele>323.3</ele>
        <time>2012-12-29T11:01:27.000Z</time>
      </trkpt>
      <trkpt lat="44.12958" lon="1.93681">
        <ele>323.4</ele>
        <time>2012-12-29T11:01:28.000Z</time>
      </trkpt>
      <trkpt lat="44.1296" lon="1.93686">
        <ele>323.4</ele>
        <time>2012-12-29T11:01:29.000Z</time>
      </trkpt>
      <trkpt lat="44.12962" lon="1.93691">
        <ele>323.4</ele>
        <time>2012-12-29T11:01:30.000Z</time>
      </trkpt>
      <trkpt lat="44.12964" lon="1.93695">
        <ele>323.4</ele>
        <time>2012-12-29T11:01:31.000Z</time>
      </trkpt>
      <trkpt lat="44.12966" lon="1.937">
        <ele>323.5</ele>
        <time>2012-12-29T11:01:32.000Z</time>
      </trkpt>
      <trkpt lat="44.12968" lon="1.93704">
        <ele>323.5</ele>
        <time>2012-12-29T11:01:33.000Z</time>
      </trkpt>
      <trkpt lat="44.1297" lon="1.93709">
        <ele>323.5</ele>
        <time>2012-12-29T11:01:34.000Z</time>
      </trkpt>
      <trkpt lat="44.12971" lon="1.93713">
        <ele>323.4</ele>
        <time>2012-12-29T11:01:35.000Z</time>
      </trkpt>
      <trkpt lat="44.12973" lon="1.93718">
        <ele>323.3</ele>
        <time>2012-12-29T11:01:36.000Z</time>
      </trkpt>
      <trkpt lat="44.12974" lon="1.93723">
        <ele>323.5</ele>
        <time>2012-12-29T11:01:37.000Z</time>
      </trkpt>
      <trkpt lat="44.12976" lon="1.93728">
        <ele>323.6</ele>
        <time>2012-12-29T11:01:38.000Z</time>
      </trkpt>
      <trkpt lat="44.12977" lon="1.93733">
        <ele>323.7</ele>
        <time>2012-12-29T11:01:39.000Z</time>
      </trkpt>
      <trkpt lat="44.12978" lon="1.93738">
        <ele>323.7</ele>
        <time>2012-12-29T11:01:40.000Z</time>
      </trkpt>
      <trkpt lat="44.1298" lon="1.93743">
        <ele>323.7</ele>
        <time>2012-12-29T11:01:41.000Z</time>
      </trkpt>
      <trkpt lat="44.12982" lon="1.93747">
        <ele>323.7</ele>
        <time>2012-12-29T11:01:42.000Z</time>
      </trkpt>
      <trkpt lat="44.12984" lon="1.93752">
        <ele>323.7</ele>
        <time>2012-12-29T11:01:43.000Z</time>
      </trkpt>
      <trkpt lat="44.12985" lon="1.93757">
        <ele>323.7</ele>
        <time>2012-12-29T11:01:44.000Z</time>
      </trkpt>
      <trkpt lat="44.12987" lon="1.93762">
        <ele>323.7</ele>
        <time>2012-12-29T11:01:45.000Z</time>
      </trkpt>
      <trkpt lat="44.1299" lon="1.93767">
        <ele>323.8</ele>
        <time>2012-12-29T11:01:46.000Z</time>
      </trkpt>
      <trkpt lat="44.12992" lon="1.93772">
        <ele>323.8</ele>
        <time>2012-12-29T11:01:47.000Z</time>
      </trkpt>
      <trkpt lat="44.12994" lon="1.93777">
        <ele>323.8</ele>
        <time>2012-12-29T11:01:48.000Z</time>
      </trkpt>
      <trkpt lat="44.12996" lon="1.93783">
        <ele>323.9</ele>
        <time>2012-12-29T11:01:49.000Z</time>
      </trkpt>
      <trkpt lat="44.12998" lon="1.93788">
        <ele>323.9</ele>
        <time>2012-12-29T11:01:50.000Z</time>
      </trkpt>
      <trkpt lat="44.13" lon="1.93793">
        <ele>323.9</ele>
        <time>2012-12-29T11:01:51.000Z</time>
      </trkpt>
      <trkpt lat="44.13001" lon="1.93798">
        <ele>324</ele>
        <time>2012-12-29T11:01:52.000Z</time>
      </trkpt>
      <trkpt lat="44.13002" lon="1.93802">
        <ele>324</ele>
        <time>2012-12-29T11:01:53.000Z</time>
      </trkpt>
      <trkpt lat="44.13004" lon="1.93806">
        <ele>324.1</ele>
        <time>2012-12-29T11:01:54.000Z</time>
      </trkpt>
      <trkpt lat="44.13005" lon="1.93811">
        <ele>324.2</ele>
        <time>2012-12-29T11:01:55.000Z</time>
      </trkpt>
      <trkpt lat="44.13007" lon="1.93815">
        <ele>324.2</ele>
        <time>2012-12-29T11:01:56.000Z</time>
      </trkpt>
      <trkpt lat="44.13008" lon="1.9382">
        <ele>324.4</ele>
        <time>2012-12-29T11:01:57.000Z</time>
      </trkpt>
      <trkpt lat="44.13009" lon="1.93825">
        <ele>324.5</ele>
        <time>2012-12-29T11:01:58.000Z</time>
      </trkpt>
      <trkpt lat="44.1301" lon="1.93829">
        <ele>324.6</ele>
        <time>2012-12-29T11:01:59.000Z</time>
      </trkpt>
      <trkpt lat="44.13011" lon="1.93833">
        <ele>324.7</ele>
        <time>2012-12-29T11:02:00.000Z</time>
      </trkpt>
      <trkpt lat="44.13012" lon="1.93837">
        <ele>324.8</ele>
        <time>2012-12-29T11:02:01.000Z</time>
      </trkpt>
      <trkpt lat="44.13013" lon="1.93842">
        <ele>324.9</ele>
        <time>2012-12-29T11:02:02.000Z</time>
      </trkpt>
      <trkpt lat="44.13014" lon="1.93846">
        <ele>324.9</ele>
        <time>2012-12-29T11:02:03.000Z</time>
      </trkpt>
      <trkpt lat="44.13015" lon="1.93851">
        <ele>324.9</ele>
        <time>2012-12-29T11:02:04.000Z</time>
      </trkpt>
      <trkpt lat="44.13016" lon="1.93855">
        <ele>324.9</ele>
        <time>2012-12-29T11:02:05.000Z</time>
      </trkpt>
      <trkpt lat="44.13017" lon="1.93859">
        <ele>324.9</ele>
        <time>2012-12-29T11:02:06.000Z</time>
      </trkpt>
      <trkpt lat="44.13019" lon="1.93863">
        <ele>324.9</ele>
        <time>2012-12-29T11:02:07.000Z</time>
      </trkpt>
      <trkpt lat="44.1302" lon="1.93866">
        <ele>324.9</ele>
        <time>2012-12-29T11:02:08.000Z</time>
      </trkpt>
      <trkpt lat="44.13022" lon="1.9387">
        <ele>325</ele>
        <time>2012-12-29T11:02:09.000Z</time>
      </trkpt>
      <trkpt lat="44.13023" lon="1.93874">
        <ele>325</ele>
        <time>2012-12-29T11:02:10.000Z</time>
      </trkpt>
      <trkpt lat="44.13025" lon="1.93877">
        <ele>325.1</ele>
        <time>2012-12-29T11:02:11.000Z</time>
      </trkpt>
      <trkpt lat="44.13026" lon="1.93882">
        <ele>325.1</ele>
        <time>2012-12-29T11:02:12.000Z</time>
      </trkpt>
      <trkpt lat="44.13028" lon="1.93886">
        <ele>325.1</ele>
        <time>2012-12-29T11:02:13.000Z</time>
      </trkpt>
      <trkpt lat="44.1303" lon="1.93889">
        <ele>325.2</ele>
        <time>2012-12-29T11:02:14.000Z</time>
      </trkpt>
      <trkpt lat="44.13032" lon="1.93893">
        <ele>325.2</ele>
        <time>2012-12-29T11:02:15.000Z</time>
      </trkpt>
      <trkpt lat="44.13034" lon="1.93897">
        <ele>325.2</ele>
        <time>2012-12-29T11:02:16.000Z</time>
      </trkpt>
      <trkpt lat="44.13035" lon="1.93901">
        <ele>325.3</ele>
        <time>2012-12-29T11:02:17.000Z</time>
      </trkpt>
      <trkpt lat="44.13037" lon="1.93905">
        <ele>325.4</ele>
        <time>2012-12-29T11:02:18.000Z</time>
      </trkpt>
      <trkpt lat="44.1304" lon="1.93909">
        <ele>325.4</ele>
        <time>2012-12-29T11:02:19.000Z</time>
      </trkpt>
      <trkpt lat="44.13042" lon="1.93913">
        <ele>325.4</ele>
        <time>2012-12-29T11:02:20.000Z</time>
      </trkpt>
      <trkpt lat="44.13045" lon="1.93917">
        <ele>325.4</ele>
        <time>2012-12-29T11:02:21.000Z</time>
      </trkpt>
      <trkpt lat="44.13047" lon="1.9392">
        <ele>325.5</ele>
        <time>2012-12-29T11:02:22.000Z</time>
      </trkpt>
      <trkpt lat="44.1305" lon="1.93924">
        <ele>325.5</ele>
        <time>2012-12-29T11:02:23.000Z</time>
      </trkpt>
      <trkpt lat="44.13052" lon="1.93928">
        <ele>325.6</ele>
        <time>2012-12-29T11:02:24.000Z</time>
      </trkpt>
      <trkpt lat="44.13054" lon="1.93932">
        <ele>325.6</ele>
        <time>2012-12-29T11:02:25.000Z</time>
      </trkpt>
      <trkpt lat="44.13055" lon="1.93937">
        <ele>325.7</ele>
        <time>2012-12-29T11:02:26.000Z</time>
      </trkpt>
      <trkpt lat="44.13057" lon="1.93941">
        <ele>325.7</ele>
        <time>2012-12-29T11:02:27.000Z</time>
      </trkpt>
      <trkpt lat="44.1306" lon="1.93946">
        <ele>326.1</ele>
        <time>2012-12-29T11:02:28.000Z</time>
      </trkpt>
      <trkpt lat="44.13062" lon="1.93952">
        <ele>325.6</ele>
        <time>2012-12-29T11:02:29.000Z</time>
      </trkpt>
      <trkpt lat="44.13063" lon="1.93957">
        <ele>325.6</ele>
        <time>2012-12-29T11:02:30.000Z</time>
      </trkpt>
      <trkpt lat="44.13065" lon="1.93963">
        <ele>325.3</ele>
        <time>2012-12-29T11:02:31.000Z</time>
      </trkpt>
      <trkpt lat="44.13067" lon="1.93969">
        <ele>325.3</ele>
        <time>2012-12-29T11:02:32.000Z</time>
      </trkpt>
      <trkpt lat="44.13068" lon="1.93974">
        <ele>325.3</ele>
        <time>2012-12-29T11:02:33.000Z</time>
      </trkpt>
      <trkpt lat="44.13069" lon="1.9398">
        <ele>325.3</ele>
        <time>2012-12-29T11:02:34.000Z</time>
      </trkpt>
      <trkpt lat="44.1307" lon="1.93985">
        <ele>325.2</ele>
        <time>2012-12-29T11:02:35.000Z</time>
      </trkpt>
      <trkpt lat="44.1307" lon="1.93991">
        <ele>325.1</ele>
        <time>2012-12-29T11:02:36.000Z</time>
      </trkpt>
      <trkpt lat="44.1307" lon="1.93996">
        <ele>325.1</ele>
        <time>2012-12-29T11:02:37.000Z</time>
      </trkpt>
      <trkpt lat="44.1307" lon="1.94001">
        <ele>325</ele>
        <time>2012-12-29T11:02:38.000Z</time>
      </trkpt>
      <trkpt lat="44.1307" lon="1.94006">
        <ele>325</ele>
        <time>2012-12-29T11:02:39.000Z</time>
      </trkpt>
      <trkpt lat="44.13069" lon="1.9401">
        <ele>324.9</ele>
        <time>2012-12-29T11:02:40.000Z</time>
      </trkpt>
      <trkpt lat="44.13069" lon="1.94016">
        <ele>325</ele>
        <time>2012-12-29T11:02:41.000Z</time>
      </trkpt>
      <trkpt lat="44.13068" lon="1.94021">
        <ele>325</ele>
        <time>2012-12-29T11:02:42.000Z</time>
      </trkpt>
      <trkpt lat="44.13067" lon="1.94027">
        <ele>325</ele>
        <time>2012-12-29T11:02:43.000Z</time>
      </trkpt>
      <trkpt lat="44.13066" lon="1.94031">
        <ele>325.1</ele>
        <time>2012-12-29T11:02:44.000Z</time>
      </trkpt>
      <trkpt lat="44.13065" lon="1.94035">
        <ele>325.1</ele>
        <time>2012-12-29T11:02:45.000Z</time>
      </trkpt>
      <trkpt lat="44.13065" lon="1.9404">
        <ele>325.1</ele>
        <time>2012-12-29T11:02:46.000Z</time>
      </trkpt>
      <trkpt lat="44.13064" lon="1.94046">
        <ele>325.1</ele>
        <time>2012-12-29T11:02:47.000Z</time>
      </trkpt>
      <trkpt lat="44.13063" lon="1.94051">
        <ele>325.1</ele>
        <time>2012-12-29T11:02:48.000Z</time>
      </trkpt>
      <trkpt lat="44.13063" lon="1.94056">
        <ele>325.1</ele>
        <time>2012-12-29T11:02:49.000Z</time>
      </trkpt>
      <trkpt lat="44.13063" lon="1.94062">
        <ele>325.1</ele>
        <time>2012-12-29T11:02:50.000Z</time>
      </trkpt>
      <trkpt lat="44.13063" lon="1.94067">
        <ele>325.1</ele>
        <time>2012-12-29T11:02:51.000Z</time>
      </trkpt>
      <trkpt lat="44.13062" lon="1.94074">
        <ele>325</ele>
        <time>2012-12-29T11:02:52.000Z</time>
      </trkpt>
      <trkpt lat="44.13061" lon="1.9408">
        <ele>325</ele>
        <time>2012-12-29T11:02:53.000Z</time>
      </trkpt>
      <trkpt lat="44.1306" lon="1.94086">
        <ele>325.1</ele>
        <time>2012-12-29T11:02:54.000Z</time>
      </trkpt>
      <trkpt lat="44.13058" lon="1.94092">
        <ele>325</ele>
        <time>2012-12-29T11:02:55.000Z</time>
      </trkpt>
      <trkpt lat="44.13057" lon="1.94098">
        <ele>325</ele>
        <time>2012-12-29T11:02:56.000Z</time>
      </trkpt>
      <trkpt lat="44.13055" lon="1.94105">
        <ele>324.5</ele>
        <time>2012-12-29T11:02:57.000Z</time>
      </trkpt>
      <trkpt lat="44.13053" lon="1.94112">
        <ele>324.6</ele>
        <time>2012-12-29T11:02:58.000Z</time>
      </trkpt>
      <trkpt lat="44.1305" lon="1.94119">
        <ele>324.9</ele>
        <time>2012-12-29T11:02:59.000Z</time>
      </trkpt>
      <trkpt lat="44.13047" lon="1.94126">
        <ele>325.1</ele>
        <time>2012-12-29T11:03:00.000Z</time>
      </trkpt>
      <trkpt lat="44.13044" lon="1.94133">
        <ele>325.3</ele>
        <time>2012-12-29T11:03:01.000Z</time>
      </trkpt>
      <trkpt lat="44.13041" lon="1.94139">
        <ele>325.7</ele>
        <time>2012-12-29T11:03:02.000Z</time>
      </trkpt>
      <trkpt lat="44.13038" lon="1.94145">
        <ele>325.8</ele>
        <time>2012-12-29T11:03:03.000Z</time>
      </trkpt>
      <trkpt lat="44.13035" lon="1.94151">
        <ele>325.7</ele>
        <time>2012-12-29T11:03:04.000Z</time>
      </trkpt>
      <trkpt lat="44.13032" lon="1.94156">
        <ele>325.4</ele>
        <time>2012-12-29T11:03:05.000Z</time>
      </trkpt>
      <trkpt lat="44.13029" lon="1.94161">
        <ele>325.2</ele>
        <time>2012-12-29T11:03:06.000Z</time>
      </trkpt>
      <trkpt lat="44.13026" lon="1.94166">
        <ele>325.2</ele>
        <time>2012-12-29T11:03:07.000Z</time>
      </trkpt>
      <trkpt lat="44.13023" lon="1.94171">
        <ele>325.3</ele>
        <time>2012-12-29T11:03:08.000Z</time>
      </trkpt>
      <trkpt lat="44.13021" lon="1.94175">
        <ele>325.3</ele>
        <time>2012-12-29T11:03:09.000Z</time>
      </trkpt>
      <trkpt lat="44.13018" lon="1.94181">
        <ele>325.1</ele>
        <time>2012-12-29T11:03:10.000Z</time>
      </trkpt>
      <trkpt lat="44.13015" lon="1.94186">
        <ele>324.7</ele>
        <time>2012-12-29T11:03:11.000Z</time>
      </trkpt>
      <trkpt lat="44.13012" lon="1.9419">
        <ele>324.3</ele>
        <time>2012-12-29T11:03:12.000Z</time>
      </trkpt>
      <trkpt lat="44.13009" lon="1.94196">
        <ele>323.3</ele>
        <time>2012-12-29T11:03:13.000Z</time>
      </trkpt>
      <trkpt lat="44.13005" lon="1.94202">
        <ele>322.3</ele>
        <time>2012-12-29T11:03:14.000Z</time>
      </trkpt>
      <trkpt lat="44.13002" lon="1.94207">
        <ele>321.7</ele>
        <time>2012-12-29T11:03:15.000Z</time>
      </trkpt>
      <trkpt lat="44.12999" lon="1.94212">
        <ele>320.9</ele>
        <time>2012-12-29T11:03:16.000Z</time>
      </trkpt>
      <trkpt lat="44.12995" lon="1.94218">
        <ele>320.4</ele>
        <time>2012-12-29T11:03:17.000Z</time>
      </trkpt>
      <trkpt lat="44.12992" lon="1.94224">
        <ele>320.1</ele>
        <time>2012-12-29T11:03:18.000Z</time>
      </trkpt>
      <trkpt lat="44.12989" lon="1.9423">
        <ele>319.7</ele>
        <time>2012-12-29T11:03:19.000Z</time>
      </trkpt>
      <trkpt lat="44.12987" lon="1.94235">
        <ele>318.9</ele>
        <time>2012-12-29T11:03:20.000Z</time>
      </trkpt>
      <trkpt lat="44.12984" lon="1.9424">
        <ele>318.4</ele>
        <time>2012-12-29T11:03:21.000Z</time>
      </trkpt>
      <trkpt lat="44.12982" lon="1.94246">
        <ele>318</ele>
        <time>2012-12-29T11:03:22.000Z</time>
      </trkpt>
      <trkpt lat="44.1298" lon="1.94252">
        <ele>318</ele>
        <time>2012-12-29T11:03:23.000Z</time>
      </trkpt>
      <trkpt lat="44.12978" lon="1.94261">
        <ele>318.2</ele>
        <time>2012-12-29T11:03:24.000Z</time>
      </trkpt>
      <trkpt lat="44.12976" lon="1.94268">
        <ele>318.8</ele>
        <time>2012-12-29T11:03:25.000Z</time>
      </trkpt>
      <trkpt lat="44.12974" lon="1.94274">
        <ele>318.9</ele>
        <time>2012-12-29T11:03:26.000Z</time>
      </trkpt>
      <trkpt lat="44.12973" lon="1.94281">
        <ele>318.9</ele>
        <time>2012-12-29T11:03:27.000Z</time>
      </trkpt>
      <trkpt lat="44.12973" lon="1.94287">
        <ele>318.9</ele>
        <time>2012-12-29T11:03:28.000Z</time>
      </trkpt>
      <trkpt lat="44.12972" lon="1.94293">
        <ele>318.5</ele>
        <time>2012-12-29T11:03:29.000Z</time>
      </trkpt>
      <trkpt lat="44.12972" lon="1.94299">
        <ele>318.4</ele>
        <time>2012-12-29T11:03:30.000Z</time>
      </trkpt>
      <trkpt lat="44.12972" lon="1.94305">
        <ele>318.4</ele>
        <time>2012-12-29T11:03:31.000Z</time>
      </trkpt>
      <trkpt lat="44.12973" lon="1.94311">
        <ele>318.7</ele>
        <time>2012-12-29T11:03:32.000Z</time>
      </trkpt>
      <trkpt lat="44.12973" lon="1.94317">
        <ele>319</ele>
        <time>2012-12-29T11:03:33.000Z</time>
      </trkpt>
      <trkpt lat="44.12975" lon="1.94324">
        <ele>319.1</ele>
        <time>2012-12-29T11:03:34.000Z</time>
      </trkpt>
      <trkpt lat="44.12976" lon="1.9433">
        <ele>319.4</ele>
        <time>2012-12-29T11:03:35.000Z</time>
      </trkpt>
      <trkpt lat="44.12977" lon="1.94335">
        <ele>319.2</ele>
        <time>2012-12-29T11:03:36.000Z</time>
      </trkpt>
      <trkpt lat="44.12978" lon="1.9434">
        <ele>319.2</ele>
        <time>2012-12-29T11:03:37.000Z</time>
      </trkpt>
      <trkpt lat="44.12979" lon="1.94345">
        <ele>319.7</ele>
        <time>2012-12-29T11:03:38.000Z</time>
      </trkpt>
      <trkpt lat="44.12981" lon="1.94352">
        <ele>320.2</ele>
        <time>2012-12-29T11:03:39.000Z</time>
      </trkpt>
      <trkpt lat="44.12982" lon="1.94357">
        <ele>320.8</ele>
        <time>2012-12-29T11:03:40.000Z</time>
      </trkpt>
      <trkpt lat="44.12983" lon="1.94362">
        <ele>320.9</ele>
        <time>2012-12-29T11:03:41.000Z</time>
      </trkpt>
      <trkpt lat="44.12984" lon="1.94367">
        <ele>320.9</ele>
        <time>2012-12-29T11:03:42.000Z</time>
      </trkpt>
      <trkpt lat="44.12986" lon="1.94373">
        <ele>321</ele>
        <time>2012-12-29T11:03:43.000Z</time>
      </trkpt>
      <trkpt lat="44.12987" lon="1.94379">
        <ele>321</ele>
        <time>2012-12-29T11:03:44.000Z</time>
      </trkpt>
      <trkpt lat="44.12989" lon="1.94385">
        <ele>321</ele>
        <time>2012-12-29T11:03:45.000Z</time>
      </trkpt>
      <trkpt lat="44.12991" lon="1.94391">
        <ele>321</ele>
        <time>2012-12-29T11:03:46.000Z</time>
      </trkpt>
      <trkpt lat="44.12992" lon="1.94396">
        <ele>321</ele>
        <time>2012-12-29T11:03:47.000Z</time>
      </trkpt>
      <trkpt lat="44.12993" lon="1.94401">
        <ele>321</ele>
        <time>2012-12-29T11:03:48.000Z</time>
      </trkpt>
      <trkpt lat="44.12994" lon="1.94406">
        <ele>321</ele>
        <time>2012-12-29T11:03:49.000Z</time>
      </trkpt>
      <trkpt lat="44.12996" lon="1.94412">
        <ele>320.9</ele>
        <time>2012-12-29T11:03:50.000Z</time>
      </trkpt>
      <trkpt lat="44.12997" lon="1.94417">
        <ele>320.8</ele>
        <time>2012-12-29T11:03:51.000Z</time>
      </trkpt>
      <trkpt lat="44.12999" lon="1.94422">
        <ele>320.8</ele>
        <time>2012-12-29T11:03:52.000Z</time>
      </trkpt>
      <trkpt lat="44.13" lon="1.94427">
        <ele>320.8</ele>
        <time>2012-12-29T11:03:53.000Z</time>
      </trkpt>
      <trkpt lat="44.13001" lon="1.94432">
        <ele>320.7</ele>
        <time>2012-12-29T11:03:54.000Z</time>
      </trkpt>
      <trkpt lat="44.13002" lon="1.94437">
        <ele>320.7</ele>
        <time>2012-12-29T11:03:55.000Z</time>
      </trkpt>
      <trkpt lat="44.13004" lon="1.94442">
        <ele>320.7</ele>
        <time>2012-12-29T11:03:56.000Z</time>
      </trkpt>
      <trkpt lat="44.13005" lon="1.94448">
        <ele>320.6</ele>
        <time>2012-12-29T11:03:57.000Z</time>
      </trkpt>
      <trkpt lat="44.13006" lon="1.94453">
        <ele>320.6</ele>
        <time>2012-12-29T11:03:58.000Z</time>
      </trkpt>
      <trkpt lat="44.13007" lon="1.94458">
        <ele>320.5</ele>
        <time>2012-12-29T11:03:59.000Z</time>
      </trkpt>
      <trkpt lat="44.13008" lon="1.94462">
        <ele>320.5</ele>
        <time>2012-12-29T11:04:00.000Z</time>
      </trkpt>
      <trkpt lat="44.13009" lon="1.94467">
        <ele>320.4</ele>
        <time>2012-12-29T11:04:01.000Z</time>
      </trkpt>
      <trkpt lat="44.13009" lon="1.94471">
        <ele>320.4</ele>
        <time>2012-12-29T11:04:02.000Z</time>
      </trkpt>
      <trkpt lat="44.1301" lon="1.94476">
        <ele>320.3</ele>
        <time>2012-12-29T11:04:03.000Z</time>
      </trkpt>
      <trkpt lat="44.13011" lon="1.9448">
        <ele>320.3</ele>
        <time>2012-12-29T11:04:04.000Z</time>
      </trkpt>
      <trkpt lat="44.13012" lon="1.94485">
        <ele>320.2</ele>
        <time>2012-12-29T11:04:05.000Z</time>
      </trkpt>
      <trkpt lat="44.13012" lon="1.9449">
        <ele>320.1</ele>
        <time>2012-12-29T11:04:06.000Z</time>
      </trkpt>
      <trkpt lat="44.13013" lon="1.94494">
        <ele>320.1</ele>
        <time>2012-12-29T11:04:07.000Z</time>
      </trkpt>
      <trkpt lat="44.13013" lon="1.94498">
        <ele>320</ele>
        <time>2012-12-29T11:04:08.000Z</time>
      </trkpt>
      <trkpt lat="44.13014" lon="1.94503">
        <ele>320</ele>
        <time>2012-12-29T11:04:09.000Z</time>
      </trkpt>
      <trkpt lat="44.13014" lon="1.94508">
        <ele>319.9</ele>
        <time>2012-12-29T11:04:10.000Z</time>
      </trkpt>
      <trkpt lat="44.13015" lon="1.94513">
        <ele>319.8</ele>
        <time>2012-12-29T11:04:11.000Z</time>
      </trkpt>
      <trkpt lat="44.13015" lon="1.94517">
        <ele>319.8</ele>
        <time>2012-12-29T11:04:12.000Z</time>
      </trkpt>
      <trkpt lat="44.13016" lon="1.94522">
        <ele>319.8</ele>
        <time>2012-12-29T11:04:13.000Z</time>
      </trkpt>
      <trkpt lat="44.13016" lon="1.94528">
        <ele>319.7</ele>
        <time>2012-12-29T11:04:14.000Z</time>
      </trkpt>
      <trkpt lat="44.13017" lon="1.94532">
        <ele>319.6</ele>
        <time>2012-12-29T11:04:15.000Z</time>
      </trkpt>
      <trkpt lat="44.13017" lon="1.94538">
        <ele>319.5</ele>
        <time>2012-12-29T11:04:16.000Z</time>
      </trkpt>
      <trkpt lat="44.13018" lon="1.94543">
        <ele>319.4</ele>
        <time>2012-12-29T11:04:17.000Z</time>
      </trkpt>
      <trkpt lat="44.13019" lon="1.9455">
        <ele>319</ele>
        <time>2012-12-29T11:04:18.000Z</time>
      </trkpt>
      <trkpt lat="44.1302" lon="1.94558">
        <ele>319.4</ele>
        <time>2012-12-29T11:04:19.000Z</time>
      </trkpt>
      <trkpt lat="44.13021" lon="1.94565">
        <ele>319.6</ele>
        <time>2012-12-29T11:04:20.000Z</time>
      </trkpt>
      <trkpt lat="44.13022" lon="1.94572">
        <ele>319.8</ele>
        <time>2012-12-29T11:04:21.000Z</time>
      </trkpt>
      <trkpt lat="44.13023" lon="1.94578">
        <ele>319.9</ele>
        <time>2012-12-29T11:04:22.000Z</time>
      </trkpt>
      <trkpt lat="44.13024" lon="1.94584">
        <ele>319.9</ele>
        <time>2012-12-29T11:04:23.000Z</time>
      </trkpt>
      <trkpt lat="44.13025" lon="1.9459">
        <ele>319.9</ele>
        <time>2012-12-29T11:04:24.000Z</time>
      </trkpt>
      <trkpt lat="44.13026" lon="1.94595">
        <ele>319.9</ele>
        <time>2012-12-29T11:04:25.000Z</time>
      </trkpt>
      <trkpt lat="44.13027" lon="1.94599">
        <ele>319.9</ele>
        <time>2012-12-29T11:04:26.000Z</time>
      </trkpt>
      <trkpt lat="44.13028" lon="1.94604">
        <ele>320</ele>
        <time>2012-12-29T11:04:27.000Z</time>
      </trkpt>
      <trkpt lat="44.13029" lon="1.94608">
        <ele>320</ele>
        <time>2012-12-29T11:04:28.000Z</time>
      </trkpt>
      <trkpt lat="44.13031" lon="1.94614">
        <ele>319.8</ele>
        <time>2012-12-29T11:04:29.000Z</time>
      </trkpt>
      <trkpt lat="44.13032" lon="1.94619">
        <ele>319.6</ele>
        <time>2012-12-29T11:04:30.000Z</time>
      </trkpt>
      <trkpt lat="44.13033" lon="1.94624">
        <ele>319.5</ele>
        <time>2012-12-29T11:04:31.000Z</time>
      </trkpt>
      <trkpt lat="44.13035" lon="1.9463">
        <ele>319.3</ele>
        <time>2012-12-29T11:04:32.000Z</time>
      </trkpt>
      <trkpt lat="44.13037" lon="1.94635">
        <ele>319.4</ele>
        <time>2012-12-29T11:04:33.000Z</time>
      </trkpt>
      <trkpt lat="44.13038" lon="1.9464">
        <ele>319.6</ele>
        <time>2012-12-29T11:04:34.000Z</time>
      </trkpt>
      <trkpt lat="44.1304" lon="1.94645">
        <ele>319.8</ele>
        <time>2012-12-29T11:04:35.000Z</time>
      </trkpt>
      <trkpt lat="44.13041" lon="1.9465">
        <ele>319.9</ele>
        <time>2012-12-29T11:04:36.000Z</time>
      </trkpt>
      <trkpt lat="44.13043" lon="1.94655">
        <ele>320.2</ele>
        <time>2012-12-29T11:04:37.000Z</time>
      </trkpt>
      <trkpt lat="44.13044" lon="1.9466">
        <ele>320.5</ele>
        <time>2012-12-29T11:04:38.000Z</time>
      </trkpt>
      <trkpt lat="44.13045" lon="1.94665">
        <ele>320.8</ele>
        <time>2012-12-29T11:04:39.000Z</time>
      </trkpt>
      <trkpt lat="44.13047" lon="1.94671">
        <ele>321</ele>
        <time>2012-12-29T11:04:40.000Z</time>
      </trkpt>
      <trkpt lat="44.13049" lon="1.94677">
        <ele>320.8</ele>
        <time>2012-12-29T11:04:41.000Z</time>
      </trkpt>
      <trkpt lat="44.1305" lon="1.94682">
        <ele>320.7</ele>
        <time>2012-12-29T11:04:42.000Z</time>
      </trkpt>
      <trkpt lat="44.13052" lon="1.94688">
        <ele>320.6</ele>
        <time>2012-12-29T11:04:43.000Z</time>
      </trkpt>
      <trkpt lat="44.13053" lon="1.94695">
        <ele>320.6</ele>
        <time>2012-12-29T11:04:44.000Z</time>
      </trkpt>
      <trkpt lat="44.13054" lon="1.947">
        <ele>320.3</ele>
        <time>2012-12-29T11:04:45.000Z</time>
      </trkpt>
      <trkpt lat="44.13055" lon="1.94704">
        <ele>320.6</ele>
        <time>2012-12-29T11:04:46.000Z</time>
      </trkpt>
      <trkpt lat="44.13056" lon="1.9471">
        <ele>320.6</ele>
        <time>2012-12-29T11:04:47.000Z</time>
      </trkpt>
      <trkpt lat="44.13057" lon="1.94716">
        <ele>320.2</ele>
        <time>2012-12-29T11:04:48.000Z</time>
      </trkpt>
      <trkpt lat="44.13058" lon="1.94722">
        <ele>319.6</ele>
        <time>2012-12-29T11:04:49.000Z</time>
      </trkpt>
      <trkpt lat="44.13059" lon="1.94728">
        <ele>319.4</ele>
        <time>2012-12-29T11:04:50.000Z</time>
      </trkpt>
      <trkpt lat="44.1306" lon="1.94735">
        <ele>319.5</ele>
        <time>2012-12-29T11:04:51.000Z</time>
      </trkpt>
      <trkpt lat="44.13061" lon="1.94743">
        <ele>319.8</ele>
        <time>2012-12-29T11:04:52.000Z</time>
      </trkpt>
      <trkpt lat="44.13062" lon="1.94751">
        <ele>320.2</ele>
        <time>2012-12-29T11:04:53.000Z</time>
      </trkpt>
      <trkpt lat="44.13063" lon="1.94759">
        <ele>320.8</ele>
        <time>2012-12-29T11:04:54.000Z</time>
      </trkpt>
      <trkpt lat="44.13064" lon="1.94766">
        <ele>321.3</ele>
        <time>2012-12-29T11:04:55.000Z</time>
      </trkpt>
      <trkpt lat="44.13065" lon="1.94774">
        <ele>321.7</ele>
        <time>2012-12-29T11:04:56.000Z</time>
      </trkpt>
      <trkpt lat="44.13066" lon="1.94782">
        <ele>322</ele>
        <time>2012-12-29T11:04:57.000Z</time>
      </trkpt>
      <trkpt lat="44.13068" lon="1.94791">
        <ele>322.3</ele>
        <time>2012-12-29T11:04:58.000Z</time>
      </trkpt>
      <trkpt lat="44.13069" lon="1.94799">
        <ele>322.3</ele>
        <time>2012-12-29T11:04:59.000Z</time>
      </trkpt>
      <trkpt lat="44.1307" lon="1.94809">
        <ele>322</ele>
        <time>2012-12-29T11:05:00.000Z</time>
      </trkpt>
      <trkpt lat="44.13072" lon="1.94818">
        <ele>321.7</ele>
        <time>2012-12-29T11:05:01.000Z</time>
      </trkpt>
      <trkpt lat="44.13073" lon="1.94827">
        <ele>321.2</ele>
        <time>2012-12-29T11:05:02.000Z</time>
      </trkpt>
      <trkpt lat="44.13074" lon="1.94836">
        <ele>320.7</ele>
        <time>2012-12-29T11:05:03.000Z</time>
      </trkpt>
      <trkpt lat="44.13076" lon="1.94846">
        <ele>320.2</ele>
        <time>2012-12-29T11:05:04.000Z</time>
      </trkpt>
      <trkpt lat="44.13077" lon="1.94856">
        <ele>319.7</ele>
        <time>2012-12-29T11:05:05.000Z</time>
      </trkpt>
      <trkpt lat="44.13078" lon="1.94867">
        <ele>319.3</ele>
        <time>2012-12-29T11:05:06.000Z</time>
      </trkpt>
      <trkpt lat="44.13079" lon="1.94877">
        <ele>318.9</ele>
        <time>2012-12-29T11:05:07.000Z</time>
      </trkpt>
      <trkpt lat="44.13081" lon="1.94888">
        <ele>318.7</ele>
        <time>2012-12-29T11:05:08.000Z</time>
      </trkpt>
      <trkpt lat="44.13082" lon="1.94899">
        <ele>318.4</ele>
        <time>2012-12-29T11:05:09.000Z</time>
      </trkpt>
      <trkpt lat="44.13083" lon="1.9491">
        <ele>318.3</ele>
        <time>2012-12-29T11:05:10.000Z</time>
      </trkpt>
      <trkpt lat="44.13085" lon="1.9492">
        <ele>317.7</ele>
        <time>2012-12-29T11:05:11.000Z</time>
      </trkpt>
      <trkpt lat="44.13086" lon="1.9493">
        <ele>317</ele>
        <time>2012-12-29T11:05:12.000Z</time>
      </trkpt>
      <trkpt lat="44.13087" lon="1.94941">
        <ele>316</ele>
        <time>2012-12-29T11:05:13.000Z</time>
      </trkpt>
      <trkpt lat="44.13088" lon="1.94948">
        <ele>315</ele>
        <time>2012-12-29T11:05:14.000Z</time>
      </trkpt>
      <trkpt lat="44.13088" lon="1.94957">
        <ele>313.9</ele>
        <time>2012-12-29T11:05:15.000Z</time>
      </trkpt>
      <trkpt lat="44.13089" lon="1.94966">
        <ele>313</ele>
        <time>2012-12-29T11:05:16.000Z</time>
      </trkpt>
      <trkpt lat="44.1309" lon="1.94976">
        <ele>312.2</ele>
        <time>2012-12-29T11:05:17.000Z</time>
      </trkpt>
      <trkpt lat="44.13091" lon="1.94985">
        <ele>311.6</ele>
        <time>2012-12-29T11:05:18.000Z</time>
      </trkpt>
      <trkpt lat="44.13092" lon="1.94995">
        <ele>310.9</ele>
        <time>2012-12-29T11:05:19.000Z</time>
      </trkpt>
      <trkpt lat="44.13093" lon="1.95006">
        <ele>310.3</ele>
        <time>2012-12-29T11:05:20.000Z</time>
      </trkpt>
      <trkpt lat="44.13094" lon="1.95016">
        <ele>310.2</ele>
        <time>2012-12-29T11:05:21.000Z</time>
      </trkpt>
      <trkpt lat="44.13096" lon="1.95025">
        <ele>310.3</ele>
        <time>2012-12-29T11:05:22.000Z</time>
      </trkpt>
      <trkpt lat="44.13097" lon="1.95033">
        <ele>310.2</ele>
        <time>2012-12-29T11:05:23.000Z</time>
      </trkpt>
      <trkpt lat="44.13098" lon="1.95041">
        <ele>310.2</ele>
        <time>2012-12-29T11:05:24.000Z</time>
      </trkpt>
      <trkpt lat="44.13099" lon="1.95048">
        <ele>310.3</ele>
        <time>2012-12-29T11:05:25.000Z</time>
      </trkpt>
      <trkpt lat="44.13101" lon="1.95055">
        <ele>310.1</ele>
        <time>2012-12-29T11:05:26.000Z</time>
      </trkpt>
      <trkpt lat="44.13102" lon="1.95062">
        <ele>309.6</ele>
        <time>2012-12-29T11:05:27.000Z</time>
      </trkpt>
      <trkpt lat="44.13103" lon="1.95068">
        <ele>309.4</ele>
        <time>2012-12-29T11:05:28.000Z</time>
      </trkpt>
      <trkpt lat="44.13103" lon="1.95075">
        <ele>309.3</ele>
        <time>2012-12-29T11:05:29.000Z</time>
      </trkpt>
      <trkpt lat="44.13104" lon="1.95081">
        <ele>309.5</ele>
        <time>2012-12-29T11:05:30.000Z</time>
      </trkpt>
      <trkpt lat="44.13105" lon="1.95087">
        <ele>309.8</ele>
        <time>2012-12-29T11:05:31.000Z</time>
      </trkpt>
      <trkpt lat="44.13105" lon="1.95092">
        <ele>309.8</ele>
        <time>2012-12-29T11:05:32.000Z</time>
      </trkpt>
      <trkpt lat="44.13106" lon="1.95097">
        <ele>309.8</ele>
        <time>2012-12-29T11:05:33.000Z</time>
      </trkpt>
      <trkpt lat="44.13107" lon="1.95101">
        <ele>309.8</ele>
        <time>2012-12-29T11:05:34.000Z</time>
      </trkpt>
      <trkpt lat="44.13108" lon="1.95105">
        <ele>309.8</ele>
        <time>2012-12-29T11:05:35.000Z</time>
      </trkpt>
      <trkpt lat="44.1311" lon="1.95107">
        <ele>309.7</ele>
        <time>2012-12-29T11:05:36.000Z</time>
      </trkpt>
      <trkpt lat="44.13112" lon="1.95109">
        <ele>309.6</ele>
        <time>2012-12-29T11:05:37.000Z</time>
      </trkpt>
      <trkpt lat="44.13115" lon="1.9511">
        <ele>309.6</ele>
        <time>2012-12-29T11:05:38.000Z</time>
      </trkpt>
      <trkpt lat="44.13118" lon="1.95111">
        <ele>309.6</ele>
        <time>2012-12-29T11:05:39.000Z</time>
      </trkpt>
      <trkpt lat="44.13122" lon="1.95113">
        <ele>309.5</ele>
        <time>2012-12-29T11:05:40.000Z</time>
      </trkpt>
      <trkpt lat="44.13126" lon="1.95114">
        <ele>309.5</ele>
        <time>2012-12-29T11:05:41.000Z</time>
      </trkpt>
      <trkpt lat="44.13131" lon="1.95115">
        <ele>309.2</ele>
        <time>2012-12-29T11:05:42.000Z</time>
      </trkpt>
      <trkpt lat="44.13136" lon="1.95117">
        <ele>309</ele>
        <time>2012-12-29T11:05:43.000Z</time>
      </trkpt>
      <trkpt lat="44.13141" lon="1.95119">
        <ele>308.8</ele>
        <time>2012-12-29T11:05:44.000Z</time>
      </trkpt>
      <trkpt lat="44.13146" lon="1.95121">
        <ele>308.4</ele>
        <time>2012-12-29T11:05:45.000Z</time>
      </trkpt>
      <trkpt lat="44.13152" lon="1.95123">
        <ele>308.1</ele>
        <time>2012-12-29T11:05:46.000Z</time>
      </trkpt>
      <trkpt lat="44.13158" lon="1.95124">
        <ele>307.2</ele>
        <time>2012-12-29T11:05:47.000Z</time>
      </trkpt>
      <trkpt lat="44.13164" lon="1.95126">
        <ele>306.3</ele>
        <time>2012-12-29T11:05:48.000Z</time>
      </trkpt>
      <trkpt lat="44.1317" lon="1.95128">
        <ele>305.4</ele>
        <time>2012-12-29T11:05:49.000Z</time>
      </trkpt>
      <trkpt lat="44.13176" lon="1.95131">
        <ele>304.2</ele>
        <time>2012-12-29T11:05:50.000Z</time>
      </trkpt>
      <trkpt lat="44.13183" lon="1.95134">
        <ele>303.1</ele>
        <time>2012-12-29T11:05:51.000Z</time>
      </trkpt>
      <trkpt lat="44.13191" lon="1.95136">
        <ele>302.1</ele>
        <time>2012-12-29T11:05:52.000Z</time>
      </trkpt>
      <trkpt lat="44.13198" lon="1.95139">
        <ele>301.4</ele>
        <time>2012-12-29T11:05:53.000Z</time>
      </trkpt>
      <trkpt lat="44.13205" lon="1.95141">
        <ele>301.5</ele>
        <time>2012-12-29T11:05:54.000Z</time>
      </trkpt>
      <trkpt lat="44.13212" lon="1.95143">
        <ele>301.4</ele>
        <time>2012-12-29T11:05:55.000Z</time>
      </trkpt>
      <trkpt lat="44.13218" lon="1.95145">
        <ele>301.4</ele>
        <time>2012-12-29T11:05:56.000Z</time>
      </trkpt>
      <trkpt lat="44.13225" lon="1.95146">
        <ele>301.4</ele>
        <time>2012-12-29T11:05:57.000Z</time>
      </trkpt>
      <trkpt lat="44.13231" lon="1.95148">
        <ele>301.6</ele>
        <time>2012-12-29T11:05:58.000Z</time>
      </trkpt>
      <trkpt lat="44.13236" lon="1.9515">
        <ele>302.1</ele>
        <time>2012-12-29T11:05:59.000Z</time>
      </trkpt>
      <trkpt lat="44.13241" lon="1.95151">
        <ele>302.6</ele>
        <time>2012-12-29T11:06:00.000Z</time>
      </trkpt>
      <trkpt lat="44.13246" lon="1.95151">
        <ele>303.1</ele>
        <time>2012-12-29T11:06:01.000Z</time>
      </trkpt>
      <trkpt lat="44.1325" lon="1.95152">
        <ele>303.4</ele>
        <time>2012-12-29T11:06:02.000Z</time>
      </trkpt>
      <trkpt lat="44.13254" lon="1.95151">
        <ele>303.7</ele>
        <time>2012-12-29T11:06:03.000Z</time>
      </trkpt>
      <trkpt lat="44.13259" lon="1.95151">
        <ele>304.2</ele>
        <time>2012-12-29T11:06:04.000Z</time>
      </trkpt>
      <trkpt lat="44.13263" lon="1.95151">
        <ele>304.3</ele>
        <time>2012-12-29T11:06:05.000Z</time>
      </trkpt>
      <trkpt lat="44.13268" lon="1.95152">
        <ele>304.3</ele>
        <time>2012-12-29T11:06:06.000Z</time>
      </trkpt>
      <trkpt lat="44.13272" lon="1.95152">
        <ele>304.6</ele>
        <time>2012-12-29T11:06:07.000Z</time>
      </trkpt>
      <trkpt lat="44.13277" lon="1.95155">
        <ele>304.2</ele>
        <time>2012-12-29T11:06:08.000Z</time>
      </trkpt>
      <trkpt lat="44.13282" lon="1.95159">
        <ele>303.4</ele>
        <time>2012-12-29T11:06:09.000Z</time>
      </trkpt>
      <trkpt lat="44.13287" lon="1.95163">
        <ele>302.1</ele>
        <time>2012-12-29T11:06:10.000Z</time>
      </trkpt>
      <trkpt lat="44.13292" lon="1.95168">
        <ele>301.1</ele>
        <time>2012-12-29T11:06:11.000Z</time>
      </trkpt>
      <trkpt lat="44.13296" lon="1.95174">
        <ele>300.2</ele>
        <time>2012-12-29T11:06:12.000Z</time>
      </trkpt>
      <trkpt lat="44.133" lon="1.9518">
        <ele>299.3</ele>
        <time>2012-12-29T11:06:13.000Z</time>
      </trkpt>
      <trkpt lat="44.13303" lon="1.95185">
        <ele>298.7</ele>
        <time>2012-12-29T11:06:14.000Z</time>
      </trkpt>
      <trkpt lat="44.13308" lon="1.95189">
        <ele>298.1</ele>
        <time>2012-12-29T11:06:15.000Z</time>
      </trkpt>
      <trkpt lat="44.13312" lon="1.95192">
        <ele>297.6</ele>
        <time>2012-12-29T11:06:16.000Z</time>
      </trkpt>
      <trkpt lat="44.13315" lon="1.95194">
        <ele>297.6</ele>
        <time>2012-12-29T11:06:17.000Z</time>
      </trkpt>
      <trkpt lat="44.13319" lon="1.95196">
        <ele>297.4</ele>
        <time>2012-12-29T11:06:18.000Z</time>
      </trkpt>
      <trkpt lat="44.13325" lon="1.95196">
        <ele>296.2</ele>
        <time>2012-12-29T11:06:19.000Z</time>
      </trkpt>
      <trkpt lat="44.13331" lon="1.95196">
        <ele>294.9</ele>
        <time>2012-12-29T11:06:20.000Z</time>
      </trkpt>
      <trkpt lat="44.13337" lon="1.95196">
        <ele>294.1</ele>
        <time>2012-12-29T11:06:21.000Z</time>
      </trkpt>
      <trkpt lat="44.13343" lon="1.95196">
        <ele>293.6</ele>
        <time>2012-12-29T11:06:22.000Z</time>
      </trkpt>
      <trkpt lat="44.13349" lon="1.95195">
        <ele>293.1</ele>
        <time>2012-12-29T11:06:23.000Z</time>
      </trkpt>
      <trkpt lat="44.13354" lon="1.95193">
        <ele>292.3</ele>
        <time>2012-12-29T11:06:24.000Z</time>
      </trkpt>
      <trkpt lat="44.13359" lon="1.95192">
        <ele>292.3</ele>
        <time>2012-12-29T11:06:25.000Z</time>
      </trkpt>
      <trkpt lat="44.13364" lon="1.9519">
        <ele>292.3</ele>
        <time>2012-12-29T11:06:26.000Z</time>
      </trkpt>
      <trkpt lat="44.13368" lon="1.95187">
        <ele>292.2</ele>
        <time>2012-12-29T11:06:27.000Z</time>
      </trkpt>
      <trkpt lat="44.13373" lon="1.95185">
        <ele>292.2</ele>
        <time>2012-12-29T11:06:28.000Z</time>
      </trkpt>
      <trkpt lat="44.13377" lon="1.95183">
        <ele>292.3</ele>
        <time>2012-12-29T11:06:29.000Z</time>
      </trkpt>
      <trkpt lat="44.13381" lon="1.9518">
        <ele>292.4</ele>
        <time>2012-12-29T11:06:30.000Z</time>
      </trkpt>
      <trkpt lat="44.13384" lon="1.95177">
        <ele>292.5</ele>
        <time>2012-12-29T11:06:31.000Z</time>
      </trkpt>
      <trkpt lat="44.13388" lon="1.95175">
        <ele>292.6</ele>
        <time>2012-12-29T11:06:32.000Z</time>
      </trkpt>
      <trkpt lat="44.13391" lon="1.95172">
        <ele>292.6</ele>
        <time>2012-12-29T11:06:33.000Z</time>
      </trkpt>
      <trkpt lat="44.13395" lon="1.95169">
        <ele>292.7</ele>
        <time>2012-12-29T11:06:34.000Z</time>
      </trkpt>
      <trkpt lat="44.13399" lon="1.95167">
        <ele>292.7</ele>
        <time>2012-12-29T11:06:35.000Z</time>
      </trkpt>
      <trkpt lat="44.13402" lon="1.95165">
        <ele>292.7</ele>
        <time>2012-12-29T11:06:36.000Z</time>
      </trkpt>
      <trkpt lat="44.13405" lon="1.95163">
        <ele>292.7</ele>
        <time>2012-12-29T11:06:37.000Z</time>
      </trkpt>
      <trkpt lat="44.13408" lon="1.95162">
        <ele>292.6</ele>
        <time>2012-12-29T11:06:38.000Z</time>
      </trkpt>
      <trkpt lat="44.13412" lon="1.9516">
        <ele>292.7</ele>
        <time>2012-12-29T11:06:40.000Z</time>
      </trkpt>
      <trkpt lat="44.13415" lon="1.95159">
        <ele>292.7</ele>
        <time>2012-12-29T11:06:41.000Z</time>
      </trkpt>
      <trkpt lat="44.13419" lon="1.95157">
        <ele>292.7</ele>
        <time>2012-12-29T11:06:42.000Z</time>
      </trkpt>
      <trkpt lat="44.13422" lon="1.95156">
        <ele>292.8</ele>
        <time>2012-12-29T11:06:43.000Z</time>
      </trkpt>
      <trkpt lat="44.13426" lon="1.95154">
        <ele>292.9</ele>
        <time>2012-12-29T11:06:44.000Z</time>
      </trkpt>
      <trkpt lat="44.13428" lon="1.95153">
        <ele>292.9</ele>
        <time>2012-12-29T11:06:45.000Z</time>
      </trkpt>
      <trkpt lat="44.1343" lon="1.95152">
        <ele>293</ele>
        <time>2012-12-29T11:06:46.000Z</time>
      </trkpt>
      <trkpt lat="44.13433" lon="1.95152">
        <ele>293</ele>
        <time>2012-12-29T11:06:47.000Z</time>
      </trkpt>
      <trkpt lat="44.13436" lon="1.95152">
        <ele>293.1</ele>
        <time>2012-12-29T11:06:48.000Z</time>
      </trkpt>
      <trkpt lat="44.13439" lon="1.95151">
        <ele>293.2</ele>
        <time>2012-12-29T11:06:49.000Z</time>
      </trkpt>
      <trkpt lat="44.13442" lon="1.95151">
        <ele>293.3</ele>
        <time>2012-12-29T11:06:50.000Z</time>
      </trkpt>
      <trkpt lat="44.13445" lon="1.95151">
        <ele>293.4</ele>
        <time>2012-12-29T11:06:51.000Z</time>
      </trkpt>
      <trkpt lat="44.13448" lon="1.95151">
        <ele>293.5</ele>
        <time>2012-12-29T11:06:52.000Z</time>
      </trkpt>
      <trkpt lat="44.13451" lon="1.95151">
        <ele>293.6</ele>
        <time>2012-12-29T11:06:53.000Z</time>
      </trkpt>
      <trkpt lat="44.13454" lon="1.95152">
        <ele>293.6</ele>
        <time>2012-12-29T11:06:54.000Z</time>
      </trkpt>
      <trkpt lat="44.13459" lon="1.95153">
        <ele>293.7</ele>
        <time>2012-12-29T11:06:55.000Z</time>
      </trkpt>
      <trkpt lat="44.13463" lon="1.95156">
        <ele>293.7</ele>
        <time>2012-12-29T11:06:56.000Z</time>
      </trkpt>
      <trkpt lat="44.13467" lon="1.95158">
        <ele>294.1</ele>
        <time>2012-12-29T11:06:57.000Z</time>
      </trkpt>
      <trkpt lat="44.13471" lon="1.9516">
        <ele>294.1</ele>
        <time>2012-12-29T11:06:58.000Z</time>
      </trkpt>
      <trkpt lat="44.13475" lon="1.95163">
        <ele>294.1</ele>
        <time>2012-12-29T11:06:59.000Z</time>
      </trkpt>
      <trkpt lat="44.13478" lon="1.95165">
        <ele>294.2</ele>
        <time>2012-12-29T11:07:00.000Z</time>
      </trkpt>
      <trkpt lat="44.13482" lon="1.95167">
        <ele>294.2</ele>
        <time>2012-12-29T11:07:01.000Z</time>
      </trkpt>
      <trkpt lat="44.13487" lon="1.9517">
        <ele>293.8</ele>
        <time>2012-12-29T11:07:02.000Z</time>
      </trkpt>
      <trkpt lat="44.13492" lon="1.95173">
        <ele>293.5</ele>
        <time>2012-12-29T11:07:03.000Z</time>
      </trkpt>
      <trkpt lat="44.13496" lon="1.95175">
        <ele>293</ele>
        <time>2012-12-29T11:07:04.000Z</time>
      </trkpt>
      <trkpt lat="44.13501" lon="1.95176">
        <ele>293</ele>
        <time>2012-12-29T11:07:05.000Z</time>
      </trkpt>
      <trkpt lat="44.13506" lon="1.95177">
        <ele>293</ele>
        <time>2012-12-29T11:07:06.000Z</time>
      </trkpt>
      <trkpt lat="44.13512" lon="1.95177">
        <ele>293.1</ele>
        <time>2012-12-29T11:07:07.000Z</time>
      </trkpt>
      <trkpt lat="44.13517" lon="1.95178">
        <ele>293.1</ele>
        <time>2012-12-29T11:07:08.000Z</time>
      </trkpt>
      <trkpt lat="44.13521" lon="1.95179">
        <ele>293.1</ele>
        <time>2012-12-29T11:07:09.000Z</time>
      </trkpt>
      <trkpt lat="44.13526" lon="1.9518">
        <ele>292.9</ele>
        <time>2012-12-29T11:07:10.000Z</time>
      </trkpt>
      <trkpt lat="44.1353" lon="1.95181">
        <ele>292.9</ele>
        <time>2012-12-29T11:07:11.000Z</time>
      </trkpt>
      <trkpt lat="44.13536" lon="1.95182">
        <ele>292.2</ele>
        <time>2012-12-29T11:07:12.000Z</time>
      </trkpt>
      <trkpt lat="44.13541" lon="1.95184">
        <ele>292.1</ele>
        <time>2012-12-29T11:07:13.000Z</time>
      </trkpt>
      <trkpt lat="44.13547" lon="1.95185">
        <ele>291.3</ele>
        <time>2012-12-29T11:07:14.000Z</time>
      </trkpt>
      <trkpt lat="44.13552" lon="1.95186">
        <ele>291.4</ele>
        <time>2012-12-29T11:07:15.000Z</time>
      </trkpt>
      <trkpt lat="44.13558" lon="1.95185">
        <ele>291.4</ele>
        <time>2012-12-29T11:07:16.000Z</time>
      </trkpt>
      <trkpt lat="44.13564" lon="1.95184">
        <ele>291.6</ele>
        <time>2012-12-29T11:07:17.000Z</time>
      </trkpt>
      <trkpt lat="44.1357" lon="1.95182">
        <ele>291.2</ele>
        <time>2012-12-29T11:07:18.000Z</time>
      </trkpt>
      <trkpt lat="44.13577" lon="1.9518">
        <ele>290.4</ele>
        <time>2012-12-29T11:07:19.000Z</time>
      </trkpt>
      <trkpt lat="44.13583" lon="1.95178">
        <ele>289.4</ele>
        <time>2012-12-29T11:07:20.000Z</time>
      </trkpt>
      <trkpt lat="44.13589" lon="1.95176">
        <ele>289.2</ele>
        <time>2012-12-29T11:07:21.000Z</time>
      </trkpt>
      <trkpt lat="44.13594" lon="1.95174">
        <ele>288.1</ele>
        <time>2012-12-29T11:07:22.000Z</time>
      </trkpt>
      <trkpt lat="44.136" lon="1.95171">
        <ele>288.1</ele>
        <time>2012-12-29T11:07:23.000Z</time>
      </trkpt>
      <trkpt lat="44.13604" lon="1.95167">
        <ele>288</ele>
        <time>2012-12-29T11:07:24.000Z</time>
      </trkpt>
      <trkpt lat="44.13608" lon="1.95164">
        <ele>287.2</ele>
        <time>2012-12-29T11:07:25.000Z</time>
      </trkpt>
      <trkpt lat="44.13612" lon="1.9516">
        <ele>286.6</ele>
        <time>2012-12-29T11:07:26.000Z</time>
      </trkpt>
      <trkpt lat="44.13614" lon="1.95156">
        <ele>286.2</ele>
        <time>2012-12-29T11:07:27.000Z</time>
      </trkpt>
      <trkpt lat="44.13616" lon="1.95152">
        <ele>285.1</ele>
        <time>2012-12-29T11:07:28.000Z</time>
      </trkpt>
      <trkpt lat="44.13619" lon="1.95148">
        <ele>284.9</ele>
        <time>2012-12-29T11:07:29.000Z</time>
      </trkpt>
      <trkpt lat="44.13622" lon="1.95145">
        <ele>284.9</ele>
        <time>2012-12-29T11:07:30.000Z</time>
      </trkpt>
      <trkpt lat="44.13625" lon="1.9514">
        <ele>284.9</ele>
        <time>2012-12-29T11:07:31.000Z</time>
      </trkpt>
      <trkpt lat="44.13628" lon="1.95134">
        <ele>285.3</ele>
        <time>2012-12-29T11:07:32.000Z</time>
      </trkpt>
      <trkpt lat="44.13631" lon="1.95128">
        <ele>285.8</ele>
        <time>2012-12-29T11:07:33.000Z</time>
      </trkpt>
      <trkpt lat="44.13634" lon="1.95122">
        <ele>285.2</ele>
        <time>2012-12-29T11:07:34.000Z</time>
      </trkpt>
      <trkpt lat="44.13637" lon="1.95113">
        <ele>284.3</ele>
        <time>2012-12-29T11:07:35.000Z</time>
      </trkpt>
      <trkpt lat="44.13639" lon="1.95106">
        <ele>283.2</ele>
        <time>2012-12-29T11:07:36.000Z</time>
      </trkpt>
      <trkpt lat="44.13643" lon="1.95098">
        <ele>282.8</ele>
        <time>2012-12-29T11:07:37.000Z</time>
      </trkpt>
      <trkpt lat="44.13646" lon="1.95091">
        <ele>282.5</ele>
        <time>2012-12-29T11:07:38.000Z</time>
      </trkpt>
      <trkpt lat="44.13649" lon="1.95085">
        <ele>281.8</ele>
        <time>2012-12-29T11:07:39.000Z</time>
      </trkpt>
      <trkpt lat="44.13652" lon="1.9508">
        <ele>280.3</ele>
        <time>2012-12-29T11:07:40.000Z</time>
      </trkpt>
      <trkpt lat="44.13655" lon="1.95074">
        <ele>279.6</ele>
        <time>2012-12-29T11:07:41.000Z</time>
      </trkpt>
      <trkpt lat="44.13659" lon="1.9507">
        <ele>278.5</ele>
        <time>2012-12-29T11:07:42.000Z</time>
      </trkpt>
      <trkpt lat="44.13662" lon="1.95067">
        <ele>278.3</ele>
        <time>2012-12-29T11:07:43.000Z</time>
      </trkpt>
      <trkpt lat="44.13665" lon="1.95064">
        <ele>278.2</ele>
        <time>2012-12-29T11:07:44.000Z</time>
      </trkpt>
      <trkpt lat="44.13668" lon="1.95061">
        <ele>278.1</ele>
        <time>2012-12-29T11:07:45.000Z</time>
      </trkpt>
      <trkpt lat="44.13672" lon="1.95057">
        <ele>277.6</ele>
        <time>2012-12-29T11:07:46.000Z</time>
      </trkpt>
      <trkpt lat="44.13675" lon="1.95053">
        <ele>277.6</ele>
        <time>2012-12-29T11:07:47.000Z</time>
      </trkpt>
      <trkpt lat="44.13677" lon="1.9505">
        <ele>277.5</ele>
        <time>2012-12-29T11:07:48.000Z</time>
      </trkpt>
      <trkpt lat="44.13679" lon="1.95047">
        <ele>277.5</ele>
        <time>2012-12-29T11:07:49.000Z</time>
      </trkpt>
      <trkpt lat="44.13682" lon="1.95044">
        <ele>277.5</ele>
        <time>2012-12-29T11:07:50.000Z</time>
      </trkpt>
      <trkpt lat="44.13683" lon="1.95043">
        <ele>277.6</ele>
        <time>2012-12-29T11:07:51.000Z</time>
      </trkpt>
      <trkpt lat="44.13686" lon="1.95041">
        <ele>277.5</ele>
        <time>2012-12-29T11:07:52.000Z</time>
      </trkpt>
      <trkpt lat="44.13689" lon="1.9504">
        <ele>277.4</ele>
        <time>2012-12-29T11:07:53.000Z</time>
      </trkpt>
      <trkpt lat="44.13692" lon="1.95038">
        <ele>277.3</ele>
        <time>2012-12-29T11:07:54.000Z</time>
      </trkpt>
      <trkpt lat="44.13695" lon="1.95037">
        <ele>277.2</ele>
        <time>2012-12-29T11:07:55.000Z</time>
      </trkpt>
      <trkpt lat="44.13699" lon="1.95035">
        <ele>277.1</ele>
        <time>2012-12-29T11:07:56.000Z</time>
      </trkpt>
      <trkpt lat="44.13702" lon="1.95033">
        <ele>277</ele>
        <time>2012-12-29T11:07:57.000Z</time>
      </trkpt>
      <trkpt lat="44.13706" lon="1.95032">
        <ele>276.9</ele>
        <time>2012-12-29T11:07:58.000Z</time>
      </trkpt>
      <trkpt lat="44.1371" lon="1.9503">
        <ele>276.9</ele>
        <time>2012-12-29T11:07:59.000Z</time>
      </trkpt>
      <trkpt lat="44.13713" lon="1.95028">
        <ele>276.9</ele>
        <time>2012-12-29T11:08:00.000Z</time>
      </trkpt>
      <trkpt lat="44.13716" lon="1.95027">
        <ele>276.8</ele>
        <time>2012-12-29T11:08:01.000Z</time>
      </trkpt>
      <trkpt lat="44.1372" lon="1.95025">
        <ele>276.6</ele>
        <time>2012-12-29T11:08:02.000Z</time>
      </trkpt>
      <trkpt lat="44.13723" lon="1.95024">
        <ele>276.5</ele>
        <time>2012-12-29T11:08:03.000Z</time>
      </trkpt>
      <trkpt lat="44.13725" lon="1.95023">
        <ele>276.3</ele>
        <time>2012-12-29T11:08:04.000Z</time>
      </trkpt>
      <trkpt lat="44.13729" lon="1.95022">
        <ele>276.1</ele>
        <time>2012-12-29T11:08:06.000Z</time>
      </trkpt>
      <trkpt lat="44.13732" lon="1.95021">
        <ele>276</ele>
        <time>2012-12-29T11:08:07.000Z</time>
      </trkpt>
      <trkpt lat="44.13736" lon="1.95019">
        <ele>276</ele>
        <time>2012-12-29T11:08:08.000Z</time>
      </trkpt>
      <trkpt lat="44.1374" lon="1.95017">
        <ele>275.9</ele>
        <time>2012-12-29T11:08:09.000Z</time>
      </trkpt>
      <trkpt lat="44.13743" lon="1.95015">
        <ele>275.8</ele>
        <time>2012-12-29T11:08:10.000Z</time>
      </trkpt>
      <trkpt lat="44.13747" lon="1.95013">
        <ele>275.7</ele>
        <time>2012-12-29T11:08:11.000Z</time>
      </trkpt>
      <trkpt lat="44.13751" lon="1.95011">
        <ele>274.9</ele>
        <time>2012-12-29T11:08:12.000Z</time>
      </trkpt>
      <trkpt lat="44.13756" lon="1.9501">
        <ele>274.3</ele>
        <time>2012-12-29T11:08:13.000Z</time>
      </trkpt>
      <trkpt lat="44.13762" lon="1.95009">
        <ele>274.3</ele>
        <time>2012-12-29T11:08:14.000Z</time>
      </trkpt>
      <trkpt lat="44.13767" lon="1.95008">
        <ele>274.2</ele>
        <time>2012-12-29T11:08:15.000Z</time>
      </trkpt>
      <trkpt lat="44.13773" lon="1.95007">
        <ele>274</ele>
        <time>2012-12-29T11:08:16.000Z</time>
      </trkpt>
      <trkpt lat="44.13778" lon="1.95006">
        <ele>273.9</ele>
        <time>2012-12-29T11:08:17.000Z</time>
      </trkpt>
      <trkpt lat="44.13782" lon="1.95005">
        <ele>273.8</ele>
        <time>2012-12-29T11:08:18.000Z</time>
      </trkpt>
      <trkpt lat="44.13786" lon="1.95004">
        <ele>273.8</ele>
        <time>2012-12-29T11:08:19.000Z</time>
      </trkpt>
      <trkpt lat="44.13791" lon="1.95002">
        <ele>273.8</ele>
        <time>2012-12-29T11:08:20.000Z</time>
      </trkpt>
      <trkpt lat="44.13796" lon="1.95001">
        <ele>273.4</ele>
        <time>2012-12-29T11:08:21.000Z</time>
      </trkpt>
      <trkpt lat="44.138" lon="1.95">
        <ele>273.4</ele>
        <time>2012-12-29T11:08:22.000Z</time>
      </trkpt>
      <trkpt lat="44.13805" lon="1.94998">
        <ele>273.3</ele>
        <time>2012-12-29T11:08:23.000Z</time>
      </trkpt>
      <trkpt lat="44.13808" lon="1.94998">
        <ele>273.3</ele>
        <time>2012-12-29T11:08:24.000Z</time>
      </trkpt>
      <trkpt lat="44.13811" lon="1.94999">
        <ele>273.2</ele>
        <time>2012-12-29T11:08:25.000Z</time>
      </trkpt>
      <trkpt lat="44.13814" lon="1.94999">
        <ele>273</ele>
        <time>2012-12-29T11:08:26.000Z</time>
      </trkpt>
      <trkpt lat="44.13817" lon="1.95">
        <ele>272.9</ele>
        <time>2012-12-29T11:08:27.000Z</time>
      </trkpt>
      <trkpt lat="44.13819" lon="1.95001">
        <ele>272.7</ele>
        <time>2012-12-29T11:08:28.000Z</time>
      </trkpt>
      <trkpt lat="44.13822" lon="1.95001">
        <ele>272.6</ele>
        <time>2012-12-29T11:08:29.000Z</time>
      </trkpt>
      <trkpt lat="44.13826" lon="1.95002">
        <ele>272.5</ele>
        <time>2012-12-29T11:08:30.000Z</time>
      </trkpt>
      <trkpt lat="44.1383" lon="1.95003">
        <ele>272.3</ele>
        <time>2012-12-29T11:08:31.000Z</time>
      </trkpt>
      <trkpt lat="44.13834" lon="1.95002">
        <ele>272.3</ele>
        <time>2012-12-29T11:08:32.000Z</time>
      </trkpt>
      <trkpt lat="44.13837" lon="1.95002">
        <ele>272.1</ele>
        <time>2012-12-29T11:08:33.000Z</time>
      </trkpt>
      <trkpt lat="44.13842" lon="1.95001">
        <ele>272</ele>
        <time>2012-12-29T11:08:34.000Z</time>
      </trkpt>
      <trkpt lat="44.13846" lon="1.94999">
        <ele>272</ele>
        <time>2012-12-29T11:08:35.000Z</time>
      </trkpt>
      <trkpt lat="44.13849" lon="1.94998">
        <ele>271.9</ele>
        <time>2012-12-29T11:08:36.000Z</time>
      </trkpt>
      <trkpt lat="44.13853" lon="1.94996">
        <ele>271.8</ele>
        <time>2012-12-29T11:08:37.000Z</time>
      </trkpt>
      <trkpt lat="44.13857" lon="1.94994">
        <ele>271.7</ele>
        <time>2012-12-29T11:08:38.000Z</time>
      </trkpt>
      <trkpt lat="44.13861" lon="1.94991">
        <ele>271.6</ele>
        <time>2012-12-29T11:08:39.000Z</time>
      </trkpt>
      <trkpt lat="44.13865" lon="1.94989">
        <ele>270.9</ele>
        <time>2012-12-29T11:08:40.000Z</time>
      </trkpt>
      <trkpt lat="44.13869" lon="1.94987">
        <ele>270.7</ele>
        <time>2012-12-29T11:08:41.000Z</time>
      </trkpt>
      <trkpt lat="44.13884" lon="1.94981">
        <ele>270.6</ele>
        <time>2012-12-29T11:08:42.000Z</time>
      </trkpt>
      <trkpt lat="44.13895" lon="1.94976">
        <ele>270.5</ele>
        <time>2012-12-29T11:08:43.000Z</time>
      </trkpt>
      <trkpt lat="44.13905" lon="1.94972">
        <ele>270.3</ele>
        <time>2012-12-29T11:08:44.000Z</time>
      </trkpt>
      <trkpt lat="44.13915" lon="1.94968">
        <ele>270.2</ele>
        <time>2012-12-29T11:08:45.000Z</time>
      </trkpt>
      <trkpt lat="44.13923" lon="1.94964">
        <ele>270.1</ele>
        <time>2012-12-29T11:08:46.000Z</time>
      </trkpt>
      <trkpt lat="44.13933" lon="1.94959">
        <ele>269.9</ele>
        <time>2012-12-29T11:08:47.000Z</time>
      </trkpt>
      <trkpt lat="44.1394" lon="1.94955">
        <ele>269.8</ele>
        <time>2012-12-29T11:08:48.000Z</time>
      </trkpt>
      <trkpt lat="44.13946" lon="1.94951">
        <ele>267.8</ele>
        <time>2012-12-29T11:08:49.000Z</time>
      </trkpt>
      <trkpt lat="44.13953" lon="1.94947">
        <ele>267.7</ele>
        <time>2012-12-29T11:08:50.000Z</time>
      </trkpt>
      <trkpt lat="44.13958" lon="1.94942">
        <ele>266.5</ele>
        <time>2012-12-29T11:08:51.000Z</time>
      </trkpt>
      <trkpt lat="44.13964" lon="1.94938">
        <ele>266.4</ele>
        <time>2012-12-29T11:08:52.000Z</time>
      </trkpt>
      <trkpt lat="44.1397" lon="1.94933">
        <ele>266.3</ele>
        <time>2012-12-29T11:08:53.000Z</time>
      </trkpt>
      <trkpt lat="44.13976" lon="1.94929">
        <ele>266.1</ele>
        <time>2012-12-29T11:08:54.000Z</time>
      </trkpt>
      <trkpt lat="44.13981" lon="1.94925">
        <ele>266</ele>
        <time>2012-12-29T11:08:55.000Z</time>
      </trkpt>
      <trkpt lat="44.13986" lon="1.94921">
        <ele>265.8</ele>
        <time>2012-12-29T11:08:56.000Z</time>
      </trkpt>
      <trkpt lat="44.1399" lon="1.94918">
        <ele>265.6</ele>
        <time>2012-12-29T11:08:57.000Z</time>
      </trkpt>
      <trkpt lat="44.13995" lon="1.94914">
        <ele>265.5</ele>
        <time>2012-12-29T11:08:58.000Z</time>
      </trkpt>
      <trkpt lat="44.13999" lon="1.94909">
        <ele>265.3</ele>
        <time>2012-12-29T11:08:59.000Z</time>
      </trkpt>
      <trkpt lat="44.14003" lon="1.94904">
        <ele>263.2</ele>
        <time>2012-12-29T11:09:00.000Z</time>
      </trkpt>
      <trkpt lat="44.14006" lon="1.94899">
        <ele>261.3</ele>
        <time>2012-12-29T11:09:01.000Z</time>
      </trkpt>
      <trkpt lat="44.14007" lon="1.94894">
        <ele>261</ele>
        <time>2012-12-29T11:09:02.000Z</time>
      </trkpt>
      <trkpt lat="44.14008" lon="1.94889">
        <ele>260.9</ele>
        <time>2012-12-29T11:09:03.000Z</time>
      </trkpt>
      <trkpt lat="44.14008" lon="1.94884">
        <ele>260.7</ele>
        <time>2012-12-29T11:09:04.000Z</time>
      </trkpt>
      <trkpt lat="44.14009" lon="1.9488">
        <ele>260.5</ele>
        <time>2012-12-29T11:09:05.000Z</time>
      </trkpt>
      <trkpt lat="44.14011" lon="1.94875">
        <ele>260.3</ele>
        <time>2012-12-29T11:09:06.000Z</time>
      </trkpt>
      <trkpt lat="44.14013" lon="1.9487">
        <ele>260</ele>
        <time>2012-12-29T11:09:07.000Z</time>
      </trkpt>
      <trkpt lat="44.14014" lon="1.94866">
        <ele>259.8</ele>
        <time>2012-12-29T11:09:08.000Z</time>
      </trkpt>
      <trkpt lat="44.14016" lon="1.94861">
        <ele>259.4</ele>
        <time>2012-12-29T11:09:09.000Z</time>
      </trkpt>
      <trkpt lat="44.14018" lon="1.94857">
        <ele>259.1</ele>
        <time>2012-12-29T11:09:10.000Z</time>
      </trkpt>
      <trkpt lat="44.1402" lon="1.94855">
        <ele>258.8</ele>
        <time>2012-12-29T11:09:11.000Z</time>
      </trkpt>
      <trkpt lat="44.14023" lon="1.94853">
        <ele>258.5</ele>
        <time>2012-12-29T11:09:12.000Z</time>
      </trkpt>
      <trkpt lat="44.14026" lon="1.9485">
        <ele>258.2</ele>
        <time>2012-12-29T11:09:13.000Z</time>
      </trkpt>
      <trkpt lat="44.1403" lon="1.94847">
        <ele>258</ele>
        <time>2012-12-29T11:09:14.000Z</time>
      </trkpt>
      <trkpt lat="44.14033" lon="1.94845">
        <ele>257.7</ele>
        <time>2012-12-29T11:09:15.000Z</time>
      </trkpt>
      <trkpt lat="44.14036" lon="1.94842">
        <ele>257.4</ele>
        <time>2012-12-29T11:09:16.000Z</time>
      </trkpt>
      <trkpt lat="44.14039" lon="1.94839">
        <ele>257</ele>
        <time>2012-12-29T11:09:17.000Z</time>
      </trkpt>
      <trkpt lat="44.14042" lon="1.94834">
        <ele>256.7</ele>
        <time>2012-12-29T11:09:18.000Z</time>
      </trkpt>
      <trkpt lat="44.14045" lon="1.94829">
        <ele>256.3</ele>
        <time>2012-12-29T11:09:19.000Z</time>
      </trkpt>
      <trkpt lat="44.14048" lon="1.94824">
        <ele>255.8</ele>
        <time>2012-12-29T11:09:20.000Z</time>
      </trkpt>
      <trkpt lat="44.1405" lon="1.94818">
        <ele>255.3</ele>
        <time>2012-12-29T11:09:21.000Z</time>
      </trkpt>
      <trkpt lat="44.14052" lon="1.94813">
        <ele>254.9</ele>
        <time>2012-12-29T11:09:22.000Z</time>
      </trkpt>
      <trkpt lat="44.14053" lon="1.94808">
        <ele>254.4</ele>
        <time>2012-12-29T11:09:23.000Z</time>
      </trkpt>
      <trkpt lat="44.14055" lon="1.94801">
        <ele>248.8</ele>
        <time>2012-12-29T11:09:24.000Z</time>
      </trkpt>
      <trkpt lat="44.14056" lon="1.94797">
        <ele>248.3</ele>
        <time>2012-12-29T11:09:25.000Z</time>
      </trkpt>
      <trkpt lat="44.14057" lon="1.94793">
        <ele>247.8</ele>
        <time>2012-12-29T11:09:26.000Z</time>
      </trkpt>
      <trkpt lat="44.14058" lon="1.94787">
        <ele>247.3</ele>
        <time>2012-12-29T11:09:27.000Z</time>
      </trkpt>
      <trkpt lat="44.14058" lon="1.94782">
        <ele>246.7</ele>
        <time>2012-12-29T11:09:28.000Z</time>
      </trkpt>
      <trkpt lat="44.14059" lon="1.94778">
        <ele>246.2</ele>
        <time>2012-12-29T11:09:29.000Z</time>
      </trkpt>
      <trkpt lat="44.14059" lon="1.94774">
        <ele>245.7</ele>
        <time>2012-12-29T11:09:30.000Z</time>
      </trkpt>
      <trkpt lat="44.1406" lon="1.94769">
        <ele>245.1</ele>
        <time>2012-12-29T11:09:31.000Z</time>
      </trkpt>
      <trkpt lat="44.1406" lon="1.94763">
        <ele>244.5</ele>
        <time>2012-12-29T11:09:32.000Z</time>
      </trkpt>
      <trkpt lat="44.14061" lon="1.94756">
        <ele>243.9</ele>
        <time>2012-12-29T11:09:33.000Z</time>
      </trkpt>
      <trkpt lat="44.1406" lon="1.9475">
        <ele>243.4</ele>
        <time>2012-12-29T11:09:34.000Z</time>
      </trkpt>
      <trkpt lat="44.1406" lon="1.94744">
        <ele>242.8</ele>
        <time>2012-12-29T11:09:35.000Z</time>
      </trkpt>
      <trkpt lat="44.1406" lon="1.94739">
        <ele>242.1</ele>
        <time>2012-12-29T11:09:36.000Z</time>
      </trkpt>
      <trkpt lat="44.14061" lon="1.94731">
        <ele>241.5</ele>
        <time>2012-12-29T11:09:37.000Z</time>
      </trkpt>
      <trkpt lat="44.14063" lon="1.94722">
        <ele>240.9</ele>
        <time>2012-12-29T11:09:38.000Z</time>
      </trkpt>
      <trkpt lat="44.14063" lon="1.94713">
        <ele>240.3</ele>
        <time>2012-12-29T11:09:39.000Z</time>
      </trkpt>
      <trkpt lat="44.14064" lon="1.94707">
        <ele>239.7</ele>
        <time>2012-12-29T11:09:40.000Z</time>
      </trkpt>
      <trkpt lat="44.14064" lon="1.94707">
        <ele>239.1</ele>
        <time>2012-12-29T11:09:41.000Z</time>
      </trkpt>
      <trkpt lat="44.14067" lon="1.94688">
        <ele>239.1</ele>
        <time>2012-12-29T11:09:42.000Z</time>
      </trkpt>
      <trkpt lat="44.14067" lon="1.94681">
        <ele>238.5</ele>
        <time>2012-12-29T11:09:43.000Z</time>
      </trkpt>
      <trkpt lat="44.14069" lon="1.94673">
        <ele>238</ele>
        <time>2012-12-29T11:09:44.000Z</time>
      </trkpt>
      <trkpt lat="44.14069" lon="1.94673">
        <ele>237.8</ele>
        <time>2012-12-29T11:09:48.000Z</time>
      </trkpt>
      <trkpt lat="44.14071" lon="1.94663">
        <ele>237.1</ele>
        <time>2012-12-29T11:09:49.000Z</time>
      </trkpt>
      <trkpt lat="44.14073" lon="1.94648">
        <ele>236.4</ele>
        <time>2012-12-29T11:09:50.000Z</time>
      </trkpt>
      <trkpt lat="44.14073" lon="1.94638">
        <ele>235.7</ele>
        <time>2012-12-29T11:09:51.000Z</time>
      </trkpt>
      <trkpt lat="44.14074" lon="1.94632">
        <ele>235</ele>
        <time>2012-12-29T11:09:52.000Z</time>
      </trkpt>
      <trkpt lat="44.14075" lon="1.94625">
        <ele>234.4</ele>
        <time>2012-12-29T11:09:53.000Z</time>
      </trkpt>
      <trkpt lat="44.14076" lon="1.94618">
        <ele>233.9</ele>
        <time>2012-12-29T11:09:54.000Z</time>
      </trkpt>
      <trkpt lat="44.14077" lon="1.94611">
        <ele>233.4</ele>
        <time>2012-12-29T11:09:55.000Z</time>
      </trkpt>
      <trkpt lat="44.14079" lon="1.94603">
        <ele>232.9</ele>
        <time>2012-12-29T11:09:56.000Z</time>
      </trkpt>
      <trkpt lat="44.14081" lon="1.94596">
        <ele>232.5</ele>
        <time>2012-12-29T11:09:57.000Z</time>
      </trkpt>
      <trkpt lat="44.14082" lon="1.9459">
        <ele>232.1</ele>
        <time>2012-12-29T11:09:58.000Z</time>
      </trkpt>
      <trkpt lat="44.14083" lon="1.94584">
        <ele>231.7</ele>
        <time>2012-12-29T11:09:59.000Z</time>
      </trkpt>
      <trkpt lat="44.14083" lon="1.94576">
        <ele>231.3</ele>
        <time>2012-12-29T11:10:00.000Z</time>
      </trkpt>
      <trkpt lat="44.14084" lon="1.94568">
        <ele>230.9</ele>
        <time>2012-12-29T11:10:01.000Z</time>
      </trkpt>
      <trkpt lat="44.14086" lon="1.94559">
        <ele>230.5</ele>
        <time>2012-12-29T11:10:02.000Z</time>
      </trkpt>
      <trkpt lat="44.14088" lon="1.9455">
        <ele>230.2</ele>
        <time>2012-12-29T11:10:03.000Z</time>
      </trkpt>
      <trkpt lat="44.14089" lon="1.94542">
        <ele>229.9</ele>
        <time>2012-12-29T11:10:04.000Z</time>
      </trkpt>
      <trkpt lat="44.14091" lon="1.94534">
        <ele>229.7</ele>
        <time>2012-12-29T11:10:05.000Z</time>
      </trkpt>
      <trkpt lat="44.14092" lon="1.94526">
        <ele>229.4</ele>
        <time>2012-12-29T11:10:06.000Z</time>
      </trkpt>
      <trkpt lat="44.14094" lon="1.94518">
        <ele>229.2</ele>
        <time>2012-12-29T11:10:07.000Z</time>
      </trkpt>
      <trkpt lat="44.14095" lon="1.94512">
        <ele>229.1</ele>
        <time>2012-12-29T11:10:08.000Z</time>
      </trkpt>
      <trkpt lat="44.14097" lon="1.94506">
        <ele>229</ele>
        <time>2012-12-29T11:10:09.000Z</time>
      </trkpt>
      <trkpt lat="44.14099" lon="1.94503">
        <ele>228.9</ele>
        <time>2012-12-29T11:10:10.000Z</time>
      </trkpt>
      <trkpt lat="44.141" lon="1.94501">
        <ele>229</ele>
        <time>2012-12-29T11:10:20.000Z</time>
      </trkpt>
      <trkpt lat="44.14102" lon="1.94497">
        <ele>229.1</ele>
        <time>2012-12-29T11:10:21.000Z</time>
      </trkpt>
      <trkpt lat="44.14105" lon="1.94494">
        <ele>229.3</ele>
        <time>2012-12-29T11:10:22.000Z</time>
      </trkpt>
      <trkpt lat="44.14106" lon="1.94492">
        <ele>229.4</ele>
        <time>2012-12-29T11:10:23.000Z</time>
      </trkpt>
      <trkpt lat="44.14108" lon="1.94489">
        <ele>229.4</ele>
        <time>2012-12-29T11:10:24.000Z</time>
      </trkpt>
      <trkpt lat="44.14111" lon="1.94486">
        <ele>229.4</ele>
        <time>2012-12-29T11:10:25.000Z</time>
      </trkpt>
      <trkpt lat="44.14114" lon="1.94481">
        <ele>229.4</ele>
        <time>2012-12-29T11:10:26.000Z</time>
      </trkpt>
      <trkpt lat="44.14117" lon="1.94475">
        <ele>229.3</ele>
        <time>2012-12-29T11:10:27.000Z</time>
      </trkpt>
      <trkpt lat="44.1412" lon="1.94469">
        <ele>228</ele>
        <time>2012-12-29T11:10:28.000Z</time>
      </trkpt>
      <trkpt lat="44.14123" lon="1.94463">
        <ele>226.3</ele>
        <time>2012-12-29T11:10:29.000Z</time>
      </trkpt>
      <trkpt lat="44.14125" lon="1.94456">
        <ele>225.4</ele>
        <time>2012-12-29T11:10:30.000Z</time>
      </trkpt>
      <trkpt lat="44.14128" lon="1.94449">
        <ele>223.7</ele>
        <time>2012-12-29T11:10:31.000Z</time>
      </trkpt>
      <trkpt lat="44.1413" lon="1.9444">
        <ele>222.7</ele>
        <time>2012-12-29T11:10:32.000Z</time>
      </trkpt>
      <trkpt lat="44.14134" lon="1.94433">
        <ele>220.9</ele>
        <time>2012-12-29T11:10:33.000Z</time>
      </trkpt>
      <trkpt lat="44.14137" lon="1.94424">
        <ele>219.9</ele>
        <time>2012-12-29T11:10:34.000Z</time>
      </trkpt>
      <trkpt lat="44.1414" lon="1.94415">
        <ele>219.5</ele>
        <time>2012-12-29T11:10:35.000Z</time>
      </trkpt>
      <trkpt lat="44.14141" lon="1.94407">
        <ele>219.3</ele>
        <time>2012-12-29T11:10:36.000Z</time>
      </trkpt>
      <trkpt lat="44.14141" lon="1.94398">
        <ele>219.1</ele>
        <time>2012-12-29T11:10:37.000Z</time>
      </trkpt>
      <trkpt lat="44.14143" lon="1.9439">
        <ele>218</ele>
        <time>2012-12-29T11:10:38.000Z</time>
      </trkpt>
      <trkpt lat="44.14144" lon="1.94383">
        <ele>216.3</ele>
        <time>2012-12-29T11:10:39.000Z</time>
      </trkpt>
      <trkpt lat="44.14145" lon="1.94376">
        <ele>214.6</ele>
        <time>2012-12-29T11:10:40.000Z</time>
      </trkpt>
      <trkpt lat="44.14147" lon="1.94368">
        <ele>213.9</ele>
        <time>2012-12-29T11:10:41.000Z</time>
      </trkpt>
      <trkpt lat="44.14149" lon="1.94362">
        <ele>213.9</ele>
        <time>2012-12-29T11:10:42.000Z</time>
      </trkpt>
      <trkpt lat="44.1415" lon="1.94358">
        <ele>213.8</ele>
        <time>2012-12-29T11:10:43.000Z</time>
      </trkpt>
      <trkpt lat="44.14151" lon="1.94354">
        <ele>213.8</ele>
        <time>2012-12-29T11:10:44.000Z</time>
      </trkpt>
      <trkpt lat="44.14152" lon="1.9435">
        <ele>213.7</ele>
        <time>2012-12-29T11:10:45.000Z</time>
      </trkpt>
      <trkpt lat="44.14153" lon="1.94346">
        <ele>213.6</ele>
        <time>2012-12-29T11:10:46.000Z</time>
      </trkpt>
      <trkpt lat="44.14154" lon="1.94344">
        <ele>213.6</ele>
        <time>2012-12-29T11:10:47.000Z</time>
      </trkpt>
      <trkpt lat="44.14157" lon="1.94339">
        <ele>213.4</ele>
        <time>2012-12-29T11:10:49.000Z</time>
      </trkpt>
      <trkpt lat="44.14159" lon="1.94338">
        <ele>213.4</ele>
        <time>2012-12-29T11:10:50.000Z</time>
      </trkpt>
      <trkpt lat="44.14161" lon="1.94338">
        <ele>213.3</ele>
        <time>2012-12-29T11:10:51.000Z</time>
      </trkpt>
      <trkpt lat="44.14164" lon="1.94337">
        <ele>213.1</ele>
        <time>2012-12-29T11:10:52.000Z</time>
      </trkpt>
      <trkpt lat="44.14167" lon="1.94337">
        <ele>213</ele>
        <time>2012-12-29T11:10:53.000Z</time>
      </trkpt>
      <trkpt lat="44.1417" lon="1.94338">
        <ele>212.9</ele>
        <time>2012-12-29T11:10:54.000Z</time>
      </trkpt>
      <trkpt lat="44.14173" lon="1.94339">
        <ele>212.7</ele>
        <time>2012-12-29T11:10:55.000Z</time>
      </trkpt>
      <trkpt lat="44.14175" lon="1.9434">
        <ele>212.6</ele>
        <time>2012-12-29T11:10:56.000Z</time>
      </trkpt>
      <trkpt lat="44.1418" lon="1.9434">
        <ele>212</ele>
        <time>2012-12-29T11:11:00.000Z</time>
      </trkpt>
      <trkpt lat="44.1418" lon="1.94339">
        <ele>211.7</ele>
        <time>2012-12-29T11:11:01.000Z</time>
      </trkpt>
      <trkpt lat="44.14184" lon="1.94336">
        <ele>211.5</ele>
        <time>2012-12-29T11:11:09.000Z</time>
      </trkpt>
      <trkpt lat="44.14184" lon="1.94336">
        <ele>211.5</ele>
        <time>2012-12-29T11:11:10.000Z</time>
      </trkpt>
      <trkpt lat="44.14188" lon="1.94338">
        <ele>211.4</ele>
        <time>2012-12-29T11:11:14.000Z</time>
      </trkpt>
      <trkpt lat="44.14189" lon="1.94338">
        <ele>211.4</ele>
        <time>2012-12-29T11:11:15.000Z</time>
      </trkpt>
      <trkpt lat="44.14193" lon="1.94336">
        <ele>211.5</ele>
        <time>2012-12-29T11:11:20.000Z</time>
      </trkpt>
      <trkpt lat="44.14194" lon="1.94335">
        <ele>211.6</ele>
        <time>2012-12-29T11:11:21.000Z</time>
      </trkpt>
      <trkpt lat="44.14197" lon="1.94332">
        <ele>211.8</ele>
        <time>2012-12-29T11:11:27.000Z</time>
      </trkpt>
      <trkpt lat="44.14198" lon="1.94331">
        <ele>211.8</ele>
        <time>2012-12-29T11:11:28.000Z</time>
      </trkpt>
      <trkpt lat="44.14202" lon="1.94331">
        <ele>211.9</ele>
        <time>2012-12-29T11:11:31.000Z</time>
      </trkpt>
      <trkpt lat="44.14205" lon="1.9433">
        <ele>211.9</ele>
        <time>2012-12-29T11:11:32.000Z</time>
      </trkpt>
      <trkpt lat="44.14208" lon="1.94329">
        <ele>211.9</ele>
        <time>2012-12-29T11:11:33.000Z</time>
      </trkpt>
      <trkpt lat="44.1421" lon="1.94328">
        <ele>211.9</ele>
        <time>2012-12-29T11:11:34.000Z</time>
      </trkpt>
      <trkpt lat="44.14213" lon="1.94327">
        <ele>212</ele>
        <time>2012-12-29T11:11:35.000Z</time>
      </trkpt>
      <trkpt lat="44.14215" lon="1.94325">
        <ele>212</ele>
        <time>2012-12-29T11:11:36.000Z</time>
      </trkpt>
      <trkpt lat="44.14219" lon="1.94323">
        <ele>212.1</ele>
        <time>2012-12-29T11:11:38.000Z</time>
      </trkpt>
      <trkpt lat="44.14222" lon="1.94322">
        <ele>212</ele>
        <time>2012-12-29T11:11:39.000Z</time>
      </trkpt>
      <trkpt lat="44.14224" lon="1.94319">
        <ele>211.8</ele>
        <time>2012-12-29T11:11:40.000Z</time>
      </trkpt>
      <trkpt lat="44.14227" lon="1.94317">
        <ele>211.8</ele>
        <time>2012-12-29T11:11:41.000Z</time>
      </trkpt>
      <trkpt lat="44.14229" lon="1.94315">
        <ele>211.6</ele>
        <time>2012-12-29T11:11:42.000Z</time>
      </trkpt>
      <trkpt lat="44.14232" lon="1.94314">
        <ele>211.4</ele>
        <time>2012-12-29T11:11:43.000Z</time>
      </trkpt>
      <trkpt lat="44.14235" lon="1.94314">
        <ele>211.2</ele>
        <time>2012-12-29T11:11:44.000Z</time>
      </trkpt>
      <trkpt lat="44.14239" lon="1.94313">
        <ele>211.1</ele>
        <time>2012-12-29T11:11:45.000Z</time>
      </trkpt>
      <trkpt lat="44.14242" lon="1.94313">
        <ele>211</ele>
        <time>2012-12-29T11:11:46.000Z</time>
      </trkpt>
      <trkpt lat="44.14245" lon="1.94313">
        <ele>210.8</ele>
        <time>2012-12-29T11:11:47.000Z</time>
      </trkpt>
      <trkpt lat="44.14248" lon="1.94312">
        <ele>210.7</ele>
        <time>2012-12-29T11:11:48.000Z</time>
      </trkpt>
      <trkpt lat="44.14252" lon="1.9431">
        <ele>210.5</ele>
        <time>2012-12-29T11:11:49.000Z</time>
      </trkpt>
      <trkpt lat="44.14255" lon="1.94308">
        <ele>210.3</ele>
        <time>2012-12-29T11:11:50.000Z</time>
      </trkpt>
      <trkpt lat="44.14258" lon="1.94306">
        <ele>210.1</ele>
        <time>2012-12-29T11:11:51.000Z</time>
      </trkpt>
      <trkpt lat="44.14262" lon="1.94304">
        <ele>209.8</ele>
        <time>2012-12-29T11:11:52.000Z</time>
      </trkpt>
      <trkpt lat="44.14266" lon="1.94301">
        <ele>209.6</ele>
        <time>2012-12-29T11:11:53.000Z</time>
      </trkpt>
      <trkpt lat="44.14271" lon="1.94298">
        <ele>209.3</ele>
        <time>2012-12-29T11:11:54.000Z</time>
      </trkpt>
      <trkpt lat="44.14276" lon="1.94295">
        <ele>209.1</ele>
        <time>2012-12-29T11:11:55.000Z</time>
      </trkpt>
      <trkpt lat="44.1428" lon="1.94292">
        <ele>208.9</ele>
        <time>2012-12-29T11:11:56.000Z</time>
      </trkpt>
      <trkpt lat="44.14284" lon="1.9429">
        <ele>208.7</ele>
        <time>2012-12-29T11:11:57.000Z</time>
      </trkpt>
      <trkpt lat="44.14288" lon="1.94287">
        <ele>206.5</ele>
        <time>2012-12-29T11:11:58.000Z</time>
      </trkpt>
      <trkpt lat="44.14293" lon="1.94284">
        <ele>205.3</ele>
        <time>2012-12-29T11:11:59.000Z</time>
      </trkpt>
      <trkpt lat="44.14298" lon="1.94281">
        <ele>204.7</ele>
        <time>2012-12-29T11:12:00.000Z</time>
      </trkpt>
      <trkpt lat="44.14302" lon="1.94279">
        <ele>204.2</ele>
        <time>2012-12-29T11:12:01.000Z</time>
      </trkpt>
      <trkpt lat="44.14307" lon="1.94276">
        <ele>203.7</ele>
        <time>2012-12-29T11:12:02.000Z</time>
      </trkpt>
      <trkpt lat="44.14311" lon="1.94274">
        <ele>203</ele>
        <time>2012-12-29T11:12:03.000Z</time>
      </trkpt>
      <trkpt lat="44.14316" lon="1.94271">
        <ele>202.1</ele>
        <time>2012-12-29T11:12:04.000Z</time>
      </trkpt>
      <trkpt lat="44.1432" lon="1.94269">
        <ele>201.6</ele>
        <time>2012-12-29T11:12:05.000Z</time>
      </trkpt>
      <trkpt lat="44.14324" lon="1.94266">
        <ele>200.7</ele>
        <time>2012-12-29T11:12:06.000Z</time>
      </trkpt>
      <trkpt lat="44.14328" lon="1.94264">
        <ele>199.7</ele>
        <time>2012-12-29T11:12:07.000Z</time>
      </trkpt>
      <trkpt lat="44.14332" lon="1.94262">
        <ele>199.6</ele>
        <time>2012-12-29T11:12:08.000Z</time>
      </trkpt>
      <trkpt lat="44.14335" lon="1.9426">
        <ele>199.6</ele>
        <time>2012-12-29T11:12:08.999Z</time>
      </trkpt>
      <trkpt lat="44.14339" lon="1.94258">
        <ele>199.5</ele>
        <time>2012-12-29T11:12:09.999Z</time>
      </trkpt>
      <trkpt lat="44.14342" lon="1.94256">
        <ele>199.6</ele>
        <time>2012-12-29T11:12:10.999Z</time>
      </trkpt>
      <trkpt lat="44.14346" lon="1.94255">
        <ele>199.6</ele>
        <time>2012-12-29T11:12:11.999Z</time>
      </trkpt>
      <trkpt lat="44.1435" lon="1.94254">
        <ele>199.7</ele>
        <time>2012-12-29T11:12:12.999Z</time>
      </trkpt>
      <trkpt lat="44.14354" lon="1.94254">
        <ele>199.8</ele>
        <time>2012-12-29T11:12:13.999Z</time>
      </trkpt>
      <trkpt lat="44.14358" lon="1.94254">
        <ele>199.9</ele>
        <time>2012-12-29T11:12:14.999Z</time>
      </trkpt>
      <trkpt lat="44.14362" lon="1.94255">
        <ele>200</ele>
        <time>2012-12-29T11:12:15.999Z</time>
      </trkpt>
      <trkpt lat="44.14367" lon="1.94256">
        <ele>200.9</ele>
        <time>2012-12-29T11:12:16.999Z</time>
      </trkpt>
      <trkpt lat="44.14373" lon="1.94258">
        <ele>201.8</ele>
        <time>2012-12-29T11:12:17.999Z</time>
      </trkpt>
      <trkpt lat="44.14378" lon="1.94259">
        <ele>202.3</ele>
        <time>2012-12-29T11:12:18.999Z</time>
      </trkpt>
      <trkpt lat="44.14384" lon="1.94261">
        <ele>202.8</ele>
        <time>2012-12-29T11:12:19.999Z</time>
      </trkpt>
      <trkpt lat="44.1439" lon="1.94263">
        <ele>203.2</ele>
        <time>2012-12-29T11:12:20.999Z</time>
      </trkpt>
      <trkpt lat="44.14396" lon="1.94265">
        <ele>203.4</ele>
        <time>2012-12-29T11:12:21.999Z</time>
      </trkpt>
      <trkpt lat="44.14402" lon="1.94268">
        <ele>203.3</ele>
        <time>2012-12-29T11:12:22.999Z</time>
      </trkpt>
      <trkpt lat="44.14407" lon="1.9427">
        <ele>202.8</ele>
        <time>2012-12-29T11:12:23.999Z</time>
      </trkpt>
      <trkpt lat="44.14414" lon="1.94273">
        <ele>202.1</ele>
        <time>2012-12-29T11:12:24.999Z</time>
      </trkpt>
      <trkpt lat="44.14421" lon="1.94275">
        <ele>201.7</ele>
        <time>2012-12-29T11:12:25.999Z</time>
      </trkpt>
      <trkpt lat="44.14427" lon="1.94277">
        <ele>201.5</ele>
        <time>2012-12-29T11:12:26.999Z</time>
      </trkpt>
      <trkpt lat="44.14433" lon="1.94279">
        <ele>201.5</ele>
        <time>2012-12-29T11:12:27.999Z</time>
      </trkpt>
      <trkpt lat="44.14439" lon="1.94281">
        <ele>201.8</ele>
        <time>2012-12-29T11:12:28.999Z</time>
      </trkpt>
      <trkpt lat="44.14446" lon="1.94283">
        <ele>201.8</ele>
        <time>2012-12-29T11:12:29.999Z</time>
      </trkpt>
      <trkpt lat="44.14453" lon="1.94286">
        <ele>201.6</ele>
        <time>2012-12-29T11:12:30.999Z</time>
      </trkpt>
      <trkpt lat="44.14458" lon="1.94288">
        <ele>201.6</ele>
        <time>2012-12-29T11:12:31.999Z</time>
      </trkpt>
      <trkpt lat="44.14464" lon="1.94289">
        <ele>201.5</ele>
        <time>2012-12-29T11:12:32.999Z</time>
      </trkpt>
      <trkpt lat="44.1447" lon="1.94291">
        <ele>201.9</ele>
        <time>2012-12-29T11:12:33.999Z</time>
      </trkpt>
      <trkpt lat="44.14475" lon="1.94293">
        <ele>201.9</ele>
        <time>2012-12-29T11:12:34.999Z</time>
      </trkpt>
      <trkpt lat="44.14481" lon="1.94295">
        <ele>201.7</ele>
        <time>2012-12-29T11:12:35.999Z</time>
      </trkpt>
      <trkpt lat="44.14486" lon="1.94297">
        <ele>201.6</ele>
        <time>2012-12-29T11:12:36.999Z</time>
      </trkpt>
      <trkpt lat="44.14491" lon="1.943">
        <ele>201.3</ele>
        <time>2012-12-29T11:12:37.999Z</time>
      </trkpt>
      <trkpt lat="44.14496" lon="1.94303">
        <ele>200.4</ele>
        <time>2012-12-29T11:12:38.999Z</time>
      </trkpt>
      <trkpt lat="44.14502" lon="1.94306">
        <ele>199.8</ele>
        <time>2012-12-29T11:12:39.999Z</time>
      </trkpt>
      <trkpt lat="44.14507" lon="1.9431">
        <ele>198.6</ele>
        <time>2012-12-29T11:12:40.999Z</time>
      </trkpt>
      <trkpt lat="44.14512" lon="1.94314">
        <ele>197.8</ele>
        <time>2012-12-29T11:12:41.999Z</time>
      </trkpt>
      <trkpt lat="44.14516" lon="1.94318">
        <ele>197.2</ele>
        <time>2012-12-29T11:12:42.999Z</time>
      </trkpt>
      <trkpt lat="44.1452" lon="1.94323">
        <ele>196.7</ele>
        <time>2012-12-29T11:12:43.999Z</time>
      </trkpt>
      <trkpt lat="44.14524" lon="1.94328">
        <ele>196.4</ele>
        <time>2012-12-29T11:12:44.999Z</time>
      </trkpt>
      <trkpt lat="44.14529" lon="1.94334">
        <ele>196</ele>
        <time>2012-12-29T11:12:45.999Z</time>
      </trkpt>
      <trkpt lat="44.14533" lon="1.94339">
        <ele>196</ele>
        <time>2012-12-29T11:12:46.999Z</time>
      </trkpt>
      <trkpt lat="44.14537" lon="1.94345">
        <ele>195.8</ele>
        <time>2012-12-29T11:12:47.999Z</time>
      </trkpt>
      <trkpt lat="44.1454" lon="1.9435">
        <ele>195.7</ele>
        <time>2012-12-29T11:12:48.999Z</time>
      </trkpt>
      <trkpt lat="44.14543" lon="1.94354">
        <ele>195.8</ele>
        <time>2012-12-29T11:12:49.999Z</time>
      </trkpt>
      <trkpt lat="44.14546" lon="1.94358">
        <ele>195.8</ele>
        <time>2012-12-29T11:12:50.999Z</time>
      </trkpt>
      <trkpt lat="44.14547" lon="1.94361">
        <ele>195.9</ele>
        <time>2012-12-29T11:12:51.999Z</time>
      </trkpt>
      <trkpt lat="44.1455" lon="1.94365">
        <ele>195.9</ele>
        <time>2012-12-29T11:12:52.999Z</time>
      </trkpt>
      <trkpt lat="44.14553" lon="1.94368">
        <ele>196</ele>
        <time>2012-12-29T11:12:53.999Z</time>
      </trkpt>
      <trkpt lat="44.14556" lon="1.94373">
        <ele>196.3</ele>
        <time>2012-12-29T11:12:54.999Z</time>
      </trkpt>
      <trkpt lat="44.14559" lon="1.94376">
        <ele>196.3</ele>
        <time>2012-12-29T11:12:55.999Z</time>
      </trkpt>
      <trkpt lat="44.14564" lon="1.94381">
        <ele>196</ele>
        <time>2012-12-29T11:12:56.999Z</time>
      </trkpt>
      <trkpt lat="44.14568" lon="1.94385">
        <ele>195.7</ele>
        <time>2012-12-29T11:12:57.999Z</time>
      </trkpt>
      <trkpt lat="44.14573" lon="1.94389">
        <ele>195.6</ele>
        <time>2012-12-29T11:12:58.999Z</time>
      </trkpt>
      <trkpt lat="44.14576" lon="1.94393">
        <ele>195.6</ele>
        <time>2012-12-29T11:12:59.999Z</time>
      </trkpt>
      <trkpt lat="44.14576" lon="1.94398">
        <ele>195.4</ele>
        <time>2012-12-29T11:13:00.999Z</time>
      </trkpt>
      <trkpt lat="44.14576" lon="1.94403">
        <ele>195</ele>
        <time>2012-12-29T11:13:01.999Z</time>
      </trkpt>
      <trkpt lat="44.14576" lon="1.94407">
        <ele>194.9</ele>
        <time>2012-12-29T11:13:02.999Z</time>
      </trkpt>
      <trkpt lat="44.14575" lon="1.94412">
        <ele>194.9</ele>
        <time>2012-12-29T11:13:03.999Z</time>
      </trkpt>
      <trkpt lat="44.14574" lon="1.94417">
        <ele>194.9</ele>
        <time>2012-12-29T11:13:04.999Z</time>
      </trkpt>
      <trkpt lat="44.14573" lon="1.94422">
        <ele>194.5</ele>
        <time>2012-12-29T11:13:05.999Z</time>
      </trkpt>
      <trkpt lat="44.14571" lon="1.94428">
        <ele>194.5</ele>
        <time>2012-12-29T11:13:06.999Z</time>
      </trkpt>
      <trkpt lat="44.1457" lon="1.94434">
        <ele>194.5</ele>
        <time>2012-12-29T11:13:07.999Z</time>
      </trkpt>
      <trkpt lat="44.14568" lon="1.94439">
        <ele>194.7</ele>
        <time>2012-12-29T11:13:08.999Z</time>
      </trkpt>
      <trkpt lat="44.14566" lon="1.94445">
        <ele>195.2</ele>
        <time>2012-12-29T11:13:09.999Z</time>
      </trkpt>
      <trkpt lat="44.14565" lon="1.9445">
        <ele>195.6</ele>
        <time>2012-12-29T11:13:10.999Z</time>
      </trkpt>
      <trkpt lat="44.14564" lon="1.94456">
        <ele>195.6</ele>
        <time>2012-12-29T11:13:11.999Z</time>
      </trkpt>
      <trkpt lat="44.14563" lon="1.94463">
        <ele>195.7</ele>
        <time>2012-12-29T11:13:12.999Z</time>
      </trkpt>
      <trkpt lat="44.14562" lon="1.94469">
        <ele>196</ele>
        <time>2012-12-29T11:13:13.999Z</time>
      </trkpt>
      <trkpt lat="44.14562" lon="1.94475">
        <ele>196</ele>
        <time>2012-12-29T11:13:14.999Z</time>
      </trkpt>
      <trkpt lat="44.14563" lon="1.94481">
        <ele>195.8</ele>
        <time>2012-12-29T11:13:15.999Z</time>
      </trkpt>
      <trkpt lat="44.14564" lon="1.94487">
        <ele>195.6</ele>
        <time>2012-12-29T11:13:16.999Z</time>
      </trkpt>
      <trkpt lat="44.14566" lon="1.94494">
        <ele>195.5</ele>
        <time>2012-12-29T11:13:17.999Z</time>
      </trkpt>
      <trkpt lat="44.14567" lon="1.945">
        <ele>194.8</ele>
        <time>2012-12-29T11:13:18.999Z</time>
      </trkpt>
      <trkpt lat="44.14569" lon="1.94505">
        <ele>194.4</ele>
        <time>2012-12-29T11:13:19.999Z</time>
      </trkpt>
      <trkpt lat="44.14571" lon="1.94511">
        <ele>193.7</ele>
        <time>2012-12-29T11:13:20.999Z</time>
      </trkpt>
      <trkpt lat="44.14573" lon="1.94516">
        <ele>192.8</ele>
        <time>2012-12-29T11:13:21.999Z</time>
      </trkpt>
      <trkpt lat="44.14575" lon="1.94522">
        <ele>191.7</ele>
        <time>2012-12-29T11:13:22.999Z</time>
      </trkpt>
      <trkpt lat="44.14577" lon="1.94527">
        <ele>190.9</ele>
        <time>2012-12-29T11:13:23.999Z</time>
      </trkpt>
      <trkpt lat="44.1458" lon="1.94533">
        <ele>189.8</ele>
        <time>2012-12-29T11:13:24.999Z</time>
      </trkpt>
      <trkpt lat="44.14583" lon="1.94538">
        <ele>188.4</ele>
        <time>2012-12-29T11:13:25.999Z</time>
      </trkpt>
      <trkpt lat="44.14585" lon="1.94544">
        <ele>187.7</ele>
        <time>2012-12-29T11:13:26.999Z</time>
      </trkpt>
      <trkpt lat="44.14588" lon="1.94549">
        <ele>186.9</ele>
        <time>2012-12-29T11:13:27.999Z</time>
      </trkpt>
      <trkpt lat="44.14591" lon="1.94554">
        <ele>186.5</ele>
        <time>2012-12-29T11:13:28.999Z</time>
      </trkpt>
      <trkpt lat="44.14593" lon="1.94559">
        <ele>186.6</ele>
        <time>2012-12-29T11:13:29.999Z</time>
      </trkpt>
      <trkpt lat="44.14596" lon="1.94564">
        <ele>186.6</ele>
        <time>2012-12-29T11:13:30.999Z</time>
      </trkpt>
      <trkpt lat="44.14599" lon="1.9457">
        <ele>186.9</ele>
        <time>2012-12-29T11:13:31.999Z</time>
      </trkpt>
      <trkpt lat="44.14602" lon="1.94576">
        <ele>187.2</ele>
        <time>2012-12-29T11:13:32.999Z</time>
      </trkpt>
      <trkpt lat="44.14605" lon="1.94581">
        <ele>187.7</ele>
        <time>2012-12-29T11:13:33.999Z</time>
      </trkpt>
      <trkpt lat="44.14607" lon="1.94588">
        <ele>187.9</ele>
        <time>2012-12-29T11:13:34.999Z</time>
      </trkpt>
      <trkpt lat="44.14609" lon="1.94594">
        <ele>188.3</ele>
        <time>2012-12-29T11:13:35.999Z</time>
      </trkpt>
      <trkpt lat="44.14611" lon="1.946">
        <ele>188.8</ele>
        <time>2012-12-29T11:13:36.999Z</time>
      </trkpt>
      <trkpt lat="44.14613" lon="1.94605">
        <ele>189</ele>
        <time>2012-12-29T11:13:37.999Z</time>
      </trkpt>
      <trkpt lat="44.14614" lon="1.94611">
        <ele>189.6</ele>
        <time>2012-12-29T11:13:38.999Z</time>
      </trkpt>
      <trkpt lat="44.14615" lon="1.94617">
        <ele>190.1</ele>
        <time>2012-12-29T11:13:39.999Z</time>
      </trkpt>
      <trkpt lat="44.14615" lon="1.94624">
        <ele>190.2</ele>
        <time>2012-12-29T11:13:40.999Z</time>
      </trkpt>
      <trkpt lat="44.14616" lon="1.9463">
        <ele>190.3</ele>
        <time>2012-12-29T11:13:41.999Z</time>
      </trkpt>
      <trkpt lat="44.14617" lon="1.94636">
        <ele>190.4</ele>
        <time>2012-12-29T11:13:42.999Z</time>
      </trkpt>
      <trkpt lat="44.14618" lon="1.94642">
        <ele>190.4</ele>
        <time>2012-12-29T11:13:43.999Z</time>
      </trkpt>
      <trkpt lat="44.14619" lon="1.94648">
        <ele>190.5</ele>
        <time>2012-12-29T11:13:44.999Z</time>
      </trkpt>
      <trkpt lat="44.1462" lon="1.94654">
        <ele>190.5</ele>
        <time>2012-12-29T11:13:45.999Z</time>
      </trkpt>
      <trkpt lat="44.1462" lon="1.94658">
        <ele>190.6</ele>
        <time>2012-12-29T11:13:46.999Z</time>
      </trkpt>
      <trkpt lat="44.14622" lon="1.94664">
        <ele>190.6</ele>
        <time>2012-12-29T11:13:47.999Z</time>
      </trkpt>
      <trkpt lat="44.14623" lon="1.9467">
        <ele>191.9</ele>
        <time>2012-12-29T11:13:48.999Z</time>
      </trkpt>
      <trkpt lat="44.14624" lon="1.94676">
        <ele>192.4</ele>
        <time>2012-12-29T11:13:49.999Z</time>
      </trkpt>
      <trkpt lat="44.14626" lon="1.94682">
        <ele>193.1</ele>
        <time>2012-12-29T11:13:50.999Z</time>
      </trkpt>
      <trkpt lat="44.14627" lon="1.94688">
        <ele>194.2</ele>
        <time>2012-12-29T11:13:51.999Z</time>
      </trkpt>
      <trkpt lat="44.14628" lon="1.94693">
        <ele>194.3</ele>
        <time>2012-12-29T11:13:52.999Z</time>
      </trkpt>
      <trkpt lat="44.1463" lon="1.94698">
        <ele>194.3</ele>
        <time>2012-12-29T11:13:53.999Z</time>
      </trkpt>
      <trkpt lat="44.14631" lon="1.94704">
        <ele>194.3</ele>
        <time>2012-12-29T11:13:54.999Z</time>
      </trkpt>
      <trkpt lat="44.14632" lon="1.94709">
        <ele>194.3</ele>
        <time>2012-12-29T11:13:55.999Z</time>
      </trkpt>
      <trkpt lat="44.14633" lon="1.94714">
        <ele>194.3</ele>
        <time>2012-12-29T11:13:56.999Z</time>
      </trkpt>
      <trkpt lat="44.14635" lon="1.94719">
        <ele>194.2</ele>
        <time>2012-12-29T11:13:57.999Z</time>
      </trkpt>
      <trkpt lat="44.14636" lon="1.94724">
        <ele>194.1</ele>
        <time>2012-12-29T11:13:58.999Z</time>
      </trkpt>
      <trkpt lat="44.14638" lon="1.94729">
        <ele>194.1</ele>
        <time>2012-12-29T11:13:59.999Z</time>
      </trkpt>
      <trkpt lat="44.1464" lon="1.94735">
        <ele>193.9</ele>
        <time>2012-12-29T11:14:00.999Z</time>
      </trkpt>
      <trkpt lat="44.14642" lon="1.9474">
        <ele>193.8</ele>
        <time>2012-12-29T11:14:01.999Z</time>
      </trkpt>
      <trkpt lat="44.14644" lon="1.94746">
        <ele>193.7</ele>
        <time>2012-12-29T11:14:02.999Z</time>
      </trkpt>
      <trkpt lat="44.14646" lon="1.94752">
        <ele>191.2</ele>
        <time>2012-12-29T11:14:03.999Z</time>
      </trkpt>
      <trkpt lat="44.14649" lon="1.94759">
        <ele>189.6</ele>
        <time>2012-12-29T11:14:04.999Z</time>
      </trkpt>
      <trkpt lat="44.14652" lon="1.94766">
        <ele>188.7</ele>
        <time>2012-12-29T11:14:05.999Z</time>
      </trkpt>
      <trkpt lat="44.14655" lon="1.94772">
        <ele>188.3</ele>
        <time>2012-12-29T11:14:06.999Z</time>
      </trkpt>
      <trkpt lat="44.14657" lon="1.94779">
        <ele>188.2</ele>
        <time>2012-12-29T11:14:07.999Z</time>
      </trkpt>
      <trkpt lat="44.1466" lon="1.94784">
        <ele>188.2</ele>
        <time>2012-12-29T11:14:08.999Z</time>
      </trkpt>
      <trkpt lat="44.14663" lon="1.9479">
        <ele>188</ele>
        <time>2012-12-29T11:14:09.999Z</time>
      </trkpt>
      <trkpt lat="44.14665" lon="1.94795">
        <ele>187.1</ele>
        <time>2012-12-29T11:14:10.999Z</time>
      </trkpt>
      <trkpt lat="44.14668" lon="1.948">
        <ele>186.5</ele>
        <time>2012-12-29T11:14:11.999Z</time>
      </trkpt>
      <trkpt lat="44.14671" lon="1.94806">
        <ele>186.4</ele>
        <time>2012-12-29T11:14:12.999Z</time>
      </trkpt>
      <trkpt lat="44.14675" lon="1.94811">
        <ele>185</ele>
        <time>2012-12-29T11:14:13.999Z</time>
      </trkpt>
      <trkpt lat="44.14677" lon="1.94816">
        <ele>184.8</ele>
        <time>2012-12-29T11:14:14.999Z</time>
      </trkpt>
      <trkpt lat="44.1468" lon="1.9482">
        <ele>183.9</ele>
        <time>2012-12-29T11:14:15.999Z</time>
      </trkpt>
      <trkpt lat="44.14683" lon="1.94824">
        <ele>183.3</ele>
        <time>2012-12-29T11:14:16.999Z</time>
      </trkpt>
      <trkpt lat="44.14685" lon="1.94827">
        <ele>183.2</ele>
        <time>2012-12-29T11:14:17.999Z</time>
      </trkpt>
      <trkpt lat="44.14687" lon="1.94831">
        <ele>183.2</ele>
        <time>2012-12-29T11:14:18.999Z</time>
      </trkpt>
      <trkpt lat="44.1469" lon="1.94836">
        <ele>183.2</ele>
        <time>2012-12-29T11:14:19.999Z</time>
      </trkpt>
      <trkpt lat="44.14693" lon="1.94841">
        <ele>182.9</ele>
        <time>2012-12-29T11:14:20.999Z</time>
      </trkpt>
      <trkpt lat="44.14697" lon="1.94845">
        <ele>183</ele>
        <time>2012-12-29T11:14:21.999Z</time>
      </trkpt>
      <trkpt lat="44.14701" lon="1.9485">
        <ele>183.3</ele>
        <time>2012-12-29T11:14:22.999Z</time>
      </trkpt>
      <trkpt lat="44.14704" lon="1.94854">
        <ele>183.8</ele>
        <time>2012-12-29T11:14:23.999Z</time>
      </trkpt>
      <trkpt lat="44.14708" lon="1.94859">
        <ele>184.8</ele>
        <time>2012-12-29T11:14:24.999Z</time>
      </trkpt>
      <trkpt lat="44.14712" lon="1.94863">
        <ele>185.8</ele>
        <time>2012-12-29T11:14:25.999Z</time>
      </trkpt>
      <trkpt lat="44.14715" lon="1.94867">
        <ele>185.8</ele>
        <time>2012-12-29T11:14:26.999Z</time>
      </trkpt>
      <trkpt lat="44.14718" lon="1.94871">
        <ele>185.9</ele>
        <time>2012-12-29T11:14:27.999Z</time>
      </trkpt>
      <trkpt lat="44.14721" lon="1.94874">
        <ele>185.9</ele>
        <time>2012-12-29T11:14:28.999Z</time>
      </trkpt>
      <trkpt lat="44.14723" lon="1.94879">
        <ele>186</ele>
        <time>2012-12-29T11:14:29.999Z</time>
      </trkpt>
      <trkpt lat="44.14726" lon="1.94882">
        <ele>186</ele>
        <time>2012-12-29T11:14:30.999Z</time>
      </trkpt>
      <trkpt lat="44.14728" lon="1.94886">
        <ele>186.1</ele>
        <time>2012-12-29T11:14:31.999Z</time>
      </trkpt>
      <trkpt lat="44.14731" lon="1.9489">
        <ele>186.1</ele>
        <time>2012-12-29T11:14:32.999Z</time>
      </trkpt>
      <trkpt lat="44.14733" lon="1.94894">
        <ele>186.1</ele>
        <time>2012-12-29T11:14:33.999Z</time>
      </trkpt>
      <trkpt lat="44.14736" lon="1.94899">
        <ele>186</ele>
        <time>2012-12-29T11:14:34.999Z</time>
      </trkpt>
      <trkpt lat="44.14739" lon="1.94903">
        <ele>186.1</ele>
        <time>2012-12-29T11:14:35.999Z</time>
      </trkpt>
      <trkpt lat="44.14742" lon="1.94907">
        <ele>186.1</ele>
        <time>2012-12-29T11:14:36.999Z</time>
      </trkpt>
      <trkpt lat="44.14744" lon="1.94909">
        <ele>186.1</ele>
        <time>2012-12-29T11:14:37.999Z</time>
      </trkpt>
      <trkpt lat="44.14747" lon="1.94912">
        <ele>186.1</ele>
        <time>2012-12-29T11:14:38.999Z</time>
      </trkpt>
      <trkpt lat="44.1475" lon="1.94914">
        <ele>186.1</ele>
        <time>2012-12-29T11:14:39.999Z</time>
      </trkpt>
      <trkpt lat="44.14753" lon="1.94917">
        <ele>185.9</ele>
        <time>2012-12-29T11:14:40.999Z</time>
      </trkpt>
      <trkpt lat="44.14756" lon="1.94919">
        <ele>185.9</ele>
        <time>2012-12-29T11:14:41.999Z</time>
      </trkpt>
      <trkpt lat="44.14759" lon="1.94922">
        <ele>185.9</ele>
        <time>2012-12-29T11:14:42.999Z</time>
      </trkpt>
      <trkpt lat="44.14763" lon="1.94925">
        <ele>186</ele>
        <time>2012-12-29T11:14:43.999Z</time>
      </trkpt>
      <trkpt lat="44.14768" lon="1.94928">
        <ele>187.8</ele>
        <time>2012-12-29T11:14:44.999Z</time>
      </trkpt>
      <trkpt lat="44.14773" lon="1.94931">
        <ele>189.3</ele>
        <time>2012-12-29T11:14:45.999Z</time>
      </trkpt>
      <trkpt lat="44.14778" lon="1.94933">
        <ele>190.6</ele>
        <time>2012-12-29T11:14:46.999Z</time>
      </trkpt>
      <trkpt lat="44.14784" lon="1.94936">
        <ele>191.8</ele>
        <time>2012-12-29T11:14:47.999Z</time>
      </trkpt>
      <trkpt lat="44.14789" lon="1.94938">
        <ele>192.8</ele>
        <time>2012-12-29T11:14:48.999Z</time>
      </trkpt>
      <trkpt lat="44.14794" lon="1.94941">
        <ele>193.6</ele>
        <time>2012-12-29T11:14:49.999Z</time>
      </trkpt>
      <trkpt lat="44.14799" lon="1.94944">
        <ele>194.2</ele>
        <time>2012-12-29T11:14:50.999Z</time>
      </trkpt>
      <trkpt lat="44.14804" lon="1.94947">
        <ele>194.7</ele>
        <time>2012-12-29T11:14:51.999Z</time>
      </trkpt>
      <trkpt lat="44.14809" lon="1.94949">
        <ele>194.5</ele>
        <time>2012-12-29T11:14:52.999Z</time>
      </trkpt>
      <trkpt lat="44.14814" lon="1.94952">
        <ele>194.9</ele>
        <time>2012-12-29T11:14:53.999Z</time>
      </trkpt>
      <trkpt lat="44.14819" lon="1.94954">
        <ele>194.6</ele>
        <time>2012-12-29T11:14:54.999Z</time>
      </trkpt>
      <trkpt lat="44.14824" lon="1.94957">
        <ele>195</ele>
        <time>2012-12-29T11:14:55.999Z</time>
      </trkpt>
      <trkpt lat="44.14829" lon="1.9496">
        <ele>195.4</ele>
        <time>2012-12-29T11:14:56.999Z</time>
      </trkpt>
      <trkpt lat="44.14833" lon="1.94962">
        <ele>195.2</ele>
        <time>2012-12-29T11:14:57.999Z</time>
      </trkpt>
      <trkpt lat="44.14838" lon="1.94965">
        <ele>194.8</ele>
        <time>2012-12-29T11:14:58.999Z</time>
      </trkpt>
      <trkpt lat="44.14843" lon="1.94967">
        <ele>194.1</ele>
        <time>2012-12-29T11:14:59.999Z</time>
      </trkpt>
      <trkpt lat="44.14847" lon="1.9497">
        <ele>193.5</ele>
        <time>2012-12-29T11:15:00.999Z</time>
      </trkpt>
      <trkpt lat="44.14851" lon="1.94972">
        <ele>193.4</ele>
        <time>2012-12-29T11:15:01.999Z</time>
      </trkpt>
      <trkpt lat="44.14855" lon="1.94975">
        <ele>193.5</ele>
        <time>2012-12-29T11:15:02.999Z</time>
      </trkpt>
      <trkpt lat="44.14859" lon="1.94979">
        <ele>193.6</ele>
        <time>2012-12-29T11:15:03.999Z</time>
      </trkpt>
      <trkpt lat="44.14863" lon="1.94982">
        <ele>193.4</ele>
        <time>2012-12-29T11:15:04.999Z</time>
      </trkpt>
      <trkpt lat="44.14867" lon="1.94985">
        <ele>192.8</ele>
        <time>2012-12-29T11:15:05.999Z</time>
      </trkpt>
      <trkpt lat="44.14872" lon="1.94989">
        <ele>192</ele>
        <time>2012-12-29T11:15:06.999Z</time>
      </trkpt>
      <trkpt lat="44.14876" lon="1.94993">
        <ele>191.5</ele>
        <time>2012-12-29T11:15:07.999Z</time>
      </trkpt>
      <trkpt lat="44.1488" lon="1.94996">
        <ele>191.3</ele>
        <time>2012-12-29T11:15:08.999Z</time>
      </trkpt>
      <trkpt lat="44.14884" lon="1.95">
        <ele>190.8</ele>
        <time>2012-12-29T11:15:09.999Z</time>
      </trkpt>
      <trkpt lat="44.14888" lon="1.95003">
        <ele>190.3</ele>
        <time>2012-12-29T11:15:10.999Z</time>
      </trkpt>
      <trkpt lat="44.14892" lon="1.95006">
        <ele>190.3</ele>
        <time>2012-12-29T11:15:11.999Z</time>
      </trkpt>
      <trkpt lat="44.14895" lon="1.95008">
        <ele>190.5</ele>
        <time>2012-12-29T11:15:12.999Z</time>
      </trkpt>
      <trkpt lat="44.14899" lon="1.95011">
        <ele>190.4</ele>
        <time>2012-12-29T11:15:13.999Z</time>
      </trkpt>
      <trkpt lat="44.14903" lon="1.95014">
        <ele>189.6</ele>
        <time>2012-12-29T11:15:14.999Z</time>
      </trkpt>
      <trkpt lat="44.14907" lon="1.95017">
        <ele>188.9</ele>
        <time>2012-12-29T11:15:15.999Z</time>
      </trkpt>
      <trkpt lat="44.14911" lon="1.9502">
        <ele>188.8</ele>
        <time>2012-12-29T11:15:16.999Z</time>
      </trkpt>
      <trkpt lat="44.14915" lon="1.95023">
        <ele>188.1</ele>
        <time>2012-12-29T11:15:17.999Z</time>
      </trkpt>
      <trkpt lat="44.14919" lon="1.95026">
        <ele>188.7</ele>
        <time>2012-12-29T11:15:18.999Z</time>
      </trkpt>
      <trkpt lat="44.14924" lon="1.9503">
        <ele>188.9</ele>
        <time>2012-12-29T11:15:19.999Z</time>
      </trkpt>
      <trkpt lat="44.14928" lon="1.95033">
        <ele>188.9</ele>
        <time>2012-12-29T11:15:20.999Z</time>
      </trkpt>
      <trkpt lat="44.14932" lon="1.95036">
        <ele>188.8</ele>
        <time>2012-12-29T11:15:21.999Z</time>
      </trkpt>
      <trkpt lat="44.14936" lon="1.9504">
        <ele>188.7</ele>
        <time>2012-12-29T11:15:22.999Z</time>
      </trkpt>
      <trkpt lat="44.1494" lon="1.95045">
        <ele>188.3</ele>
        <time>2012-12-29T11:15:23.999Z</time>
      </trkpt>
      <trkpt lat="44.14944" lon="1.95049">
        <ele>187.9</ele>
        <time>2012-12-29T11:15:24.999Z</time>
      </trkpt>
      <trkpt lat="44.14948" lon="1.95055">
        <ele>187.5</ele>
        <time>2012-12-29T11:15:25.999Z</time>
      </trkpt>
      <trkpt lat="44.14952" lon="1.9506">
        <ele>187.4</ele>
        <time>2012-12-29T11:15:26.999Z</time>
      </trkpt>
      <trkpt lat="44.14955" lon="1.95065">
        <ele>187.4</ele>
        <time>2012-12-29T11:15:27.999Z</time>
      </trkpt>
      <trkpt lat="44.14958" lon="1.9507">
        <ele>187.3</ele>
        <time>2012-12-29T11:15:28.999Z</time>
      </trkpt>
      <trkpt lat="44.1496" lon="1.95074">
        <ele>187.1</ele>
        <time>2012-12-29T11:15:29.999Z</time>
      </trkpt>
      <trkpt lat="44.14963" lon="1.95078">
        <ele>186.9</ele>
        <time>2012-12-29T11:15:30.999Z</time>
      </trkpt>
      <trkpt lat="44.14965" lon="1.95082">
        <ele>186.7</ele>
        <time>2012-12-29T11:15:31.999Z</time>
      </trkpt>
      <trkpt lat="44.14968" lon="1.95088">
        <ele>186.4</ele>
        <time>2012-12-29T11:15:32.999Z</time>
      </trkpt>
      <trkpt lat="44.14971" lon="1.95093">
        <ele>186.3</ele>
        <time>2012-12-29T11:15:33.999Z</time>
      </trkpt>
      <trkpt lat="44.14972" lon="1.95097">
        <ele>186.2</ele>
        <time>2012-12-29T11:15:34.999Z</time>
      </trkpt>
      <trkpt lat="44.14974" lon="1.95101">
        <ele>186.1</ele>
        <time>2012-12-29T11:15:35.999Z</time>
      </trkpt>
      <trkpt lat="44.14977" lon="1.95105">
        <ele>186</ele>
        <time>2012-12-29T11:15:36.999Z</time>
      </trkpt>
      <trkpt lat="44.1498" lon="1.95108">
        <ele>186</ele>
        <time>2012-12-29T11:15:37.999Z</time>
      </trkpt>
      <trkpt lat="44.14985" lon="1.95112">
        <ele>184.8</ele>
        <time>2012-12-29T11:15:38.999Z</time>
      </trkpt>
      <trkpt lat="44.14989" lon="1.95116">
        <ele>184.8</ele>
        <time>2012-12-29T11:15:39.999Z</time>
      </trkpt>
      <trkpt lat="44.14993" lon="1.95121">
        <ele>184.8</ele>
        <time>2012-12-29T11:15:40.999Z</time>
      </trkpt>
      <trkpt lat="44.14997" lon="1.95125">
        <ele>184.8</ele>
        <time>2012-12-29T11:15:41.999Z</time>
      </trkpt>
      <trkpt lat="44.15001" lon="1.9513">
        <ele>184.9</ele>
        <time>2012-12-29T11:15:42.999Z</time>
      </trkpt>
      <trkpt lat="44.15004" lon="1.95133">
        <ele>185</ele>
        <time>2012-12-29T11:15:43.999Z</time>
      </trkpt>
      <trkpt lat="44.15007" lon="1.95136">
        <ele>185.1</ele>
        <time>2012-12-29T11:15:44.999Z</time>
      </trkpt>
      <trkpt lat="44.1501" lon="1.95138">
        <ele>185</ele>
        <time>2012-12-29T11:15:45.999Z</time>
      </trkpt>
      <trkpt lat="44.15014" lon="1.95141">
        <ele>185.1</ele>
        <time>2012-12-29T11:15:46.999Z</time>
      </trkpt>
      <trkpt lat="44.15018" lon="1.95144">
        <ele>185.3</ele>
        <time>2012-12-29T11:15:47.999Z</time>
      </trkpt>
      <trkpt lat="44.15022" lon="1.95146">
        <ele>185.4</ele>
        <time>2012-12-29T11:15:48.999Z</time>
      </trkpt>
      <trkpt lat="44.15026" lon="1.9515">
        <ele>185.5</ele>
        <time>2012-12-29T11:15:49.999Z</time>
      </trkpt>
      <trkpt lat="44.15029" lon="1.95154">
        <ele>185.6</ele>
        <time>2012-12-29T11:15:50.999Z</time>
      </trkpt>
      <trkpt lat="44.15033" lon="1.95158">
        <ele>185.8</ele>
        <time>2012-12-29T11:15:51.999Z</time>
      </trkpt>
      <trkpt lat="44.15037" lon="1.95162">
        <ele>186</ele>
        <time>2012-12-29T11:15:52.999Z</time>
      </trkpt>
      <trkpt lat="44.15041" lon="1.95166">
        <ele>186.2</ele>
        <time>2012-12-29T11:15:53.999Z</time>
      </trkpt>
      <trkpt lat="44.15044" lon="1.9517">
        <ele>186.4</ele>
        <time>2012-12-29T11:15:54.999Z</time>
      </trkpt>
      <trkpt lat="44.15047" lon="1.95174">
        <ele>186.6</ele>
        <time>2012-12-29T11:15:55.999Z</time>
      </trkpt>
      <trkpt lat="44.15049" lon="1.95178">
        <ele>186.8</ele>
        <time>2012-12-29T11:15:56.999Z</time>
      </trkpt>
      <trkpt lat="44.15051" lon="1.95183">
        <ele>187</ele>
        <time>2012-12-29T11:15:57.999Z</time>
      </trkpt>
      <trkpt lat="44.15052" lon="1.95187">
        <ele>187.3</ele>
        <time>2012-12-29T11:15:58.999Z</time>
      </trkpt>
      <trkpt lat="44.15053" lon="1.95191">
        <ele>187.6</ele>
        <time>2012-12-29T11:15:59.999Z</time>
      </trkpt>
      <trkpt lat="44.15054" lon="1.95196">
        <ele>187.8</ele>
        <time>2012-12-29T11:16:00.999Z</time>
      </trkpt>
      <trkpt lat="44.15055" lon="1.952">
        <ele>188</ele>
        <time>2012-12-29T11:16:01.999Z</time>
      </trkpt>
      <trkpt lat="44.15055" lon="1.95204">
        <ele>188.3</ele>
        <time>2012-12-29T11:16:02.999Z</time>
      </trkpt>
      <trkpt lat="44.15057" lon="1.95209">
        <ele>188.6</ele>
        <time>2012-12-29T11:16:03.999Z</time>
      </trkpt>
      <trkpt lat="44.15058" lon="1.95213">
        <ele>188.8</ele>
        <time>2012-12-29T11:16:04.999Z</time>
      </trkpt>
      <trkpt lat="44.15059" lon="1.95217">
        <ele>189.1</ele>
        <time>2012-12-29T11:16:05.999Z</time>
      </trkpt>
      <trkpt lat="44.1506" lon="1.95221">
        <ele>189.4</ele>
        <time>2012-12-29T11:16:06.999Z</time>
      </trkpt>
      <trkpt lat="44.1506" lon="1.95225">
        <ele>189.7</ele>
        <time>2012-12-29T11:16:07.999Z</time>
      </trkpt>
      <trkpt lat="44.1506" lon="1.95229">
        <ele>190.1</ele>
        <time>2012-12-29T11:16:11.999Z</time>
      </trkpt>
      <trkpt lat="44.15062" lon="1.95244">
        <ele>190.5</ele>
        <time>2012-12-29T11:16:12.999Z</time>
      </trkpt>
      <trkpt lat="44.15063" lon="1.95249">
        <ele>190.8</ele>
        <time>2012-12-29T11:16:14.999Z</time>
      </trkpt>
      <trkpt lat="44.15064" lon="1.95255">
        <ele>191.2</ele>
        <time>2012-12-29T11:16:15.999Z</time>
      </trkpt>
      <trkpt lat="44.15065" lon="1.95259">
        <ele>191.5</ele>
        <time>2012-12-29T11:16:16.999Z</time>
      </trkpt>
      <trkpt lat="44.15066" lon="1.95263">
        <ele>191.8</ele>
        <time>2012-12-29T11:16:17.999Z</time>
      </trkpt>
      <trkpt lat="44.15067" lon="1.95268">
        <ele>192</ele>
        <time>2012-12-29T11:16:18.999Z</time>
      </trkpt>
      <trkpt lat="44.15067" lon="1.95273">
        <ele>192.1</ele>
        <time>2012-12-29T11:16:19.999Z</time>
      </trkpt>
      <trkpt lat="44.15068" lon="1.95278">
        <ele>192.2</ele>
        <time>2012-12-29T11:16:20.999Z</time>
      </trkpt>
      <trkpt lat="44.15068" lon="1.95284">
        <ele>193.4</ele>
        <time>2012-12-29T11:16:21.999Z</time>
      </trkpt>
      <trkpt lat="44.15068" lon="1.95291">
        <ele>194.5</ele>
        <time>2012-12-29T11:16:22.999Z</time>
      </trkpt>
      <trkpt lat="44.15067" lon="1.95298">
        <ele>195.3</ele>
        <time>2012-12-29T11:16:23.999Z</time>
      </trkpt>
      <trkpt lat="44.15066" lon="1.95305">
        <ele>196</ele>
        <time>2012-12-29T11:16:24.999Z</time>
      </trkpt>
      <trkpt lat="44.15064" lon="1.95312">
        <ele>196.9</ele>
        <time>2012-12-29T11:16:25.999Z</time>
      </trkpt>
      <trkpt lat="44.15061" lon="1.95318">
        <ele>197.8</ele>
        <time>2012-12-29T11:16:26.999Z</time>
      </trkpt>
      <trkpt lat="44.15057" lon="1.95324">
        <ele>197.7</ele>
        <time>2012-12-29T11:16:27.999Z</time>
      </trkpt>
      <trkpt lat="44.15053" lon="1.95329">
        <ele>197.9</ele>
        <time>2012-12-29T11:16:28.999Z</time>
      </trkpt>
      <trkpt lat="44.15048" lon="1.95335">
        <ele>197.9</ele>
        <time>2012-12-29T11:16:29.999Z</time>
      </trkpt>
      <trkpt lat="44.15043" lon="1.95339">
        <ele>197.8</ele>
        <time>2012-12-29T11:16:30.999Z</time>
      </trkpt>
      <trkpt lat="44.15039" lon="1.95342">
        <ele>197.8</ele>
        <time>2012-12-29T11:16:31.999Z</time>
      </trkpt>
      <trkpt lat="44.15035" lon="1.95346">
        <ele>197.8</ele>
        <time>2012-12-29T11:16:32.999Z</time>
      </trkpt>
      <trkpt lat="44.1503" lon="1.9535">
        <ele>197.7</ele>
        <time>2012-12-29T11:16:33.999Z</time>
      </trkpt>
      <trkpt lat="44.15026" lon="1.95354">
        <ele>197.7</ele>
        <time>2012-12-29T11:16:34.999Z</time>
      </trkpt>
      <trkpt lat="44.15022" lon="1.95357">
        <ele>197.7</ele>
        <time>2012-12-29T11:16:35.999Z</time>
      </trkpt>
      <trkpt lat="44.15019" lon="1.95359">
        <ele>197.9</ele>
        <time>2012-12-29T11:16:36.999Z</time>
      </trkpt>
      <trkpt lat="44.15015" lon="1.95361">
        <ele>198</ele>
        <time>2012-12-29T11:16:37.999Z</time>
      </trkpt>
      <trkpt lat="44.15012" lon="1.95362">
        <ele>198.1</ele>
        <time>2012-12-29T11:16:38.999Z</time>
      </trkpt>
      <trkpt lat="44.15009" lon="1.95364">
        <ele>198.2</ele>
        <time>2012-12-29T11:16:39.999Z</time>
      </trkpt>
      <trkpt lat="44.15006" lon="1.95365">
        <ele>198.4</ele>
        <time>2012-12-29T11:16:40.999Z</time>
      </trkpt>
      <trkpt lat="44.15003" lon="1.95367">
        <ele>198.6</ele>
        <time>2012-12-29T11:16:41.999Z</time>
      </trkpt>
      <trkpt lat="44.15" lon="1.95368">
        <ele>198.9</ele>
        <time>2012-12-29T11:16:42.999Z</time>
      </trkpt>
      <trkpt lat="44.14998" lon="1.9537">
        <ele>199.2</ele>
        <time>2012-12-29T11:16:43.999Z</time>
      </trkpt>
      <trkpt lat="44.14995" lon="1.95373">
        <ele>199.4</ele>
        <time>2012-12-29T11:16:44.999Z</time>
      </trkpt>
      <trkpt lat="44.14991" lon="1.95375">
        <ele>199.6</ele>
        <time>2012-12-29T11:16:45.999Z</time>
      </trkpt>
      <trkpt lat="44.14988" lon="1.95378">
        <ele>199.9</ele>
        <time>2012-12-29T11:16:46.999Z</time>
      </trkpt>
      <trkpt lat="44.14985" lon="1.9538">
        <ele>200.1</ele>
        <time>2012-12-29T11:16:47.999Z</time>
      </trkpt>
      <trkpt lat="44.14981" lon="1.95383">
        <ele>200.3</ele>
        <time>2012-12-29T11:16:48.999Z</time>
      </trkpt>
      <trkpt lat="44.14979" lon="1.95385">
        <ele>200.4</ele>
        <time>2012-12-29T11:16:49.999Z</time>
      </trkpt>
      <trkpt lat="44.14976" lon="1.95388">
        <ele>200.4</ele>
        <time>2012-12-29T11:16:50.999Z</time>
      </trkpt>
      <trkpt lat="44.14973" lon="1.9539">
        <ele>200.4</ele>
        <time>2012-12-29T11:16:51.999Z</time>
      </trkpt>
      <trkpt lat="44.1497" lon="1.95392">
        <ele>200.4</ele>
        <time>2012-12-29T11:16:52.999Z</time>
      </trkpt>
      <trkpt lat="44.14967" lon="1.95394">
        <ele>200.4</ele>
        <time>2012-12-29T11:16:53.999Z</time>
      </trkpt>
      <trkpt lat="44.14964" lon="1.95397">
        <ele>200.4</ele>
        <time>2012-12-29T11:16:54.999Z</time>
      </trkpt>
      <trkpt lat="44.14961" lon="1.95399">
        <ele>200.3</ele>
        <time>2012-12-29T11:16:55.999Z</time>
      </trkpt>
      <trkpt lat="44.14958" lon="1.95402">
        <ele>200.2</ele>
        <time>2012-12-29T11:16:56.999Z</time>
      </trkpt>
      <trkpt lat="44.14956" lon="1.95405">
        <ele>200.1</ele>
        <time>2012-12-29T11:16:57.999Z</time>
      </trkpt>
      <trkpt lat="44.14952" lon="1.95408">
        <ele>200</ele>
        <time>2012-12-29T11:16:58.999Z</time>
      </trkpt>
      <trkpt lat="44.1495" lon="1.95411">
        <ele>199.9</ele>
        <time>2012-12-29T11:16:59.999Z</time>
      </trkpt>
      <trkpt lat="44.14947" lon="1.95413">
        <ele>199.7</ele>
        <time>2012-12-29T11:17:00.999Z</time>
      </trkpt>
      <trkpt lat="44.14945" lon="1.95416">
        <ele>199.5</ele>
        <time>2012-12-29T11:17:01.999Z</time>
      </trkpt>
      <trkpt lat="44.14942" lon="1.95419">
        <ele>199.1</ele>
        <time>2012-12-29T11:17:02.999Z</time>
      </trkpt>
      <trkpt lat="44.14941" lon="1.95422">
        <ele>198.9</ele>
        <time>2012-12-29T11:17:03.999Z</time>
      </trkpt>
      <trkpt lat="44.1494" lon="1.95424">
        <ele>198.6</ele>
        <time>2012-12-29T11:17:04.999Z</time>
      </trkpt>
      <trkpt lat="44.14938" lon="1.95426">
        <ele>198.5</ele>
        <time>2012-12-29T11:17:05.999Z</time>
      </trkpt>
      <trkpt lat="44.14936" lon="1.95429">
        <ele>198.3</ele>
        <time>2012-12-29T11:17:06.999Z</time>
      </trkpt>
      <trkpt lat="44.14935" lon="1.95432">
        <ele>198.2</ele>
        <time>2012-12-29T11:17:07.999Z</time>
      </trkpt>
      <trkpt lat="44.14933" lon="1.95434">
        <ele>198.1</ele>
        <time>2012-12-29T11:17:08.999Z</time>
      </trkpt>
      <trkpt lat="44.14931" lon="1.95437">
        <ele>198</ele>
        <time>2012-12-29T11:17:09.999Z</time>
      </trkpt>
      <trkpt lat="44.14929" lon="1.9544">
        <ele>197.8</ele>
        <time>2012-12-29T11:17:10.999Z</time>
      </trkpt>
      <trkpt lat="44.14927" lon="1.95443">
        <ele>197.7</ele>
        <time>2012-12-29T11:17:11.999Z</time>
      </trkpt>
      <trkpt lat="44.14925" lon="1.95446">
        <ele>197.6</ele>
        <time>2012-12-29T11:17:12.999Z</time>
      </trkpt>
      <trkpt lat="44.14923" lon="1.95449">
        <ele>197.6</ele>
        <time>2012-12-29T11:17:13.999Z</time>
      </trkpt>
      <trkpt lat="44.14922" lon="1.95452">
        <ele>197.5</ele>
        <time>2012-12-29T11:17:14.999Z</time>
      </trkpt>
      <trkpt lat="44.1492" lon="1.95457">
        <ele>197.5</ele>
        <time>2012-12-29T11:17:15.999Z</time>
      </trkpt>
      <trkpt lat="44.14919" lon="1.95463">
        <ele>197.6</ele>
        <time>2012-12-29T11:17:16.999Z</time>
      </trkpt>
      <trkpt lat="44.14918" lon="1.95468">
        <ele>197.8</ele>
        <time>2012-12-29T11:17:17.999Z</time>
      </trkpt>
      <trkpt lat="44.14917" lon="1.95473">
        <ele>197.9</ele>
        <time>2012-12-29T11:17:18.999Z</time>
      </trkpt>
      <trkpt lat="44.14916" lon="1.95478">
        <ele>198</ele>
        <time>2012-12-29T11:17:19.999Z</time>
      </trkpt>
      <trkpt lat="44.14914" lon="1.95484">
        <ele>198.1</ele>
        <time>2012-12-29T11:17:20.999Z</time>
      </trkpt>
      <trkpt lat="44.14911" lon="1.95492">
        <ele>198.1</ele>
        <time>2012-12-29T11:17:21.999Z</time>
      </trkpt>
      <trkpt lat="44.14909" lon="1.95497">
        <ele>198.1</ele>
        <time>2012-12-29T11:17:22.999Z</time>
      </trkpt>
      <trkpt lat="44.14906" lon="1.95503">
        <ele>198.1</ele>
        <time>2012-12-29T11:17:23.999Z</time>
      </trkpt>
      <trkpt lat="44.14904" lon="1.95509">
        <ele>198</ele>
        <time>2012-12-29T11:17:24.999Z</time>
      </trkpt>
      <trkpt lat="44.14901" lon="1.95515">
        <ele>198.1</ele>
        <time>2012-12-29T11:17:25.999Z</time>
      </trkpt>
      <trkpt lat="44.14899" lon="1.9552">
        <ele>198</ele>
        <time>2012-12-29T11:17:26.999Z</time>
      </trkpt>
      <trkpt lat="44.14896" lon="1.95525">
        <ele>197.9</ele>
        <time>2012-12-29T11:17:27.999Z</time>
      </trkpt>
      <trkpt lat="44.14894" lon="1.95529">
        <ele>197.9</ele>
        <time>2012-12-29T11:17:28.999Z</time>
      </trkpt>
      <trkpt lat="44.14892" lon="1.95534">
        <ele>197.9</ele>
        <time>2012-12-29T11:17:29.999Z</time>
      </trkpt>
      <trkpt lat="44.14891" lon="1.95538">
        <ele>197.9</ele>
        <time>2012-12-29T11:17:30.999Z</time>
      </trkpt>
      <trkpt lat="44.14889" lon="1.95543">
        <ele>197.8</ele>
        <time>2012-12-29T11:17:31.999Z</time>
      </trkpt>
      <trkpt lat="44.14887" lon="1.95548">
        <ele>197.7</ele>
        <time>2012-12-29T11:17:32.999Z</time>
      </trkpt>
      <trkpt lat="44.14885" lon="1.95553">
        <ele>197.6</ele>
        <time>2012-12-29T11:17:33.999Z</time>
      </trkpt>
      <trkpt lat="44.14883" lon="1.95558">
        <ele>197.5</ele>
        <time>2012-12-29T11:17:34.999Z</time>
      </trkpt>
      <trkpt lat="44.14881" lon="1.95563">
        <ele>197.4</ele>
        <time>2012-12-29T11:17:35.999Z</time>
      </trkpt>
      <trkpt lat="44.14878" lon="1.95567">
        <ele>197.3</ele>
        <time>2012-12-29T11:17:36.999Z</time>
      </trkpt>
      <trkpt lat="44.14876" lon="1.95572">
        <ele>197</ele>
        <time>2012-12-29T11:17:37.999Z</time>
      </trkpt>
      <trkpt lat="44.14875" lon="1.95576">
        <ele>196.8</ele>
        <time>2012-12-29T11:17:38.999Z</time>
      </trkpt>
      <trkpt lat="44.14873" lon="1.9558">
        <ele>196.6</ele>
        <time>2012-12-29T11:17:39.999Z</time>
      </trkpt>
      <trkpt lat="44.14871" lon="1.95584">
        <ele>196.3</ele>
        <time>2012-12-29T11:17:40.999Z</time>
      </trkpt>
      <trkpt lat="44.1487" lon="1.95589">
        <ele>196.2</ele>
        <time>2012-12-29T11:17:41.999Z</time>
      </trkpt>
      <trkpt lat="44.14868" lon="1.95593">
        <ele>195.9</ele>
        <time>2012-12-29T11:17:42.999Z</time>
      </trkpt>
      <trkpt lat="44.14866" lon="1.95597">
        <ele>195.7</ele>
        <time>2012-12-29T11:17:43.999Z</time>
      </trkpt>
      <trkpt lat="44.14864" lon="1.95601">
        <ele>195.5</ele>
        <time>2012-12-29T11:17:44.999Z</time>
      </trkpt>
      <trkpt lat="44.14863" lon="1.95605">
        <ele>195.4</ele>
        <time>2012-12-29T11:17:45.999Z</time>
      </trkpt>
      <trkpt lat="44.14862" lon="1.9561">
        <ele>195.2</ele>
        <time>2012-12-29T11:17:46.999Z</time>
      </trkpt>
      <trkpt lat="44.14861" lon="1.95614">
        <ele>195</ele>
        <time>2012-12-29T11:17:47.999Z</time>
      </trkpt>
      <trkpt lat="44.1486" lon="1.95619">
        <ele>194.8</ele>
        <time>2012-12-29T11:17:48.999Z</time>
      </trkpt>
      <trkpt lat="44.14859" lon="1.95623">
        <ele>194.7</ele>
        <time>2012-12-29T11:17:49.999Z</time>
      </trkpt>
      <trkpt lat="44.14858" lon="1.95627">
        <ele>194.6</ele>
        <time>2012-12-29T11:17:50.999Z</time>
      </trkpt>
      <trkpt lat="44.14856" lon="1.9563">
        <ele>194.5</ele>
        <time>2012-12-29T11:17:51.999Z</time>
      </trkpt>
      <trkpt lat="44.14855" lon="1.95634">
        <ele>194.3</ele>
        <time>2012-12-29T11:17:52.999Z</time>
      </trkpt>
      <trkpt lat="44.14854" lon="1.95637">
        <ele>194.3</ele>
        <time>2012-12-29T11:17:53.999Z</time>
      </trkpt>
      <trkpt lat="44.14852" lon="1.9564">
        <ele>194.3</ele>
        <time>2012-12-29T11:17:54.999Z</time>
      </trkpt>
      <trkpt lat="44.14851" lon="1.95643">
        <ele>194.3</ele>
        <time>2012-12-29T11:17:55.999Z</time>
      </trkpt>
      <trkpt lat="44.14849" lon="1.95647">
        <ele>194.2</ele>
        <time>2012-12-29T11:17:56.999Z</time>
      </trkpt>
      <trkpt lat="44.14847" lon="1.95651">
        <ele>194.3</ele>
        <time>2012-12-29T11:17:57.999Z</time>
      </trkpt>
      <trkpt lat="44.14845" lon="1.95655">
        <ele>194.3</ele>
        <time>2012-12-29T11:17:58.999Z</time>
      </trkpt>
      <trkpt lat="44.14843" lon="1.95659">
        <ele>194.2</ele>
        <time>2012-12-29T11:17:59.999Z</time>
      </trkpt>
      <trkpt lat="44.14841" lon="1.95663">
        <ele>194.2</ele>
        <time>2012-12-29T11:18:00.999Z</time>
      </trkpt>
      <trkpt lat="44.14839" lon="1.95666">
        <ele>194.3</ele>
        <time>2012-12-29T11:18:01.999Z</time>
      </trkpt>
      <trkpt lat="44.14837" lon="1.9567">
        <ele>194.3</ele>
        <time>2012-12-29T11:18:02.999Z</time>
      </trkpt>
      <trkpt lat="44.14835" lon="1.95674">
        <ele>194.4</ele>
        <time>2012-12-29T11:18:03.999Z</time>
      </trkpt>
      <trkpt lat="44.14834" lon="1.95678">
        <ele>194.5</ele>
        <time>2012-12-29T11:18:04.999Z</time>
      </trkpt>
      <trkpt lat="44.14831" lon="1.95684">
        <ele>194.5</ele>
        <time>2012-12-29T11:18:05.999Z</time>
      </trkpt>
      <trkpt lat="44.1483" lon="1.95688">
        <ele>194.5</ele>
        <time>2012-12-29T11:18:06.999Z</time>
      </trkpt>
      <trkpt lat="44.1483" lon="1.95692">
        <ele>194.5</ele>
        <time>2012-12-29T11:18:07.999Z</time>
      </trkpt>
      <trkpt lat="44.14828" lon="1.95697">
        <ele>194.6</ele>
        <time>2012-12-29T11:18:08.999Z</time>
      </trkpt>
      <trkpt lat="44.14827" lon="1.95701">
        <ele>194.6</ele>
        <time>2012-12-29T11:18:09.999Z</time>
      </trkpt>
      <trkpt lat="44.14826" lon="1.95705">
        <ele>194.7</ele>
        <time>2012-12-29T11:18:10.999Z</time>
      </trkpt>
      <trkpt lat="44.14825" lon="1.95709">
        <ele>194.7</ele>
        <time>2012-12-29T11:18:11.999Z</time>
      </trkpt>
      <trkpt lat="44.14825" lon="1.95711">
        <ele>194.7</ele>
        <time>2012-12-29T11:18:12.999Z</time>
      </trkpt>
      <trkpt lat="44.14824" lon="1.95715">
        <ele>194.7</ele>
        <time>2012-12-29T11:18:13.999Z</time>
      </trkpt>
      <trkpt lat="44.14822" lon="1.95718">
        <ele>194.7</ele>
        <time>2012-12-29T11:18:14.999Z</time>
      </trkpt>
      <trkpt lat="44.1482" lon="1.95722">
        <ele>194.7</ele>
        <time>2012-12-29T11:18:15.999Z</time>
      </trkpt>
      <trkpt lat="44.14817" lon="1.95725">
        <ele>194.6</ele>
        <time>2012-12-29T11:18:16.999Z</time>
      </trkpt>
      <trkpt lat="44.14813" lon="1.95728">
        <ele>194.5</ele>
        <time>2012-12-29T11:18:17.999Z</time>
      </trkpt>
      <trkpt lat="44.1481" lon="1.95731">
        <ele>194.4</ele>
        <time>2012-12-29T11:18:18.999Z</time>
      </trkpt>
      <trkpt lat="44.14806" lon="1.95734">
        <ele>194.2</ele>
        <time>2012-12-29T11:18:19.999Z</time>
      </trkpt>
      <trkpt lat="44.14802" lon="1.95737">
        <ele>194.1</ele>
        <time>2012-12-29T11:18:20.999Z</time>
      </trkpt>
      <trkpt lat="44.14799" lon="1.9574">
        <ele>194.1</ele>
        <time>2012-12-29T11:18:21.999Z</time>
      </trkpt>
      <trkpt lat="44.14797" lon="1.95744">
        <ele>193.9</ele>
        <time>2012-12-29T11:18:22.999Z</time>
      </trkpt>
      <trkpt lat="44.14794" lon="1.95747">
        <ele>193.7</ele>
        <time>2012-12-29T11:18:23.999Z</time>
      </trkpt>
      <trkpt lat="44.14792" lon="1.9575">
        <ele>193.6</ele>
        <time>2012-12-29T11:18:24.999Z</time>
      </trkpt>
      <trkpt lat="44.14791" lon="1.95752">
        <ele>193.5</ele>
        <time>2012-12-29T11:18:25.999Z</time>
      </trkpt>
      <trkpt lat="44.1479" lon="1.95756">
        <ele>193.5</ele>
        <time>2012-12-29T11:18:26.999Z</time>
      </trkpt>
      <trkpt lat="44.14788" lon="1.9576">
        <ele>193.4</ele>
        <time>2012-12-29T11:18:27.999Z</time>
      </trkpt>
      <trkpt lat="44.14787" lon="1.95764">
        <ele>193.4</ele>
        <time>2012-12-29T11:18:28.999Z</time>
      </trkpt>
      <trkpt lat="44.14786" lon="1.95768">
        <ele>193.5</ele>
        <time>2012-12-29T11:18:29.999Z</time>
      </trkpt>
      <trkpt lat="44.14784" lon="1.95772">
        <ele>193.5</ele>
        <time>2012-12-29T11:18:30.999Z</time>
      </trkpt>
      <trkpt lat="44.14783" lon="1.95777">
        <ele>193.6</ele>
        <time>2012-12-29T11:18:31.999Z</time>
      </trkpt>
      <trkpt lat="44.1478" lon="1.95783">
        <ele>193.7</ele>
        <time>2012-12-29T11:18:32.999Z</time>
      </trkpt>
      <trkpt lat="44.14778" lon="1.9579">
        <ele>193.9</ele>
        <time>2012-12-29T11:18:33.999Z</time>
      </trkpt>
      <trkpt lat="44.14775" lon="1.95799">
        <ele>194.1</ele>
        <time>2012-12-29T11:18:34.999Z</time>
      </trkpt>
      <trkpt lat="44.14773" lon="1.95804">
        <ele>194.2</ele>
        <time>2012-12-29T11:18:35.999Z</time>
      </trkpt>
      <trkpt lat="44.14772" lon="1.95809">
        <ele>194.4</ele>
        <time>2012-12-29T11:18:36.999Z</time>
      </trkpt>
      <trkpt lat="44.1477" lon="1.95813">
        <ele>194.4</ele>
        <time>2012-12-29T11:18:37.999Z</time>
      </trkpt>
      <trkpt lat="44.14769" lon="1.95817">
        <ele>194.6</ele>
        <time>2012-12-29T11:18:38.999Z</time>
      </trkpt>
      <trkpt lat="44.14768" lon="1.95821">
        <ele>194.8</ele>
        <time>2012-12-29T11:18:39.999Z</time>
      </trkpt>
      <trkpt lat="44.14768" lon="1.95823">
        <ele>194.9</ele>
        <time>2012-12-29T11:18:40.999Z</time>
      </trkpt>
      <trkpt lat="44.14767" lon="1.95829">
        <ele>195.2</ele>
        <time>2012-12-29T11:18:42.999Z</time>
      </trkpt>
      <trkpt lat="44.14766" lon="1.95832">
        <ele>195.3</ele>
        <time>2012-12-29T11:18:43.999Z</time>
      </trkpt>
      <trkpt lat="44.14765" lon="1.95835">
        <ele>195.5</ele>
        <time>2012-12-29T11:18:44.999Z</time>
      </trkpt>
      <trkpt lat="44.14763" lon="1.95839">
        <ele>195.6</ele>
        <time>2012-12-29T11:18:45.999Z</time>
      </trkpt>
      <trkpt lat="44.14761" lon="1.95843">
        <ele>195.7</ele>
        <time>2012-12-29T11:18:46.999Z</time>
      </trkpt>
      <trkpt lat="44.14758" lon="1.95847">
        <ele>195.8</ele>
        <time>2012-12-29T11:18:47.999Z</time>
      </trkpt>
      <trkpt lat="44.14754" lon="1.9585">
        <ele>195.9</ele>
        <time>2012-12-29T11:18:48.999Z</time>
      </trkpt>
      <trkpt lat="44.14751" lon="1.95854">
        <ele>196</ele>
        <time>2012-12-29T11:18:49.999Z</time>
      </trkpt>
      <trkpt lat="44.14747" lon="1.95858">
        <ele>196.1</ele>
        <time>2012-12-29T11:18:50.999Z</time>
      </trkpt>
      <trkpt lat="44.14744" lon="1.95862">
        <ele>196.3</ele>
        <time>2012-12-29T11:18:51.999Z</time>
      </trkpt>
      <trkpt lat="44.1474" lon="1.95865">
        <ele>196.3</ele>
        <time>2012-12-29T11:18:52.999Z</time>
      </trkpt>
      <trkpt lat="44.14737" lon="1.95868">
        <ele>196.2</ele>
        <time>2012-12-29T11:18:53.999Z</time>
      </trkpt>
      <trkpt lat="44.14733" lon="1.95871">
        <ele>196.1</ele>
        <time>2012-12-29T11:18:54.999Z</time>
      </trkpt>
      <trkpt lat="44.14729" lon="1.95873">
        <ele>196</ele>
        <time>2012-12-29T11:18:55.999Z</time>
      </trkpt>
      <trkpt lat="44.14726" lon="1.95877">
        <ele>195.8</ele>
        <time>2012-12-29T11:18:56.999Z</time>
      </trkpt>
      <trkpt lat="44.14722" lon="1.9588">
        <ele>195.6</ele>
        <time>2012-12-29T11:18:57.999Z</time>
      </trkpt>
      <trkpt lat="44.1472" lon="1.95883">
        <ele>195.3</ele>
        <time>2012-12-29T11:18:58.999Z</time>
      </trkpt>
      <trkpt lat="44.14717" lon="1.95887">
        <ele>195</ele>
        <time>2012-12-29T11:18:59.999Z</time>
      </trkpt>
      <trkpt lat="44.14714" lon="1.9589">
        <ele>194.7</ele>
        <time>2012-12-29T11:19:00.999Z</time>
      </trkpt>
      <trkpt lat="44.14712" lon="1.95894">
        <ele>194.3</ele>
        <time>2012-12-29T11:19:01.999Z</time>
      </trkpt>
      <trkpt lat="44.14708" lon="1.95898">
        <ele>194</ele>
        <time>2012-12-29T11:19:02.999Z</time>
      </trkpt>
      <trkpt lat="44.14706" lon="1.95903">
        <ele>193.6</ele>
        <time>2012-12-29T11:19:03.999Z</time>
      </trkpt>
      <trkpt lat="44.14704" lon="1.95907">
        <ele>193.3</ele>
        <time>2012-12-29T11:19:04.999Z</time>
      </trkpt>
      <trkpt lat="44.14702" lon="1.95912">
        <ele>193.1</ele>
        <time>2012-12-29T11:19:05.999Z</time>
      </trkpt>
      <trkpt lat="44.147" lon="1.95919">
        <ele>193</ele>
        <time>2012-12-29T11:19:06.999Z</time>
      </trkpt>
      <trkpt lat="44.14698" lon="1.95924">
        <ele>192.9</ele>
        <time>2012-12-29T11:19:07.999Z</time>
      </trkpt>
      <trkpt lat="44.14696" lon="1.9593">
        <ele>192.7</ele>
        <time>2012-12-29T11:19:08.999Z</time>
      </trkpt>
      <trkpt lat="44.14695" lon="1.95935">
        <ele>192.6</ele>
        <time>2012-12-29T11:19:09.999Z</time>
      </trkpt>
      <trkpt lat="44.14694" lon="1.95941">
        <ele>192.5</ele>
        <time>2012-12-29T11:19:10.999Z</time>
      </trkpt>
      <trkpt lat="44.14693" lon="1.95947">
        <ele>192.5</ele>
        <time>2012-12-29T11:19:11.999Z</time>
      </trkpt>
      <trkpt lat="44.14694" lon="1.95952">
        <ele>192.2</ele>
        <time>2012-12-29T11:19:13.999Z</time>
      </trkpt>
      <trkpt lat="44.14694" lon="1.95956">
        <ele>192</ele>
        <time>2012-12-29T11:19:14.999Z</time>
      </trkpt>
      <trkpt lat="44.14694" lon="1.95963">
        <ele>191.9</ele>
        <time>2012-12-29T11:19:15.999Z</time>
      </trkpt>
      <trkpt lat="44.14693" lon="1.95968">
        <ele>191.9</ele>
        <time>2012-12-29T11:19:16.999Z</time>
      </trkpt>
      <trkpt lat="44.14694" lon="1.95971">
        <ele>192</ele>
        <time>2012-12-29T11:19:17.999Z</time>
      </trkpt>
      <trkpt lat="44.14694" lon="1.95975">
        <ele>192.1</ele>
        <time>2012-12-29T11:19:18.999Z</time>
      </trkpt>
      <trkpt lat="44.14695" lon="1.95981">
        <ele>192.2</ele>
        <time>2012-12-29T11:19:19.999Z</time>
      </trkpt>
      <trkpt lat="44.14695" lon="1.95986">
        <ele>192.4</ele>
        <time>2012-12-29T11:19:20.999Z</time>
      </trkpt>
      <trkpt lat="44.14694" lon="1.9599">
        <ele>192.5</ele>
        <time>2012-12-29T11:19:21.999Z</time>
      </trkpt>
      <trkpt lat="44.14693" lon="1.95995">
        <ele>192.7</ele>
        <time>2012-12-29T11:19:22.999Z</time>
      </trkpt>
      <trkpt lat="44.14692" lon="1.96">
        <ele>193</ele>
        <time>2012-12-29T11:19:23.999Z</time>
      </trkpt>
      <trkpt lat="44.14691" lon="1.96005">
        <ele>193.2</ele>
        <time>2012-12-29T11:19:24.999Z</time>
      </trkpt>
      <trkpt lat="44.1469" lon="1.9601">
        <ele>193.4</ele>
        <time>2012-12-29T11:19:25.999Z</time>
      </trkpt>
      <trkpt lat="44.14688" lon="1.96015">
        <ele>193.5</ele>
        <time>2012-12-29T11:19:26.999Z</time>
      </trkpt>
      <trkpt lat="44.14686" lon="1.96019">
        <ele>193.7</ele>
        <time>2012-12-29T11:19:27.999Z</time>
      </trkpt>
      <trkpt lat="44.14684" lon="1.96023">
        <ele>193.8</ele>
        <time>2012-12-29T11:19:28.999Z</time>
      </trkpt>
      <trkpt lat="44.14682" lon="1.96027">
        <ele>193.9</ele>
        <time>2012-12-29T11:19:29.999Z</time>
      </trkpt>
      <trkpt lat="44.1468" lon="1.9603">
        <ele>194.2</ele>
        <time>2012-12-29T11:19:30.999Z</time>
      </trkpt>
      <trkpt lat="44.14678" lon="1.96032">
        <ele>194.4</ele>
        <time>2012-12-29T11:19:31.999Z</time>
      </trkpt>
      <trkpt lat="44.14675" lon="1.96034">
        <ele>194.6</ele>
        <time>2012-12-29T11:19:32.999Z</time>
      </trkpt>
      <trkpt lat="44.14673" lon="1.96036">
        <ele>194.8</ele>
        <time>2012-12-29T11:19:33.999Z</time>
      </trkpt>
      <trkpt lat="44.14671" lon="1.96039">
        <ele>195.1</ele>
        <time>2012-12-29T11:19:34.999Z</time>
      </trkpt>
      <trkpt lat="44.14669" lon="1.96041">
        <ele>195.3</ele>
        <time>2012-12-29T11:19:35.999Z</time>
      </trkpt>
      <trkpt lat="44.14666" lon="1.96044">
        <ele>195.5</ele>
        <time>2012-12-29T11:19:36.999Z</time>
      </trkpt>
      <trkpt lat="44.14664" lon="1.96046">
        <ele>195.7</ele>
        <time>2012-12-29T11:19:37.999Z</time>
      </trkpt>
      <trkpt lat="44.14662" lon="1.96049">
        <ele>196</ele>
        <time>2012-12-29T11:19:38.999Z</time>
      </trkpt>
      <trkpt lat="44.1466" lon="1.96052">
        <ele>196.3</ele>
        <time>2012-12-29T11:19:39.999Z</time>
      </trkpt>
      <trkpt lat="44.14658" lon="1.96056">
        <ele>196.8</ele>
        <time>2012-12-29T11:19:41.999Z</time>
      </trkpt>
      <trkpt lat="44.14656" lon="1.96057">
        <ele>197.1</ele>
        <time>2012-12-29T11:19:42.999Z</time>
      </trkpt>
      <trkpt lat="44.14654" lon="1.96059">
        <ele>197.2</ele>
        <time>2012-12-29T11:19:43.999Z</time>
      </trkpt>
      <trkpt lat="44.14651" lon="1.96062">
        <ele>197.3</ele>
        <time>2012-12-29T11:19:44.999Z</time>
      </trkpt>
      <trkpt lat="44.14648" lon="1.96066">
        <ele>197.4</ele>
        <time>2012-12-29T11:19:46.999Z</time>
      </trkpt>
      <trkpt lat="44.14646" lon="1.96068">
        <ele>197.4</ele>
        <time>2012-12-29T11:19:47.999Z</time>
      </trkpt>
      <trkpt lat="44.14645" lon="1.96071">
        <ele>197.5</ele>
        <time>2012-12-29T11:19:48.999Z</time>
      </trkpt>
      <trkpt lat="44.14643" lon="1.96074">
        <ele>197.6</ele>
        <time>2012-12-29T11:19:49.999Z</time>
      </trkpt>
      <trkpt lat="44.14641" lon="1.96078">
        <ele>197.6</ele>
        <time>2012-12-29T11:19:50.999Z</time>
      </trkpt>
      <trkpt lat="44.1464" lon="1.96081">
        <ele>197.8</ele>
        <time>2012-12-29T11:19:51.999Z</time>
      </trkpt>
      <trkpt lat="44.14639" lon="1.96084">
        <ele>197.9</ele>
        <time>2012-12-29T11:19:52.999Z</time>
      </trkpt>
      <trkpt lat="44.14637" lon="1.96087">
        <ele>198</ele>
        <time>2012-12-29T11:19:53.999Z</time>
      </trkpt>
      <trkpt lat="44.14636" lon="1.9609">
        <ele>198.1</ele>
        <time>2012-12-29T11:19:54.999Z</time>
      </trkpt>
      <trkpt lat="44.14634" lon="1.96093">
        <ele>198.2</ele>
        <time>2012-12-29T11:19:55.999Z</time>
      </trkpt>
      <trkpt lat="44.14632" lon="1.96095">
        <ele>198.2</ele>
        <time>2012-12-29T11:19:56.999Z</time>
      </trkpt>
      <trkpt lat="44.14631" lon="1.96098">
        <ele>198.3</ele>
        <time>2012-12-29T11:19:57.999Z</time>
      </trkpt>
      <trkpt lat="44.14629" lon="1.961">
        <ele>198.4</ele>
        <time>2012-12-29T11:19:58.999Z</time>
      </trkpt>
      <trkpt lat="44.14627" lon="1.96103">
        <ele>198.5</ele>
        <time>2012-12-29T11:19:59.999Z</time>
      </trkpt>
      <trkpt lat="44.14625" lon="1.96107">
        <ele>198.6</ele>
        <time>2012-12-29T11:20:02.999Z</time>
      </trkpt>
      <trkpt lat="44.14623" lon="1.96109">
        <ele>198.7</ele>
        <time>2012-12-29T11:20:03.999Z</time>
      </trkpt>
      <trkpt lat="44.14621" lon="1.9611">
        <ele>198.9</ele>
        <time>2012-12-29T11:20:04.999Z</time>
      </trkpt>
      <trkpt lat="44.14619" lon="1.96114">
        <ele>199.1</ele>
        <time>2012-12-29T11:20:05.999Z</time>
      </trkpt>
      <trkpt lat="44.14617" lon="1.96117">
        <ele>199.3</ele>
        <time>2012-12-29T11:20:06.999Z</time>
      </trkpt>
      <trkpt lat="44.14614" lon="1.9612">
        <ele>199.5</ele>
        <time>2012-12-29T11:20:07.999Z</time>
      </trkpt>
      <trkpt lat="44.14612" lon="1.96123">
        <ele>199.6</ele>
        <time>2012-12-29T11:20:08.999Z</time>
      </trkpt>
      <trkpt lat="44.1461" lon="1.96127">
        <ele>199.6</ele>
        <time>2012-12-29T11:20:09.999Z</time>
      </trkpt>
      <trkpt lat="44.14608" lon="1.96129">
        <ele>199.7</ele>
        <time>2012-12-29T11:20:10.999Z</time>
      </trkpt>
      <trkpt lat="44.14605" lon="1.96132">
        <ele>199.8</ele>
        <time>2012-12-29T11:20:11.999Z</time>
      </trkpt>
      <trkpt lat="44.14602" lon="1.96136">
        <ele>199.8</ele>
        <time>2012-12-29T11:20:12.999Z</time>
      </trkpt>
      <trkpt lat="44.146" lon="1.9614">
        <ele>199.9</ele>
        <time>2012-12-29T11:20:13.999Z</time>
      </trkpt>
      <trkpt lat="44.14598" lon="1.96143">
        <ele>199.9</ele>
        <time>2012-12-29T11:20:14.999Z</time>
      </trkpt>
      <trkpt lat="44.14596" lon="1.96148">
        <ele>199.9</ele>
        <time>2012-12-29T11:20:15.999Z</time>
      </trkpt>
      <trkpt lat="44.14595" lon="1.96151">
        <ele>199.9</ele>
        <time>2012-12-29T11:20:16.999Z</time>
      </trkpt>
      <trkpt lat="44.14593" lon="1.96154">
        <ele>199.9</ele>
        <time>2012-12-29T11:20:17.999Z</time>
      </trkpt>
      <trkpt lat="44.14591" lon="1.96157">
        <ele>199.8</ele>
        <time>2012-12-29T11:20:18.999Z</time>
      </trkpt>
      <trkpt lat="44.14589" lon="1.96161">
        <ele>199.7</ele>
        <time>2012-12-29T11:20:19.999Z</time>
      </trkpt>
      <trkpt lat="44.14587" lon="1.96164">
        <ele>199.6</ele>
        <time>2012-12-29T11:20:20.999Z</time>
      </trkpt>
      <trkpt lat="44.14585" lon="1.96168">
        <ele>199.6</ele>
        <time>2012-12-29T11:20:21.999Z</time>
      </trkpt>
      <trkpt lat="44.14583" lon="1.96171">
        <ele>199.5</ele>
        <time>2012-12-29T11:20:22.999Z</time>
      </trkpt>
      <trkpt lat="44.14581" lon="1.96175">
        <ele>199.4</ele>
        <time>2012-12-29T11:20:23.999Z</time>
      </trkpt>
      <trkpt lat="44.14579" lon="1.96178">
        <ele>199.3</ele>
        <time>2012-12-29T11:20:24.999Z</time>
      </trkpt>
      <trkpt lat="44.14576" lon="1.96182">
        <ele>199.2</ele>
        <time>2012-12-29T11:20:25.999Z</time>
      </trkpt>
      <trkpt lat="44.14574" lon="1.96186">
        <ele>199.1</ele>
        <time>2012-12-29T11:20:26.999Z</time>
      </trkpt>
      <trkpt lat="44.14571" lon="1.96189">
        <ele>199.1</ele>
        <time>2012-12-29T11:20:27.999Z</time>
      </trkpt>
      <trkpt lat="44.14569" lon="1.96193">
        <ele>199.1</ele>
        <time>2012-12-29T11:20:28.999Z</time>
      </trkpt>
      <trkpt lat="44.14567" lon="1.96197">
        <ele>199.2</ele>
        <time>2012-12-29T11:20:29.999Z</time>
      </trkpt>
      <trkpt lat="44.14564" lon="1.96203">
        <ele>199.2</ele>
        <time>2012-12-29T11:20:30.999Z</time>
      </trkpt>
      <trkpt lat="44.14562" lon="1.96207">
        <ele>199.3</ele>
        <time>2012-12-29T11:20:31.999Z</time>
      </trkpt>
      <trkpt lat="44.1456" lon="1.9621">
        <ele>199.3</ele>
        <time>2012-12-29T11:20:32.999Z</time>
      </trkpt>
      <trkpt lat="44.14559" lon="1.96214">
        <ele>199.3</ele>
        <time>2012-12-29T11:20:33.999Z</time>
      </trkpt>
      <trkpt lat="44.14558" lon="1.96217">
        <ele>199.4</ele>
        <time>2012-12-29T11:20:34.999Z</time>
      </trkpt>
      <trkpt lat="44.14556" lon="1.96221">
        <ele>199.4</ele>
        <time>2012-12-29T11:20:35.999Z</time>
      </trkpt>
      <trkpt lat="44.14555" lon="1.96224">
        <ele>199.5</ele>
        <time>2012-12-29T11:20:36.999Z</time>
      </trkpt>
      <trkpt lat="44.14554" lon="1.96228">
        <ele>199.5</ele>
        <time>2012-12-29T11:20:37.999Z</time>
      </trkpt>
      <trkpt lat="44.14553" lon="1.96232">
        <ele>199.5</ele>
        <time>2012-12-29T11:20:38.999Z</time>
      </trkpt>
      <trkpt lat="44.14552" lon="1.96236">
        <ele>199.6</ele>
        <time>2012-12-29T11:20:39.999Z</time>
      </trkpt>
      <trkpt lat="44.14552" lon="1.96238">
        <ele>199.7</ele>
        <time>2012-12-29T11:20:40.999Z</time>
      </trkpt>
      <trkpt lat="44.14551" lon="1.96242">
        <ele>199.7</ele>
        <time>2012-12-29T11:20:41.999Z</time>
      </trkpt>
      <trkpt lat="44.1455" lon="1.96245">
        <ele>199.7</ele>
        <time>2012-12-29T11:20:42.999Z</time>
      </trkpt>
      <trkpt lat="44.14549" lon="1.96249">
        <ele>199.7</ele>
        <time>2012-12-29T11:20:43.999Z</time>
      </trkpt>
      <trkpt lat="44.14549" lon="1.96254">
        <ele>199.6</ele>
        <time>2012-12-29T11:20:44.999Z</time>
      </trkpt>
      <trkpt lat="44.14548" lon="1.96257">
        <ele>199.5</ele>
        <time>2012-12-29T11:20:45.999Z</time>
      </trkpt>
      <trkpt lat="44.14547" lon="1.96261">
        <ele>199.4</ele>
        <time>2012-12-29T11:20:46.999Z</time>
      </trkpt>
      <trkpt lat="44.14546" lon="1.96265">
        <ele>199.3</ele>
        <time>2012-12-29T11:20:47.999Z</time>
      </trkpt>
      <trkpt lat="44.14545" lon="1.96268">
        <ele>199.2</ele>
        <time>2012-12-29T11:20:48.999Z</time>
      </trkpt>
      <trkpt lat="44.14544" lon="1.96272">
        <ele>199.1</ele>
        <time>2012-12-29T11:20:49.999Z</time>
      </trkpt>
      <trkpt lat="44.14543" lon="1.96276">
        <ele>198.9</ele>
        <time>2012-12-29T11:20:50.999Z</time>
      </trkpt>
      <trkpt lat="44.14541" lon="1.96281">
        <ele>198.6</ele>
        <time>2012-12-29T11:20:51.999Z</time>
      </trkpt>
      <trkpt lat="44.1454" lon="1.96286">
        <ele>198.3</ele>
        <time>2012-12-29T11:20:52.999Z</time>
      </trkpt>
      <trkpt lat="44.14539" lon="1.9629">
        <ele>197.9</ele>
        <time>2012-12-29T11:20:53.999Z</time>
      </trkpt>
      <trkpt lat="44.14538" lon="1.96295">
        <ele>197.6</ele>
        <time>2012-12-29T11:20:54.999Z</time>
      </trkpt>
      <trkpt lat="44.14536" lon="1.963">
        <ele>197.2</ele>
        <time>2012-12-29T11:20:55.999Z</time>
      </trkpt>
      <trkpt lat="44.14535" lon="1.96304">
        <ele>196.8</ele>
        <time>2012-12-29T11:20:56.999Z</time>
      </trkpt>
      <trkpt lat="44.14533" lon="1.9631">
        <ele>196.4</ele>
        <time>2012-12-29T11:20:57.999Z</time>
      </trkpt>
      <trkpt lat="44.14531" lon="1.96315">
        <ele>196</ele>
        <time>2012-12-29T11:20:58.999Z</time>
      </trkpt>
      <trkpt lat="44.14529" lon="1.96319">
        <ele>195.6</ele>
        <time>2012-12-29T11:20:59.999Z</time>
      </trkpt>
      <trkpt lat="44.14527" lon="1.96323">
        <ele>195.2</ele>
        <time>2012-12-29T11:21:00.999Z</time>
      </trkpt>
      <trkpt lat="44.14525" lon="1.96325">
        <ele>194.8</ele>
        <time>2012-12-29T11:21:01.999Z</time>
      </trkpt>
      <trkpt lat="44.14523" lon="1.96329">
        <ele>194.5</ele>
        <time>2012-12-29T11:21:02.999Z</time>
      </trkpt>
      <trkpt lat="44.14522" lon="1.96333">
        <ele>194.2</ele>
        <time>2012-12-29T11:21:03.999Z</time>
      </trkpt>
      <trkpt lat="44.1452" lon="1.96337">
        <ele>193.9</ele>
        <time>2012-12-29T11:21:04.999Z</time>
      </trkpt>
      <trkpt lat="44.14519" lon="1.96343">
        <ele>193.7</ele>
        <time>2012-12-29T11:21:05.999Z</time>
      </trkpt>
      <trkpt lat="44.14518" lon="1.96348">
        <ele>193.5</ele>
        <time>2012-12-29T11:21:06.999Z</time>
      </trkpt>
      <trkpt lat="44.14516" lon="1.96356">
        <ele>193.4</ele>
        <time>2012-12-29T11:21:07.999Z</time>
      </trkpt>
      <trkpt lat="44.14514" lon="1.96364">
        <ele>193.4</ele>
        <time>2012-12-29T11:21:08.999Z</time>
      </trkpt>
      <trkpt lat="44.14513" lon="1.96372">
        <ele>193.4</ele>
        <time>2012-12-29T11:21:09.999Z</time>
      </trkpt>
      <trkpt lat="44.14512" lon="1.9638">
        <ele>193.4</ele>
        <time>2012-12-29T11:21:10.999Z</time>
      </trkpt>
      <trkpt lat="44.14512" lon="1.96387">
        <ele>193.4</ele>
        <time>2012-12-29T11:21:11.999Z</time>
      </trkpt>
      <trkpt lat="44.14511" lon="1.96394">
        <ele>193.4</ele>
        <time>2012-12-29T11:21:12.999Z</time>
      </trkpt>
      <trkpt lat="44.1451" lon="1.96401">
        <ele>193.9</ele>
        <time>2012-12-29T11:21:13.999Z</time>
      </trkpt>
      <trkpt lat="44.14509" lon="1.96408">
        <ele>193.9</ele>
        <time>2012-12-29T11:21:14.999Z</time>
      </trkpt>
      <trkpt lat="44.14507" lon="1.96413">
        <ele>193.8</ele>
        <time>2012-12-29T11:21:15.999Z</time>
      </trkpt>
      <trkpt lat="44.14505" lon="1.96418">
        <ele>193.7</ele>
        <time>2012-12-29T11:21:16.999Z</time>
      </trkpt>
      <trkpt lat="44.14503" lon="1.96423">
        <ele>193.6</ele>
        <time>2012-12-29T11:21:17.999Z</time>
      </trkpt>
      <trkpt lat="44.14501" lon="1.96427">
        <ele>193.4</ele>
        <time>2012-12-29T11:21:18.999Z</time>
      </trkpt>
      <trkpt lat="44.14499" lon="1.96433">
        <ele>193.2</ele>
        <time>2012-12-29T11:21:19.999Z</time>
      </trkpt>
      <trkpt lat="44.14496" lon="1.96438">
        <ele>193.2</ele>
        <time>2012-12-29T11:21:20.999Z</time>
      </trkpt>
      <trkpt lat="44.14494" lon="1.96443">
        <ele>193.2</ele>
        <time>2012-12-29T11:21:21.999Z</time>
      </trkpt>
      <trkpt lat="44.14491" lon="1.96448">
        <ele>193.1</ele>
        <time>2012-12-29T11:21:22.999Z</time>
      </trkpt>
      <trkpt lat="44.14488" lon="1.96453">
        <ele>193.1</ele>
        <time>2012-12-29T11:21:23.999Z</time>
      </trkpt>
      <trkpt lat="44.14486" lon="1.96457">
        <ele>193</ele>
        <time>2012-12-29T11:21:24.999Z</time>
      </trkpt>
      <trkpt lat="44.14482" lon="1.96462">
        <ele>193.1</ele>
        <time>2012-12-29T11:21:25.999Z</time>
      </trkpt>
      <trkpt lat="44.14479" lon="1.96467">
        <ele>193.2</ele>
        <time>2012-12-29T11:21:26.999Z</time>
      </trkpt>
      <trkpt lat="44.14476" lon="1.96473">
        <ele>193.3</ele>
        <time>2012-12-29T11:21:27.999Z</time>
      </trkpt>
      <trkpt lat="44.14472" lon="1.96478">
        <ele>193.5</ele>
        <time>2012-12-29T11:21:28.999Z</time>
      </trkpt>
      <trkpt lat="44.14468" lon="1.96483">
        <ele>193.6</ele>
        <time>2012-12-29T11:21:29.999Z</time>
      </trkpt>
      <trkpt lat="44.14465" lon="1.96487">
        <ele>193.6</ele>
        <time>2012-12-29T11:21:30.999Z</time>
      </trkpt>
      <trkpt lat="44.14461" lon="1.96492">
        <ele>194</ele>
        <time>2012-12-29T11:21:31.999Z</time>
      </trkpt>
      <trkpt lat="44.14456" lon="1.96498">
        <ele>194.2</ele>
        <time>2012-12-29T11:21:32.999Z</time>
      </trkpt>
      <trkpt lat="44.14452" lon="1.96502">
        <ele>194.3</ele>
        <time>2012-12-29T11:21:33.999Z</time>
      </trkpt>
      <trkpt lat="44.14448" lon="1.96505">
        <ele>194.3</ele>
        <time>2012-12-29T11:21:34.999Z</time>
      </trkpt>
      <trkpt lat="44.14446" lon="1.96509">
        <ele>194.3</ele>
        <time>2012-12-29T11:21:35.999Z</time>
      </trkpt>
      <trkpt lat="44.14444" lon="1.96512">
        <ele>194.3</ele>
        <time>2012-12-29T11:21:36.999Z</time>
      </trkpt>
      <trkpt lat="44.14442" lon="1.96515">
        <ele>194.3</ele>
        <time>2012-12-29T11:21:37.999Z</time>
      </trkpt>
      <trkpt lat="44.1444" lon="1.9652">
        <ele>194.3</ele>
        <time>2012-12-29T11:21:38.999Z</time>
      </trkpt>
      <trkpt lat="44.14438" lon="1.96524">
        <ele>194.3</ele>
        <time>2012-12-29T11:21:39.999Z</time>
      </trkpt>
      <trkpt lat="44.14436" lon="1.9653">
        <ele>194.4</ele>
        <time>2012-12-29T11:21:40.999Z</time>
      </trkpt>
      <trkpt lat="44.14433" lon="1.96537">
        <ele>194.4</ele>
        <time>2012-12-29T11:21:41.999Z</time>
      </trkpt>
      <trkpt lat="44.14432" lon="1.96545">
        <ele>194.3</ele>
        <time>2012-12-29T11:21:42.999Z</time>
      </trkpt>
      <trkpt lat="44.14431" lon="1.96552">
        <ele>194.4</ele>
        <time>2012-12-29T11:21:43.999Z</time>
      </trkpt>
      <trkpt lat="44.1443" lon="1.96558">
        <ele>194.4</ele>
        <time>2012-12-29T11:21:44.999Z</time>
      </trkpt>
      <trkpt lat="44.1443" lon="1.96564">
        <ele>194.5</ele>
        <time>2012-12-29T11:21:45.999Z</time>
      </trkpt>
      <trkpt lat="44.14429" lon="1.96571">
        <ele>194.6</ele>
        <time>2012-12-29T11:21:46.999Z</time>
      </trkpt>
      <trkpt lat="44.14427" lon="1.96575">
        <ele>194.7</ele>
        <time>2012-12-29T11:21:47.999Z</time>
      </trkpt>
      <trkpt lat="44.14426" lon="1.96579">
        <ele>194.9</ele>
        <time>2012-12-29T11:21:48.999Z</time>
      </trkpt>
      <trkpt lat="44.14424" lon="1.96582">
        <ele>195</ele>
        <time>2012-12-29T11:21:49.999Z</time>
      </trkpt>
      <trkpt lat="44.14424" lon="1.96585">
        <ele>195</ele>
        <time>2012-12-29T11:21:50.999Z</time>
      </trkpt>
      <trkpt lat="44.14422" lon="1.96588">
        <ele>195.1</ele>
        <time>2012-12-29T11:21:51.999Z</time>
      </trkpt>
      <trkpt lat="44.14421" lon="1.96591">
        <ele>195.3</ele>
        <time>2012-12-29T11:21:52.999Z</time>
      </trkpt>
      <trkpt lat="44.1442" lon="1.96594">
        <ele>195.4</ele>
        <time>2012-12-29T11:21:53.999Z</time>
      </trkpt>
      <trkpt lat="44.14418" lon="1.96598">
        <ele>195.4</ele>
        <time>2012-12-29T11:21:54.999Z</time>
      </trkpt>
      <trkpt lat="44.14417" lon="1.96603">
        <ele>195.5</ele>
        <time>2012-12-29T11:21:55.999Z</time>
      </trkpt>
      <trkpt lat="44.14415" lon="1.96607">
        <ele>195.6</ele>
        <time>2012-12-29T11:21:56.999Z</time>
      </trkpt>
      <trkpt lat="44.14413" lon="1.96611">
        <ele>195.6</ele>
        <time>2012-12-29T11:21:57.999Z</time>
      </trkpt>
      <trkpt lat="44.14411" lon="1.96615">
        <ele>195.6</ele>
        <time>2012-12-29T11:21:58.999Z</time>
      </trkpt>
      <trkpt lat="44.1441" lon="1.96619">
        <ele>195.7</ele>
        <time>2012-12-29T11:21:59.999Z</time>
      </trkpt>
      <trkpt lat="44.14408" lon="1.96623">
        <ele>195.7</ele>
        <time>2012-12-29T11:22:00.999Z</time>
      </trkpt>
      <trkpt lat="44.14405" lon="1.96627">
        <ele>195.7</ele>
        <time>2012-12-29T11:22:01.999Z</time>
      </trkpt>
      <trkpt lat="44.14404" lon="1.9663">
        <ele>195.6</ele>
        <time>2012-12-29T11:22:02.999Z</time>
      </trkpt>
      <trkpt lat="44.14402" lon="1.96633">
        <ele>195.7</ele>
        <time>2012-12-29T11:22:03.999Z</time>
      </trkpt>
      <trkpt lat="44.14399" lon="1.96637">
        <ele>195.6</ele>
        <time>2012-12-29T11:22:04.999Z</time>
      </trkpt>
      <trkpt lat="44.14395" lon="1.96639">
        <ele>195.7</ele>
        <time>2012-12-29T11:22:05.999Z</time>
      </trkpt>
      <trkpt lat="44.14391" lon="1.96642">
        <ele>195.6</ele>
        <time>2012-12-29T11:22:06.999Z</time>
      </trkpt>
      <trkpt lat="44.14387" lon="1.96644">
        <ele>195.6</ele>
        <time>2012-12-29T11:22:07.999Z</time>
      </trkpt>
      <trkpt lat="44.14384" lon="1.96647">
        <ele>195.4</ele>
        <time>2012-12-29T11:22:08.999Z</time>
      </trkpt>
      <trkpt lat="44.1438" lon="1.96649">
        <ele>195.3</ele>
        <time>2012-12-29T11:22:09.999Z</time>
      </trkpt>
      <trkpt lat="44.14377" lon="1.96652">
        <ele>195</ele>
        <time>2012-12-29T11:22:10.999Z</time>
      </trkpt>
      <trkpt lat="44.14373" lon="1.96654">
        <ele>194.7</ele>
        <time>2012-12-29T11:22:11.999Z</time>
      </trkpt>
      <trkpt lat="44.1437" lon="1.96656">
        <ele>194.5</ele>
        <time>2012-12-29T11:22:12.999Z</time>
      </trkpt>
      <trkpt lat="44.14368" lon="1.96662">
        <ele>192.8</ele>
        <time>2012-12-29T11:22:13.999Z</time>
      </trkpt>
      <trkpt lat="44.14366" lon="1.96669">
        <ele>191.7</ele>
        <time>2012-12-29T11:22:14.999Z</time>
      </trkpt>
      <trkpt lat="44.14364" lon="1.96676">
        <ele>191.8</ele>
        <time>2012-12-29T11:22:15.999Z</time>
      </trkpt>
      <trkpt lat="44.14362" lon="1.96684">
        <ele>192.3</ele>
        <time>2012-12-29T11:22:16.999Z</time>
      </trkpt>
      <trkpt lat="44.14358" lon="1.96691">
        <ele>192.4</ele>
        <time>2012-12-29T11:22:17.999Z</time>
      </trkpt>
      <trkpt lat="44.14356" lon="1.96699">
        <ele>192.5</ele>
        <time>2012-12-29T11:22:18.999Z</time>
      </trkpt>
      <trkpt lat="44.14354" lon="1.96707">
        <ele>193.4</ele>
        <time>2012-12-29T11:22:19.999Z</time>
      </trkpt>
      <trkpt lat="44.14352" lon="1.96715">
        <ele>194</ele>
        <time>2012-12-29T11:22:20.999Z</time>
      </trkpt>
      <trkpt lat="44.1435" lon="1.96722">
        <ele>194.7</ele>
        <time>2012-12-29T11:22:21.999Z</time>
      </trkpt>
      <trkpt lat="44.14349" lon="1.96729">
        <ele>194.9</ele>
        <time>2012-12-29T11:22:22.999Z</time>
      </trkpt>
      <trkpt lat="44.14348" lon="1.96737">
        <ele>195.1</ele>
        <time>2012-12-29T11:22:23.999Z</time>
      </trkpt>
      <trkpt lat="44.14346" lon="1.9675">
        <ele>195.3</ele>
        <time>2012-12-29T11:22:24.999Z</time>
      </trkpt>
      <trkpt lat="44.14343" lon="1.96759">
        <ele>194.9</ele>
        <time>2012-12-29T11:22:25.999Z</time>
      </trkpt>
      <trkpt lat="44.14341" lon="1.96768">
        <ele>194.6</ele>
        <time>2012-12-29T11:22:26.999Z</time>
      </trkpt>
      <trkpt lat="44.14339" lon="1.96775">
        <ele>194.3</ele>
        <time>2012-12-29T11:22:27.999Z</time>
      </trkpt>
      <trkpt lat="44.14338" lon="1.96782">
        <ele>193.8</ele>
        <time>2012-12-29T11:22:28.999Z</time>
      </trkpt>
      <trkpt lat="44.14337" lon="1.96789">
        <ele>194.4</ele>
        <time>2012-12-29T11:22:29.999Z</time>
      </trkpt>
      <trkpt lat="44.14335" lon="1.96795">
        <ele>194.9</ele>
        <time>2012-12-29T11:22:30.999Z</time>
      </trkpt>
      <trkpt lat="44.14334" lon="1.96801">
        <ele>195</ele>
        <time>2012-12-29T11:22:31.999Z</time>
      </trkpt>
      <trkpt lat="44.14331" lon="1.96806">
        <ele>195.4</ele>
        <time>2012-12-29T11:22:32.999Z</time>
      </trkpt>
      <trkpt lat="44.14329" lon="1.96812">
        <ele>195.6</ele>
        <time>2012-12-29T11:22:33.999Z</time>
      </trkpt>
      <trkpt lat="44.14327" lon="1.96818">
        <ele>196.1</ele>
        <time>2012-12-29T11:22:34.999Z</time>
      </trkpt>
      <trkpt lat="44.14325" lon="1.96823">
        <ele>195.9</ele>
        <time>2012-12-29T11:22:35.999Z</time>
      </trkpt>
      <trkpt lat="44.14322" lon="1.96828">
        <ele>196</ele>
        <time>2012-12-29T11:22:36.999Z</time>
      </trkpt>
      <trkpt lat="44.1432" lon="1.96833">
        <ele>196</ele>
        <time>2012-12-29T11:22:37.999Z</time>
      </trkpt>
      <trkpt lat="44.14318" lon="1.96838">
        <ele>196.1</ele>
        <time>2012-12-29T11:22:38.999Z</time>
      </trkpt>
      <trkpt lat="44.14316" lon="1.96843">
        <ele>196.1</ele>
        <time>2012-12-29T11:22:39.999Z</time>
      </trkpt>
      <trkpt lat="44.14313" lon="1.96848">
        <ele>196.2</ele>
        <time>2012-12-29T11:22:40.999Z</time>
      </trkpt>
      <trkpt lat="44.14311" lon="1.96853">
        <ele>196.2</ele>
        <time>2012-12-29T11:22:41.999Z</time>
      </trkpt>
      <trkpt lat="44.14309" lon="1.96857">
        <ele>196.3</ele>
        <time>2012-12-29T11:22:42.999Z</time>
      </trkpt>
      <trkpt lat="44.14307" lon="1.9686">
        <ele>196.4</ele>
        <time>2012-12-29T11:22:43.999Z</time>
      </trkpt>
      <trkpt lat="44.14305" lon="1.96863">
        <ele>196.5</ele>
        <time>2012-12-29T11:22:44.999Z</time>
      </trkpt>
      <trkpt lat="44.14303" lon="1.96866">
        <ele>196.6</ele>
        <time>2012-12-29T11:22:45.999Z</time>
      </trkpt>
      <trkpt lat="44.14301" lon="1.96869">
        <ele>196.7</ele>
        <time>2012-12-29T11:22:46.999Z</time>
      </trkpt>
      <trkpt lat="44.14299" lon="1.96872">
        <ele>196.8</ele>
        <time>2012-12-29T11:22:47.999Z</time>
      </trkpt>
      <trkpt lat="44.14297" lon="1.96875">
        <ele>197</ele>
        <time>2012-12-29T11:22:48.999Z</time>
      </trkpt>
      <trkpt lat="44.14296" lon="1.96878">
        <ele>197.2</ele>
        <time>2012-12-29T11:22:49.999Z</time>
      </trkpt>
      <trkpt lat="44.14295" lon="1.96881">
        <ele>197.2</ele>
        <time>2012-12-29T11:22:50.999Z</time>
      </trkpt>
      <trkpt lat="44.14293" lon="1.96884">
        <ele>197.3</ele>
        <time>2012-12-29T11:22:51.999Z</time>
      </trkpt>
      <trkpt lat="44.14291" lon="1.96888">
        <ele>197.3</ele>
        <time>2012-12-29T11:22:52.999Z</time>
      </trkpt>
      <trkpt lat="44.14288" lon="1.96892">
        <ele>197.4</ele>
        <time>2012-12-29T11:22:53.999Z</time>
      </trkpt>
      <trkpt lat="44.14286" lon="1.96896">
        <ele>197.4</ele>
        <time>2012-12-29T11:22:54.999Z</time>
      </trkpt>
      <trkpt lat="44.14282" lon="1.969">
        <ele>197.4</ele>
        <time>2012-12-29T11:22:55.999Z</time>
      </trkpt>
      <trkpt lat="44.14279" lon="1.96904">
        <ele>197.5</ele>
        <time>2012-12-29T11:22:56.999Z</time>
      </trkpt>
      <trkpt lat="44.14274" lon="1.96908">
        <ele>197.7</ele>
        <time>2012-12-29T11:22:57.999Z</time>
      </trkpt>
      <trkpt lat="44.1427" lon="1.96912">
        <ele>197.7</ele>
        <time>2012-12-29T11:22:58.999Z</time>
      </trkpt>
      <trkpt lat="44.14266" lon="1.96917">
        <ele>197.6</ele>
        <time>2012-12-29T11:22:59.999Z</time>
      </trkpt>
      <trkpt lat="44.14263" lon="1.96921">
        <ele>197.5</ele>
        <time>2012-12-29T11:23:00.999Z</time>
      </trkpt>
      <trkpt lat="44.1426" lon="1.96926">
        <ele>197.5</ele>
        <time>2012-12-29T11:23:01.999Z</time>
      </trkpt>
      <trkpt lat="44.14258" lon="1.96931">
        <ele>197.4</ele>
        <time>2012-12-29T11:23:02.999Z</time>
      </trkpt>
      <trkpt lat="44.14256" lon="1.96937">
        <ele>197.4</ele>
        <time>2012-12-29T11:23:03.999Z</time>
      </trkpt>
      <trkpt lat="44.14253" lon="1.96943">
        <ele>197.4</ele>
        <time>2012-12-29T11:23:04.999Z</time>
      </trkpt>
      <trkpt lat="44.14251" lon="1.96949">
        <ele>197.4</ele>
        <time>2012-12-29T11:23:05.999Z</time>
      </trkpt>
      <trkpt lat="44.14249" lon="1.96955">
        <ele>197.5</ele>
        <time>2012-12-29T11:23:06.999Z</time>
      </trkpt>
      <trkpt lat="44.14247" lon="1.9696">
        <ele>197.6</ele>
        <time>2012-12-29T11:23:07.999Z</time>
      </trkpt>
      <trkpt lat="44.14245" lon="1.96966">
        <ele>197</ele>
        <time>2012-12-29T11:23:08.999Z</time>
      </trkpt>
      <trkpt lat="44.14244" lon="1.96971">
        <ele>197</ele>
        <time>2012-12-29T11:23:09.999Z</time>
      </trkpt>
      <trkpt lat="44.14242" lon="1.96976">
        <ele>197</ele>
        <time>2012-12-29T11:23:10.999Z</time>
      </trkpt>
      <trkpt lat="44.14242" lon="1.9698">
        <ele>197.1</ele>
        <time>2012-12-29T11:23:11.999Z</time>
      </trkpt>
      <trkpt lat="44.14241" lon="1.96985">
        <ele>197.1</ele>
        <time>2012-12-29T11:23:12.999Z</time>
      </trkpt>
      <trkpt lat="44.1424" lon="1.96989">
        <ele>197.1</ele>
        <time>2012-12-29T11:23:13.999Z</time>
      </trkpt>
      <trkpt lat="44.14239" lon="1.96993">
        <ele>197.1</ele>
        <time>2012-12-29T11:23:14.999Z</time>
      </trkpt>
      <trkpt lat="44.14238" lon="1.96998">
        <ele>197.2</ele>
        <time>2012-12-29T11:23:15.999Z</time>
      </trkpt>
      <trkpt lat="44.14237" lon="1.97002">
        <ele>197.2</ele>
        <time>2012-12-29T11:23:16.999Z</time>
      </trkpt>
      <trkpt lat="44.14236" lon="1.97006">
        <ele>197.3</ele>
        <time>2012-12-29T11:23:17.999Z</time>
      </trkpt>
      <trkpt lat="44.14236" lon="1.9701">
        <ele>197.5</ele>
        <time>2012-12-29T11:23:18.999Z</time>
      </trkpt>
      <trkpt lat="44.14235" lon="1.97014">
        <ele>197.6</ele>
        <time>2012-12-29T11:23:19.999Z</time>
      </trkpt>
      <trkpt lat="44.14234" lon="1.97018">
        <ele>197.8</ele>
        <time>2012-12-29T11:23:20.999Z</time>
      </trkpt>
      <trkpt lat="44.14232" lon="1.97022">
        <ele>198</ele>
        <time>2012-12-29T11:23:21.999Z</time>
      </trkpt>
      <trkpt lat="44.14231" lon="1.97027">
        <ele>198.1</ele>
        <time>2012-12-29T11:23:22.999Z</time>
      </trkpt>
      <trkpt lat="44.1423" lon="1.97032">
        <ele>198.2</ele>
        <time>2012-12-29T11:23:23.999Z</time>
      </trkpt>
      <trkpt lat="44.14229" lon="1.97038">
        <ele>198.3</ele>
        <time>2012-12-29T11:23:24.999Z</time>
      </trkpt>
      <trkpt lat="44.14228" lon="1.97044">
        <ele>198.4</ele>
        <time>2012-12-29T11:23:25.999Z</time>
      </trkpt>
      <trkpt lat="44.14227" lon="1.97049">
        <ele>198.6</ele>
        <time>2012-12-29T11:23:26.999Z</time>
      </trkpt>
      <trkpt lat="44.14226" lon="1.97054">
        <ele>198.7</ele>
        <time>2012-12-29T11:23:27.999Z</time>
      </trkpt>
      <trkpt lat="44.14225" lon="1.97059">
        <ele>200.6</ele>
        <time>2012-12-29T11:23:28.999Z</time>
      </trkpt>
      <trkpt lat="44.14225" lon="1.97063">
        <ele>200.7</ele>
        <time>2012-12-29T11:23:29.999Z</time>
      </trkpt>
      <trkpt lat="44.14224" lon="1.97068">
        <ele>202.1</ele>
        <time>2012-12-29T11:23:30.999Z</time>
      </trkpt>
      <trkpt lat="44.14223" lon="1.97072">
        <ele>203.2</ele>
        <time>2012-12-29T11:23:31.999Z</time>
      </trkpt>
      <trkpt lat="44.14223" lon="1.97077">
        <ele>204</ele>
        <time>2012-12-29T11:23:32.999Z</time>
      </trkpt>
      <trkpt lat="44.14224" lon="1.97083">
        <ele>204.4</ele>
        <time>2012-12-29T11:23:33.999Z</time>
      </trkpt>
      <trkpt lat="44.14226" lon="1.97091">
        <ele>204.7</ele>
        <time>2012-12-29T11:23:34.999Z</time>
      </trkpt>
      <trkpt lat="44.14227" lon="1.97098">
        <ele>204.9</ele>
        <time>2012-12-29T11:23:35.999Z</time>
      </trkpt>
      <trkpt lat="44.14228" lon="1.97105">
        <ele>205.1</ele>
        <time>2012-12-29T11:23:36.999Z</time>
      </trkpt>
      <trkpt lat="44.14229" lon="1.97111">
        <ele>205.1</ele>
        <time>2012-12-29T11:23:37.999Z</time>
      </trkpt>
      <trkpt lat="44.1423" lon="1.97116">
        <ele>204.7</ele>
        <time>2012-12-29T11:23:38.999Z</time>
      </trkpt>
      <trkpt lat="44.14231" lon="1.97121">
        <ele>204.4</ele>
        <time>2012-12-29T11:23:39.999Z</time>
      </trkpt>
      <trkpt lat="44.14233" lon="1.97126">
        <ele>204</ele>
        <time>2012-12-29T11:23:40.999Z</time>
      </trkpt>
      <trkpt lat="44.14234" lon="1.97133">
        <ele>203.8</ele>
        <time>2012-12-29T11:23:41.999Z</time>
      </trkpt>
      <trkpt lat="44.14235" lon="1.9714">
        <ele>204.2</ele>
        <time>2012-12-29T11:23:42.999Z</time>
      </trkpt>
      <trkpt lat="44.14236" lon="1.97146">
        <ele>205</ele>
        <time>2012-12-29T11:23:43.999Z</time>
      </trkpt>
      <trkpt lat="44.14236" lon="1.97152">
        <ele>205.4</ele>
        <time>2012-12-29T11:23:44.999Z</time>
      </trkpt>
      <trkpt lat="44.14236" lon="1.97158">
        <ele>205.5</ele>
        <time>2012-12-29T11:23:45.999Z</time>
      </trkpt>
      <trkpt lat="44.14235" lon="1.97164">
        <ele>205.5</ele>
        <time>2012-12-29T11:23:46.999Z</time>
      </trkpt>
      <trkpt lat="44.14235" lon="1.97172">
        <ele>206</ele>
        <time>2012-12-29T11:23:47.999Z</time>
      </trkpt>
      <trkpt lat="44.14233" lon="1.97176">
        <ele>206.1</ele>
        <time>2012-12-29T11:23:48.999Z</time>
      </trkpt>
      <trkpt lat="44.14231" lon="1.97179">
        <ele>206.2</ele>
        <time>2012-12-29T11:23:49.999Z</time>
      </trkpt>
      <trkpt lat="44.1423" lon="1.97182">
        <ele>206.3</ele>
        <time>2012-12-29T11:23:50.999Z</time>
      </trkpt>
      <trkpt lat="44.14229" lon="1.97187">
        <ele>206.4</ele>
        <time>2012-12-29T11:23:51.999Z</time>
      </trkpt>
      <trkpt lat="44.14229" lon="1.97191">
        <ele>206.5</ele>
        <time>2012-12-29T11:23:52.999Z</time>
      </trkpt>
      <trkpt lat="44.14229" lon="1.97196">
        <ele>206.6</ele>
        <time>2012-12-29T11:23:53.999Z</time>
      </trkpt>
      <trkpt lat="44.14229" lon="1.97201">
        <ele>206.7</ele>
        <time>2012-12-29T11:23:54.999Z</time>
      </trkpt>
      <trkpt lat="44.14229" lon="1.97205">
        <ele>206.8</ele>
        <time>2012-12-29T11:23:55.999Z</time>
      </trkpt>
      <trkpt lat="44.14229" lon="1.97211">
        <ele>208.1</ele>
        <time>2012-12-29T11:23:56.999Z</time>
      </trkpt>
      <trkpt lat="44.1423" lon="1.97217">
        <ele>209.2</ele>
        <time>2012-12-29T11:23:57.999Z</time>
      </trkpt>
      <trkpt lat="44.14231" lon="1.97224">
        <ele>209.8</ele>
        <time>2012-12-29T11:23:58.999Z</time>
      </trkpt>
      <trkpt lat="44.14232" lon="1.9723">
        <ele>209.8</ele>
        <time>2012-12-29T11:23:59.999Z</time>
      </trkpt>
      <trkpt lat="44.14234" lon="1.97238">
        <ele>209.4</ele>
        <time>2012-12-29T11:24:00.999Z</time>
      </trkpt>
      <trkpt lat="44.14236" lon="1.97245">
        <ele>208.8</ele>
        <time>2012-12-29T11:24:01.999Z</time>
      </trkpt>
      <trkpt lat="44.14238" lon="1.97253">
        <ele>208.2</ele>
        <time>2012-12-29T11:24:02.999Z</time>
      </trkpt>
      <trkpt lat="44.1424" lon="1.97259">
        <ele>207.8</ele>
        <time>2012-12-29T11:24:03.999Z</time>
      </trkpt>
      <trkpt lat="44.14242" lon="1.97264">
        <ele>207.5</ele>
        <time>2012-12-29T11:24:04.999Z</time>
      </trkpt>
      <trkpt lat="44.14244" lon="1.97269">
        <ele>207.4</ele>
        <time>2012-12-29T11:24:05.999Z</time>
      </trkpt>
      <trkpt lat="44.14246" lon="1.97274">
        <ele>207.4</ele>
        <time>2012-12-29T11:24:06.999Z</time>
      </trkpt>
      <trkpt lat="44.14247" lon="1.97279">
        <ele>207.4</ele>
        <time>2012-12-29T11:24:07.999Z</time>
      </trkpt>
      <trkpt lat="44.14248" lon="1.97283">
        <ele>207.4</ele>
        <time>2012-12-29T11:24:08.999Z</time>
      </trkpt>
      <trkpt lat="44.14249" lon="1.97287">
        <ele>207.4</ele>
        <time>2012-12-29T11:24:09.999Z</time>
      </trkpt>
      <trkpt lat="44.1425" lon="1.97291">
        <ele>207.4</ele>
        <time>2012-12-29T11:24:10.999Z</time>
      </trkpt>
      <trkpt lat="44.14252" lon="1.97295">
        <ele>207.4</ele>
        <time>2012-12-29T11:24:11.999Z</time>
      </trkpt>
      <trkpt lat="44.14252" lon="1.97299">
        <ele>207.3</ele>
        <time>2012-12-29T11:24:12.999Z</time>
      </trkpt>
      <trkpt lat="44.14253" lon="1.97303">
        <ele>207.3</ele>
        <time>2012-12-29T11:24:13.999Z</time>
      </trkpt>
      <trkpt lat="44.14253" lon="1.97308">
        <ele>207.3</ele>
        <time>2012-12-29T11:24:14.999Z</time>
      </trkpt>
      <trkpt lat="44.14254" lon="1.97312">
        <ele>207.3</ele>
        <time>2012-12-29T11:24:15.999Z</time>
      </trkpt>
      <trkpt lat="44.14254" lon="1.97316">
        <ele>207.3</ele>
        <time>2012-12-29T11:24:16.999Z</time>
      </trkpt>
      <trkpt lat="44.14254" lon="1.97321">
        <ele>207.2</ele>
        <time>2012-12-29T11:24:17.999Z</time>
      </trkpt>
      <trkpt lat="44.14255" lon="1.97324">
        <ele>207.2</ele>
        <time>2012-12-29T11:24:18.999Z</time>
      </trkpt>
      <trkpt lat="44.14256" lon="1.97327">
        <ele>207.1</ele>
        <time>2012-12-29T11:24:19.999Z</time>
      </trkpt>
      <trkpt lat="44.14257" lon="1.97332">
        <ele>207</ele>
        <time>2012-12-29T11:24:21.999Z</time>
      </trkpt>
      <trkpt lat="44.14256" lon="1.97334">
        <ele>206.9</ele>
        <time>2012-12-29T11:24:22.999Z</time>
      </trkpt>
      <trkpt lat="44.14254" lon="1.97339">
        <ele>207.4</ele>
        <time>2012-12-29T11:24:38.999Z</time>
      </trkpt>
      <trkpt lat="44.14254" lon="1.9734">
        <ele>207.4</ele>
        <time>2012-12-29T11:24:39.999Z</time>
      </trkpt>
      <trkpt lat="44.14253" lon="1.97335">
        <ele>207.5</ele>
        <time>2012-12-29T11:24:46.999Z</time>
      </trkpt>
    </trkseg>
  </trk>
</gpx>